<?xml version="1.0"?>
<gpx xmlns="http://www.topografix.com/GPX/1/1" xmlns:xsi="http://www.w3.org/2001/XMLSchema-instance" xmlns:wptx1="http://www.garmin.com/xmlschemas/WaypointExtension/v1" xmlns:gpxtrx="http://www.garmin.com/xmlschemas/GpxExtensions/v3" xmlns:gpxtpx="http://www.garmin.com/xmlschemas/TrackPointExtension/v1" xmlns:gpxx="http://www.garmin.com/xmlschemas/GpxExtensions/v3" xmlns:trp="http://www.garmin.com/xmlschemas/TripExtensions/v1" xmlns:adv="http://www.garmin.com/xmlschemas/AdventuresExtensions/v1" xmlns:prs="http://www.garmin.com/xmlschemas/PressureExtension/v1" xmlns:tmd="http://www.garmin.com/xmlschemas/TripMetaDataExtensions/v1" xmlns:vptm="http://www.garmin.com/xmlschemas/ViaPointTransportationModeExtensions/v1" xmlns:ctx="http://www.garmin.com/xmlschemas/CreationTimeExtension/v1" xmlns:gpxacc="http://www.garmin.com/xmlschemas/AccelerationExtension/v1" xmlns:gpxpx="http://www.garmin.com/xmlschemas/PowerExtension/v1" xmlns:vidx1="http://www.garmin.com/xmlschemas/VideoExtension/v1" creator="Garmin Desktop App" version="1.1" xsi:schemaLocation="http://www.topografix.com/GPX/1/1 http://www.topografix.com/GPX/1/1/gpx.xsd http://www.garmin.com/xmlschemas/WaypointExtension/v1 http://www8.garmin.com/xmlschemas/WaypointExtensionv1.xsd http://www.garmin.com/xmlschemas/TrackPointExtension/v1 http://www.garmin.com/xmlschemas/TrackPointExtensionv1.xsd http://www.garmin.com/xmlschemas/GpxExtensions/v3 http://www8.garmin.com/xmlschemas/GpxExtensionsv3.xsd http://www.garmin.com/xmlschemas/ActivityExtension/v1 http://www8.garmin.com/xmlschemas/ActivityExtensionv1.xsd http://www.garmin.com/xmlschemas/AdventuresExtensions/v1 http://www8.garmin.com/xmlschemas/AdventuresExtensionv1.xsd http://www.garmin.com/xmlschemas/PressureExtension/v1 http://www.garmin.com/xmlschemas/PressureExtensionv1.xsd http://www.garmin.com/xmlschemas/TripExtensions/v1 http://www.garmin.com/xmlschemas/TripExtensionsv1.xsd http://www.garmin.com/xmlschemas/TripMetaDataExtensions/v1 http://www.garmin.com/xmlschemas/TripMetaDataExtensionsv1.xsd http://www.garmin.com/xmlschemas/ViaPointTransportationModeExtensions/v1 http://www.garmin.com/xmlschemas/ViaPointTransportationModeExtensionsv1.xsd http://www.garmin.com/xmlschemas/CreationTimeExtension/v1 http://www.garmin.com/xmlschemas/CreationTimeExtensionsv1.xsd http://www.garmin.com/xmlschemas/AccelerationExtension/v1 http://www.garmin.com/xmlschemas/AccelerationExtensionv1.xsd http://www.garmin.com/xmlschemas/PowerExtension/v1 http://www.garmin.com/xmlschemas/PowerExtensionv1.xsd http://www.garmin.com/xmlschemas/VideoExtension/v1 http://www.garmin.com/xmlschemas/VideoExtensionv1.xsd">

  <metadata>
    <link href="http://www.garmin.com">
      <text>Garmin International</text>
    </link>
    <time>2015-05-20T11:48:11Z</time>
    <bounds maxlat="48.144687982276082" maxlon="17.105146022513509" minlat="46.918979985639453" minlon="16.13504801876843"/>
  </metadata>

  <trk>
    <name>MARTINSWEGAPRIL2015 001</name>
    <extensions>
      <gpxx:TrackExtension>
        <gpxx:DisplayColor>Green</gpxx:DisplayColor>
      </gpxx:TrackExtension>
    </extensions>
    <trkseg>
      <trkpt lat="48.142226971685886" lon="17.104553002864122">
        <ele>124.629999999999995</ele>
        <time>2015-04-07T06:02:55Z</time>
      </trkpt>
      <trkpt lat="48.142226971685886" lon="17.104555014520884">
        <ele>127.989999999999995</ele>
        <time>2015-04-07T06:02:58Z</time>
      </trkpt>
      <trkpt lat="48.142220014706254" lon="17.104555014520884">
        <ele>131.840000000000003</ele>
        <time>2015-04-07T06:03:02Z</time>
      </trkpt>
      <trkpt lat="48.142199981957674" lon="17.104553002864122">
        <ele>135.680000000000007</ele>
        <time>2015-04-07T06:03:06Z</time>
      </trkpt>
      <trkpt lat="48.142196964472532" lon="17.104559037834406">
        <ele>139.050000000000011</ele>
        <time>2015-04-07T06:03:10Z</time>
      </trkpt>
      <trkpt lat="48.142189001664519" lon="17.104560965672135">
        <ele>140.969999999999999</ele>
        <time>2015-04-07T06:03:23Z</time>
      </trkpt>
      <trkpt lat="48.142196964472532" lon="17.104559037834406">
        <ele>142.889999999999986</ele>
        <time>2015-04-07T06:03:27Z</time>
      </trkpt>
      <trkpt lat="48.142193024978042" lon="17.104570018127561">
        <ele>144.340000000000003</ele>
        <time>2015-04-07T06:03:30Z</time>
      </trkpt>
      <trkpt lat="48.14214700832963" lon="17.104617962613702">
        <ele>147.699999999999989</ele>
        <time>2015-04-07T06:03:40Z</time>
      </trkpt>
      <trkpt lat="48.142138961702585" lon="17.104614023119211">
        <ele>148.659999999999997</ele>
        <time>2015-04-07T06:03:43Z</time>
      </trkpt>
      <trkpt lat="48.142117001116276" lon="17.104567000642419">
        <ele>151.539999999999992</ele>
        <time>2015-04-07T06:03:48Z</time>
      </trkpt>
      <trkpt lat="48.141865041106939" lon="17.104555014520884">
        <ele>151.060000000000002</ele>
        <time>2015-04-07T06:04:00Z</time>
      </trkpt>
      <trkpt lat="48.141593970358372" lon="17.104663979262114">
        <ele>149.620000000000005</ele>
        <time>2015-04-07T06:04:13Z</time>
      </trkpt>
      <trkpt lat="48.141533033922315" lon="17.104680994525552">
        <ele>148.180000000000007</ele>
        <time>2015-04-07T06:04:16Z</time>
      </trkpt>
      <trkpt lat="48.141384003683925" lon="17.104762969538569">
        <ele>145.300000000000011</ele>
        <time>2015-04-07T06:04:21Z</time>
      </trkpt>
      <trkpt lat="48.141105975955725" lon="17.104832036420703">
        <ele>144.819999999999993</ele>
        <time>2015-04-07T06:04:32Z</time>
      </trkpt>
      <trkpt lat="48.140830965712667" lon="17.104894984513521">
        <ele>144.340000000000003</ele>
        <time>2015-04-07T06:04:43Z</time>
      </trkpt>
      <trkpt lat="48.140643965452909" lon="17.104865983128548">
        <ele>143.370000000000005</ele>
        <time>2015-04-07T06:04:53Z</time>
      </trkpt>
      <trkpt lat="48.140643965452909" lon="17.104865983128548">
        <ele>144.819999999999993</ele>
        <time>2015-04-07T06:05:14Z</time>
      </trkpt>
      <trkpt lat="48.140636002644897" lon="17.104907976463437">
        <ele>143.849999999999994</ele>
        <time>2015-04-07T06:05:32Z</time>
      </trkpt>
      <trkpt lat="48.14042704179883" lon="17.105094976723194">
        <ele>142.409999999999997</ele>
        <time>2015-04-07T06:05:45Z</time>
      </trkpt>
      <trkpt lat="48.140059998258948" lon="17.105146022513509">
        <ele>141.449999999999989</ele>
        <time>2015-04-07T06:05:56Z</time>
      </trkpt>
      <trkpt lat="48.139751041308045" lon="17.105126995593309">
        <ele>141.930000000000007</ele>
        <time>2015-04-07T06:06:10Z</time>
      </trkpt>
      <trkpt lat="48.139625983312726" lon="17.10510796867311">
        <ele>141.449999999999989</ele>
        <time>2015-04-07T06:06:16Z</time>
      </trkpt>
      <trkpt lat="48.139598993584514" lon="17.104878975078464">
        <ele>142.409999999999997</ele>
        <time>2015-04-07T06:06:23Z</time>
      </trkpt>
      <trkpt lat="48.139609973877668" lon="17.104171961545944">
        <ele>141.930000000000007</ele>
        <time>2015-04-07T06:06:38Z</time>
      </trkpt>
      <trkpt lat="48.139645010232925" lon="17.103348020464182">
        <ele>142.409999999999997</ele>
        <time>2015-04-07T06:06:55Z</time>
      </trkpt>
      <trkpt lat="48.139670994132757" lon="17.102578980848193">
        <ele>142.409999999999997</ele>
        <time>2015-04-07T06:07:10Z</time>
      </trkpt>
      <trkpt lat="48.139693960547447" lon="17.101832991465926">
        <ele>143.370000000000005</ele>
        <time>2015-04-07T06:07:25Z</time>
      </trkpt>
      <trkpt lat="48.139724973589182" lon="17.101351032033563">
        <ele>142.409999999999997</ele>
        <time>2015-04-07T06:07:36Z</time>
      </trkpt>
      <trkpt lat="48.139751041308045" lon="17.101274002343416">
        <ele>145.300000000000011</ele>
        <time>2015-04-07T06:07:43Z</time>
      </trkpt>
      <trkpt lat="48.139751041308045" lon="17.101274002343416">
        <ele>140.009999999999991</ele>
        <time>2015-04-07T06:07:44Z</time>
      </trkpt>
      <trkpt lat="48.139744000509381" lon="17.101268973201513">
        <ele>141.930000000000007</ele>
        <time>2015-04-07T06:07:51Z</time>
      </trkpt>
      <trkpt lat="48.139739977195859" lon="17.101233014836907">
        <ele>142.409999999999997</ele>
        <time>2015-04-07T06:07:53Z</time>
      </trkpt>
      <trkpt lat="48.139744000509381" lon="17.100588027387857">
        <ele>143.370000000000005</ele>
        <time>2015-04-07T06:08:06Z</time>
      </trkpt>
      <trkpt lat="48.139774007722735" lon="17.099764002487063">
        <ele>142.889999999999986</ele>
        <time>2015-04-07T06:08:22Z</time>
      </trkpt>
      <trkpt lat="48.13980502076447" lon="17.098939977586269">
        <ele>142.409999999999997</ele>
        <time>2015-04-07T06:08:39Z</time>
      </trkpt>
      <trkpt lat="48.13984701409936" lon="17.098033977672458">
        <ele>142.409999999999997</ele>
        <time>2015-04-07T06:08:56Z</time>
      </trkpt>
      <trkpt lat="48.139914991334081" lon="17.097237026318908">
        <ele>141.930000000000007</ele>
        <time>2015-04-07T06:09:11Z</time>
      </trkpt>
      <trkpt lat="48.139987997710705" lon="17.096421970054507">
        <ele>141.930000000000007</ele>
        <time>2015-04-07T06:09:26Z</time>
      </trkpt>
      <trkpt lat="48.140071984380484" lon="17.095526028424501">
        <ele>142.409999999999997</ele>
        <time>2015-04-07T06:09:43Z</time>
      </trkpt>
      <trkpt lat="48.140190001577139" lon="17.094864025712013">
        <ele>141.930000000000007</ele>
        <time>2015-04-07T06:09:56Z</time>
      </trkpt>
      <trkpt lat="48.140324028208852" lon="17.094215014949441">
        <ele>142.409999999999997</ele>
        <time>2015-04-07T06:10:09Z</time>
      </trkpt>
      <trkpt lat="48.140487978234887" lon="17.093389984220266">
        <ele>142.889999999999986</ele>
        <time>2015-04-07T06:10:25Z</time>
      </trkpt>
      <trkpt lat="48.140656035393476" lon="17.092580962926149">
        <ele>141.930000000000007</ele>
        <time>2015-04-07T06:10:41Z</time>
      </trkpt>
      <trkpt lat="48.140849992632866" lon="17.091618971899152">
        <ele>142.889999999999986</ele>
        <time>2015-04-07T06:11:00Z</time>
      </trkpt>
      <trkpt lat="48.141026012599468" lon="17.090714983642101">
        <ele>142.409999999999997</ele>
        <time>2015-04-07T06:11:17Z</time>
      </trkpt>
      <trkpt lat="48.14120102673769" lon="17.089905040338635">
        <ele>143.370000000000005</ele>
        <time>2015-04-07T06:11:33Z</time>
      </trkpt>
      <trkpt lat="48.141342010349035" lon="17.089105993509293">
        <ele>142.889999999999986</ele>
        <time>2015-04-07T06:11:48Z</time>
      </trkpt>
      <trkpt lat="48.14152498729527" lon="17.08815598860383">
        <ele>142.889999999999986</ele>
        <time>2015-04-07T06:12:06Z</time>
      </trkpt>
      <trkpt lat="48.14167401753366" lon="17.087399018928409">
        <ele>141.449999999999989</ele>
        <time>2015-04-07T06:12:20Z</time>
      </trkpt>
      <trkpt lat="48.141841990873218" lon="17.086494024842978">
        <ele>140.009999999999991</ele>
        <time>2015-04-07T06:12:37Z</time>
      </trkpt>
      <trkpt lat="48.141883984208107" lon="17.086297972127795">
        <ele>141.930000000000007</ele>
        <time>2015-04-07T06:12:41Z</time>
      </trkpt>
      <trkpt lat="48.142006024718285" lon="17.085627000778913">
        <ele>141.930000000000007</ele>
        <time>2015-04-07T06:12:55Z</time>
      </trkpt>
      <trkpt lat="48.142112977802753" lon="17.084964998066425">
        <ele>141.930000000000007</ele>
        <time>2015-04-07T06:13:08Z</time>
      </trkpt>
      <trkpt lat="48.14229997806251" lon="17.084080036729574">
        <ele>140.969999999999999</ele>
        <time>2015-04-07T06:13:26Z</time>
      </trkpt>
      <trkpt lat="48.142483038827777" lon="17.083150986582041">
        <ele>141.449999999999989</ele>
        <time>2015-04-07T06:13:44Z</time>
      </trkpt>
      <trkpt lat="48.142573982477188" lon="17.082710014656186">
        <ele>140.969999999999999</ele>
        <time>2015-04-07T06:13:55Z</time>
      </trkpt>
      <trkpt lat="48.142670039087534" lon="17.0821169950068">
        <ele>141.449999999999989</ele>
        <time>2015-04-07T06:14:07Z</time>
      </trkpt>
      <trkpt lat="48.14281496219337" lon="17.08142900839448">
        <ele>141.449999999999989</ele>
        <time>2015-04-07T06:14:20Z</time>
      </trkpt>
      <trkpt lat="48.142956029623747" lon="17.080672960728407">
        <ele>141.449999999999989</ele>
        <time>2015-04-07T06:14:34Z</time>
      </trkpt>
      <trkpt lat="48.143101036548615" lon="17.0799670368433">
        <ele>141.449999999999989</ele>
        <time>2015-04-07T06:14:47Z</time>
      </trkpt>
      <trkpt lat="48.143146969377995" lon="17.079713987186551">
        <ele>140.490000000000009</ele>
        <time>2015-04-07T06:14:52Z</time>
      </trkpt>
      <trkpt lat="48.143275966867805" lon="17.07904402166605">
        <ele>141.449999999999989</ele>
        <time>2015-04-07T06:15:07Z</time>
      </trkpt>
      <trkpt lat="48.143405970185995" lon="17.078603971749544">
        <ele>140.969999999999999</ele>
        <time>2015-04-07T06:15:18Z</time>
      </trkpt>
      <trkpt lat="48.143471013754606" lon="17.078213039785624">
        <ele>142.889999999999986</ele>
        <time>2015-04-07T06:15:26Z</time>
      </trkpt>
      <trkpt lat="48.143508983775973" lon="17.078005000948906">
        <ele>141.930000000000007</ele>
        <time>2015-04-07T06:15:30Z</time>
      </trkpt>
      <trkpt lat="48.143653990700841" lon="17.077106041833758">
        <ele>141.930000000000007</ele>
        <time>2015-04-07T06:15:47Z</time>
      </trkpt>
      <trkpt lat="48.143776031211019" lon="17.076301965862513">
        <ele>140.969999999999999</ele>
        <time>2015-04-07T06:16:03Z</time>
      </trkpt>
      <trkpt lat="48.143878960981965" lon="17.075623031705618">
        <ele>141.449999999999989</ele>
        <time>2015-04-07T06:16:17Z</time>
      </trkpt>
      <trkpt lat="48.143954984843731" lon="17.07496102899313">
        <ele>141.449999999999989</ele>
        <time>2015-04-07T06:16:32Z</time>
      </trkpt>
      <trkpt lat="48.144065961241722" lon="17.074893973767757">
        <ele>141.930000000000007</ele>
        <time>2015-04-07T06:16:37Z</time>
      </trkpt>
      <trkpt lat="48.144421018660069" lon="17.074996987357736">
        <ele>142.409999999999997</ele>
        <time>2015-04-07T06:16:48Z</time>
      </trkpt>
      <trkpt lat="48.144669039174914" lon="17.075185999274254">
        <ele>144.819999999999993</ele>
        <time>2015-04-07T06:16:59Z</time>
      </trkpt>
      <trkpt lat="48.144687982276082" lon="17.07530602812767">
        <ele>145.300000000000011</ele>
        <time>2015-04-07T06:17:03Z</time>
      </trkpt>
      <trkpt lat="48.144634002819657" lon="17.075853031128645">
        <ele>148.180000000000007</ele>
        <time>2015-04-07T06:17:16Z</time>
      </trkpt>
      <trkpt lat="48.14464196562767" lon="17.076109014451504">
        <ele>149.139999999999986</ele>
        <time>2015-04-07T06:17:26Z</time>
      </trkpt>
      <trkpt lat="48.144650012254715" lon="17.075665025040507">
        <ele>151.060000000000002</ele>
        <time>2015-04-07T06:17:34Z</time>
      </trkpt>
      <trkpt lat="48.144656969234347" lon="17.075726967304945">
        <ele>152.509999999999991</ele>
        <time>2015-04-07T06:17:39Z</time>
      </trkpt>
      <trkpt lat="48.144042994827032" lon="17.075854958966374">
        <ele>152.990000000000009</ele>
        <time>2015-04-07T06:17:56Z</time>
      </trkpt>
      <trkpt lat="48.143237996846437" lon="17.075702995061874">
        <ele>152.990000000000009</ele>
        <time>2015-04-07T06:18:14Z</time>
      </trkpt>
      <trkpt lat="48.142489995807409" lon="17.0754149928689">
        <ele>153.469999999999999</ele>
        <time>2015-04-07T06:18:34Z</time>
      </trkpt>
      <trkpt lat="48.141701007261872" lon="17.075252970680594">
        <ele>153.469999999999999</ele>
        <time>2015-04-07T06:18:54Z</time>
      </trkpt>
      <trkpt lat="48.140827026218176" lon="17.075084997341037">
        <ele>152.030000000000001</ele>
        <time>2015-04-07T06:19:15Z</time>
      </trkpt>
      <trkpt lat="48.139884984120727" lon="17.074965974316001">
        <ele>150.580000000000013</ele>
        <time>2015-04-07T06:19:37Z</time>
      </trkpt>
      <trkpt lat="48.138954006135464" lon="17.074827002361417">
        <ele>148.659999999999997</ele>
        <time>2015-04-07T06:19:57Z</time>
      </trkpt>
      <trkpt lat="48.13810701481998" lon="17.074728012084961">
        <ele>147.219999999999999</ele>
        <time>2015-04-07T06:20:14Z</time>
      </trkpt>
      <trkpt lat="48.137912973761559" lon="17.074721977114677">
        <ele>146.740000000000009</ele>
        <time>2015-04-07T06:20:19Z</time>
      </trkpt>
      <trkpt lat="48.137894030660391" lon="17.07474896684289">
        <ele>146.740000000000009</ele>
        <time>2015-04-07T06:20:20Z</time>
      </trkpt>
      <trkpt lat="48.137875003740191" lon="17.074774028733373">
        <ele>146.259999999999991</ele>
        <time>2015-04-07T06:20:21Z</time>
      </trkpt>
      <trkpt lat="48.137797974050045" lon="17.074777968227863">
        <ele>145.300000000000011</ele>
        <time>2015-04-07T06:20:23Z</time>
      </trkpt>
      <trkpt lat="48.137691020965576" lon="17.074767993763089">
        <ele>143.849999999999994</ele>
        <time>2015-04-07T06:20:26Z</time>
      </trkpt>
      <trkpt lat="48.137683980166912" lon="17.074794983491302">
        <ele>143.849999999999994</ele>
        <time>2015-04-07T06:20:27Z</time>
      </trkpt>
      <trkpt lat="48.137752963230014" lon="17.074838988482952">
        <ele>143.849999999999994</ele>
        <time>2015-04-07T06:20:30Z</time>
      </trkpt>
      <trkpt lat="48.137852037325501" lon="17.074851980432868">
        <ele>142.889999999999986</ele>
        <time>2015-04-07T06:20:32Z</time>
      </trkpt>
      <trkpt lat="48.138020010665059" lon="17.074871007353067">
        <ele>141.449999999999989</ele>
        <time>2015-04-07T06:20:35Z</time>
      </trkpt>
      <trkpt lat="48.138062003999949" lon="17.074864972382784">
        <ele>140.969999999999999</ele>
        <time>2015-04-07T06:20:36Z</time>
      </trkpt>
      <trkpt lat="48.138092011213303" lon="17.074841000139713">
        <ele>140.490000000000009</ele>
        <time>2015-04-07T06:20:37Z</time>
      </trkpt>
      <trkpt lat="48.138035014271736" lon="17.074416959658265">
        <ele>140.490000000000009</ele>
        <time>2015-04-07T06:20:45Z</time>
      </trkpt>
      <trkpt lat="48.137900987640023" lon="17.074258960783482">
        <ele>139.530000000000001</ele>
        <time>2015-04-07T06:20:49Z</time>
      </trkpt>
      <trkpt lat="48.13746303319931" lon="17.074014963582158">
        <ele>140.490000000000009</ele>
        <time>2015-04-07T06:21:01Z</time>
      </trkpt>
      <trkpt lat="48.136452008038759" lon="17.073980011045933">
        <ele>139.530000000000001</ele>
        <time>2015-04-07T06:21:23Z</time>
      </trkpt>
      <trkpt lat="48.135460009798408" lon="17.073958972468972">
        <ele>140.009999999999991</ele>
        <time>2015-04-07T06:21:44Z</time>
      </trkpt>
      <trkpt lat="48.134459964931011" lon="17.073927037417889">
        <ele>140.490000000000009</ele>
        <time>2015-04-07T06:22:05Z</time>
      </trkpt>
      <trkpt lat="48.133483976125717" lon="17.073901975527406">
        <ele>139.530000000000001</ele>
        <time>2015-04-07T06:22:26Z</time>
      </trkpt>
      <trkpt lat="48.1325420178473" lon="17.073879009112716">
        <ele>140.009999999999991</ele>
        <time>2015-04-07T06:22:46Z</time>
      </trkpt>
      <trkpt lat="48.131866017356515" lon="17.073870040476322">
        <ele>139.530000000000001</ele>
        <time>2015-04-07T06:23:02Z</time>
      </trkpt>
      <trkpt lat="48.131225975230336" lon="17.073849001899362">
        <ele>141.449999999999989</ele>
        <time>2015-04-07T06:23:17Z</time>
      </trkpt>
      <trkpt lat="48.130173040553927" lon="17.073820000514388">
        <ele>140.490000000000009</ele>
        <time>2015-04-07T06:23:40Z</time>
      </trkpt>
      <trkpt lat="48.129100995138288" lon="17.073798961937428">
        <ele>140.490000000000009</ele>
        <time>2015-04-07T06:24:04Z</time>
      </trkpt>
      <trkpt lat="48.128284011036158" lon="17.073770966380835">
        <ele>142.409999999999997</ele>
        <time>2015-04-07T06:24:23Z</time>
      </trkpt>
      <trkpt lat="48.127567023038864" lon="17.073753029108047">
        <ele>140.969999999999999</ele>
        <time>2015-04-07T06:24:40Z</time>
      </trkpt>
      <trkpt lat="48.126796977594495" lon="17.07358899526298">
        <ele>140.969999999999999</ele>
        <time>2015-04-07T06:24:58Z</time>
      </trkpt>
      <trkpt lat="48.126021986827254" lon="17.073228992521763">
        <ele>140.969999999999999</ele>
        <time>2015-04-07T06:25:17Z</time>
      </trkpt>
      <trkpt lat="48.125255964696407" lon="17.072647036984563">
        <ele>141.930000000000007</ele>
        <time>2015-04-07T06:25:37Z</time>
      </trkpt>
      <trkpt lat="48.124579964205623" lon="17.071887971833348">
        <ele>141.930000000000007</ele>
        <time>2015-04-07T06:25:57Z</time>
      </trkpt>
      <trkpt lat="48.12397001311183" lon="17.070893961936235">
        <ele>143.370000000000005</ele>
        <time>2015-04-07T06:26:18Z</time>
      </trkpt>
      <trkpt lat="48.123473972082138" lon="17.0697439648211">
        <ele>141.449999999999989</ele>
        <time>2015-04-07T06:26:40Z</time>
      </trkpt>
      <trkpt lat="48.123183958232403" lon="17.068735035136342">
        <ele>140.969999999999999</ele>
        <time>2015-04-07T06:26:58Z</time>
      </trkpt>
      <trkpt lat="48.122997041791677" lon="17.067576991394162">
        <ele>141.449999999999989</ele>
        <time>2015-04-07T06:27:17Z</time>
      </trkpt>
      <trkpt lat="48.122867960482836" lon="17.066525984555483">
        <ele>141.449999999999989</ele>
        <time>2015-04-07T06:27:35Z</time>
      </trkpt>
      <trkpt lat="48.12274600379169" lon="17.065606992691755">
        <ele>141.449999999999989</ele>
        <time>2015-04-07T06:27:51Z</time>
      </trkpt>
      <trkpt lat="48.122604014351964" lon="17.064485996961594">
        <ele>141.449999999999989</ele>
        <time>2015-04-07T06:28:10Z</time>
      </trkpt>
      <trkpt lat="48.122485997155309" lon="17.063493998721242">
        <ele>141.449999999999989</ele>
        <time>2015-04-07T06:28:28Z</time>
      </trkpt>
      <trkpt lat="48.122459007427096" lon="17.062996029853821">
        <ele>140.490000000000009</ele>
        <time>2015-04-07T06:28:37Z</time>
      </trkpt>
      <trkpt lat="48.12242497690022" lon="17.062418013811111">
        <ele>141.930000000000007</ele>
        <time>2015-04-07T06:28:48Z</time>
      </trkpt>
      <trkpt lat="48.122421037405729" lon="17.062226990237832">
        <ele>142.409999999999997</ele>
        <time>2015-04-07T06:28:55Z</time>
      </trkpt>
      <trkpt lat="48.121872022747993" lon="17.061674036085606">
        <ele>140.490000000000009</ele>
        <time>2015-04-07T06:44:39Z</time>
      </trkpt>
      <trkpt lat="48.121845033019781" lon="17.061625001952052">
        <ele>140.009999999999991</ele>
        <time>2015-04-07T06:44:40Z</time>
      </trkpt>
      <trkpt lat="48.121703965589404" lon="17.061453005298972">
        <ele>140.969999999999999</ele>
        <time>2015-04-07T06:44:44Z</time>
      </trkpt>
      <trkpt lat="48.121661972254515" lon="17.06142601557076">
        <ele>140.969999999999999</ele>
        <time>2015-04-07T06:44:45Z</time>
      </trkpt>
      <trkpt lat="48.12162802554667" lon="17.06140698865056">
        <ele>140.969999999999999</ele>
        <time>2015-04-07T06:44:46Z</time>
      </trkpt>
      <trkpt lat="48.121597012504935" lon="17.061386033892632">
        <ele>141.449999999999989</ele>
        <time>2015-04-07T06:44:47Z</time>
      </trkpt>
      <trkpt lat="48.121571028605103" lon="17.061358960345387">
        <ele>140.490000000000009</ele>
        <time>2015-04-07T06:44:48Z</time>
      </trkpt>
      <trkpt lat="48.121540015563369" lon="17.061330964788795">
        <ele>140.969999999999999</ele>
        <time>2015-04-07T06:44:49Z</time>
      </trkpt>
      <trkpt lat="48.121342035010457" lon="17.06123499199748">
        <ele>138.090000000000003</ele>
        <time>2015-04-07T06:44:54Z</time>
      </trkpt>
      <trkpt lat="48.121227035298944" lon="17.061173971742392">
        <ele>138.569999999999993</ele>
        <time>2015-04-07T06:44:56Z</time>
      </trkpt>
      <trkpt lat="48.120663017034531" lon="17.060885969549417">
        <ele>138.090000000000003</ele>
        <time>2015-04-07T06:45:07Z</time>
      </trkpt>
      <trkpt lat="48.120299996808171" lon="17.060720007866621">
        <ele>137.610000000000014</ele>
        <time>2015-04-07T06:45:15Z</time>
      </trkpt>
      <trkpt lat="48.119834968820214" lon="17.060485985130072">
        <ele>137.610000000000014</ele>
        <time>2015-04-07T06:45:26Z</time>
      </trkpt>
      <trkpt lat="48.119792975485325" lon="17.060466958209872">
        <ele>137.129999999999995</ele>
        <time>2015-04-07T06:45:27Z</time>
      </trkpt>
      <trkpt lat="48.119235998019576" lon="17.06018297933042">
        <ele>137.129999999999995</ele>
        <time>2015-04-07T06:45:40Z</time>
      </trkpt>
      <trkpt lat="48.119198027998209" lon="17.060162024572492">
        <ele>138.090000000000003</ele>
        <time>2015-04-07T06:45:41Z</time>
      </trkpt>
      <trkpt lat="48.118442986160517" lon="17.059601023793221">
        <ele>137.610000000000014</ele>
        <time>2015-04-07T06:45:59Z</time>
      </trkpt>
      <trkpt lat="48.117584008723497" lon="17.058904990553856">
        <ele>137.610000000000014</ele>
        <time>2015-04-07T06:46:18Z</time>
      </trkpt>
      <trkpt lat="48.11679502017796" lon="17.058235025033355">
        <ele>139.050000000000011</ele>
        <time>2015-04-07T06:46:36Z</time>
      </trkpt>
      <trkpt lat="48.116634003818035" lon="17.05805397592485">
        <ele>138.090000000000003</ele>
        <time>2015-04-07T06:46:40Z</time>
      </trkpt>
      <trkpt lat="48.11597803607583" lon="17.057186029851437">
        <ele>136.639999999999986</ele>
        <time>2015-04-07T06:46:58Z</time>
      </trkpt>
      <trkpt lat="48.115508984774351" lon="17.056556968018413">
        <ele>137.129999999999995</ele>
        <time>2015-04-07T06:47:12Z</time>
      </trkpt>
      <trkpt lat="48.114833990111947" lon="17.05573302693665">
        <ele>138.569999999999993</ele>
        <time>2015-04-07T06:47:30Z</time>
      </trkpt>
      <trkpt lat="48.114715972915292" lon="17.055630013346672">
        <ele>139.050000000000011</ele>
        <time>2015-04-07T06:47:33Z</time>
      </trkpt>
      <trkpt lat="48.114676997065544" lon="17.055599000304937">
        <ele>138.569999999999993</ele>
        <time>2015-04-07T06:47:34Z</time>
      </trkpt>
      <trkpt lat="48.114558979868889" lon="17.055493975058198">
        <ele>138.090000000000003</ele>
        <time>2015-04-07T06:47:37Z</time>
      </trkpt>
      <trkpt lat="48.114470969885588" lon="17.055428009480238">
        <ele>138.090000000000003</ele>
        <time>2015-04-07T06:47:39Z</time>
      </trkpt>
      <trkpt lat="48.113639988005161" lon="17.0547029748559">
        <ele>136.639999999999986</ele>
        <time>2015-04-07T06:47:59Z</time>
      </trkpt>
      <trkpt lat="48.113556001335382" lon="17.054628040641546">
        <ele>137.129999999999995</ele>
        <time>2015-04-07T06:48:01Z</time>
      </trkpt>
      <trkpt lat="48.113265987485647" lon="17.054394017904997">
        <ele>136.639999999999986</ele>
        <time>2015-04-07T06:48:08Z</time>
      </trkpt>
      <trkpt lat="48.113223994150758" lon="17.054360993206501">
        <ele>138.569999999999993</ele>
        <time>2015-04-07T06:48:09Z</time>
      </trkpt>
      <trkpt lat="48.113182000815868" lon="17.054323023185134">
        <ele>138.090000000000003</ele>
        <time>2015-04-07T06:48:10Z</time>
      </trkpt>
      <trkpt lat="48.112357975915074" lon="17.053621038794518">
        <ele>136.639999999999986</ele>
        <time>2015-04-07T06:48:30Z</time>
      </trkpt>
      <trkpt lat="48.111313004046679" lon="17.052755020558834">
        <ele>136.159999999999997</ele>
        <time>2015-04-07T06:48:54Z</time>
      </trkpt>
      <trkpt lat="48.110355036333203" lon="17.051942981779575">
        <ele>136.639999999999986</ele>
        <time>2015-04-07T06:49:16Z</time>
      </trkpt>
      <trkpt lat="48.110226038843393" lon="17.051832005381584">
        <ele>138.090000000000003</ele>
        <time>2015-04-07T06:49:19Z</time>
      </trkpt>
      <trkpt lat="48.110042978078127" lon="17.051665959879756">
        <ele>138.090000000000003</ele>
        <time>2015-04-07T06:49:23Z</time>
      </trkpt>
      <trkpt lat="48.109474014490843" lon="17.05117997713387">
        <ele>137.129999999999995</ele>
        <time>2015-04-07T06:49:36Z</time>
      </trkpt>
      <trkpt lat="48.108531972393394" lon="17.050379002466798">
        <ele>135.680000000000007</ele>
        <time>2015-04-07T06:49:57Z</time>
      </trkpt>
      <trkpt lat="48.108443962410092" lon="17.05029702745378">
        <ele>134.719999999999999</ele>
        <time>2015-04-07T06:49:59Z</time>
      </trkpt>
      <trkpt lat="48.107689004391432" lon="17.049561012536287">
        <ele>135.680000000000007</ele>
        <time>2015-04-07T06:50:17Z</time>
      </trkpt>
      <trkpt lat="48.107403013855219" lon="17.049292037263513">
        <ele>136.639999999999986</ele>
        <time>2015-04-07T06:50:24Z</time>
      </trkpt>
      <trkpt lat="48.10701803304255" lon="17.048924993723631">
        <ele>138.090000000000003</ele>
        <time>2015-04-07T06:50:34Z</time>
      </trkpt>
      <trkpt lat="48.106323005631566" lon="17.048230972141027">
        <ele>138.090000000000003</ele>
        <time>2015-04-07T06:50:52Z</time>
      </trkpt>
      <trkpt lat="48.106121001765132" lon="17.048030979931355">
        <ele>139.530000000000001</ele>
        <time>2015-04-07T06:50:57Z</time>
      </trkpt>
      <trkpt lat="48.106002984568477" lon="17.04791497439146">
        <ele>139.530000000000001</ele>
        <time>2015-04-07T06:51:00Z</time>
      </trkpt>
      <trkpt lat="48.10596501454711" lon="17.047878010198474">
        <ele>138.090000000000003</ele>
        <time>2015-04-07T06:51:01Z</time>
      </trkpt>
      <trkpt lat="48.105811960995197" lon="17.047728979960084">
        <ele>138.569999999999993</ele>
        <time>2015-04-07T06:51:05Z</time>
      </trkpt>
      <trkpt lat="48.105652034282684" lon="17.047579027712345">
        <ele>138.569999999999993</ele>
        <time>2015-04-07T06:51:09Z</time>
      </trkpt>
      <trkpt lat="48.105610040947795" lon="17.047540973871946">
        <ele>137.610000000000014</ele>
        <time>2015-04-07T06:51:10Z</time>
      </trkpt>
      <trkpt lat="48.10545296408236" lon="17.047381969168782">
        <ele>135.680000000000007</ele>
        <time>2015-04-07T06:51:14Z</time>
      </trkpt>
      <trkpt lat="48.105124980211258" lon="17.047058008611202">
        <ele>133.759999999999991</ele>
        <time>2015-04-07T06:51:23Z</time>
      </trkpt>
      <trkpt lat="48.104953989386559" lon="17.046863967552781">
        <ele>133.759999999999991</ele>
        <time>2015-04-07T06:51:28Z</time>
      </trkpt>
      <trkpt lat="48.104751985520124" lon="17.046578982844949">
        <ele>137.129999999999995</ele>
        <time>2015-04-07T06:51:35Z</time>
      </trkpt>
      <trkpt lat="48.104630028828979" lon="17.04636599868536">
        <ele>138.090000000000003</ele>
        <time>2015-04-07T06:51:40Z</time>
      </trkpt>
      <trkpt lat="48.104430958628654" lon="17.045871969312429">
        <ele>138.090000000000003</ele>
        <time>2015-04-07T06:51:51Z</time>
      </trkpt>
      <trkpt lat="48.104320988059044" lon="17.045499980449677">
        <ele>138.090000000000003</ele>
        <time>2015-04-07T06:51:59Z</time>
      </trkpt>
      <trkpt lat="48.104271031916142" lon="17.045300994068384">
        <ele>139.530000000000001</ele>
        <time>2015-04-07T06:52:04Z</time>
      </trkpt>
      <trkpt lat="48.104210011661053" lon="17.045123968273401">
        <ele>138.569999999999993</ele>
        <time>2015-04-07T06:52:08Z</time>
      </trkpt>
      <trkpt lat="48.10405301861465" lon="17.044489039108157">
        <ele>140.490000000000009</ele>
        <time>2015-04-07T06:52:20Z</time>
      </trkpt>
      <trkpt lat="48.10392796061933" lon="17.043918985873461">
        <ele>142.409999999999997</ele>
        <time>2015-04-07T06:52:32Z</time>
      </trkpt>
      <trkpt lat="48.103909017518163" lon="17.043764004483819">
        <ele>140.490000000000009</ele>
        <time>2015-04-07T06:52:42Z</time>
      </trkpt>
      <trkpt lat="48.103909017518163" lon="17.043764004483819">
        <ele>142.409999999999997</ele>
        <time>2015-04-07T06:52:45Z</time>
      </trkpt>
      <trkpt lat="48.103909017518163" lon="17.043764004483819">
        <ele>141.930000000000007</ele>
        <time>2015-04-07T06:52:49Z</time>
      </trkpt>
      <trkpt lat="48.103900970891118" lon="17.043741038069129">
        <ele>141.930000000000007</ele>
        <time>2015-04-07T06:52:50Z</time>
      </trkpt>
      <trkpt lat="48.103885967284441" lon="17.043678006157279">
        <ele>140.969999999999999</ele>
        <time>2015-04-07T06:52:52Z</time>
      </trkpt>
      <trkpt lat="48.103870041668415" lon="17.043643975630403">
        <ele>141.449999999999989</ele>
        <time>2015-04-07T06:52:53Z</time>
      </trkpt>
      <trkpt lat="48.103759987279773" lon="17.04312102869153">
        <ele>141.930000000000007</ele>
        <time>2015-04-07T06:53:05Z</time>
      </trkpt>
      <trkpt lat="48.103568963706493" lon="17.042402029037476">
        <ele>143.849999999999994</ele>
        <time>2015-04-07T06:53:21Z</time>
      </trkpt>
      <trkpt lat="48.103427980095148" lon="17.041791994124651">
        <ele>146.259999999999991</ele>
        <time>2015-04-07T06:53:36Z</time>
      </trkpt>
      <trkpt lat="48.103363020345569" lon="17.041181959211826">
        <ele>148.659999999999997</ele>
        <time>2015-04-07T06:53:51Z</time>
      </trkpt>
      <trkpt lat="48.103370983153582" lon="17.040595980361104">
        <ele>150.580000000000013</ele>
        <time>2015-04-07T06:54:04Z</time>
      </trkpt>
      <trkpt lat="48.10343200340867" lon="17.039772039279342">
        <ele>151.060000000000002</ele>
        <time>2015-04-07T06:54:21Z</time>
      </trkpt>
      <trkpt lat="48.103577010333538" lon="17.038979027420282">
        <ele>152.030000000000001</ele>
        <time>2015-04-07T06:54:38Z</time>
      </trkpt>
      <trkpt lat="48.103713970631361" lon="17.037968002259731">
        <ele>153.949999999999989</ele>
        <time>2015-04-07T06:54:59Z</time>
      </trkpt>
      <trkpt lat="48.103806003928185" lon="17.037229975685477">
        <ele>154.909999999999997</ele>
        <time>2015-04-07T06:55:15Z</time>
      </trkpt>
      <trkpt lat="48.103863000869751" lon="17.036631004884839">
        <ele>155.870000000000005</ele>
        <time>2015-04-07T06:55:28Z</time>
      </trkpt>
      <trkpt lat="48.10388202778995" lon="17.035715030506253">
        <ele>158.75</ele>
        <time>2015-04-07T06:55:46Z</time>
      </trkpt>
      <trkpt lat="48.103885967284441" lon="17.034812970086932">
        <ele>158.75</ele>
        <time>2015-04-07T06:56:04Z</time>
      </trkpt>
      <trkpt lat="48.10392402112484" lon="17.034152979031205">
        <ele>160.680000000000007</ele>
        <time>2015-04-07T06:56:18Z</time>
      </trkpt>
      <trkpt lat="48.103939024731517" lon="17.03362500295043">
        <ele>162.120000000000005</ele>
        <time>2015-04-07T06:56:34Z</time>
      </trkpt>
      <trkpt lat="48.103930978104472" lon="17.033613016828895">
        <ele>162.599999999999994</ele>
        <time>2015-04-07T06:56:49Z</time>
      </trkpt>
      <trkpt lat="48.103935001417994" lon="17.033617040142417">
        <ele>162.120000000000005</ele>
        <time>2015-04-07T06:57:18Z</time>
      </trkpt>
      <trkpt lat="48.103939024731517" lon="17.033620979636908">
        <ele>162.599999999999994</ele>
        <time>2015-04-07T06:57:39Z</time>
      </trkpt>
      <trkpt lat="48.103981018066406" lon="17.033525006845593">
        <ele>161.639999999999986</ele>
        <time>2015-04-07T06:57:51Z</time>
      </trkpt>
      <trkpt lat="48.103988980874419" lon="17.033492987975478">
        <ele>162.120000000000005</ele>
        <time>2015-04-07T06:57:52Z</time>
      </trkpt>
      <trkpt lat="48.103991998359561" lon="17.033463986590505">
        <ele>161.159999999999997</ele>
        <time>2015-04-07T06:57:53Z</time>
      </trkpt>
      <trkpt lat="48.103999961167574" lon="17.033435991033912">
        <ele>160.680000000000007</ele>
        <time>2015-04-07T06:57:54Z</time>
      </trkpt>
      <trkpt lat="48.104012031108141" lon="17.033409001305699">
        <ele>161.639999999999986</ele>
        <time>2015-04-07T06:57:55Z</time>
      </trkpt>
      <trkpt lat="48.104045977815986" lon="17.033169027417898">
        <ele>162.120000000000005</ele>
        <time>2015-04-07T06:58:01Z</time>
      </trkpt>
      <trkpt lat="48.104060981422663" lon="17.033101972192526">
        <ele>164.52000000000001</ele>
        <time>2015-04-07T06:58:03Z</time>
      </trkpt>
      <trkpt lat="48.104095011949539" lon="17.032610038295388">
        <ele>163.560000000000002</ele>
        <time>2015-04-07T06:58:15Z</time>
      </trkpt>
      <trkpt lat="48.104153014719486" lon="17.031687023118138">
        <ele>165.960000000000008</ele>
        <time>2015-04-07T06:58:32Z</time>
      </trkpt>
      <trkpt lat="48.104267008602619" lon="17.030909014865756">
        <ele>166.930000000000007</ele>
        <time>2015-04-07T06:58:48Z</time>
      </trkpt>
      <trkpt lat="48.104392988607287" lon="17.030363017693162">
        <ele>171.25</ele>
        <time>2015-04-07T06:59:00Z</time>
      </trkpt>
      <trkpt lat="48.104579988867044" lon="17.029661033302546">
        <ele>171.72999999999999</ele>
        <time>2015-04-07T06:59:16Z</time>
      </trkpt>
      <trkpt lat="48.104724995791912" lon="17.029139008373022">
        <ele>173.659999999999997</ele>
        <time>2015-04-07T06:59:30Z</time>
      </trkpt>
      <trkpt lat="48.104896992444992" lon="17.028487985953689">
        <ele>175.099999999999994</ele>
        <time>2015-04-07T06:59:46Z</time>
      </trkpt>
      <trkpt lat="48.105079969391227" lon="17.02780201099813">
        <ele>177.02000000000001</ele>
        <time>2015-04-07T07:00:02Z</time>
      </trkpt>
      <trkpt lat="48.105285996571183" lon="17.027058033272624">
        <ele>175.580000000000013</ele>
        <time>2015-04-07T07:00:19Z</time>
      </trkpt>
      <trkpt lat="48.105296976864338" lon="17.027016039937735">
        <ele>175.580000000000013</ele>
        <time>2015-04-07T07:00:20Z</time>
      </trkpt>
      <trkpt lat="48.105408037081361" lon="17.026702975854278">
        <ele>178.939999999999998</ele>
        <time>2015-04-07T07:00:28Z</time>
      </trkpt>
      <trkpt lat="48.105549020692706" lon="17.026178017258644">
        <ele>180.870000000000005</ele>
        <time>2015-04-07T07:00:41Z</time>
      </trkpt>
      <trkpt lat="48.105766028165817" lon="17.025463040918112">
        <ele>181.349999999999994</ele>
        <time>2015-04-07T07:00:57Z</time>
      </trkpt>
      <trkpt lat="48.105998961254954" lon="17.024587970227003">
        <ele>183.75</ele>
        <time>2015-04-07T07:01:15Z</time>
      </trkpt>
      <trkpt lat="48.106152014806867" lon="17.023852961137891">
        <ele>187.110000000000014</ele>
        <time>2015-04-07T07:01:31Z</time>
      </trkpt>
      <trkpt lat="48.106158971786499" lon="17.023287015035748">
        <ele>190.47999999999999</ele>
        <time>2015-04-07T07:01:43Z</time>
      </trkpt>
      <trkpt lat="48.106185961514711" lon="17.022605985403061">
        <ele>191.919999999999987</ele>
        <time>2015-04-07T07:01:59Z</time>
      </trkpt>
      <trkpt lat="48.106143968179822" lon="17.022202983498573">
        <ele>194.800000000000011</ele>
        <time>2015-04-07T07:02:10Z</time>
      </trkpt>
      <trkpt lat="48.106032991781831" lon="17.021882962435484">
        <ele>197.210000000000008</ele>
        <time>2015-04-07T07:02:21Z</time>
      </trkpt>
      <trkpt lat="48.105926960706711" lon="17.021583979949355">
        <ele>198.650000000000006</ele>
        <time>2015-04-07T07:02:32Z</time>
      </trkpt>
      <trkpt lat="48.105808021500707" lon="17.021169997751713">
        <ele>201.530000000000001</ele>
        <time>2015-04-07T07:02:44Z</time>
      </trkpt>
      <trkpt lat="48.105721017345786" lon="17.020722990855575">
        <ele>203.939999999999998</ele>
        <time>2015-04-07T07:02:57Z</time>
      </trkpt>
      <trkpt lat="48.105655973777175" lon="17.020234996452928">
        <ele>204.419999999999987</ele>
        <time>2015-04-07T07:03:11Z</time>
      </trkpt>
      <trkpt lat="48.105537034571171" lon="17.019747002050281">
        <ele>202.97999999999999</ele>
        <time>2015-04-07T07:03:21Z</time>
      </trkpt>
      <trkpt lat="48.105186000466347" lon="17.018680991604924">
        <ele>202.009999999999991</ele>
        <time>2015-04-07T07:03:36Z</time>
      </trkpt>
      <trkpt lat="48.104781992733479" lon="17.017568964511156">
        <ele>202.490000000000009</ele>
        <time>2015-04-07T07:03:54Z</time>
      </trkpt>
      <trkpt lat="48.104503965005279" lon="17.01650395989418">
        <ele>199.610000000000014</ele>
        <time>2015-04-07T07:04:10Z</time>
      </trkpt>
      <trkpt lat="48.104262985289097" lon="17.015573987737298">
        <ele>200.569999999999993</ele>
        <time>2015-04-07T07:04:25Z</time>
      </trkpt>
      <trkpt lat="48.104144968092442" lon="17.014874015003443">
        <ele>200.569999999999993</ele>
        <time>2015-04-07T07:04:37Z</time>
      </trkpt>
      <trkpt lat="48.104137005284429" lon="17.01454896479845">
        <ele>203.460000000000008</ele>
        <time>2015-04-07T07:04:43Z</time>
      </trkpt>
      <trkpt lat="48.104133987799287" lon="17.013745978474617">
        <ele>202.490000000000009</ele>
        <time>2015-04-07T07:04:57Z</time>
      </trkpt>
      <trkpt lat="48.104210011661053" lon="17.012780969962478">
        <ele>203.460000000000008</ele>
        <time>2015-04-07T07:05:15Z</time>
      </trkpt>
      <trkpt lat="48.104186961427331" lon="17.01254703104496">
        <ele>203.460000000000008</ele>
        <time>2015-04-07T07:05:19Z</time>
      </trkpt>
      <trkpt lat="48.103912035003304" lon="17.011786960065365">
        <ele>204.419999999999987</ele>
        <time>2015-04-07T07:05:34Z</time>
      </trkpt>
      <trkpt lat="48.103885967284441" lon="17.011740021407604">
        <ele>204.419999999999987</ele>
        <time>2015-04-07T07:05:35Z</time>
      </trkpt>
      <trkpt lat="48.103744983673096" lon="17.011502981185913">
        <ele>204.419999999999987</ele>
        <time>2015-04-07T07:05:40Z</time>
      </trkpt>
      <trkpt lat="48.103240979835391" lon="17.010783981531858">
        <ele>204.419999999999987</ele>
        <time>2015-04-07T07:05:56Z</time>
      </trkpt>
      <trkpt lat="48.102908972650766" lon="17.009994992986321">
        <ele>206.819999999999993</ele>
        <time>2015-04-07T07:06:12Z</time>
      </trkpt>
      <trkpt lat="48.10252801515162" lon="17.009327039122581">
        <ele>207.300000000000011</ele>
        <time>2015-04-07T07:06:29Z</time>
      </trkpt>
      <trkpt lat="48.102492978796363" lon="17.009296026080847">
        <ele>206.819999999999993</ele>
        <time>2015-04-07T07:06:30Z</time>
      </trkpt>
      <trkpt lat="48.102039014920592" lon="17.008953038603067">
        <ele>203.939999999999998</ele>
        <time>2015-04-07T07:06:39Z</time>
      </trkpt>
      <trkpt lat="48.101738020777702" lon="17.008723961189389">
        <ele>200.569999999999993</ele>
        <time>2015-04-07T07:06:43Z</time>
      </trkpt>
      <trkpt lat="48.101509027183056" lon="17.008461020886898">
        <ele>197.210000000000008</ele>
        <time>2015-04-07T07:06:46Z</time>
      </trkpt>
      <trkpt lat="48.101298976689577" lon="17.008134964853525">
        <ele>195.77000000000001</ele>
        <time>2015-04-07T07:06:49Z</time>
      </trkpt>
      <trkpt lat="48.101241979748011" lon="17.008008984848857">
        <ele>194.800000000000011</ele>
        <time>2015-04-07T07:06:50Z</time>
      </trkpt>
      <trkpt lat="48.101192023605108" lon="17.007880993187428">
        <ele>194.800000000000011</ele>
        <time>2015-04-07T07:06:51Z</time>
      </trkpt>
      <trkpt lat="48.101151036098599" lon="17.007750989869237">
        <ele>194.319999999999993</ele>
        <time>2015-04-07T07:06:52Z</time>
      </trkpt>
      <trkpt lat="48.101115999743342" lon="17.007619980722666">
        <ele>194.319999999999993</ele>
        <time>2015-04-07T07:06:53Z</time>
      </trkpt>
      <trkpt lat="48.10108901001513" lon="17.007494000717998">
        <ele>193.840000000000003</ele>
        <time>2015-04-07T07:06:54Z</time>
      </trkpt>
      <trkpt lat="48.100997982546687" lon="17.007153024896979">
        <ele>193.360000000000014</ele>
        <time>2015-04-07T07:06:57Z</time>
      </trkpt>
      <trkpt lat="48.10096001252532" lon="17.007051017135382">
        <ele>192.879999999999995</ele>
        <time>2015-04-07T07:06:58Z</time>
      </trkpt>
      <trkpt lat="48.100918019190431" lon="17.006957978010178">
        <ele>193.840000000000003</ele>
        <time>2015-04-07T07:06:59Z</time>
      </trkpt>
      <trkpt lat="48.100867979228497" lon="17.006869968026876">
        <ele>192.879999999999995</ele>
        <time>2015-04-07T07:07:00Z</time>
      </trkpt>
      <trkpt lat="48.100819028913975" lon="17.00679000467062">
        <ele>192.400000000000006</ele>
        <time>2015-04-07T07:07:01Z</time>
      </trkpt>
      <trkpt lat="48.100768988952041" lon="17.006710041314363">
        <ele>192.400000000000006</ele>
        <time>2015-04-07T07:07:02Z</time>
      </trkpt>
      <trkpt lat="48.09992996044457" lon="17.005787026137114">
        <ele>190.960000000000008</ele>
        <time>2015-04-07T07:07:17Z</time>
      </trkpt>
      <trkpt lat="48.099101996049285" lon="17.004965012893081">
        <ele>187.590000000000003</ele>
        <time>2015-04-07T07:07:32Z</time>
      </trkpt>
      <trkpt lat="48.098899992182851" lon="17.0047050062567">
        <ele>187.110000000000014</ele>
        <time>2015-04-07T07:07:36Z</time>
      </trkpt>
      <trkpt lat="48.098865961655974" lon="17.004624959081411">
        <ele>186.150000000000006</ele>
        <time>2015-04-07T07:07:37Z</time>
      </trkpt>
      <trkpt lat="48.098838971927762" lon="17.004534015432">
        <ele>186.150000000000006</ele>
        <time>2015-04-07T07:07:38Z</time>
      </trkpt>
      <trkpt lat="48.098831009119749" lon="17.004435025155544">
        <ele>185.669999999999987</ele>
        <time>2015-04-07T07:07:39Z</time>
      </trkpt>
      <trkpt lat="48.098831009119749" lon="17.004333017393947">
        <ele>185.669999999999987</ele>
        <time>2015-04-07T07:07:40Z</time>
      </trkpt>
      <trkpt lat="48.098835032433271" lon="17.004234027117491">
        <ele>185.189999999999998</ele>
        <time>2015-04-07T07:07:41Z</time>
      </trkpt>
      <trkpt lat="48.098842995241284" lon="17.004138976335526">
        <ele>185.189999999999998</ele>
        <time>2015-04-07T07:07:42Z</time>
      </trkpt>
      <trkpt lat="48.098838971927762" lon="17.003771010786295">
        <ele>184.710000000000008</ele>
        <time>2015-04-07T07:07:46Z</time>
      </trkpt>
      <trkpt lat="48.098823968321085" lon="17.003680989146233">
        <ele>185.189999999999998</ele>
        <time>2015-04-07T07:07:47Z</time>
      </trkpt>
      <trkpt lat="48.098807958886027" lon="17.003594990819693">
        <ele>184.22999999999999</ele>
        <time>2015-04-07T07:07:48Z</time>
      </trkpt>
      <trkpt lat="48.098427001386881" lon="17.002453040331602">
        <ele>183.27000000000001</ele>
        <time>2015-04-07T07:08:04Z</time>
      </trkpt>
      <trkpt lat="48.097979994490743" lon="17.001346964389086">
        <ele>182.310000000000002</ele>
        <time>2015-04-07T07:08:21Z</time>
      </trkpt>
      <trkpt lat="48.097472973167896" lon="17.000140976160765">
        <ele>180.870000000000005</ele>
        <time>2015-04-07T07:08:40Z</time>
      </trkpt>
      <trkpt lat="48.097384963184595" lon="16.999901002272964">
        <ele>179.900000000000006</ele>
        <time>2015-04-07T07:08:44Z</time>
      </trkpt>
      <trkpt lat="48.09737398289144" lon="16.999837970361114">
        <ele>180.379999999999995</ele>
        <time>2015-04-07T07:08:45Z</time>
      </trkpt>
      <trkpt lat="48.09737398289144" lon="16.999773010611534">
        <ele>179.900000000000006</ele>
        <time>2015-04-07T07:08:46Z</time>
      </trkpt>
      <trkpt lat="48.097378006204963" lon="16.999707967042923">
        <ele>179.900000000000006</ele>
        <time>2015-04-07T07:08:47Z</time>
      </trkpt>
      <trkpt lat="48.097388986498117" lon="16.999645018950105">
        <ele>179.900000000000006</ele>
        <time>2015-04-07T07:08:48Z</time>
      </trkpt>
      <trkpt lat="48.097548997029662" lon="16.998693002387881">
        <ele>180.870000000000005</ele>
        <time>2015-04-07T07:09:04Z</time>
      </trkpt>
      <trkpt lat="48.097511027008295" lon="16.998528968542814">
        <ele>180.870000000000005</ele>
        <time>2015-04-07T07:09:07Z</time>
      </trkpt>
      <trkpt lat="48.097487976774573" lon="16.998484041541815">
        <ele>181.349999999999994</ele>
        <time>2015-04-07T07:09:08Z</time>
      </trkpt>
      <trkpt lat="48.097461992874742" lon="16.998434001579881">
        <ele>181.349999999999994</ele>
        <time>2015-04-07T07:09:09Z</time>
      </trkpt>
      <trkpt lat="48.096927981823683" lon="16.997370002791286">
        <ele>179.419999999999987</ele>
        <time>2015-04-07T07:09:29Z</time>
      </trkpt>
      <trkpt lat="48.096507964655757" lon="16.996530974283814">
        <ele>178.460000000000008</ele>
        <time>2015-04-07T07:09:46Z</time>
      </trkpt>
      <trkpt lat="48.096610978245735" lon="16.996294017881155">
        <ele>177.5</ele>
        <time>2015-04-07T07:09:54Z</time>
      </trkpt>
      <trkpt lat="48.096824968233705" lon="16.996043985709548">
        <ele>178.939999999999998</ele>
        <time>2015-04-07T07:10:03Z</time>
      </trkpt>
      <trkpt lat="48.09690099209547" lon="16.995952958241105">
        <ele>179.419999999999987</ele>
        <time>2015-04-07T07:15:03Z</time>
      </trkpt>
      <trkpt lat="48.096909038722515" lon="16.995937032625079">
        <ele>180.870000000000005</ele>
        <time>2015-04-07T07:15:04Z</time>
      </trkpt>
      <trkpt lat="48.097080029547215" lon="16.995749026536942">
        <ele>180.379999999999995</ele>
        <time>2015-04-07T07:15:15Z</time>
      </trkpt>
      <trkpt lat="48.097430979833007" lon="16.995334960520267">
        <ele>182.310000000000002</ele>
        <time>2015-04-07T07:15:29Z</time>
      </trkpt>
      <trkpt lat="48.097789976745844" lon="16.995001025497913">
        <ele>183.75</ele>
        <time>2015-04-07T07:15:43Z</time>
      </trkpt>
      <trkpt lat="48.097873963415623" lon="16.994785023853183">
        <ele>184.22999999999999</ele>
        <time>2015-04-07T07:15:50Z</time>
      </trkpt>
      <trkpt lat="48.09786600060761" lon="16.994763985276222">
        <ele>184.22999999999999</ele>
        <time>2015-04-07T07:15:51Z</time>
      </trkpt>
      <trkpt lat="48.097850997000933" lon="16.994748981669545">
        <ele>184.710000000000008</ele>
        <time>2015-04-07T07:15:52Z</time>
      </trkpt>
      <trkpt lat="48.09784303419292" lon="16.994730038568377">
        <ele>184.22999999999999</ele>
        <time>2015-04-07T07:15:53Z</time>
      </trkpt>
      <trkpt lat="48.097831970080733" lon="16.994706988334656">
        <ele>183.75</ele>
        <time>2015-04-07T07:15:54Z</time>
      </trkpt>
      <trkpt lat="48.09784303419292" lon="16.994627024978399">
        <ele>182.789999999999992</ele>
        <time>2015-04-07T07:16:33Z</time>
      </trkpt>
      <trkpt lat="48.097873963415623" lon="16.994614033028483">
        <ele>185.669999999999987</ele>
        <time>2015-04-07T07:16:34Z</time>
      </trkpt>
      <trkpt lat="48.097903970628977" lon="16.994592994451523">
        <ele>184.22999999999999</ele>
        <time>2015-04-07T07:16:35Z</time>
      </trkpt>
      <trkpt lat="48.097930960357189" lon="16.994563993066549">
        <ele>185.189999999999998</ele>
        <time>2015-04-07T07:16:36Z</time>
      </trkpt>
      <trkpt lat="48.097958033904433" lon="16.994531974196434">
        <ele>184.22999999999999</ele>
        <time>2015-04-07T07:16:37Z</time>
      </trkpt>
      <trkpt lat="48.097988041117787" lon="16.994500961154699">
        <ele>184.22999999999999</ele>
        <time>2015-04-07T07:16:38Z</time>
      </trkpt>
      <trkpt lat="48.098015030846" lon="16.994471037760377">
        <ele>184.22999999999999</ele>
        <time>2015-04-07T07:16:39Z</time>
      </trkpt>
      <trkpt lat="48.098042020574212" lon="16.99443600140512">
        <ele>184.22999999999999</ele>
        <time>2015-04-07T07:16:40Z</time>
      </trkpt>
      <trkpt lat="48.098323987796903" lon="16.994058983400464">
        <ele>184.710000000000008</ele>
        <time>2015-04-07T07:16:52Z</time>
      </trkpt>
      <trkpt lat="48.098690025508404" lon="16.993605019524693">
        <ele>186.629999999999995</ele>
        <time>2015-04-07T07:17:07Z</time>
      </trkpt>
      <trkpt lat="48.098914995789528" lon="16.993349036201835">
        <ele>188.560000000000002</ele>
        <time>2015-04-07T07:17:15Z</time>
      </trkpt>
      <trkpt lat="48.099136026576161" lon="16.993035972118378">
        <ele>189.52000000000001</ele>
        <time>2015-04-07T07:17:27Z</time>
      </trkpt>
      <trkpt lat="48.099128985777497" lon="16.993007976561785">
        <ele>189.039999999999992</ele>
        <time>2015-04-07T07:17:28Z</time>
      </trkpt>
      <trkpt lat="48.099121022969484" lon="16.992975035682321">
        <ele>189.52000000000001</ele>
        <time>2015-04-07T07:17:29Z</time>
      </trkpt>
      <trkpt lat="48.09911297634244" lon="16.992936981841922">
        <ele>188.560000000000002</ele>
        <time>2015-04-07T07:17:30Z</time>
      </trkpt>
      <trkpt lat="48.099094033241272" lon="16.992894988507032">
        <ele>188.080000000000013</ele>
        <time>2015-04-07T07:17:31Z</time>
      </trkpt>
      <trkpt lat="48.099064026027918" lon="16.992848971858621">
        <ele>188.080000000000013</ele>
        <time>2015-04-07T07:17:32Z</time>
      </trkpt>
      <trkpt lat="48.099040975794196" lon="16.992798009887338">
        <ele>187.110000000000014</ele>
        <time>2015-04-07T07:17:33Z</time>
      </trkpt>
      <trkpt lat="48.098774012178183" lon="16.992259975522757">
        <ele>185.189999999999998</ele>
        <time>2015-04-07T07:17:41Z</time>
      </trkpt>
      <trkpt lat="48.098732018843293" lon="16.992200966924429">
        <ele>185.189999999999998</ele>
        <time>2015-04-07T07:17:42Z</time>
      </trkpt>
      <trkpt lat="48.098690025508404" lon="16.992145981639624">
        <ele>185.189999999999998</ele>
        <time>2015-04-07T07:17:43Z</time>
      </trkpt>
      <trkpt lat="48.098648032173514" lon="16.992085967212915">
        <ele>184.710000000000008</ele>
        <time>2015-04-07T07:17:44Z</time>
      </trkpt>
      <trkpt lat="48.09861802496016" lon="16.99203098192811">
        <ele>184.22999999999999</ele>
        <time>2015-04-07T07:17:45Z</time>
      </trkpt>
      <trkpt lat="48.098587011918426" lon="16.991978008300066">
        <ele>184.710000000000008</ele>
        <time>2015-04-07T07:17:46Z</time>
      </trkpt>
      <trkpt lat="48.098557004705071" lon="16.991926040500402">
        <ele>184.710000000000008</ele>
        <time>2015-04-07T07:17:47Z</time>
      </trkpt>
      <trkpt lat="48.098521968349814" lon="16.991882035508752">
        <ele>183.75</ele>
        <time>2015-04-07T07:17:48Z</time>
      </trkpt>
      <trkpt lat="48.098499001935124" lon="16.991837024688721">
        <ele>183.75</ele>
        <time>2015-04-07T07:17:49Z</time>
      </trkpt>
      <trkpt lat="48.09848802164197" lon="16.991781033575535">
        <ele>183.75</ele>
        <time>2015-04-07T07:17:50Z</time>
      </trkpt>
      <trkpt lat="48.09849196113646" lon="16.991724036633968">
        <ele>184.22999999999999</ele>
        <time>2015-04-07T07:17:51Z</time>
      </trkpt>
      <trkpt lat="48.098503025248647" lon="16.991667039692402">
        <ele>184.710000000000008</ele>
        <time>2015-04-07T07:17:52Z</time>
      </trkpt>
      <trkpt lat="48.098518028855324" lon="16.991612976416945">
        <ele>183.75</ele>
        <time>2015-04-07T07:17:53Z</time>
      </trkpt>
      <trkpt lat="48.098750961944461" lon="16.990990033373237">
        <ele>183.75</ele>
        <time>2015-04-07T07:18:06Z</time>
      </trkpt>
      <trkpt lat="48.098804019391537" lon="16.990867992863059">
        <ele>186.150000000000006</ele>
        <time>2015-04-07T07:18:09Z</time>
      </trkpt>
      <trkpt lat="48.099029995501041" lon="16.990313027054071">
        <ele>187.110000000000014</ele>
        <time>2015-04-07T07:18:21Z</time>
      </trkpt>
      <trkpt lat="48.099185982719064" lon="16.989984959363937">
        <ele>187.590000000000003</ele>
        <time>2015-04-07T07:18:30Z</time>
      </trkpt>
      <trkpt lat="48.099190006032586" lon="16.989950006827712">
        <ele>187.590000000000003</ele>
        <time>2015-04-07T07:18:31Z</time>
      </trkpt>
      <trkpt lat="48.099185982719064" lon="16.989917987957597">
        <ele>187.590000000000003</ele>
        <time>2015-04-07T07:18:32Z</time>
      </trkpt>
      <trkpt lat="48.099170979112387" lon="16.989890998229384">
        <ele>187.590000000000003</ele>
        <time>2015-04-07T07:18:33Z</time>
      </trkpt>
      <trkpt lat="48.099154969677329" lon="16.989866020157933">
        <ele>188.080000000000013</ele>
        <time>2015-04-07T07:18:34Z</time>
      </trkpt>
      <trkpt lat="48.099136026576161" lon="16.98984095826745">
        <ele>188.080000000000013</ele>
        <time>2015-04-07T07:18:35Z</time>
      </trkpt>
      <trkpt lat="48.099116999655962" lon="16.989814974367619">
        <ele>188.080000000000013</ele>
        <time>2015-04-07T07:18:36Z</time>
      </trkpt>
      <trkpt lat="48.099094033241272" lon="16.989780021831393">
        <ele>188.080000000000013</ele>
        <time>2015-04-07T07:18:37Z</time>
      </trkpt>
      <trkpt lat="48.099071988835931" lon="16.989745991304517">
        <ele>188.080000000000013</ele>
        <time>2015-04-07T07:18:38Z</time>
      </trkpt>
      <trkpt lat="48.099040975794196" lon="16.989719001576304">
        <ele>188.080000000000013</ele>
        <time>2015-04-07T07:18:39Z</time>
      </trkpt>
      <trkpt lat="48.098636968061328" lon="16.989332009106874">
        <ele>188.080000000000013</ele>
        <time>2015-04-07T07:18:52Z</time>
      </trkpt>
      <trkpt lat="48.098530014976859" lon="16.989218015223742">
        <ele>188.560000000000002</ele>
        <time>2015-04-07T07:18:55Z</time>
      </trkpt>
      <trkpt lat="48.098494978621602" lon="16.989176021888852">
        <ele>188.080000000000013</ele>
        <time>2015-04-07T07:18:56Z</time>
      </trkpt>
      <trkpt lat="48.097945963963866" lon="16.988632036373019">
        <ele>186.629999999999995</ele>
        <time>2015-04-07T07:19:12Z</time>
      </trkpt>
      <trkpt lat="48.097762987017632" lon="16.988376975059509">
        <ele>186.150000000000006</ele>
        <time>2015-04-07T07:19:23Z</time>
      </trkpt>
      <trkpt lat="48.097752006724477" lon="16.988373035565019">
        <ele>186.150000000000006</ele>
        <time>2015-04-07T07:19:48Z</time>
      </trkpt>
      <trkpt lat="48.097735997289419" lon="16.988400025293231">
        <ele>185.189999999999998</ele>
        <time>2015-04-07T07:19:49Z</time>
      </trkpt>
      <trkpt lat="48.09771697036922" lon="16.98842198587954">
        <ele>185.669999999999987</ele>
        <time>2015-04-07T07:19:50Z</time>
      </trkpt>
      <trkpt lat="48.097698027268052" lon="16.988452998921275">
        <ele>185.189999999999998</ele>
        <time>2015-04-07T07:19:51Z</time>
      </trkpt>
      <trkpt lat="48.09767497703433" lon="16.988489041104913">
        <ele>185.189999999999998</ele>
        <time>2015-04-07T07:19:52Z</time>
      </trkpt>
      <trkpt lat="48.097595013678074" lon="16.988637987524271">
        <ele>183.27000000000001</ele>
        <time>2015-04-07T07:19:56Z</time>
      </trkpt>
      <trkpt lat="48.097366020083427" lon="16.989037971943617">
        <ele>184.710000000000008</ele>
        <time>2015-04-07T07:20:06Z</time>
      </trkpt>
      <trkpt lat="48.097300976514816" lon="16.989112989977002">
        <ele>184.710000000000008</ele>
        <time>2015-04-07T07:20:08Z</time>
      </trkpt>
      <trkpt lat="48.096821028739214" lon="16.989901978522539">
        <ele>184.710000000000008</ele>
        <time>2015-04-07T07:20:25Z</time>
      </trkpt>
      <trkpt lat="48.096564961597323" lon="16.990315960720181">
        <ele>182.789999999999992</ele>
        <time>2015-04-07T07:20:34Z</time>
      </trkpt>
      <trkpt lat="48.096496984362602" lon="16.990478988736868">
        <ele>182.310000000000002</ele>
        <time>2015-04-07T07:20:37Z</time>
      </trkpt>
      <trkpt lat="48.096172017976642" lon="16.990649979561567">
        <ele>182.310000000000002</ele>
        <time>2015-04-07T07:20:48Z</time>
      </trkpt>
      <trkpt lat="48.09612700715661" lon="16.990617960691452">
        <ele>181.830000000000013</ele>
        <time>2015-04-07T07:20:49Z</time>
      </trkpt>
      <trkpt lat="48.096043020486832" lon="16.990553000941873">
        <ele>182.310000000000002</ele>
        <time>2015-04-07T07:20:51Z</time>
      </trkpt>
      <trkpt lat="48.095772033557296" lon="16.990333981812">
        <ele>182.789999999999992</ele>
        <time>2015-04-07T07:20:57Z</time>
      </trkpt>
      <trkpt lat="48.095160992816091" lon="16.98977499268949">
        <ele>182.310000000000002</ele>
        <time>2015-04-07T07:21:11Z</time>
      </trkpt>
      <trkpt lat="48.095111958682537" lon="16.989750014618039">
        <ele>181.830000000000013</ele>
        <time>2015-04-07T07:21:12Z</time>
      </trkpt>
      <trkpt lat="48.094264967367053" lon="16.989442985504866">
        <ele>180.870000000000005</ele>
        <time>2015-04-07T07:21:27Z</time>
      </trkpt>
      <trkpt lat="48.094204030930996" lon="16.989425970241427">
        <ele>184.710000000000008</ele>
        <time>2015-04-07T07:21:28Z</time>
      </trkpt>
      <trkpt lat="48.094092970713973" lon="16.989391017705202">
        <ele>180.870000000000005</ele>
        <time>2015-04-07T07:21:30Z</time>
      </trkpt>
      <trkpt lat="48.093983000144362" lon="16.989352963864803">
        <ele>185.189999999999998</ele>
        <time>2015-04-07T07:21:32Z</time>
      </trkpt>
      <trkpt lat="48.092998964712024" lon="16.988984998315573">
        <ele>186.150000000000006</ele>
        <time>2015-04-07T07:21:50Z</time>
      </trkpt>
      <trkpt lat="48.092293040826917" lon="16.988729014992714">
        <ele>189.039999999999992</ele>
        <time>2015-04-07T07:22:04Z</time>
      </trkpt>
      <trkpt lat="48.091578986495733" lon="16.98846397921443">
        <ele>192.400000000000006</ele>
        <time>2015-04-07T07:22:19Z</time>
      </trkpt>
      <trkpt lat="48.090686984360218" lon="16.988123003393412">
        <ele>195.280000000000001</ele>
        <time>2015-04-07T07:22:39Z</time>
      </trkpt>
      <trkpt lat="48.089751983061433" lon="16.987766018137336">
        <ele>197.210000000000008</ele>
        <time>2015-04-07T07:22:59Z</time>
      </trkpt>
      <trkpt lat="48.088717991486192" lon="16.987315993756056">
        <ele>195.280000000000001</ele>
        <time>2015-04-07T07:23:20Z</time>
      </trkpt>
      <trkpt lat="48.088660994544625" lon="16.987287998199463">
        <ele>195.280000000000001</ele>
        <time>2015-04-07T07:23:21Z</time>
      </trkpt>
      <trkpt lat="48.088207030668855" lon="16.986958002671599">
        <ele>191.439999999999998</ele>
        <time>2015-04-07T07:23:28Z</time>
      </trkpt>
      <trkpt lat="48.088138969615102" lon="16.986892959102988">
        <ele>191.439999999999998</ele>
        <time>2015-04-07T07:23:29Z</time>
      </trkpt>
      <trkpt lat="48.087924979627132" lon="16.986673017963767">
        <ele>190</ele>
        <time>2015-04-07T07:23:32Z</time>
      </trkpt>
      <trkpt lat="48.087577968835831" lon="16.986218970268965">
        <ele>186.629999999999995</ele>
        <time>2015-04-07T07:23:37Z</time>
      </trkpt>
      <trkpt lat="48.087523989379406" lon="16.986101036891341">
        <ele>186.629999999999995</ele>
        <time>2015-04-07T07:23:38Z</time>
      </trkpt>
      <trkpt lat="48.087475039064884" lon="16.985978996381164">
        <ele>185.669999999999987</ele>
        <time>2015-04-07T07:23:39Z</time>
      </trkpt>
      <trkpt lat="48.087432961910963" lon="16.985853016376495">
        <ele>185.189999999999998</ele>
        <time>2015-04-07T07:23:40Z</time>
      </trkpt>
      <trkpt lat="48.087394991889596" lon="16.985727036371827">
        <ele>184.710000000000008</ele>
        <time>2015-04-07T07:23:41Z</time>
      </trkpt>
      <trkpt lat="48.087363978847861" lon="16.985598038882017">
        <ele>184.22999999999999</ele>
        <time>2015-04-07T07:23:42Z</time>
      </trkpt>
      <trkpt lat="48.087345035746694" lon="16.985466023907065">
        <ele>183.75</ele>
        <time>2015-04-07T07:23:43Z</time>
      </trkpt>
      <trkpt lat="48.087291978299618" lon="16.984666977077723">
        <ele>181.349999999999994</ele>
        <time>2015-04-07T07:23:49Z</time>
      </trkpt>
      <trkpt lat="48.087237998843193" lon="16.983197964727879">
        <ele>177.97999999999999</ele>
        <time>2015-04-07T07:24:02Z</time>
      </trkpt>
      <trkpt lat="48.087050998583436" lon="16.981327040120959">
        <ele>176.539999999999992</ele>
        <time>2015-04-07T07:24:21Z</time>
      </trkpt>
      <trkpt lat="48.08684497140348" lon="16.97999800555408">
        <ele>174.139999999999986</ele>
        <time>2015-04-07T07:24:36Z</time>
      </trkpt>
      <trkpt lat="48.086536014452577" lon="16.978412987664342">
        <ele>172.210000000000008</ele>
        <time>2015-04-07T07:24:53Z</time>
      </trkpt>
      <trkpt lat="48.086287993937731" lon="16.977292997762561">
        <ele>168.849999999999994</ele>
        <time>2015-04-07T07:25:05Z</time>
      </trkpt>
      <trkpt lat="48.086018012836576" lon="16.97638900950551">
        <ele>168.370000000000005</ele>
        <time>2015-04-07T07:25:15Z</time>
      </trkpt>
      <trkpt lat="48.085903013125062" lon="16.976010985672474">
        <ele>166.930000000000007</ele>
        <time>2015-04-07T07:25:19Z</time>
      </trkpt>
      <trkpt lat="48.085430022329092" lon="16.974495034664869">
        <ele>165</ele>
        <time>2015-04-07T07:25:36Z</time>
      </trkpt>
      <trkpt lat="48.084872961044312" lon="16.973127024248242">
        <ele>164.039999999999992</ele>
        <time>2015-04-07T07:25:52Z</time>
      </trkpt>
      <trkpt lat="48.084248006343842" lon="16.971780974417925">
        <ele>164.039999999999992</ele>
        <time>2015-04-07T07:26:10Z</time>
      </trkpt>
      <trkpt lat="48.083449965342879" lon="16.970425033941865">
        <ele>164.52000000000001</ele>
        <time>2015-04-07T07:26:30Z</time>
      </trkpt>
      <trkpt lat="48.083003964275122" lon="16.969788009300828">
        <ele>166.449999999999989</ele>
        <time>2015-04-07T07:26:42Z</time>
      </trkpt>
      <trkpt lat="48.082503983750939" lon="16.969172023236752">
        <ele>169.810000000000002</ele>
        <time>2015-04-07T07:26:56Z</time>
      </trkpt>
      <trkpt lat="48.082470037043095" lon="16.969130029901862">
        <ele>169.810000000000002</ele>
        <time>2015-04-07T07:26:57Z</time>
      </trkpt>
      <trkpt lat="48.082436006516218" lon="16.96908401325345">
        <ele>169.810000000000002</ele>
        <time>2015-04-07T07:26:58Z</time>
      </trkpt>
      <trkpt lat="48.081909036263824" lon="16.968232998624444">
        <ele>171.72999999999999</ele>
        <time>2015-04-07T07:27:16Z</time>
      </trkpt>
      <trkpt lat="48.081752965226769" lon="16.967819016426802">
        <ele>174.139999999999986</ele>
        <time>2015-04-07T07:27:24Z</time>
      </trkpt>
      <trkpt lat="48.081535035744309" lon="16.967019969597459">
        <ele>176.060000000000002</ele>
        <time>2015-04-07T07:27:39Z</time>
      </trkpt>
      <trkpt lat="48.081206968054175" lon="16.96601296775043">
        <ele>177.97999999999999</ele>
        <time>2015-04-07T07:27:57Z</time>
      </trkpt>
      <trkpt lat="48.080707993358374" lon="16.964827012270689">
        <ele>178.460000000000008</ele>
        <time>2015-04-07T07:28:17Z</time>
      </trkpt>
      <trkpt lat="48.080238020047545" lon="16.963683972135186">
        <ele>178.460000000000008</ele>
        <time>2015-04-07T07:28:35Z</time>
      </trkpt>
      <trkpt lat="48.07964701205492" lon="16.962269023060799">
        <ele>179.419999999999987</ele>
        <time>2015-04-07T07:28:57Z</time>
      </trkpt>
      <trkpt lat="48.079617004841566" lon="16.962210014462471">
        <ele>179.419999999999987</ele>
        <time>2015-04-07T07:28:58Z</time>
      </trkpt>
      <trkpt lat="48.079460011795163" lon="16.961902985349298">
        <ele>179.900000000000006</ele>
        <time>2015-04-07T07:29:03Z</time>
      </trkpt>
      <trkpt lat="48.079398991540074" lon="16.961789997294545">
        <ele>178.939999999999998</ele>
        <time>2015-04-07T07:29:05Z</time>
      </trkpt>
      <trkpt lat="48.078800020739436" lon="16.960710994899273">
        <ele>178.939999999999998</ele>
        <time>2015-04-07T07:29:22Z</time>
      </trkpt>
      <trkpt lat="48.078354019671679" lon="16.959903985261917">
        <ele>178.460000000000008</ele>
        <time>2015-04-07T07:29:35Z</time>
      </trkpt>
      <trkpt lat="48.078032992780209" lon="16.959322029724717">
        <ele>176.060000000000002</ele>
        <time>2015-04-07T07:29:44Z</time>
      </trkpt>
      <trkpt lat="48.077934002503753" lon="16.959142992272973">
        <ele>176.060000000000002</ele>
        <time>2015-04-07T07:29:47Z</time>
      </trkpt>
      <trkpt lat="48.077389011159539" lon="16.958141019567847">
        <ele>176.539999999999992</ele>
        <time>2015-04-07T07:30:03Z</time>
      </trkpt>
      <trkpt lat="48.077270993962884" lon="16.957946978509426">
        <ele>169.810000000000002</ele>
        <time>2015-04-07T07:30:07Z</time>
      </trkpt>
      <trkpt lat="48.077248027548194" lon="16.957899034023285">
        <ele>180.870000000000005</ele>
        <time>2015-04-07T07:30:08Z</time>
      </trkpt>
      <trkpt lat="48.077221037819982" lon="16.957853017374873">
        <ele>177.5</ele>
        <time>2015-04-07T07:30:09Z</time>
      </trkpt>
      <trkpt lat="48.077193964272738" lon="16.957808006554842">
        <ele>177.5</ele>
        <time>2015-04-07T07:30:10Z</time>
      </trkpt>
      <trkpt lat="48.076828010380268" lon="16.957151032984257">
        <ele>173.169999999999987</ele>
        <time>2015-04-07T07:30:25Z</time>
      </trkpt>
      <trkpt lat="48.076804960146546" lon="16.957110967487097">
        <ele>179.900000000000006</ele>
        <time>2015-04-07T07:30:26Z</time>
      </trkpt>
      <trkpt lat="48.076744023710489" lon="16.956927990540862">
        <ele>179.419999999999987</ele>
        <time>2015-04-07T07:30:30Z</time>
      </trkpt>
      <trkpt lat="48.076735977083445" lon="16.956892032176256">
        <ele>180.379999999999995</ele>
        <time>2015-04-07T07:30:31Z</time>
      </trkpt>
      <trkpt lat="48.076720973476768" lon="16.956870993599296">
        <ele>176.539999999999992</ele>
        <time>2015-04-07T07:30:34Z</time>
      </trkpt>
      <trkpt lat="48.076720973476768" lon="16.956870993599296">
        <ele>180.379999999999995</ele>
        <time>2015-04-07T07:30:35Z</time>
      </trkpt>
      <trkpt lat="48.076720973476768" lon="16.956870993599296">
        <ele>180.379999999999995</ele>
        <time>2015-04-07T07:30:36Z</time>
      </trkpt>
      <trkpt lat="48.076720973476768" lon="16.95688197389245">
        <ele>180.379999999999995</ele>
        <time>2015-04-07T07:30:56Z</time>
      </trkpt>
      <trkpt lat="48.076720973476768" lon="16.95688197389245">
        <ele>178.939999999999998</ele>
        <time>2015-04-07T07:30:58Z</time>
      </trkpt>
      <trkpt lat="48.076720973476768" lon="16.95688197389245">
        <ele>178.460000000000008</ele>
        <time>2015-04-07T07:31:07Z</time>
      </trkpt>
      <trkpt lat="48.076717033982277" lon="16.956892032176256">
        <ele>180.379999999999995</ele>
        <time>2015-04-07T07:31:12Z</time>
      </trkpt>
      <trkpt lat="48.07670596987009" lon="16.956895971670747">
        <ele>179.419999999999987</ele>
        <time>2015-04-07T07:31:15Z</time>
      </trkpt>
      <trkpt lat="48.076693983748555" lon="16.956895971670747">
        <ele>178.460000000000008</ele>
        <time>2015-04-07T07:31:16Z</time>
      </trkpt>
      <trkpt lat="48.076675040647388" lon="16.956895971670747">
        <ele>177.97999999999999</ele>
        <time>2015-04-07T07:31:17Z</time>
      </trkpt>
      <trkpt lat="48.07666003704071" lon="16.956885997205973">
        <ele>177.97999999999999</ele>
        <time>2015-04-07T07:31:18Z</time>
      </trkpt>
      <trkpt lat="48.076645033434033" lon="16.956861019134521">
        <ele>177.5</ele>
        <time>2015-04-07T07:31:19Z</time>
      </trkpt>
      <trkpt lat="48.076632963493466" lon="16.956831011921167">
        <ele>177.02000000000001</ele>
        <time>2015-04-07T07:31:20Z</time>
      </trkpt>
      <trkpt lat="48.076370023190975" lon="16.956347040832043">
        <ele>177.97999999999999</ele>
        <time>2015-04-07T07:31:33Z</time>
      </trkpt>
      <trkpt lat="48.075863001868129" lon="16.955412039533257">
        <ele>176.539999999999992</ele>
        <time>2015-04-07T07:31:52Z</time>
      </trkpt>
      <trkpt lat="48.075789995491505" lon="16.95520400069654">
        <ele>175.580000000000013</ele>
        <time>2015-04-07T07:31:55Z</time>
      </trkpt>
      <trkpt lat="48.075744984671474" lon="16.955061005428433">
        <ele>175.580000000000013</ele>
        <time>2015-04-07T07:31:57Z</time>
      </trkpt>
      <trkpt lat="48.075717994943261" lon="16.954987999051809">
        <ele>176.060000000000002</ele>
        <time>2015-04-07T07:31:58Z</time>
      </trkpt>
      <trkpt lat="48.075641971081495" lon="16.954768979921937">
        <ele>175.099999999999994</ele>
        <time>2015-04-07T07:32:01Z</time>
      </trkpt>
      <trkpt lat="48.075619004666805" lon="16.954694967716932">
        <ele>175.099999999999994</ele>
        <time>2015-04-07T07:32:02Z</time>
      </trkpt>
      <trkpt lat="48.075297977775335" lon="16.95365896448493">
        <ele>174.620000000000005</ele>
        <time>2015-04-07T07:32:16Z</time>
      </trkpt>
      <trkpt lat="48.075255984440446" lon="16.953526027500629">
        <ele>174.620000000000005</ele>
        <time>2015-04-07T07:32:18Z</time>
      </trkpt>
      <trkpt lat="48.075237041339278" lon="16.953456960618496">
        <ele>175.099999999999994</ele>
        <time>2015-04-07T07:32:19Z</time>
      </trkpt>
      <trkpt lat="48.075107960030437" lon="16.953047001734376">
        <ele>174.620000000000005</ele>
        <time>2015-04-07T07:32:25Z</time>
      </trkpt>
      <trkpt lat="48.074989020824432" lon="16.951811006292701">
        <ele>175.099999999999994</ele>
        <time>2015-04-07T07:32:42Z</time>
      </trkpt>
      <trkpt lat="48.074989020824432" lon="16.951661976054311">
        <ele>174.139999999999986</ele>
        <time>2015-04-07T07:32:44Z</time>
      </trkpt>
      <trkpt lat="48.074986003339291" lon="16.951577989384532">
        <ele>173.659999999999997</ele>
        <time>2015-04-07T07:32:45Z</time>
      </trkpt>
      <trkpt lat="48.074986003339291" lon="16.951503977179527">
        <ele>174.139999999999986</ele>
        <time>2015-04-07T07:32:46Z</time>
      </trkpt>
      <trkpt lat="48.074959013611078" lon="16.950865024700761">
        <ele>174.620000000000005</ele>
        <time>2015-04-07T07:32:55Z</time>
      </trkpt>
      <trkpt lat="48.07500503025949" lon="16.949752997606993">
        <ele>174.620000000000005</ele>
        <time>2015-04-07T07:33:12Z</time>
      </trkpt>
      <trkpt lat="48.075047023594379" lon="16.949559962376952">
        <ele>175.580000000000013</ele>
        <time>2015-04-07T07:33:15Z</time>
      </trkpt>
      <trkpt lat="48.075062027201056" lon="16.949497014284134">
        <ele>175.580000000000013</ele>
        <time>2015-04-07T07:33:16Z</time>
      </trkpt>
      <trkpt lat="48.075230000540614" lon="16.948893014341593">
        <ele>175.580000000000013</ele>
        <time>2015-04-07T07:33:26Z</time>
      </trkpt>
      <trkpt lat="48.075294038280845" lon="16.948714982718229">
        <ele>176.539999999999992</ele>
        <time>2015-04-07T07:33:29Z</time>
      </trkpt>
      <trkpt lat="48.075317004695535" lon="16.948657985776663">
        <ele>176.060000000000002</ele>
        <time>2015-04-07T07:33:30Z</time>
      </trkpt>
      <trkpt lat="48.075343994423747" lon="16.948598977178335">
        <ele>175.580000000000013</ele>
        <time>2015-04-07T07:33:31Z</time>
      </trkpt>
      <trkpt lat="48.075466034933925" lon="16.948336036875844">
        <ele>176.539999999999992</ele>
        <time>2015-04-07T07:33:36Z</time>
      </trkpt>
      <trkpt lat="48.075851015746593" lon="16.947771012783051">
        <ele>178.939999999999998</ele>
        <time>2015-04-07T07:33:49Z</time>
      </trkpt>
      <trkpt lat="48.075912036001682" lon="16.947699012234807">
        <ele>178.460000000000008</ele>
        <time>2015-04-07T07:33:51Z</time>
      </trkpt>
      <trkpt lat="48.076111022382975" lon="16.947488961741328">
        <ele>178.460000000000008</ele>
        <time>2015-04-07T07:33:57Z</time>
      </trkpt>
      <trkpt lat="48.076416039839387" lon="16.947214035317302">
        <ele>180.870000000000005</ele>
        <time>2015-04-07T07:34:06Z</time>
      </trkpt>
      <trkpt lat="48.076473036780953" lon="16.947155026718974">
        <ele>178.939999999999998</ele>
        <time>2015-04-07T07:34:08Z</time>
      </trkpt>
      <trkpt lat="48.076630029827356" lon="16.946821007877588">
        <ele>180.379999999999995</ele>
        <time>2015-04-07T07:34:16Z</time>
      </trkpt>
      <trkpt lat="48.076927000656724" lon="16.94635396823287">
        <ele>180.379999999999995</ele>
        <time>2015-04-07T07:34:28Z</time>
      </trkpt>
      <trkpt lat="48.077389011159539" lon="16.945631029084325">
        <ele>180.379999999999995</ele>
        <time>2015-04-07T07:34:46Z</time>
      </trkpt>
      <trkpt lat="48.077659998089075" lon="16.945144962519407">
        <ele>176.539999999999992</ele>
        <time>2015-04-07T07:34:56Z</time>
      </trkpt>
      <trkpt lat="48.077681958675385" lon="16.945088971406221">
        <ele>177.02000000000001</ele>
        <time>2015-04-07T07:34:57Z</time>
      </trkpt>
      <trkpt lat="48.077811961993575" lon="16.944669960066676">
        <ele>177.97999999999999</ele>
        <time>2015-04-07T07:35:04Z</time>
      </trkpt>
      <trkpt lat="48.077824031934142" lon="16.944597037509084">
        <ele>178.460000000000008</ele>
        <time>2015-04-07T07:35:05Z</time>
      </trkpt>
      <trkpt lat="48.077872982248664" lon="16.944238962605596">
        <ele>180.379999999999995</ele>
        <time>2015-04-07T07:35:10Z</time>
      </trkpt>
      <trkpt lat="48.077881028875709" lon="16.944107031449676">
        <ele>179.900000000000006</ele>
        <time>2015-04-07T07:35:12Z</time>
      </trkpt>
      <trkpt lat="48.077866025269032" lon="16.943518035113811">
        <ele>176.060000000000002</ele>
        <time>2015-04-07T07:35:22Z</time>
      </trkpt>
      <trkpt lat="48.077862001955509" lon="16.9434720184654">
        <ele>176.539999999999992</ele>
        <time>2015-04-07T07:35:23Z</time>
      </trkpt>
      <trkpt lat="48.077846998348832" lon="16.943347966298461">
        <ele>180.379999999999995</ele>
        <time>2015-04-07T07:35:26Z</time>
      </trkpt>
      <trkpt lat="48.077835012227297" lon="16.943305972963572">
        <ele>180.379999999999995</ele>
        <time>2015-04-07T07:35:27Z</time>
      </trkpt>
      <trkpt lat="48.077782038599253" lon="16.942955022677779">
        <ele>184.22999999999999</ele>
        <time>2015-04-07T07:35:34Z</time>
      </trkpt>
      <trkpt lat="48.077747002243996" lon="16.942738015204668">
        <ele>181.349999999999994</ele>
        <time>2015-04-07T07:35:38Z</time>
      </trkpt>
      <trkpt lat="48.077685981988907" lon="16.942330989986658">
        <ele>184.710000000000008</ele>
        <time>2015-04-07T07:35:45Z</time>
      </trkpt>
      <trkpt lat="48.077652035281062" lon="16.942093027755618">
        <ele>180.379999999999995</ele>
        <time>2015-04-07T07:35:49Z</time>
      </trkpt>
      <trkpt lat="48.077643988654017" lon="16.942027984187007">
        <ele>182.310000000000002</ele>
        <time>2015-04-07T07:35:50Z</time>
      </trkpt>
      <trkpt lat="48.077529994770885" lon="16.941328011453152">
        <ele>183.27000000000001</ele>
        <time>2015-04-07T07:36:01Z</time>
      </trkpt>
      <trkpt lat="48.077446008101106" lon="16.940789977088571">
        <ele>186.629999999999995</ele>
        <time>2015-04-07T07:36:09Z</time>
      </trkpt>
      <trkpt lat="48.077435027807951" lon="16.940725017338991">
        <ele>186.150000000000006</ele>
        <time>2015-04-07T07:36:10Z</time>
      </trkpt>
      <trkpt lat="48.077419018372893" lon="16.94059400819242">
        <ele>185.189999999999998</ele>
        <time>2015-04-07T07:36:12Z</time>
      </trkpt>
      <trkpt lat="48.077395968139172" lon="16.940461993217468">
        <ele>183.27000000000001</ele>
        <time>2015-04-07T07:36:14Z</time>
      </trkpt>
      <trkpt lat="48.077389011159539" lon="16.940397033467889">
        <ele>179.419999999999987</ele>
        <time>2015-04-07T07:36:15Z</time>
      </trkpt>
      <trkpt lat="48.077380964532495" lon="16.940331989899278">
        <ele>182.789999999999992</ele>
        <time>2015-04-07T07:36:16Z</time>
      </trkpt>
      <trkpt lat="48.077212991192937" lon="16.939219040796161">
        <ele>183.75</ele>
        <time>2015-04-07T07:36:33Z</time>
      </trkpt>
      <trkpt lat="48.077160017564893" lon="16.938878986984491">
        <ele>183.75</ele>
        <time>2015-04-07T07:36:38Z</time>
      </trkpt>
      <trkpt lat="48.077034037560225" lon="16.938049010932446">
        <ele>183.27000000000001</ele>
        <time>2015-04-07T07:36:51Z</time>
      </trkpt>
      <trkpt lat="48.076828010380268" lon="16.936734979972243">
        <ele>183.27000000000001</ele>
        <time>2015-04-07T07:37:11Z</time>
      </trkpt>
      <trkpt lat="48.076630029827356" lon="16.93545900285244">
        <ele>183.27000000000001</ele>
        <time>2015-04-07T07:37:31Z</time>
      </trkpt>
      <trkpt lat="48.076588036492467" lon="16.934841005131602">
        <ele>181.349999999999994</ele>
        <time>2015-04-07T07:37:40Z</time>
      </trkpt>
      <trkpt lat="48.076594993472099" lon="16.934274975210428">
        <ele>190</ele>
        <time>2015-04-07T07:37:49Z</time>
      </trkpt>
      <trkpt lat="48.076599016785622" lon="16.934218984097242">
        <ele>190</ele>
        <time>2015-04-07T07:37:50Z</time>
      </trkpt>
      <trkpt lat="48.076611002907157" lon="16.934111025184393">
        <ele>189.039999999999992</ele>
        <time>2015-04-07T07:37:52Z</time>
      </trkpt>
      <trkpt lat="48.07666003704071" lon="16.933609033003449">
        <ele>187.110000000000014</ele>
        <time>2015-04-07T07:38:01Z</time>
      </trkpt>
      <trkpt lat="48.076720973476768" lon="16.933075021952391">
        <ele>183.27000000000001</ele>
        <time>2015-04-07T07:38:11Z</time>
      </trkpt>
      <trkpt lat="48.076729020103812" lon="16.933021964505315">
        <ele>187.590000000000003</ele>
        <time>2015-04-07T07:38:12Z</time>
      </trkpt>
      <trkpt lat="48.07674796320498" lon="16.932866983115673">
        <ele>184.22999999999999</ele>
        <time>2015-04-07T07:38:15Z</time>
      </trkpt>
      <trkpt lat="48.076756009832025" lon="16.93281602114439">
        <ele>187.590000000000003</ele>
        <time>2015-04-07T07:38:16Z</time>
      </trkpt>
      <trkpt lat="48.076808983460069" lon="16.932349987328053">
        <ele>184.22999999999999</ele>
        <time>2015-04-07T07:38:26Z</time>
      </trkpt>
      <trkpt lat="48.076968993991613" lon="16.931263022124767">
        <ele>183.75</ele>
        <time>2015-04-07T07:38:47Z</time>
      </trkpt>
      <trkpt lat="48.077087011188269" lon="16.930273035541177">
        <ele>184.22999999999999</ele>
        <time>2015-04-07T07:39:04Z</time>
      </trkpt>
      <trkpt lat="48.077232018113136" lon="16.929137958213687">
        <ele>184.22999999999999</ele>
        <time>2015-04-07T07:39:23Z</time>
      </trkpt>
      <trkpt lat="48.077426981180906" lon="16.927806995809078">
        <ele>184.710000000000008</ele>
        <time>2015-04-07T07:39:45Z</time>
      </trkpt>
      <trkpt lat="48.077468974515796" lon="16.927549000829458">
        <ele>183.27000000000001</ele>
        <time>2015-04-07T07:39:49Z</time>
      </trkpt>
      <trkpt lat="48.077571988105774" lon="16.9268439989537">
        <ele>184.22999999999999</ele>
        <time>2015-04-07T07:40:00Z</time>
      </trkpt>
      <trkpt lat="48.077739961445332" lon="16.92536199465394">
        <ele>185.189999999999998</ele>
        <time>2015-04-07T07:40:23Z</time>
      </trkpt>
      <trkpt lat="48.077854039147496" lon="16.92374998703599">
        <ele>186.150000000000006</ele>
        <time>2015-04-07T07:40:47Z</time>
      </trkpt>
      <trkpt lat="48.07784297503531" lon="16.92231198772788">
        <ele>185.669999999999987</ele>
        <time>2015-04-07T07:41:08Z</time>
      </trkpt>
      <trkpt lat="48.077709032222629" lon="16.921349996700883">
        <ele>185.189999999999998</ele>
        <time>2015-04-07T07:41:22Z</time>
      </trkpt>
      <trkpt lat="48.077510967850685" lon="16.920416001230478">
        <ele>186.150000000000006</ele>
        <time>2015-04-07T07:41:36Z</time>
      </trkpt>
      <trkpt lat="48.077414995059371" lon="16.919544031843543">
        <ele>187.590000000000003</ele>
        <time>2015-04-07T07:41:49Z</time>
      </trkpt>
      <trkpt lat="48.077480038627982" lon="16.918619005009532">
        <ele>185.189999999999998</ele>
        <time>2015-04-07T07:42:03Z</time>
      </trkpt>
      <trkpt lat="48.077601995319128" lon="16.917931018397212">
        <ele>183.27000000000001</ele>
        <time>2015-04-07T07:42:13Z</time>
      </trkpt>
      <trkpt lat="48.077613981440663" lon="16.91786396317184">
        <ele>188.080000000000013</ele>
        <time>2015-04-07T07:42:14Z</time>
      </trkpt>
      <trkpt lat="48.077621022239327" lon="16.917796991765499">
        <ele>187.110000000000014</ele>
        <time>2015-04-07T07:42:15Z</time>
      </trkpt>
      <trkpt lat="48.077633008360863" lon="16.917666988447309">
        <ele>186.150000000000006</ele>
        <time>2015-04-07T07:42:17Z</time>
      </trkpt>
      <trkpt lat="48.077643988654017" lon="16.916669961065054">
        <ele>185.669999999999987</ele>
        <time>2015-04-07T07:42:33Z</time>
      </trkpt>
      <trkpt lat="48.077640971168876" lon="16.916550016030669">
        <ele>184.22999999999999</ele>
        <time>2015-04-07T07:42:35Z</time>
      </trkpt>
      <trkpt lat="48.077601995319128" lon="16.916206022724509">
        <ele>184.710000000000008</ele>
        <time>2015-04-07T07:42:41Z</time>
      </trkpt>
      <trkpt lat="48.07749898172915" lon="16.91567201167345">
        <ele>183.75</ele>
        <time>2015-04-07T07:42:51Z</time>
      </trkpt>
      <trkpt lat="48.077384987846017" lon="16.9147680234164">
        <ele>181.349999999999994</ele>
        <time>2015-04-07T07:43:03Z</time>
      </trkpt>
      <trkpt lat="48.077393034473062" lon="16.914187995716929">
        <ele>180.379999999999995</ele>
        <time>2015-04-07T07:43:09Z</time>
      </trkpt>
      <trkpt lat="48.077393034473062" lon="16.913433037698269">
        <ele>178.460000000000008</ele>
        <time>2015-04-07T07:43:17Z</time>
      </trkpt>
      <trkpt lat="48.077380964532495" lon="16.913158027455211">
        <ele>178.939999999999998</ele>
        <time>2015-04-07T07:43:20Z</time>
      </trkpt>
      <trkpt lat="48.07736998423934" lon="16.913069011643529">
        <ele>177.97999999999999</ele>
        <time>2015-04-07T07:43:21Z</time>
      </trkpt>
      <trkpt lat="48.077335031703115" lon="16.912888968363404">
        <ele>177.5</ele>
        <time>2015-04-07T07:43:23Z</time>
      </trkpt>
      <trkpt lat="48.077301001176238" lon="16.912800036370754">
        <ele>177.97999999999999</ele>
        <time>2015-04-07T07:43:24Z</time>
      </trkpt>
      <trkpt lat="48.077259007841349" lon="16.912714038044214">
        <ele>177.02000000000001</ele>
        <time>2015-04-07T07:43:25Z</time>
      </trkpt>
      <trkpt lat="48.077212991192937" lon="16.91264002583921">
        <ele>176.539999999999992</ele>
        <time>2015-04-07T07:43:26Z</time>
      </trkpt>
      <trkpt lat="48.07715599425137" lon="16.912569031119347">
        <ele>176.539999999999992</ele>
        <time>2015-04-07T07:43:27Z</time>
      </trkpt>
      <trkpt lat="48.077098997309804" lon="16.912505999207497">
        <ele>176.060000000000002</ele>
        <time>2015-04-07T07:43:28Z</time>
      </trkpt>
      <trkpt lat="48.07702599093318" lon="16.912457970902324">
        <ele>175.099999999999994</ele>
        <time>2015-04-07T07:43:29Z</time>
      </trkpt>
      <trkpt lat="48.076949967071414" lon="16.912420000880957">
        <ele>175.099999999999994</ele>
        <time>2015-04-07T07:43:30Z</time>
      </trkpt>
      <trkpt lat="48.07687402702868" lon="16.912397034466267">
        <ele>175.580000000000013</ele>
        <time>2015-04-07T07:43:31Z</time>
      </trkpt>
      <trkpt lat="48.076790040358901" lon="16.912383958697319">
        <ele>174.620000000000005</ele>
        <time>2015-04-07T07:43:32Z</time>
      </trkpt>
      <trkpt lat="48.07670596987009" lon="16.912389993667603">
        <ele>174.620000000000005</ele>
        <time>2015-04-07T07:43:33Z</time>
      </trkpt>
      <trkpt lat="48.076313026249409" lon="16.912479009479284">
        <ele>171.25</ele>
        <time>2015-04-07T07:43:38Z</time>
      </trkpt>
      <trkpt lat="48.076060982421041" lon="16.912527037784457">
        <ele>169.810000000000002</ele>
        <time>2015-04-07T07:43:41Z</time>
      </trkpt>
      <trkpt lat="48.07562998495996" lon="16.912559978663921">
        <ele>166.449999999999989</ele>
        <time>2015-04-07T07:43:46Z</time>
      </trkpt>
      <trkpt lat="48.075539041310549" lon="16.912550004199147">
        <ele>166.449999999999989</ele>
        <time>2015-04-07T07:43:47Z</time>
      </trkpt>
      <trkpt lat="48.075047023594379" lon="16.912495018914342">
        <ele>163.560000000000002</ele>
        <time>2015-04-07T07:43:52Z</time>
      </trkpt>
      <trkpt lat="48.074519969522953" lon="16.912343977019191">
        <ele>161.639999999999986</ele>
        <time>2015-04-07T07:43:58Z</time>
      </trkpt>
      <trkpt lat="48.074477976188064" lon="16.912316987290978">
        <ele>161.159999999999997</ele>
        <time>2015-04-07T07:43:59Z</time>
      </trkpt>
      <trkpt lat="48.074444029480219" lon="16.912286980077624">
        <ele>161.159999999999997</ele>
        <time>2015-04-07T07:44:00Z</time>
      </trkpt>
      <trkpt lat="48.074363982304931" lon="16.912217997014523">
        <ele>157.310000000000002</ele>
        <time>2015-04-07T07:44:07Z</time>
      </trkpt>
      <trkpt lat="48.074363982304931" lon="16.912217997014523">
        <ele>161.639999999999986</ele>
        <time>2015-04-07T07:44:08Z</time>
      </trkpt>
      <trkpt lat="48.074363982304931" lon="16.912217997014523">
        <ele>162.120000000000005</ele>
        <time>2015-04-07T07:44:10Z</time>
      </trkpt>
      <trkpt lat="48.074363982304931" lon="16.912217997014523">
        <ele>158.75</ele>
        <time>2015-04-07T07:44:19Z</time>
      </trkpt>
      <trkpt lat="48.074363982304931" lon="16.912217997014523">
        <ele>159.240000000000009</ele>
        <time>2015-04-07T07:44:20Z</time>
      </trkpt>
      <trkpt lat="48.074363982304931" lon="16.912217997014523">
        <ele>160.680000000000007</ele>
        <time>2015-04-07T07:44:22Z</time>
      </trkpt>
      <trkpt lat="48.074378985911608" lon="16.912227971479297">
        <ele>161.159999999999997</ele>
        <time>2015-04-07T07:44:56Z</time>
      </trkpt>
      <trkpt lat="48.074378985911608" lon="16.912227971479297">
        <ele>161.159999999999997</ele>
        <time>2015-04-07T07:45:29Z</time>
      </trkpt>
      <trkpt lat="48.074378985911608" lon="16.912227971479297">
        <ele>161.639999999999986</ele>
        <time>2015-04-07T07:45:36Z</time>
      </trkpt>
      <trkpt lat="48.074363982304931" lon="16.912229983136058">
        <ele>161.159999999999997</ele>
        <time>2015-04-07T07:45:37Z</time>
      </trkpt>
      <trkpt lat="48.074347972869873" lon="16.912215985357761">
        <ele>161.639999999999986</ele>
        <time>2015-04-07T07:45:38Z</time>
      </trkpt>
      <trkpt lat="48.074336992576718" lon="16.912200981751084">
        <ele>161.159999999999997</ele>
        <time>2015-04-07T07:45:39Z</time>
      </trkpt>
      <trkpt lat="48.074329029768705" lon="16.912183966487646">
        <ele>161.159999999999997</ele>
        <time>2015-04-07T07:45:40Z</time>
      </trkpt>
      <trkpt lat="48.074187962338328" lon="16.911796974018216">
        <ele>161.639999999999986</ele>
        <time>2015-04-07T07:45:52Z</time>
      </trkpt>
      <trkpt lat="48.074294999241829" lon="16.911314008757472">
        <ele>162.120000000000005</ele>
        <time>2015-04-07T07:46:04Z</time>
      </trkpt>
      <trkpt lat="48.074595993384719" lon="16.91043097525835">
        <ele>162.120000000000005</ele>
        <time>2015-04-07T07:46:19Z</time>
      </trkpt>
      <trkpt lat="48.074634969234467" lon="16.910311030223966">
        <ele>162.120000000000005</ele>
        <time>2015-04-07T07:46:21Z</time>
      </trkpt>
      <trkpt lat="48.074653996154666" lon="16.910250009968877">
        <ele>162.120000000000005</ele>
        <time>2015-04-07T07:46:22Z</time>
      </trkpt>
      <trkpt lat="48.074772013351321" lon="16.909832004457712">
        <ele>162.599999999999994</ele>
        <time>2015-04-07T07:46:29Z</time>
      </trkpt>
      <trkpt lat="48.074787016957998" lon="16.909772995859385">
        <ele>162.599999999999994</ele>
        <time>2015-04-07T07:46:30Z</time>
      </trkpt>
      <trkpt lat="48.075095973908901" lon="16.908701034262776">
        <ele>162.599999999999994</ele>
        <time>2015-04-07T07:46:47Z</time>
      </trkpt>
      <trkpt lat="48.075436027720571" lon="16.907288013026118">
        <ele>163.560000000000002</ele>
        <time>2015-04-07T07:47:09Z</time>
      </trkpt>
      <trkpt lat="48.075644988566637" lon="16.906050005927682">
        <ele>162.599999999999994</ele>
        <time>2015-04-07T07:47:28Z</time>
      </trkpt>
      <trkpt lat="48.075851015746593" lon="16.904814010486007">
        <ele>162.120000000000005</ele>
        <time>2015-04-07T07:47:47Z</time>
      </trkpt>
      <trkpt lat="48.075713971629739" lon="16.903883032500744">
        <ele>159.719999999999999</ele>
        <time>2015-04-07T07:48:00Z</time>
      </trkpt>
      <trkpt lat="48.075504004955292" lon="16.903085997328162">
        <ele>156.830000000000013</ele>
        <time>2015-04-07T07:48:09Z</time>
      </trkpt>
      <trkpt lat="48.075207034125924" lon="16.901916973292828">
        <ele>153.469999999999999</ele>
        <time>2015-04-07T07:48:21Z</time>
      </trkpt>
      <trkpt lat="48.075050041079521" lon="16.901293024420738">
        <ele>150.580000000000013</ele>
        <time>2015-04-07T07:48:28Z</time>
      </trkpt>
      <trkpt lat="48.074760027229786" lon="16.899787969887257">
        <ele>148.659999999999997</ele>
        <time>2015-04-07T07:48:44Z</time>
      </trkpt>
      <trkpt lat="48.074589036405087" lon="16.898212004452944">
        <ele>147.219999999999999</ele>
        <time>2015-04-07T07:49:01Z</time>
      </trkpt>
      <trkpt lat="48.074592975899577" lon="16.898115025833249">
        <ele>147.219999999999999</ele>
        <time>2015-04-07T07:49:02Z</time>
      </trkpt>
      <trkpt lat="48.074657013639808" lon="16.897556036710739">
        <ele>146.740000000000009</ele>
        <time>2015-04-07T07:49:08Z</time>
      </trkpt>
      <trkpt lat="48.074920959770679" lon="16.896320041269064">
        <ele>145.300000000000011</ele>
        <time>2015-04-07T07:49:23Z</time>
      </trkpt>
      <trkpt lat="48.075191024690866" lon="16.895001986995339">
        <ele>145.300000000000011</ele>
        <time>2015-04-07T07:49:39Z</time>
      </trkpt>
      <trkpt lat="48.075409037992358" lon="16.893774038180709">
        <ele>144.340000000000003</ele>
        <time>2015-04-07T07:49:55Z</time>
      </trkpt>
      <trkpt lat="48.075427981093526" lon="16.893698014318943">
        <ele>143.849999999999994</ele>
        <time>2015-04-07T07:49:56Z</time>
      </trkpt>
      <trkpt lat="48.075931984931231" lon="16.892581963911653">
        <ele>144.340000000000003</ele>
        <time>2015-04-07T07:50:14Z</time>
      </trkpt>
      <trkpt lat="48.076594993472099" lon="16.891633970662951">
        <ele>145.780000000000001</ele>
        <time>2015-04-07T07:50:33Z</time>
      </trkpt>
      <trkpt lat="48.076766990125179" lon="16.891402965411544">
        <ele>145.300000000000011</ele>
        <time>2015-04-07T07:50:38Z</time>
      </trkpt>
      <trkpt lat="48.076817030087113" lon="16.891305986791849">
        <ele>146.259999999999991</ele>
        <time>2015-04-07T07:50:40Z</time>
      </trkpt>
      <trkpt lat="48.076927000656724" lon="16.890924023464322">
        <ele>145.300000000000011</ele>
        <time>2015-04-07T07:50:47Z</time>
      </trkpt>
      <trkpt lat="48.076953990384936" lon="16.89079100266099">
        <ele>146.740000000000009</ele>
        <time>2015-04-07T07:50:49Z</time>
      </trkpt>
      <trkpt lat="48.076938986778259" lon="16.890118019655347">
        <ele>145.300000000000011</ele>
        <time>2015-04-07T07:50:59Z</time>
      </trkpt>
      <trkpt lat="48.07687402702868" lon="16.889168014749885">
        <ele>146.259999999999991</ele>
        <time>2015-04-07T07:51:14Z</time>
      </trkpt>
      <trkpt lat="48.076859023422003" lon="16.888981014490128">
        <ele>146.740000000000009</ele>
        <time>2015-04-07T07:51:17Z</time>
      </trkpt>
      <trkpt lat="48.07685500010848" lon="16.888919994235039">
        <ele>145.300000000000011</ele>
        <time>2015-04-07T07:51:18Z</time>
      </trkpt>
      <trkpt lat="48.076847037300467" lon="16.88885897397995">
        <ele>145.780000000000001</ele>
        <time>2015-04-07T07:51:19Z</time>
      </trkpt>
      <trkpt lat="48.076843013986945" lon="16.888798037543893">
        <ele>145.780000000000001</ele>
        <time>2015-04-07T07:51:20Z</time>
      </trkpt>
      <trkpt lat="48.076838990673423" lon="16.888732993975282">
        <ele>146.740000000000009</ele>
        <time>2015-04-07T07:51:21Z</time>
      </trkpt>
      <trkpt lat="48.076804960146546" lon="16.888252040371299">
        <ele>148.180000000000007</ele>
        <time>2015-04-07T07:51:29Z</time>
      </trkpt>
      <trkpt lat="48.076740000396967" lon="16.887107994407415">
        <ele>147.219999999999999</ele>
        <time>2015-04-07T07:51:45Z</time>
      </trkpt>
      <trkpt lat="48.076720973476768" lon="16.886701975017786">
        <ele>148.180000000000007</ele>
        <time>2015-04-07T07:51:51Z</time>
      </trkpt>
      <trkpt lat="48.0767020303756" lon="16.886456971988082">
        <ele>147.219999999999999</ele>
        <time>2015-04-07T07:51:55Z</time>
      </trkpt>
      <trkpt lat="48.0767020303756" lon="16.886396035552025">
        <ele>147.699999999999989</ele>
        <time>2015-04-07T07:51:56Z</time>
      </trkpt>
      <trkpt lat="48.076675040647388" lon="16.886047013103962">
        <ele>147.219999999999999</ele>
        <time>2015-04-07T07:52:02Z</time>
      </trkpt>
      <trkpt lat="48.076645033434033" lon="16.885687010362744">
        <ele>149.620000000000005</ele>
        <time>2015-04-07T07:52:08Z</time>
      </trkpt>
      <trkpt lat="48.076569009572268" lon="16.884717978537083">
        <ele>149.620000000000005</ele>
        <time>2015-04-07T07:52:24Z</time>
      </trkpt>
      <trkpt lat="48.07653003372252" lon="16.884227972477674">
        <ele>149.139999999999986</ele>
        <time>2015-04-07T07:52:34Z</time>
      </trkpt>
      <trkpt lat="48.076473036780953" lon="16.883261036127806">
        <ele>147.699999999999989</ele>
        <time>2015-04-07T07:52:51Z</time>
      </trkpt>
      <trkpt lat="48.076320989057422" lon="16.882113972678781">
        <ele>148.180000000000007</ele>
        <time>2015-04-07T07:53:09Z</time>
      </trkpt>
      <trkpt lat="48.076054025441408" lon="16.881098002195358">
        <ele>149.139999999999986</ele>
        <time>2015-04-07T07:53:25Z</time>
      </trkpt>
      <trkpt lat="48.075812961906195" lon="16.880123019218445">
        <ele>147.699999999999989</ele>
        <time>2015-04-07T07:53:41Z</time>
      </trkpt>
      <trkpt lat="48.075614981353283" lon="16.879286002367735">
        <ele>148.659999999999997</ele>
        <time>2015-04-07T07:53:55Z</time>
      </trkpt>
      <trkpt lat="48.075602995231748" lon="16.879226993769407">
        <ele>148.659999999999997</ele>
        <time>2015-04-07T07:53:56Z</time>
      </trkpt>
      <trkpt lat="48.075587991625071" lon="16.87916798517108">
        <ele>149.139999999999986</ele>
        <time>2015-04-07T07:53:57Z</time>
      </trkpt>
      <trkpt lat="48.075343994423747" lon="16.878164000809193">
        <ele>148.180000000000007</ele>
        <time>2015-04-07T07:54:14Z</time>
      </trkpt>
      <trkpt lat="48.075065966695547" lon="16.876992965117097">
        <ele>147.699999999999989</ele>
        <time>2015-04-07T07:54:33Z</time>
      </trkpt>
      <trkpt lat="48.074799003079534" lon="16.875954028218985">
        <ele>146.259999999999991</ele>
        <time>2015-04-07T07:54:49Z</time>
      </trkpt>
      <trkpt lat="48.074528016149998" lon="16.874980973079801">
        <ele>146.259999999999991</ele>
        <time>2015-04-07T07:55:04Z</time>
      </trkpt>
      <trkpt lat="48.074268009513617" lon="16.874104980379343">
        <ele>146.740000000000009</ele>
        <time>2015-04-07T07:55:18Z</time>
      </trkpt>
      <trkpt lat="48.073868025094271" lon="16.872746022418141">
        <ele>146.740000000000009</ele>
        <time>2015-04-07T07:55:39Z</time>
      </trkpt>
      <trkpt lat="48.073421018198133" lon="16.871536010876298">
        <ele>147.219999999999999</ele>
        <time>2015-04-07T07:55:59Z</time>
      </trkpt>
      <trkpt lat="48.073100997135043" lon="16.870371010154486">
        <ele>145.780000000000001</ele>
        <time>2015-04-07T07:56:15Z</time>
      </trkpt>
      <trkpt lat="48.073048023506999" lon="16.869940012693405">
        <ele>147.219999999999999</ele>
        <time>2015-04-07T07:56:20Z</time>
      </trkpt>
      <trkpt lat="48.072945009917021" lon="16.868975004181266">
        <ele>147.699999999999989</ele>
        <time>2015-04-07T07:56:35Z</time>
      </trkpt>
      <trkpt lat="48.072845013812184" lon="16.868249969556928">
        <ele>149.139999999999986</ele>
        <time>2015-04-07T07:56:47Z</time>
      </trkpt>
      <trkpt lat="48.072701012715697" lon="16.867303987964988">
        <ele>147.699999999999989</ele>
        <time>2015-04-07T07:57:04Z</time>
      </trkpt>
      <trkpt lat="48.072456009685993" lon="16.866139993071556">
        <ele>147.219999999999999</ele>
        <time>2015-04-07T07:57:23Z</time>
      </trkpt>
      <trkpt lat="48.072333969175816" lon="16.865585027262568">
        <ele>147.699999999999989</ele>
        <time>2015-04-07T07:57:32Z</time>
      </trkpt>
      <trkpt lat="48.072315026074648" lon="16.865521995350718">
        <ele>147.699999999999989</ele>
        <time>2015-04-07T07:57:33Z</time>
      </trkpt>
      <trkpt lat="48.072093995288014" lon="16.864699982106686">
        <ele>147.219999999999999</ele>
        <time>2015-04-07T07:57:46Z</time>
      </trkpt>
      <trkpt lat="48.071757964789867" lon="16.864037979394197">
        <ele>147.699999999999989</ele>
        <time>2015-04-07T07:58:00Z</time>
      </trkpt>
      <trkpt lat="48.071628967300057" lon="16.863873023539782">
        <ele>148.180000000000007</ele>
        <time>2015-04-07T07:58:04Z</time>
      </trkpt>
      <trkpt lat="48.071335013955832" lon="16.863596001639962">
        <ele>146.259999999999991</ele>
        <time>2015-04-07T07:58:15Z</time>
      </trkpt>
      <trkpt lat="48.071236023679376" lon="16.863670013844967">
        <ele>146.259999999999991</ele>
        <time>2015-04-07T07:58:18Z</time>
      </trkpt>
      <trkpt lat="48.070660019293427" lon="16.864046026021242">
        <ele>144.819999999999993</ele>
        <time>2015-04-07T07:58:31Z</time>
      </trkpt>
      <trkpt lat="48.070503026247025" lon="16.864088019356132">
        <ele>145.780000000000001</ele>
        <time>2015-04-07T07:58:34Z</time>
      </trkpt>
      <trkpt lat="48.070328012108803" lon="16.864112997427583">
        <ele>146.740000000000009</ele>
        <time>2015-04-07T07:58:37Z</time>
      </trkpt>
      <trkpt lat="48.069430980831385" lon="16.863938989117742">
        <ele>146.740000000000009</ele>
        <time>2015-04-07T07:58:52Z</time>
      </trkpt>
      <trkpt lat="48.068538978695869" lon="16.863615028560162">
        <ele>146.259999999999991</ele>
        <time>2015-04-07T07:59:08Z</time>
      </trkpt>
      <trkpt lat="48.067893991246819" lon="16.86296802945435">
        <ele>146.740000000000009</ele>
        <time>2015-04-07T07:59:24Z</time>
      </trkpt>
      <trkpt lat="48.067238023504615" lon="16.862207036465406">
        <ele>146.259999999999991</ele>
        <time>2015-04-07T07:59:40Z</time>
      </trkpt>
      <trkpt lat="48.066665958613157" lon="16.861466998234391">
        <ele>146.740000000000009</ele>
        <time>2015-04-07T07:59:54Z</time>
      </trkpt>
      <trkpt lat="48.066563028842211" lon="16.861298019066453">
        <ele>146.740000000000009</ele>
        <time>2015-04-07T07:59:57Z</time>
      </trkpt>
      <trkpt lat="48.066017031669617" lon="16.86015103943646">
        <ele>146.259999999999991</ele>
        <time>2015-04-07T08:00:16Z</time>
      </trkpt>
      <trkpt lat="48.065945031121373" lon="16.859969990327954">
        <ele>145.780000000000001</ele>
        <time>2015-04-07T08:00:19Z</time>
      </trkpt>
      <trkpt lat="48.065921980887651" lon="16.859908970072865">
        <ele>145.780000000000001</ele>
        <time>2015-04-07T08:00:20Z</time>
      </trkpt>
      <trkpt lat="48.06587596423924" lon="16.859777038916945">
        <ele>148.180000000000007</ele>
        <time>2015-04-07T08:00:22Z</time>
      </trkpt>
      <trkpt lat="48.065697010606527" lon="16.859152000397444">
        <ele>146.259999999999991</ele>
        <time>2015-04-07T08:00:31Z</time>
      </trkpt>
      <trkpt lat="48.065677983686328" lon="16.859095003455877">
        <ele>146.740000000000009</ele>
        <time>2015-04-07T08:00:32Z</time>
      </trkpt>
      <trkpt lat="48.06540297344327" lon="16.858120020478964">
        <ele>147.219999999999999</ele>
        <time>2015-04-07T08:00:48Z</time>
      </trkpt>
      <trkpt lat="48.065140033140779" lon="16.856958037242293">
        <ele>149.139999999999986</ele>
        <time>2015-04-07T08:01:06Z</time>
      </trkpt>
      <trkpt lat="48.065104996785522" lon="16.856237025931478">
        <ele>146.740000000000009</ele>
        <time>2015-04-07T08:01:20Z</time>
      </trkpt>
      <trkpt lat="48.065083036199212" lon="16.856145998463035">
        <ele>148.180000000000007</ele>
        <time>2015-04-07T08:04:47Z</time>
      </trkpt>
      <trkpt lat="48.065083036199212" lon="16.856121020391583">
        <ele>148.180000000000007</ele>
        <time>2015-04-07T08:04:48Z</time>
      </trkpt>
      <trkpt lat="48.06507901288569" lon="16.856095958501101">
        <ele>148.180000000000007</ele>
        <time>2015-04-07T08:04:49Z</time>
      </trkpt>
      <trkpt lat="48.06507901288569" lon="16.856070980429649">
        <ele>147.699999999999989</ele>
        <time>2015-04-07T08:04:50Z</time>
      </trkpt>
      <trkpt lat="48.065043976530433" lon="16.855765962973237">
        <ele>148.659999999999997</ele>
        <time>2015-04-07T08:05:02Z</time>
      </trkpt>
      <trkpt lat="48.065040959045291" lon="16.855719024315476">
        <ele>147.699999999999989</ele>
        <time>2015-04-07T08:05:04Z</time>
      </trkpt>
      <trkpt lat="48.0650370195508" lon="16.855695974081755">
        <ele>147.219999999999999</ele>
        <time>2015-04-07T08:05:05Z</time>
      </trkpt>
      <trkpt lat="48.0650370195508" lon="16.855673007667065">
        <ele>147.699999999999989</ele>
        <time>2015-04-07T08:05:06Z</time>
      </trkpt>
      <trkpt lat="48.065032996237278" lon="16.855651969090104">
        <ele>147.699999999999989</ele>
        <time>2015-04-07T08:05:07Z</time>
      </trkpt>
      <trkpt lat="48.065032996237278" lon="16.855631014332175">
        <ele>147.699999999999989</ele>
        <time>2015-04-07T08:05:08Z</time>
      </trkpt>
      <trkpt lat="48.065028972923756" lon="16.855611987411976">
        <ele>147.219999999999999</ele>
        <time>2015-04-07T08:05:09Z</time>
      </trkpt>
      <trkpt lat="48.065028972923756" lon="16.855600001290441">
        <ele>147.699999999999989</ele>
        <time>2015-04-07T08:05:24Z</time>
      </trkpt>
      <trkpt lat="48.065028972923756" lon="16.855415012687445">
        <ele>148.659999999999997</ele>
        <time>2015-04-07T08:07:32Z</time>
      </trkpt>
      <trkpt lat="48.065028972923756" lon="16.855391040444374">
        <ele>148.180000000000007</ele>
        <time>2015-04-07T08:07:33Z</time>
      </trkpt>
      <trkpt lat="48.065025033429265" lon="16.855358015745878">
        <ele>148.180000000000007</ele>
        <time>2015-04-07T08:07:34Z</time>
      </trkpt>
      <trkpt lat="48.065022015944123" lon="16.85531803406775">
        <ele>148.180000000000007</ele>
        <time>2015-04-07T08:07:35Z</time>
      </trkpt>
      <trkpt lat="48.065017992630601" lon="16.855276040732861">
        <ele>148.180000000000007</ele>
        <time>2015-04-07T08:07:36Z</time>
      </trkpt>
      <trkpt lat="48.065013969317079" lon="16.855228012427688">
        <ele>148.180000000000007</ele>
        <time>2015-04-07T08:07:37Z</time>
      </trkpt>
      <trkpt lat="48.064991002902389" lon="16.854457966983318">
        <ele>148.659999999999997</ele>
        <time>2015-04-07T08:07:49Z</time>
      </trkpt>
      <trkpt lat="48.064995026215911" lon="16.854388983920217">
        <ele>148.659999999999997</ele>
        <time>2015-04-07T08:07:50Z</time>
      </trkpt>
      <trkpt lat="48.065025033429265" lon="16.853984976187348">
        <ele>147.699999999999989</ele>
        <time>2015-04-07T08:07:56Z</time>
      </trkpt>
      <trkpt lat="48.065032996237278" lon="16.853854972869158">
        <ele>148.659999999999997</ele>
        <time>2015-04-07T08:07:58Z</time>
      </trkpt>
      <trkpt lat="48.065028972923756" lon="16.853790013119578">
        <ele>148.180000000000007</ele>
        <time>2015-04-07T08:07:59Z</time>
      </trkpt>
      <trkpt lat="48.065032996237278" lon="16.853722035884857">
        <ele>148.180000000000007</ele>
        <time>2015-04-07T08:08:00Z</time>
      </trkpt>
      <trkpt lat="48.0650370195508" lon="16.853654980659485">
        <ele>148.659999999999997</ele>
        <time>2015-04-07T08:08:01Z</time>
      </trkpt>
      <trkpt lat="48.0650370195508" lon="16.853588009253144">
        <ele>148.180000000000007</ele>
        <time>2015-04-07T08:08:02Z</time>
      </trkpt>
      <trkpt lat="48.065025033429265" lon="16.853344012051821">
        <ele>148.180000000000007</ele>
        <time>2015-04-07T08:08:06Z</time>
      </trkpt>
      <trkpt lat="48.065010029822588" lon="16.853287015110254">
        <ele>149.139999999999986</ele>
        <time>2015-04-07T08:08:07Z</time>
      </trkpt>
      <trkpt lat="48.064968036487699" lon="16.853179978206754">
        <ele>149.139999999999986</ele>
        <time>2015-04-07T08:08:09Z</time>
      </trkpt>
      <trkpt lat="48.064860999584198" lon="16.852979985997081">
        <ele>149.139999999999986</ele>
        <time>2015-04-07T08:08:13Z</time>
      </trkpt>
      <trkpt lat="48.064826969057322" lon="16.852942015975714">
        <ele>149.139999999999986</ele>
        <time>2015-04-07T08:08:14Z</time>
      </trkpt>
      <trkpt lat="48.064793022349477" lon="16.85291301459074">
        <ele>149.139999999999986</ele>
        <time>2015-04-07T08:08:15Z</time>
      </trkpt>
      <trkpt lat="48.064753962680697" lon="16.852886024862528">
        <ele>148.659999999999997</ele>
        <time>2015-04-07T08:08:16Z</time>
      </trkpt>
      <trkpt lat="48.064712975174189" lon="16.852864986285567">
        <ele>149.139999999999986</ele>
        <time>2015-04-07T08:08:17Z</time>
      </trkpt>
      <trkpt lat="48.064670981839299" lon="16.852847971022129">
        <ele>149.139999999999986</ele>
        <time>2015-04-07T08:08:18Z</time>
      </trkpt>
      <trkpt lat="48.06445699185133" lon="16.852788962423801">
        <ele>149.139999999999986</ele>
        <time>2015-04-07T08:08:23Z</time>
      </trkpt>
      <trkpt lat="48.063728017732501" lon="16.852874960750341">
        <ele>149.139999999999986</ele>
        <time>2015-04-07T08:08:39Z</time>
      </trkpt>
      <trkpt lat="48.06318998336792" lon="16.853240998461843">
        <ele>150.099999999999994</ele>
        <time>2015-04-07T08:08:52Z</time>
      </trkpt>
      <trkpt lat="48.062653038650751" lon="16.853679958730936">
        <ele>149.139999999999986</ele>
        <time>2015-04-07T08:09:06Z</time>
      </trkpt>
      <trkpt lat="48.062598975375295" lon="16.853691022843122">
        <ele>149.139999999999986</ele>
        <time>2015-04-07T08:09:07Z</time>
      </trkpt>
      <trkpt lat="48.062546001747251" lon="16.853689011186361">
        <ele>149.139999999999986</ele>
        <time>2015-04-07T08:09:08Z</time>
      </trkpt>
      <trkpt lat="48.062492022290826" lon="16.853681970387697">
        <ele>149.139999999999986</ele>
        <time>2015-04-07T08:09:09Z</time>
      </trkpt>
      <trkpt lat="48.06243896484375" lon="16.853667972609401">
        <ele>149.139999999999986</ele>
        <time>2015-04-07T08:09:10Z</time>
      </trkpt>
      <trkpt lat="48.062385991215706" lon="16.85364299453795">
        <ele>148.659999999999997</ele>
        <time>2015-04-07T08:09:11Z</time>
      </trkpt>
      <trkpt lat="48.062336035072803" lon="16.853603012859821">
        <ele>149.139999999999986</ele>
        <time>2015-04-07T08:09:12Z</time>
      </trkpt>
      <trkpt lat="48.062290018424392" lon="16.853550039231777">
        <ele>149.139999999999986</ele>
        <time>2015-04-07T08:09:13Z</time>
      </trkpt>
      <trkpt lat="48.062248025089502" lon="16.853489018976688">
        <ele>149.139999999999986</ele>
        <time>2015-04-07T08:09:14Z</time>
      </trkpt>
      <trkpt lat="48.062213994562626" lon="16.853421963751316">
        <ele>149.139999999999986</ele>
        <time>2015-04-07T08:09:15Z</time>
      </trkpt>
      <trkpt lat="48.062179964035749" lon="16.853353986516595">
        <ele>149.139999999999986</ele>
        <time>2015-04-07T08:09:16Z</time>
      </trkpt>
      <trkpt lat="48.061736980453134" lon="16.852240031585097">
        <ele>149.620000000000005</ele>
        <time>2015-04-07T08:09:32Z</time>
      </trkpt>
      <trkpt lat="48.06119198910892" lon="16.850879983976483">
        <ele>150.099999999999994</ele>
        <time>2015-04-07T08:09:51Z</time>
      </trkpt>
      <trkpt lat="48.060660995543003" lon="16.849658992141485">
        <ele>150.099999999999994</ele>
        <time>2015-04-07T08:10:09Z</time>
      </trkpt>
      <trkpt lat="48.060062024742365" lon="16.848290981724858">
        <ele>151.539999999999992</ele>
        <time>2015-04-07T08:10:30Z</time>
      </trkpt>
      <trkpt lat="48.059562966227531" lon="16.847363021224737">
        <ele>151.060000000000002</ele>
        <time>2015-04-07T08:10:46Z</time>
      </trkpt>
      <trkpt lat="48.058968018740416" lon="16.846201037988067">
        <ele>152.509999999999991</ele>
        <time>2015-04-07T08:11:04Z</time>
      </trkpt>
      <trkpt lat="48.058380028232932" lon="16.84519998729229">
        <ele>150.580000000000013</ele>
        <time>2015-04-07T08:11:21Z</time>
      </trkpt>
      <trkpt lat="48.058289000764489" lon="16.845126980915666">
        <ele>151.060000000000002</ele>
        <time>2015-04-07T08:11:23Z</time>
      </trkpt>
      <trkpt lat="48.058238960802555" lon="16.845093034207821">
        <ele>151.060000000000002</ele>
        <time>2015-04-07T08:11:24Z</time>
      </trkpt>
      <trkpt lat="48.057380989193916" lon="16.844562962651253">
        <ele>149.620000000000005</ele>
        <time>2015-04-07T08:11:41Z</time>
      </trkpt>
      <trkpt lat="48.05633501149714" lon="16.843873970210552">
        <ele>150.099999999999994</ele>
        <time>2015-04-07T08:12:01Z</time>
      </trkpt>
      <trkpt lat="48.055923040956259" lon="16.843602983281016">
        <ele>152.030000000000001</ele>
        <time>2015-04-07T08:12:09Z</time>
      </trkpt>
      <trkpt lat="48.055069008842111" lon="16.843006024137139">
        <ele>151.060000000000002</ele>
        <time>2015-04-07T08:12:26Z</time>
      </trkpt>
      <trkpt lat="48.054172983393073" lon="16.842302028089762">
        <ele>150.099999999999994</ele>
        <time>2015-04-07T08:12:44Z</time>
      </trkpt>
      <trkpt lat="48.053318029269576" lon="16.841585040092468">
        <ele>150.099999999999994</ele>
        <time>2015-04-07T08:13:00Z</time>
      </trkpt>
      <trkpt lat="48.052322007715702" lon="16.84060100466013">
        <ele>151.539999999999992</ele>
        <time>2015-04-07T08:13:20Z</time>
      </trkpt>
      <trkpt lat="48.05150200612843" lon="16.840032963082194">
        <ele>151.060000000000002</ele>
        <time>2015-04-07T08:13:36Z</time>
      </trkpt>
      <trkpt lat="48.050391990691423" lon="16.839584028348327">
        <ele>151.060000000000002</ele>
        <time>2015-04-07T08:13:55Z</time>
      </trkpt>
      <trkpt lat="48.049362022429705" lon="16.83909997344017">
        <ele>151.060000000000002</ele>
        <time>2015-04-07T08:14:14Z</time>
      </trkpt>
      <trkpt lat="48.048675963655114" lon="16.838564034551382">
        <ele>152.030000000000001</ele>
        <time>2015-04-07T08:14:28Z</time>
      </trkpt>
      <trkpt lat="48.048503967002034" lon="16.83834501542151">
        <ele>152.030000000000001</ele>
        <time>2015-04-07T08:14:32Z</time>
      </trkpt>
      <trkpt lat="48.048473037779331" lon="16.838277960196137">
        <ele>151.539999999999992</ele>
        <time>2015-04-07T08:14:33Z</time>
      </trkpt>
      <trkpt lat="48.048416040837765" lon="16.838133037090302">
        <ele>151.539999999999992</ele>
        <time>2015-04-07T08:14:35Z</time>
      </trkpt>
      <trkpt lat="48.048392990604043" lon="16.838055001571774">
        <ele>151.060000000000002</ele>
        <time>2015-04-07T08:14:36Z</time>
      </trkpt>
      <trkpt lat="48.048377986997366" lon="16.837971014901996">
        <ele>151.060000000000002</ele>
        <time>2015-04-07T08:14:37Z</time>
      </trkpt>
      <trkpt lat="48.048367006704211" lon="16.837883004918694">
        <ele>151.060000000000002</ele>
        <time>2015-04-07T08:14:38Z</time>
      </trkpt>
      <trkpt lat="48.048362983390689" lon="16.837792983278632">
        <ele>152.030000000000001</ele>
        <time>2015-04-07T08:14:39Z</time>
      </trkpt>
      <trkpt lat="48.048362983390689" lon="16.837707990780473">
        <ele>151.539999999999992</ele>
        <time>2015-04-07T08:14:40Z</time>
      </trkpt>
      <trkpt lat="48.048397013917565" lon="16.837385036051273">
        <ele>152.509999999999991</ele>
        <time>2015-04-07T08:14:44Z</time>
      </trkpt>
      <trkpt lat="48.048569010570645" lon="16.836807020008564">
        <ele>152.030000000000001</ele>
        <time>2015-04-07T08:14:52Z</time>
      </trkpt>
      <trkpt lat="48.048584014177322" lon="16.836733007803559">
        <ele>152.030000000000001</ele>
        <time>2015-04-07T08:14:53Z</time>
      </trkpt>
      <trkpt lat="48.048594994470477" lon="16.836657989770174">
        <ele>152.030000000000001</ele>
        <time>2015-04-07T08:14:54Z</time>
      </trkpt>
      <trkpt lat="48.04855702444911" lon="16.835589967668056">
        <ele>152.030000000000001</ele>
        <time>2015-04-07T08:15:08Z</time>
      </trkpt>
      <trkpt lat="48.048485023900867" lon="16.834739958867431">
        <ele>152.030000000000001</ele>
        <time>2015-04-07T08:15:19Z</time>
      </trkpt>
      <trkpt lat="48.048355020582676" lon="16.833507986739278">
        <ele>152.030000000000001</ele>
        <time>2015-04-07T08:15:35Z</time>
      </trkpt>
      <trkpt lat="48.048331970348954" lon="16.833439003676176">
        <ele>152.509999999999991</ele>
        <time>2015-04-07T08:15:36Z</time>
      </trkpt>
      <trkpt lat="48.048309003934264" lon="16.833372032269835">
        <ele>152.509999999999991</ele>
        <time>2015-04-07T08:15:37Z</time>
      </trkpt>
      <trkpt lat="48.04827899672091" lon="16.833313023671508">
        <ele>152.030000000000001</ele>
        <time>2015-04-07T08:15:38Z</time>
      </trkpt>
      <trkpt lat="48.048243960365653" lon="16.833259966224432">
        <ele>152.030000000000001</ele>
        <time>2015-04-07T08:15:39Z</time>
      </trkpt>
      <trkpt lat="48.048205990344286" lon="16.83321001008153">
        <ele>152.030000000000001</ele>
        <time>2015-04-07T08:15:40Z</time>
      </trkpt>
      <trkpt lat="48.047732999548316" lon="16.83269502595067">
        <ele>150.580000000000013</ele>
        <time>2015-04-07T08:15:51Z</time>
      </trkpt>
      <trkpt lat="48.046939987689257" lon="16.831897990778089">
        <ele>152.030000000000001</ele>
        <time>2015-04-07T08:16:09Z</time>
      </trkpt>
      <trkpt lat="48.046176983043551" lon="16.831068014726043">
        <ele>153.949999999999989</ele>
        <time>2015-04-07T08:16:28Z</time>
      </trkpt>
      <trkpt lat="48.04548597894609" lon="16.830127984285355">
        <ele>155.870000000000005</ele>
        <time>2015-04-07T08:16:47Z</time>
      </trkpt>
      <trkpt lat="48.044785000383854" lon="16.829249979928136">
        <ele>155.389999999999986</ele>
        <time>2015-04-07T08:17:05Z</time>
      </trkpt>
      <trkpt lat="48.043999029323459" lon="16.828308021649718">
        <ele>156.830000000000013</ele>
        <time>2015-04-07T08:17:23Z</time>
      </trkpt>
      <trkpt lat="48.043387988582253" lon="16.827580975368619">
        <ele>157.789999999999992</ele>
        <time>2015-04-07T08:17:38Z</time>
      </trkpt>
      <trkpt lat="48.042579973116517" lon="16.826606998220086">
        <ele>156.349999999999994</ele>
        <time>2015-04-07T08:17:57Z</time>
      </trkpt>
      <trkpt lat="48.042190968990326" lon="16.826125960797071">
        <ele>154.909999999999997</ele>
        <time>2015-04-07T08:18:06Z</time>
      </trkpt>
      <trkpt lat="48.041512034833431" lon="16.825188025832176">
        <ele>155.870000000000005</ele>
        <time>2015-04-07T08:18:23Z</time>
      </trkpt>
      <trkpt lat="48.04095103405416" lon="16.824243972077966">
        <ele>157.310000000000002</ele>
        <time>2015-04-07T08:18:39Z</time>
      </trkpt>
      <trkpt lat="48.040206972509623" lon="16.822990039363503">
        <ele>156.349999999999994</ele>
        <time>2015-04-07T08:18:59Z</time>
      </trkpt>
      <trkpt lat="48.039588974788785" lon="16.821956969797611">
        <ele>156.349999999999994</ele>
        <time>2015-04-07T08:19:17Z</time>
      </trkpt>
      <trkpt lat="48.039271971210837" lon="16.821417007595301">
        <ele>157.310000000000002</ele>
        <time>2015-04-07T08:19:26Z</time>
      </trkpt>
      <trkpt lat="48.038768973201513" lon="16.820346973836422">
        <ele>157.789999999999992</ele>
        <time>2015-04-07T08:19:44Z</time>
      </trkpt>
      <trkpt lat="48.038325989618897" lon="16.819216003641486">
        <ele>157.310000000000002</ele>
        <time>2015-04-07T08:20:03Z</time>
      </trkpt>
      <trkpt lat="48.037884011864662" lon="16.818068018183112">
        <ele>157.789999999999992</ele>
        <time>2015-04-07T08:20:23Z</time>
      </trkpt>
      <trkpt lat="48.037475980818272" lon="16.817045006901026">
        <ele>159.719999999999999</ele>
        <time>2015-04-07T08:20:41Z</time>
      </trkpt>
      <trkpt lat="48.037227960303426" lon="16.816414017230272">
        <ele>161.159999999999997</ele>
        <time>2015-04-07T08:20:52Z</time>
      </trkpt>
      <trkpt lat="48.03689201362431" lon="16.81555001065135">
        <ele>163.080000000000013</ele>
        <time>2015-04-07T08:21:08Z</time>
      </trkpt>
      <trkpt lat="48.036545002833009" lon="16.814678041264415">
        <ele>165.47999999999999</ele>
        <time>2015-04-07T08:21:25Z</time>
      </trkpt>
      <trkpt lat="48.036094978451729" lon="16.813566014170647">
        <ele>166.449999999999989</ele>
        <time>2015-04-07T08:21:45Z</time>
      </trkpt>
      <trkpt lat="48.036076035350561" lon="16.81350901722908">
        <ele>163.560000000000002</ele>
        <time>2015-04-07T08:21:46Z</time>
      </trkpt>
      <trkpt lat="48.036048961803317" lon="16.813454031944275">
        <ele>167.409999999999997</ele>
        <time>2015-04-07T08:21:47Z</time>
      </trkpt>
      <trkpt lat="48.035847041755915" lon="16.812938963994384">
        <ele>165.960000000000008</ele>
        <time>2015-04-07T08:21:56Z</time>
      </trkpt>
      <trkpt lat="48.035819968208671" lon="16.812882972881198">
        <ele>165.960000000000008</ele>
        <time>2015-04-07T08:21:57Z</time>
      </trkpt>
      <trkpt lat="48.035442028194666" lon="16.811950989067554">
        <ele>165.960000000000008</ele>
        <time>2015-04-07T08:22:13Z</time>
      </trkpt>
      <trkpt lat="48.035011030733585" lon="16.811025962233543">
        <ele>164.039999999999992</ele>
        <time>2015-04-07T08:22:30Z</time>
      </trkpt>
      <trkpt lat="48.034942969679832" lon="16.810894031077623">
        <ele>162.599999999999994</ele>
        <time>2015-04-07T08:22:32Z</time>
      </trkpt>
      <trkpt lat="48.03465697914362" lon="16.810334958136082">
        <ele>160.680000000000007</ele>
        <time>2015-04-07T08:22:40Z</time>
      </trkpt>
      <trkpt lat="48.034206032752991" lon="16.809252016246319">
        <ele>160.199999999999989</ele>
        <time>2015-04-07T08:22:54Z</time>
      </trkpt>
      <trkpt lat="48.034100001677871" lon="16.808915985748172">
        <ele>155.870000000000005</ele>
        <time>2015-04-07T08:22:58Z</time>
      </trkpt>
      <trkpt lat="48.033928005024791" lon="16.808172008022666">
        <ele>155.870000000000005</ele>
        <time>2015-04-07T08:23:06Z</time>
      </trkpt>
      <trkpt lat="48.033679984509945" lon="16.806807015091181">
        <ele>155.870000000000005</ele>
        <time>2015-04-07T08:23:22Z</time>
      </trkpt>
      <trkpt lat="48.03366900421679" lon="16.806725040078163">
        <ele>151.539999999999992</ele>
        <time>2015-04-07T08:23:23Z</time>
      </trkpt>
      <trkpt lat="48.033657018095255" lon="16.806643987074494">
        <ele>159.719999999999999</ele>
        <time>2015-04-07T08:23:24Z</time>
      </trkpt>
      <trkpt lat="48.033642014488578" lon="16.806566035374999">
        <ele>154.430000000000007</ele>
        <time>2015-04-07T08:23:25Z</time>
      </trkpt>
      <trkpt lat="48.033603960648179" lon="16.806337041780353">
        <ele>154.430000000000007</ele>
        <time>2015-04-07T08:23:28Z</time>
      </trkpt>
      <trkpt lat="48.033595997840166" lon="16.806266969069839">
        <ele>153.949999999999989</ele>
        <time>2015-04-07T08:23:29Z</time>
      </trkpt>
      <trkpt lat="48.033585017547011" lon="16.806052979081869">
        <ele>153.949999999999989</ele>
        <time>2015-04-07T08:23:32Z</time>
      </trkpt>
      <trkpt lat="48.033576970919967" lon="16.805769000202417">
        <ele>153.949999999999989</ele>
        <time>2015-04-07T08:23:36Z</time>
      </trkpt>
      <trkpt lat="48.033576970919967" lon="16.805707979947329">
        <ele>153.949999999999989</ele>
        <time>2015-04-07T08:23:37Z</time>
      </trkpt>
      <trkpt lat="48.033684007823467" lon="16.80534403771162">
        <ele>153.469999999999999</ele>
        <time>2015-04-07T08:23:44Z</time>
      </trkpt>
      <trkpt lat="48.033684007823467" lon="16.805283017456532">
        <ele>153.949999999999989</ele>
        <time>2015-04-07T08:23:45Z</time>
      </trkpt>
      <trkpt lat="48.033675961196423" lon="16.805219985544682">
        <ele>153.949999999999989</ele>
        <time>2015-04-07T08:23:46Z</time>
      </trkpt>
      <trkpt lat="48.033652994781733" lon="16.805161982774734">
        <ele>153.949999999999989</ele>
        <time>2015-04-07T08:23:47Z</time>
      </trkpt>
      <trkpt lat="48.033622987568378" lon="16.805113032460213">
        <ele>155.389999999999986</ele>
        <time>2015-04-07T08:23:48Z</time>
      </trkpt>
      <trkpt lat="48.033591974526644" lon="16.805074978619814">
        <ele>155.389999999999986</ele>
        <time>2015-04-07T08:23:49Z</time>
      </trkpt>
      <trkpt lat="48.033546041697264" lon="16.80504203774035">
        <ele>154.430000000000007</ele>
        <time>2015-04-07T08:23:50Z</time>
      </trkpt>
      <trkpt lat="48.033507987856865" lon="16.805008007213473">
        <ele>154.909999999999997</ele>
        <time>2015-04-07T08:23:51Z</time>
      </trkpt>
      <trkpt lat="48.03347404114902" lon="16.804964002221823">
        <ele>155.389999999999986</ele>
        <time>2015-04-07T08:23:52Z</time>
      </trkpt>
      <trkpt lat="48.033450990915298" lon="16.804907005280256">
        <ele>155.389999999999986</ele>
        <time>2015-04-07T08:23:53Z</time>
      </trkpt>
      <trkpt lat="48.033154020085931" lon="16.803831020370126">
        <ele>155.389999999999986</ele>
        <time>2015-04-07T08:24:10Z</time>
      </trkpt>
      <trkpt lat="48.032951010391116" lon="16.802791999652982">
        <ele>155.389999999999986</ele>
        <time>2015-04-07T08:24:27Z</time>
      </trkpt>
      <trkpt lat="48.032714975997806" lon="16.801509987562895">
        <ele>153.949999999999989</ele>
        <time>2015-04-07T08:24:48Z</time>
      </trkpt>
      <trkpt lat="48.032557982951403" lon="16.800616979598999">
        <ele>154.430000000000007</ele>
        <time>2015-04-07T08:25:03Z</time>
      </trkpt>
      <trkpt lat="48.031574031338096" lon="16.795187015086412">
        <ele>153.469999999999999</ele>
        <time>2015-04-07T08:28:34Z</time>
      </trkpt>
      <trkpt lat="48.031550981104374" lon="16.795125994831324">
        <ele>154.430000000000007</ele>
        <time>2015-04-07T08:28:35Z</time>
      </trkpt>
      <trkpt lat="48.031535977497697" lon="16.7950529884547">
        <ele>156.349999999999994</ele>
        <time>2015-04-07T08:28:36Z</time>
      </trkpt>
      <trkpt lat="48.031524997204542" lon="16.794978976249695">
        <ele>155.389999999999986</ele>
        <time>2015-04-07T08:28:37Z</time>
      </trkpt>
      <trkpt lat="48.03149800747633" lon="16.794828018173575">
        <ele>154.909999999999997</ele>
        <time>2015-04-07T08:28:39Z</time>
      </trkpt>
      <trkpt lat="48.031242024153471" lon="16.79363401606679">
        <ele>154.909999999999997</ele>
        <time>2015-04-07T08:28:55Z</time>
      </trkpt>
      <trkpt lat="48.030937006697059" lon="16.792804962024093">
        <ele>153.949999999999989</ele>
        <time>2015-04-07T08:29:07Z</time>
      </trkpt>
      <trkpt lat="48.030624026432633" lon="16.792027037590742">
        <ele>154.909999999999997</ele>
        <time>2015-04-07T08:29:19Z</time>
      </trkpt>
      <trkpt lat="48.030555965378881" lon="16.791858980432153">
        <ele>153.469999999999999</ele>
        <time>2015-04-07T08:29:22Z</time>
      </trkpt>
      <trkpt lat="48.030437026172876" lon="16.791558992117643">
        <ele>152.990000000000009</ele>
        <time>2015-04-07T08:29:27Z</time>
      </trkpt>
      <trkpt lat="48.029967974871397" lon="16.79039197973907">
        <ele>152.509999999999991</ele>
        <time>2015-04-07T08:29:45Z</time>
      </trkpt>
      <trkpt lat="48.02945701405406" lon="16.789103010669351">
        <ele>152.030000000000001</ele>
        <time>2015-04-07T08:30:04Z</time>
      </trkpt>
      <trkpt lat="48.029147973284125" lon="16.788333971053362">
        <ele>152.509999999999991</ele>
        <time>2015-04-07T08:30:16Z</time>
      </trkpt>
      <trkpt lat="48.028819989413023" lon="16.787717984989285">
        <ele>152.030000000000001</ele>
        <time>2015-04-07T08:30:30Z</time>
      </trkpt>
      <trkpt lat="48.028747988864779" lon="16.787633998319507">
        <ele>151.539999999999992</ele>
        <time>2015-04-07T08:30:32Z</time>
      </trkpt>
      <trkpt lat="48.028713036328554" lon="16.787583958357573">
        <ele>151.539999999999992</ele>
        <time>2015-04-07T08:30:33Z</time>
      </trkpt>
      <trkpt lat="48.02827499806881" lon="16.786765968427062">
        <ele>152.509999999999991</ele>
        <time>2015-04-07T08:30:47Z</time>
      </trkpt>
      <trkpt lat="48.027785997837782" lon="16.785920988768339">
        <ele>153.469999999999999</ele>
        <time>2015-04-07T08:31:03Z</time>
      </trkpt>
      <trkpt lat="48.027542000636458" lon="16.785366022959352">
        <ele>153.469999999999999</ele>
        <time>2015-04-07T08:31:14Z</time>
      </trkpt>
      <trkpt lat="48.027434963732958" lon="16.784634031355381">
        <ele>155.389999999999986</ele>
        <time>2015-04-07T08:31:27Z</time>
      </trkpt>
      <trkpt lat="48.027411997318268" lon="16.783458972349763">
        <ele>156.349999999999994</ele>
        <time>2015-04-07T08:31:44Z</time>
      </trkpt>
      <trkpt lat="48.027447033673525" lon="16.782446019351482">
        <ele>156.349999999999994</ele>
        <time>2015-04-07T08:32:00Z</time>
      </trkpt>
      <trkpt lat="48.027504030615091" lon="16.782057015225291">
        <ele>156.349999999999994</ele>
        <time>2015-04-07T08:32:06Z</time>
      </trkpt>
      <trkpt lat="48.027694970369339" lon="16.781054036691785">
        <ele>156.349999999999994</ele>
        <time>2015-04-07T08:32:23Z</time>
      </trkpt>
      <trkpt lat="48.027847018092871" lon="16.780482977628708">
        <ele>155.870000000000005</ele>
        <time>2015-04-07T08:32:36Z</time>
      </trkpt>
      <trkpt lat="48.02780200727284" lon="16.780255995690823">
        <ele>156.830000000000013</ele>
        <time>2015-04-07T08:33:06Z</time>
      </trkpt>
      <trkpt lat="48.027785997837782" lon="16.780255995690823">
        <ele>156.349999999999994</ele>
        <time>2015-04-07T08:33:07Z</time>
      </trkpt>
      <trkpt lat="48.027526997029781" lon="16.780117023736238">
        <ele>157.789999999999992</ele>
        <time>2015-04-07T08:33:18Z</time>
      </trkpt>
      <trkpt lat="48.027034979313612" lon="16.779902027919888">
        <ele>158.27000000000001</ele>
        <time>2015-04-07T08:33:35Z</time>
      </trkpt>
      <trkpt lat="48.02647003903985" lon="16.779671022668481">
        <ele>157.789999999999992</ele>
        <time>2015-04-07T08:33:53Z</time>
      </trkpt>
      <trkpt lat="48.026005011051893" lon="16.779428031295538">
        <ele>157.789999999999992</ele>
        <time>2015-04-07T08:34:08Z</time>
      </trkpt>
      <trkpt lat="48.025837037712336" lon="16.779172969982028">
        <ele>157.310000000000002</ele>
        <time>2015-04-07T08:34:18Z</time>
      </trkpt>
      <trkpt lat="48.0255470238626" lon="16.778997033834457">
        <ele>159.240000000000009</ele>
        <time>2015-04-07T08:56:12Z</time>
      </trkpt>
      <trkpt lat="48.025146033614874" lon="16.778753036633134">
        <ele>160.199999999999989</ele>
        <time>2015-04-07T08:56:26Z</time>
      </trkpt>
      <trkpt lat="48.02507403306663" lon="16.778734009712934">
        <ele>158.75</ele>
        <time>2015-04-07T08:56:29Z</time>
      </trkpt>
      <trkpt lat="48.024845039471984" lon="16.778686987236142">
        <ele>157.310000000000002</ele>
        <time>2015-04-07T08:56:40Z</time>
      </trkpt>
      <trkpt lat="48.02468896843493" lon="16.779140029102564">
        <ele>157.789999999999992</ele>
        <time>2015-04-07T08:56:50Z</time>
      </trkpt>
      <trkpt lat="48.024390991777182" lon="16.780126998201013">
        <ele>156.349999999999994</ele>
        <time>2015-04-07T08:57:04Z</time>
      </trkpt>
      <trkpt lat="48.024220000952482" lon="16.780566964298487">
        <ele>156.349999999999994</ele>
        <time>2015-04-07T08:57:11Z</time>
      </trkpt>
      <trkpt lat="48.023856980726123" lon="16.781139029189944">
        <ele>155.870000000000005</ele>
        <time>2015-04-07T08:57:21Z</time>
      </trkpt>
      <trkpt lat="48.023810964077711" lon="16.781184962019324">
        <ele>155.870000000000005</ele>
        <time>2015-04-07T08:57:22Z</time>
      </trkpt>
      <trkpt lat="48.023762013763189" lon="16.78121798671782">
        <ele>156.349999999999994</ele>
        <time>2015-04-07T08:57:23Z</time>
      </trkpt>
      <trkpt lat="48.023654976859689" lon="16.781265009194613">
        <ele>156.349999999999994</ele>
        <time>2015-04-07T08:57:25Z</time>
      </trkpt>
      <trkpt lat="48.02354802377522" lon="16.781294010579586">
        <ele>155.870000000000005</ele>
        <time>2015-04-07T08:57:27Z</time>
      </trkpt>
      <trkpt lat="48.023383989930153" lon="16.781289987266064">
        <ele>156.349999999999994</ele>
        <time>2015-04-07T08:57:30Z</time>
      </trkpt>
      <trkpt lat="48.023331016302109" lon="16.781265009194613">
        <ele>156.349999999999994</ele>
        <time>2015-04-07T08:57:31Z</time>
      </trkpt>
      <trkpt lat="48.022499028593302" lon="16.780775003135204">
        <ele>156.349999999999994</ele>
        <time>2015-04-07T08:57:47Z</time>
      </trkpt>
      <trkpt lat="48.022083034738898" lon="16.780519019812346">
        <ele>156.830000000000013</ele>
        <time>2015-04-07T08:57:56Z</time>
      </trkpt>
      <trkpt lat="48.022049004212022" lon="16.78048700094223">
        <ele>156.830000000000013</ele>
        <time>2015-04-07T08:57:57Z</time>
      </trkpt>
      <trkpt lat="48.022011034190655" lon="16.78046403452754">
        <ele>156.830000000000013</ele>
        <time>2015-04-07T08:57:58Z</time>
      </trkpt>
      <trkpt lat="48.021972980350256" lon="16.78044299595058">
        <ele>156.830000000000013</ele>
        <time>2015-04-07T08:57:59Z</time>
      </trkpt>
      <trkpt lat="48.021938027814031" lon="16.780408965423703">
        <ele>156.349999999999994</ele>
        <time>2015-04-07T08:58:00Z</time>
      </trkpt>
      <trkpt lat="48.021911960095167" lon="16.780363032594323">
        <ele>156.830000000000013</ele>
        <time>2015-04-07T08:58:01Z</time>
      </trkpt>
      <trkpt lat="48.021884970366955" lon="16.780317015945911">
        <ele>157.789999999999992</ele>
        <time>2015-04-07T08:58:02Z</time>
      </trkpt>
      <trkpt lat="48.02167902700603" lon="16.779807982966304">
        <ele>156.830000000000013</ele>
        <time>2015-04-07T08:58:12Z</time>
      </trkpt>
      <trkpt lat="48.021670980378985" lon="16.779745034873486">
        <ele>156.830000000000013</ele>
        <time>2015-04-07T08:58:13Z</time>
      </trkpt>
      <trkpt lat="48.021667040884495" lon="16.779679991304874">
        <ele>156.349999999999994</ele>
        <time>2015-04-07T08:58:14Z</time>
      </trkpt>
      <trkpt lat="48.021664023399353" lon="16.779612014070153">
        <ele>156.349999999999994</ele>
        <time>2015-04-07T08:58:15Z</time>
      </trkpt>
      <trkpt lat="48.021667040884495" lon="16.77954101935029">
        <ele>156.830000000000013</ele>
        <time>2015-04-07T08:58:16Z</time>
      </trkpt>
      <trkpt lat="48.021670980378985" lon="16.779469018802047">
        <ele>157.310000000000002</ele>
        <time>2015-04-07T08:58:17Z</time>
      </trkpt>
      <trkpt lat="48.021682966500521" lon="16.779398024082184">
        <ele>156.830000000000013</ele>
        <time>2015-04-07T08:58:18Z</time>
      </trkpt>
      <trkpt lat="48.021694030612707" lon="16.779332980513573">
        <ele>156.830000000000013</ele>
        <time>2015-04-07T08:58:19Z</time>
      </trkpt>
      <trkpt lat="48.021709034219384" lon="16.779273971915245">
        <ele>156.830000000000013</ele>
        <time>2015-04-07T08:58:20Z</time>
      </trkpt>
      <trkpt lat="48.021728983148932" lon="16.779222004115582">
        <ele>157.310000000000002</ele>
        <time>2015-04-07T08:58:21Z</time>
      </trkpt>
      <trkpt lat="48.021877007558942" lon="16.778771979734302">
        <ele>157.310000000000002</ele>
        <time>2015-04-07T08:58:32Z</time>
      </trkpt>
      <trkpt lat="48.021998964250088" lon="16.778327990323305">
        <ele>156.830000000000013</ele>
        <time>2015-04-07T08:58:42Z</time>
      </trkpt>
      <trkpt lat="48.021992007270455" lon="16.777720972895622">
        <ele>157.310000000000002</ele>
        <time>2015-04-07T08:58:55Z</time>
      </trkpt>
      <trkpt lat="48.022029977291822" lon="16.777476975694299">
        <ele>157.789999999999992</ele>
        <time>2015-04-07T08:59:05Z</time>
      </trkpt>
      <trkpt lat="48.022029977291822" lon="16.777476975694299">
        <ele>161.159999999999997</ele>
        <time>2015-04-07T08:59:26Z</time>
      </trkpt>
      <trkpt lat="48.022029977291822" lon="16.777476975694299">
        <ele>157.789999999999992</ele>
        <time>2015-04-07T08:59:33Z</time>
      </trkpt>
      <trkpt lat="48.022029977291822" lon="16.777476975694299">
        <ele>157.789999999999992</ele>
        <time>2015-04-07T08:59:41Z</time>
      </trkpt>
      <trkpt lat="48.02200298756361" lon="16.777382008731365">
        <ele>157.789999999999992</ele>
        <time>2015-04-07T08:59:44Z</time>
      </trkpt>
      <trkpt lat="48.021992007270455" lon="16.776717994362116">
        <ele>157.789999999999992</ele>
        <time>2015-04-07T08:59:56Z</time>
      </trkpt>
      <trkpt lat="48.021983960643411" lon="16.776394033804536">
        <ele>158.27000000000001</ele>
        <time>2015-04-07T09:00:01Z</time>
      </trkpt>
      <trkpt lat="48.022017991170287" lon="16.775567997246981">
        <ele>160.199999999999989</ele>
        <time>2015-04-07T09:00:15Z</time>
      </trkpt>
      <trkpt lat="48.022029977291822" lon="16.775324000045657">
        <ele>159.240000000000009</ele>
        <time>2015-04-07T09:00:19Z</time>
      </trkpt>
      <trkpt lat="48.022026037797332" lon="16.775262979790568">
        <ele>158.75</ele>
        <time>2015-04-07T09:00:20Z</time>
      </trkpt>
      <trkpt lat="48.022017991170287" lon="16.775198020040989">
        <ele>158.75</ele>
        <time>2015-04-07T09:00:21Z</time>
      </trkpt>
      <trkpt lat="48.022017991170287" lon="16.775132976472378">
        <ele>158.75</ele>
        <time>2015-04-07T09:00:22Z</time>
      </trkpt>
      <trkpt lat="48.022026037797332" lon="16.775072040036321">
        <ele>159.240000000000009</ele>
        <time>2015-04-07T09:00:23Z</time>
      </trkpt>
      <trkpt lat="48.022038023918867" lon="16.775013031437993">
        <ele>159.240000000000009</ele>
        <time>2015-04-07T09:00:24Z</time>
      </trkpt>
      <trkpt lat="48.022044980898499" lon="16.774952011182904">
        <ele>159.240000000000009</ele>
        <time>2015-04-07T09:00:25Z</time>
      </trkpt>
      <trkpt lat="48.022029977291822" lon="16.7744480073452">
        <ele>160.680000000000007</ele>
        <time>2015-04-07T09:00:33Z</time>
      </trkpt>
      <trkpt lat="48.022029977291822" lon="16.77438204176724">
        <ele>160.199999999999989</ele>
        <time>2015-04-07T09:00:34Z</time>
      </trkpt>
      <trkpt lat="48.022026037797332" lon="16.774316998198628">
        <ele>160.199999999999989</ele>
        <time>2015-04-07T09:00:35Z</time>
      </trkpt>
      <trkpt lat="48.021992007270455" lon="16.773312008008361">
        <ele>159.719999999999999</ele>
        <time>2015-04-07T09:00:50Z</time>
      </trkpt>
      <trkpt lat="48.021975997835398" lon="16.773102041333914">
        <ele>159.240000000000009</ele>
        <time>2015-04-07T09:00:53Z</time>
      </trkpt>
      <trkpt lat="48.02185102365911" lon="16.772170979529619">
        <ele>158.27000000000001</ele>
        <time>2015-04-07T09:01:08Z</time>
      </trkpt>
      <trkpt lat="48.021773993968964" lon="16.771598998457193">
        <ele>157.310000000000002</ele>
        <time>2015-04-07T09:01:19Z</time>
      </trkpt>
      <trkpt lat="48.021754967048764" lon="16.771172024309635">
        <ele>157.789999999999992</ele>
        <time>2015-04-07T09:01:27Z</time>
      </trkpt>
      <trkpt lat="48.021748010069132" lon="16.771114021539688">
        <ele>157.789999999999992</ele>
        <time>2015-04-07T09:01:28Z</time>
      </trkpt>
      <trkpt lat="48.021664023399353" lon="16.770026972517371">
        <ele>158.27000000000001</ele>
        <time>2015-04-07T09:01:46Z</time>
      </trkpt>
      <trkpt lat="48.021564027294517" lon="16.768955010920763">
        <ele>158.27000000000001</ele>
        <time>2015-04-07T09:02:05Z</time>
      </trkpt>
      <trkpt lat="48.021556986495852" lon="16.768642030656338">
        <ele>158.75</ele>
        <time>2015-04-07T09:02:10Z</time>
      </trkpt>
      <trkpt lat="48.02154902368784" lon="16.768516972661018">
        <ele>159.240000000000009</ele>
        <time>2015-04-07T09:02:12Z</time>
      </trkpt>
      <trkpt lat="48.021541982889175" lon="16.76845695823431">
        <ele>159.240000000000009</ele>
        <time>2015-04-07T09:02:13Z</time>
      </trkpt>
      <trkpt lat="48.021534020081162" lon="16.768401972949505">
        <ele>158.75</ele>
        <time>2015-04-07T09:02:14Z</time>
      </trkpt>
      <trkpt lat="48.021525973454118" lon="16.768344976007938">
        <ele>158.27000000000001</ele>
        <time>2015-04-07T09:02:15Z</time>
      </trkpt>
      <trkpt lat="48.021514993160963" lon="16.768289990723133">
        <ele>158.27000000000001</ele>
        <time>2015-04-07T09:02:16Z</time>
      </trkpt>
      <trkpt lat="48.021468976512551" lon="16.767908027395606">
        <ele>158.27000000000001</ele>
        <time>2015-04-07T09:02:22Z</time>
      </trkpt>
      <trkpt lat="48.021461013704538" lon="16.767849018797278">
        <ele>157.310000000000002</ele>
        <time>2015-04-07T09:02:23Z</time>
      </trkpt>
      <trkpt lat="48.021457996219397" lon="16.767790010198951">
        <ele>157.789999999999992</ele>
        <time>2015-04-07T09:02:24Z</time>
      </trkpt>
      <trkpt lat="48.021435029804707" lon="16.767546012997627">
        <ele>157.789999999999992</ele>
        <time>2015-04-07T09:02:28Z</time>
      </trkpt>
      <trkpt lat="48.021342996507883" lon="16.766699021682143">
        <ele>158.75</ele>
        <time>2015-04-07T09:02:43Z</time>
      </trkpt>
      <trkpt lat="48.021338973194361" lon="16.766635989770293">
        <ele>158.27000000000001</ele>
        <time>2015-04-07T09:02:44Z</time>
      </trkpt>
      <trkpt lat="48.021332016214728" lon="16.766020003706217">
        <ele>159.240000000000009</ele>
        <time>2015-04-07T09:02:56Z</time>
      </trkpt>
      <trkpt lat="48.021404016762972" lon="16.765887988731265">
        <ele>158.75</ele>
        <time>2015-04-07T09:02:59Z</time>
      </trkpt>
      <trkpt lat="48.021416002884507" lon="16.765825040638447">
        <ele>159.240000000000009</ele>
        <time>2015-04-07T09:03:00Z</time>
      </trkpt>
      <trkpt lat="48.021416002884507" lon="16.765764020383358">
        <ele>159.240000000000009</ele>
        <time>2015-04-07T09:03:01Z</time>
      </trkpt>
      <trkpt lat="48.021327992901206" lon="16.765542989596725">
        <ele>158.75</ele>
        <time>2015-04-07T09:03:05Z</time>
      </trkpt>
      <trkpt lat="48.02129396237433" lon="16.765480041503906">
        <ele>158.27000000000001</ele>
        <time>2015-04-07T09:03:06Z</time>
      </trkpt>
      <trkpt lat="48.021254986524582" lon="16.76536001265049">
        <ele>158.75</ele>
        <time>2015-04-07T09:03:08Z</time>
      </trkpt>
      <trkpt lat="48.021239982917905" lon="16.765301004052162">
        <ele>158.27000000000001</ele>
        <time>2015-04-07T09:03:09Z</time>
      </trkpt>
      <trkpt lat="48.021145015954971" lon="16.764331972226501">
        <ele>159.240000000000009</ele>
        <time>2015-04-07T09:03:24Z</time>
      </trkpt>
      <trkpt lat="48.021140992641449" lon="16.764267012476921">
        <ele>159.719999999999999</ele>
        <time>2015-04-07T09:03:25Z</time>
      </trkpt>
      <trkpt lat="48.021114002913237" lon="16.763968029990792">
        <ele>161.159999999999997</ele>
        <time>2015-04-07T09:03:30Z</time>
      </trkpt>
      <trkpt lat="48.021110985428095" lon="16.763853030279279">
        <ele>159.719999999999999</ele>
        <time>2015-04-07T09:03:32Z</time>
      </trkpt>
      <trkpt lat="48.021110985428095" lon="16.763429995626211">
        <ele>161.159999999999997</ele>
        <time>2015-04-07T09:03:39Z</time>
      </trkpt>
      <trkpt lat="48.021125989034772" lon="16.762364991009235">
        <ele>159.240000000000009</ele>
        <time>2015-04-07T09:03:56Z</time>
      </trkpt>
      <trkpt lat="48.021281976252794" lon="16.761483969166875">
        <ele>158.27000000000001</ele>
        <time>2015-04-07T09:04:11Z</time>
      </trkpt>
      <trkpt lat="48.021365962922573" lon="16.76085096783936">
        <ele>159.240000000000009</ele>
        <time>2015-04-07T09:04:23Z</time>
      </trkpt>
      <trkpt lat="48.02109899930656" lon="16.760547962039709">
        <ele>159.719999999999999</ele>
        <time>2015-04-07T09:04:32Z</time>
      </trkpt>
      <trkpt lat="48.020781995728612" lon="16.760267000645399">
        <ele>158.75</ele>
        <time>2015-04-07T09:04:45Z</time>
      </trkpt>
      <trkpt lat="48.020771015435457" lon="16.760259959846735">
        <ele>160.199999999999989</ele>
        <time>2015-04-07T09:04:46Z</time>
      </trkpt>
      <trkpt lat="48.020760035142303" lon="16.760259959846735">
        <ele>159.719999999999999</ele>
        <time>2015-04-07T09:05:00Z</time>
      </trkpt>
      <trkpt lat="48.020760035142303" lon="16.760259959846735">
        <ele>160.199999999999989</ele>
        <time>2015-04-07T09:05:25Z</time>
      </trkpt>
      <trkpt lat="48.020729022100568" lon="16.760212015360594">
        <ele>159.719999999999999</ele>
        <time>2015-04-07T09:05:52Z</time>
      </trkpt>
      <trkpt lat="48.020714018493891" lon="16.760188965126872">
        <ele>159.719999999999999</ele>
        <time>2015-04-07T09:05:53Z</time>
      </trkpt>
      <trkpt lat="48.020694991573691" lon="16.760168010368943">
        <ele>159.719999999999999</ele>
        <time>2015-04-07T09:05:54Z</time>
      </trkpt>
      <trkpt lat="48.020675964653492" lon="16.760143032297492">
        <ele>159.240000000000009</ele>
        <time>2015-04-07T09:05:55Z</time>
      </trkpt>
      <trkpt lat="48.020652998238802" lon="16.760113025084138">
        <ele>159.719999999999999</ele>
        <time>2015-04-07T09:05:56Z</time>
      </trkpt>
      <trkpt lat="48.02062600851059" lon="16.7600769829005">
        <ele>159.719999999999999</ele>
        <time>2015-04-07T09:05:57Z</time>
      </trkpt>
      <trkpt lat="48.020424004644156" lon="16.759690996259451">
        <ele>159.719999999999999</ele>
        <time>2015-04-07T09:06:06Z</time>
      </trkpt>
      <trkpt lat="48.020267011597753" lon="16.758804023265839">
        <ele>159.719999999999999</ele>
        <time>2015-04-07T09:06:18Z</time>
      </trkpt>
      <trkpt lat="48.020190987735987" lon="16.757294023409486">
        <ele>158.75</ele>
        <time>2015-04-07T09:06:37Z</time>
      </trkpt>
      <trkpt lat="48.020065007731318" lon="16.755658965557814">
        <ele>158.27000000000001</ele>
        <time>2015-04-07T09:06:58Z</time>
      </trkpt>
      <trkpt lat="48.020030977204442" lon="16.755357971414924">
        <ele>159.240000000000009</ele>
        <time>2015-04-07T09:07:02Z</time>
      </trkpt>
      <trkpt lat="48.019900973886251" lon="16.754217026755214">
        <ele>158.75</ele>
        <time>2015-04-07T09:07:17Z</time>
      </trkpt>
      <trkpt lat="48.019733000546694" lon="16.752722030505538">
        <ele>158.75</ele>
        <time>2015-04-07T09:07:38Z</time>
      </trkpt>
      <trkpt lat="48.019634010270238" lon="16.751674963161349">
        <ele>159.240000000000009</ele>
        <time>2015-04-07T09:07:53Z</time>
      </trkpt>
      <trkpt lat="48.019587993621826" lon="16.751185962930322">
        <ele>159.719999999999999</ele>
        <time>2015-04-07T09:08:00Z</time>
      </trkpt>
      <trkpt lat="48.019478023052216" lon="16.749967988580465">
        <ele>159.240000000000009</ele>
        <time>2015-04-07T09:08:18Z</time>
      </trkpt>
      <trkpt lat="48.01940199919045" lon="16.749062994495034">
        <ele>159.719999999999999</ele>
        <time>2015-04-07T09:08:31Z</time>
      </trkpt>
      <trkpt lat="48.019394036382437" lon="16.748993005603552">
        <ele>159.719999999999999</ele>
        <time>2015-04-07T09:08:32Z</time>
      </trkpt>
      <trkpt lat="48.019271995872259" lon="16.747533967718482">
        <ele>158.75</ele>
        <time>2015-04-07T09:08:52Z</time>
      </trkpt>
      <trkpt lat="48.019156996160746" lon="16.746398974210024">
        <ele>159.719999999999999</ele>
        <time>2015-04-07T09:09:09Z</time>
      </trkpt>
      <trkpt lat="48.018932025879622" lon="16.745292982086539">
        <ele>159.719999999999999</ele>
        <time>2015-04-07T09:09:25Z</time>
      </trkpt>
      <trkpt lat="48.018459035083652" lon="16.743906028568745">
        <ele>159.240000000000009</ele>
        <time>2015-04-07T09:09:45Z</time>
      </trkpt>
      <trkpt lat="48.017952013760805" lon="16.742552015930414">
        <ele>159.240000000000009</ele>
        <time>2015-04-07T09:10:05Z</time>
      </trkpt>
      <trkpt lat="48.017425965517759" lon="16.741127008572221">
        <ele>158.27000000000001</ele>
        <time>2015-04-07T09:10:26Z</time>
      </trkpt>
      <trkpt lat="48.016925984993577" lon="16.739812977612019">
        <ele>160.199999999999989</ele>
        <time>2015-04-07T09:10:47Z</time>
      </trkpt>
      <trkpt lat="48.016478978097439" lon="16.738616963848472">
        <ele>158.75</ele>
        <time>2015-04-07T09:11:07Z</time>
      </trkpt>
      <trkpt lat="48.016101960092783" lon="16.737580960616469">
        <ele>159.719999999999999</ele>
        <time>2015-04-07T09:11:25Z</time>
      </trkpt>
      <trkpt lat="48.015694012865424" lon="16.736522996798158">
        <ele>159.240000000000009</ele>
        <time>2015-04-07T09:11:45Z</time>
      </trkpt>
      <trkpt lat="48.015247005969286" lon="16.735552037134767">
        <ele>158.27000000000001</ele>
        <time>2015-04-07T09:12:04Z</time>
      </trkpt>
      <trkpt lat="48.014724981039762" lon="16.73463799059391">
        <ele>158.27000000000001</ele>
        <time>2015-04-07T09:12:22Z</time>
      </trkpt>
      <trkpt lat="48.014172026887536" lon="16.733608022332191">
        <ele>157.310000000000002</ele>
        <time>2015-04-07T09:12:43Z</time>
      </trkpt>
      <trkpt lat="48.014136990532279" lon="16.73356200568378">
        <ele>157.310000000000002</ele>
        <time>2015-04-07T09:12:44Z</time>
      </trkpt>
      <trkpt lat="48.013659976422787" lon="16.732815010473132">
        <ele>154.909999999999997</ele>
        <time>2015-04-07T09:13:01Z</time>
      </trkpt>
      <trkpt lat="48.013541959226131" lon="16.73261996358633">
        <ele>158.27000000000001</ele>
        <time>2015-04-07T09:13:05Z</time>
      </trkpt>
      <trkpt lat="48.013210035860538" lon="16.732082013040781">
        <ele>161.639999999999986</ele>
        <time>2015-04-07T09:13:17Z</time>
      </trkpt>
      <trkpt lat="48.013183968141675" lon="16.732034990563989">
        <ele>159.719999999999999</ele>
        <time>2015-04-07T09:13:18Z</time>
      </trkpt>
      <trkpt lat="48.013053964823484" lon="16.731840027496219">
        <ele>158.27000000000001</ele>
        <time>2015-04-07T09:13:22Z</time>
      </trkpt>
      <trkpt lat="48.012890014797449" lon="16.731658978387713">
        <ele>157.789999999999992</ele>
        <time>2015-04-07T09:13:26Z</time>
      </trkpt>
      <trkpt lat="48.012843998149037" lon="16.731623020023108">
        <ele>158.75</ele>
        <time>2015-04-07T09:13:27Z</time>
      </trkpt>
      <trkpt lat="48.012405037879944" lon="16.731296963989735">
        <ele>158.27000000000001</ele>
        <time>2015-04-07T09:13:37Z</time>
      </trkpt>
      <trkpt lat="48.011982003226876" lon="16.730974009260535">
        <ele>158.27000000000001</ele>
        <time>2015-04-07T09:13:48Z</time>
      </trkpt>
      <trkpt lat="48.011764995753765" lon="16.730638984590769">
        <ele>158.27000000000001</ele>
        <time>2015-04-07T09:13:55Z</time>
      </trkpt>
      <trkpt lat="48.011687966063619" lon="16.730466987937689">
        <ele>157.789999999999992</ele>
        <time>2015-04-07T09:13:58Z</time>
      </trkpt>
      <trkpt lat="48.011509012430906" lon="16.729822000488639">
        <ele>158.27000000000001</ele>
        <time>2015-04-07T09:14:08Z</time>
      </trkpt>
      <trkpt lat="48.011245988309383" lon="16.728597991168499">
        <ele>159.240000000000009</ele>
        <time>2015-04-07T09:14:25Z</time>
      </trkpt>
      <trkpt lat="48.011218998581171" lon="16.728312000632286">
        <ele>157.789999999999992</ele>
        <time>2015-04-07T09:14:29Z</time>
      </trkpt>
      <trkpt lat="48.011120008304715" lon="16.72694600187242">
        <ele>157.789999999999992</ele>
        <time>2015-04-07T09:14:48Z</time>
      </trkpt>
      <trkpt lat="48.01111196167767" lon="16.726803006604314">
        <ele>157.789999999999992</ele>
        <time>2015-04-07T09:14:50Z</time>
      </trkpt>
      <trkpt lat="48.011115984991193" lon="16.726033966988325">
        <ele>157.310000000000002</ele>
        <time>2015-04-07T09:15:01Z</time>
      </trkpt>
      <trkpt lat="48.01113098859787" lon="16.72591402195394">
        <ele>156.830000000000013</ele>
        <time>2015-04-07T09:15:03Z</time>
      </trkpt>
      <trkpt lat="48.011139035224915" lon="16.725857025012374">
        <ele>158.27000000000001</ele>
        <time>2015-04-07T09:15:04Z</time>
      </trkpt>
      <trkpt lat="48.011214975267649" lon="16.724794032052159">
        <ele>157.310000000000002</ele>
        <time>2015-04-07T09:15:22Z</time>
      </trkpt>
      <trkpt lat="48.01123802550137" lon="16.72410998493433">
        <ele>158.27000000000001</ele>
        <time>2015-04-07T09:15:33Z</time>
      </trkpt>
      <trkpt lat="48.011250011622906" lon="16.724045025184751">
        <ele>158.27000000000001</ele>
        <time>2015-04-07T09:15:34Z</time>
      </trkpt>
      <trkpt lat="48.011256968602538" lon="16.723984004929662">
        <ele>158.75</ele>
        <time>2015-04-07T09:15:35Z</time>
      </trkpt>
      <trkpt lat="48.011275995522738" lon="16.723863976076245">
        <ele>158.75</ele>
        <time>2015-04-07T09:15:37Z</time>
      </trkpt>
      <trkpt lat="48.011573972180486" lon="16.723002986982465">
        <ele>158.75</ele>
        <time>2015-04-07T09:15:53Z</time>
      </trkpt>
      <trkpt lat="48.012039000168443" lon="16.722163958474994">
        <ele>159.240000000000009</ele>
        <time>2015-04-07T09:16:09Z</time>
      </trkpt>
      <trkpt lat="48.012318033725023" lon="16.721991961821914">
        <ele>159.240000000000009</ele>
        <time>2015-04-07T09:16:21Z</time>
      </trkpt>
      <trkpt lat="48.012320967391133" lon="16.721972012892365">
        <ele>158.75</ele>
        <time>2015-04-07T09:16:25Z</time>
      </trkpt>
      <trkpt lat="48.012302024289966" lon="16.721978969871998">
        <ele>158.75</ele>
        <time>2015-04-07T09:16:26Z</time>
      </trkpt>
      <trkpt lat="48.012103959918022" lon="16.722013000398874">
        <ele>159.240000000000009</ele>
        <time>2015-04-07T09:16:33Z</time>
      </trkpt>
      <trkpt lat="48.01207697018981" lon="16.721993973478675">
        <ele>159.240000000000009</ele>
        <time>2015-04-07T09:16:34Z</time>
      </trkpt>
      <trkpt lat="48.01205400377512" lon="16.721972012892365">
        <ele>158.27000000000001</ele>
        <time>2015-04-07T09:16:35Z</time>
      </trkpt>
      <trkpt lat="48.01203497685492" lon="16.721943011507392">
        <ele>157.789999999999992</ele>
        <time>2015-04-07T09:16:36Z</time>
      </trkpt>
      <trkpt lat="48.012019973248243" lon="16.721905041486025">
        <ele>157.789999999999992</ele>
        <time>2015-04-07T09:16:37Z</time>
      </trkpt>
      <trkpt lat="48.011768013238907" lon="16.721323002129793">
        <ele>156.349999999999994</ele>
        <time>2015-04-07T09:16:49Z</time>
      </trkpt>
      <trkpt lat="48.011744963005185" lon="16.721268016844988">
        <ele>157.310000000000002</ele>
        <time>2015-04-07T09:16:50Z</time>
      </trkpt>
      <trkpt lat="48.011700036004186" lon="16.721160979941487">
        <ele>156.830000000000013</ele>
        <time>2015-04-07T09:16:52Z</time>
      </trkpt>
      <trkpt lat="48.011401975527406" lon="16.720384983345866">
        <ele>157.789999999999992</ele>
        <time>2015-04-07T09:17:07Z</time>
      </trkpt>
      <trkpt lat="48.01123802550137" lon="16.720131011679769">
        <ele>158.27000000000001</ele>
        <time>2015-04-07T09:17:13Z</time>
      </trkpt>
      <trkpt lat="48.010952034965158" lon="16.719922972843051">
        <ele>158.27000000000001</ele>
        <time>2015-04-07T09:17:20Z</time>
      </trkpt>
      <trkpt lat="48.010906018316746" lon="16.719907969236374">
        <ele>158.27000000000001</ele>
        <time>2015-04-07T09:17:21Z</time>
      </trkpt>
      <trkpt lat="48.010150976479053" lon="16.719710994511843">
        <ele>158.27000000000001</ele>
        <time>2015-04-07T09:17:36Z</time>
      </trkpt>
      <trkpt lat="48.009998006746173" lon="16.71968299895525">
        <ele>158.27000000000001</ele>
        <time>2015-04-07T09:17:39Z</time>
      </trkpt>
      <trkpt lat="48.009948972612619" lon="16.719676963984966">
        <ele>158.75</ele>
        <time>2015-04-07T09:17:40Z</time>
      </trkpt>
      <trkpt lat="48.00990697927773" lon="16.719666989520192">
        <ele>158.75</ele>
        <time>2015-04-07T09:17:41Z</time>
      </trkpt>
      <trkpt lat="48.009173981845379" lon="16.71957403421402">
        <ele>158.27000000000001</ele>
        <time>2015-04-07T09:17:58Z</time>
      </trkpt>
      <trkpt lat="48.008461017161608" lon="16.719788024201989">
        <ele>158.75</ele>
        <time>2015-04-07T09:18:14Z</time>
      </trkpt>
      <trkpt lat="48.007587036117911" lon="16.720052976161242">
        <ele>159.719999999999999</ele>
        <time>2015-04-07T09:18:32Z</time>
      </trkpt>
      <trkpt lat="48.006656980141997" lon="16.720259003341198">
        <ele>159.240000000000009</ele>
        <time>2015-04-07T09:18:50Z</time>
      </trkpt>
      <trkpt lat="48.005782999098301" lon="16.720210975036025">
        <ele>158.27000000000001</ele>
        <time>2015-04-07T09:19:07Z</time>
      </trkpt>
      <trkpt lat="48.005362981930375" lon="16.72006999142468">
        <ele>158.75</ele>
        <time>2015-04-07T09:19:15Z</time>
      </trkpt>
      <trkpt lat="48.004409959539771" lon="16.71949197538197">
        <ele>158.75</ele>
        <time>2015-04-07T09:19:35Z</time>
      </trkpt>
      <trkpt lat="48.004318010061979" lon="16.719427015632391">
        <ele>158.75</ele>
        <time>2015-04-07T09:19:37Z</time>
      </trkpt>
      <trkpt lat="48.003468001261353" lon="16.718807006254792">
        <ele>157.789999999999992</ele>
        <time>2015-04-07T09:19:55Z</time>
      </trkpt>
      <trkpt lat="48.002532999962568" lon="16.718152966350317">
        <ele>157.789999999999992</ele>
        <time>2015-04-07T09:20:15Z</time>
      </trkpt>
      <trkpt lat="48.001708975061774" lon="16.717566987499595">
        <ele>158.75</ele>
        <time>2015-04-07T09:20:33Z</time>
      </trkpt>
      <trkpt lat="48.000851003453135" lon="16.716953013092279">
        <ele>158.75</ele>
        <time>2015-04-07T09:20:51Z</time>
      </trkpt>
      <trkpt lat="48.000179026275873" lon="16.716474993154407">
        <ele>159.719999999999999</ele>
        <time>2015-04-07T09:21:05Z</time>
      </trkpt>
      <trkpt lat="47.999423984438181" lon="16.715938970446587">
        <ele>159.719999999999999</ele>
        <time>2015-04-07T09:21:22Z</time>
      </trkpt>
      <trkpt lat="47.998557966202497" lon="16.715335976332426">
        <ele>158.75</ele>
        <time>2015-04-07T09:21:40Z</time>
      </trkpt>
      <trkpt lat="47.997646015137434" lon="16.714688977226615">
        <ele>161.159999999999997</ele>
        <time>2015-04-07T09:21:59Z</time>
      </trkpt>
      <trkpt lat="47.996811009943485" lon="16.714087994769216">
        <ele>161.639999999999986</ele>
        <time>2015-04-07T09:22:17Z</time>
      </trkpt>
      <trkpt lat="47.996727023273706" lon="16.714026974514127">
        <ele>161.159999999999997</ele>
        <time>2015-04-07T09:22:19Z</time>
      </trkpt>
      <trkpt lat="47.996685029938817" lon="16.714000990614295">
        <ele>162.120000000000005</ele>
        <time>2015-04-07T09:22:20Z</time>
      </trkpt>
      <trkpt lat="47.996112965047359" lon="16.713338987901807">
        <ele>162.599999999999994</ele>
        <time>2015-04-07T09:22:36Z</time>
      </trkpt>
      <trkpt lat="47.995560010895133" lon="16.712560979649425">
        <ele>164.039999999999992</ele>
        <time>2015-04-07T09:22:55Z</time>
      </trkpt>
      <trkpt lat="47.995528997853398" lon="16.712520997971296">
        <ele>164.039999999999992</ele>
        <time>2015-04-07T09:22:56Z</time>
      </trkpt>
      <trkpt lat="47.995208976790309" lon="16.712065022438765">
        <ele>165</ele>
        <time>2015-04-07T09:23:07Z</time>
      </trkpt>
      <trkpt lat="47.995181987062097" lon="16.712025040760636">
        <ele>164.52000000000001</ele>
        <time>2015-04-07T09:23:08Z</time>
      </trkpt>
      <trkpt lat="47.994667002931237" lon="16.711297994479537">
        <ele>165.960000000000008</ele>
        <time>2015-04-07T09:23:25Z</time>
      </trkpt>
      <trkpt lat="47.994095021858811" lon="16.710406998172402">
        <ele>167.889999999999986</ele>
        <time>2015-04-07T09:23:46Z</time>
      </trkpt>
      <trkpt lat="47.993679028004408" lon="16.709554977715015">
        <ele>170.289999999999992</ele>
        <time>2015-04-07T09:24:05Z</time>
      </trkpt>
      <trkpt lat="47.993342997506261" lon="16.708838995546103">
        <ele>172.689999999999998</ele>
        <time>2015-04-07T09:24:22Z</time>
      </trkpt>
      <trkpt lat="47.993057006970048" lon="16.708217980340123">
        <ele>173.659999999999997</ele>
        <time>2015-04-07T09:24:38Z</time>
      </trkpt>
      <trkpt lat="47.992717958986759" lon="16.707476014271379">
        <ele>175.099999999999994</ele>
        <time>2015-04-07T09:24:56Z</time>
      </trkpt>
      <trkpt lat="47.992470022290945" lon="16.706935968250036">
        <ele>176.539999999999992</ele>
        <time>2015-04-07T09:25:09Z</time>
      </trkpt>
      <trkpt lat="47.992148995399475" lon="16.706302966922522">
        <ele>179.900000000000006</ele>
        <time>2015-04-07T09:25:25Z</time>
      </trkpt>
      <trkpt lat="47.991870967671275" lon="16.705987975001335">
        <ele>180.379999999999995</ele>
        <time>2015-04-07T09:25:36Z</time>
      </trkpt>
      <trkpt lat="47.991370987147093" lon="16.70567499473691">
        <ele>181.349999999999994</ele>
        <time>2015-04-07T09:25:52Z</time>
      </trkpt>
      <trkpt lat="47.990887016057968" lon="16.70539696700871">
        <ele>182.789999999999992</ele>
        <time>2015-04-07T09:26:09Z</time>
      </trkpt>
      <trkpt lat="47.990402039140463" lon="16.705085998401046">
        <ele>184.710000000000008</ele>
        <time>2015-04-07T09:26:27Z</time>
      </trkpt>
      <trkpt lat="47.990043964236975" lon="16.704842001199722">
        <ele>186.150000000000006</ele>
        <time>2015-04-07T09:26:41Z</time>
      </trkpt>
      <trkpt lat="47.989635011181235" lon="16.704456014558673">
        <ele>189.52000000000001</ele>
        <time>2015-04-07T09:26:57Z</time>
      </trkpt>
      <trkpt lat="47.989376010373235" lon="16.704207994043827">
        <ele>191.439999999999998</ele>
        <time>2015-04-07T09:27:10Z</time>
      </trkpt>
      <trkpt lat="47.989154979586601" lon="16.703941030427814">
        <ele>193.360000000000014</ele>
        <time>2015-04-07T09:27:21Z</time>
      </trkpt>
      <trkpt lat="47.989117009565234" lon="16.703847991302609">
        <ele>194.319999999999993</ele>
        <time>2015-04-07T09:27:24Z</time>
      </trkpt>
      <trkpt lat="47.989070992916822" lon="16.703453036025167">
        <ele>194.319999999999993</ele>
        <time>2015-04-07T09:27:36Z</time>
      </trkpt>
      <trkpt lat="47.989123966544867" lon="16.702956994995475">
        <ele>194.319999999999993</ele>
        <time>2015-04-07T09:27:48Z</time>
      </trkpt>
      <trkpt lat="47.989151040092111" lon="16.702596992254257">
        <ele>193.840000000000003</ele>
        <time>2015-04-07T09:27:54Z</time>
      </trkpt>
      <trkpt lat="47.988978959619999" lon="16.701769027858973">
        <ele>194.800000000000011</ele>
        <time>2015-04-07T09:28:09Z</time>
      </trkpt>
      <trkpt lat="47.98876597546041" lon="16.701415982097387">
        <ele>196.72999999999999</ele>
        <time>2015-04-07T09:28:20Z</time>
      </trkpt>
      <trkpt lat="47.988490965217352" lon="16.701281033456326">
        <ele>200.090000000000003</ele>
        <time>2015-04-07T09:28:32Z</time>
      </trkpt>
      <trkpt lat="47.98827001824975" lon="16.70127097517252">
        <ele>201.530000000000001</ele>
        <time>2015-04-07T09:28:42Z</time>
      </trkpt>
      <trkpt lat="47.98794899135828" lon="16.701210038736463">
        <ele>203.460000000000008</ele>
        <time>2015-04-07T09:28:56Z</time>
      </trkpt>
      <trkpt lat="47.987845977768302" lon="16.70114298351109">
        <ele>205.379999999999995</ele>
        <time>2015-04-07T09:29:01Z</time>
      </trkpt>
      <trkpt lat="47.987522017210722" lon="16.700777029618621">
        <ele>207.300000000000011</ele>
        <time>2015-04-07T09:29:16Z</time>
      </trkpt>
      <trkpt lat="47.987221023067832" lon="16.700421972200274">
        <ele>208.740000000000009</ele>
        <time>2015-04-07T09:29:30Z</time>
      </trkpt>
      <trkpt lat="47.986880969256163" lon="16.700021987780929">
        <ele>210.669999999999987</ele>
        <time>2015-04-07T09:29:45Z</time>
      </trkpt>
      <trkpt lat="47.986537981778383" lon="16.699583027511835">
        <ele>212.590000000000003</ele>
        <time>2015-04-07T09:30:00Z</time>
      </trkpt>
      <trkpt lat="47.986247967928648" lon="16.699219001457095">
        <ele>214.509999999999991</ele>
        <time>2015-04-07T09:30:15Z</time>
      </trkpt>
      <trkpt lat="47.986000031232834" lon="16.69890996068716">
        <ele>216.430000000000007</ele>
        <time>2015-04-07T09:30:30Z</time>
      </trkpt>
      <trkpt lat="47.985675986856222" lon="16.698521040380001">
        <ele>220.280000000000001</ele>
        <time>2015-04-07T09:30:46Z</time>
      </trkpt>
      <trkpt lat="47.985331993550062" lon="16.69813496991992">
        <ele>222.680000000000007</ele>
        <time>2015-04-07T09:31:03Z</time>
      </trkpt>
      <trkpt lat="47.984996968880296" lon="16.698229014873505">
        <ele>224.610000000000014</ele>
        <time>2015-04-07T09:31:16Z</time>
      </trkpt>
      <trkpt lat="47.984905019402504" lon="16.698708962649107">
        <ele>226.050000000000011</ele>
        <time>2015-04-07T09:31:28Z</time>
      </trkpt>
      <trkpt lat="47.985104005783796" lon="16.699246997013688">
        <ele>228.449999999999989</ele>
        <time>2015-04-07T09:31:42Z</time>
      </trkpt>
      <trkpt lat="47.985183969140053" lon="16.699733985587955">
        <ele>230.370000000000005</ele>
        <time>2015-04-07T09:31:54Z</time>
      </trkpt>
      <trkpt lat="47.985077016055584" lon="16.700071021914482">
        <ele>232.780000000000001</ele>
        <time>2015-04-07T09:32:04Z</time>
      </trkpt>
      <trkpt lat="47.984752971678972" lon="16.700322981923819">
        <ele>234.699999999999989</ele>
        <time>2015-04-07T09:32:17Z</time>
      </trkpt>
      <trkpt lat="47.984469998627901" lon="16.700376961380243">
        <ele>237.580000000000013</ele>
        <time>2015-04-07T09:32:29Z</time>
      </trkpt>
      <trkpt lat="47.984134973958135" lon="16.700314013287425">
        <ele>240.949999999999989</ele>
        <time>2015-04-07T09:32:42Z</time>
      </trkpt>
      <trkpt lat="47.983971023932099" lon="16.700001033023">
        <ele>241.430000000000007</ele>
        <time>2015-04-07T09:32:53Z</time>
      </trkpt>
      <trkpt lat="47.983795003965497" lon="16.699566012248397">
        <ele>243.830000000000013</ele>
        <time>2015-04-07T09:33:09Z</time>
      </trkpt>
      <trkpt lat="47.983600962907076" lon="16.699453024193645">
        <ele>247.199999999999989</ele>
        <time>2015-04-07T09:33:18Z</time>
      </trkpt>
      <trkpt lat="47.983287982642651" lon="16.699667014181614">
        <ele>247.680000000000007</ele>
        <time>2015-04-07T09:33:33Z</time>
      </trkpt>
      <trkpt lat="47.98300601541996" lon="16.700029028579593">
        <ele>250.080000000000013</ele>
        <time>2015-04-07T09:33:47Z</time>
      </trkpt>
      <trkpt lat="47.982669984921813" lon="16.700421972200274">
        <ele>252</ele>
        <time>2015-04-07T09:34:03Z</time>
      </trkpt>
      <trkpt lat="47.982445014640689" lon="16.700686002150178">
        <ele>256.329999999999984</ele>
        <time>2015-04-07T09:34:14Z</time>
      </trkpt>
      <trkpt lat="47.982304031029344" lon="16.700850035995245">
        <ele>255.370000000000005</ele>
        <time>2015-04-07T09:34:21Z</time>
      </trkpt>
      <trkpt lat="47.981936987489462" lon="16.701070982962847">
        <ele>257.769999999999982</ele>
        <time>2015-04-07T09:34:36Z</time>
      </trkpt>
      <trkpt lat="47.981521999463439" lon="16.701154969632626">
        <ele>259.20999999999998</ele>
        <time>2015-04-07T09:34:53Z</time>
      </trkpt>
      <trkpt lat="47.981197033077478" lon="16.70135697349906">
        <ele>262.579999999999984</ele>
        <time>2015-04-07T09:35:07Z</time>
      </trkpt>
      <trkpt lat="47.980808028951287" lon="16.70193700119853">
        <ele>263.54000000000002</ele>
        <time>2015-04-07T09:35:26Z</time>
      </trkpt>
      <trkpt lat="47.980681965127587" lon="16.702132970094681">
        <ele>264.980000000000018</ele>
        <time>2015-04-07T09:35:32Z</time>
      </trkpt>
      <trkpt lat="47.98038499429822" lon="16.702622976154089">
        <ele>266.420000000000016</ele>
        <time>2015-04-07T09:35:47Z</time>
      </trkpt>
      <trkpt lat="47.980121970176697" lon="16.703150030225515">
        <ele>269.79000000000002</ele>
        <time>2015-04-07T09:36:02Z</time>
      </trkpt>
      <trkpt lat="47.980091040953994" lon="16.703796023502946">
        <ele>272.189999999999998</ele>
        <time>2015-04-07T09:36:17Z</time>
      </trkpt>
      <trkpt lat="47.980232024565339" lon="16.704337997362018">
        <ele>274.110000000000014</ele>
        <time>2015-04-07T09:36:32Z</time>
      </trkpt>
      <trkpt lat="47.98036202788353" lon="16.704852981492877">
        <ele>276.04000000000002</ele>
        <time>2015-04-07T09:36:47Z</time>
      </trkpt>
      <trkpt lat="47.980331014841795" lon="16.705222958698869">
        <ele>277.95999999999998</ele>
        <time>2015-04-07T09:36:58Z</time>
      </trkpt>
      <trkpt lat="47.980140997096896" lon="16.705635013058782">
        <ele>280.839999999999975</ele>
        <time>2015-04-07T09:37:11Z</time>
      </trkpt>
      <trkpt lat="47.979793986305594" lon="16.706186039373279">
        <ele>283.25</ele>
        <time>2015-04-07T09:37:27Z</time>
      </trkpt>
      <trkpt lat="47.979424009099603" lon="16.706802025437355">
        <ele>283.25</ele>
        <time>2015-04-07T09:37:43Z</time>
      </trkpt>
      <trkpt lat="47.979122009128332" lon="16.707317009568214">
        <ele>283.25</ele>
        <time>2015-04-07T09:37:57Z</time>
      </trkpt>
      <trkpt lat="47.978767035529017" lon="16.708006002008915">
        <ele>283.25</ele>
        <time>2015-04-07T09:38:11Z</time>
      </trkpt>
      <trkpt lat="47.978702997788787" lon="16.708126030862331">
        <ele>283.25</ele>
        <time>2015-04-07T09:38:13Z</time>
      </trkpt>
      <trkpt lat="47.978671984747052" lon="16.708177998661995">
        <ele>282.769999999999982</ele>
        <time>2015-04-07T09:38:14Z</time>
      </trkpt>
      <trkpt lat="47.978595960885286" lon="16.708323005586863">
        <ele>279.399999999999977</ele>
        <time>2015-04-07T09:38:17Z</time>
      </trkpt>
      <trkpt lat="47.978565031662583" lon="16.708373967558146">
        <ele>279.399999999999977</ele>
        <time>2015-04-07T09:38:18Z</time>
      </trkpt>
      <trkpt lat="47.978423964232206" lon="16.708658030256629">
        <ele>277.95999999999998</ele>
        <time>2015-04-07T09:38:23Z</time>
      </trkpt>
      <trkpt lat="47.978359004482627" lon="16.708786021918058">
        <ele>278.920000000000016</ele>
        <time>2015-04-07T09:38:25Z</time>
      </trkpt>
      <trkpt lat="47.978282980620861" lon="16.70891996473074">
        <ele>277.95999999999998</ele>
        <time>2015-04-07T09:38:27Z</time>
      </trkpt>
      <trkpt lat="47.977595999836922" lon="16.709825964644551">
        <ele>275.069999999999993</ele>
        <time>2015-04-07T09:38:40Z</time>
      </trkpt>
      <trkpt lat="47.976795025169849" lon="16.710543036460876">
        <ele>272.189999999999998</ele>
        <time>2015-04-07T09:38:52Z</time>
      </trkpt>
      <trkpt lat="47.975882990285754" lon="16.711349040269852">
        <ele>268.829999999999984</ele>
        <time>2015-04-07T09:39:06Z</time>
      </trkpt>
      <trkpt lat="47.974772974848747" lon="16.712317988276482">
        <ele>265.939999999999998</ele>
        <time>2015-04-07T09:39:24Z</time>
      </trkpt>
      <trkpt lat="47.974185990169644" lon="16.712858034297824">
        <ele>263.54000000000002</ele>
        <time>2015-04-07T09:39:33Z</time>
      </trkpt>
      <trkpt lat="47.97383101657033" lon="16.713279979303479">
        <ele>260.649999999999977</ele>
        <time>2015-04-07T09:39:38Z</time>
      </trkpt>
      <trkpt lat="47.973576039075851" lon="16.713685998693109">
        <ele>258.730000000000018</ele>
        <time>2015-04-07T09:39:42Z</time>
      </trkpt>
      <trkpt lat="47.973286025226116" lon="16.714264014735818">
        <ele>255.849999999999994</ele>
        <time>2015-04-07T09:39:47Z</time>
      </trkpt>
      <trkpt lat="47.973163984715939" lon="16.714501976966858">
        <ele>254.409999999999997</ele>
        <time>2015-04-07T09:39:49Z</time>
      </trkpt>
      <trkpt lat="47.97273600474" lon="16.715115029364824">
        <ele>251.52000000000001</ele>
        <time>2015-04-07T09:39:55Z</time>
      </trkpt>
      <trkpt lat="47.971827993169427" lon="16.716118007898331">
        <ele>248.639999999999986</ele>
        <time>2015-04-07T09:40:07Z</time>
      </trkpt>
      <trkpt lat="47.970795007422566" lon="16.717248978093266">
        <ele>246.719999999999999</ele>
        <time>2015-04-07T09:40:23Z</time>
      </trkpt>
      <trkpt lat="47.970038959756494" lon="16.718048024922609">
        <ele>243.349999999999994</ele>
        <time>2015-04-07T09:40:34Z</time>
      </trkpt>
      <trkpt lat="47.969879033043981" lon="16.718163024634123">
        <ele>242.389999999999986</ele>
        <time>2015-04-07T09:40:36Z</time>
      </trkpt>
      <trkpt lat="47.969387015327811" lon="16.718435017392039">
        <ele>240.469999999999999</ele>
        <time>2015-04-07T09:40:42Z</time>
      </trkpt>
      <trkpt lat="47.968905977904797" lon="16.71869502402842">
        <ele>238.539999999999992</ele>
        <time>2015-04-07T09:40:48Z</time>
      </trkpt>
      <trkpt lat="47.968272976577282" lon="16.719035999849439">
        <ele>235.180000000000007</ele>
        <time>2015-04-07T09:40:57Z</time>
      </trkpt>
      <trkpt lat="47.96820399351418" lon="16.719075981527567">
        <ele>235.180000000000007</ele>
        <time>2015-04-07T09:40:58Z</time>
      </trkpt>
      <trkpt lat="47.96712901443243" lon="16.719671012833714">
        <ele>231.810000000000002</ele>
        <time>2015-04-07T09:41:13Z</time>
      </trkpt>
      <trkpt lat="47.967056008055806" lon="16.719715017825365">
        <ele>232.300000000000011</ele>
        <time>2015-04-07T09:41:14Z</time>
      </trkpt>
      <trkpt lat="47.966090999543667" lon="16.720281969755888">
        <ele>228.930000000000007</ele>
        <time>2015-04-07T09:41:27Z</time>
      </trkpt>
      <trkpt lat="47.965450035408139" lon="16.721052015200257">
        <ele>226.050000000000011</ele>
        <time>2015-04-07T09:41:38Z</time>
      </trkpt>
      <trkpt lat="47.965022977441549" lon="16.72211098484695">
        <ele>222.199999999999989</ele>
        <time>2015-04-07T09:41:49Z</time>
      </trkpt>
      <trkpt lat="47.965000011026859" lon="16.722221039235592">
        <ele>222.199999999999989</ele>
        <time>2015-04-07T09:41:50Z</time>
      </trkpt>
      <trkpt lat="47.964824996888638" lon="16.723302975296974">
        <ele>218.360000000000014</ele>
        <time>2015-04-07T09:41:59Z</time>
      </trkpt>
      <trkpt lat="47.964817034080625" lon="16.723548984155059">
        <ele>217.879999999999995</ele>
        <time>2015-04-07T09:42:01Z</time>
      </trkpt>
      <trkpt lat="47.964862966910005" lon="16.724663022905588">
        <ele>214.990000000000009</ele>
        <time>2015-04-07T09:42:10Z</time>
      </trkpt>
      <trkpt lat="47.964793983846903" lon="16.725126039236784">
        <ele>214.030000000000001</ele>
        <time>2015-04-07T09:42:14Z</time>
      </trkpt>
      <trkpt lat="47.964763976633549" lon="16.725237015634775">
        <ele>214.030000000000001</ele>
        <time>2015-04-07T09:42:15Z</time>
      </trkpt>
      <trkpt lat="47.964729024097323" lon="16.725340029224753">
        <ele>213.550000000000011</ele>
        <time>2015-04-07T09:42:16Z</time>
      </trkpt>
      <trkpt lat="47.964687030762434" lon="16.725437007844448">
        <ele>213.069999999999993</ele>
        <time>2015-04-07T09:42:17Z</time>
      </trkpt>
      <trkpt lat="47.964642019942403" lon="16.725530968979001">
        <ele>212.590000000000003</ele>
        <time>2015-04-07T09:42:18Z</time>
      </trkpt>
      <trkpt lat="47.964591979980469" lon="16.725619984790683">
        <ele>212.590000000000003</ele>
        <time>2015-04-07T09:42:19Z</time>
      </trkpt>
      <trkpt lat="47.964103985577822" lon="16.726455995813012">
        <ele>209.699999999999989</ele>
        <time>2015-04-07T09:42:29Z</time>
      </trkpt>
      <trkpt lat="47.963500991463661" lon="16.727398037910461">
        <ele>207.300000000000011</ele>
        <time>2015-04-07T09:42:41Z</time>
      </trkpt>
      <trkpt lat="47.963439971208572" lon="16.727453023195267">
        <ele>207.300000000000011</ele>
        <time>2015-04-07T09:42:42Z</time>
      </trkpt>
      <trkpt lat="47.963306028395891" lon="16.727541033178568">
        <ele>206.340000000000003</ele>
        <time>2015-04-07T09:42:44Z</time>
      </trkpt>
      <trkpt lat="47.963241990655661" lon="16.727572968229651">
        <ele>206.819999999999993</ele>
        <time>2015-04-07T09:42:45Z</time>
      </trkpt>
      <trkpt lat="47.962192995473742" lon="16.727920984849334">
        <ele>206.340000000000003</ele>
        <time>2015-04-07T09:43:00Z</time>
      </trkpt>
      <trkpt lat="47.961159003898501" lon="16.728531019762158">
        <ele>205.860000000000014</ele>
        <time>2015-04-07T09:43:16Z</time>
      </trkpt>
      <trkpt lat="47.960250992327929" lon="16.729199979454279">
        <ele>205.379999999999995</ele>
        <time>2015-04-07T09:43:31Z</time>
      </trkpt>
      <trkpt lat="47.959731984883547" lon="16.730090975761414">
        <ele>204.900000000000006</ele>
        <time>2015-04-07T09:43:44Z</time>
      </trkpt>
      <trkpt lat="47.959426967427135" lon="16.731458986178041">
        <ele>205.379999999999995</ele>
        <time>2015-04-07T09:43:59Z</time>
      </trkpt>
      <trkpt lat="47.959342980757356" lon="16.732239006087184">
        <ele>204.900000000000006</ele>
        <time>2015-04-07T09:44:08Z</time>
      </trkpt>
      <trkpt lat="47.9593510273844" lon="16.732317041605711">
        <ele>204.900000000000006</ele>
        <time>2015-04-07T09:44:09Z</time>
      </trkpt>
      <trkpt lat="47.959362007677555" lon="16.732392981648445">
        <ele>204.900000000000006</ele>
        <time>2015-04-07T09:44:10Z</time>
      </trkpt>
      <trkpt lat="47.959377011284232" lon="16.732470011338592">
        <ele>205.379999999999995</ele>
        <time>2015-04-07T09:44:11Z</time>
      </trkpt>
      <trkpt lat="47.959399977698922" lon="16.732546035200357">
        <ele>204.900000000000006</ele>
        <time>2015-04-07T09:44:12Z</time>
      </trkpt>
      <trkpt lat="47.959423027932644" lon="16.73261996358633">
        <ele>204.900000000000006</ele>
        <time>2015-04-07T09:44:13Z</time>
      </trkpt>
      <trkpt lat="47.959663001820445" lon="16.733352961018682">
        <ele>203.460000000000008</ele>
        <time>2015-04-07T09:44:23Z</time>
      </trkpt>
      <trkpt lat="47.959698038175702" lon="16.733684968203306">
        <ele>202.009999999999991</ele>
        <time>2015-04-07T09:44:27Z</time>
      </trkpt>
      <trkpt lat="47.95969401486218" lon="16.733773984014988">
        <ele>201.530000000000001</ele>
        <time>2015-04-07T09:44:28Z</time>
      </trkpt>
      <trkpt lat="47.959685968235135" lon="16.733866017311811">
        <ele>201.530000000000001</ele>
        <time>2015-04-07T09:44:29Z</time>
      </trkpt>
      <trkpt lat="47.95967498794198" lon="16.733956960961223">
        <ele>200.569999999999993</ele>
        <time>2015-04-07T09:44:30Z</time>
      </trkpt>
      <trkpt lat="47.959659984335303" lon="16.734048994258046">
        <ele>200.569999999999993</ele>
        <time>2015-04-07T09:44:31Z</time>
      </trkpt>
      <trkpt lat="47.959641041234136" lon="16.73414203338325">
        <ele>199.610000000000014</ele>
        <time>2015-04-07T09:44:32Z</time>
      </trkpt>
      <trkpt lat="47.959617991000414" lon="16.734238006174564">
        <ele>199.610000000000014</ele>
        <time>2015-04-07T09:44:33Z</time>
      </trkpt>
      <trkpt lat="47.959586977958679" lon="16.734330961480737">
        <ele>199.129999999999995</ele>
        <time>2015-04-07T09:44:34Z</time>
      </trkpt>
      <trkpt lat="47.959553031250834" lon="16.734420983120799">
        <ele>199.610000000000014</ele>
        <time>2015-04-07T09:44:35Z</time>
      </trkpt>
      <trkpt lat="47.959514977410436" lon="16.7345089931041">
        <ele>199.610000000000014</ele>
        <time>2015-04-07T09:44:36Z</time>
      </trkpt>
      <trkpt lat="47.959468960762024" lon="16.734590968117118">
        <ele>198.169999999999987</ele>
        <time>2015-04-07T09:44:37Z</time>
      </trkpt>
      <trkpt lat="47.959414981305599" lon="16.734666991978884">
        <ele>197.689999999999998</ele>
        <time>2015-04-07T09:44:38Z</time>
      </trkpt>
      <trkpt lat="47.959357984364033" lon="16.734741004183888">
        <ele>197.210000000000008</ele>
        <time>2015-04-07T09:44:39Z</time>
      </trkpt>
      <trkpt lat="47.959293024614453" lon="16.734811998903751">
        <ele>196.72999999999999</ele>
        <time>2015-04-07T09:44:40Z</time>
      </trkpt>
      <trkpt lat="47.959152041003108" lon="16.734945019707084">
        <ele>195.280000000000001</ele>
        <time>2015-04-07T09:44:42Z</time>
      </trkpt>
      <trkpt lat="47.958931010216475" lon="16.735161021351814">
        <ele>193.840000000000003</ele>
        <time>2015-04-07T09:44:45Z</time>
      </trkpt>
      <trkpt lat="47.95855700969696" lon="16.735612973570824">
        <ele>190.47999999999999</ele>
        <time>2015-04-07T09:44:50Z</time>
      </trkpt>
      <trkpt lat="47.95840797945857" lon="16.73581900075078">
        <ele>189.52000000000001</ele>
        <time>2015-04-07T09:44:52Z</time>
      </trkpt>
      <trkpt lat="47.958115031942725" lon="16.736240023747087">
        <ele>185.669999999999987</ele>
        <time>2015-04-07T09:44:56Z</time>
      </trkpt>
      <trkpt lat="47.958038002252579" lon="16.736351000145078">
        <ele>185.189999999999998</ele>
        <time>2015-04-07T09:44:57Z</time>
      </trkpt>
      <trkpt lat="47.957638017833233" lon="16.736944019794464">
        <ele>181.830000000000013</ele>
        <time>2015-04-07T09:45:02Z</time>
      </trkpt>
      <trkpt lat="47.957473983988166" lon="16.737182987853885">
        <ele>181.349999999999994</ele>
        <time>2015-04-07T09:45:04Z</time>
      </trkpt>
      <trkpt lat="47.957213977351785" lon="16.737547013908625">
        <ele>177.97999999999999</ele>
        <time>2015-04-07T09:45:07Z</time>
      </trkpt>
      <trkpt lat="47.956855986267328" lon="16.738059986382723">
        <ele>173.659999999999997</ele>
        <time>2015-04-07T09:45:11Z</time>
      </trkpt>
      <trkpt lat="47.95642901211977" lon="16.738466005772352">
        <ele>171.25</ele>
        <time>2015-04-07T09:45:15Z</time>
      </trkpt>
      <trkpt lat="47.956309989094734" lon="16.738537000492215">
        <ele>170.77000000000001</ele>
        <time>2015-04-07T09:45:16Z</time>
      </trkpt>
      <trkpt lat="47.956065991893411" lon="16.738673960790038">
        <ele>169.810000000000002</ele>
        <time>2015-04-07T09:45:18Z</time>
      </trkpt>
      <trkpt lat="47.955696014687419" lon="16.738874036818743">
        <ele>167.889999999999986</ele>
        <time>2015-04-07T09:45:21Z</time>
      </trkpt>
      <trkpt lat="47.955199973657727" lon="16.739119039848447">
        <ele>165</ele>
        <time>2015-04-07T09:45:25Z</time>
      </trkpt>
      <trkpt lat="47.954575018957257" lon="16.739337975159287">
        <ele>161.639999999999986</ele>
        <time>2015-04-07T09:45:30Z</time>
      </trkpt>
      <trkpt lat="47.954330015927553" lon="16.739379968494177">
        <ele>160.680000000000007</ele>
        <time>2015-04-07T09:45:32Z</time>
      </trkpt>
      <trkpt lat="47.953773038461804" lon="16.739583984017372">
        <ele>158.27000000000001</ele>
        <time>2015-04-07T09:45:39Z</time>
      </trkpt>
      <trkpt lat="47.953731967136264" lon="16.739588007330894">
        <ele>158.27000000000001</ele>
        <time>2015-04-07T09:45:40Z</time>
      </trkpt>
      <trkpt lat="47.953704977408051" lon="16.73957803286612">
        <ele>158.27000000000001</ele>
        <time>2015-04-07T09:45:41Z</time>
      </trkpt>
      <trkpt lat="47.953662984073162" lon="16.739369994029403">
        <ele>159.240000000000009</ele>
        <time>2015-04-07T09:48:10Z</time>
      </trkpt>
      <trkpt lat="47.953650997951627" lon="16.739357002079487">
        <ele>159.240000000000009</ele>
        <time>2015-04-07T09:48:11Z</time>
      </trkpt>
      <trkpt lat="47.953631971031427" lon="16.739334035664797">
        <ele>158.75</ele>
        <time>2015-04-07T09:48:15Z</time>
      </trkpt>
      <trkpt lat="47.95361696742475" lon="16.739328000694513">
        <ele>158.75</ele>
        <time>2015-04-07T09:48:16Z</time>
      </trkpt>
      <trkpt lat="47.953605987131596" lon="16.739317020401359">
        <ele>159.240000000000009</ele>
        <time>2015-04-07T09:48:17Z</time>
      </trkpt>
      <trkpt lat="47.953583020716906" lon="16.739302016794682">
        <ele>159.240000000000009</ele>
        <time>2015-04-07T09:48:18Z</time>
      </trkpt>
      <trkpt lat="47.953563993796706" lon="16.739288019016385">
        <ele>159.719999999999999</ele>
        <time>2015-04-07T09:48:19Z</time>
      </trkpt>
      <trkpt lat="47.953242966905236" lon="16.739076962694526">
        <ele>158.75</ele>
        <time>2015-04-07T09:48:30Z</time>
      </trkpt>
      <trkpt lat="47.953037023544312" lon="16.738897003233433">
        <ele>157.310000000000002</ele>
        <time>2015-04-07T09:48:37Z</time>
      </trkpt>
      <trkpt lat="47.953002993017435" lon="16.738866996020079">
        <ele>157.789999999999992</ele>
        <time>2015-04-07T09:48:38Z</time>
      </trkpt>
      <trkpt lat="47.952773999422789" lon="16.738682007417083">
        <ele>156.830000000000013</ele>
        <time>2015-04-07T09:48:44Z</time>
      </trkpt>
      <trkpt lat="47.952571995556355" lon="16.738530965521932">
        <ele>156.830000000000013</ele>
        <time>2015-04-07T09:48:49Z</time>
      </trkpt>
      <trkpt lat="47.952534025534987" lon="16.738503975793719">
        <ele>156.830000000000013</ele>
        <time>2015-04-07T09:48:50Z</time>
      </trkpt>
      <trkpt lat="47.952087018638849" lon="16.738162999972701">
        <ele>156.349999999999994</ele>
        <time>2015-04-07T09:49:03Z</time>
      </trkpt>
      <trkpt lat="47.951991967856884" lon="16.7380749899894">
        <ele>155.389999999999986</ele>
        <time>2015-04-07T09:49:06Z</time>
      </trkpt>
      <trkpt lat="47.951922984793782" lon="16.738012041896582">
        <ele>154.909999999999997</ele>
        <time>2015-04-07T09:49:08Z</time>
      </trkpt>
      <trkpt lat="47.951885014772415" lon="16.737980023026466">
        <ele>154.909999999999997</ele>
        <time>2015-04-07T09:49:09Z</time>
      </trkpt>
      <trkpt lat="47.951527023687959" lon="16.737584983929992">
        <ele>154.430000000000007</ele>
        <time>2015-04-07T09:49:21Z</time>
      </trkpt>
      <trkpt lat="47.950981026515365" lon="16.737076034769416">
        <ele>153.949999999999989</ele>
        <time>2015-04-07T09:49:36Z</time>
      </trkpt>
      <trkpt lat="47.950480962172151" lon="16.736601032316685">
        <ele>152.990000000000009</ele>
        <time>2015-04-07T09:49:51Z</time>
      </trkpt>
      <trkpt lat="47.949928008019924" lon="16.736109014600515">
        <ele>152.990000000000009</ele>
        <time>2015-04-07T09:50:07Z</time>
      </trkpt>
      <trkpt lat="47.949856007471681" lon="16.736052017658949">
        <ele>152.509999999999991</ele>
        <time>2015-04-07T09:50:09Z</time>
      </trkpt>
      <trkpt lat="47.949820971116424" lon="16.736030979081988">
        <ele>152.509999999999991</ele>
        <time>2015-04-07T09:50:10Z</time>
      </trkpt>
      <trkpt lat="47.949787024408579" lon="16.736003989353776">
        <ele>152.509999999999991</ele>
        <time>2015-04-07T09:50:11Z</time>
      </trkpt>
      <trkpt lat="47.94974897056818" lon="16.735972976312041">
        <ele>152.509999999999991</ele>
        <time>2015-04-07T09:50:12Z</time>
      </trkpt>
      <trkpt lat="47.949711000546813" lon="16.735942969098687">
        <ele>152.990000000000009</ele>
        <time>2015-04-07T09:50:13Z</time>
      </trkpt>
      <trkpt lat="47.949565993621945" lon="16.735807014629245">
        <ele>152.990000000000009</ele>
        <time>2015-04-07T09:50:17Z</time>
      </trkpt>
      <trkpt lat="47.949393996968865" lon="16.735682962462306">
        <ele>152.509999999999991</ele>
        <time>2015-04-07T09:50:22Z</time>
      </trkpt>
      <trkpt lat="47.94925301335752" lon="16.735541978850961">
        <ele>153.949999999999989</ele>
        <time>2015-04-07T09:50:26Z</time>
      </trkpt>
      <trkpt lat="47.949214959517121" lon="16.735511971637607">
        <ele>153.949999999999989</ele>
        <time>2015-04-07T09:50:27Z</time>
      </trkpt>
      <trkpt lat="47.949139019474387" lon="16.735462015494704">
        <ele>154.909999999999997</ele>
        <time>2015-04-07T09:50:29Z</time>
      </trkpt>
      <trkpt lat="47.948943972587585" lon="16.735297981649637">
        <ele>155.389999999999986</ele>
        <time>2015-04-07T09:50:35Z</time>
      </trkpt>
      <trkpt lat="47.94854398816824" lon="16.734798001125455">
        <ele>155.389999999999986</ele>
        <time>2015-04-07T09:50:48Z</time>
      </trkpt>
      <trkpt lat="47.948512975126505" lon="16.734760031104088">
        <ele>154.909999999999997</ele>
        <time>2015-04-07T09:50:49Z</time>
      </trkpt>
      <trkpt lat="47.948485985398293" lon="16.734726000577211">
        <ele>154.430000000000007</ele>
        <time>2015-04-07T09:50:50Z</time>
      </trkpt>
      <trkpt lat="47.948466958478093" lon="16.734686018899083">
        <ele>154.430000000000007</ele>
        <time>2015-04-07T09:50:51Z</time>
      </trkpt>
      <trkpt lat="47.948452038690448" lon="16.734647965058684">
        <ele>153.949999999999989</ele>
        <time>2015-04-07T09:50:52Z</time>
      </trkpt>
      <trkpt lat="47.948437035083771" lon="16.734617035835981">
        <ele>153.949999999999989</ele>
        <time>2015-04-07T09:50:53Z</time>
      </trkpt>
      <trkpt lat="47.948409961536527" lon="16.734590968117118">
        <ele>153.469999999999999</ele>
        <time>2015-04-07T09:50:54Z</time>
      </trkpt>
      <trkpt lat="47.948382971808314" lon="16.734565990045667">
        <ele>153.949999999999989</ele>
        <time>2015-04-07T09:50:55Z</time>
      </trkpt>
      <trkpt lat="47.94835296459496" lon="16.734541011974216">
        <ele>153.949999999999989</ele>
        <time>2015-04-07T09:50:56Z</time>
      </trkpt>
      <trkpt lat="47.948314994573593" lon="16.734517961740494">
        <ele>154.430000000000007</ele>
        <time>2015-04-07T09:50:57Z</time>
      </trkpt>
      <trkpt lat="47.948277024552226" lon="16.734497006982565">
        <ele>154.430000000000007</ele>
        <time>2015-04-07T09:50:58Z</time>
      </trkpt>
      <trkpt lat="47.948189014568925" lon="16.734446967020631">
        <ele>153.949999999999989</ele>
        <time>2015-04-07T09:51:00Z</time>
      </trkpt>
      <trkpt lat="47.948147021234035" lon="16.734420983120799">
        <ele>153.469999999999999</ele>
        <time>2015-04-07T09:51:01Z</time>
      </trkpt>
      <trkpt lat="47.948108967393637" lon="16.73440002836287">
        <ele>152.990000000000009</ele>
        <time>2015-04-07T09:51:02Z</time>
      </trkpt>
      <trkpt lat="47.948066974058747" lon="16.734374966472387">
        <ele>152.990000000000009</ele>
        <time>2015-04-07T09:51:03Z</time>
      </trkpt>
      <trkpt lat="47.948024980723858" lon="16.734354011714458">
        <ele>152.990000000000009</ele>
        <time>2015-04-07T09:51:04Z</time>
      </trkpt>
      <trkpt lat="47.947258036583662" lon="16.734004989266396">
        <ele>151.539999999999992</ele>
        <time>2015-04-07T09:51:20Z</time>
      </trkpt>
      <trkpt lat="47.946823015809059" lon="16.733837015926838">
        <ele>150.099999999999994</ele>
        <time>2015-04-07T09:51:31Z</time>
      </trkpt>
      <trkpt lat="47.946597961708903" lon="16.733741965144873">
        <ele>149.139999999999986</ele>
        <time>2015-04-07T09:51:36Z</time>
      </trkpt>
      <trkpt lat="47.946429988369346" lon="16.733637023717165">
        <ele>150.099999999999994</ele>
        <time>2015-04-07T09:51:40Z</time>
      </trkpt>
      <trkpt lat="47.946387995034456" lon="16.733595030382276">
        <ele>150.099999999999994</ele>
        <time>2015-04-07T09:51:41Z</time>
      </trkpt>
      <trkpt lat="47.94635396450758" lon="16.733544990420341">
        <ele>149.620000000000005</ele>
        <time>2015-04-07T09:51:42Z</time>
      </trkpt>
      <trkpt lat="47.946315994486213" lon="16.73349604010582">
        <ele>149.139999999999986</ele>
        <time>2015-04-07T09:51:43Z</time>
      </trkpt>
      <trkpt lat="47.946280958130956" lon="16.733448011800647">
        <ele>149.139999999999986</ele>
        <time>2015-04-07T09:51:44Z</time>
      </trkpt>
      <trkpt lat="47.946049030870199" lon="16.733164032921195">
        <ele>148.659999999999997</ele>
        <time>2015-04-07T09:51:51Z</time>
      </trkpt>
      <trkpt lat="47.946018017828465" lon="16.733120027929544">
        <ele>148.659999999999997</ele>
        <time>2015-04-07T09:51:52Z</time>
      </trkpt>
      <trkpt lat="47.945983987301588" lon="16.733085997402668">
        <ele>148.659999999999997</ele>
        <time>2015-04-07T09:51:53Z</time>
      </trkpt>
      <trkpt lat="47.945521976798773" lon="16.732667991891503">
        <ele>149.139999999999986</ele>
        <time>2015-04-07T09:52:06Z</time>
      </trkpt>
      <trkpt lat="47.945446036756039" lon="16.732601020485163">
        <ele>149.139999999999986</ele>
        <time>2015-04-07T09:52:08Z</time>
      </trkpt>
      <trkpt lat="47.94540798291564" lon="16.732569001615047">
        <ele>149.620000000000005</ele>
        <time>2015-04-07T09:52:09Z</time>
      </trkpt>
      <trkpt lat="47.945057032629848" lon="16.732283011078835">
        <ele>148.659999999999997</ele>
        <time>2015-04-07T09:52:20Z</time>
      </trkpt>
      <trkpt lat="47.94495795853436" lon="16.732190977782011">
        <ele>149.139999999999986</ele>
        <time>2015-04-07T09:52:23Z</time>
      </trkpt>
      <trkpt lat="47.944556968286633" lon="16.731808008626103">
        <ele>151.060000000000002</ele>
        <time>2015-04-07T09:52:35Z</time>
      </trkpt>
      <trkpt lat="47.944218004122376" lon="16.731535010039806">
        <ele>151.539999999999992</ele>
        <time>2015-04-07T09:52:46Z</time>
      </trkpt>
      <trkpt lat="47.943787006661296" lon="16.731143994256854">
        <ele>153.949999999999989</ele>
        <time>2015-04-07T09:53:00Z</time>
      </trkpt>
      <trkpt lat="47.943522976711392" lon="16.730813998728991">
        <ele>154.909999999999997</ele>
        <time>2015-04-07T09:53:12Z</time>
      </trkpt>
      <trkpt lat="47.943267999216914" lon="16.730435974895954">
        <ele>156.830000000000013</ele>
        <time>2015-04-07T09:53:25Z</time>
      </trkpt>
      <trkpt lat="47.943016039207578" lon="16.730213016271591">
        <ele>158.27000000000001</ele>
        <time>2015-04-07T09:53:37Z</time>
      </trkpt>
      <trkpt lat="47.942650001496077" lon="16.729940017685294">
        <ele>160.680000000000007</ele>
        <time>2015-04-07T09:53:51Z</time>
      </trkpt>
      <trkpt lat="47.942310031503439" lon="16.729664001613855">
        <ele>161.639999999999986</ele>
        <time>2015-04-07T09:54:05Z</time>
      </trkpt>
      <trkpt lat="47.941985987126827" lon="16.729395026341081">
        <ele>164.039999999999992</ele>
        <time>2015-04-07T09:54:19Z</time>
      </trkpt>
      <trkpt lat="47.941943993791938" lon="16.729364013299346">
        <ele>165</ele>
        <time>2015-04-07T09:54:21Z</time>
      </trkpt>
      <trkpt lat="47.941921027377248" lon="16.729354960843921">
        <ele>165.47999999999999</ele>
        <time>2015-04-07T09:54:22Z</time>
      </trkpt>
      <trkpt lat="47.941894959658384" lon="16.729338029399514">
        <ele>164.52000000000001</ele>
        <time>2015-04-07T09:54:23Z</time>
      </trkpt>
      <trkpt lat="47.941871993243694" lon="16.729319002479315">
        <ele>165.47999999999999</ele>
        <time>2015-04-07T09:54:24Z</time>
      </trkpt>
      <trkpt lat="47.941849026829004" lon="16.729297963902354">
        <ele>165.47999999999999</ele>
        <time>2015-04-07T09:54:25Z</time>
      </trkpt>
      <trkpt lat="47.941460022702813" lon="16.728977020829916">
        <ele>166.930000000000007</ele>
        <time>2015-04-07T09:54:41Z</time>
      </trkpt>
      <trkpt lat="47.941138995811343" lon="16.728721959516406">
        <ele>168.370000000000005</ele>
        <time>2015-04-07T09:54:54Z</time>
      </trkpt>
      <trkpt lat="47.940776981413364" lon="16.728436974808574">
        <ele>169.810000000000002</ele>
        <time>2015-04-07T09:55:09Z</time>
      </trkpt>
      <trkpt lat="47.940495014190674" lon="16.728267995640635">
        <ele>171.72999999999999</ele>
        <time>2015-04-07T09:55:20Z</time>
      </trkpt>
      <trkpt lat="47.940303990617394" lon="16.728071020916104">
        <ele>171.25</ele>
        <time>2015-04-07T09:55:29Z</time>
      </trkpt>
      <trkpt lat="47.940200977027416" lon="16.728005977347493">
        <ele>176.539999999999992</ele>
        <time>2015-04-07T10:57:15Z</time>
      </trkpt>
      <trkpt lat="47.940392000600696" lon="16.727421004325151">
        <ele>177.02000000000001</ele>
        <time>2015-04-07T10:57:28Z</time>
      </trkpt>
      <trkpt lat="47.940562991425395" lon="16.726840976625681">
        <ele>179.419999999999987</ele>
        <time>2015-04-07T10:57:40Z</time>
      </trkpt>
      <trkpt lat="47.940860968083143" lon="16.726033966988325">
        <ele>177.97999999999999</ele>
        <time>2015-04-07T10:57:57Z</time>
      </trkpt>
      <trkpt lat="47.940974961966276" lon="16.725786030292511">
        <ele>180.379999999999995</ele>
        <time>2015-04-07T10:58:03Z</time>
      </trkpt>
      <trkpt lat="47.94119599275291" lon="16.725360983982682">
        <ele>181.830000000000013</ele>
        <time>2015-04-07T10:58:15Z</time>
      </trkpt>
      <trkpt lat="47.941414006054401" lon="16.724914982914925">
        <ele>183.27000000000001</ele>
        <time>2015-04-07T10:58:27Z</time>
      </trkpt>
      <trkpt lat="47.941662026569247" lon="16.724412990733981">
        <ele>183.75</ele>
        <time>2015-04-07T10:58:39Z</time>
      </trkpt>
      <trkpt lat="47.941917004063725" lon="16.723932037129998">
        <ele>184.22999999999999</ele>
        <time>2015-04-07T10:58:51Z</time>
      </trkpt>
      <trkpt lat="47.942100986838341" lon="16.723607992753386">
        <ele>185.189999999999998</ele>
        <time>2015-04-07T10:59:03Z</time>
      </trkpt>
      <trkpt lat="47.942310031503439" lon="16.723223011940718">
        <ele>185.669999999999987</ele>
        <time>2015-04-07T10:59:14Z</time>
      </trkpt>
      <trkpt lat="47.942642038688064" lon="16.722571989521384">
        <ele>187.590000000000003</ele>
        <time>2015-04-07T10:59:31Z</time>
      </trkpt>
      <trkpt lat="47.942913025617599" lon="16.721991039812565">
        <ele>188.080000000000013</ele>
        <time>2015-04-07T10:59:45Z</time>
      </trkpt>
      <trkpt lat="47.943179989233613" lon="16.721677975729108">
        <ele>188.080000000000013</ele>
        <time>2015-04-07T10:59:57Z</time>
      </trkpt>
      <trkpt lat="47.943199016153812" lon="16.721620978787541">
        <ele>188.560000000000002</ele>
        <time>2015-04-07T10:59:59Z</time>
      </trkpt>
      <trkpt lat="47.943061972036958" lon="16.721140025183558">
        <ele>189.52000000000001</ele>
        <time>2015-04-07T11:00:09Z</time>
      </trkpt>
      <trkpt lat="47.942913025617599" lon="16.720569971948862">
        <ele>190.47999999999999</ele>
        <time>2015-04-07T11:00:21Z</time>
      </trkpt>
      <trkpt lat="47.942753015086055" lon="16.719889026135206">
        <ele>190.960000000000008</ele>
        <time>2015-04-07T11:00:35Z</time>
      </trkpt>
      <trkpt lat="47.942687971517444" lon="16.719065001234412">
        <ele>191.919999999999987</ele>
        <time>2015-04-07T11:00:51Z</time>
      </trkpt>
      <trkpt lat="47.942711021751165" lon="16.718317000195384">
        <ele>192.879999999999995</ele>
        <time>2015-04-07T11:01:06Z</time>
      </trkpt>
      <trkpt lat="47.94274496845901" lon="16.717711994424462">
        <ele>193.840000000000003</ele>
        <time>2015-04-07T11:01:19Z</time>
      </trkpt>
      <trkpt lat="47.942829038947821" lon="16.71727797947824">
        <ele>194.800000000000011</ele>
        <time>2015-04-07T11:01:32Z</time>
      </trkpt>
      <trkpt lat="47.942904978990555" lon="16.716891992837191">
        <ele>197.210000000000008</ele>
        <time>2015-04-07T11:01:42Z</time>
      </trkpt>
      <trkpt lat="47.943004975095391" lon="16.71652402728796">
        <ele>197.689999999999998</ele>
        <time>2015-04-07T11:01:53Z</time>
      </trkpt>
      <trkpt lat="47.943145958706737" lon="16.715980963781476">
        <ele>200.569999999999993</ele>
        <time>2015-04-07T11:02:07Z</time>
      </trkpt>
      <trkpt lat="47.943267999216914" lon="16.715524988248944">
        <ele>201.530000000000001</ele>
        <time>2015-04-07T11:02:21Z</time>
      </trkpt>
      <trkpt lat="47.943302029743791" lon="16.715099019929767">
        <ele>203.460000000000008</ele>
        <time>2015-04-07T11:02:31Z</time>
      </trkpt>
      <trkpt lat="47.943245032802224" lon="16.71433299779892">
        <ele>203.939999999999998</ele>
        <time>2015-04-07T11:02:46Z</time>
      </trkpt>
      <trkpt lat="47.943019978702068" lon="16.713573010638356">
        <ele>203.939999999999998</ele>
        <time>2015-04-07T11:03:01Z</time>
      </trkpt>
      <trkpt lat="47.942757038399577" lon="16.712782010436058">
        <ele>204.900000000000006</ele>
        <time>2015-04-07T11:03:17Z</time>
      </trkpt>
      <trkpt lat="47.942394018173218" lon="16.711823036894202">
        <ele>206.819999999999993</ele>
        <time>2015-04-07T11:03:37Z</time>
      </trkpt>
      <trkpt lat="47.942051030695438" lon="16.711027007550001">
        <ele>208.740000000000009</ele>
        <time>2015-04-07T11:03:56Z</time>
      </trkpt>
      <trkpt lat="47.941761016845703" lon="16.710514035075903">
        <ele>210.189999999999998</ele>
        <time>2015-04-07T11:04:10Z</time>
      </trkpt>
      <trkpt lat="47.941650040447712" lon="16.710154032334685">
        <ele>210.189999999999998</ele>
        <time>2015-04-07T11:04:21Z</time>
      </trkpt>
      <trkpt lat="47.941810972988605" lon="16.709725968539715">
        <ele>211.150000000000006</ele>
        <time>2015-04-07T11:04:34Z</time>
      </trkpt>
      <trkpt lat="47.94201297685504" lon="16.709395973011851">
        <ele>213.550000000000011</ele>
        <time>2015-04-07T11:04:46Z</time>
      </trkpt>
      <trkpt lat="47.942187990993261" lon="16.709129009395838">
        <ele>214.030000000000001</ele>
        <time>2015-04-07T11:04:56Z</time>
      </trkpt>
      <trkpt lat="47.942379014566541" lon="16.708757020533085">
        <ele>215.469999999999999</ele>
        <time>2015-04-07T11:05:09Z</time>
      </trkpt>
      <trkpt lat="47.942431988194585" lon="16.708540013059974">
        <ele>217.879999999999995</ele>
        <time>2015-04-07T11:05:17Z</time>
      </trkpt>
      <trkpt lat="47.942410027608275" lon="16.708469018340111">
        <ele>218.360000000000014</ele>
        <time>2015-04-07T11:05:21Z</time>
      </trkpt>
      <trkpt lat="47.94239804148674" lon="16.708449991419911">
        <ele>218.360000000000014</ele>
        <time>2015-04-07T11:05:22Z</time>
      </trkpt>
      <trkpt lat="47.942383037880063" lon="16.708434987813234">
        <ele>218.360000000000014</ele>
        <time>2015-04-07T11:05:23Z</time>
      </trkpt>
      <trkpt lat="47.942370967939496" lon="16.708419984206557">
        <ele>217.879999999999995</ele>
        <time>2015-04-07T11:05:24Z</time>
      </trkpt>
      <trkpt lat="47.942355964332819" lon="16.70840498059988">
        <ele>218.360000000000014</ele>
        <time>2015-04-07T11:05:25Z</time>
      </trkpt>
      <trkpt lat="47.942337021231651" lon="16.708386959508061">
        <ele>218.360000000000014</ele>
        <time>2015-04-07T11:05:26Z</time>
      </trkpt>
      <trkpt lat="47.942322017624974" lon="16.708366004750133">
        <ele>218.840000000000003</ele>
        <time>2015-04-07T11:05:27Z</time>
      </trkpt>
      <trkpt lat="47.942307014018297" lon="16.708346977829933">
        <ele>219.319999999999993</ele>
        <time>2015-04-07T11:05:28Z</time>
      </trkpt>
      <trkpt lat="47.942286981269717" lon="16.708326023072004">
        <ele>219.319999999999993</ele>
        <time>2015-04-07T11:05:29Z</time>
      </trkpt>
      <trkpt lat="47.94227197766304" lon="16.708304984495044">
        <ele>218.840000000000003</ele>
        <time>2015-04-07T11:05:30Z</time>
      </trkpt>
      <trkpt lat="47.942253034561872" lon="16.708284029737115">
        <ele>219.319999999999993</ele>
        <time>2015-04-07T11:05:31Z</time>
      </trkpt>
      <trkpt lat="47.941975006833673" lon="16.707940958440304">
        <ele>222.199999999999989</ele>
        <time>2015-04-07T11:05:47Z</time>
      </trkpt>
      <trkpt lat="47.941765040159225" lon="16.707700984552503">
        <ele>223.639999999999986</ele>
        <time>2015-04-07T11:05:58Z</time>
      </trkpt>
      <trkpt lat="47.941421968862414" lon="16.707308040931821">
        <ele>226.530000000000001</ele>
        <time>2015-04-07T11:06:14Z</time>
      </trkpt>
      <trkpt lat="47.941104965284467" lon="16.706799007952213">
        <ele>226.530000000000001</ele>
        <time>2015-04-07T11:06:30Z</time>
      </trkpt>
      <trkpt lat="47.940803971141577" lon="16.706315958872437">
        <ele>226.530000000000001</ele>
        <time>2015-04-07T11:06:45Z</time>
      </trkpt>
      <trkpt lat="47.940456038340926" lon="16.70571899972856">
        <ele>224.610000000000014</ele>
        <time>2015-04-07T11:06:56Z</time>
      </trkpt>
      <trkpt lat="47.940239030867815" lon="16.705276016145945">
        <ele>222.199999999999989</ele>
        <time>2015-04-07T11:07:02Z</time>
      </trkpt>
      <trkpt lat="47.940040966495872" lon="16.704926993697882">
        <ele>222.199999999999989</ele>
        <time>2015-04-07T11:07:07Z</time>
      </trkpt>
      <trkpt lat="47.939998973160982" lon="16.704877959564328">
        <ele>222.199999999999989</ele>
        <time>2015-04-07T11:07:08Z</time>
      </trkpt>
      <trkpt lat="47.939883973449469" lon="16.704758014529943">
        <ele>222.199999999999989</ele>
        <time>2015-04-07T11:07:11Z</time>
      </trkpt>
      <trkpt lat="47.939850026741624" lon="16.70472901314497">
        <ele>222.199999999999989</ele>
        <time>2015-04-07T11:07:12Z</time>
      </trkpt>
      <trkpt lat="47.939815996214747" lon="16.704699005931616">
        <ele>222.199999999999989</ele>
        <time>2015-04-07T11:07:13Z</time>
      </trkpt>
      <trkpt lat="47.93978095985949" lon="16.704670004546642">
        <ele>221.719999999999999</ele>
        <time>2015-04-07T11:07:14Z</time>
      </trkpt>
      <trkpt lat="47.939742989838123" lon="16.704650977626443">
        <ele>222.199999999999989</ele>
        <time>2015-04-07T11:07:15Z</time>
      </trkpt>
      <trkpt lat="47.939696973189712" lon="16.704638991504908">
        <ele>221.240000000000009</ele>
        <time>2015-04-07T11:07:16Z</time>
      </trkpt>
      <trkpt lat="47.93964802287519" lon="16.704645026475191">
        <ele>221.240000000000009</ele>
        <time>2015-04-07T11:07:17Z</time>
      </trkpt>
      <trkpt lat="47.939602006226778" lon="16.704682996496558">
        <ele>220.280000000000001</ele>
        <time>2015-04-07T11:07:18Z</time>
      </trkpt>
      <trkpt lat="47.939564036205411" lon="16.704744016751647">
        <ele>219.800000000000011</ele>
        <time>2015-04-07T11:07:19Z</time>
      </trkpt>
      <trkpt lat="47.939525982365012" lon="16.704819034785032">
        <ele>219.319999999999993</ele>
        <time>2015-04-07T11:07:20Z</time>
      </trkpt>
      <trkpt lat="47.939491029828787" lon="16.704898998141289">
        <ele>219.319999999999993</ele>
        <time>2015-04-07T11:07:21Z</time>
      </trkpt>
      <trkpt lat="47.939449036493897" lon="16.704982984811068">
        <ele>218.840000000000003</ele>
        <time>2015-04-07T11:07:22Z</time>
      </trkpt>
      <trkpt lat="47.93930796906352" lon="16.705266963690519">
        <ele>218.360000000000014</ele>
        <time>2015-04-07T11:07:26Z</time>
      </trkpt>
      <trkpt lat="47.939269999042153" lon="16.70531096868217">
        <ele>217.879999999999995</ele>
        <time>2015-04-07T11:07:27Z</time>
      </trkpt>
      <trkpt lat="47.939223982393742" lon="16.705336030572653">
        <ele>217.879999999999995</ele>
        <time>2015-04-07T11:07:28Z</time>
      </trkpt>
      <trkpt lat="47.93917796574533" lon="16.705337958410382">
        <ele>217.879999999999995</ele>
        <time>2015-04-07T11:07:29Z</time>
      </trkpt>
      <trkpt lat="47.939129015430808" lon="16.705318009480834">
        <ele>217.400000000000006</ele>
        <time>2015-04-07T11:07:30Z</time>
      </trkpt>
      <trkpt lat="47.939075035974383" lon="16.705294037237763">
        <ele>217.400000000000006</ele>
        <time>2015-04-07T11:07:31Z</time>
      </trkpt>
      <trkpt lat="47.939021978527308" lon="16.705259000882506">
        <ele>216.430000000000007</ele>
        <time>2015-04-07T11:07:32Z</time>
      </trkpt>
      <trkpt lat="47.938960958272219" lon="16.705217007547617">
        <ele>215.469999999999999</ele>
        <time>2015-04-07T11:07:33Z</time>
      </trkpt>
      <trkpt lat="47.938903961330652" lon="16.705162022262812">
        <ele>214.990000000000009</ele>
        <time>2015-04-07T11:07:34Z</time>
      </trkpt>
      <trkpt lat="47.938716961070895" lon="16.704931017011404">
        <ele>211.629999999999995</ele>
        <time>2015-04-07T11:07:37Z</time>
      </trkpt>
      <trkpt lat="47.938659964129329" lon="16.704834038391709">
        <ele>210.189999999999998</ele>
        <time>2015-04-07T11:07:38Z</time>
      </trkpt>
      <trkpt lat="47.938610007986426" lon="16.704733036458492">
        <ele>209.219999999999999</ele>
        <time>2015-04-07T11:07:39Z</time>
      </trkpt>
      <trkpt lat="47.938518980517983" lon="16.704544024541974">
        <ele>207.300000000000011</ele>
        <time>2015-04-07T11:07:41Z</time>
      </trkpt>
      <trkpt lat="47.938472963869572" lon="16.704475041478872">
        <ele>206.340000000000003</ele>
        <time>2015-04-07T11:07:42Z</time>
      </trkpt>
      <trkpt lat="47.938430970534682" lon="16.70442801900208">
        <ele>206.340000000000003</ele>
        <time>2015-04-07T11:07:43Z</time>
      </trkpt>
      <trkpt lat="47.938388977199793" lon="16.704392982646823">
        <ele>205.860000000000014</ele>
        <time>2015-04-07T11:07:44Z</time>
      </trkpt>
      <trkpt lat="47.938354024663568" lon="16.704362975433469">
        <ele>205.860000000000014</ele>
        <time>2015-04-07T11:07:45Z</time>
      </trkpt>
      <trkpt lat="47.938328040763736" lon="16.704325005412102">
        <ele>205.379999999999995</ele>
        <time>2015-04-07T11:07:46Z</time>
      </trkpt>
      <trkpt lat="47.938293004408479" lon="16.704283012077212">
        <ele>204.900000000000006</ele>
        <time>2015-04-07T11:07:47Z</time>
      </trkpt>
      <trkpt lat="47.938258973881602" lon="16.704247975721955">
        <ele>204.900000000000006</ele>
        <time>2015-04-07T11:07:48Z</time>
      </trkpt>
      <trkpt lat="47.938228966668248" lon="16.704226015135646">
        <ele>204.900000000000006</ele>
        <time>2015-04-07T11:07:49Z</time>
      </trkpt>
      <trkpt lat="47.938194014132023" lon="16.704207994043827">
        <ele>204.900000000000006</ele>
        <time>2015-04-07T11:07:50Z</time>
      </trkpt>
      <trkpt lat="47.938164006918669" lon="16.704205982387066">
        <ele>204.900000000000006</ele>
        <time>2015-04-07T11:07:51Z</time>
      </trkpt>
      <trkpt lat="47.938128970563412" lon="16.704212017357349">
        <ele>204.900000000000006</ele>
        <time>2015-04-07T11:07:52Z</time>
      </trkpt>
      <trkpt lat="47.93810298666358" lon="16.704221991822124">
        <ele>205.379999999999995</ele>
        <time>2015-04-07T11:07:53Z</time>
      </trkpt>
      <trkpt lat="47.938071973621845" lon="16.704230960458517">
        <ele>205.860000000000014</ele>
        <time>2015-04-07T11:07:54Z</time>
      </trkpt>
      <trkpt lat="47.937797969207168" lon="16.704249987378716">
        <ele>209.219999999999999</ele>
        <time>2015-04-07T11:08:06Z</time>
      </trkpt>
      <trkpt lat="47.937755975872278" lon="16.704256022349">
        <ele>210.189999999999998</ele>
        <time>2015-04-07T11:08:08Z</time>
      </trkpt>
      <trkpt lat="47.937561012804508" lon="16.704265996813774">
        <ele>213.069999999999993</ele>
        <time>2015-04-07T11:08:18Z</time>
      </trkpt>
      <trkpt lat="47.937447018921375" lon="16.704313019290566">
        <ele>214.990000000000009</ele>
        <time>2015-04-07T11:08:25Z</time>
      </trkpt>
      <trkpt lat="47.93743503279984" lon="16.704335985705256">
        <ele>214.990000000000009</ele>
        <time>2015-04-07T11:08:26Z</time>
      </trkpt>
      <trkpt lat="47.937365965917706" lon="16.704667992889881">
        <ele>216.430000000000007</ele>
        <time>2015-04-07T11:08:37Z</time>
      </trkpt>
      <trkpt lat="47.937198998406529" lon="16.705213990062475">
        <ele>215.469999999999999</ele>
        <time>2015-04-07T11:08:50Z</time>
      </trkpt>
      <trkpt lat="47.937115011736751" lon="16.705481959506869">
        <ele>214.509999999999991</ele>
        <time>2015-04-07T11:08:55Z</time>
      </trkpt>
      <trkpt lat="47.936928011476994" lon="16.706142034381628">
        <ele>211.150000000000006</ele>
        <time>2015-04-07T11:09:04Z</time>
      </trkpt>
      <trkpt lat="47.936817035079002" lon="16.706851981580257">
        <ele>207.300000000000011</ele>
        <time>2015-04-07T11:09:10Z</time>
      </trkpt>
      <trkpt lat="47.936717960983515" lon="16.707722023129463">
        <ele>203.939999999999998</ele>
        <time>2015-04-07T11:09:17Z</time>
      </trkpt>
      <trkpt lat="47.936648977920413" lon="16.708289980888367">
        <ele>202.97999999999999</ele>
        <time>2015-04-07T11:09:23Z</time>
      </trkpt>
      <trkpt lat="47.936626011505723" lon="16.708344966173172">
        <ele>202.009999999999991</ele>
        <time>2015-04-07T11:09:24Z</time>
      </trkpt>
      <trkpt lat="47.936584018170834" lon="16.70836097560823">
        <ele>201.530000000000001</ele>
        <time>2015-04-07T11:09:25Z</time>
      </trkpt>
      <trkpt lat="47.93653498403728" lon="16.708340020850301">
        <ele>201.050000000000011</ele>
        <time>2015-04-07T11:09:26Z</time>
      </trkpt>
      <trkpt lat="47.936485027894378" lon="16.708287969231606">
        <ele>201.050000000000011</ele>
        <time>2015-04-07T11:09:27Z</time>
      </trkpt>
      <trkpt lat="47.936440017074347" lon="16.708225021138787">
        <ele>201.530000000000001</ele>
        <time>2015-04-07T11:09:28Z</time>
      </trkpt>
      <trkpt lat="47.936394000425935" lon="16.708153020590544">
        <ele>200.569999999999993</ele>
        <time>2015-04-07T11:09:29Z</time>
      </trkpt>
      <trkpt lat="47.936352007091045" lon="16.708089988678694">
        <ele>200.569999999999993</ele>
        <time>2015-04-07T11:09:30Z</time>
      </trkpt>
      <trkpt lat="47.935969959944487" lon="16.707548014819622">
        <ele>197.689999999999998</ele>
        <time>2015-04-07T11:09:38Z</time>
      </trkpt>
      <trkpt lat="47.935859989374876" lon="16.707403007894754">
        <ele>196.72999999999999</ele>
        <time>2015-04-07T11:09:40Z</time>
      </trkpt>
      <trkpt lat="47.935650022700429" lon="16.707106037065387">
        <ele>195.280000000000001</ele>
        <time>2015-04-07T11:09:44Z</time>
      </trkpt>
      <trkpt lat="47.935303011909127" lon="16.706634974107146">
        <ele>191.919999999999987</ele>
        <time>2015-04-07T11:09:50Z</time>
      </trkpt>
      <trkpt lat="47.934661963954568" lon="16.705743977800012">
        <ele>188.080000000000013</ele>
        <time>2015-04-07T11:10:01Z</time>
      </trkpt>
      <trkpt lat="47.934601027518511" lon="16.705666026100516">
        <ele>187.590000000000003</ele>
        <time>2015-04-07T11:10:02Z</time>
      </trkpt>
      <trkpt lat="47.934540007263422" lon="16.705584973096848">
        <ele>187.110000000000014</ele>
        <time>2015-04-07T11:10:03Z</time>
      </trkpt>
      <trkpt lat="47.933726962655783" lon="16.704445034265518">
        <ele>186.629999999999995</ele>
        <time>2015-04-07T11:10:18Z</time>
      </trkpt>
      <trkpt lat="47.933013997972012" lon="16.703416993841529">
        <ele>185.189999999999998</ele>
        <time>2015-04-07T11:10:33Z</time>
      </trkpt>
      <trkpt lat="47.932780981063843" lon="16.703136032447219">
        <ele>185.669999999999987</ele>
        <time>2015-04-07T11:10:38Z</time>
      </trkpt>
      <trkpt lat="47.932734964415431" lon="16.703082975000143">
        <ele>185.669999999999987</ele>
        <time>2015-04-07T11:10:39Z</time>
      </trkpt>
      <trkpt lat="47.932692971080542" lon="16.703025978058577">
        <ele>185.669999999999987</ele>
        <time>2015-04-07T11:10:40Z</time>
      </trkpt>
      <trkpt lat="47.931960979476571" lon="16.70200196094811">
        <ele>184.710000000000008</ele>
        <time>2015-04-07T11:10:57Z</time>
      </trkpt>
      <trkpt lat="47.931625032797456" lon="16.701563000679016">
        <ele>183.75</ele>
        <time>2015-04-07T11:11:04Z</time>
      </trkpt>
      <trkpt lat="47.931583039462566" lon="16.701494017615914">
        <ele>183.27000000000001</ele>
        <time>2015-04-07T11:11:05Z</time>
      </trkpt>
      <trkpt lat="47.93109898455441" lon="16.700726989656687">
        <ele>181.830000000000013</ele>
        <time>2015-04-07T11:11:16Z</time>
      </trkpt>
      <trkpt lat="47.93043103069067" lon="16.700043026357889">
        <ele>179.900000000000006</ele>
        <time>2015-04-07T11:11:29Z</time>
      </trkpt>
      <trkpt lat="47.929943036288023" lon="16.699854014441371">
        <ele>177.5</ele>
        <time>2015-04-07T11:11:36Z</time>
      </trkpt>
      <trkpt lat="47.929020021110773" lon="16.699515972286463">
        <ele>174.620000000000005</ele>
        <time>2015-04-07T11:11:48Z</time>
      </trkpt>
      <trkpt lat="47.927836999297142" lon="16.699088998138905">
        <ele>171.72999999999999</ele>
        <time>2015-04-07T11:12:04Z</time>
      </trkpt>
      <trkpt lat="47.926975004374981" lon="16.698869979009032">
        <ele>170.77000000000001</ele>
        <time>2015-04-07T11:12:17Z</time>
      </trkpt>
      <trkpt lat="47.926391959190369" lon="16.698544006794691">
        <ele>170.77000000000001</ele>
        <time>2015-04-07T11:12:27Z</time>
      </trkpt>
      <trkpt lat="47.925693998113275" lon="16.698158020153642">
        <ele>167.409999999999997</ele>
        <time>2015-04-07T11:12:39Z</time>
      </trkpt>
      <trkpt lat="47.925559971481562" lon="16.698088031262159">
        <ele>166.449999999999989</ele>
        <time>2015-04-07T11:12:41Z</time>
      </trkpt>
      <trkpt lat="47.92533902451396" lon="16.697987029328942">
        <ele>165.960000000000008</ele>
        <time>2015-04-07T11:12:45Z</time>
      </trkpt>
      <trkpt lat="47.925288984552026" lon="16.697991974651814">
        <ele>165.47999999999999</ele>
        <time>2015-04-07T11:12:46Z</time>
      </trkpt>
      <trkpt lat="47.925242967903614" lon="16.698011001572013">
        <ele>165</ele>
        <time>2015-04-07T11:12:47Z</time>
      </trkpt>
      <trkpt lat="47.925194017589092" lon="16.698040002956986">
        <ele>165.960000000000008</ele>
        <time>2015-04-07T11:12:48Z</time>
      </trkpt>
      <trkpt lat="47.925148000940681" lon="16.698081996291876">
        <ele>165.960000000000008</ele>
        <time>2015-04-07T11:12:49Z</time>
      </trkpt>
      <trkpt lat="47.925097960978746" lon="16.698130024597049">
        <ele>165.960000000000008</ele>
        <time>2015-04-07T11:12:50Z</time>
      </trkpt>
      <trkpt lat="47.924582976847887" lon="16.698653977364302">
        <ele>161.159999999999997</ele>
        <time>2015-04-07T11:12:59Z</time>
      </trkpt>
      <trkpt lat="47.924191039055586" lon="16.699042981490493">
        <ele>158.27000000000001</ele>
        <time>2015-04-07T11:13:05Z</time>
      </trkpt>
      <trkpt lat="47.923732968047261" lon="16.699502980336547">
        <ele>154.909999999999997</ele>
        <time>2015-04-07T11:13:12Z</time>
      </trkpt>
      <trkpt lat="47.923549991101027" lon="16.699674976989627">
        <ele>153.469999999999999</ele>
        <time>2015-04-07T11:13:15Z</time>
      </trkpt>
      <trkpt lat="47.923481008037925" lon="16.699697021394968">
        <ele>152.990000000000009</ele>
        <time>2015-04-07T11:13:16Z</time>
      </trkpt>
      <trkpt lat="47.923412024974823" lon="16.699699033051729">
        <ele>152.990000000000009</ele>
        <time>2015-04-07T11:13:17Z</time>
      </trkpt>
      <trkpt lat="47.923340024426579" lon="16.699686041101813">
        <ele>152.990000000000009</ele>
        <time>2015-04-07T11:13:18Z</time>
      </trkpt>
      <trkpt lat="47.923271041363478" lon="16.69966097921133">
        <ele>153.469999999999999</ele>
        <time>2015-04-07T11:13:19Z</time>
      </trkpt>
      <trkpt lat="47.923205997794867" lon="16.699634995311499">
        <ele>152.990000000000009</ele>
        <time>2015-04-07T11:13:20Z</time>
      </trkpt>
      <trkpt lat="47.923138020560145" lon="16.699608005583286">
        <ele>152.990000000000009</ele>
        <time>2015-04-07T11:13:21Z</time>
      </trkpt>
      <trkpt lat="47.923072976991534" lon="16.699570035561919">
        <ele>152.990000000000009</ele>
        <time>2015-04-07T11:13:22Z</time>
      </trkpt>
      <trkpt lat="47.923015980049968" lon="16.699524018913507">
        <ele>152.509999999999991</ele>
        <time>2015-04-07T11:13:23Z</time>
      </trkpt>
      <trkpt lat="47.922966023907065" lon="16.699475990608335">
        <ele>152.990000000000009</ele>
        <time>2015-04-07T11:13:24Z</time>
      </trkpt>
      <trkpt lat="47.922924030572176" lon="16.699425028637052">
        <ele>152.509999999999991</ele>
        <time>2015-04-07T11:13:25Z</time>
      </trkpt>
      <trkpt lat="47.922878013923764" lon="16.699369037523866">
        <ele>152.509999999999991</ele>
        <time>2015-04-07T11:13:26Z</time>
      </trkpt>
      <trkpt lat="47.922667963430285" lon="16.69903602451086">
        <ele>152.509999999999991</ele>
        <time>2015-04-07T11:13:32Z</time>
      </trkpt>
      <trkpt lat="47.92252304032445" lon="16.698702005669475">
        <ele>152.509999999999991</ele>
        <time>2015-04-07T11:13:37Z</time>
      </trkpt>
      <trkpt lat="47.922276025637984" lon="16.69819800183177">
        <ele>151.539999999999992</ele>
        <time>2015-04-07T11:13:44Z</time>
      </trkpt>
      <trkpt lat="47.921516038477421" lon="16.697232993319631">
        <ele>148.659999999999997</ele>
        <time>2015-04-07T11:14:00Z</time>
      </trkpt>
      <trkpt lat="47.921124016866088" lon="16.696858992800117">
        <ele>144.819999999999993</ele>
        <time>2015-04-07T11:14:06Z</time>
      </trkpt>
      <trkpt lat="47.921055033802986" lon="16.696804007515311">
        <ele>144.819999999999993</ele>
        <time>2015-04-07T11:14:07Z</time>
      </trkpt>
      <trkpt lat="47.920391019433737" lon="16.696388013660908">
        <ele>141.449999999999989</ele>
        <time>2015-04-07T11:14:16Z</time>
      </trkpt>
      <trkpt lat="47.920257998630404" lon="16.696259016171098">
        <ele>140.490000000000009</ele>
        <time>2015-04-07T11:14:18Z</time>
      </trkpt>
      <trkpt lat="47.920017018914223" lon="16.695991968736053">
        <ele>139.530000000000001</ele>
        <time>2015-04-07T11:14:22Z</time>
      </trkpt>
      <trkpt lat="47.919254014268517" lon="16.695088986307383">
        <ele>137.129999999999995</ele>
        <time>2015-04-07T11:14:35Z</time>
      </trkpt>
      <trkpt lat="47.918601986020803" lon="16.694315001368523">
        <ele>138.569999999999993</ele>
        <time>2015-04-07T11:14:50Z</time>
      </trkpt>
      <trkpt lat="47.917895978316665" lon="16.693527018651366">
        <ele>138.569999999999993</ele>
        <time>2015-04-07T11:15:07Z</time>
      </trkpt>
      <trkpt lat="47.917849961668253" lon="16.693479996174574">
        <ele>138.090000000000003</ele>
        <time>2015-04-07T11:15:08Z</time>
      </trkpt>
      <trkpt lat="47.917808974161744" lon="16.69342802837491">
        <ele>137.610000000000014</ele>
        <time>2015-04-07T11:15:09Z</time>
      </trkpt>
      <trkpt lat="47.917542010545731" lon="16.693158969283104">
        <ele>138.569999999999993</ele>
        <time>2015-04-07T11:15:16Z</time>
      </trkpt>
      <trkpt lat="47.917106989771128" lon="16.692734006792307">
        <ele>140.009999999999991</ele>
        <time>2015-04-07T11:15:29Z</time>
      </trkpt>
      <trkpt lat="47.916842959821224" lon="16.69243804179132">
        <ele>140.969999999999999</ele>
        <time>2015-04-07T11:15:41Z</time>
      </trkpt>
      <trkpt lat="47.916836002841592" lon="16.692412979900837">
        <ele>137.610000000000014</ele>
        <time>2015-04-07T11:15:45Z</time>
      </trkpt>
      <trkpt lat="47.916836002841592" lon="16.692426977679133">
        <ele>137.610000000000014</ele>
        <time>2015-04-07T11:16:02Z</time>
      </trkpt>
      <trkpt lat="47.916836002841592" lon="16.692426977679133">
        <ele>140.969999999999999</ele>
        <time>2015-04-07T11:16:28Z</time>
      </trkpt>
      <trkpt lat="47.916836002841592" lon="16.692426977679133">
        <ele>141.449999999999989</ele>
        <time>2015-04-07T11:16:50Z</time>
      </trkpt>
      <trkpt lat="47.916828040033579" lon="16.692404011264443">
        <ele>141.449999999999989</ele>
        <time>2015-04-07T11:16:51Z</time>
      </trkpt>
      <trkpt lat="47.916813036426902" lon="16.692389007657766">
        <ele>141.449999999999989</ele>
        <time>2015-04-07T11:16:52Z</time>
      </trkpt>
      <trkpt lat="47.916798032820225" lon="16.692377021536231">
        <ele>141.449999999999989</ele>
        <time>2015-04-07T11:16:53Z</time>
      </trkpt>
      <trkpt lat="47.916782023385167" lon="16.692357994616032">
        <ele>140.969999999999999</ele>
        <time>2015-04-07T11:16:54Z</time>
      </trkpt>
      <trkpt lat="47.91676701977849" lon="16.692337039858103">
        <ele>140.969999999999999</ele>
        <time>2015-04-07T11:16:55Z</time>
      </trkpt>
      <trkpt lat="47.916752016171813" lon="16.692320024594665">
        <ele>141.449999999999989</ele>
        <time>2015-04-07T11:16:56Z</time>
      </trkpt>
      <trkpt lat="47.916737012565136" lon="16.692309966310859">
        <ele>141.449999999999989</ele>
        <time>2015-04-07T11:16:57Z</time>
      </trkpt>
      <trkpt lat="47.916721003130078" lon="16.69231197796762">
        <ele>141.449999999999989</ele>
        <time>2015-04-07T11:16:58Z</time>
      </trkpt>
      <trkpt lat="47.916415985673666" lon="16.692410968244076">
        <ele>140.969999999999999</ele>
        <time>2015-04-07T11:17:10Z</time>
      </trkpt>
      <trkpt lat="47.916050031781197" lon="16.692458996549249">
        <ele>140.490000000000009</ele>
        <time>2015-04-07T11:17:22Z</time>
      </trkpt>
      <trkpt lat="47.915767980739474" lon="16.69269603677094">
        <ele>137.610000000000014</ele>
        <time>2015-04-07T11:17:30Z</time>
      </trkpt>
      <trkpt lat="47.915721964091063" lon="16.69271900318563">
        <ele>137.610000000000014</ele>
        <time>2015-04-07T11:17:31Z</time>
      </trkpt>
      <trkpt lat="47.91567200794816" lon="16.6927429754287">
        <ele>137.610000000000014</ele>
        <time>2015-04-07T11:17:32Z</time>
      </trkpt>
      <trkpt lat="47.915626997128129" lon="16.692768037319183">
        <ele>137.610000000000014</ele>
        <time>2015-04-07T11:17:33Z</time>
      </trkpt>
      <trkpt lat="47.915577040985227" lon="16.692786980420351">
        <ele>137.129999999999995</ele>
        <time>2015-04-07T11:17:34Z</time>
      </trkpt>
      <trkpt lat="47.915523983538151" lon="16.692788992077112">
        <ele>136.159999999999997</ele>
        <time>2015-04-07T11:17:35Z</time>
      </trkpt>
      <trkpt lat="47.915470004081726" lon="16.6927620023489">
        <ele>136.159999999999997</ele>
        <time>2015-04-07T11:17:36Z</time>
      </trkpt>
      <trkpt lat="47.915428010746837" lon="16.692714979872108">
        <ele>136.159999999999997</ele>
        <time>2015-04-07T11:17:37Z</time>
      </trkpt>
      <trkpt lat="47.915386017411947" lon="16.692665023729205">
        <ele>135.680000000000007</ele>
        <time>2015-04-07T11:17:38Z</time>
      </trkpt>
      <trkpt lat="47.915298007428646" lon="16.692564021795988">
        <ele>136.639999999999986</ele>
        <time>2015-04-07T11:17:40Z</time>
      </trkpt>
      <trkpt lat="47.915233969688416" lon="16.69243804179132">
        <ele>135.199999999999989</ele>
        <time>2015-04-07T11:17:42Z</time>
      </trkpt>
      <trkpt lat="47.915215026587248" lon="16.692368974909186">
        <ele>135.199999999999989</ele>
        <time>2015-04-07T11:17:43Z</time>
      </trkpt>
      <trkpt lat="47.915226006880403" lon="16.692303009331226">
        <ele>135.680000000000007</ele>
        <time>2015-04-07T11:17:44Z</time>
      </trkpt>
      <trkpt lat="47.915252996608615" lon="16.692239977419376">
        <ele>135.199999999999989</ele>
        <time>2015-04-07T11:17:45Z</time>
      </trkpt>
      <trkpt lat="47.915278980508447" lon="16.692190021276474">
        <ele>135.199999999999989</ele>
        <time>2015-04-07T11:17:46Z</time>
      </trkpt>
      <trkpt lat="47.91554301045835" lon="16.69170998968184">
        <ele>136.639999999999986</ele>
        <time>2015-04-07T11:17:57Z</time>
      </trkpt>
      <trkpt lat="47.915797987952828" lon="16.691244039684534">
        <ele>138.569999999999993</ele>
        <time>2015-04-07T11:18:08Z</time>
      </trkpt>
      <trkpt lat="47.91582103818655" lon="16.691196011379361">
        <ele>139.050000000000011</ele>
        <time>2015-04-07T11:18:09Z</time>
      </trkpt>
      <trkpt lat="47.916022958233953" lon="16.690794015303254">
        <ele>139.530000000000001</ele>
        <time>2015-04-07T11:18:20Z</time>
      </trkpt>
      <trkpt lat="47.916218005120754" lon="16.690218010917306">
        <ele>140.969999999999999</ele>
        <time>2015-04-07T11:18:32Z</time>
      </trkpt>
      <trkpt lat="47.916348008438945" lon="16.689681988209486">
        <ele>141.449999999999989</ele>
        <time>2015-04-07T11:18:44Z</time>
      </trkpt>
      <trkpt lat="47.916496032848954" lon="16.689176978543401">
        <ele>141.930000000000007</ele>
        <time>2015-04-07T11:18:56Z</time>
      </trkpt>
      <trkpt lat="47.916683033108711" lon="16.688544983044267">
        <ele>143.370000000000005</ele>
        <time>2015-04-07T11:19:10Z</time>
      </trkpt>
      <trkpt lat="47.916698036715388" lon="16.68803402222693">
        <ele>144.340000000000003</ele>
        <time>2015-04-07T11:19:22Z</time>
      </trkpt>
      <trkpt lat="47.916598962619901" lon="16.687655998393893">
        <ele>146.740000000000009</ele>
        <time>2015-04-07T11:19:33Z</time>
      </trkpt>
      <trkpt lat="47.916451022028923" lon="16.68726297095418">
        <ele>147.699999999999989</ele>
        <time>2015-04-07T11:19:44Z</time>
      </trkpt>
      <trkpt lat="47.916556969285011" lon="16.686805989593267">
        <ele>149.620000000000005</ele>
        <time>2015-04-07T11:19:54Z</time>
      </trkpt>
      <trkpt lat="47.916758973151445" lon="16.686143986880779">
        <ele>150.580000000000013</ele>
        <time>2015-04-07T11:20:09Z</time>
      </trkpt>
      <trkpt lat="47.916930969804525" lon="16.685562031343579">
        <ele>153.469999999999999</ele>
        <time>2015-04-07T11:20:23Z</time>
      </trkpt>
      <trkpt lat="47.917060973122716" lon="16.685112006962299">
        <ele>152.990000000000009</ele>
        <time>2015-04-07T11:20:37Z</time>
      </trkpt>
      <trkpt lat="47.917216960340738" lon="16.684612026438117">
        <ele>154.909999999999997</ele>
        <time>2015-04-07T11:20:50Z</time>
      </trkpt>
      <trkpt lat="47.917418964207172" lon="16.684031998738647">
        <ele>156.830000000000013</ele>
        <time>2015-04-07T11:21:05Z</time>
      </trkpt>
      <trkpt lat="47.917572017759085" lon="16.683592032641172">
        <ele>158.75</ele>
        <time>2015-04-07T11:21:17Z</time>
      </trkpt>
      <trkpt lat="47.917717024683952" lon="16.683132033795118">
        <ele>160.199999999999989</ele>
        <time>2015-04-07T11:21:29Z</time>
      </trkpt>
      <trkpt lat="47.917847028002143" lon="16.682549994438887">
        <ele>160.680000000000007</ele>
        <time>2015-04-07T11:21:43Z</time>
      </trkpt>
      <trkpt lat="47.917941994965076" lon="16.681747008115053">
        <ele>162.599999999999994</ele>
        <time>2015-04-07T11:22:00Z</time>
      </trkpt>
      <trkpt lat="47.917992034927011" lon="16.680784011259675">
        <ele>164.039999999999992</ele>
        <time>2015-04-07T11:22:20Z</time>
      </trkpt>
      <trkpt lat="47.918049031868577" lon="16.679973984137177">
        <ele>165.47999999999999</ele>
        <time>2015-04-07T11:22:37Z</time>
      </trkpt>
      <trkpt lat="47.917892038822174" lon="16.679555978626013">
        <ele>165.960000000000008</ele>
        <time>2015-04-07T11:22:49Z</time>
      </trkpt>
      <trkpt lat="47.917769998311996" lon="16.679073013365269">
        <ele>165.960000000000008</ele>
        <time>2015-04-07T11:22:59Z</time>
      </trkpt>
      <trkpt lat="47.917614011093974" lon="16.678401958197355">
        <ele>165.960000000000008</ele>
        <time>2015-04-07T11:23:13Z</time>
      </trkpt>
      <trkpt lat="47.917464980855584" lon="16.677775997668505">
        <ele>164.52000000000001</ele>
        <time>2015-04-07T11:23:25Z</time>
      </trkpt>
      <trkpt lat="47.917418964207172" lon="16.677553039044142">
        <ele>164.039999999999992</ele>
        <time>2015-04-07T11:23:29Z</time>
      </trkpt>
      <trkpt lat="47.917267000302672" lon="16.676936969161034">
        <ele>167.409999999999997</ele>
        <time>2015-04-07T11:23:41Z</time>
      </trkpt>
      <trkpt lat="47.917095003649592" lon="16.676199026405811">
        <ele>167.409999999999997</ele>
        <time>2015-04-07T11:23:57Z</time>
      </trkpt>
      <trkpt lat="47.916943039745092" lon="16.675626961514354">
        <ele>169.330000000000013</ele>
        <time>2015-04-07T11:24:10Z</time>
      </trkpt>
      <trkpt lat="47.916725026443601" lon="16.674835039302707">
        <ele>172.210000000000008</ele>
        <time>2015-04-07T11:24:28Z</time>
      </trkpt>
      <trkpt lat="47.91651195846498" lon="16.67404898442328">
        <ele>173.659999999999997</ele>
        <time>2015-04-07T11:24:45Z</time>
      </trkpt>
      <trkpt lat="47.916267039254308" lon="16.673200987279415">
        <ele>174.620000000000005</ele>
        <time>2015-04-07T11:25:04Z</time>
      </trkpt>
      <trkpt lat="47.916228985413909" lon="16.673026978969574">
        <ele>174.620000000000005</ele>
        <time>2015-04-07T11:25:10Z</time>
      </trkpt>
      <trkpt lat="47.916222028434277" lon="16.6729979775846">
        <ele>175.099999999999994</ele>
        <time>2015-04-07T11:25:11Z</time>
      </trkpt>
      <trkpt lat="47.916222028434277" lon="16.672969982028008">
        <ele>178.460000000000008</ele>
        <time>2015-04-07T11:25:12Z</time>
      </trkpt>
      <trkpt lat="47.916222028434277" lon="16.672940980643034">
        <ele>175.099999999999994</ele>
        <time>2015-04-07T11:25:13Z</time>
      </trkpt>
      <trkpt lat="47.916233008727431" lon="16.672914996743202">
        <ele>175.580000000000013</ele>
        <time>2015-04-07T11:25:14Z</time>
      </trkpt>
      <trkpt lat="47.916248012334108" lon="16.672894963994622">
        <ele>175.099999999999994</ele>
        <time>2015-04-07T11:25:15Z</time>
      </trkpt>
      <trkpt lat="47.916400982066989" lon="16.672612996771932">
        <ele>175.099999999999994</ele>
        <time>2015-04-07T11:25:25Z</time>
      </trkpt>
      <trkpt lat="47.916560992598534" lon="16.672324994578958">
        <ele>175.580000000000013</ele>
        <time>2015-04-07T11:25:35Z</time>
      </trkpt>
      <trkpt lat="47.916737012565136" lon="16.672017965465784">
        <ele>177.02000000000001</ele>
        <time>2015-04-07T11:25:46Z</time>
      </trkpt>
      <trkpt lat="47.916903980076313" lon="16.671760976314545">
        <ele>179.419999999999987</ele>
        <time>2015-04-07T11:25:56Z</time>
      </trkpt>
      <trkpt lat="47.916976986452937" lon="16.671634996309876">
        <ele>179.900000000000006</ele>
        <time>2015-04-07T11:26:01Z</time>
      </trkpt>
      <trkpt lat="47.916987966746092" lon="16.671608006581664">
        <ele>179.900000000000006</ele>
        <time>2015-04-07T11:26:02Z</time>
      </trkpt>
      <trkpt lat="47.916991990059614" lon="16.671581016853452">
        <ele>179.900000000000006</ele>
        <time>2015-04-07T11:26:03Z</time>
      </trkpt>
      <trkpt lat="47.916888976469636" lon="16.671126969158649">
        <ele>181.830000000000013</ele>
        <time>2015-04-07T11:26:15Z</time>
      </trkpt>
      <trkpt lat="47.916782023385167" lon="16.670608967542648">
        <ele>182.789999999999992</ele>
        <time>2015-04-07T11:26:27Z</time>
      </trkpt>
      <trkpt lat="47.916695019230247" lon="16.66985702700913">
        <ele>184.710000000000008</ele>
        <time>2015-04-07T11:26:43Z</time>
      </trkpt>
      <trkpt lat="47.91659502312541" lon="16.66906401515007">
        <ele>186.629999999999995</ele>
        <time>2015-04-07T11:27:00Z</time>
      </trkpt>
      <trkpt lat="47.916462002322078" lon="16.66828902438283">
        <ele>188.560000000000002</ele>
        <time>2015-04-07T11:27:19Z</time>
      </trkpt>
      <trkpt lat="47.9163589887321" lon="16.667846962809563">
        <ele>190.47999999999999</ele>
        <time>2015-04-07T11:27:31Z</time>
      </trkpt>
      <trkpt lat="47.916103005409241" lon="16.667267018929124">
        <ele>191.439999999999998</ele>
        <time>2015-04-07T11:27:47Z</time>
      </trkpt>
      <trkpt lat="47.916004015132785" lon="16.666777012869716">
        <ele>193.360000000000014</ele>
        <time>2015-04-07T11:28:01Z</time>
      </trkpt>
      <trkpt lat="47.91584400460124" lon="16.666176030412316">
        <ele>194.800000000000011</ele>
        <time>2015-04-07T11:28:16Z</time>
      </trkpt>
      <trkpt lat="47.91564904153347" lon="16.665602037683129">
        <ele>196.72999999999999</ele>
        <time>2015-04-07T11:28:32Z</time>
      </trkpt>
      <trkpt lat="47.915378976613283" lon="16.665127035230398">
        <ele>193.840000000000003</ele>
        <time>2015-04-07T11:28:45Z</time>
      </trkpt>
      <trkpt lat="47.915336983278394" lon="16.665061991661787">
        <ele>193.840000000000003</ele>
        <time>2015-04-07T11:28:46Z</time>
      </trkpt>
      <trkpt lat="47.915160963311791" lon="16.664764015004039">
        <ele>191.919999999999987</ele>
        <time>2015-04-07T11:28:50Z</time>
      </trkpt>
      <trkpt lat="47.914928030222654" lon="16.664267973974347">
        <ele>188.560000000000002</ele>
        <time>2015-04-07T11:28:55Z</time>
      </trkpt>
      <trkpt lat="47.91474899277091" lon="16.663971003144979">
        <ele>185.669999999999987</ele>
        <time>2015-04-07T11:28:58Z</time>
      </trkpt>
      <trkpt lat="47.914561992511153" lon="16.66367101483047">
        <ele>184.22999999999999</ele>
        <time>2015-04-07T11:29:01Z</time>
      </trkpt>
      <trkpt lat="47.914219005033374" lon="16.663067014887929">
        <ele>187.590000000000003</ele>
        <time>2015-04-07T11:29:09Z</time>
      </trkpt>
      <trkpt lat="47.914192015305161" lon="16.663020998239517">
        <ele>187.590000000000003</ele>
        <time>2015-04-07T11:29:10Z</time>
      </trkpt>
      <trkpt lat="47.91412403807044" lon="16.662917984649539">
        <ele>188.560000000000002</ele>
        <time>2015-04-07T11:29:13Z</time>
      </trkpt>
      <trkpt lat="47.914093025028706" lon="16.662873979657888">
        <ele>189.039999999999992</ele>
        <time>2015-04-07T11:29:15Z</time>
      </trkpt>
      <trkpt lat="47.914073998108506" lon="16.662862999364734">
        <ele>189.039999999999992</ele>
        <time>2015-04-07T11:29:16Z</time>
      </trkpt>
      <trkpt lat="47.914051031693816" lon="16.662851013243198">
        <ele>186.629999999999995</ele>
        <time>2015-04-07T11:29:17Z</time>
      </trkpt>
      <trkpt lat="47.91399403475225" lon="16.66285696439445">
        <ele>190.47999999999999</ele>
        <time>2015-04-07T11:29:20Z</time>
      </trkpt>
      <trkpt lat="47.913960004225373" lon="16.662882026284933">
        <ele>187.110000000000014</ele>
        <time>2015-04-07T11:29:23Z</time>
      </trkpt>
      <trkpt lat="47.913928991183639" lon="16.662924019619823">
        <ele>186.150000000000006</ele>
        <time>2015-04-07T11:29:38Z</time>
      </trkpt>
      <trkpt lat="47.913807034492493" lon="16.663095010444522">
        <ele>183.75</ele>
        <time>2015-04-07T11:29:42Z</time>
      </trkpt>
      <trkpt lat="47.913711983710527" lon="16.663188971579075">
        <ele>183.75</ele>
        <time>2015-04-07T11:29:44Z</time>
      </trkpt>
      <trkpt lat="47.913647023960948" lon="16.663201963528991">
        <ele>182.789999999999992</ele>
        <time>2015-04-07T11:29:45Z</time>
      </trkpt>
      <trkpt lat="47.913581980392337" lon="16.663175979629159">
        <ele>182.789999999999992</ele>
        <time>2015-04-07T11:29:46Z</time>
      </trkpt>
      <trkpt lat="47.91352498345077" lon="16.663115965202451">
        <ele>182.789999999999992</ele>
        <time>2015-04-07T11:29:47Z</time>
      </trkpt>
      <trkpt lat="47.913478966802359" lon="16.663038013502955">
        <ele>182.310000000000002</ele>
        <time>2015-04-07T11:29:48Z</time>
      </trkpt>
      <trkpt lat="47.913445020094514" lon="16.662952015176415">
        <ele>181.830000000000013</ele>
        <time>2015-04-07T11:29:49Z</time>
      </trkpt>
      <trkpt lat="47.913409983739257" lon="16.662862999364734">
        <ele>181.830000000000013</ele>
        <time>2015-04-07T11:29:50Z</time>
      </trkpt>
      <trkpt lat="47.91337201371789" lon="16.662774989381433">
        <ele>181.349999999999994</ele>
        <time>2015-04-07T11:29:51Z</time>
      </trkpt>
      <trkpt lat="47.912917966023088" lon="16.661772010847926">
        <ele>179.900000000000006</ele>
        <time>2015-04-07T11:30:05Z</time>
      </trkpt>
      <trkpt lat="47.912758039310575" lon="16.661506975069642">
        <ele>177.97999999999999</ele>
        <time>2015-04-07T11:30:09Z</time>
      </trkpt>
      <trkpt lat="47.91270799934864" lon="16.661448972299695">
        <ele>177.5</ele>
        <time>2015-04-07T11:30:10Z</time>
      </trkpt>
      <trkpt lat="47.912646979093552" lon="16.661413013935089">
        <ele>177.02000000000001</ele>
        <time>2015-04-07T11:30:11Z</time>
      </trkpt>
      <trkpt lat="47.912582019343972" lon="16.661411002278328">
        <ele>176.539999999999992</ele>
        <time>2015-04-07T11:30:12Z</time>
      </trkpt>
      <trkpt lat="47.912517981603742" lon="16.661444026976824">
        <ele>175.580000000000013</ele>
        <time>2015-04-07T11:30:13Z</time>
      </trkpt>
      <trkpt lat="47.912456961348653" lon="16.661497000604868">
        <ele>175.099999999999994</ele>
        <time>2015-04-07T11:30:14Z</time>
      </trkpt>
      <trkpt lat="47.912392001599073" lon="16.661553997546434">
        <ele>175.099999999999994</ele>
        <time>2015-04-07T11:30:15Z</time>
      </trkpt>
      <trkpt lat="47.912188991904259" lon="16.661710990592837">
        <ele>173.659999999999997</ele>
        <time>2015-04-07T11:30:18Z</time>
      </trkpt>
      <trkpt lat="47.912112968042493" lon="16.661718031391501">
        <ele>172.689999999999998</ele>
        <time>2015-04-07T11:30:19Z</time>
      </trkpt>
      <trkpt lat="47.912040967494249" lon="16.661688024178147">
        <ele>172.210000000000008</ele>
        <time>2015-04-07T11:30:20Z</time>
      </trkpt>
      <trkpt lat="47.911980031058192" lon="16.661624992266297">
        <ele>172.689999999999998</ele>
        <time>2015-04-07T11:30:21Z</time>
      </trkpt>
      <trkpt lat="47.911919010803103" lon="16.661550980061293">
        <ele>172.210000000000008</ele>
        <time>2015-04-07T11:30:22Z</time>
      </trkpt>
      <trkpt lat="47.911853967234492" lon="16.66147998534143">
        <ele>172.210000000000008</ele>
        <time>2015-04-07T11:30:23Z</time>
      </trkpt>
      <trkpt lat="47.911789007484913" lon="16.661420976743102">
        <ele>171.25</ele>
        <time>2015-04-07T11:30:24Z</time>
      </trkpt>
      <trkpt lat="47.9116549808532" lon="16.661319974809885">
        <ele>170.77000000000001</ele>
        <time>2015-04-07T11:30:26Z</time>
      </trkpt>
      <trkpt lat="47.911593960598111" lon="16.661263983696699">
        <ele>170.289999999999992</ele>
        <time>2015-04-07T11:30:27Z</time>
      </trkpt>
      <trkpt lat="47.911533024162054" lon="16.661191983148456">
        <ele>169.330000000000013</ele>
        <time>2015-04-07T11:30:28Z</time>
      </trkpt>
      <trkpt lat="47.911491030827165" lon="16.661103973165154">
        <ele>168.849999999999994</ele>
        <time>2015-04-07T11:30:29Z</time>
      </trkpt>
      <trkpt lat="47.911468986421824" lon="16.66100699454546">
        <ele>168.849999999999994</ele>
        <time>2015-04-07T11:30:30Z</time>
      </trkpt>
      <trkpt lat="47.911468986421824" lon="16.660912027582526">
        <ele>169.330000000000013</ele>
        <time>2015-04-07T11:30:31Z</time>
      </trkpt>
      <trkpt lat="47.911483990028501" lon="16.660822005942464">
        <ele>169.810000000000002</ele>
        <time>2015-04-07T11:30:32Z</time>
      </trkpt>
      <trkpt lat="47.911521960049868" lon="16.660580020397902">
        <ele>170.77000000000001</ele>
        <time>2015-04-07T11:30:35Z</time>
      </trkpt>
      <trkpt lat="47.911530006676912" lon="16.660509025678039">
        <ele>171.25</ele>
        <time>2015-04-07T11:30:36Z</time>
      </trkpt>
      <trkpt lat="47.911521960049868" lon="16.66029897518456">
        <ele>173.169999999999987</ele>
        <time>2015-04-07T11:30:40Z</time>
      </trkpt>
      <trkpt lat="47.911491030827165" lon="16.660199984908104">
        <ele>174.139999999999986</ele>
        <time>2015-04-07T11:30:43Z</time>
      </trkpt>
      <trkpt lat="47.911464963108301" lon="16.660144999623299">
        <ele>174.620000000000005</ele>
        <time>2015-04-07T11:30:45Z</time>
      </trkpt>
      <trkpt lat="47.911270000040531" lon="16.659845011308789">
        <ele>176.060000000000002</ele>
        <time>2015-04-07T11:30:56Z</time>
      </trkpt>
      <trkpt lat="47.911082999780774" lon="16.659618029370904">
        <ele>175.580000000000013</ele>
        <time>2015-04-07T11:31:04Z</time>
      </trkpt>
      <trkpt lat="47.91105299256742" lon="16.659616017714143">
        <ele>176.060000000000002</ele>
        <time>2015-04-07T11:31:05Z</time>
      </trkpt>
      <trkpt lat="47.911021979525685" lon="16.659621968865395">
        <ele>175.580000000000013</ele>
        <time>2015-04-07T11:31:06Z</time>
      </trkpt>
      <trkpt lat="47.911003036424518" lon="16.659618029370904">
        <ele>175.580000000000013</ele>
        <time>2015-04-07T11:31:07Z</time>
      </trkpt>
      <trkpt lat="47.910994989797473" lon="16.659613000229001">
        <ele>176.060000000000002</ele>
        <time>2015-04-07T11:31:19Z</time>
      </trkpt>
      <trkpt lat="47.910994989797473" lon="16.659613000229001">
        <ele>174.620000000000005</ele>
        <time>2015-04-07T11:31:36Z</time>
      </trkpt>
      <trkpt lat="47.910994989797473" lon="16.65961098857224">
        <ele>174.139999999999986</ele>
        <time>2015-04-07T11:32:04Z</time>
      </trkpt>
      <trkpt lat="47.910994989797473" lon="16.65961098857224">
        <ele>175.099999999999994</ele>
        <time>2015-04-07T11:32:25Z</time>
      </trkpt>
      <trkpt lat="47.910999013110995" lon="16.659608976915479">
        <ele>174.620000000000005</ele>
        <time>2015-04-07T11:32:48Z</time>
      </trkpt>
      <trkpt lat="47.910999013110995" lon="16.659605037420988">
        <ele>175.580000000000013</ele>
        <time>2015-04-07T11:33:16Z</time>
      </trkpt>
      <trkpt lat="47.910999013110995" lon="16.659605037420988">
        <ele>175.580000000000013</ele>
        <time>2015-04-07T11:33:43Z</time>
      </trkpt>
      <trkpt lat="47.910988032817841" lon="16.659599002450705">
        <ele>175.099999999999994</ele>
        <time>2015-04-07T11:33:44Z</time>
      </trkpt>
      <trkpt lat="47.910973029211164" lon="16.659593973308802">
        <ele>174.620000000000005</ele>
        <time>2015-04-07T11:33:45Z</time>
      </trkpt>
      <trkpt lat="47.910957019776106" lon="16.65958802215755">
        <ele>175.099999999999994</ele>
        <time>2015-04-07T11:33:46Z</time>
      </trkpt>
      <trkpt lat="47.910946039482951" lon="16.659579975530505">
        <ele>175.099999999999994</ele>
        <time>2015-04-07T11:33:47Z</time>
      </trkpt>
      <trkpt lat="47.910918965935707" lon="16.659562960267067">
        <ele>174.620000000000005</ele>
        <time>2015-04-07T11:33:56Z</time>
      </trkpt>
      <trkpt lat="47.910907985642552" lon="16.659553991630673">
        <ele>174.139999999999986</ele>
        <time>2015-04-07T11:33:57Z</time>
      </trkpt>
      <trkpt lat="47.910891976207495" lon="16.659542005509138">
        <ele>174.139999999999986</ele>
        <time>2015-04-07T11:33:58Z</time>
      </trkpt>
      <trkpt lat="47.910873033106327" lon="16.659527001902461">
        <ele>174.620000000000005</ele>
        <time>2015-04-07T11:33:59Z</time>
      </trkpt>
      <trkpt lat="47.910850988700986" lon="16.659500012174249">
        <ele>174.620000000000005</ele>
        <time>2015-04-07T11:34:00Z</time>
      </trkpt>
      <trkpt lat="47.910656025633216" lon="16.659278981387615">
        <ele>174.139999999999986</ele>
        <time>2015-04-07T11:34:06Z</time>
      </trkpt>
      <trkpt lat="47.910621995106339" lon="16.659231036901474">
        <ele>173.659999999999997</ele>
        <time>2015-04-07T11:34:07Z</time>
      </trkpt>
      <trkpt lat="47.910469025373459" lon="16.659017968922853">
        <ele>172.689999999999998</ele>
        <time>2015-04-07T11:34:11Z</time>
      </trkpt>
      <trkpt lat="47.910423008725047" lon="16.658963989466429">
        <ele>173.659999999999997</ele>
        <time>2015-04-07T11:34:12Z</time>
      </trkpt>
      <trkpt lat="47.910141041502357" lon="16.658559981733561">
        <ele>169.810000000000002</ele>
        <time>2015-04-07T11:34:19Z</time>
      </trkpt>
      <trkpt lat="47.909664027392864" lon="16.657954975962639">
        <ele>168.849999999999994</ele>
        <time>2015-04-07T11:34:29Z</time>
      </trkpt>
      <trkpt lat="47.90884000249207" lon="16.656951997429132">
        <ele>169.330000000000013</ele>
        <time>2015-04-07T11:34:46Z</time>
      </trkpt>
      <trkpt lat="47.907973984256387" lon="16.656016996130347">
        <ele>168.849999999999994</ele>
        <time>2015-04-07T11:35:03Z</time>
      </trkpt>
      <trkpt lat="47.907402003183961" lon="16.655038995668292">
        <ele>168.370000000000005</ele>
        <time>2015-04-07T11:35:17Z</time>
      </trkpt>
      <trkpt lat="47.906784005463123" lon="16.654231986030936">
        <ele>169.330000000000013</ele>
        <time>2015-04-07T11:35:32Z</time>
      </trkpt>
      <trkpt lat="47.906685015186667" lon="16.654064012691379">
        <ele>169.330000000000013</ele>
        <time>2015-04-07T11:35:35Z</time>
      </trkpt>
      <trkpt lat="47.906128037720919" lon="16.653215009719133">
        <ele>171.25</ele>
        <time>2015-04-07T11:35:51Z</time>
      </trkpt>
      <trkpt lat="47.905971966683865" lon="16.652969000861049">
        <ele>171.72999999999999</ele>
        <time>2015-04-07T11:35:56Z</time>
      </trkpt>
      <trkpt lat="47.905548010021448" lon="16.652389978989959">
        <ele>173.659999999999997</ele>
        <time>2015-04-07T11:36:10Z</time>
      </trkpt>
      <trkpt lat="47.90512103587389" lon="16.652076998725533">
        <ele>172.689999999999998</ele>
        <time>2015-04-07T11:36:21Z</time>
      </trkpt>
      <trkpt lat="47.905070995911956" lon="16.652040034532547">
        <ele>173.169999999999987</ele>
        <time>2015-04-07T11:36:22Z</time>
      </trkpt>
      <trkpt lat="47.905021961778402" lon="16.651997035369277">
        <ele>172.689999999999998</ele>
        <time>2015-04-07T11:36:23Z</time>
      </trkpt>
      <trkpt lat="47.904976028949022" lon="16.651949007064104">
        <ele>172.210000000000008</ele>
        <time>2015-04-07T11:36:24Z</time>
      </trkpt>
      <trkpt lat="47.904930012300611" lon="16.651897039264441">
        <ele>172.689999999999998</ele>
        <time>2015-04-07T11:36:25Z</time>
      </trkpt>
      <trkpt lat="47.904563974589109" lon="16.651483979076147">
        <ele>171.72999999999999</ele>
        <time>2015-04-07T11:36:33Z</time>
      </trkpt>
      <trkpt lat="47.903950000181794" lon="16.650834968313575">
        <ele>174.620000000000005</ele>
        <time>2015-04-07T11:36:46Z</time>
      </trkpt>
      <trkpt lat="47.903278023004532" lon="16.650024019181728">
        <ele>172.210000000000008</ele>
        <time>2015-04-07T11:37:00Z</time>
      </trkpt>
      <trkpt lat="47.902751974761486" lon="16.649479027837515">
        <ele>171.72999999999999</ele>
        <time>2015-04-07T11:37:11Z</time>
      </trkpt>
      <trkpt lat="47.902714004740119" lon="16.649425970390439">
        <ele>171.72999999999999</ele>
        <time>2015-04-07T11:37:12Z</time>
      </trkpt>
      <trkpt lat="47.901904983446002" lon="16.648573027923703">
        <ele>171.25</ele>
        <time>2015-04-07T11:37:31Z</time>
      </trkpt>
      <trkpt lat="47.901798030361533" lon="16.648492980748415">
        <ele>171.25</ele>
        <time>2015-04-07T11:37:33Z</time>
      </trkpt>
      <trkpt lat="47.901702979579568" lon="16.648393990471959">
        <ele>171.25</ele>
        <time>2015-04-07T11:37:35Z</time>
      </trkpt>
      <trkpt lat="47.901649000123143" lon="16.64835199713707">
        <ele>170.77000000000001</ele>
        <time>2015-04-07T11:37:36Z</time>
      </trkpt>
      <trkpt lat="47.900860011577606" lon="16.647712960839272">
        <ele>169.810000000000002</ele>
        <time>2015-04-07T11:37:52Z</time>
      </trkpt>
      <trkpt lat="47.900532027706504" lon="16.647540964186192">
        <ele>169.330000000000013</ele>
        <time>2015-04-07T11:37:59Z</time>
      </trkpt>
      <trkpt lat="47.900414010509849" lon="16.647448008880019">
        <ele>168.849999999999994</ele>
        <time>2015-04-07T11:38:02Z</time>
      </trkpt>
      <trkpt lat="47.900378974154592" lon="16.647404003888369">
        <ele>168.849999999999994</ele>
        <time>2015-04-07T11:38:03Z</time>
      </trkpt>
      <trkpt lat="47.90031099691987" lon="16.647313982248306">
        <ele>169.810000000000002</ele>
        <time>2015-04-07T11:38:05Z</time>
      </trkpt>
      <trkpt lat="47.900284007191658" lon="16.647261008620262">
        <ele>169.810000000000002</ele>
        <time>2015-04-07T11:38:06Z</time>
      </trkpt>
      <trkpt lat="47.900261040776968" lon="16.647203005850315">
        <ele>169.810000000000002</ele>
        <time>2015-04-07T11:38:07Z</time>
      </trkpt>
      <trkpt lat="47.900248970836401" lon="16.647140979766846">
        <ele>169.330000000000013</ele>
        <time>2015-04-07T11:38:08Z</time>
      </trkpt>
      <trkpt lat="47.900230027735233" lon="16.647076020017266">
        <ele>169.330000000000013</ele>
        <time>2015-04-07T11:38:09Z</time>
      </trkpt>
      <trkpt lat="47.900040009990335" lon="16.645926022902131">
        <ele>169.810000000000002</ele>
        <time>2015-04-07T11:38:26Z</time>
      </trkpt>
      <trkpt lat="47.900028023868799" lon="16.645858967676759">
        <ele>169.330000000000013</ele>
        <time>2015-04-07T11:38:27Z</time>
      </trkpt>
      <trkpt lat="47.89996700361371" lon="16.645395029336214">
        <ele>172.689999999999998</ele>
        <time>2015-04-07T11:38:34Z</time>
      </trkpt>
      <trkpt lat="47.899952000007033" lon="16.645281035453081">
        <ele>173.169999999999987</ele>
        <time>2015-04-07T11:38:36Z</time>
      </trkpt>
      <trkpt lat="47.899936996400356" lon="16.645224038511515">
        <ele>172.689999999999998</ele>
        <time>2015-04-07T11:38:37Z</time>
      </trkpt>
      <trkpt lat="47.899714959785342" lon="16.64465700276196">
        <ele>174.620000000000005</ele>
        <time>2015-04-07T11:38:50Z</time>
      </trkpt>
      <trkpt lat="47.89949401281774" lon="16.644267998635769">
        <ele>176.539999999999992</ele>
        <time>2015-04-07T11:39:01Z</time>
      </trkpt>
      <trkpt lat="47.899211961776018" lon="16.643856028094888">
        <ele>176.060000000000002</ele>
        <time>2015-04-07T11:39:12Z</time>
      </trkpt>
      <trkpt lat="47.898826980963349" lon="16.6431940253824">
        <ele>178.939999999999998</ele>
        <time>2015-04-07T11:39:29Z</time>
      </trkpt>
      <trkpt lat="47.89876202121377" lon="16.643014987930655">
        <ele>179.419999999999987</ele>
        <time>2015-04-07T11:39:39Z</time>
      </trkpt>
      <trkpt lat="47.898566974326968" lon="16.64272497408092">
        <ele>177.5</ele>
        <time>2015-04-07T11:39:47Z</time>
      </trkpt>
      <trkpt lat="47.898502014577389" lon="16.642642999067903">
        <ele>177.97999999999999</ele>
        <time>2015-04-07T11:39:49Z</time>
      </trkpt>
      <trkpt lat="47.898383997380733" lon="16.642202027142048">
        <ele>177.02000000000001</ele>
        <time>2015-04-07T11:40:01Z</time>
      </trkpt>
      <trkpt lat="47.898395983502269" lon="16.642183000221848">
        <ele>176.539999999999992</ele>
        <time>2015-04-07T11:40:02Z</time>
      </trkpt>
      <trkpt lat="47.898410987108946" lon="16.642160033807158">
        <ele>177.5</ele>
        <time>2015-04-07T11:40:03Z</time>
      </trkpt>
      <trkpt lat="47.89841802790761" lon="16.642141006886959">
        <ele>177.5</ele>
        <time>2015-04-07T11:40:04Z</time>
      </trkpt>
      <trkpt lat="47.898421967402101" lon="16.642119968309999">
        <ele>177.97999999999999</ele>
        <time>2015-04-07T11:40:05Z</time>
      </trkpt>
      <trkpt lat="47.89841802790761" lon="16.64209901355207">
        <ele>177.97999999999999</ele>
        <time>2015-04-07T11:40:06Z</time>
      </trkpt>
      <trkpt lat="47.89841802790761" lon="16.64207998663187">
        <ele>177.97999999999999</ele>
        <time>2015-04-07T11:40:07Z</time>
      </trkpt>
      <trkpt lat="47.898425990715623" lon="16.642060959711671">
        <ele>177.5</ele>
        <time>2015-04-07T11:40:08Z</time>
      </trkpt>
      <trkpt lat="47.8984409943223" lon="16.642049979418516">
        <ele>178.460000000000008</ele>
        <time>2015-04-07T11:40:21Z</time>
      </trkpt>
      <trkpt lat="47.898452980443835" lon="16.642037993296981">
        <ele>177.5</ele>
        <time>2015-04-07T11:40:27Z</time>
      </trkpt>
      <trkpt lat="47.898467984050512" lon="16.642027013003826">
        <ele>177.97999999999999</ele>
        <time>2015-04-07T11:40:28Z</time>
      </trkpt>
      <trkpt lat="47.898478964343667" lon="16.642015026882291">
        <ele>177.97999999999999</ele>
        <time>2015-04-07T11:40:29Z</time>
      </trkpt>
      <trkpt lat="47.898491034284234" lon="16.642007986083627">
        <ele>178.460000000000008</ele>
        <time>2015-04-07T11:40:30Z</time>
      </trkpt>
      <trkpt lat="47.898506037890911" lon="16.642003962770104">
        <ele>178.939999999999998</ele>
        <time>2015-04-07T11:40:31Z</time>
      </trkpt>
      <trkpt lat="47.898524980992079" lon="16.64199398830533">
        <ele>178.939999999999998</ele>
        <time>2015-04-07T11:40:32Z</time>
      </trkpt>
      <trkpt lat="47.898548031225801" lon="16.641980996355414">
        <ele>179.419999999999987</ele>
        <time>2015-04-07T11:40:33Z</time>
      </trkpt>
      <trkpt lat="47.898570997640491" lon="16.641961969435215">
        <ele>179.419999999999987</ele>
        <time>2015-04-07T11:40:34Z</time>
      </trkpt>
      <trkpt lat="47.898681974038482" lon="16.641850993037224">
        <ele>176.060000000000002</ele>
        <time>2015-04-07T11:40:43Z</time>
      </trkpt>
      <trkpt lat="47.898681974038482" lon="16.641850993037224">
        <ele>181.830000000000013</ele>
        <time>2015-04-07T11:40:44Z</time>
      </trkpt>
      <trkpt lat="47.898723967373371" lon="16.641849987208843">
        <ele>183.27000000000001</ele>
        <time>2015-04-07T11:40:59Z</time>
      </trkpt>
      <trkpt lat="47.898829998448491" lon="16.641763988882303">
        <ele>185.669999999999987</ele>
        <time>2015-04-07T11:41:12Z</time>
      </trkpt>
      <trkpt lat="47.898852964863181" lon="16.641752002760768">
        <ele>187.110000000000014</ele>
        <time>2015-04-07T11:41:15Z</time>
      </trkpt>
      <trkpt lat="47.898922031745315" lon="16.641666004434228">
        <ele>189.52000000000001</ele>
        <time>2015-04-07T11:41:27Z</time>
      </trkpt>
      <trkpt lat="47.898997971788049" lon="16.641561985015869">
        <ele>192.400000000000006</ele>
        <time>2015-04-07T11:41:43Z</time>
      </trkpt>
      <trkpt lat="47.899081958457828" lon="16.641453020274639">
        <ele>192.879999999999995</ele>
        <time>2015-04-07T11:42:00Z</time>
      </trkpt>
      <trkpt lat="47.899081958457828" lon="16.641453020274639">
        <ele>196.25</ele>
        <time>2015-04-07T11:42:01Z</time>
      </trkpt>
      <trkpt lat="47.899081958457828" lon="16.641453020274639">
        <ele>196.72999999999999</ele>
        <time>2015-04-07T11:42:02Z</time>
      </trkpt>
      <trkpt lat="47.899081958457828" lon="16.641453020274639">
        <ele>197.689999999999998</ele>
        <time>2015-04-07T11:42:17Z</time>
      </trkpt>
      <trkpt lat="47.899131998419762" lon="16.64156299084425">
        <ele>199.610000000000014</ele>
        <time>2015-04-07T11:42:28Z</time>
      </trkpt>
      <trkpt lat="47.899142978712916" lon="16.641609007492661">
        <ele>199.610000000000014</ele>
        <time>2015-04-07T11:42:44Z</time>
      </trkpt>
      <trkpt lat="47.899147002026439" lon="16.641611019149423">
        <ele>199.610000000000014</ele>
        <time>2015-04-07T11:43:15Z</time>
      </trkpt>
      <trkpt lat="47.899147002026439" lon="16.641611019149423">
        <ele>198.650000000000006</ele>
        <time>2015-04-07T11:43:48Z</time>
      </trkpt>
      <trkpt lat="47.899147002026439" lon="16.6416069958359">
        <ele>198.169999999999987</ele>
        <time>2015-04-07T11:44:21Z</time>
      </trkpt>
      <trkpt lat="47.899147002026439" lon="16.641609007492661">
        <ele>197.689999999999998</ele>
        <time>2015-04-07T11:44:57Z</time>
      </trkpt>
      <trkpt lat="47.899147002026439" lon="16.641609007492661">
        <ele>197.689999999999998</ele>
        <time>2015-04-07T11:45:33Z</time>
      </trkpt>
      <trkpt lat="47.899151025339961" lon="16.641614958643913">
        <ele>197.210000000000008</ele>
        <time>2015-04-07T11:46:08Z</time>
      </trkpt>
      <trkpt lat="47.899151025339961" lon="16.641616970300674">
        <ele>197.689999999999998</ele>
        <time>2015-04-07T11:46:45Z</time>
      </trkpt>
      <trkpt lat="47.899151025339961" lon="16.641616970300674">
        <ele>195.77000000000001</ele>
        <time>2015-04-07T11:47:00Z</time>
      </trkpt>
      <trkpt lat="47.899157982319593" lon="16.641486966982484">
        <ele>194.319999999999993</ele>
        <time>2015-04-07T11:47:10Z</time>
      </trkpt>
      <trkpt lat="47.899166028946638" lon="16.641468023881316">
        <ele>194.800000000000011</ele>
        <time>2015-04-07T11:47:11Z</time>
      </trkpt>
      <trkpt lat="47.899220008403063" lon="16.641404991969466">
        <ele>194.319999999999993</ele>
        <time>2015-04-07T11:47:19Z</time>
      </trkpt>
      <trkpt lat="47.899230988696218" lon="16.641396023333073">
        <ele>194.319999999999993</ele>
        <time>2015-04-07T11:47:20Z</time>
      </trkpt>
      <trkpt lat="47.899241968989372" lon="16.641378002241254">
        <ele>193.840000000000003</ele>
        <time>2015-04-07T11:47:21Z</time>
      </trkpt>
      <trkpt lat="47.89925797842443" lon="16.641365010291338">
        <ele>193.360000000000014</ele>
        <time>2015-04-07T11:47:22Z</time>
      </trkpt>
      <trkpt lat="47.899268958717585" lon="16.6413479950279">
        <ele>193.840000000000003</ele>
        <time>2015-04-07T11:47:23Z</time>
      </trkpt>
      <trkpt lat="47.899265019223094" lon="16.641318993642926">
        <ele>194.319999999999993</ele>
        <time>2015-04-07T11:47:24Z</time>
      </trkpt>
      <trkpt lat="47.899245992302895" lon="16.641259985044599">
        <ele>193.840000000000003</ele>
        <time>2015-04-07T11:47:26Z</time>
      </trkpt>
      <trkpt lat="47.899226965382695" lon="16.641231989488006">
        <ele>192.879999999999995</ele>
        <time>2015-04-07T11:47:27Z</time>
      </trkpt>
      <trkpt lat="47.899199975654483" lon="16.64119703695178">
        <ele>193.360000000000014</ele>
        <time>2015-04-07T11:47:28Z</time>
      </trkpt>
      <trkpt lat="47.899178015068173" lon="16.641163006424904">
        <ele>192.879999999999995</ele>
        <time>2015-04-07T11:47:29Z</time>
      </trkpt>
      <trkpt lat="47.899151025339961" lon="16.641131993383169">
        <ele>193.360000000000014</ele>
        <time>2015-04-07T11:47:30Z</time>
      </trkpt>
      <trkpt lat="47.899131998419762" lon="16.641096035018563">
        <ele>192.879999999999995</ele>
        <time>2015-04-07T11:47:31Z</time>
      </trkpt>
      <trkpt lat="47.899116994813085" lon="16.641054041683674">
        <ele>193.360000000000014</ele>
        <time>2015-04-07T11:47:32Z</time>
      </trkpt>
      <trkpt lat="47.899105008691549" lon="16.64100500755012">
        <ele>193.360000000000014</ele>
        <time>2015-04-07T11:47:33Z</time>
      </trkpt>
      <trkpt lat="47.899096962064505" lon="16.640949016436934">
        <ele>193.360000000000014</ele>
        <time>2015-04-07T11:47:34Z</time>
      </trkpt>
      <trkpt lat="47.899090005084872" lon="16.640879027545452">
        <ele>191.919999999999987</ele>
        <time>2015-04-07T11:47:35Z</time>
      </trkpt>
      <trkpt lat="47.899081958457828" lon="16.640796968713403">
        <ele>191.439999999999998</ele>
        <time>2015-04-07T11:47:36Z</time>
      </trkpt>
      <trkpt lat="47.89908598177135" lon="16.64070300757885">
        <ele>190.960000000000008</ele>
        <time>2015-04-07T11:47:37Z</time>
      </trkpt>
      <trkpt lat="47.899100985378027" lon="16.640604017302394">
        <ele>190.47999999999999</ele>
        <time>2015-04-07T11:47:38Z</time>
      </trkpt>
      <trkpt lat="47.899131998419762" lon="16.640415005385876">
        <ele>189.039999999999992</ele>
        <time>2015-04-07T11:47:40Z</time>
      </trkpt>
      <trkpt lat="47.899211961776018" lon="16.640043016523123">
        <ele>187.110000000000014</ele>
        <time>2015-04-07T11:47:45Z</time>
      </trkpt>
      <trkpt lat="47.899265019223094" lon="16.639860039576888">
        <ele>185.189999999999998</ele>
        <time>2015-04-07T11:47:48Z</time>
      </trkpt>
      <trkpt lat="47.899281028658152" lon="16.63980103097856">
        <ele>184.710000000000008</ele>
        <time>2015-04-07T11:47:49Z</time>
      </trkpt>
      <trkpt lat="47.899299971759319" lon="16.639626016840339">
        <ele>181.830000000000013</ele>
        <time>2015-04-07T11:47:52Z</time>
      </trkpt>
      <trkpt lat="47.899292008951306" lon="16.639562984928489">
        <ele>181.830000000000013</ele>
        <time>2015-04-07T11:47:53Z</time>
      </trkpt>
      <trkpt lat="47.899272982031107" lon="16.639504982158542">
        <ele>180.379999999999995</ele>
        <time>2015-04-07T11:47:54Z</time>
      </trkpt>
      <trkpt lat="47.899245992302895" lon="16.639459971338511">
        <ele>179.900000000000006</ele>
        <time>2015-04-07T11:47:55Z</time>
      </trkpt>
      <trkpt lat="47.89921598508954" lon="16.639420995488763">
        <ele>179.419999999999987</ele>
        <time>2015-04-07T11:47:56Z</time>
      </trkpt>
      <trkpt lat="47.899184972047806" lon="16.639385037124157">
        <ele>178.460000000000008</ele>
        <time>2015-04-07T11:47:57Z</time>
      </trkpt>
      <trkpt lat="47.899116994813085" lon="16.639287974685431">
        <ele>178.939999999999998</ele>
        <time>2015-04-07T11:48:01Z</time>
      </trkpt>
      <trkpt lat="47.899116994813085" lon="16.639260984957218">
        <ele>177.97999999999999</ele>
        <time>2015-04-07T11:48:02Z</time>
      </trkpt>
      <trkpt lat="47.899124035611749" lon="16.639232989400625">
        <ele>177.97999999999999</ele>
        <time>2015-04-07T11:48:03Z</time>
      </trkpt>
      <trkpt lat="47.899136021733284" lon="16.639201976358891">
        <ele>177.5</ele>
        <time>2015-04-07T11:48:04Z</time>
      </trkpt>
      <trkpt lat="47.899154964834452" lon="16.639170041307807">
        <ele>177.97999999999999</ele>
        <time>2015-04-07T11:48:05Z</time>
      </trkpt>
      <trkpt lat="47.899178015068173" lon="16.639132993295789">
        <ele>177.5</ele>
        <time>2015-04-07T11:48:06Z</time>
      </trkpt>
      <trkpt lat="47.899296032264829" lon="16.6389200091362">
        <ele>181.349999999999994</ele>
        <time>2015-04-07T11:48:12Z</time>
      </trkpt>
      <trkpt lat="47.899390999227762" lon="16.638775002211332">
        <ele>179.419999999999987</ele>
        <time>2015-04-07T11:48:16Z</time>
      </trkpt>
      <trkpt lat="47.899452019482851" lon="16.638664025813341">
        <ele>179.900000000000006</ele>
        <time>2015-04-07T11:48:19Z</time>
      </trkpt>
      <trkpt lat="47.899447996169329" lon="16.638622032478452">
        <ele>179.900000000000006</ele>
        <time>2015-04-07T11:48:20Z</time>
      </trkpt>
      <trkpt lat="47.899432992562652" lon="16.638580039143562">
        <ele>180.379999999999995</ele>
        <time>2015-04-07T11:48:21Z</time>
      </trkpt>
      <trkpt lat="47.899410026147962" lon="16.638543996959925">
        <ele>180.379999999999995</ele>
        <time>2015-04-07T11:48:22Z</time>
      </trkpt>
      <trkpt lat="47.899380018934608" lon="16.638511978089809">
        <ele>179.419999999999987</ele>
        <time>2015-04-07T11:48:23Z</time>
      </trkpt>
      <trkpt lat="47.899353029206395" lon="16.638475013896823">
        <ele>179.419999999999987</ele>
        <time>2015-04-07T11:48:24Z</time>
      </trkpt>
      <trkpt lat="47.899326039478183" lon="16.638438971713185">
        <ele>179.419999999999987</ele>
        <time>2015-04-07T11:48:25Z</time>
      </trkpt>
      <trkpt lat="47.899260995909572" lon="16.638356996700168">
        <ele>178.939999999999998</ele>
        <time>2015-04-07T11:48:33Z</time>
      </trkpt>
      <trkpt lat="47.899245992302895" lon="16.638368982821703">
        <ele>179.419999999999987</ele>
        <time>2015-04-07T11:48:34Z</time>
      </trkpt>
      <trkpt lat="47.899230988696218" lon="16.638388009741902">
        <ele>179.419999999999987</ele>
        <time>2015-04-07T11:48:35Z</time>
      </trkpt>
      <trkpt lat="47.899211961776018" lon="16.638408964499831">
        <ele>178.939999999999998</ele>
        <time>2015-04-07T11:48:36Z</time>
      </trkpt>
      <trkpt lat="47.89891398511827" lon="16.638796040788293">
        <ele>177.5</ele>
        <time>2015-04-07T11:48:47Z</time>
      </trkpt>
      <trkpt lat="47.898674011230469" lon="16.639218991622329">
        <ele>176.060000000000002</ele>
        <time>2015-04-07T11:48:55Z</time>
      </trkpt>
      <trkpt lat="47.898560017347336" lon="16.639605984091759">
        <ele>175.580000000000013</ele>
        <time>2015-04-07T11:49:01Z</time>
      </trkpt>
      <trkpt lat="47.898555994033813" lon="16.639685025438666">
        <ele>176.060000000000002</ele>
        <time>2015-04-07T11:49:02Z</time>
      </trkpt>
      <trkpt lat="47.898544007912278" lon="16.63992902263999">
        <ele>172.689999999999998</ele>
        <time>2015-04-07T11:49:05Z</time>
      </trkpt>
      <trkpt lat="47.898533027619123" lon="16.640010997653008">
        <ele>172.689999999999998</ele>
        <time>2015-04-07T11:49:06Z</time>
      </trkpt>
      <trkpt lat="47.898494973778725" lon="16.640173019841313">
        <ele>171.72999999999999</ele>
        <time>2015-04-07T11:49:08Z</time>
      </trkpt>
      <trkpt lat="47.898467984050512" lon="16.640247032046318">
        <ele>171.72999999999999</ele>
        <time>2015-04-07T11:49:09Z</time>
      </trkpt>
      <trkpt lat="47.898357007652521" lon="16.6404689848423">
        <ele>170.77000000000001</ele>
        <time>2015-04-07T11:49:12Z</time>
      </trkpt>
      <trkpt lat="47.898078979924321" lon="16.640969971194863">
        <ele>169.330000000000013</ele>
        <time>2015-04-07T11:49:19Z</time>
      </trkpt>
      <trkpt lat="47.897864989936352" lon="16.64137096144259">
        <ele>168.370000000000005</ele>
        <time>2015-04-07T11:49:25Z</time>
      </trkpt>
      <trkpt lat="47.897827019914985" lon="16.641424018889666">
        <ele>167.889999999999986</ele>
        <time>2015-04-07T11:49:26Z</time>
      </trkpt>
      <trkpt lat="47.897792989388108" lon="16.641471963375807">
        <ele>167.889999999999986</ele>
        <time>2015-04-07T11:49:27Z</time>
      </trkpt>
      <trkpt lat="47.897758036851883" lon="16.64151999168098">
        <ele>167.409999999999997</ele>
        <time>2015-04-07T11:49:28Z</time>
      </trkpt>
      <trkpt lat="47.897728029638529" lon="16.641559973359108">
        <ele>167.409999999999997</ele>
        <time>2015-04-07T11:49:29Z</time>
      </trkpt>
      <trkpt lat="47.897610012441874" lon="16.64171202108264">
        <ele>167.409999999999997</ele>
        <time>2015-04-07T11:49:39Z</time>
      </trkpt>
      <trkpt lat="47.897601965814829" lon="16.64171596057713">
        <ele>166.449999999999989</ele>
        <time>2015-04-07T11:50:00Z</time>
      </trkpt>
      <trkpt lat="47.897586962208152" lon="16.641705986112356">
        <ele>165.960000000000008</ele>
        <time>2015-04-07T11:50:01Z</time>
      </trkpt>
      <trkpt lat="47.897571958601475" lon="16.641690982505679">
        <ele>166.930000000000007</ele>
        <time>2015-04-07T11:50:02Z</time>
      </trkpt>
      <trkpt lat="47.897387975826859" lon="16.641561985015869">
        <ele>168.370000000000005</ele>
        <time>2015-04-07T11:50:13Z</time>
      </trkpt>
      <trkpt lat="47.897381018847227" lon="16.641549998894334">
        <ele>168.370000000000005</ele>
        <time>2015-04-07T11:50:14Z</time>
      </trkpt>
      <trkpt lat="47.897369032725692" lon="16.641539018601179">
        <ele>167.409999999999997</ele>
        <time>2015-04-07T11:50:15Z</time>
      </trkpt>
      <trkpt lat="47.897354029119015" lon="16.641523009166121">
        <ele>167.409999999999997</ele>
        <time>2015-04-07T11:50:16Z</time>
      </trkpt>
      <trkpt lat="47.897335002198815" lon="16.641505993902683">
        <ele>166.930000000000007</ele>
        <time>2015-04-07T11:50:17Z</time>
      </trkpt>
      <trkpt lat="47.897312035784125" lon="16.641483027487993">
        <ele>167.409999999999997</ele>
        <time>2015-04-07T11:50:18Z</time>
      </trkpt>
      <trkpt lat="47.897284962236881" lon="16.641459977254272">
        <ele>166.930000000000007</ele>
        <time>2015-04-07T11:50:19Z</time>
      </trkpt>
      <trkpt lat="47.897258978337049" lon="16.64143399335444">
        <ele>166.930000000000007</ele>
        <time>2015-04-07T11:50:20Z</time>
      </trkpt>
      <trkpt lat="47.897227965295315" lon="16.641407003626227">
        <ele>166.449999999999989</ele>
        <time>2015-04-07T11:50:21Z</time>
      </trkpt>
      <trkpt lat="47.897201981395483" lon="16.641382025554776">
        <ele>167.409999999999997</ele>
        <time>2015-04-07T11:50:22Z</time>
      </trkpt>
      <trkpt lat="47.896911967545748" lon="16.641119001433253">
        <ele>170.77000000000001</ele>
        <time>2015-04-07T11:50:31Z</time>
      </trkpt>
      <trkpt lat="47.896579960361123" lon="16.640821024775505">
        <ele>171.72999999999999</ele>
        <time>2015-04-07T11:50:40Z</time>
      </trkpt>
      <trkpt lat="47.89654903113842" lon="16.640780959278345">
        <ele>171.72999999999999</ele>
        <time>2015-04-07T11:50:41Z</time>
      </trkpt>
      <trkpt lat="47.896148962900043" lon="16.640412993729115">
        <ele>171.72999999999999</ele>
        <time>2015-04-07T11:50:55Z</time>
      </trkpt>
      <trkpt lat="47.895774962380528" lon="16.640077969059348">
        <ele>173.169999999999987</ele>
        <time>2015-04-07T11:51:08Z</time>
      </trkpt>
      <trkpt lat="47.895400961861014" lon="16.63962903432548">
        <ele>174.139999999999986</ele>
        <time>2015-04-07T11:51:20Z</time>
      </trkpt>
      <trkpt lat="47.89498102851212" lon="16.638667965307832">
        <ele>175.099999999999994</ele>
        <time>2015-04-07T11:51:37Z</time>
      </trkpt>
      <trkpt lat="47.894740970805287" lon="16.638053990900517">
        <ele>175.099999999999994</ele>
        <time>2015-04-07T11:51:48Z</time>
      </trkpt>
      <trkpt lat="47.894500996917486" lon="16.637433981522918">
        <ele>175.580000000000013</ele>
        <time>2015-04-07T11:51:59Z</time>
      </trkpt>
      <trkpt lat="47.894260017201304" lon="16.636670976877213">
        <ele>177.97999999999999</ele>
        <time>2015-04-07T11:52:15Z</time>
      </trkpt>
      <trkpt lat="47.894146023318172" lon="16.636239979416132">
        <ele>180.379999999999995</ele>
        <time>2015-04-07T11:52:26Z</time>
      </trkpt>
      <trkpt lat="47.894126996397972" lon="16.636155992746353">
        <ele>180.870000000000005</ele>
        <time>2015-04-07T11:52:28Z</time>
      </trkpt>
      <trkpt lat="47.894111992791295" lon="16.636078041046858">
        <ele>179.900000000000006</ele>
        <time>2015-04-07T11:52:30Z</time>
      </trkpt>
      <trkpt lat="47.893996993079782" lon="16.635815016925335">
        <ele>183.27000000000001</ele>
        <time>2015-04-07T11:52:38Z</time>
      </trkpt>
      <trkpt lat="47.893826002255082" lon="16.635296009480953">
        <ele>182.789999999999992</ele>
        <time>2015-04-07T11:52:53Z</time>
      </trkpt>
      <trkpt lat="47.893722988665104" lon="16.634932989254594">
        <ele>181.830000000000013</ele>
        <time>2015-04-07T11:53:00Z</time>
      </trkpt>
      <trkpt lat="47.893706979230046" lon="16.634869035333395">
        <ele>181.349999999999994</ele>
        <time>2015-04-07T11:53:01Z</time>
      </trkpt>
      <trkpt lat="47.893588962033391" lon="16.634436026215553">
        <ele>182.310000000000002</ele>
        <time>2015-04-07T11:53:08Z</time>
      </trkpt>
      <trkpt lat="47.893238011747599" lon="16.633705040439963">
        <ele>183.27000000000001</ele>
        <time>2015-04-07T11:53:23Z</time>
      </trkpt>
      <trkpt lat="47.892998037859797" lon="16.633115960285068">
        <ele>184.710000000000008</ele>
        <time>2015-04-07T11:53:37Z</time>
      </trkpt>
      <trkpt lat="47.892859987914562" lon="16.632714970037341">
        <ele>184.710000000000008</ele>
        <time>2015-04-07T11:53:47Z</time>
      </trkpt>
      <trkpt lat="47.892826041206717" lon="16.632626038044691">
        <ele>188.080000000000013</ele>
        <time>2015-04-07T11:53:49Z</time>
      </trkpt>
      <trkpt lat="47.892585983499885" lon="16.631905026733875">
        <ele>185.189999999999998</ele>
        <time>2015-04-07T11:54:04Z</time>
      </trkpt>
      <trkpt lat="47.892398983240128" lon="16.631278982385993">
        <ele>184.22999999999999</ele>
        <time>2015-04-07T11:54:17Z</time>
      </trkpt>
      <trkpt lat="47.892193039879203" lon="16.630915040150285">
        <ele>181.349999999999994</ele>
        <time>2015-04-07T11:54:28Z</time>
      </trkpt>
      <trkpt lat="47.892150962725282" lon="16.630939012393355">
        <ele>181.349999999999994</ele>
        <time>2015-04-07T11:54:29Z</time>
      </trkpt>
      <trkpt lat="47.891701022163033" lon="16.631386019289494">
        <ele>178.460000000000008</ele>
        <time>2015-04-07T11:54:36Z</time>
      </trkpt>
      <trkpt lat="47.891129041090608" lon="16.632017008960247">
        <ele>176.060000000000002</ele>
        <time>2015-04-07T11:54:44Z</time>
      </trkpt>
      <trkpt lat="47.891068020835519" lon="16.632094960659742">
        <ele>176.060000000000002</ele>
        <time>2015-04-07T11:54:45Z</time>
      </trkpt>
      <trkpt lat="47.890724027529359" lon="16.632457980886102">
        <ele>172.689999999999998</ele>
        <time>2015-04-07T11:54:50Z</time>
      </trkpt>
      <trkpt lat="47.89004098623991" lon="16.632864000275731">
        <ele>170.77000000000001</ele>
        <time>2015-04-07T11:54:58Z</time>
      </trkpt>
      <trkpt lat="47.889454001560807" lon="16.63305502384901">
        <ele>168.370000000000005</ele>
        <time>2015-04-07T11:55:04Z</time>
      </trkpt>
      <trkpt lat="47.888737013563514" lon="16.633294997736812">
        <ele>165</ele>
        <time>2015-04-07T11:55:11Z</time>
      </trkpt>
      <trkpt lat="47.888332000002265" lon="16.633430030196905">
        <ele>164.039999999999992</ele>
        <time>2015-04-07T11:55:15Z</time>
      </trkpt>
      <trkpt lat="47.8870540112257" lon="16.633816016837955">
        <ele>160.680000000000007</ele>
        <time>2015-04-07T11:55:28Z</time>
      </trkpt>
      <trkpt lat="47.886383039876819" lon="16.633967980742455">
        <ele>158.27000000000001</ele>
        <time>2015-04-07T11:55:35Z</time>
      </trkpt>
      <trkpt lat="47.885242011398077" lon="16.634809020906687">
        <ele>154.909999999999997</ele>
        <time>2015-04-07T11:55:48Z</time>
      </trkpt>
      <trkpt lat="47.884906986728311" lon="16.635119989514351">
        <ele>154.430000000000007</ele>
        <time>2015-04-07T11:55:52Z</time>
      </trkpt>
      <trkpt lat="47.883765958249569" lon="16.63619002327323">
        <ele>151.060000000000002</ele>
        <time>2015-04-07T11:56:06Z</time>
      </trkpt>
      <trkpt lat="47.883026003837585" lon="16.637086970731616">
        <ele>149.139999999999986</ele>
        <time>2015-04-07T11:56:16Z</time>
      </trkpt>
      <trkpt lat="47.882174989208579" lon="16.638726973906159">
        <ele>146.259999999999991</ele>
        <time>2015-04-07T11:56:31Z</time>
      </trkpt>
      <trkpt lat="47.881462024524808" lon="16.640362031757832">
        <ele>144.819999999999993</ele>
        <time>2015-04-07T11:56:47Z</time>
      </trkpt>
      <trkpt lat="47.880935976281762" lon="16.642310991883278">
        <ele>143.370000000000005</ele>
        <time>2015-04-07T11:57:05Z</time>
      </trkpt>
      <trkpt lat="47.880917033180594" lon="16.642418028786778">
        <ele>143.849999999999994</ele>
        <time>2015-04-07T11:57:06Z</time>
      </trkpt>
      <trkpt lat="47.880919966846704" lon="16.643785033375025">
        <ele>143.370000000000005</ele>
        <time>2015-04-07T11:57:19Z</time>
      </trkpt>
      <trkpt lat="47.881007976830006" lon="16.645306013524532">
        <ele>138.569999999999993</ele>
        <time>2015-04-07T11:57:35Z</time>
      </trkpt>
      <trkpt lat="47.881012000143528" lon="16.645398968830705">
        <ele>138.569999999999993</ele>
        <time>2015-04-07T11:57:36Z</time>
      </trkpt>
      <trkpt lat="47.881088024005294" lon="16.64659297093749">
        <ele>139.050000000000011</ele>
        <time>2015-04-07T11:57:49Z</time>
      </trkpt>
      <trkpt lat="47.881088024005294" lon="16.64667896926403">
        <ele>139.530000000000001</ele>
        <time>2015-04-07T11:57:50Z</time>
      </trkpt>
      <trkpt lat="47.881110990419984" lon="16.647108038887382">
        <ele>139.530000000000001</ele>
        <time>2015-04-07T11:57:55Z</time>
      </trkpt>
      <trkpt lat="47.881106967106462" lon="16.647190013900399">
        <ele>140.009999999999991</ele>
        <time>2015-04-07T11:57:56Z</time>
      </trkpt>
      <trkpt lat="47.881100010126829" lon="16.647267965599895">
        <ele>139.530000000000001</ele>
        <time>2015-04-07T11:57:57Z</time>
      </trkpt>
      <trkpt lat="47.881076959893107" lon="16.647340971976519">
        <ele>139.530000000000001</ele>
        <time>2015-04-07T11:57:58Z</time>
      </trkpt>
      <trkpt lat="47.881046030670404" lon="16.647408027201891">
        <ele>138.090000000000003</ele>
        <time>2015-04-07T11:57:59Z</time>
      </trkpt>
      <trkpt lat="47.881007976830006" lon="16.647465024143457">
        <ele>138.569999999999993</ele>
        <time>2015-04-07T11:58:00Z</time>
      </trkpt>
      <trkpt lat="47.880961960181594" lon="16.647520009428263">
        <ele>138.090000000000003</ele>
        <time>2015-04-07T11:58:01Z</time>
      </trkpt>
      <trkpt lat="47.88090898655355" lon="16.647569965571165">
        <ele>138.090000000000003</ele>
        <time>2015-04-07T11:58:02Z</time>
      </trkpt>
      <trkpt lat="47.880856012925506" lon="16.647611958906054">
        <ele>138.090000000000003</ele>
        <time>2015-04-07T11:58:03Z</time>
      </trkpt>
      <trkpt lat="47.880794992670417" lon="16.647652024403214">
        <ele>137.610000000000014</ele>
        <time>2015-04-07T11:58:04Z</time>
      </trkpt>
      <trkpt lat="47.88073698990047" lon="16.647680019959807">
        <ele>137.610000000000014</ele>
        <time>2015-04-07T11:58:05Z</time>
      </trkpt>
      <trkpt lat="47.880679992958903" lon="16.647700974717736">
        <ele>137.129999999999995</ele>
        <time>2015-04-07T11:58:06Z</time>
      </trkpt>
      <trkpt lat="47.880622996017337" lon="16.647711033001542">
        <ele>137.610000000000014</ele>
        <time>2015-04-07T11:58:07Z</time>
      </trkpt>
      <trkpt lat="47.88056599907577" lon="16.647716984152794">
        <ele>138.090000000000003</ele>
        <time>2015-04-07T11:58:08Z</time>
      </trkpt>
      <trkpt lat="47.879566038027406" lon="16.647727964445949">
        <ele>139.050000000000011</ele>
        <time>2015-04-07T11:58:26Z</time>
      </trkpt>
      <trkpt lat="47.878799010068178" lon="16.647887974977493">
        <ele>139.050000000000011</ele>
        <time>2015-04-07T11:58:40Z</time>
      </trkpt>
      <trkpt lat="47.878399025648832" lon="16.648054020479321">
        <ele>139.530000000000001</ele>
        <time>2015-04-07T11:58:47Z</time>
      </trkpt>
      <trkpt lat="47.877501994371414" lon="16.648647040128708">
        <ele>139.050000000000011</ele>
        <time>2015-04-07T11:59:04Z</time>
      </trkpt>
      <trkpt lat="47.876506978645921" lon="16.649196976795793">
        <ele>137.129999999999995</ele>
        <time>2015-04-07T11:59:21Z</time>
      </trkpt>
      <trkpt lat="47.875595027580857" lon="16.649310970678926">
        <ele>136.159999999999997</ele>
        <time>2015-04-07T11:59:36Z</time>
      </trkpt>
      <trkpt lat="47.874561036005616" lon="16.649044007062912">
        <ele>135.680000000000007</ele>
        <time>2015-04-07T11:59:53Z</time>
      </trkpt>
      <trkpt lat="47.873992994427681" lon="16.648872010409832">
        <ele>135.199999999999989</ele>
        <time>2015-04-07T12:00:02Z</time>
      </trkpt>
      <trkpt lat="47.873935997486115" lon="16.648834040388465">
        <ele>134.719999999999999</ele>
        <time>2015-04-07T12:00:03Z</time>
      </trkpt>
      <trkpt lat="47.873877994716167" lon="16.648790035396814">
        <ele>134.719999999999999</ele>
        <time>2015-04-07T12:00:04Z</time>
      </trkpt>
      <trkpt lat="47.873825021088123" lon="16.648746030405164">
        <ele>135.199999999999989</ele>
        <time>2015-04-07T12:00:05Z</time>
      </trkpt>
      <trkpt lat="47.873768024146557" lon="16.648711999878287">
        <ele>135.199999999999989</ele>
        <time>2015-04-07T12:00:06Z</time>
      </trkpt>
      <trkpt lat="47.873702980577946" lon="16.648687021806836">
        <ele>134.240000000000009</ele>
        <time>2015-04-07T12:00:07Z</time>
      </trkpt>
      <trkpt lat="47.873633997514844" lon="16.648667994886637">
        <ele>134.240000000000009</ele>
        <time>2015-04-07T12:00:08Z</time>
      </trkpt>
      <trkpt lat="47.8735619969666" lon="16.648655002936721">
        <ele>133.280000000000001</ele>
        <time>2015-04-07T12:00:09Z</time>
      </trkpt>
      <trkpt lat="47.872519958764315" lon="16.648367000743747">
        <ele>134.240000000000009</ele>
        <time>2015-04-07T12:00:25Z</time>
      </trkpt>
      <trkpt lat="47.872398002073169" lon="16.648360965773463">
        <ele>133.759999999999991</ele>
        <time>2015-04-07T12:00:27Z</time>
      </trkpt>
      <trkpt lat="47.87233698181808" lon="16.648344034329057">
        <ele>134.240000000000009</ele>
        <time>2015-04-07T12:00:28Z</time>
      </trkpt>
      <trkpt lat="47.871582023799419" lon="16.648081010207534">
        <ele>134.240000000000009</ele>
        <time>2015-04-07T12:00:43Z</time>
      </trkpt>
      <trkpt lat="47.871250016614795" lon="16.647970033809543">
        <ele>133.759999999999991</ele>
        <time>2015-04-07T12:00:50Z</time>
      </trkpt>
      <trkpt lat="47.871203999966383" lon="16.647957041859627">
        <ele>133.759999999999991</ele>
        <time>2015-04-07T12:00:51Z</time>
      </trkpt>
      <trkpt lat="47.871043989434838" lon="16.647909013554454">
        <ele>134.240000000000009</ele>
        <time>2015-04-07T12:01:00Z</time>
      </trkpt>
      <trkpt lat="47.871033009141684" lon="16.647907001897693">
        <ele>134.240000000000009</ele>
        <time>2015-04-07T12:01:14Z</time>
      </trkpt>
      <trkpt lat="47.870967965573072" lon="16.647882023826241">
        <ele>134.719999999999999</ele>
        <time>2015-04-07T12:01:31Z</time>
      </trkpt>
      <trkpt lat="47.87061701528728" lon="16.647761994972825">
        <ele>134.719999999999999</ele>
        <time>2015-04-07T12:01:43Z</time>
      </trkpt>
      <trkpt lat="47.870575021952391" lon="16.647746991366148">
        <ele>134.719999999999999</ele>
        <time>2015-04-07T12:01:44Z</time>
      </trkpt>
      <trkpt lat="47.869945960119367" lon="16.647511040791869">
        <ele>135.680000000000007</ele>
        <time>2015-04-07T12:01:57Z</time>
      </trkpt>
      <trkpt lat="47.869761977344751" lon="16.647431999444962">
        <ele>135.680000000000007</ele>
        <time>2015-04-07T12:02:01Z</time>
      </trkpt>
      <trkpt lat="47.86971696652472" lon="16.647408027201891">
        <ele>135.680000000000007</ele>
        <time>2015-04-07T12:02:02Z</time>
      </trkpt>
      <trkpt lat="47.869484033435583" lon="16.647280035540462">
        <ele>136.159999999999997</ele>
        <time>2015-04-07T12:02:07Z</time>
      </trkpt>
      <trkpt lat="47.869442040100694" lon="16.647242987528443">
        <ele>135.680000000000007</ele>
        <time>2015-04-07T12:02:08Z</time>
      </trkpt>
      <trkpt lat="47.869007019326091" lon="16.64650697261095">
        <ele>135.680000000000007</ele>
        <time>2015-04-07T12:02:21Z</time>
      </trkpt>
      <trkpt lat="47.86891900934279" lon="16.645785961300135">
        <ele>133.759999999999991</ele>
        <time>2015-04-07T12:02:31Z</time>
      </trkpt>
      <trkpt lat="47.868655985221267" lon="16.645323028787971">
        <ele>133.759999999999991</ele>
        <time>2015-04-07T12:02:40Z</time>
      </trkpt>
      <trkpt lat="47.868229011073709" lon="16.645417995750904">
        <ele>134.240000000000009</ele>
        <time>2015-04-07T12:02:48Z</time>
      </trkpt>
      <trkpt lat="47.868033964186907" lon="16.645779004320502">
        <ele>133.280000000000001</ele>
        <time>2015-04-07T12:02:54Z</time>
      </trkpt>
      <trkpt lat="47.868027007207274" lon="16.646029036492109">
        <ele>132.800000000000011</ele>
        <time>2015-04-07T12:02:57Z</time>
      </trkpt>
      <trkpt lat="47.867907984182239" lon="16.646481994539499">
        <ele>133.280000000000001</ele>
        <time>2015-04-07T12:03:03Z</time>
      </trkpt>
      <trkpt lat="47.867870014160872" lon="16.646537985652685">
        <ele>133.280000000000001</ele>
        <time>2015-04-07T12:03:04Z</time>
      </trkpt>
      <trkpt lat="47.86782500334084" lon="16.646579978987575">
        <ele>133.280000000000001</ele>
        <time>2015-04-07T12:03:05Z</time>
      </trkpt>
      <trkpt lat="47.867774963378906" lon="16.64661199785769">
        <ele>133.759999999999991</ele>
        <time>2015-04-07T12:03:06Z</time>
      </trkpt>
      <trkpt lat="47.867725007236004" lon="16.64663496427238">
        <ele>133.280000000000001</ele>
        <time>2015-04-07T12:03:07Z</time>
      </trkpt>
      <trkpt lat="47.867668010294437" lon="16.646651979535818">
        <ele>133.280000000000001</ele>
        <time>2015-04-07T12:03:08Z</time>
      </trkpt>
      <trkpt lat="47.867611013352871" lon="16.646662037819624">
        <ele>133.280000000000001</ele>
        <time>2015-04-07T12:03:09Z</time>
      </trkpt>
      <trkpt lat="47.867549993097782" lon="16.646660026162863">
        <ele>133.280000000000001</ele>
        <time>2015-04-07T12:03:10Z</time>
      </trkpt>
      <trkpt lat="47.867492996156216" lon="16.646645022556186">
        <ele>133.280000000000001</ele>
        <time>2015-04-07T12:03:11Z</time>
      </trkpt>
      <trkpt lat="47.867434993386269" lon="16.646625995635986">
        <ele>132.800000000000011</ele>
        <time>2015-04-07T12:03:12Z</time>
      </trkpt>
      <trkpt lat="47.866459004580975" lon="16.64626901037991">
        <ele>131.840000000000003</ele>
        <time>2015-04-07T12:03:31Z</time>
      </trkpt>
      <trkpt lat="47.865752996876836" lon="16.645998023450375">
        <ele>131.840000000000003</ele>
        <time>2015-04-07T12:03:46Z</time>
      </trkpt>
      <trkpt lat="47.865715026855469" lon="16.645949995145202">
        <ele>132.319999999999993</ele>
        <time>2015-04-07T12:03:47Z</time>
      </trkpt>
      <trkpt lat="47.865607989951968" lon="16.645804988220334">
        <ele>131.360000000000014</ele>
        <time>2015-04-07T12:03:50Z</time>
      </trkpt>
      <trkpt lat="47.865565996617079" lon="16.645769029855728">
        <ele>131.840000000000003</ele>
        <time>2015-04-07T12:03:51Z</time>
      </trkpt>
      <trkpt lat="47.865524003282189" lon="16.645745979622006">
        <ele>131.840000000000003</ele>
        <time>2015-04-07T12:03:52Z</time>
      </trkpt>
      <trkpt lat="47.865478992462158" lon="16.645741034299135">
        <ele>131.360000000000014</ele>
        <time>2015-04-07T12:03:53Z</time>
      </trkpt>
      <trkpt lat="47.865432975813746" lon="16.645750002935529">
        <ele>131.840000000000003</ele>
        <time>2015-04-07T12:03:54Z</time>
      </trkpt>
      <trkpt lat="47.865390982478857" lon="16.645767018198967">
        <ele>131.840000000000003</ele>
        <time>2015-04-07T12:03:55Z</time>
      </trkpt>
      <trkpt lat="47.865348989143968" lon="16.645781015977263">
        <ele>131.360000000000014</ele>
        <time>2015-04-07T12:03:56Z</time>
      </trkpt>
      <trkpt lat="47.865302972495556" lon="16.645776992663741">
        <ele>131.840000000000003</ele>
        <time>2015-04-07T12:03:57Z</time>
      </trkpt>
      <trkpt lat="47.865260979160666" lon="16.645756037905812">
        <ele>131.360000000000014</ele>
        <time>2015-04-07T12:03:58Z</time>
      </trkpt>
      <trkpt lat="47.865211023017764" lon="16.645742040127516">
        <ele>131.360000000000014</ele>
        <time>2015-04-07T12:03:59Z</time>
      </trkpt>
      <trkpt lat="47.865161988884211" lon="16.645745979622006">
        <ele>130.879999999999995</ele>
        <time>2015-04-07T12:04:00Z</time>
      </trkpt>
      <trkpt lat="47.865108009427786" lon="16.645762994885445">
        <ele>131.360000000000014</ele>
        <time>2015-04-07T12:04:01Z</time>
      </trkpt>
      <trkpt lat="47.865055035799742" lon="16.645782021805644">
        <ele>130.879999999999995</ele>
        <time>2015-04-07T12:04:02Z</time>
      </trkpt>
      <trkpt lat="47.865001978352666" lon="16.645789984613657">
        <ele>131.360000000000014</ele>
        <time>2015-04-07T12:04:03Z</time>
      </trkpt>
      <trkpt lat="47.864943975582719" lon="16.645785961300135">
        <ele>130.879999999999995</ele>
        <time>2015-04-07T12:04:04Z</time>
      </trkpt>
      <trkpt lat="47.864886978641152" lon="16.645776992663741">
        <ele>130.400000000000006</ele>
        <time>2015-04-07T12:04:05Z</time>
      </trkpt>
      <trkpt lat="47.864838028326631" lon="16.645762994885445">
        <ele>130.879999999999995</ele>
        <time>2015-04-07T12:04:06Z</time>
      </trkpt>
      <trkpt lat="47.86393404006958" lon="16.645468035712838">
        <ele>128.949999999999989</ele>
        <time>2015-04-07T12:04:22Z</time>
      </trkpt>
      <trkpt lat="47.862929971888661" lon="16.645114989951253">
        <ele>127.510000000000005</ele>
        <time>2015-04-07T12:04:39Z</time>
      </trkpt>
      <trkpt lat="47.862082980573177" lon="16.644644010812044">
        <ele>127.030000000000001</ele>
        <time>2015-04-07T12:04:54Z</time>
      </trkpt>
      <trkpt lat="47.861412009224296" lon="16.643696017563343">
        <ele>127.989999999999995</ele>
        <time>2015-04-07T12:05:11Z</time>
      </trkpt>
      <trkpt lat="47.861000038683414" lon="16.643122024834156">
        <ele>127.510000000000005</ele>
        <time>2015-04-07T12:05:22Z</time>
      </trkpt>
      <trkpt lat="47.860385980457067" lon="16.642075041308999">
        <ele>127.030000000000001</ele>
        <time>2015-04-07T12:05:40Z</time>
      </trkpt>
      <trkpt lat="47.859866973012686" lon="16.64115303196013">
        <ele>127.510000000000005</ele>
        <time>2015-04-07T12:05:57Z</time>
      </trkpt>
      <trkpt lat="47.859439998865128" lon="16.640289025381207">
        <ele>127.989999999999995</ele>
        <time>2015-04-07T12:06:15Z</time>
      </trkpt>
      <trkpt lat="47.859428012743592" lon="16.640195986256003">
        <ele>128.949999999999989</ele>
        <time>2015-04-07T12:06:18Z</time>
      </trkpt>
      <trkpt lat="47.859435975551605" lon="16.64016698487103">
        <ele>128.469999999999999</ele>
        <time>2015-04-07T12:06:19Z</time>
      </trkpt>
      <trkpt lat="47.859455002471805" lon="16.640142006799579">
        <ele>128.469999999999999</ele>
        <time>2015-04-07T12:06:20Z</time>
      </trkpt>
      <trkpt lat="47.859474029392004" lon="16.640119962394238">
        <ele>127.510000000000005</ele>
        <time>2015-04-07T12:06:21Z</time>
      </trkpt>
      <trkpt lat="47.859492972493172" lon="16.640089033171535">
        <ele>127.989999999999995</ele>
        <time>2015-04-07T12:06:22Z</time>
      </trkpt>
      <trkpt lat="47.859866973012686" lon="16.639533983543515">
        <ele>127.989999999999995</ele>
        <time>2015-04-07T12:06:38Z</time>
      </trkpt>
      <trkpt lat="47.860228987410665" lon="16.63898304104805">
        <ele>127.989999999999995</ele>
        <time>2015-04-07T12:06:53Z</time>
      </trkpt>
      <trkpt lat="47.860618997365236" lon="16.638354985043406">
        <ele>127.510000000000005</ele>
        <time>2015-04-07T12:07:10Z</time>
      </trkpt>
      <trkpt lat="47.86094999872148" lon="16.63782499730587">
        <ele>129.919999999999987</ele>
        <time>2015-04-07T12:07:24Z</time>
      </trkpt>
      <trkpt lat="47.861282005906105" lon="16.637259973213077">
        <ele>128.469999999999999</ele>
        <time>2015-04-07T12:07:40Z</time>
      </trkpt>
      <trkpt lat="47.861064998432994" lon="16.63677197881043">
        <ele>129.430000000000007</ele>
        <time>2015-04-07T12:07:51Z</time>
      </trkpt>
      <trkpt lat="47.860695021227002" lon="16.636047028005123">
        <ele>129.919999999999987</ele>
        <time>2015-04-07T12:08:06Z</time>
      </trkpt>
      <trkpt lat="47.860084986314178" lon="16.634845985099673">
        <ele>129.919999999999987</ele>
        <time>2015-04-07T12:08:28Z</time>
      </trkpt>
      <trkpt lat="47.859604032710195" lon="16.633895980194211">
        <ele>130.879999999999995</ele>
        <time>2015-04-07T12:08:45Z</time>
      </trkpt>
      <trkpt lat="47.859305972233415" lon="16.633297009393573">
        <ele>131.840000000000003</ele>
        <time>2015-04-07T12:08:57Z</time>
      </trkpt>
      <trkpt lat="47.858856031671166" lon="16.632395032793283">
        <ele>131.840000000000003</ele>
        <time>2015-04-07T12:09:15Z</time>
      </trkpt>
      <trkpt lat="47.85850097425282" lon="16.631667986512184">
        <ele>131.360000000000014</ele>
        <time>2015-04-07T12:09:31Z</time>
      </trkpt>
      <trkpt lat="47.858047010377049" lon="16.63075796328485">
        <ele>131.360000000000014</ele>
        <time>2015-04-07T12:09:49Z</time>
      </trkpt>
      <trkpt lat="47.857764959335327" lon="16.63015597499907">
        <ele>133.280000000000001</ele>
        <time>2015-04-07T12:10:03Z</time>
      </trkpt>
      <trkpt lat="47.857590029016137" lon="16.629809970036149">
        <ele>135.680000000000007</ele>
        <time>2015-04-07T12:10:14Z</time>
      </trkpt>
      <trkpt lat="47.857376039028168" lon="16.629395987838507">
        <ele>138.090000000000003</ele>
        <time>2015-04-07T12:10:26Z</time>
      </trkpt>
      <trkpt lat="47.857128018513322" lon="16.628877986222506">
        <ele>140.490000000000009</ele>
        <time>2015-04-07T12:10:39Z</time>
      </trkpt>
      <trkpt lat="47.856936994940042" lon="16.628442965447903">
        <ele>140.490000000000009</ele>
        <time>2015-04-07T12:10:50Z</time>
      </trkpt>
      <trkpt lat="47.856887960806489" lon="16.628358978778124">
        <ele>140.490000000000009</ele>
        <time>2015-04-07T12:11:00Z</time>
      </trkpt>
      <trkpt lat="47.856887960806489" lon="16.628358978778124">
        <ele>140.969999999999999</ele>
        <time>2015-04-07T12:11:19Z</time>
      </trkpt>
      <trkpt lat="47.856887960806489" lon="16.628356967121363">
        <ele>140.009999999999991</ele>
        <time>2015-04-07T12:11:45Z</time>
      </trkpt>
      <trkpt lat="47.856887960806489" lon="16.628356967121363">
        <ele>141.449999999999989</ele>
        <time>2015-04-07T12:12:14Z</time>
      </trkpt>
      <trkpt lat="47.856891984120011" lon="16.628358978778124">
        <ele>140.009999999999991</ele>
        <time>2015-04-07T12:12:46Z</time>
      </trkpt>
      <trkpt lat="47.856895001605153" lon="16.628360990434885">
        <ele>140.009999999999991</ele>
        <time>2015-04-07T12:13:09Z</time>
      </trkpt>
      <trkpt lat="47.856895001605153" lon="16.628304999321699">
        <ele>140.490000000000009</ele>
        <time>2015-04-07T12:13:14Z</time>
      </trkpt>
      <trkpt lat="47.856891984120011" lon="16.62828303873539">
        <ele>140.009999999999991</ele>
        <time>2015-04-07T12:13:15Z</time>
      </trkpt>
      <trkpt lat="47.856884021311998" lon="16.62826300598681">
        <ele>140.490000000000009</ele>
        <time>2015-04-07T12:13:16Z</time>
      </trkpt>
      <trkpt lat="47.856646981090307" lon="16.627828991040587">
        <ele>140.490000000000009</ele>
        <time>2015-04-07T12:13:29Z</time>
      </trkpt>
      <trkpt lat="47.856620997190475" lon="16.627777023240924">
        <ele>140.969999999999999</ele>
        <time>2015-04-07T12:13:30Z</time>
      </trkpt>
      <trkpt lat="47.856297036632895" lon="16.627184003591537">
        <ele>139.050000000000011</ele>
        <time>2015-04-07T12:13:41Z</time>
      </trkpt>
      <trkpt lat="47.856269963085651" lon="16.627133963629603">
        <ele>138.569999999999993</ele>
        <time>2015-04-07T12:13:42Z</time>
      </trkpt>
      <trkpt lat="47.856212966144085" lon="16.627031033858657">
        <ele>137.610000000000014</ele>
        <time>2015-04-07T12:13:44Z</time>
      </trkpt>
      <trkpt lat="47.855965029448271" lon="16.626399960368872">
        <ele>135.680000000000007</ele>
        <time>2015-04-07T12:13:58Z</time>
      </trkpt>
      <trkpt lat="47.856079023331404" lon="16.626284038648009">
        <ele>135.680000000000007</ele>
        <time>2015-04-07T12:14:02Z</time>
      </trkpt>
      <trkpt lat="47.856121016666293" lon="16.626246990635991">
        <ele>135.680000000000007</ele>
        <time>2015-04-07T12:14:03Z</time>
      </trkpt>
      <trkpt lat="47.856163010001183" lon="16.626209020614624">
        <ele>136.159999999999997</ele>
        <time>2015-04-07T12:14:04Z</time>
      </trkpt>
      <trkpt lat="47.856277003884315" lon="16.626091003417969">
        <ele>135.680000000000007</ele>
        <time>2015-04-07T12:14:07Z</time>
      </trkpt>
      <trkpt lat="47.856704983860254" lon="16.625453978776932">
        <ele>134.240000000000009</ele>
        <time>2015-04-07T12:14:23Z</time>
      </trkpt>
      <trkpt lat="47.856625020503998" lon="16.625217022374272">
        <ele>134.240000000000009</ele>
        <time>2015-04-07T12:14:27Z</time>
      </trkpt>
      <trkpt lat="47.856583027169108" lon="16.625160025432706">
        <ele>134.240000000000009</ele>
        <time>2015-04-07T12:14:28Z</time>
      </trkpt>
      <trkpt lat="47.856532987207174" lon="16.625110991299152">
        <ele>134.240000000000009</ele>
        <time>2015-04-07T12:14:29Z</time>
      </trkpt>
      <trkpt lat="47.856486970558763" lon="16.625064974650741">
        <ele>133.759999999999991</ele>
        <time>2015-04-07T12:14:30Z</time>
      </trkpt>
      <trkpt lat="47.856441037729383" lon="16.625019041821361">
        <ele>133.759999999999991</ele>
        <time>2015-04-07T12:14:31Z</time>
      </trkpt>
      <trkpt lat="47.856396026909351" lon="16.624973025172949">
        <ele>133.759999999999991</ele>
        <time>2015-04-07T12:14:32Z</time>
      </trkpt>
      <trkpt lat="47.85588095895946" lon="16.624228041619062">
        <ele>133.280000000000001</ele>
        <time>2015-04-07T12:14:47Z</time>
      </trkpt>
      <trkpt lat="47.855804013088346" lon="16.624118993058801">
        <ele>134.240000000000009</ele>
        <time>2015-04-07T12:14:49Z</time>
      </trkpt>
      <trkpt lat="47.855739975348115" lon="16.624003993347287">
        <ele>133.280000000000001</ele>
        <time>2015-04-07T12:14:51Z</time>
      </trkpt>
      <trkpt lat="47.855700999498367" lon="16.623958982527256">
        <ele>133.280000000000001</ele>
        <time>2015-04-07T12:14:52Z</time>
      </trkpt>
      <trkpt lat="47.855663029477" lon="16.623926041647792">
        <ele>133.280000000000001</ele>
        <time>2015-04-07T12:14:53Z</time>
      </trkpt>
      <trkpt lat="47.855628998950124" lon="16.623897962272167">
        <ele>133.759999999999991</ele>
        <time>2015-04-07T12:14:54Z</time>
      </trkpt>
      <trkpt lat="47.855597985908389" lon="16.623867033049464">
        <ele>133.280000000000001</ele>
        <time>2015-04-07T12:14:55Z</time>
      </trkpt>
      <trkpt lat="47.855572002008557" lon="16.623833002522588">
        <ele>133.280000000000001</ele>
        <time>2015-04-07T12:14:56Z</time>
      </trkpt>
      <trkpt lat="47.855549035593867" lon="16.623796038329601">
        <ele>133.280000000000001</ele>
        <time>2015-04-07T12:14:57Z</time>
      </trkpt>
      <trkpt lat="47.855308977887034" lon="16.623306032270193">
        <ele>132.319999999999993</ele>
        <time>2015-04-07T12:15:08Z</time>
      </trkpt>
      <trkpt lat="47.854927014559507" lon="16.622686022892594">
        <ele>132.319999999999993</ele>
        <time>2015-04-07T12:15:21Z</time>
      </trkpt>
      <trkpt lat="47.854771027341485" lon="16.622445965185761">
        <ele>133.280000000000001</ele>
        <time>2015-04-07T12:15:26Z</time>
      </trkpt>
      <trkpt lat="47.85428998991847" lon="16.621682960540056">
        <ele>134.240000000000009</ele>
        <time>2015-04-07T12:15:41Z</time>
      </trkpt>
      <trkpt lat="47.854179013520479" lon="16.621506018564105">
        <ele>134.240000000000009</ele>
        <time>2015-04-07T12:15:44Z</time>
      </trkpt>
      <trkpt lat="47.854134002700448" lon="16.621462013572454">
        <ele>133.759999999999991</ele>
        <time>2015-04-07T12:15:45Z</time>
      </trkpt>
      <trkpt lat="47.853939039632678" lon="16.621327986940742">
        <ele>132.319999999999993</ele>
        <time>2015-04-07T12:15:49Z</time>
      </trkpt>
      <trkpt lat="47.853610971942544" lon="16.621081978082657">
        <ele>131.360000000000014</ele>
        <time>2015-04-07T12:15:56Z</time>
      </trkpt>
      <trkpt lat="47.853573001921177" lon="16.621035039424896">
        <ele>131.840000000000003</ele>
        <time>2015-04-07T12:15:57Z</time>
      </trkpt>
      <trkpt lat="47.852798011153936" lon="16.61997003480792">
        <ele>132.800000000000011</ele>
        <time>2015-04-07T12:16:18Z</time>
      </trkpt>
      <trkpt lat="47.852264000102878" lon="16.619219016283751">
        <ele>133.280000000000001</ele>
        <time>2015-04-07T12:16:34Z</time>
      </trkpt>
      <trkpt lat="47.852202979847789" lon="16.619126982986927">
        <ele>133.280000000000001</ele>
        <time>2015-04-07T12:16:36Z</time>
      </trkpt>
      <trkpt lat="47.852180013433099" lon="16.619078032672405">
        <ele>133.280000000000001</ele>
        <time>2015-04-07T12:16:37Z</time>
      </trkpt>
      <trkpt lat="47.852157969027758" lon="16.61902598105371">
        <ele>133.759999999999991</ele>
        <time>2015-04-07T12:16:38Z</time>
      </trkpt>
      <trkpt lat="47.8521419595927" lon="16.618970995768905">
        <ele>133.759999999999991</ele>
        <time>2015-04-07T12:16:39Z</time>
      </trkpt>
      <trkpt lat="47.852123016491532" lon="16.618916010484099">
        <ele>133.759999999999991</ele>
        <time>2015-04-07T12:16:40Z</time>
      </trkpt>
      <trkpt lat="47.851963005959988" lon="16.618216959759593">
        <ele>133.280000000000001</ele>
        <time>2015-04-07T12:16:52Z</time>
      </trkpt>
      <trkpt lat="47.851810036227107" lon="16.617510030046105">
        <ele>133.280000000000001</ele>
        <time>2015-04-07T12:17:04Z</time>
      </trkpt>
      <trkpt lat="47.85179503262043" lon="16.617451021447778">
        <ele>133.280000000000001</ele>
        <time>2015-04-07T12:17:05Z</time>
      </trkpt>
      <trkpt lat="47.851596968248487" lon="16.616551978513598">
        <ele>133.759999999999991</ele>
        <time>2015-04-07T12:17:21Z</time>
      </trkpt>
      <trkpt lat="47.851409967988729" lon="16.615725019946694">
        <ele>134.240000000000009</ele>
        <time>2015-04-07T12:17:36Z</time>
      </trkpt>
      <trkpt lat="47.851200001314282" lon="16.614724975079298">
        <ele>133.759999999999991</ele>
        <time>2015-04-07T12:17:54Z</time>
      </trkpt>
      <trkpt lat="47.851020963862538" lon="16.613889969885349">
        <ele>134.240000000000009</ele>
        <time>2015-04-07T12:18:09Z</time>
      </trkpt>
      <trkpt lat="47.850803034380078" lon="16.612978018820286">
        <ele>134.240000000000009</ele>
        <time>2015-04-07T12:18:25Z</time>
      </trkpt>
      <trkpt lat="47.850643023848534" lon="16.612182995304465">
        <ele>135.680000000000007</ele>
        <time>2015-04-07T12:18:41Z</time>
      </trkpt>
      <trkpt lat="47.850417969748378" lon="16.611216980963945">
        <ele>134.719999999999999</ele>
        <time>2015-04-07T12:18:59Z</time>
      </trkpt>
      <trkpt lat="47.850234992802143" lon="16.610427992418408">
        <ele>136.159999999999997</ele>
        <time>2015-04-07T12:19:16Z</time>
      </trkpt>
      <trkpt lat="47.850074982270598" lon="16.60969901829958">
        <ele>135.199999999999989</ele>
        <time>2015-04-07T12:19:32Z</time>
      </trkpt>
      <trkpt lat="47.84981899894774" lon="16.608521025627851">
        <ele>135.680000000000007</ele>
        <time>2015-04-07T12:19:55Z</time>
      </trkpt>
      <trkpt lat="47.849639961495996" lon="16.60770202986896">
        <ele>135.680000000000007</ele>
        <time>2015-04-07T12:20:10Z</time>
      </trkpt>
      <trkpt lat="47.849464025348425" lon="16.606894014403224">
        <ele>136.639999999999986</ele>
        <time>2015-04-07T12:20:25Z</time>
      </trkpt>
      <trkpt lat="47.84932698123157" lon="16.606252966448665">
        <ele>137.129999999999995</ele>
        <time>2015-04-07T12:20:41Z</time>
      </trkpt>
      <trkpt lat="47.849159007892013" lon="16.605501025915146">
        <ele>138.090000000000003</ele>
        <time>2015-04-07T12:20:59Z</time>
      </trkpt>
      <trkpt lat="47.849006960168481" lon="16.604778002947569">
        <ele>138.569999999999993</ele>
        <time>2015-04-07T12:21:15Z</time>
      </trkpt>
      <trkpt lat="47.848774027079344" lon="16.60488897934556">
        <ele>138.090000000000003</ele>
        <time>2015-04-07T12:21:23Z</time>
      </trkpt>
      <trkpt lat="47.848511002957821" lon="16.605134988203645">
        <ele>137.129999999999995</ele>
        <time>2015-04-07T12:21:29Z</time>
      </trkpt>
      <trkpt lat="47.847740035504103" lon="16.605858011171222">
        <ele>137.129999999999995</ele>
        <time>2015-04-07T12:21:47Z</time>
      </trkpt>
      <trkpt lat="47.847504001110792" lon="16.606065966188908">
        <ele>136.639999999999986</ele>
        <time>2015-04-07T12:21:53Z</time>
      </trkpt>
      <trkpt lat="47.847466031089425" lon="16.606104020029306">
        <ele>138.090000000000003</ele>
        <time>2015-04-07T12:21:54Z</time>
      </trkpt>
      <trkpt lat="47.847312977537513" lon="16.606247015297413">
        <ele>137.610000000000014</ele>
        <time>2015-04-07T12:21:58Z</time>
      </trkpt>
      <trkpt lat="47.846724987030029" lon="16.606812961399555">
        <ele>137.129999999999995</ele>
        <time>2015-04-07T12:22:11Z</time>
      </trkpt>
      <trkpt lat="47.846679976209998" lon="16.606840034946799">
        <ele>136.639999999999986</ele>
        <time>2015-04-07T12:22:12Z</time>
      </trkpt>
      <trkpt lat="47.846637982875109" lon="16.606836011633277">
        <ele>137.129999999999995</ele>
        <time>2015-04-07T12:22:13Z</time>
      </trkpt>
      <trkpt lat="47.846603030338883" lon="16.606803992763162">
        <ele>137.610000000000014</ele>
        <time>2015-04-07T12:22:14Z</time>
      </trkpt>
      <trkpt lat="47.846584003418684" lon="16.606750013306737">
        <ele>137.610000000000014</ele>
        <time>2015-04-07T12:22:15Z</time>
      </trkpt>
      <trkpt lat="47.84657696262002" lon="16.606688993051648">
        <ele>138.090000000000003</ele>
        <time>2015-04-07T12:22:16Z</time>
      </trkpt>
      <trkpt lat="47.846568999812007" lon="16.606626966968179">
        <ele>138.090000000000003</ele>
        <time>2015-04-07T12:22:17Z</time>
      </trkpt>
      <trkpt lat="47.84640496596694" lon="16.605646032840014">
        <ele>137.610000000000014</ele>
        <time>2015-04-07T12:22:33Z</time>
      </trkpt>
      <trkpt lat="47.846371019259095" lon="16.605391977354884">
        <ele>137.129999999999995</ele>
        <time>2015-04-07T12:22:37Z</time>
      </trkpt>
      <trkpt lat="47.846302036195993" lon="16.604982018470764">
        <ele>137.610000000000014</ele>
        <time>2015-04-07T12:22:44Z</time>
      </trkpt>
      <trkpt lat="47.846293989568949" lon="16.604917980730534">
        <ele>137.610000000000014</ele>
        <time>2015-04-07T12:22:45Z</time>
      </trkpt>
      <trkpt lat="47.846268005669117" lon="16.604721006006002">
        <ele>137.129999999999995</ele>
        <time>2015-04-07T12:22:48Z</time>
      </trkpt>
      <trkpt lat="47.846259959042072" lon="16.604654034599662">
        <ele>138.090000000000003</ele>
        <time>2015-04-07T12:22:49Z</time>
      </trkpt>
      <trkpt lat="47.846251996234059" lon="16.604588991031051">
        <ele>138.569999999999993</ele>
        <time>2015-04-07T12:22:50Z</time>
      </trkpt>
      <trkpt lat="47.846184018999338" lon="16.604078030213714">
        <ele>139.050000000000011</ele>
        <time>2015-04-07T12:22:58Z</time>
      </trkpt>
      <trkpt lat="47.846085028722882" lon="16.603322988376021">
        <ele>139.530000000000001</ele>
        <time>2015-04-07T12:23:12Z</time>
      </trkpt>
      <trkpt lat="47.846072958782315" lon="16.602746983990073">
        <ele>139.050000000000011</ele>
        <time>2015-04-07T12:23:25Z</time>
      </trkpt>
      <trkpt lat="47.846072958782315" lon="16.602722005918622">
        <ele>139.530000000000001</ele>
        <time>2015-04-07T12:23:26Z</time>
      </trkpt>
      <trkpt lat="47.846061978489161" lon="16.602667020633817">
        <ele>140.009999999999991</ele>
        <time>2015-04-07T12:23:33Z</time>
      </trkpt>
      <trkpt lat="47.846054015681148" lon="16.602645982056856">
        <ele>140.009999999999991</ele>
        <time>2015-04-07T12:23:34Z</time>
      </trkpt>
      <trkpt lat="47.846049992367625" lon="16.602628966793418">
        <ele>140.009999999999991</ele>
        <time>2015-04-07T12:23:35Z</time>
      </trkpt>
      <trkpt lat="47.846045969054103" lon="16.602606000378728">
        <ele>139.530000000000001</ele>
        <time>2015-04-07T12:23:36Z</time>
      </trkpt>
      <trkpt lat="47.846045969054103" lon="16.602574987336993">
        <ele>139.050000000000011</ele>
        <time>2015-04-07T12:23:37Z</time>
      </trkpt>
      <trkpt lat="47.845885958522558" lon="16.602081041783094">
        <ele>139.050000000000011</ele>
        <time>2015-04-07T12:23:49Z</time>
      </trkpt>
      <trkpt lat="47.845722008496523" lon="16.60132197663188">
        <ele>138.569999999999993</ele>
        <time>2015-04-07T12:24:04Z</time>
      </trkpt>
      <trkpt lat="47.845539031550288" lon="16.600446989759803">
        <ele>139.050000000000011</ele>
        <time>2015-04-07T12:24:20Z</time>
      </trkpt>
      <trkpt lat="47.845295034348965" lon="16.599276959896088">
        <ele>140.009999999999991</ele>
        <time>2015-04-07T12:24:41Z</time>
      </trkpt>
      <trkpt lat="47.845138963311911" lon="16.598499035462737">
        <ele>141.449999999999989</ele>
        <time>2015-04-07T12:24:56Z</time>
      </trkpt>
      <trkpt lat="47.845084983855486" lon="16.598251014947891">
        <ele>141.930000000000007</ele>
        <time>2015-04-07T12:25:02Z</time>
      </trkpt>
      <trkpt lat="47.845062017440796" lon="16.598041970282793">
        <ele>140.969999999999999</ele>
        <time>2015-04-07T12:25:13Z</time>
      </trkpt>
      <trkpt lat="47.845069980248809" lon="16.59803400747478">
        <ele>143.849999999999994</ele>
        <time>2015-04-07T12:25:18Z</time>
      </trkpt>
      <trkpt lat="47.845066040754318" lon="16.598021015524864">
        <ele>145.300000000000011</ele>
        <time>2015-04-07T12:25:27Z</time>
      </trkpt>
      <trkpt lat="47.845066040754318" lon="16.598021015524864">
        <ele>144.340000000000003</ele>
        <time>2015-04-07T12:25:29Z</time>
      </trkpt>
      <trkpt lat="47.845074003562331" lon="16.598024033010006">
        <ele>143.849999999999994</ele>
        <time>2015-04-07T12:25:43Z</time>
      </trkpt>
      <trkpt lat="47.845074003562331" lon="16.598024033010006">
        <ele>141.449999999999989</ele>
        <time>2015-04-07T12:26:02Z</time>
      </trkpt>
      <trkpt lat="47.845074003562331" lon="16.598024033010006">
        <ele>145.300000000000011</ele>
        <time>2015-04-07T12:26:16Z</time>
      </trkpt>
      <trkpt lat="47.845074003562331" lon="16.598022021353245">
        <ele>143.370000000000005</ele>
        <time>2015-04-07T12:26:19Z</time>
      </trkpt>
      <trkpt lat="47.845168970525265" lon="16.597913978621364">
        <ele>143.370000000000005</ele>
        <time>2015-04-07T12:26:26Z</time>
      </trkpt>
      <trkpt lat="47.845177017152309" lon="16.597820017486811">
        <ele>143.849999999999994</ele>
        <time>2015-04-07T12:26:29Z</time>
      </trkpt>
      <trkpt lat="47.845181040465832" lon="16.597609966993332">
        <ele>142.889999999999986</ele>
        <time>2015-04-07T12:26:37Z</time>
      </trkpt>
      <trkpt lat="47.845000997185707" lon="16.5968759637326">
        <ele>143.370000000000005</ele>
        <time>2015-04-07T12:26:54Z</time>
      </trkpt>
      <trkpt lat="47.844833023846149" lon="16.596227958798409">
        <ele>143.370000000000005</ele>
        <time>2015-04-07T12:27:06Z</time>
      </trkpt>
      <trkpt lat="47.844653986394405" lon="16.595572996884584">
        <ele>143.370000000000005</ele>
        <time>2015-04-07T12:27:19Z</time>
      </trkpt>
      <trkpt lat="47.844481989741325" lon="16.595019958913326">
        <ele>144.340000000000003</ele>
        <time>2015-04-07T12:27:32Z</time>
      </trkpt>
      <trkpt lat="47.844409989193082" lon="16.594728017225862">
        <ele>145.300000000000011</ele>
        <time>2015-04-07T12:27:37Z</time>
      </trkpt>
      <trkpt lat="47.844215026125312" lon="16.593782035633922">
        <ele>145.300000000000011</ele>
        <time>2015-04-07T12:27:53Z</time>
      </trkpt>
      <trkpt lat="47.844013022258878" lon="16.592728011310101">
        <ele>145.300000000000011</ele>
        <time>2015-04-07T12:28:11Z</time>
      </trkpt>
      <trkpt lat="47.843787968158722" lon="16.591625036671758">
        <ele>144.819999999999993</ele>
        <time>2015-04-07T12:28:29Z</time>
      </trkpt>
      <trkpt lat="47.843624018132687" lon="16.590717025101185">
        <ele>146.259999999999991</ele>
        <time>2015-04-07T12:28:45Z</time>
      </trkpt>
      <trkpt lat="47.843513041734695" lon="16.590055022388697">
        <ele>145.780000000000001</ele>
        <time>2015-04-07T12:28:58Z</time>
      </trkpt>
      <trkpt lat="47.843387983739376" lon="16.589252036064863">
        <ele>147.699999999999989</ele>
        <time>2015-04-07T12:29:14Z</time>
      </trkpt>
      <trkpt lat="47.843314977362752" lon="16.588740991428494">
        <ele>147.699999999999989</ele>
        <time>2015-04-07T12:29:26Z</time>
      </trkpt>
      <trkpt lat="47.843281030654907" lon="16.588533036410809">
        <ele>149.139999999999986</ele>
        <time>2015-04-07T12:29:31Z</time>
      </trkpt>
      <trkpt lat="47.843230990692973" lon="16.588169010356069">
        <ele>150.580000000000013</ele>
        <time>2015-04-07T12:29:41Z</time>
      </trkpt>
      <trkpt lat="47.843142980709672" lon="16.587479012086987">
        <ele>151.539999999999992</ele>
        <time>2015-04-07T12:29:57Z</time>
      </trkpt>
      <trkpt lat="47.843043990433216" lon="16.586549961939454">
        <ele>150.580000000000013</ele>
        <time>2015-04-07T12:30:15Z</time>
      </trkpt>
      <trkpt lat="47.842940976843238" lon="16.585423015058041">
        <ele>149.620000000000005</ele>
        <time>2015-04-07T12:30:32Z</time>
      </trkpt>
      <trkpt lat="47.842861013486981" lon="16.58434703014791">
        <ele>148.659999999999997</ele>
        <time>2015-04-07T12:30:48Z</time>
      </trkpt>
      <trkpt lat="47.84279303625226" lon="16.583342039957643">
        <ele>150.099999999999994</ele>
        <time>2015-04-07T12:31:06Z</time>
      </trkpt>
      <trkpt lat="47.842750959098339" lon="16.58247803337872">
        <ele>149.620000000000005</ele>
        <time>2015-04-07T12:31:21Z</time>
      </trkpt>
      <trkpt lat="47.842693040147424" lon="16.581445969641209">
        <ele>149.139999999999986</ele>
        <time>2015-04-07T12:31:37Z</time>
      </trkpt>
      <trkpt lat="47.842624979093671" lon="16.580903995782137">
        <ele>148.659999999999997</ele>
        <time>2015-04-07T12:31:45Z</time>
      </trkpt>
      <trkpt lat="47.842578962445259" lon="16.580263031646609">
        <ele>150.099999999999994</ele>
        <time>2015-04-07T12:31:55Z</time>
      </trkpt>
      <trkpt lat="47.842563958838582" lon="16.579421991482377">
        <ele>150.580000000000013</ele>
        <time>2015-04-07T12:32:09Z</time>
      </trkpt>
      <trkpt lat="47.842608969658613" lon="16.578379031270742">
        <ele>152.030000000000001</ele>
        <time>2015-04-07T12:32:26Z</time>
      </trkpt>
      <trkpt lat="47.842545015737414" lon="16.577427014708519">
        <ele>153.469999999999999</ele>
        <time>2015-04-07T12:32:44Z</time>
      </trkpt>
      <trkpt lat="47.842560019344091" lon="16.576684964820743">
        <ele>154.430000000000007</ele>
        <time>2015-04-07T12:32:59Z</time>
      </trkpt>
      <trkpt lat="47.842560019344091" lon="16.575997984036803">
        <ele>153.949999999999989</ele>
        <time>2015-04-07T12:33:14Z</time>
      </trkpt>
      <trkpt lat="47.842570999637246" lon="16.574958963319659">
        <ele>154.430000000000007</ele>
        <time>2015-04-07T12:33:34Z</time>
      </trkpt>
      <trkpt lat="47.842548033222556" lon="16.574608013033867">
        <ele>153.949999999999989</ele>
        <time>2015-04-07T12:33:48Z</time>
      </trkpt>
      <trkpt lat="47.842551972717047" lon="16.574586974456906">
        <ele>154.909999999999997</ele>
        <time>2015-04-07T12:33:49Z</time>
      </trkpt>
      <trkpt lat="47.842560019344091" lon="16.574546992778778">
        <ele>154.430000000000007</ele>
        <time>2015-04-07T12:33:51Z</time>
      </trkpt>
      <trkpt lat="47.842563958838582" lon="16.574517991393805">
        <ele>154.909999999999997</ele>
        <time>2015-04-07T12:33:52Z</time>
      </trkpt>
      <trkpt lat="47.842560019344091" lon="16.573810977861285">
        <ele>153.469999999999999</ele>
        <time>2015-04-07T12:34:08Z</time>
      </trkpt>
      <trkpt lat="47.842602012678981" lon="16.57276701182127">
        <ele>152.509999999999991</ele>
        <time>2015-04-07T12:34:25Z</time>
      </trkpt>
      <trkpt lat="47.842720029875636" lon="16.571505032479763">
        <ele>151.060000000000002</ele>
        <time>2015-04-07T12:34:44Z</time>
      </trkpt>
      <trkpt lat="47.842769986018538" lon="16.57092098146677">
        <ele>150.099999999999994</ele>
        <time>2015-04-07T12:34:55Z</time>
      </trkpt>
      <trkpt lat="47.842888003215194" lon="16.569933006539941">
        <ele>149.139999999999986</ele>
        <time>2015-04-07T12:35:12Z</time>
      </trkpt>
      <trkpt lat="47.842982970178127" lon="16.569218030199409">
        <ele>149.620000000000005</ele>
        <time>2015-04-07T12:35:26Z</time>
      </trkpt>
      <trkpt lat="47.843121020123363" lon="16.568751996383071">
        <ele>150.099999999999994</ele>
        <time>2015-04-07T12:35:37Z</time>
      </trkpt>
      <trkpt lat="47.843173993751407" lon="16.568347988650203">
        <ele>151.539999999999992</ele>
        <time>2015-04-07T12:35:49Z</time>
      </trkpt>
      <trkpt lat="47.843169970437884" lon="16.567800985649228">
        <ele>152.990000000000009</ele>
        <time>2015-04-07T12:36:02Z</time>
      </trkpt>
      <trkpt lat="47.843215987086296" lon="16.567278038710356">
        <ele>153.469999999999999</ele>
        <time>2015-04-07T12:36:15Z</time>
      </trkpt>
      <trkpt lat="47.843292010948062" lon="16.566607989370823">
        <ele>154.909999999999997</ele>
        <time>2015-04-07T12:36:28Z</time>
      </trkpt>
      <trkpt lat="47.843345990404487" lon="16.565779019147158">
        <ele>154.430000000000007</ele>
        <time>2015-04-07T12:36:45Z</time>
      </trkpt>
      <trkpt lat="47.843402987346053" lon="16.56518398784101">
        <ele>153.949999999999989</ele>
        <time>2015-04-07T12:36:59Z</time>
      </trkpt>
      <trkpt lat="47.843528967350721" lon="16.564167011529207">
        <ele>152.990000000000009</ele>
        <time>2015-04-07T12:37:19Z</time>
      </trkpt>
      <trkpt lat="47.843642961233854" lon="16.563256988301873">
        <ele>152.030000000000001</ele>
        <time>2015-04-07T12:37:37Z</time>
      </trkpt>
      <trkpt lat="47.843754021450877" lon="16.562340008094907">
        <ele>152.509999999999991</ele>
        <time>2015-04-07T12:37:54Z</time>
      </trkpt>
      <trkpt lat="47.843872038647532" lon="16.561414981260896">
        <ele>151.539999999999992</ele>
        <time>2015-04-07T12:38:12Z</time>
      </trkpt>
      <trkpt lat="47.844008998945355" lon="16.560461036860943">
        <ele>151.060000000000002</ele>
        <time>2015-04-07T12:38:31Z</time>
      </trkpt>
      <trkpt lat="47.844119975343347" lon="16.559514971449971">
        <ele>150.580000000000013</ele>
        <time>2015-04-07T12:38:48Z</time>
      </trkpt>
      <trkpt lat="47.844246039167047" lon="16.558588016778231">
        <ele>150.580000000000013</ele>
        <time>2015-04-07T12:39:04Z</time>
      </trkpt>
      <trkpt lat="47.844336982816458" lon="16.557682016864419">
        <ele>151.539999999999992</ele>
        <time>2015-04-07T12:39:21Z</time>
      </trkpt>
      <trkpt lat="47.844429016113281" lon="16.556875007227063">
        <ele>152.509999999999991</ele>
        <time>2015-04-07T12:39:38Z</time>
      </trkpt>
      <trkpt lat="47.844481989741325" lon="16.556448033079505">
        <ele>152.030000000000001</ele>
        <time>2015-04-07T12:39:48Z</time>
      </trkpt>
      <trkpt lat="47.844517026096582" lon="16.555998008698225">
        <ele>153.469999999999999</ele>
        <time>2015-04-07T12:39:59Z</time>
      </trkpt>
      <trkpt lat="47.844581985846162" lon="16.555446982383728">
        <ele>154.909999999999997</ele>
        <time>2015-04-07T12:40:12Z</time>
      </trkpt>
      <trkpt lat="47.844668990001082" lon="16.554661011323333">
        <ele>156.830000000000013</ele>
        <time>2015-04-07T12:40:30Z</time>
      </trkpt>
      <trkpt lat="47.844719029963017" lon="16.554228002205491">
        <ele>157.310000000000002</ele>
        <time>2015-04-07T12:40:41Z</time>
      </trkpt>
      <trkpt lat="47.844783989712596" lon="16.553592989221215">
        <ele>158.75</ele>
        <time>2015-04-07T12:40:55Z</time>
      </trkpt>
      <trkpt lat="47.844871999695897" lon="16.552853034809232">
        <ele>158.75</ele>
        <time>2015-04-07T12:41:10Z</time>
      </trkpt>
      <trkpt lat="47.844996973872185" lon="16.551923984661698">
        <ele>160.199999999999989</ele>
        <time>2015-04-07T12:41:30Z</time>
      </trkpt>
      <trkpt lat="47.845138963311911" lon="16.551478989422321">
        <ele>161.159999999999997</ele>
        <time>2015-04-07T12:41:43Z</time>
      </trkpt>
      <trkpt lat="47.845078026875854" lon="16.550956964492798">
        <ele>160.680000000000007</ele>
        <time>2015-04-07T12:41:56Z</time>
      </trkpt>
      <trkpt lat="47.845187997445464" lon="16.550217010080814">
        <ele>161.159999999999997</ele>
        <time>2015-04-07T12:42:11Z</time>
      </trkpt>
      <trkpt lat="47.845348007977009" lon="16.549543021246791">
        <ele>160.680000000000007</ele>
        <time>2015-04-07T12:42:25Z</time>
      </trkpt>
      <trkpt lat="47.845355970785022" lon="16.548998029902577">
        <ele>159.719999999999999</ele>
        <time>2015-04-07T12:42:38Z</time>
      </trkpt>
      <trkpt lat="47.845467031002045" lon="16.548140980303288">
        <ele>160.680000000000007</ele>
        <time>2015-04-07T12:42:57Z</time>
      </trkpt>
      <trkpt lat="47.845584964379668" lon="16.547303963452578">
        <ele>160.199999999999989</ele>
        <time>2015-04-07T12:43:15Z</time>
      </trkpt>
      <trkpt lat="47.845660988241434" lon="16.546761989593506">
        <ele>160.680000000000007</ele>
        <time>2015-04-07T12:43:29Z</time>
      </trkpt>
      <trkpt lat="47.845726031810045" lon="16.546315988525748">
        <ele>162.599999999999994</ele>
        <time>2015-04-07T12:43:40Z</time>
      </trkpt>
      <trkpt lat="47.845783028751612" lon="16.545935031026602">
        <ele>161.159999999999997</ele>
        <time>2015-04-07T12:43:52Z</time>
      </trkpt>
      <trkpt lat="47.845795014873147" lon="16.545855989679694">
        <ele>162.599999999999994</ele>
        <time>2015-04-07T12:43:54Z</time>
      </trkpt>
      <trkpt lat="47.845847988501191" lon="16.545468997210264">
        <ele>162.599999999999994</ele>
        <time>2015-04-07T12:44:05Z</time>
      </trkpt>
      <trkpt lat="47.845856035128236" lon="16.545429015532136">
        <ele>162.599999999999994</ele>
        <time>2015-04-07T12:44:06Z</time>
      </trkpt>
      <trkpt lat="47.845966005697846" lon="16.544673973694444">
        <ele>163.080000000000013</ele>
        <time>2015-04-07T12:44:25Z</time>
      </trkpt>
      <trkpt lat="47.84610397182405" lon="16.544090006500483">
        <ele>164.039999999999992</ele>
        <time>2015-04-07T12:44:40Z</time>
      </trkpt>
      <trkpt lat="47.846115035936236" lon="16.543708965182304">
        <ele>165</ele>
        <time>2015-04-07T12:44:53Z</time>
      </trkpt>
      <trkpt lat="47.846091985702515" lon="16.543644005432725">
        <ele>165</ele>
        <time>2015-04-07T12:44:58Z</time>
      </trkpt>
      <trkpt lat="47.846087962388992" lon="16.543624978512526">
        <ele>164.52000000000001</ele>
        <time>2015-04-07T12:44:59Z</time>
      </trkpt>
      <trkpt lat="47.846085028722882" lon="16.543604023754597">
        <ele>165</ele>
        <time>2015-04-07T12:45:00Z</time>
      </trkpt>
      <trkpt lat="47.846085028722882" lon="16.543580973520875">
        <ele>165</ele>
        <time>2015-04-07T12:45:01Z</time>
      </trkpt>
      <trkpt lat="47.846085028722882" lon="16.543558007106185">
        <ele>165</ele>
        <time>2015-04-07T12:45:02Z</time>
      </trkpt>
      <trkpt lat="47.846085028722882" lon="16.543531017377973">
        <ele>165</ele>
        <time>2015-04-07T12:45:03Z</time>
      </trkpt>
      <trkpt lat="47.846087962388992" lon="16.543501010164618">
        <ele>165.47999999999999</ele>
        <time>2015-04-07T12:45:04Z</time>
      </trkpt>
      <trkpt lat="47.846138002350926" lon="16.543060038238764">
        <ele>165</ele>
        <time>2015-04-07T12:45:18Z</time>
      </trkpt>
      <trkpt lat="47.846221989020705" lon="16.542617976665497">
        <ele>164.52000000000001</ele>
        <time>2015-04-07T12:45:30Z</time>
      </trkpt>
      <trkpt lat="47.846329025924206" lon="16.542184967547655">
        <ele>165</ele>
        <time>2015-04-07T12:45:41Z</time>
      </trkpt>
      <trkpt lat="47.846393985673785" lon="16.541728992015123">
        <ele>166.449999999999989</ele>
        <time>2015-04-07T12:45:51Z</time>
      </trkpt>
      <trkpt lat="47.846527006477118" lon="16.54097001068294">
        <ele>167.409999999999997</ele>
        <time>2015-04-07T12:46:07Z</time>
      </trkpt>
      <trkpt lat="47.846676036715508" lon="16.540147997438908">
        <ele>167.409999999999997</ele>
        <time>2015-04-07T12:46:24Z</time>
      </trkpt>
      <trkpt lat="47.846756000071764" lon="16.539727980270982">
        <ele>162.599999999999994</ele>
        <time>2015-04-07T12:46:32Z</time>
      </trkpt>
      <trkpt lat="47.846766980364919" lon="16.53968196362257">
        <ele>170.289999999999992</ele>
        <time>2015-04-07T12:46:33Z</time>
      </trkpt>
      <trkpt lat="47.846859013661742" lon="16.539151975885034">
        <ele>168.849999999999994</ele>
        <time>2015-04-07T12:46:45Z</time>
      </trkpt>
      <trkpt lat="47.846958003938198" lon="16.538588041439652">
        <ele>169.330000000000013</ele>
        <time>2015-04-07T12:46:57Z</time>
      </trkpt>
      <trkpt lat="47.847083983942866" lon="16.537819001823664">
        <ele>169.810000000000002</ele>
        <time>2015-04-07T12:47:11Z</time>
      </trkpt>
      <trkpt lat="47.847239971160889" lon="16.53697201050818">
        <ele>170.77000000000001</ele>
        <time>2015-04-07T12:47:27Z</time>
      </trkpt>
      <trkpt lat="47.847408028319478" lon="16.536152008920908">
        <ele>170.77000000000001</ele>
        <time>2015-04-07T12:47:43Z</time>
      </trkpt>
      <trkpt lat="47.84747701138258" lon="16.535586984828115">
        <ele>171.25</ele>
        <time>2015-04-07T12:47:54Z</time>
      </trkpt>
      <trkpt lat="47.847481034696102" lon="16.53486798517406">
        <ele>170.77000000000001</ele>
        <time>2015-04-07T12:48:07Z</time>
      </trkpt>
      <trkpt lat="47.84747701138258" lon="16.534072961658239">
        <ele>170.77000000000001</ele>
        <time>2015-04-07T12:48:21Z</time>
      </trkpt>
      <trkpt lat="47.847466031089425" lon="16.533112982288003">
        <ele>171.72999999999999</ele>
        <time>2015-04-07T12:48:36Z</time>
      </trkpt>
      <trkpt lat="47.847450021654367" lon="16.532577965408564">
        <ele>171.25</ele>
        <time>2015-04-07T12:48:45Z</time>
      </trkpt>
      <trkpt lat="47.847462007775903" lon="16.531972959637642">
        <ele>172.210000000000008</ele>
        <time>2015-04-07T12:48:58Z</time>
      </trkpt>
      <trkpt lat="47.847228990867734" lon="16.531349010765553">
        <ele>172.689999999999998</ele>
        <time>2015-04-07T12:49:11Z</time>
      </trkpt>
      <trkpt lat="47.847098987549543" lon="16.530751967802644">
        <ele>172.689999999999998</ele>
        <time>2015-04-07T12:49:24Z</time>
      </trkpt>
      <trkpt lat="47.846953980624676" lon="16.530074961483479">
        <ele>173.169999999999987</ele>
        <time>2015-04-07T12:49:37Z</time>
      </trkpt>
      <trkpt lat="47.846808973699808" lon="16.529258983209729">
        <ele>174.620000000000005</ele>
        <time>2015-04-07T12:49:54Z</time>
      </trkpt>
      <trkpt lat="47.846691040322185" lon="16.528737964108586">
        <ele>176.539999999999992</ele>
        <time>2015-04-07T12:50:06Z</time>
      </trkpt>
      <trkpt lat="47.846461962908506" lon="16.528215017169714">
        <ele>178.460000000000008</ele>
        <time>2015-04-07T12:50:20Z</time>
      </trkpt>
      <trkpt lat="47.84631703980267" lon="16.527707995846868">
        <ele>179.900000000000006</ele>
        <time>2015-04-07T12:50:34Z</time>
      </trkpt>
      <trkpt lat="47.846371019259095" lon="16.527301976457238">
        <ele>181.349999999999994</ele>
        <time>2015-04-07T12:50:45Z</time>
      </trkpt>
      <trkpt lat="47.846630020067096" lon="16.52681197039783">
        <ele>180.870000000000005</ele>
        <time>2015-04-07T12:50:57Z</time>
      </trkpt>
      <trkpt lat="47.846568999812007" lon="16.526469988748431">
        <ele>181.349999999999994</ele>
        <time>2015-04-07T12:51:07Z</time>
      </trkpt>
      <trkpt lat="47.846549972891808" lon="16.526361024007201">
        <ele>181.349999999999994</ele>
        <time>2015-04-07T12:51:11Z</time>
      </trkpt>
      <trkpt lat="47.846465986222029" lon="16.526175029575825">
        <ele>182.310000000000002</ele>
        <time>2015-04-07T12:51:23Z</time>
      </trkpt>
      <trkpt lat="47.846450982615352" lon="16.526164971292019">
        <ele>182.310000000000002</ele>
        <time>2015-04-07T12:51:24Z</time>
      </trkpt>
      <trkpt lat="47.846438996493816" lon="16.526153990998864">
        <ele>182.310000000000002</ele>
        <time>2015-04-07T12:51:25Z</time>
      </trkpt>
      <trkpt lat="47.846423992887139" lon="16.52614401653409">
        <ele>182.789999999999992</ele>
        <time>2015-04-07T12:51:26Z</time>
      </trkpt>
      <trkpt lat="47.846408989280462" lon="16.526137981563807">
        <ele>182.789999999999992</ele>
        <time>2015-04-07T12:51:27Z</time>
      </trkpt>
      <trkpt lat="47.846278985962272" lon="16.526010995730758">
        <ele>184.22999999999999</ele>
        <time>2015-04-07T12:51:41Z</time>
      </trkpt>
      <trkpt lat="47.846127022057772" lon="16.525812009349465">
        <ele>186.150000000000006</ele>
        <time>2015-04-07T12:51:56Z</time>
      </trkpt>
      <trkpt lat="47.846096009016037" lon="16.525765992701054">
        <ele>186.150000000000006</ele>
        <time>2015-04-07T12:51:59Z</time>
      </trkpt>
      <trkpt lat="47.846087962388992" lon="16.525753000751138">
        <ele>186.150000000000006</ele>
        <time>2015-04-07T12:52:00Z</time>
      </trkpt>
      <trkpt lat="47.846085028722882" lon="16.525740008801222">
        <ele>186.629999999999995</ele>
        <time>2015-04-07T12:52:01Z</time>
      </trkpt>
      <trkpt lat="47.846076982095838" lon="16.525726011022925">
        <ele>186.629999999999995</ele>
        <time>2015-04-07T12:52:02Z</time>
      </trkpt>
      <trkpt lat="47.846072958782315" lon="16.525711007416248">
        <ele>186.150000000000006</ele>
        <time>2015-04-07T12:52:03Z</time>
      </trkpt>
      <trkpt lat="47.846069019287825" lon="16.52569399215281">
        <ele>186.629999999999995</ele>
        <time>2015-04-07T12:52:04Z</time>
      </trkpt>
      <trkpt lat="47.846066001802683" lon="16.525676976889372">
        <ele>187.110000000000014</ele>
        <time>2015-04-07T12:52:05Z</time>
      </trkpt>
      <trkpt lat="47.84605803899467" lon="16.525659961625934">
        <ele>186.629999999999995</ele>
        <time>2015-04-07T12:52:06Z</time>
      </trkpt>
      <trkpt lat="47.846054015681148" lon="16.525642024353147">
        <ele>186.629999999999995</ele>
        <time>2015-04-07T12:52:07Z</time>
      </trkpt>
      <trkpt lat="47.846027025952935" lon="16.525617968291044">
        <ele>187.590000000000003</ele>
        <time>2015-04-07T12:52:21Z</time>
      </trkpt>
      <trkpt lat="47.846027025952935" lon="16.525617968291044">
        <ele>187.110000000000014</ele>
        <time>2015-04-07T12:52:50Z</time>
      </trkpt>
      <trkpt lat="47.846024008467793" lon="16.525619979947805">
        <ele>186.629999999999995</ele>
        <time>2015-04-07T12:53:14Z</time>
      </trkpt>
      <trkpt lat="47.846019985154271" lon="16.525619979947805">
        <ele>187.110000000000014</ele>
        <time>2015-04-07T12:53:32Z</time>
      </trkpt>
      <trkpt lat="47.846007999032736" lon="16.525595001876354">
        <ele>188.080000000000013</ele>
        <time>2015-04-07T12:53:34Z</time>
      </trkpt>
      <trkpt lat="47.845997018739581" lon="16.525578992441297">
        <ele>188.080000000000013</ele>
        <time>2015-04-07T12:53:35Z</time>
      </trkpt>
      <trkpt lat="47.845992995426059" lon="16.525561977177858">
        <ele>188.080000000000013</ele>
        <time>2015-04-07T12:53:36Z</time>
      </trkpt>
      <trkpt lat="47.845966005697846" lon="16.525427028536797">
        <ele>188.080000000000013</ele>
        <time>2015-04-07T12:53:50Z</time>
      </trkpt>
      <trkpt lat="47.845955025404692" lon="16.525405989959836">
        <ele>188.080000000000013</ele>
        <time>2015-04-07T12:54:01Z</time>
      </trkpt>
      <trkpt lat="47.845943039283156" lon="16.525383023545146">
        <ele>188.080000000000013</ele>
        <time>2015-04-07T12:54:02Z</time>
      </trkpt>
      <trkpt lat="47.845882019028068" lon="16.525189988315105">
        <ele>188.080000000000013</ele>
        <time>2015-04-07T12:54:11Z</time>
      </trkpt>
      <trkpt lat="47.845801971852779" lon="16.525007011368871">
        <ele>188.080000000000013</ele>
        <time>2015-04-07T12:54:22Z</time>
      </trkpt>
      <trkpt lat="47.84563098102808" lon="16.52464097365737">
        <ele>190</ele>
        <time>2015-04-07T12:57:58Z</time>
      </trkpt>
      <trkpt lat="47.845569960772991" lon="16.524354983121157">
        <ele>187.590000000000003</ele>
        <time>2015-04-07T12:58:12Z</time>
      </trkpt>
      <trkpt lat="47.845469964668155" lon="16.524076033383608">
        <ele>187.110000000000014</ele>
        <time>2015-04-07T12:58:25Z</time>
      </trkpt>
      <trkpt lat="47.845443980768323" lon="16.523989029228687">
        <ele>186.629999999999995</ele>
        <time>2015-04-07T12:58:30Z</time>
      </trkpt>
      <trkpt lat="47.845394024625421" lon="16.523732962086797">
        <ele>188.080000000000013</ele>
        <time>2015-04-07T12:58:45Z</time>
      </trkpt>
      <trkpt lat="47.845401987433434" lon="16.523643024265766">
        <ele>187.590000000000003</ele>
        <time>2015-04-07T12:58:49Z</time>
      </trkpt>
      <trkpt lat="47.845386983826756" lon="16.52360899373889">
        <ele>187.590000000000003</ele>
        <time>2015-04-07T12:58:51Z</time>
      </trkpt>
      <trkpt lat="47.845337027683854" lon="16.523584015667439">
        <ele>187.590000000000003</ele>
        <time>2015-04-07T12:58:55Z</time>
      </trkpt>
      <trkpt lat="47.845066040754318" lon="16.523567000404">
        <ele>187.110000000000014</ele>
        <time>2015-04-07T12:59:10Z</time>
      </trkpt>
      <trkpt lat="47.844897983595729" lon="16.523787025362253">
        <ele>188.080000000000013</ele>
        <time>2015-04-07T12:59:21Z</time>
      </trkpt>
      <trkpt lat="47.844939976930618" lon="16.52391099371016">
        <ele>187.590000000000003</ele>
        <time>2015-04-07T12:59:26Z</time>
      </trkpt>
      <trkpt lat="47.844653986394405" lon="16.523950975388288">
        <ele>187.110000000000014</ele>
        <time>2015-04-07T12:59:43Z</time>
      </trkpt>
      <trkpt lat="47.844604030251503" lon="16.524015013128519">
        <ele>187.110000000000014</ele>
        <time>2015-04-07T12:59:48Z</time>
      </trkpt>
      <trkpt lat="47.844581985846162" lon="16.523783002048731">
        <ele>192.400000000000006</ele>
        <time>2015-04-07T13:22:03Z</time>
      </trkpt>
      <trkpt lat="47.844475032761693" lon="16.523749977350235">
        <ele>191.919999999999987</ele>
        <time>2015-04-07T13:22:07Z</time>
      </trkpt>
      <trkpt lat="47.84423396922648" lon="16.523813009262085">
        <ele>191.919999999999987</ele>
        <time>2015-04-07T13:22:12Z</time>
      </trkpt>
      <trkpt lat="47.844073958694935" lon="16.523886015638709">
        <ele>190.960000000000008</ele>
        <time>2015-04-07T13:22:15Z</time>
      </trkpt>
      <trkpt lat="47.844016961753368" lon="16.52391099371016">
        <ele>190</ele>
        <time>2015-04-07T13:22:16Z</time>
      </trkpt>
      <trkpt lat="47.843967005610466" lon="16.52393002063036">
        <ele>190.960000000000008</ele>
        <time>2015-04-07T13:22:17Z</time>
      </trkpt>
      <trkpt lat="47.843769025057554" lon="16.524046026170254">
        <ele>189.52000000000001</ele>
        <time>2015-04-07T13:22:21Z</time>
      </trkpt>
      <trkpt lat="47.84371898509562" lon="16.524093970656395">
        <ele>188.560000000000002</ele>
        <time>2015-04-07T13:22:22Z</time>
      </trkpt>
      <trkpt lat="47.843619994819164" lon="16.52418902143836">
        <ele>188.080000000000013</ele>
        <time>2015-04-07T13:22:24Z</time>
      </trkpt>
      <trkpt lat="47.843307014554739" lon="16.524508036673069">
        <ele>186.629999999999995</ele>
        <time>2015-04-07T13:22:30Z</time>
      </trkpt>
      <trkpt lat="47.842940976843238" lon="16.524906009435654">
        <ele>185.669999999999987</ele>
        <time>2015-04-07T13:22:37Z</time>
      </trkpt>
      <trkpt lat="47.842895966023207" lon="16.524969041347504">
        <ele>185.669999999999987</ele>
        <time>2015-04-07T13:22:38Z</time>
      </trkpt>
      <trkpt lat="47.84279596991837" lon="16.525075994431973">
        <ele>185.669999999999987</ele>
        <time>2015-04-07T13:22:40Z</time>
      </trkpt>
      <trkpt lat="47.842448959127069" lon="16.525533981621265">
        <ele>184.22999999999999</ele>
        <time>2015-04-07T13:22:48Z</time>
      </trkpt>
      <trkpt lat="47.842353992164135" lon="16.525619979947805">
        <ele>184.22999999999999</ele>
        <time>2015-04-07T13:22:51Z</time>
      </trkpt>
      <trkpt lat="47.842316022142768" lon="16.525619979947805">
        <ele>183.75</ele>
        <time>2015-04-07T13:22:52Z</time>
      </trkpt>
      <trkpt lat="47.842277968302369" lon="16.525619979947805">
        <ele>183.75</ele>
        <time>2015-04-07T13:22:53Z</time>
      </trkpt>
      <trkpt lat="47.842147964984179" lon="16.525644036009908">
        <ele>185.189999999999998</ele>
        <time>2015-04-07T13:22:57Z</time>
      </trkpt>
      <trkpt lat="47.842117035761476" lon="16.525636995211244">
        <ele>184.22999999999999</ele>
        <time>2015-04-07T13:22:58Z</time>
      </trkpt>
      <trkpt lat="47.842078981921077" lon="16.525625009089708">
        <ele>183.75</ele>
        <time>2015-04-07T13:22:59Z</time>
      </trkpt>
      <trkpt lat="47.841686038300395" lon="16.525515038520098">
        <ele>184.22999999999999</ele>
        <time>2015-04-07T13:23:08Z</time>
      </trkpt>
      <trkpt lat="47.841599034145474" lon="16.525484025478363">
        <ele>184.22999999999999</ele>
        <time>2015-04-07T13:23:10Z</time>
      </trkpt>
      <trkpt lat="47.841044990345836" lon="16.525334995239973">
        <ele>183.75</ele>
        <time>2015-04-07T13:23:22Z</time>
      </trkpt>
      <trkpt lat="47.840965026989579" lon="16.525295013561845">
        <ele>182.789999999999992</ele>
        <time>2015-04-07T13:23:24Z</time>
      </trkpt>
      <trkpt lat="47.84092697314918" lon="16.525265006348491">
        <ele>182.310000000000002</ele>
        <time>2015-04-07T13:23:25Z</time>
      </trkpt>
      <trkpt lat="47.840889003127813" lon="16.525228964164853">
        <ele>182.789999999999992</ele>
        <time>2015-04-07T13:23:26Z</time>
      </trkpt>
      <trkpt lat="47.840823959559202" lon="16.525172973051667">
        <ele>182.789999999999992</ele>
        <time>2015-04-07T13:23:28Z</time>
      </trkpt>
      <trkpt lat="47.84079403616488" lon="16.525186970829964">
        <ele>182.310000000000002</ele>
        <time>2015-04-07T13:23:29Z</time>
      </trkpt>
      <trkpt lat="47.840766962617636" lon="16.525213038548827">
        <ele>182.310000000000002</ele>
        <time>2015-04-07T13:23:30Z</time>
      </trkpt>
      <trkpt lat="47.840739972889423" lon="16.525227036327124">
        <ele>182.789999999999992</ele>
        <time>2015-04-07T13:23:31Z</time>
      </trkpt>
      <trkpt lat="47.840706026181579" lon="16.525225024670362">
        <ele>182.310000000000002</ele>
        <time>2015-04-07T13:23:32Z</time>
      </trkpt>
      <trkpt lat="47.840675013139844" lon="16.525211026892066">
        <ele>182.310000000000002</ele>
        <time>2015-04-07T13:23:33Z</time>
      </trkpt>
      <trkpt lat="47.840526988729835" lon="16.525159981101751">
        <ele>182.310000000000002</ele>
        <time>2015-04-07T13:23:38Z</time>
      </trkpt>
      <trkpt lat="47.840499999001622" lon="16.5251350030303">
        <ele>182.310000000000002</ele>
        <time>2015-04-07T13:23:39Z</time>
      </trkpt>
      <trkpt lat="47.840484995394945" lon="16.525108013302088">
        <ele>182.789999999999992</ele>
        <time>2015-04-07T13:23:40Z</time>
      </trkpt>
      <trkpt lat="47.840468985959888" lon="16.525086974725127">
        <ele>183.75</ele>
        <time>2015-04-07T13:23:42Z</time>
      </trkpt>
      <trkpt lat="47.840468985959888" lon="16.525086974725127">
        <ele>180.870000000000005</ele>
        <time>2015-04-07T13:24:10Z</time>
      </trkpt>
      <trkpt lat="47.840468985959888" lon="16.525086974725127">
        <ele>182.310000000000002</ele>
        <time>2015-04-07T13:24:12Z</time>
      </trkpt>
      <trkpt lat="47.840462028980255" lon="16.525080017745495">
        <ele>181.830000000000013</ele>
        <time>2015-04-07T13:24:22Z</time>
      </trkpt>
      <trkpt lat="47.840449959039688" lon="16.525069959461689">
        <ele>181.349999999999994</ele>
        <time>2015-04-07T13:24:23Z</time>
      </trkpt>
      <trkpt lat="47.840438978746533" lon="16.525053028017282">
        <ele>181.349999999999994</ele>
        <time>2015-04-07T13:24:24Z</time>
      </trkpt>
      <trkpt lat="47.840423975139856" lon="16.525031989440322">
        <ele>180.870000000000005</ele>
        <time>2015-04-07T13:24:25Z</time>
      </trkpt>
      <trkpt lat="47.840405032038689" lon="16.525011034682393">
        <ele>181.349999999999994</ele>
        <time>2015-04-07T13:24:26Z</time>
      </trkpt>
      <trkpt lat="47.840384999290109" lon="16.524992007762194">
        <ele>181.830000000000013</ele>
        <time>2015-04-07T13:24:27Z</time>
      </trkpt>
      <trkpt lat="47.840363038703799" lon="16.524981027469039">
        <ele>181.349999999999994</ele>
        <time>2015-04-07T13:24:28Z</time>
      </trkpt>
      <trkpt lat="47.840339988470078" lon="16.524969041347504">
        <ele>181.349999999999994</ele>
        <time>2015-04-07T13:24:29Z</time>
      </trkpt>
      <trkpt lat="47.840290032327175" lon="16.52494003996253">
        <ele>181.349999999999994</ele>
        <time>2015-04-07T13:24:31Z</time>
      </trkpt>
      <trkpt lat="47.840271005406976" lon="16.524917995557189">
        <ele>181.349999999999994</ele>
        <time>2015-04-07T13:24:32Z</time>
      </trkpt>
      <trkpt lat="47.840251978486776" lon="16.52489704079926">
        <ele>180.870000000000005</ele>
        <time>2015-04-07T13:24:33Z</time>
      </trkpt>
      <trkpt lat="47.840224988758564" lon="16.524893017485738">
        <ele>181.349999999999994</ele>
        <time>2015-04-07T13:24:34Z</time>
      </trkpt>
      <trkpt lat="47.840199004858732" lon="16.524908021092415">
        <ele>180.379999999999995</ele>
        <time>2015-04-07T13:24:35Z</time>
      </trkpt>
      <trkpt lat="47.840163968503475" lon="16.524932999163866">
        <ele>180.379999999999995</ele>
        <time>2015-04-07T13:24:36Z</time>
      </trkpt>
      <trkpt lat="47.840125998482108" lon="16.524950014427304">
        <ele>180.379999999999995</ele>
        <time>2015-04-07T13:24:37Z</time>
      </trkpt>
      <trkpt lat="47.839793991297483" lon="16.524957977235317">
        <ele>179.900000000000006</ele>
        <time>2015-04-07T13:24:43Z</time>
      </trkpt>
      <trkpt lat="47.8387760091573" lon="16.524694031104445">
        <ele>176.539999999999992</ele>
        <time>2015-04-07T13:24:58Z</time>
      </trkpt>
      <trkpt lat="47.838551038876176" lon="16.524649020284414">
        <ele>175.099999999999994</ele>
        <time>2015-04-07T13:25:01Z</time>
      </trkpt>
      <trkpt lat="47.837845031172037" lon="16.524482974782586">
        <ele>171.72999999999999</ele>
        <time>2015-04-07T13:25:10Z</time>
      </trkpt>
      <trkpt lat="47.836673995479941" lon="16.524209976196289">
        <ele>168.370000000000005</ele>
        <time>2015-04-07T13:25:25Z</time>
      </trkpt>
      <trkpt lat="47.835541013628244" lon="16.523943012580276">
        <ele>166.930000000000007</ele>
        <time>2015-04-07T13:25:41Z</time>
      </trkpt>
      <trkpt lat="47.834300994873047" lon="16.523645035922527">
        <ele>166.930000000000007</ele>
        <time>2015-04-07T13:26:00Z</time>
      </trkpt>
      <trkpt lat="47.833828004077077" lon="16.523530958220363">
        <ele>165</ele>
        <time>2015-04-07T13:26:08Z</time>
      </trkpt>
      <trkpt lat="47.832851009443402" lon="16.523292995989323">
        <ele>164.039999999999992</ele>
        <time>2015-04-07T13:26:24Z</time>
      </trkpt>
      <trkpt lat="47.832047017291188" lon="16.523057967424393">
        <ele>164.52000000000001</ele>
        <time>2015-04-07T13:26:38Z</time>
      </trkpt>
      <trkpt lat="47.830863995477557" lon="16.522700982168317">
        <ele>165</ele>
        <time>2015-04-07T13:26:58Z</time>
      </trkpt>
      <trkpt lat="47.829792033880949" lon="16.522355983033776">
        <ele>165.47999999999999</ele>
        <time>2015-04-07T13:27:17Z</time>
      </trkpt>
      <trkpt lat="47.828957028687" lon="16.52214802801609">
        <ele>165.47999999999999</ele>
        <time>2015-04-07T13:27:33Z</time>
      </trkpt>
      <trkpt lat="47.828433997929096" lon="16.52197502553463">
        <ele>164.52000000000001</ele>
        <time>2015-04-07T13:27:48Z</time>
      </trkpt>
      <trkpt lat="47.828418994322419" lon="16.521964967250824">
        <ele>165.960000000000008</ele>
        <time>2015-04-07T13:28:01Z</time>
      </trkpt>
      <trkpt lat="47.828278010711074" lon="16.521944012492895">
        <ele>165.47999999999999</ele>
        <time>2015-04-07T13:28:12Z</time>
      </trkpt>
      <trkpt lat="47.828269964084029" lon="16.521973013877869">
        <ele>166.930000000000007</ele>
        <time>2015-04-07T13:28:13Z</time>
      </trkpt>
      <trkpt lat="47.828266024589539" lon="16.521995980292559">
        <ele>166.930000000000007</ele>
        <time>2015-04-07T13:28:14Z</time>
      </trkpt>
      <trkpt lat="47.828258983790874" lon="16.522043002769351">
        <ele>166.449999999999989</ele>
        <time>2015-04-07T13:28:16Z</time>
      </trkpt>
      <trkpt lat="47.828262001276016" lon="16.522069992497563">
        <ele>166.449999999999989</ele>
        <time>2015-04-07T13:28:17Z</time>
      </trkpt>
      <trkpt lat="47.828281028196216" lon="16.522113997489214">
        <ele>167.409999999999997</ele>
        <time>2015-04-07T13:28:20Z</time>
      </trkpt>
      <trkpt lat="47.828297037631273" lon="16.522129001095891">
        <ele>166.930000000000007</ele>
        <time>2015-04-07T13:28:21Z</time>
      </trkpt>
      <trkpt lat="47.828465010970831" lon="16.522210976108909">
        <ele>165.47999999999999</ele>
        <time>2015-04-07T13:28:28Z</time>
      </trkpt>
      <trkpt lat="47.828480014577508" lon="16.522249029949307">
        <ele>165.47999999999999</ele>
        <time>2015-04-07T13:28:29Z</time>
      </trkpt>
      <trkpt lat="47.828475991263986" lon="16.522303009405732">
        <ele>165.960000000000008</ele>
        <time>2015-04-07T13:28:30Z</time>
      </trkpt>
      <trkpt lat="47.828468028455973" lon="16.522360006347299">
        <ele>165.47999999999999</ele>
        <time>2015-04-07T13:28:31Z</time>
      </trkpt>
      <trkpt lat="47.828465010970831" lon="16.522417003288865">
        <ele>165.47999999999999</ele>
        <time>2015-04-07T13:28:32Z</time>
      </trkpt>
      <trkpt lat="47.828465010970831" lon="16.522476011887193">
        <ele>165</ele>
        <time>2015-04-07T13:28:33Z</time>
      </trkpt>
      <trkpt lat="47.828471967950463" lon="16.52253502048552">
        <ele>165.47999999999999</ele>
        <time>2015-04-07T13:28:34Z</time>
      </trkpt>
      <trkpt lat="47.828480014577508" lon="16.522588999941945">
        <ele>165.47999999999999</ele>
        <time>2015-04-07T13:28:35Z</time>
      </trkpt>
      <trkpt lat="47.82848697155714" lon="16.522638034075499">
        <ele>165.47999999999999</ele>
        <time>2015-04-07T13:28:36Z</time>
      </trkpt>
      <trkpt lat="47.828480014577508" lon="16.522720009088516">
        <ele>164.52000000000001</ele>
        <time>2015-04-07T13:28:38Z</time>
      </trkpt>
      <trkpt lat="47.828453024849296" lon="16.522740963846445">
        <ele>164.52000000000001</ele>
        <time>2015-04-07T13:28:39Z</time>
      </trkpt>
      <trkpt lat="47.828423017635942" lon="16.522746998816729">
        <ele>164.52000000000001</ele>
        <time>2015-04-07T13:28:40Z</time>
      </trkpt>
      <trkpt lat="47.828381024301052" lon="16.52274901047349">
        <ele>164.039999999999992</ele>
        <time>2015-04-07T13:28:41Z</time>
      </trkpt>
      <trkpt lat="47.828341964632273" lon="16.522744987159967">
        <ele>164.52000000000001</ele>
        <time>2015-04-07T13:28:42Z</time>
      </trkpt>
      <trkpt lat="47.828299971297383" lon="16.522742975503206">
        <ele>164.52000000000001</ele>
        <time>2015-04-07T13:28:43Z</time>
      </trkpt>
      <trkpt lat="47.828262001276016" lon="16.522751022130251">
        <ele>164.52000000000001</ele>
        <time>2015-04-07T13:28:44Z</time>
      </trkpt>
      <trkpt lat="47.828220007941127" lon="16.522764014080167">
        <ele>165.47999999999999</ele>
        <time>2015-04-07T13:28:45Z</time>
      </trkpt>
      <trkpt lat="47.82818203791976" lon="16.522781029343605">
        <ele>165.47999999999999</ele>
        <time>2015-04-07T13:28:46Z</time>
      </trkpt>
      <trkpt lat="47.828143984079361" lon="16.522806007415056">
        <ele>165</ele>
        <time>2015-04-07T13:28:47Z</time>
      </trkpt>
      <trkpt lat="47.828110037371516" lon="16.522830985486507">
        <ele>165.47999999999999</ele>
        <time>2015-04-07T13:28:48Z</time>
      </trkpt>
      <trkpt lat="47.827914990484715" lon="16.52289804071188">
        <ele>164.039999999999992</ele>
        <time>2015-04-07T13:28:53Z</time>
      </trkpt>
      <trkpt lat="47.827872997149825" lon="16.522911032661796">
        <ele>164.039999999999992</ele>
        <time>2015-04-07T13:28:54Z</time>
      </trkpt>
      <trkpt lat="47.827831003814936" lon="16.522933999076486">
        <ele>164.52000000000001</ele>
        <time>2015-04-07T13:28:55Z</time>
      </trkpt>
      <trkpt lat="47.827789010480046" lon="16.522966017946601">
        <ele>164.039999999999992</ele>
        <time>2015-04-07T13:28:56Z</time>
      </trkpt>
      <trkpt lat="47.827723966911435" lon="16.523059979081154">
        <ele>164.52000000000001</ele>
        <time>2015-04-07T13:28:58Z</time>
      </trkpt>
      <trkpt lat="47.827578959986567" lon="16.523252008482814">
        <ele>163.560000000000002</ele>
        <time>2015-04-07T13:29:02Z</time>
      </trkpt>
      <trkpt lat="47.827525986358523" lon="16.523272963240743">
        <ele>163.560000000000002</ele>
        <time>2015-04-07T13:29:03Z</time>
      </trkpt>
      <trkpt lat="47.827468989416957" lon="16.523270029574633">
        <ele>163.080000000000013</ele>
        <time>2015-04-07T13:29:04Z</time>
      </trkpt>
      <trkpt lat="47.827415009960532" lon="16.523251002654433">
        <ele>163.560000000000002</ele>
        <time>2015-04-07T13:29:05Z</time>
      </trkpt>
      <trkpt lat="47.827365975826979" lon="16.523217977955937">
        <ele>163.560000000000002</ele>
        <time>2015-04-07T13:29:06Z</time>
      </trkpt>
      <trkpt lat="47.827316019684076" lon="16.523190988227725">
        <ele>164.039999999999992</ele>
        <time>2015-04-07T13:29:07Z</time>
      </trkpt>
      <trkpt lat="47.827266985550523" lon="16.523175984621048">
        <ele>164.039999999999992</ele>
        <time>2015-04-07T13:29:08Z</time>
      </trkpt>
      <trkpt lat="47.827213006094098" lon="16.523162992671132">
        <ele>163.560000000000002</ele>
        <time>2015-04-07T13:29:09Z</time>
      </trkpt>
      <trkpt lat="47.827015025541186" lon="16.523089986294508">
        <ele>164.039999999999992</ele>
        <time>2015-04-07T13:29:13Z</time>
      </trkpt>
      <trkpt lat="47.826801035553217" lon="16.523032989352942">
        <ele>163.560000000000002</ele>
        <time>2015-04-07T13:29:19Z</time>
      </trkpt>
      <trkpt lat="47.826771028339863" lon="16.52290198020637">
        <ele>163.080000000000013</ele>
        <time>2015-04-07T13:29:23Z</time>
      </trkpt>
      <trkpt lat="47.826729035004973" lon="16.522825034335256">
        <ele>164.52000000000001</ele>
        <time>2015-04-07T13:29:26Z</time>
      </trkpt>
      <trkpt lat="47.826565001159906" lon="16.52283500880003">
        <ele>165</ele>
        <time>2015-04-07T13:29:31Z</time>
      </trkpt>
      <trkpt lat="47.826466010883451" lon="16.522843977436423">
        <ele>164.039999999999992</ele>
        <time>2015-04-07T13:29:33Z</time>
      </trkpt>
      <trkpt lat="47.826138027012348" lon="16.522883959114552">
        <ele>164.52000000000001</ele>
        <time>2015-04-07T13:29:41Z</time>
      </trkpt>
      <trkpt lat="47.825935017317533" lon="16.522322036325932">
        <ele>164.52000000000001</ele>
        <time>2015-04-07T13:29:53Z</time>
      </trkpt>
      <trkpt lat="47.825667969882488" lon="16.521570011973381">
        <ele>164.039999999999992</ele>
        <time>2015-04-07T13:30:07Z</time>
      </trkpt>
      <trkpt lat="47.825393965467811" lon="16.521086040884256">
        <ele>165</ele>
        <time>2015-04-07T13:30:19Z</time>
      </trkpt>
      <trkpt lat="47.824825001880527" lon="16.520893005654216">
        <ele>165.47999999999999</ele>
        <time>2015-04-07T13:30:33Z</time>
      </trkpt>
      <trkpt lat="47.824120000004768" lon="16.520668035373092">
        <ele>167.409999999999997</ele>
        <time>2015-04-07T13:30:50Z</time>
      </trkpt>
      <trkpt lat="47.823479035869241" lon="16.520466031506658">
        <ele>166.449999999999989</ele>
        <time>2015-04-07T13:31:06Z</time>
      </trkpt>
      <trkpt lat="47.823108974844217" lon="16.520336028188467">
        <ele>166.449999999999989</ele>
        <time>2015-04-07T13:31:16Z</time>
      </trkpt>
      <trkpt lat="47.823029011487961" lon="16.520338039845228">
        <ele>166.930000000000007</ele>
        <time>2015-04-07T13:31:18Z</time>
      </trkpt>
      <trkpt lat="47.822997998446226" lon="16.520378021523356">
        <ele>166.930000000000007</ele>
        <time>2015-04-07T13:31:19Z</time>
      </trkpt>
      <trkpt lat="47.822978971526027" lon="16.520435018464923">
        <ele>166.930000000000007</ele>
        <time>2015-04-07T13:31:20Z</time>
      </trkpt>
      <trkpt lat="47.822960028424859" lon="16.520496038720012">
        <ele>166.930000000000007</ele>
        <time>2015-04-07T13:31:21Z</time>
      </trkpt>
      <trkpt lat="47.82294100150466" lon="16.520556975156069">
        <ele>166.449999999999989</ele>
        <time>2015-04-07T13:31:22Z</time>
      </trkpt>
      <trkpt lat="47.822933038696647" lon="16.520634004846215">
        <ele>167.409999999999997</ele>
        <time>2015-04-07T13:31:23Z</time>
      </trkpt>
      <trkpt lat="47.822929015383124" lon="16.520698964595795">
        <ele>166.930000000000007</ele>
        <time>2015-04-07T13:31:24Z</time>
      </trkpt>
      <trkpt lat="47.822929015383124" lon="16.520770965144038">
        <ele>167.409999999999997</ele>
        <time>2015-04-07T13:31:25Z</time>
      </trkpt>
      <trkpt lat="47.822933038696647" lon="16.520841959863901">
        <ele>166.930000000000007</ele>
        <time>2015-04-07T13:31:26Z</time>
      </trkpt>
      <trkpt lat="47.822971008718014" lon="16.520928964018822">
        <ele>166.930000000000007</ele>
        <time>2015-04-07T13:31:27Z</time>
      </trkpt>
      <trkpt lat="47.822993975132704" lon="16.521003982052207">
        <ele>167.889999999999986</ele>
        <time>2015-04-07T13:31:28Z</time>
      </trkpt>
      <trkpt lat="47.823013002052903" lon="16.521075982600451">
        <ele>167.889999999999986</ele>
        <time>2015-04-07T13:31:29Z</time>
      </trkpt>
      <trkpt lat="47.823101012036204" lon="16.521471021696925">
        <ele>168.370000000000005</ele>
        <time>2015-04-07T13:31:35Z</time>
      </trkpt>
      <trkpt lat="47.823101012036204" lon="16.521531958132982">
        <ele>168.370000000000005</ele>
        <time>2015-04-07T13:31:36Z</time>
      </trkpt>
      <trkpt lat="47.823101012036204" lon="16.521587027236819">
        <ele>169.330000000000013</ele>
        <time>2015-04-07T13:31:37Z</time>
      </trkpt>
      <trkpt lat="47.82309003174305" lon="16.521641006693244">
        <ele>168.370000000000005</ele>
        <time>2015-04-07T13:31:38Z</time>
      </trkpt>
      <trkpt lat="47.823077961802483" lon="16.521687023341656">
        <ele>168.849999999999994</ele>
        <time>2015-04-07T13:31:39Z</time>
      </trkpt>
      <trkpt lat="47.822650987654924" lon="16.521454006433487">
        <ele>169.330000000000013</ele>
        <time>2015-04-07T13:31:51Z</time>
      </trkpt>
      <trkpt lat="47.822402967140079" lon="16.5211580414325">
        <ele>168.370000000000005</ele>
        <time>2015-04-07T13:31:54Z</time>
      </trkpt>
      <trkpt lat="47.822357034310699" lon="16.521102972328663">
        <ele>169.810000000000002</ele>
        <time>2015-04-07T13:31:55Z</time>
      </trkpt>
      <trkpt lat="47.822311017662287" lon="16.521045975387096">
        <ele>168.370000000000005</ele>
        <time>2015-04-07T13:31:56Z</time>
      </trkpt>
      <trkpt lat="47.822269024327397" lon="16.520989984273911">
        <ele>169.330000000000013</ele>
        <time>2015-04-07T13:31:57Z</time>
      </trkpt>
      <trkpt lat="47.822219990193844" lon="16.520939022302628">
        <ele>168.849999999999994</ele>
        <time>2015-04-07T13:31:58Z</time>
      </trkpt>
      <trkpt lat="47.822177996858954" lon="16.520890993997455">
        <ele>168.370000000000005</ele>
        <time>2015-04-07T13:31:59Z</time>
      </trkpt>
      <trkpt lat="47.821311978623271" lon="16.520319012925029">
        <ele>167.889999999999986</ele>
        <time>2015-04-07T13:32:16Z</time>
      </trkpt>
      <trkpt lat="47.821133024990559" lon="16.520143998786807">
        <ele>167.409999999999997</ele>
        <time>2015-04-07T13:32:20Z</time>
      </trkpt>
      <trkpt lat="47.820843011140823" lon="16.519602024927735">
        <ele>168.849999999999994</ele>
        <time>2015-04-07T13:32:30Z</time>
      </trkpt>
      <trkpt lat="47.820811998099089" lon="16.519563971087337">
        <ele>169.810000000000002</ele>
        <time>2015-04-07T13:32:31Z</time>
      </trkpt>
      <trkpt lat="47.820777967572212" lon="16.519531030207872">
        <ele>169.330000000000013</ele>
        <time>2015-04-07T13:32:32Z</time>
      </trkpt>
      <trkpt lat="47.820739997550845" lon="16.519504962489009">
        <ele>169.330000000000013</ele>
        <time>2015-04-07T13:32:33Z</time>
      </trkpt>
      <trkpt lat="47.820704961195588" lon="16.519477972760797">
        <ele>169.330000000000013</ele>
        <time>2015-04-07T13:32:34Z</time>
      </trkpt>
      <trkpt lat="47.820132980123162" lon="16.519116964191198">
        <ele>170.77000000000001</ele>
        <time>2015-04-07T13:32:49Z</time>
      </trkpt>
      <trkpt lat="47.819595029577613" lon="16.518699964508414">
        <ele>172.210000000000008</ele>
        <time>2015-04-07T13:33:04Z</time>
      </trkpt>
      <trkpt lat="47.819122038781643" lon="16.518256980925798">
        <ele>172.210000000000008</ele>
        <time>2015-04-07T13:33:19Z</time>
      </trkpt>
      <trkpt lat="47.81870998442173" lon="16.517803017050028">
        <ele>173.169999999999987</ele>
        <time>2015-04-07T13:33:33Z</time>
      </trkpt>
      <trkpt lat="47.818245040252805" lon="16.517214020714164">
        <ele>172.689999999999998</ele>
        <time>2015-04-07T13:33:48Z</time>
      </trkpt>
      <trkpt lat="47.817847989499569" lon="16.516596022993326">
        <ele>173.169999999999987</ele>
        <time>2015-04-07T13:34:03Z</time>
      </trkpt>
      <trkpt lat="47.817298974841833" lon="16.515621040016413">
        <ele>174.139999999999986</ele>
        <time>2015-04-07T13:34:24Z</time>
      </trkpt>
      <trkpt lat="47.816803017631173" lon="16.514681009575725">
        <ele>174.620000000000005</ele>
        <time>2015-04-07T13:34:43Z</time>
      </trkpt>
      <trkpt lat="47.816375959664583" lon="16.513883974403143">
        <ele>175.580000000000013</ele>
        <time>2015-04-07T13:34:59Z</time>
      </trkpt>
      <trkpt lat="47.815932976081967" lon="16.513056010007858">
        <ele>176.539999999999992</ele>
        <time>2015-04-07T13:35:16Z</time>
      </trkpt>
      <trkpt lat="47.815516982227564" lon="16.512288982048631">
        <ele>176.060000000000002</ele>
        <time>2015-04-07T13:35:32Z</time>
      </trkpt>
      <trkpt lat="47.815085984766483" lon="16.511503010988235">
        <ele>176.060000000000002</ele>
        <time>2015-04-07T13:35:49Z</time>
      </trkpt>
      <trkpt lat="47.814597990363836" lon="16.51071703992784">
        <ele>176.060000000000002</ele>
        <time>2015-04-07T13:36:07Z</time>
      </trkpt>
      <trkpt lat="47.814415013417602" lon="16.510463990271091">
        <ele>177.02000000000001</ele>
        <time>2015-04-07T13:36:13Z</time>
      </trkpt>
      <trkpt lat="47.813773965463042" lon="16.509792013093829">
        <ele>175.099999999999994</ele>
        <time>2015-04-07T13:36:31Z</time>
      </trkpt>
      <trkpt lat="47.813210031017661" lon="16.509304018691182">
        <ele>175.580000000000013</ele>
        <time>2015-04-07T13:36:46Z</time>
      </trkpt>
      <trkpt lat="47.813170971348882" lon="16.509287003427744">
        <ele>175.580000000000013</ele>
        <time>2015-04-07T13:36:47Z</time>
      </trkpt>
      <trkpt lat="47.813128978013992" lon="16.50927702896297">
        <ele>176.060000000000002</ele>
        <time>2015-04-07T13:36:48Z</time>
      </trkpt>
      <trkpt lat="47.813095031306148" lon="16.50928096845746">
        <ele>175.099999999999994</ele>
        <time>2015-04-07T13:36:49Z</time>
      </trkpt>
      <trkpt lat="47.813068041577935" lon="16.509304018691182">
        <ele>176.060000000000002</ele>
        <time>2015-04-07T13:36:50Z</time>
      </trkpt>
      <trkpt lat="47.813049014657736" lon="16.509328996762633">
        <ele>176.060000000000002</ele>
        <time>2015-04-07T13:36:51Z</time>
      </trkpt>
      <trkpt lat="47.813025964424014" lon="16.50936302728951">
        <ele>175.580000000000013</ele>
        <time>2015-04-07T13:36:52Z</time>
      </trkpt>
      <trkpt lat="47.813004003837705" lon="16.509388005360961">
        <ele>176.060000000000002</ele>
        <time>2015-04-07T13:36:53Z</time>
      </trkpt>
      <trkpt lat="47.812977014109492" lon="16.509417006745934">
        <ele>175.580000000000013</ele>
        <time>2015-04-07T13:36:54Z</time>
      </trkpt>
      <trkpt lat="47.812942983582616" lon="16.509459000080824">
        <ele>175.580000000000013</ele>
        <time>2015-04-07T13:36:55Z</time>
      </trkpt>
      <trkpt lat="47.812908031046391" lon="16.50951599702239">
        <ele>175.099999999999994</ele>
        <time>2015-04-07T13:36:56Z</time>
      </trkpt>
      <trkpt lat="47.812832007184625" lon="16.50962102226913">
        <ele>175.099999999999994</ele>
        <time>2015-04-07T13:36:58Z</time>
      </trkpt>
      <trkpt lat="47.812790013849735" lon="16.509661003947258">
        <ele>175.099999999999994</ele>
        <time>2015-04-07T13:36:59Z</time>
      </trkpt>
      <trkpt lat="47.812751960009336" lon="16.509693022817373">
        <ele>175.580000000000013</ele>
        <time>2015-04-07T13:37:00Z</time>
      </trkpt>
      <trkpt lat="47.812713989987969" lon="16.509710038080812">
        <ele>175.099999999999994</ele>
        <time>2015-04-07T13:37:01Z</time>
      </trkpt>
      <trkpt lat="47.812679037451744" lon="16.509706014767289">
        <ele>176.060000000000002</ele>
        <time>2015-04-07T13:37:02Z</time>
      </trkpt>
      <trkpt lat="47.812636960297823" lon="16.509693022817373">
        <ele>175.580000000000013</ele>
        <time>2015-04-07T13:37:03Z</time>
      </trkpt>
      <trkpt lat="47.812592033296824" lon="16.509663015604019">
        <ele>176.539999999999992</ele>
        <time>2015-04-07T13:37:04Z</time>
      </trkpt>
      <trkpt lat="47.812552973628044" lon="16.509636025875807">
        <ele>176.060000000000002</ele>
        <time>2015-04-07T13:37:05Z</time>
      </trkpt>
      <trkpt lat="47.812507962808013" lon="16.50960199534893">
        <ele>175.580000000000013</ele>
        <time>2015-04-07T13:37:06Z</time>
      </trkpt>
      <trkpt lat="47.811859035864472" lon="16.509144008159637">
        <ele>176.539999999999992</ele>
        <time>2015-04-07T13:37:23Z</time>
      </trkpt>
      <trkpt lat="47.811362994834781" lon="16.508794985711575">
        <ele>177.97999999999999</ele>
        <time>2015-04-07T13:37:40Z</time>
      </trkpt>
      <trkpt lat="47.811184041202068" lon="16.508706975728273">
        <ele>178.460000000000008</ele>
        <time>2015-04-07T13:37:48Z</time>
      </trkpt>
      <trkpt lat="47.811165014281869" lon="16.508732037618756">
        <ele>178.460000000000008</ele>
        <time>2015-04-07T13:37:49Z</time>
      </trkpt>
      <trkpt lat="47.81114598736167" lon="16.508761961013079">
        <ele>177.97999999999999</ele>
        <time>2015-04-07T13:37:50Z</time>
      </trkpt>
      <trkpt lat="47.810703003779054" lon="16.509341988712549">
        <ele>177.5</ele>
        <time>2015-04-07T13:38:05Z</time>
      </trkpt>
      <trkpt lat="47.810111995786428" lon="16.51011798530817">
        <ele>177.5</ele>
        <time>2015-04-07T13:38:21Z</time>
      </trkpt>
      <trkpt lat="47.809441024437547" lon="16.510984003543854">
        <ele>176.539999999999992</ele>
        <time>2015-04-07T13:38:36Z</time>
      </trkpt>
      <trkpt lat="47.808684976771474" lon="16.511997040361166">
        <ele>176.539999999999992</ele>
        <time>2015-04-07T13:38:54Z</time>
      </trkpt>
      <trkpt lat="47.808322962373495" lon="16.512471958994865">
        <ele>175.099999999999994</ele>
        <time>2015-04-07T13:39:02Z</time>
      </trkpt>
      <trkpt lat="47.808277029544115" lon="16.512539014220238">
        <ele>175.099999999999994</ele>
        <time>2015-04-07T13:39:03Z</time>
      </trkpt>
      <trkpt lat="47.808231012895703" lon="16.512598022818565">
        <ele>175.580000000000013</ele>
        <time>2015-04-07T13:39:04Z</time>
      </trkpt>
      <trkpt lat="47.808102015405893" lon="16.512768007814884">
        <ele>176.060000000000002</ele>
        <time>2015-04-07T13:39:07Z</time>
      </trkpt>
      <trkpt lat="47.80736499466002" lon="16.513827983289957">
        <ele>175.099999999999994</ele>
        <time>2015-04-07T13:39:25Z</time>
      </trkpt>
      <trkpt lat="47.806472992524505" lon="16.514960965141654">
        <ele>172.689999999999998</ele>
        <time>2015-04-07T13:39:43Z</time>
      </trkpt>
      <trkpt lat="47.805663971230388" lon="16.515974001958966">
        <ele>173.659999999999997</ele>
        <time>2015-04-07T13:40:00Z</time>
      </trkpt>
      <trkpt lat="47.805377980694175" lon="16.51634800247848">
        <ele>173.659999999999997</ele>
        <time>2015-04-07T13:40:08Z</time>
      </trkpt>
      <trkpt lat="47.805340010672808" lon="16.51636702939868">
        <ele>174.139999999999986</ele>
        <time>2015-04-07T13:40:09Z</time>
      </trkpt>
      <trkpt lat="47.805302040651441" lon="16.516358982771635">
        <ele>174.139999999999986</ele>
        <time>2015-04-07T13:40:10Z</time>
      </trkpt>
      <trkpt lat="47.805267004296184" lon="16.516330987215042">
        <ele>174.139999999999986</ele>
        <time>2015-04-07T13:40:11Z</time>
      </trkpt>
      <trkpt lat="47.805244037881494" lon="16.516288993880153">
        <ele>174.620000000000005</ele>
        <time>2015-04-07T13:40:12Z</time>
      </trkpt>
      <trkpt lat="47.805221993476152" lon="16.516237026080489">
        <ele>174.139999999999986</ele>
        <time>2015-04-07T13:40:13Z</time>
      </trkpt>
      <trkpt lat="47.805201960727572" lon="16.516183968633413">
        <ele>173.659999999999997</ele>
        <time>2015-04-07T13:40:14Z</time>
      </trkpt>
      <trkpt lat="47.805180000141263" lon="16.516129989176989">
        <ele>174.139999999999986</ele>
        <time>2015-04-07T13:40:15Z</time>
      </trkpt>
      <trkpt lat="47.804755959659815" lon="16.515345023944974">
        <ele>175.580000000000013</ele>
        <time>2015-04-07T13:40:31Z</time>
      </trkpt>
      <trkpt lat="47.804213985800743" lon="16.514831967651844">
        <ele>176.060000000000002</ele>
        <time>2015-04-07T13:40:47Z</time>
      </trkpt>
      <trkpt lat="47.803486017510295" lon="16.514502977952361">
        <ele>173.169999999999987</ele>
        <time>2015-04-07T13:41:04Z</time>
      </trkpt>
      <trkpt lat="47.803092990070581" lon="16.514423014596105">
        <ele>172.689999999999998</ele>
        <time>2015-04-07T13:41:12Z</time>
      </trkpt>
      <trkpt lat="47.80304697342217" lon="16.514397030696273">
        <ele>173.169999999999987</ele>
        <time>2015-04-07T13:41:13Z</time>
      </trkpt>
      <trkpt lat="47.802806999534369" lon="16.514159990474582">
        <ele>174.620000000000005</ele>
        <time>2015-04-07T13:41:19Z</time>
      </trkpt>
      <trkpt lat="47.802314981818199" lon="16.513364966958761">
        <ele>174.620000000000005</ele>
        <time>2015-04-07T13:41:35Z</time>
      </trkpt>
      <trkpt lat="47.802283968776464" lon="16.513319034129381">
        <ele>174.620000000000005</ele>
        <time>2015-04-07T13:41:36Z</time>
      </trkpt>
      <trkpt lat="47.80225396156311" lon="16.513273017480969">
        <ele>174.620000000000005</ele>
        <time>2015-04-07T13:41:37Z</time>
      </trkpt>
      <trkpt lat="47.80173503793776" lon="16.512423008680344">
        <ele>175.099999999999994</ele>
        <time>2015-04-07T13:41:56Z</time>
      </trkpt>
      <trkpt lat="47.801509983837605" lon="16.512054037302732">
        <ele>175.099999999999994</ele>
        <time>2015-04-07T13:42:04Z</time>
      </trkpt>
      <trkpt lat="47.801036993041635" lon="16.511292038485408">
        <ele>176.539999999999992</ele>
        <time>2015-04-07T13:42:21Z</time>
      </trkpt>
      <trkpt lat="47.800751002505422" lon="16.510830027982593">
        <ele>178.939999999999998</ele>
        <time>2015-04-07T13:42:33Z</time>
      </trkpt>
      <trkpt lat="47.800438022240996" lon="16.510323006659746">
        <ele>180.379999999999995</ele>
        <time>2015-04-07T13:42:46Z</time>
      </trkpt>
      <trkpt lat="47.799972994253039" lon="16.50960199534893">
        <ele>179.900000000000006</ele>
        <time>2015-04-07T13:43:02Z</time>
      </trkpt>
      <trkpt lat="47.799416016787291" lon="16.508733965456486">
        <ele>179.900000000000006</ele>
        <time>2015-04-07T13:43:21Z</time>
      </trkpt>
      <trkpt lat="47.799319960176945" lon="16.508603962138295">
        <ele>179.419999999999987</ele>
        <time>2015-04-07T13:43:24Z</time>
      </trkpt>
      <trkpt lat="47.799290036782622" lon="16.508568003773689">
        <ele>179.900000000000006</ele>
        <time>2015-04-07T13:43:25Z</time>
      </trkpt>
      <trkpt lat="47.799262963235378" lon="16.5085260104388">
        <ele>179.900000000000006</ele>
        <time>2015-04-07T13:43:26Z</time>
      </trkpt>
      <trkpt lat="47.798897009342909" lon="16.507940031588078">
        <ele>179.900000000000006</ele>
        <time>2015-04-07T13:43:38Z</time>
      </trkpt>
      <trkpt lat="47.798668015748262" lon="16.507635014131665">
        <ele>178.939999999999998</ele>
        <time>2015-04-07T13:43:45Z</time>
      </trkpt>
      <trkpt lat="47.798633985221386" lon="16.507598971948028">
        <ele>178.939999999999998</ele>
        <time>2015-04-07T13:43:46Z</time>
      </trkpt>
      <trkpt lat="47.798523008823395" lon="16.507485983893275">
        <ele>179.419999999999987</ele>
        <time>2015-04-07T13:43:49Z</time>
      </trkpt>
      <trkpt lat="47.798485038802028" lon="16.507443990558386">
        <ele>179.419999999999987</ele>
        <time>2015-04-07T13:43:50Z</time>
      </trkpt>
      <trkpt lat="47.798415971919894" lon="16.50736796669662">
        <ele>178.939999999999998</ele>
        <time>2015-04-07T13:43:52Z</time>
      </trkpt>
      <trkpt lat="47.79819100163877" lon="16.507068984210491">
        <ele>177.97999999999999</ele>
        <time>2015-04-07T13:44:02Z</time>
      </trkpt>
      <trkpt lat="47.798175998032093" lon="16.507009975612164">
        <ele>178.460000000000008</ele>
        <time>2015-04-07T13:44:05Z</time>
      </trkpt>
      <trkpt lat="47.798156971111894" lon="16.507006036117673">
        <ele>177.97999999999999</ele>
        <time>2015-04-07T13:44:06Z</time>
      </trkpt>
      <trkpt lat="47.798129981383681" lon="16.507010981440544">
        <ele>178.460000000000008</ele>
        <time>2015-04-07T13:44:07Z</time>
      </trkpt>
      <trkpt lat="47.798107014968991" lon="16.507029002532363">
        <ele>177.97999999999999</ele>
        <time>2015-04-07T13:44:08Z</time>
      </trkpt>
      <trkpt lat="47.798087988048792" lon="16.507050041109324">
        <ele>177.97999999999999</ele>
        <time>2015-04-07T13:44:09Z</time>
      </trkpt>
      <trkpt lat="47.798068961128592" lon="16.507064960896969">
        <ele>177.97999999999999</ele>
        <time>2015-04-07T13:44:10Z</time>
      </trkpt>
      <trkpt lat="47.79804197140038" lon="16.507079964503646">
        <ele>177.5</ele>
        <time>2015-04-07T13:44:11Z</time>
      </trkpt>
      <trkpt lat="47.79801900498569" lon="16.507101003080606">
        <ele>177.5</ele>
        <time>2015-04-07T13:44:12Z</time>
      </trkpt>
      <trkpt lat="47.797996960580349" lon="16.507127992808819">
        <ele>177.5</ele>
        <time>2015-04-07T13:44:13Z</time>
      </trkpt>
      <trkpt lat="47.797969970852137" lon="16.507150959223509">
        <ele>177.5</ele>
        <time>2015-04-07T13:44:14Z</time>
      </trkpt>
      <trkpt lat="47.797584990039468" lon="16.507481038570404">
        <ele>176.539999999999992</ele>
        <time>2015-04-07T13:44:26Z</time>
      </trkpt>
      <trkpt lat="47.797454986721277" lon="16.507573993876576">
        <ele>176.060000000000002</ele>
        <time>2015-04-07T13:44:29Z</time>
      </trkpt>
      <trkpt lat="47.796841012313962" lon="16.508055031299591">
        <ele>175.580000000000013</ele>
        <time>2015-04-07T13:44:42Z</time>
      </trkpt>
      <trkpt lat="47.79679499566555" lon="16.508071962743998">
        <ele>175.580000000000013</ele>
        <time>2015-04-07T13:44:43Z</time>
      </trkpt>
      <trkpt lat="47.796748979017138" lon="16.508061988279223">
        <ele>175.580000000000013</ele>
        <time>2015-04-07T13:44:44Z</time>
      </trkpt>
      <trkpt lat="47.796711008995771" lon="16.508026029914618">
        <ele>176.060000000000002</ele>
        <time>2015-04-07T13:44:45Z</time>
      </trkpt>
      <trkpt lat="47.796684019267559" lon="16.507978001609445">
        <ele>176.539999999999992</ele>
        <time>2015-04-07T13:44:46Z</time>
      </trkpt>
      <trkpt lat="47.79666499234736" lon="16.507923016324639">
        <ele>176.060000000000002</ele>
        <time>2015-04-07T13:44:47Z</time>
      </trkpt>
      <trkpt lat="47.79664202593267" lon="16.507868031039834">
        <ele>176.060000000000002</ele>
        <time>2015-04-07T13:44:48Z</time>
      </trkpt>
      <trkpt lat="47.79662299901247" lon="16.507813967764378">
        <ele>175.580000000000013</ele>
        <time>2015-04-07T13:44:49Z</time>
      </trkpt>
      <trkpt lat="47.796612018719316" lon="16.507760994136333">
        <ele>175.580000000000013</ele>
        <time>2015-04-07T13:44:50Z</time>
      </trkpt>
      <trkpt lat="47.796603972092271" lon="16.507711037993431">
        <ele>175.580000000000013</ele>
        <time>2015-04-07T13:44:51Z</time>
      </trkpt>
      <trkpt lat="47.796573964878917" lon="16.506987009197474">
        <ele>176.539999999999992</ele>
        <time>2015-04-07T13:45:03Z</time>
      </trkpt>
      <trkpt lat="47.796581005677581" lon="16.506601022556424">
        <ele>175.580000000000013</ele>
        <time>2015-04-07T13:45:09Z</time>
      </trkpt>
      <trkpt lat="47.79660003259778" lon="16.506071034818888">
        <ele>176.539999999999992</ele>
        <time>2015-04-07T13:45:17Z</time>
      </trkpt>
      <trkpt lat="47.796597015112638" lon="16.505295038223267">
        <ele>177.02000000000001</ele>
        <time>2015-04-07T13:45:31Z</time>
      </trkpt>
      <trkpt lat="47.796543035656214" lon="16.504429019987583">
        <ele>177.02000000000001</ele>
        <time>2015-04-07T13:45:46Z</time>
      </trkpt>
      <trkpt lat="47.796440022066236" lon="16.503541963174939">
        <ele>177.5</ele>
        <time>2015-04-07T13:46:01Z</time>
      </trkpt>
      <trkpt lat="47.796352012082934" lon="16.502679968252778">
        <ele>177.5</ele>
        <time>2015-04-07T13:46:15Z</time>
      </trkpt>
      <trkpt lat="47.796199964359403" lon="16.501625021919608">
        <ele>177.5</ele>
        <time>2015-04-07T13:46:33Z</time>
      </trkpt>
      <trkpt lat="47.79584901407361" lon="16.501051029190421">
        <ele>177.5</ele>
        <time>2015-04-07T13:46:48Z</time>
      </trkpt>
      <trkpt lat="47.795403013005853" lon="16.501399967819452">
        <ele>177.02000000000001</ele>
        <time>2015-04-07T13:46:59Z</time>
      </trkpt>
      <trkpt lat="47.795277033001184" lon="16.501537011936307">
        <ele>177.02000000000001</ele>
        <time>2015-04-07T13:47:02Z</time>
      </trkpt>
      <trkpt lat="47.795174019411206" lon="16.501685958355665">
        <ele>177.5</ele>
        <time>2015-04-07T13:47:05Z</time>
      </trkpt>
      <trkpt lat="47.79509698972106" lon="16.501763993874192">
        <ele>177.02000000000001</ele>
        <time>2015-04-07T13:47:07Z</time>
      </trkpt>
      <trkpt lat="47.794441021978855" lon="16.502219969406724">
        <ele>175.580000000000013</ele>
        <time>2015-04-07T13:47:20Z</time>
      </trkpt>
      <trkpt lat="47.794296015053988" lon="16.502331029623747">
        <ele>175.580000000000013</ele>
        <time>2015-04-07T13:47:23Z</time>
      </trkpt>
      <trkpt lat="47.794167017564178" lon="16.502450974658132">
        <ele>175.580000000000013</ele>
        <time>2015-04-07T13:47:26Z</time>
      </trkpt>
      <trkpt lat="47.794121000915766" lon="16.502477964386344">
        <ele>176.060000000000002</ele>
        <time>2015-04-07T13:47:27Z</time>
      </trkpt>
      <trkpt lat="47.794074984267354" lon="16.502499002963305">
        <ele>177.5</ele>
        <time>2015-04-07T13:47:28Z</time>
      </trkpt>
      <trkpt lat="47.793983034789562" lon="16.502516018226743">
        <ele>176.539999999999992</ele>
        <time>2015-04-07T13:47:30Z</time>
      </trkpt>
      <trkpt lat="47.793944980949163" lon="16.50248902849853">
        <ele>177.02000000000001</ele>
        <time>2015-04-07T13:47:31Z</time>
      </trkpt>
      <trkpt lat="47.793911034241319" lon="16.502438988536596">
        <ele>176.539999999999992</ele>
        <time>2015-04-07T13:47:32Z</time>
      </trkpt>
      <trkpt lat="47.793887984007597" lon="16.502376962453127">
        <ele>175.580000000000013</ele>
        <time>2015-04-07T13:47:33Z</time>
      </trkpt>
      <trkpt lat="47.79387298040092" lon="16.502307979390025">
        <ele>175.580000000000013</ele>
        <time>2015-04-07T13:47:34Z</time>
      </trkpt>
      <trkpt lat="47.793857976794243" lon="16.502236984670162">
        <ele>177.02000000000001</ele>
        <time>2015-04-07T13:47:35Z</time>
      </trkpt>
      <trkpt lat="47.793845990672708" lon="16.502169007435441">
        <ele>177.02000000000001</ele>
        <time>2015-04-07T13:47:36Z</time>
      </trkpt>
      <trkpt lat="47.793762004002929" lon="16.501830965280533">
        <ele>175.099999999999994</ele>
        <time>2015-04-07T13:47:41Z</time>
      </trkpt>
      <trkpt lat="47.793570980429649" lon="16.501190001145005">
        <ele>177.02000000000001</ele>
        <time>2015-04-07T13:47:52Z</time>
      </trkpt>
      <trkpt lat="47.793357996270061" lon="16.500717010349035">
        <ele>177.5</ele>
        <time>2015-04-07T13:48:02Z</time>
      </trkpt>
      <trkpt lat="47.793208966031671" lon="16.500409981235862">
        <ele>176.539999999999992</ele>
        <time>2015-04-07T13:48:08Z</time>
      </trkpt>
      <trkpt lat="47.792937979102135" lon="16.499995999038219">
        <ele>177.02000000000001</ele>
        <time>2015-04-07T13:48:17Z</time>
      </trkpt>
      <trkpt lat="47.79290403239429" lon="16.499965991824865">
        <ele>177.02000000000001</ele>
        <time>2015-04-07T13:48:18Z</time>
      </trkpt>
      <trkpt lat="47.792781991884112" lon="16.49989097379148">
        <ele>176.539999999999992</ele>
        <time>2015-04-07T13:48:21Z</time>
      </trkpt>
      <trkpt lat="47.792735975235701" lon="16.499879993498325">
        <ele>176.060000000000002</ele>
        <time>2015-04-07T13:48:22Z</time>
      </trkpt>
      <trkpt lat="47.792689958587289" lon="16.499875970184803">
        <ele>176.539999999999992</ele>
        <time>2015-04-07T13:48:23Z</time>
      </trkpt>
      <trkpt lat="47.792645031586289" lon="16.499886028468609">
        <ele>177.02000000000001</ele>
        <time>2015-04-07T13:48:24Z</time>
      </trkpt>
      <trkpt lat="47.7926030382514" lon="16.499904971569777">
        <ele>177.02000000000001</ele>
        <time>2015-04-07T13:48:25Z</time>
      </trkpt>
      <trkpt lat="47.792560961097479" lon="16.499928021803498">
        <ele>177.02000000000001</ele>
        <time>2015-04-07T13:48:26Z</time>
      </trkpt>
      <trkpt lat="47.792045976966619" lon="16.500257011502981">
        <ele>177.5</ele>
        <time>2015-04-07T13:48:40Z</time>
      </trkpt>
      <trkpt lat="47.791499979794025" lon="16.500616008415818">
        <ele>179.900000000000006</ele>
        <time>2015-04-07T13:48:56Z</time>
      </trkpt>
      <trkpt lat="47.791156992316246" lon="16.500838967040181">
        <ele>181.830000000000013</ele>
        <time>2015-04-07T13:49:08Z</time>
      </trkpt>
      <trkpt lat="47.790901008993387" lon="16.501022027805448">
        <ele>183.75</ele>
        <time>2015-04-07T13:49:19Z</time>
      </trkpt>
      <trkpt lat="47.790684001520276" lon="16.501214979216456">
        <ele>186.150000000000006</ele>
        <time>2015-04-07T13:49:30Z</time>
      </trkpt>
      <trkpt lat="47.79047797434032" lon="16.501418994739652">
        <ele>187.590000000000003</ele>
        <time>2015-04-07T13:49:40Z</time>
      </trkpt>
      <trkpt lat="47.790278987959027" lon="16.50160800665617">
        <ele>190</ele>
        <time>2015-04-07T13:49:50Z</time>
      </trkpt>
      <trkpt lat="47.789909010753036" lon="16.501925010234118">
        <ele>191.919999999999987</ele>
        <time>2015-04-07T13:50:05Z</time>
      </trkpt>
      <trkpt lat="47.78938296250999" lon="16.502320971339941">
        <ele>192.879999999999995</ele>
        <time>2015-04-07T13:50:22Z</time>
      </trkpt>
      <trkpt lat="47.789054978638887" lon="16.502428008243442">
        <ele>194.319999999999993</ele>
        <time>2015-04-07T13:50:33Z</time>
      </trkpt>
      <trkpt lat="47.788779968395829" lon="16.502056019380689">
        <ele>194.319999999999993</ele>
        <time>2015-04-07T13:50:42Z</time>
      </trkpt>
      <trkpt lat="47.788227014243603" lon="16.501859966665506">
        <ele>194.319999999999993</ele>
        <time>2015-04-07T13:50:57Z</time>
      </trkpt>
      <trkpt lat="47.787552019581199" lon="16.501733986660838">
        <ele>194.800000000000011</ele>
        <time>2015-04-07T13:51:13Z</time>
      </trkpt>
      <trkpt lat="47.786747021600604" lon="16.501399967819452">
        <ele>192.879999999999995</ele>
        <time>2015-04-07T13:51:29Z</time>
      </trkpt>
      <trkpt lat="47.786045037209988" lon="16.500869980081916">
        <ele>190</ele>
        <time>2015-04-07T13:51:42Z</time>
      </trkpt>
      <trkpt lat="47.784968968480825" lon="16.500136982649565">
        <ele>188.560000000000002</ele>
        <time>2015-04-07T13:52:00Z</time>
      </trkpt>
      <trkpt lat="47.783866999670863" lon="16.499525019899011">
        <ele>186.629999999999995</ele>
        <time>2015-04-07T13:52:18Z</time>
      </trkpt>
      <trkpt lat="47.783759962767363" lon="16.499434998258948">
        <ele>187.110000000000014</ele>
        <time>2015-04-07T13:52:20Z</time>
      </trkpt>
      <trkpt lat="47.783154034987092" lon="16.49853503331542">
        <ele>188.080000000000013</ele>
        <time>2015-04-07T13:52:36Z</time>
      </trkpt>
      <trkpt lat="47.782672997564077" lon="16.497876970097423">
        <ele>188.080000000000013</ele>
        <time>2015-04-07T13:52:50Z</time>
      </trkpt>
      <trkpt lat="47.782111996784806" lon="16.497471034526825">
        <ele>188.560000000000002</ele>
        <time>2015-04-07T13:53:04Z</time>
      </trkpt>
      <trkpt lat="47.781909992918372" lon="16.497420994564891">
        <ele>188.080000000000013</ele>
        <time>2015-04-07T13:53:09Z</time>
      </trkpt>
      <trkpt lat="47.781867999583483" lon="16.497423006221652">
        <ele>188.080000000000013</ele>
        <time>2015-04-07T13:53:10Z</time>
      </trkpt>
      <trkpt lat="47.781040035188198" lon="16.49744002148509">
        <ele>188.560000000000002</ele>
        <time>2015-04-07T13:53:28Z</time>
      </trkpt>
      <trkpt lat="47.780871978029609" lon="16.497373972088099">
        <ele>188.080000000000013</ele>
        <time>2015-04-07T13:53:32Z</time>
      </trkpt>
      <trkpt lat="47.780829984694719" lon="16.497348994016647">
        <ele>188.080000000000013</ele>
        <time>2015-04-07T13:53:33Z</time>
      </trkpt>
      <trkpt lat="47.78078799135983" lon="16.497315969318151">
        <ele>188.080000000000013</ele>
        <time>2015-04-07T13:53:34Z</time>
      </trkpt>
      <trkpt lat="47.780753960832953" lon="16.497277999296784">
        <ele>189.039999999999992</ele>
        <time>2015-04-07T13:53:35Z</time>
      </trkpt>
      <trkpt lat="47.780720014125109" lon="16.497238017618656">
        <ele>189.52000000000001</ele>
        <time>2015-04-07T13:53:36Z</time>
      </trkpt>
      <trkpt lat="47.780048036947846" lon="16.496497979387641">
        <ele>189.039999999999992</ele>
        <time>2015-04-07T13:53:56Z</time>
      </trkpt>
      <trkpt lat="47.779506985098124" lon="16.496088020503521">
        <ele>190</ele>
        <time>2015-04-07T13:54:12Z</time>
      </trkpt>
      <trkpt lat="47.779017984867096" lon="16.495783003047109">
        <ele>189.52000000000001</ele>
        <time>2015-04-07T13:54:26Z</time>
      </trkpt>
      <trkpt lat="47.778362017124891" lon="16.495371032506227">
        <ele>189.52000000000001</ele>
        <time>2015-04-07T13:54:43Z</time>
      </trkpt>
      <trkpt lat="47.778254980221391" lon="16.495257960632443">
        <ele>189.039999999999992</ele>
        <time>2015-04-07T13:54:46Z</time>
      </trkpt>
      <trkpt lat="47.778213992714882" lon="16.495222002267838">
        <ele>189.52000000000001</ele>
        <time>2015-04-07T13:54:47Z</time>
      </trkpt>
      <trkpt lat="47.778179040178657" lon="16.495182020589709">
        <ele>189.52000000000001</ele>
        <time>2015-04-07T13:54:48Z</time>
      </trkpt>
      <trkpt lat="47.778140986338258" lon="16.49514396674931">
        <ele>190</ele>
        <time>2015-04-07T13:54:49Z</time>
      </trkpt>
      <trkpt lat="47.778107039630413" lon="16.495101973414421">
        <ele>189.52000000000001</ele>
        <time>2015-04-07T13:54:50Z</time>
      </trkpt>
      <trkpt lat="47.777401031926274" lon="16.494487999007106">
        <ele>190</ele>
        <time>2015-04-07T13:55:09Z</time>
      </trkpt>
      <trkpt lat="47.777039017528296" lon="16.494096983224154">
        <ele>190</ele>
        <time>2015-04-07T13:55:19Z</time>
      </trkpt>
      <trkpt lat="47.776611037552357" lon="16.493429029360414">
        <ele>190</ele>
        <time>2015-04-07T13:55:34Z</time>
      </trkpt>
      <trkpt lat="47.776505006477237" lon="16.49310096167028">
        <ele>190</ele>
        <time>2015-04-07T13:55:40Z</time>
      </trkpt>
      <trkpt lat="47.776343990117311" lon="16.492493022233248">
        <ele>190.960000000000008</ele>
        <time>2015-04-07T13:55:52Z</time>
      </trkpt>
      <trkpt lat="47.776271989569068" lon="16.492251958698034">
        <ele>192.400000000000006</ele>
        <time>2015-04-07T13:55:57Z</time>
      </trkpt>
      <trkpt lat="47.776234019547701" lon="16.492107035592198">
        <ele>195.280000000000001</ele>
        <time>2015-04-07T13:56:01Z</time>
      </trkpt>
      <trkpt lat="47.776161013171077" lon="16.491754995658994">
        <ele>191.919999999999987</ele>
        <time>2015-04-07T13:56:09Z</time>
      </trkpt>
      <trkpt lat="47.776153972372413" lon="16.491691963747144">
        <ele>191.919999999999987</ele>
        <time>2015-04-07T13:56:10Z</time>
      </trkpt>
      <trkpt lat="47.7761269826442" lon="16.491497000679374">
        <ele>190.47999999999999</ele>
        <time>2015-04-07T13:56:13Z</time>
      </trkpt>
      <trkpt lat="47.776011982932687" lon="16.491044964641333">
        <ele>190.960000000000008</ele>
        <time>2015-04-07T13:56:20Z</time>
      </trkpt>
      <trkpt lat="47.775680981576443" lon="16.490234015509486">
        <ele>192.879999999999995</ele>
        <time>2015-04-07T13:56:36Z</time>
      </trkpt>
      <trkpt lat="47.775321984663606" lon="16.489318963140249">
        <ele>191.919999999999987</ele>
        <time>2015-04-07T13:56:54Z</time>
      </trkpt>
      <trkpt lat="47.775058960542083" lon="16.488273991271853">
        <ele>191.439999999999998</ele>
        <time>2015-04-07T13:57:12Z</time>
      </trkpt>
      <trkpt lat="47.774905990809202" lon="16.487543005496264">
        <ele>193.360000000000014</ele>
        <time>2015-04-07T13:57:27Z</time>
      </trkpt>
      <trkpt lat="47.774796020239592" lon="16.487092981114984">
        <ele>193.840000000000003</ele>
        <time>2015-04-07T13:57:37Z</time>
      </trkpt>
      <trkpt lat="47.77472703717649" lon="16.486743958666921">
        <ele>194.800000000000011</ele>
        <time>2015-04-07T13:57:46Z</time>
      </trkpt>
      <trkpt lat="47.774714967235923" lon="16.486683022230864">
        <ele>194.319999999999993</ele>
        <time>2015-04-07T13:57:47Z</time>
      </trkpt>
      <trkpt lat="47.774654030799866" lon="16.48646199144423">
        <ele>194.319999999999993</ele>
        <time>2015-04-07T13:57:51Z</time>
      </trkpt>
      <trkpt lat="47.774639027193189" lon="16.486403988674283">
        <ele>194.319999999999993</ele>
        <time>2015-04-07T13:57:52Z</time>
      </trkpt>
      <trkpt lat="47.774391006678343" lon="16.485388018190861">
        <ele>192.400000000000006</ele>
        <time>2015-04-07T13:58:09Z</time>
      </trkpt>
      <trkpt lat="47.774341972544789" lon="16.485186014324427">
        <ele>191.919999999999987</ele>
        <time>2015-04-07T13:58:12Z</time>
      </trkpt>
      <trkpt lat="47.774058999493718" lon="16.484222011640668">
        <ele>191.919999999999987</ele>
        <time>2015-04-07T13:58:27Z</time>
      </trkpt>
      <trkpt lat="47.774043995887041" lon="16.48416300304234">
        <ele>192.400000000000006</ele>
        <time>2015-04-07T13:58:28Z</time>
      </trkpt>
      <trkpt lat="47.774033015593886" lon="16.484101982787251">
        <ele>192.400000000000006</ele>
        <time>2015-04-07T13:58:29Z</time>
      </trkpt>
      <trkpt lat="47.774013988673687" lon="16.48306799121201">
        <ele>190.960000000000008</ele>
        <time>2015-04-07T13:58:44Z</time>
      </trkpt>
      <trkpt lat="47.774013988673687" lon="16.482003992423415">
        <ele>191.439999999999998</ele>
        <time>2015-04-07T13:59:00Z</time>
      </trkpt>
      <trkpt lat="47.773913992568851" lon="16.481102015823126">
        <ele>192.879999999999995</ele>
        <time>2015-04-07T13:59:15Z</time>
      </trkpt>
      <trkpt lat="47.773705031722784" lon="16.480169026181102">
        <ele>192.879999999999995</ele>
        <time>2015-04-07T13:59:32Z</time>
      </trkpt>
      <trkpt lat="47.773388028144836" lon="16.479273000732064">
        <ele>194.319999999999993</ele>
        <time>2015-04-07T13:59:49Z</time>
      </trkpt>
      <trkpt lat="47.772953007370234" lon="16.478433972224593">
        <ele>194.800000000000011</ele>
        <time>2015-04-07T14:00:06Z</time>
      </trkpt>
      <trkpt lat="47.772682020440698" lon="16.477634003385901">
        <ele>196.25</ele>
        <time>2015-04-07T14:00:22Z</time>
      </trkpt>
      <trkpt lat="47.772511029615998" lon="16.476981975138187">
        <ele>194.319999999999993</ele>
        <time>2015-04-07T14:00:36Z</time>
      </trkpt>
      <trkpt lat="47.772324029356241" lon="16.476461039856076">
        <ele>194.800000000000011</ele>
        <time>2015-04-07T14:00:48Z</time>
      </trkpt>
      <trkpt lat="47.772079026326537" lon="16.475972961634398">
        <ele>195.280000000000001</ele>
        <time>2015-04-07T14:01:01Z</time>
      </trkpt>
      <trkpt lat="47.771774008870125" lon="16.475409027189016">
        <ele>197.210000000000008</ele>
        <time>2015-04-07T14:01:15Z</time>
      </trkpt>
      <trkpt lat="47.771706031635404" lon="16.475282963365316">
        <ele>195.77000000000001</ele>
        <time>2015-04-07T14:01:18Z</time>
      </trkpt>
      <trkpt lat="47.77133597061038" lon="16.474674018099904">
        <ele>196.72999999999999</ele>
        <time>2015-04-07T14:01:34Z</time>
      </trkpt>
      <trkpt lat="47.77103397063911" lon="16.474076975136995">
        <ele>197.210000000000008</ele>
        <time>2015-04-07T14:01:48Z</time>
      </trkpt>
      <trkpt lat="47.770725013688207" lon="16.473438022658229">
        <ele>197.210000000000008</ele>
        <time>2015-04-07T14:02:03Z</time>
      </trkpt>
      <trkpt lat="47.770347995683551" lon="16.472665965557098">
        <ele>196.72999999999999</ele>
        <time>2015-04-07T14:02:21Z</time>
      </trkpt>
      <trkpt lat="47.77006896212697" lon="16.471972027793527">
        <ele>197.689999999999998</ele>
        <time>2015-04-07T14:02:36Z</time>
      </trkpt>
      <trkpt lat="47.770092012360692" lon="16.471284963190556">
        <ele>198.169999999999987</ele>
        <time>2015-04-07T14:02:49Z</time>
      </trkpt>
      <trkpt lat="47.770077008754015" lon="16.470417017117143">
        <ele>200.090000000000003</ele>
        <time>2015-04-07T14:03:07Z</time>
      </trkpt>
      <trkpt lat="47.769951028749347" lon="16.469801031053066">
        <ele>200.090000000000003</ele>
        <time>2015-04-07T14:03:21Z</time>
      </trkpt>
      <trkpt lat="47.769782971590757" lon="16.469280011951923">
        <ele>200.090000000000003</ele>
        <time>2015-04-07T14:03:33Z</time>
      </trkpt>
      <trkpt lat="47.769493041560054" lon="16.468378035351634">
        <ele>199.610000000000014</ele>
        <time>2015-04-07T14:03:50Z</time>
      </trkpt>
      <trkpt lat="47.76914200745523" lon="16.467488966882229">
        <ele>199.610000000000014</ele>
        <time>2015-04-07T14:04:08Z</time>
      </trkpt>
      <trkpt lat="47.768917037174106" lon="16.466956967487931">
        <ele>199.610000000000014</ele>
        <time>2015-04-07T14:04:19Z</time>
      </trkpt>
      <trkpt lat="47.768570026382804" lon="16.466204021126032">
        <ele>200.569999999999993</ele>
        <time>2015-04-07T14:04:35Z</time>
      </trkpt>
      <trkpt lat="47.768363999202847" lon="16.46579397842288">
        <ele>202.490000000000009</ele>
        <time>2015-04-07T14:04:46Z</time>
      </trkpt>
      <trkpt lat="47.76817699894309" lon="16.465465994551778">
        <ele>202.009999999999991</ele>
        <time>2015-04-07T14:04:54Z</time>
      </trkpt>
      <trkpt lat="47.767867958173156" lon="16.464895019307733">
        <ele>199.610000000000014</ele>
        <time>2015-04-07T14:05:06Z</time>
      </trkpt>
      <trkpt lat="47.767581967636943" lon="16.464092032983899">
        <ele>197.210000000000008</ele>
        <time>2015-04-07T14:05:21Z</time>
      </trkpt>
      <trkpt lat="47.767460010945797" lon="16.463442016392946">
        <ele>199.129999999999995</ele>
        <time>2015-04-07T14:05:33Z</time>
      </trkpt>
      <trkpt lat="47.76744500733912" lon="16.462787976488471">
        <ele>198.650000000000006</ele>
        <time>2015-04-07T14:05:45Z</time>
      </trkpt>
      <trkpt lat="47.767413994297385" lon="16.462322026491165">
        <ele>198.169999999999987</ele>
        <time>2015-04-07T14:05:55Z</time>
      </trkpt>
      <trkpt lat="47.767406031489372" lon="16.462310962378979">
        <ele>198.650000000000006</ele>
        <time>2015-04-07T14:05:56Z</time>
      </trkpt>
      <trkpt lat="47.767409970983863" lon="16.462300987914205">
        <ele>197.689999999999998</ele>
        <time>2015-04-07T14:06:05Z</time>
      </trkpt>
      <trkpt lat="47.767398990690708" lon="16.462280033156276">
        <ele>198.169999999999987</ele>
        <time>2015-04-07T14:06:13Z</time>
      </trkpt>
      <trkpt lat="47.767383987084031" lon="16.462275004014373">
        <ele>197.689999999999998</ele>
        <time>2015-04-07T14:06:14Z</time>
      </trkpt>
      <trkpt lat="47.767364960163832" lon="16.462275004014373">
        <ele>198.169999999999987</ele>
        <time>2015-04-07T14:06:15Z</time>
      </trkpt>
      <trkpt lat="47.767349034547806" lon="16.462280033156276">
        <ele>198.169999999999987</ele>
        <time>2015-04-07T14:06:16Z</time>
      </trkpt>
      <trkpt lat="47.767334030941129" lon="16.462294030934572">
        <ele>198.169999999999987</ele>
        <time>2015-04-07T14:06:17Z</time>
      </trkpt>
      <trkpt lat="47.767310980707407" lon="16.462309034541249">
        <ele>198.169999999999987</ele>
        <time>2015-04-07T14:06:18Z</time>
      </trkpt>
      <trkpt lat="47.767288014292717" lon="16.462325965985656">
        <ele>198.650000000000006</ele>
        <time>2015-04-07T14:06:19Z</time>
      </trkpt>
      <trkpt lat="47.766906972974539" lon="16.462519001215696">
        <ele>198.169999999999987</ele>
        <time>2015-04-07T14:06:30Z</time>
      </trkpt>
      <trkpt lat="47.766780992969871" lon="16.462546996772289">
        <ele>199.129999999999995</ele>
        <time>2015-04-07T14:06:33Z</time>
      </trkpt>
      <trkpt lat="47.766510006040335" lon="16.462566023692489">
        <ele>199.610000000000014</ele>
        <time>2015-04-07T14:06:39Z</time>
      </trkpt>
      <trkpt lat="47.766468012705445" lon="16.462553031742573">
        <ele>199.610000000000014</ele>
        <time>2015-04-07T14:06:40Z</time>
      </trkpt>
      <trkpt lat="47.766429958865047" lon="16.462529981508851">
        <ele>200.090000000000003</ele>
        <time>2015-04-07T14:06:41Z</time>
      </trkpt>
      <trkpt lat="47.766396012157202" lon="16.462497962638736">
        <ele>199.610000000000014</ele>
        <time>2015-04-07T14:06:42Z</time>
      </trkpt>
      <trkpt lat="47.766364999115467" lon="16.462455969303846">
        <ele>200.569999999999993</ele>
        <time>2015-04-07T14:06:43Z</time>
      </trkpt>
      <trkpt lat="47.766338009387255" lon="16.462408024817705">
        <ele>201.050000000000011</ele>
        <time>2015-04-07T14:06:44Z</time>
      </trkpt>
      <trkpt lat="47.766312025487423" lon="16.462362008169293">
        <ele>201.050000000000011</ele>
        <time>2015-04-07T14:06:45Z</time>
      </trkpt>
      <trkpt lat="47.766288975253701" lon="16.462320014834404">
        <ele>201.050000000000011</ele>
        <time>2015-04-07T14:06:46Z</time>
      </trkpt>
      <trkpt lat="47.766266008839011" lon="16.462280033156276">
        <ele>201.050000000000011</ele>
        <time>2015-04-07T14:06:47Z</time>
      </trkpt>
      <trkpt lat="47.766041038557887" lon="16.461778962984681">
        <ele>201.050000000000011</ele>
        <time>2015-04-07T14:07:01Z</time>
      </trkpt>
      <trkpt lat="47.765949005261064" lon="16.461596991866827">
        <ele>201.530000000000001</ele>
        <time>2015-04-07T14:07:05Z</time>
      </trkpt>
      <trkpt lat="47.765537034720182" lon="16.460724016651511">
        <ele>201.050000000000011</ele>
        <time>2015-04-07T14:07:22Z</time>
      </trkpt>
      <trkpt lat="47.765465034171939" lon="16.460581021383405">
        <ele>202.97999999999999</ele>
        <time>2015-04-07T14:07:25Z</time>
      </trkpt>
      <trkpt lat="47.765160016715527" lon="16.460295030847192">
        <ele>201.530000000000001</ele>
        <time>2015-04-07T14:07:36Z</time>
      </trkpt>
      <trkpt lat="47.764819962903857" lon="16.460394021123648">
        <ele>201.530000000000001</ele>
        <time>2015-04-07T14:07:46Z</time>
      </trkpt>
      <trkpt lat="47.764537995681167" lon="16.460042987018824">
        <ele>202.97999999999999</ele>
        <time>2015-04-07T14:07:56Z</time>
      </trkpt>
      <trkpt lat="47.764148991554976" lon="16.459648031741381">
        <ele>204.900000000000006</ele>
        <time>2015-04-07T14:08:09Z</time>
      </trkpt>
      <trkpt lat="47.763804998248816" lon="16.459292974323034">
        <ele>205.379999999999995</ele>
        <time>2015-04-07T14:08:20Z</time>
      </trkpt>
      <trkpt lat="47.763187000527978" lon="16.458634994924068">
        <ele>205.379999999999995</ele>
        <time>2015-04-07T14:08:39Z</time>
      </trkpt>
      <trkpt lat="47.7628059592098" lon="16.45799595862627">
        <ele>204.419999999999987</ele>
        <time>2015-04-07T14:08:54Z</time>
      </trkpt>
      <trkpt lat="47.762519968673587" lon="16.457506036385894">
        <ele>206.819999999999993</ele>
        <time>2015-04-07T14:09:05Z</time>
      </trkpt>
      <trkpt lat="47.762238001450896" lon="16.457023993134499">
        <ele>206.819999999999993</ele>
        <time>2015-04-07T14:09:17Z</time>
      </trkpt>
      <trkpt lat="47.761982018128037" lon="16.456588972359896">
        <ele>208.259999999999991</ele>
        <time>2015-04-07T14:09:29Z</time>
      </trkpt>
      <trkpt lat="47.761958967894316" lon="16.456556031480432">
        <ele>208.259999999999991</ele>
        <time>2015-04-07T14:09:30Z</time>
      </trkpt>
      <trkpt lat="47.761702984571457" lon="16.456140959635377">
        <ele>209.219999999999999</ele>
        <time>2015-04-07T14:09:43Z</time>
      </trkpt>
      <trkpt lat="47.76149402372539" lon="16.455787997692823">
        <ele>210.669999999999987</ele>
        <time>2015-04-07T14:09:53Z</time>
      </trkpt>
      <trkpt lat="47.761096972972155" lon="16.455279970541596">
        <ele>211.629999999999995</ele>
        <time>2015-04-07T14:10:11Z</time>
      </trkpt>
      <trkpt lat="47.760803019627929" lon="16.45492197945714">
        <ele>211.150000000000006</ele>
        <time>2015-04-07T14:10:22Z</time>
      </trkpt>
      <trkpt lat="47.760773012414575" lon="16.454887026920915">
        <ele>207.780000000000001</ele>
        <time>2015-04-07T14:10:23Z</time>
      </trkpt>
      <trkpt lat="47.76074199937284" lon="16.454845033586025">
        <ele>210.189999999999998</ele>
        <time>2015-04-07T14:10:24Z</time>
      </trkpt>
      <trkpt lat="47.760715009644628" lon="16.454802034422755">
        <ele>210.189999999999998</ele>
        <time>2015-04-07T14:10:25Z</time>
      </trkpt>
      <trkpt lat="47.76067703962326" lon="16.454758029431105">
        <ele>209.699999999999989</ele>
        <time>2015-04-07T14:10:26Z</time>
      </trkpt>
      <trkpt lat="47.760517029091716" lon="16.454596007242799">
        <ele>209.219999999999999</ele>
        <time>2015-04-07T14:10:30Z</time>
      </trkpt>
      <trkpt lat="47.760421978309751" lon="16.454314962029457">
        <ele>207.780000000000001</ele>
        <time>2015-04-07T14:10:37Z</time>
      </trkpt>
      <trkpt lat="47.760498002171516" lon="16.453793020918965">
        <ele>206.819999999999993</ele>
        <time>2015-04-07T14:10:44Z</time>
      </trkpt>
      <trkpt lat="47.760029034689069" lon="16.453619012609124">
        <ele>207.780000000000001</ele>
        <time>2015-04-07T14:10:55Z</time>
      </trkpt>
      <trkpt lat="47.759513966739178" lon="16.453232020139694">
        <ele>209.219999999999999</ele>
        <time>2015-04-07T14:11:10Z</time>
      </trkpt>
      <trkpt lat="47.759116999804974" lon="16.452954998239875">
        <ele>209.219999999999999</ele>
        <time>2015-04-07T14:11:22Z</time>
      </trkpt>
      <trkpt lat="47.758750962093472" lon="16.452583009377122">
        <ele>209.699999999999989</ele>
        <time>2015-04-07T14:11:34Z</time>
      </trkpt>
      <trkpt lat="47.758461032062769" lon="16.452201968058944">
        <ele>210.189999999999998</ele>
        <time>2015-04-07T14:11:47Z</time>
      </trkpt>
      <trkpt lat="47.758655995130539" lon="16.451906003057957">
        <ele>210.669999999999987</ele>
        <time>2015-04-07T14:11:56Z</time>
      </trkpt>
      <trkpt lat="47.75874299928546" lon="16.45180500112474">
        <ele>209.699999999999989</ele>
        <time>2015-04-07T14:11:59Z</time>
      </trkpt>
      <trkpt lat="47.758784992620349" lon="16.451381966471672">
        <ele>209.219999999999999</ele>
        <time>2015-04-07T14:12:10Z</time>
      </trkpt>
      <trkpt lat="47.758472012355924" lon="16.450892966240644">
        <ele>209.699999999999989</ele>
        <time>2015-04-07T14:12:21Z</time>
      </trkpt>
      <trkpt lat="47.758189961314201" lon="16.45043003372848">
        <ele>210.669999999999987</ele>
        <time>2015-04-07T14:12:33Z</time>
      </trkpt>
      <trkpt lat="47.758053001016378" lon="16.450169021263719">
        <ele>210.669999999999987</ele>
        <time>2015-04-07T14:12:39Z</time>
      </trkpt>
      <trkpt lat="47.758021987974644" lon="16.450118981301785">
        <ele>210.189999999999998</ele>
        <time>2015-04-07T14:12:40Z</time>
      </trkpt>
      <trkpt lat="47.757792994379997" lon="16.449712961912155">
        <ele>210.189999999999998</ele>
        <time>2015-04-07T14:12:48Z</time>
      </trkpt>
      <trkpt lat="47.757384963333607" lon="16.448979964479804">
        <ele>211.150000000000006</ele>
        <time>2015-04-07T14:13:04Z</time>
      </trkpt>
      <trkpt lat="47.75698103941977" lon="16.448317039757967">
        <ele>211.629999999999995</ele>
        <time>2015-04-07T14:13:20Z</time>
      </trkpt>
      <trkpt lat="47.756728995591402" lon="16.447937004268169">
        <ele>211.629999999999995</ele>
        <time>2015-04-07T14:13:29Z</time>
      </trkpt>
      <trkpt lat="47.756374021992087" lon="16.447409028187394">
        <ele>212.590000000000003</ele>
        <time>2015-04-07T14:13:44Z</time>
      </trkpt>
      <trkpt lat="47.756104040890932" lon="16.447041984647512">
        <ele>214.030000000000001</ele>
        <time>2015-04-07T14:13:55Z</time>
      </trkpt>
      <trkpt lat="47.756019970402122" lon="16.446907036006451">
        <ele>214.990000000000009</ele>
        <time>2015-04-07T14:13:58Z</time>
      </trkpt>
      <trkpt lat="47.755961967632174" lon="16.44682296551764">
        <ele>214.030000000000001</ele>
        <time>2015-04-07T14:14:00Z</time>
      </trkpt>
      <trkpt lat="47.755935983732343" lon="16.446782983839512">
        <ele>213.550000000000011</ele>
        <time>2015-04-07T14:14:01Z</time>
      </trkpt>
      <trkpt lat="47.755913017317653" lon="16.446747025474906">
        <ele>214.030000000000001</ele>
        <time>2015-04-07T14:14:02Z</time>
      </trkpt>
      <trkpt lat="47.755702966824174" lon="16.446447037160397">
        <ele>214.990000000000009</ele>
        <time>2015-04-07T14:14:13Z</time>
      </trkpt>
      <trkpt lat="47.75541303679347" lon="16.446056021377444">
        <ele>215.949999999999989</ele>
        <time>2015-04-07T14:14:24Z</time>
      </trkpt>
      <trkpt lat="47.755042975768447" lon="16.445568026974797">
        <ele>216.909999999999997</ele>
        <time>2015-04-07T14:14:39Z</time>
      </trkpt>
      <trkpt lat="47.754626981914043" lon="16.445052959024906">
        <ele>216.909999999999997</ele>
        <time>2015-04-07T14:14:55Z</time>
      </trkpt>
      <trkpt lat="47.754527991637588" lon="16.444920022040606">
        <ele>219.319999999999993</ele>
        <time>2015-04-07T14:14:59Z</time>
      </trkpt>
      <trkpt lat="47.754406034946442" lon="16.444761017337441">
        <ele>217.400000000000006</ele>
        <time>2015-04-07T14:15:05Z</time>
      </trkpt>
      <trkpt lat="47.754062963649631" lon="16.444278974086046">
        <ele>219.319999999999993</ele>
        <time>2015-04-07T14:15:20Z</time>
      </trkpt>
      <trkpt lat="47.753661973401904" lon="16.443508006632328">
        <ele>218.840000000000003</ele>
        <time>2015-04-07T14:15:37Z</time>
      </trkpt>
      <trkpt lat="47.753604976460338" lon="16.443332992494106">
        <ele>218.840000000000003</ele>
        <time>2015-04-07T14:15:40Z</time>
      </trkpt>
      <trkpt lat="47.753432979807258" lon="16.442668978124857">
        <ele>216.909999999999997</ele>
        <time>2015-04-07T14:15:50Z</time>
      </trkpt>
      <trkpt lat="47.753429040312767" lon="16.442594965919852">
        <ele>217.400000000000006</ele>
        <time>2015-04-07T14:15:51Z</time>
      </trkpt>
      <trkpt lat="47.753432979807258" lon="16.442516008391976">
        <ele>216.430000000000007</ele>
        <time>2015-04-07T14:15:52Z</time>
      </trkpt>
      <trkpt lat="47.753452006727457" lon="16.442435961216688">
        <ele>215.949999999999989</ele>
        <time>2015-04-07T14:15:53Z</time>
      </trkpt>
      <trkpt lat="47.753471033647656" lon="16.442355997860432">
        <ele>215.469999999999999</ele>
        <time>2015-04-07T14:15:54Z</time>
      </trkpt>
      <trkpt lat="47.753498023375869" lon="16.442272011190653">
        <ele>215.469999999999999</ele>
        <time>2015-04-07T14:15:55Z</time>
      </trkpt>
      <trkpt lat="47.753601036965847" lon="16.441934974864125">
        <ele>214.509999999999991</ele>
        <time>2015-04-07T14:15:59Z</time>
      </trkpt>
      <trkpt lat="47.753616040572524" lon="16.441845037043095">
        <ele>214.030000000000001</ele>
        <time>2015-04-07T14:16:00Z</time>
      </trkpt>
      <trkpt lat="47.753696003928781" lon="16.441269032657146">
        <ele>214.030000000000001</ele>
        <time>2015-04-07T14:16:07Z</time>
      </trkpt>
      <trkpt lat="47.753696003928781" lon="16.441193008795381">
        <ele>213.550000000000011</ele>
        <time>2015-04-07T14:16:08Z</time>
      </trkpt>
      <trkpt lat="47.753685023635626" lon="16.441120002418756">
        <ele>213.550000000000011</ele>
        <time>2015-04-07T14:16:09Z</time>
      </trkpt>
      <trkpt lat="47.753665996715426" lon="16.441051019355655">
        <ele>213.550000000000011</ele>
        <time>2015-04-07T14:16:10Z</time>
      </trkpt>
      <trkpt lat="47.753639006987214" lon="16.440989999100566">
        <ele>213.550000000000011</ele>
        <time>2015-04-07T14:16:11Z</time>
      </trkpt>
      <trkpt lat="47.753604976460338" lon="16.440933002158999">
        <ele>213.550000000000011</ele>
        <time>2015-04-07T14:16:12Z</time>
      </trkpt>
      <trkpt lat="47.753567006438971" lon="16.440880028530955">
        <ele>213.069999999999993</ele>
        <time>2015-04-07T14:16:13Z</time>
      </trkpt>
      <trkpt lat="47.753531970083714" lon="16.440832000225782">
        <ele>213.069999999999993</ele>
        <time>2015-04-07T14:16:14Z</time>
      </trkpt>
      <trkpt lat="47.752968035638332" lon="16.44020302221179">
        <ele>213.550000000000011</ele>
        <time>2015-04-07T14:16:29Z</time>
      </trkpt>
      <trkpt lat="47.752518011257052" lon="16.439655013382435">
        <ele>213.069999999999993</ele>
        <time>2015-04-07T14:16:42Z</time>
      </trkpt>
      <trkpt lat="47.752486998215318" lon="16.439610002562404">
        <ele>213.069999999999993</ele>
        <time>2015-04-07T14:16:43Z</time>
      </trkpt>
      <trkpt lat="47.752464031800628" lon="16.43955803476274">
        <ele>213.069999999999993</ele>
        <time>2015-04-07T14:16:44Z</time>
      </trkpt>
      <trkpt lat="47.752235038205981" lon="16.43885001540184">
        <ele>212.590000000000003</ele>
        <time>2015-04-07T14:16:57Z</time>
      </trkpt>
      <trkpt lat="47.752097994089127" lon="16.43827099353075">
        <ele>212.110000000000014</ele>
        <time>2015-04-07T14:17:09Z</time>
      </trkpt>
      <trkpt lat="47.751967990770936" lon="16.437823986634612">
        <ele>214.509999999999991</ele>
        <time>2015-04-07T14:17:18Z</time>
      </trkpt>
      <trkpt lat="47.751942006871104" lon="16.43777696415782">
        <ele>214.509999999999991</ele>
        <time>2015-04-07T14:17:19Z</time>
      </trkpt>
      <trkpt lat="47.751858020201325" lon="16.437550988048315">
        <ele>214.030000000000001</ele>
        <time>2015-04-07T14:17:29Z</time>
      </trkpt>
      <trkpt lat="47.751853996887803" lon="16.437547970563173">
        <ele>218.360000000000014</ele>
        <time>2015-04-07T14:17:33Z</time>
      </trkpt>
      <trkpt lat="47.751853996887803" lon="16.437547970563173">
        <ele>214.030000000000001</ele>
        <time>2015-04-07T14:17:34Z</time>
      </trkpt>
      <trkpt lat="47.751853996887803" lon="16.437547970563173">
        <ele>214.990000000000009</ele>
        <time>2015-04-07T14:18:06Z</time>
      </trkpt>
      <trkpt lat="47.751853996887803" lon="16.437550988048315">
        <ele>214.990000000000009</ele>
        <time>2015-04-07T14:18:34Z</time>
      </trkpt>
      <trkpt lat="47.751853996887803" lon="16.437545958906412">
        <ele>214.509999999999991</ele>
        <time>2015-04-07T14:18:55Z</time>
      </trkpt>
      <trkpt lat="47.751838993281126" lon="16.437542019411922">
        <ele>214.030000000000001</ele>
        <time>2015-04-07T14:18:57Z</time>
      </trkpt>
      <trkpt lat="47.751572029665112" lon="16.437714016065001">
        <ele>214.030000000000001</ele>
        <time>2015-04-07T14:19:07Z</time>
      </trkpt>
      <trkpt lat="47.751297019422054" lon="16.43792700022459">
        <ele>215.469999999999999</ele>
        <time>2015-04-07T14:19:15Z</time>
      </trkpt>
      <trkpt lat="47.750918995589018" lon="16.437962036579847">
        <ele>216.430000000000007</ele>
        <time>2015-04-07T14:19:26Z</time>
      </trkpt>
      <trkpt lat="47.750561004504561" lon="16.437806971371174">
        <ele>219.800000000000011</ele>
        <time>2015-04-07T14:19:36Z</time>
      </trkpt>
      <trkpt lat="47.750228997319937" lon="16.437656013295054">
        <ele>222.199999999999989</ele>
        <time>2015-04-07T14:19:47Z</time>
      </trkpt>
      <trkpt lat="47.74982800707221" lon="16.437487034127116">
        <ele>223.639999999999986</ele>
        <time>2015-04-07T14:20:01Z</time>
      </trkpt>
      <trkpt lat="47.749458029866219" lon="16.437377985566854">
        <ele>225.569999999999993</ele>
        <time>2015-04-07T14:20:15Z</time>
      </trkpt>
      <trkpt lat="47.749186959117651" lon="16.437230966985226">
        <ele>226.530000000000001</ele>
        <time>2015-04-07T14:20:27Z</time>
      </trkpt>
      <trkpt lat="47.748771971091628" lon="16.436898959800601">
        <ele>227.009999999999991</ele>
        <time>2015-04-07T14:20:41Z</time>
      </trkpt>
      <trkpt lat="47.748318007215858" lon="16.436510039493442">
        <ele>228.449999999999989</ele>
        <time>2015-04-07T14:20:57Z</time>
      </trkpt>
      <trkpt lat="47.74778701364994" lon="16.43586496822536">
        <ele>228.930000000000007</ele>
        <time>2015-04-07T14:21:16Z</time>
      </trkpt>
      <trkpt lat="47.747245961800218" lon="16.435361970216036">
        <ele>230.849999999999994</ele>
        <time>2015-04-07T14:21:33Z</time>
      </trkpt>
      <trkpt lat="47.746688984334469" lon="16.434809016063809">
        <ele>232.780000000000001</ele>
        <time>2015-04-07T14:21:51Z</time>
      </trkpt>
      <trkpt lat="47.74628103710711" lon="16.434324039146304">
        <ele>234.219999999999999</ele>
        <time>2015-04-07T14:22:07Z</time>
      </trkpt>
      <trkpt lat="47.745807962492108" lon="16.43367201089859">
        <ele>235.659999999999997</ele>
        <time>2015-04-07T14:22:25Z</time>
      </trkpt>
      <trkpt lat="47.745384005829692" lon="16.433064993470907">
        <ele>234.219999999999999</ele>
        <time>2015-04-07T14:22:38Z</time>
      </trkpt>
      <trkpt lat="47.744797021150589" lon="16.43212303519249">
        <ele>230.849999999999994</ele>
        <time>2015-04-07T14:22:52Z</time>
      </trkpt>
      <trkpt lat="47.744194027036428" lon="16.430941019207239">
        <ele>228.930000000000007</ele>
        <time>2015-04-07T14:23:07Z</time>
      </trkpt>
      <trkpt lat="47.743736039847136" lon="16.430045999586582">
        <ele>232.300000000000011</ele>
        <time>2015-04-07T14:23:23Z</time>
      </trkpt>
      <trkpt lat="47.743515009060502" lon="16.429605027660728">
        <ele>234.699999999999989</ele>
        <time>2015-04-07T14:23:35Z</time>
      </trkpt>
      <trkpt lat="47.743323985487223" lon="16.429263968020678">
        <ele>236.620000000000005</ele>
        <time>2015-04-07T14:23:45Z</time>
      </trkpt>
      <trkpt lat="47.743152994662523" lon="16.428974037989974">
        <ele>237.099999999999994</ele>
        <time>2015-04-07T14:23:56Z</time>
      </trkpt>
      <trkpt lat="47.742816964164376" lon="16.428238023072481">
        <ele>239.02000000000001</ele>
        <time>2015-04-07T14:24:15Z</time>
      </trkpt>
      <trkpt lat="47.742638010531664" lon="16.427277037873864">
        <ele>239.990000000000009</ele>
        <time>2015-04-07T14:24:35Z</time>
      </trkpt>
      <trkpt lat="47.742569027468562" lon="16.426803963258862">
        <ele>238.539999999999992</ele>
        <time>2015-04-07T14:24:44Z</time>
      </trkpt>
      <trkpt lat="47.742527034133673" lon="16.42660497687757">
        <ele>237.099999999999994</ele>
        <time>2015-04-07T14:24:47Z</time>
      </trkpt>
      <trkpt lat="47.742503983899951" lon="16.426534987986088">
        <ele>237.099999999999994</ele>
        <time>2015-04-07T14:24:48Z</time>
      </trkpt>
      <trkpt lat="47.742470037192106" lon="16.426466004922986">
        <ele>237.099999999999994</ele>
        <time>2015-04-07T14:24:49Z</time>
      </trkpt>
      <trkpt lat="47.742435000836849" lon="16.426399033516645">
        <ele>236.139999999999986</ele>
        <time>2015-04-07T14:24:50Z</time>
      </trkpt>
      <trkpt lat="47.74239300750196" lon="16.426340024918318">
        <ele>236.139999999999986</ele>
        <time>2015-04-07T14:24:51Z</time>
      </trkpt>
      <trkpt lat="47.742352019995451" lon="16.42628101631999">
        <ele>235.659999999999997</ele>
        <time>2015-04-07T14:24:52Z</time>
      </trkpt>
      <trkpt lat="47.741531012579799" lon="16.425531003624201">
        <ele>234.219999999999999</ele>
        <time>2015-04-07T14:25:08Z</time>
      </trkpt>
      <trkpt lat="47.741013010963798" lon="16.424742015078664">
        <ele>235.659999999999997</ele>
        <time>2015-04-07T14:25:22Z</time>
      </trkpt>
      <trkpt lat="47.740878984332085" lon="16.424557026475668">
        <ele>237.099999999999994</ele>
        <time>2015-04-07T14:25:26Z</time>
      </trkpt>
      <trkpt lat="47.740551000460982" lon="16.424124017357826">
        <ele>238.539999999999992</ele>
        <time>2015-04-07T14:25:39Z</time>
      </trkpt>
      <trkpt lat="47.740260986611247" lon="16.423750016838312">
        <ele>240.469999999999999</ele>
        <time>2015-04-07T14:25:52Z</time>
      </trkpt>
      <trkpt lat="47.740016989409924" lon="16.423400994390249">
        <ele>241.909999999999997</ele>
        <time>2015-04-07T14:26:04Z</time>
      </trkpt>
      <trkpt lat="47.739719012752175" lon="16.422965973615646">
        <ele>240.469999999999999</ele>
        <time>2015-04-07T14:26:17Z</time>
      </trkpt>
      <trkpt lat="47.739704009145498" lon="16.422905037179589">
        <ele>239.990000000000009</ele>
        <time>2015-04-07T14:26:18Z</time>
      </trkpt>
      <trkpt lat="47.739699985831976" lon="16.422832030802965">
        <ele>239.509999999999991</ele>
        <time>2015-04-07T14:26:19Z</time>
      </trkpt>
      <trkpt lat="47.739704009145498" lon="16.422756006941199">
        <ele>239.02000000000001</ele>
        <time>2015-04-07T14:26:20Z</time>
      </trkpt>
      <trkpt lat="47.739711971953511" lon="16.422677971422672">
        <ele>238.539999999999992</ele>
        <time>2015-04-07T14:26:21Z</time>
      </trkpt>
      <trkpt lat="47.739723036065698" lon="16.422591973096132">
        <ele>238.060000000000002</ele>
        <time>2015-04-07T14:26:22Z</time>
      </trkpt>
      <trkpt lat="47.739757988601923" lon="16.422253008931875">
        <ele>234.699999999999989</ele>
        <time>2015-04-07T14:26:26Z</time>
      </trkpt>
      <trkpt lat="47.739761006087065" lon="16.422002976760268">
        <ele>232.780000000000001</ele>
        <time>2015-04-07T14:26:29Z</time>
      </trkpt>
      <trkpt lat="47.739757988601923" lon="16.42194002866745">
        <ele>231.330000000000013</ele>
        <time>2015-04-07T14:26:30Z</time>
      </trkpt>
      <trkpt lat="47.739768968895078" lon="16.421755040064454">
        <ele>229.889999999999986</ele>
        <time>2015-04-07T14:26:33Z</time>
      </trkpt>
      <trkpt lat="47.739864019677043" lon="16.421207031235099">
        <ele>229.889999999999986</ele>
        <time>2015-04-07T14:26:43Z</time>
      </trkpt>
      <trkpt lat="47.740063006058335" lon="16.420697998255491">
        <ele>228.930000000000007</ele>
        <time>2015-04-07T14:26:56Z</time>
      </trkpt>
      <trkpt lat="47.74024598300457" lon="16.420443020761013">
        <ele>225.090000000000003</ele>
        <time>2015-04-07T14:27:04Z</time>
      </trkpt>
      <trkpt lat="47.740272972732782" lon="16.420409996062517">
        <ele>229.889999999999986</ele>
        <time>2015-04-07T14:27:05Z</time>
      </trkpt>
      <trkpt lat="47.740592993795872" lon="16.420033983886242">
        <ele>227.969999999999999</ele>
        <time>2015-04-07T14:27:18Z</time>
      </trkpt>
      <trkpt lat="47.740592993795872" lon="16.420032978057861">
        <ele>224.610000000000014</ele>
        <time>2015-04-07T14:27:33Z</time>
      </trkpt>
      <trkpt lat="47.740592993795872" lon="16.420032978057861">
        <ele>231.330000000000013</ele>
        <time>2015-04-07T14:27:34Z</time>
      </trkpt>
      <trkpt lat="47.740592993795872" lon="16.420032978057861">
        <ele>227.490000000000009</ele>
        <time>2015-04-07T14:27:36Z</time>
      </trkpt>
      <trkpt lat="47.740592993795872" lon="16.420032978057861">
        <ele>227.490000000000009</ele>
        <time>2015-04-07T14:27:37Z</time>
      </trkpt>
      <trkpt lat="47.740592993795872" lon="16.420032978057861">
        <ele>236.620000000000005</ele>
        <time>2015-04-07T14:27:40Z</time>
      </trkpt>
      <trkpt lat="47.740592993795872" lon="16.420032978057861">
        <ele>228.449999999999989</ele>
        <time>2015-04-07T14:27:41Z</time>
      </trkpt>
      <trkpt lat="47.740592993795872" lon="16.420032978057861">
        <ele>227.490000000000009</ele>
        <time>2015-04-07T14:28:01Z</time>
      </trkpt>
      <trkpt lat="47.740592993795872" lon="16.420032978057861">
        <ele>227.490000000000009</ele>
        <time>2015-04-07T14:28:27Z</time>
      </trkpt>
      <trkpt lat="47.740592993795872" lon="16.420038007199764">
        <ele>227.490000000000009</ele>
        <time>2015-04-07T14:28:58Z</time>
      </trkpt>
      <trkpt lat="47.740603974089026" lon="16.420015040785074">
        <ele>228.449999999999989</ele>
        <time>2015-04-07T14:29:21Z</time>
      </trkpt>
      <trkpt lat="47.740612020716071" lon="16.419994002208114">
        <ele>228.449999999999989</ele>
        <time>2015-04-07T14:29:23Z</time>
      </trkpt>
      <trkpt lat="47.740615960210562" lon="16.419972963631153">
        <ele>227.969999999999999</ele>
        <time>2015-04-07T14:29:24Z</time>
      </trkpt>
      <trkpt lat="47.740627024322748" lon="16.419952008873224">
        <ele>227.969999999999999</ele>
        <time>2015-04-07T14:29:25Z</time>
      </trkpt>
      <trkpt lat="47.740643033757806" lon="16.419930970296264">
        <ele>227.969999999999999</ele>
        <time>2015-04-07T14:29:26Z</time>
      </trkpt>
      <trkpt lat="47.740654014050961" lon="16.419909009709954">
        <ele>227.969999999999999</ele>
        <time>2015-04-07T14:29:27Z</time>
      </trkpt>
      <trkpt lat="47.740703970193863" lon="16.419851006940007">
        <ele>228.449999999999989</ele>
        <time>2015-04-07T14:29:31Z</time>
      </trkpt>
      <trkpt lat="47.740715034306049" lon="16.419853018596768">
        <ele>227.969999999999999</ele>
        <time>2015-04-07T14:29:32Z</time>
      </trkpt>
      <trkpt lat="47.740730037912726" lon="16.419848995283246">
        <ele>227.969999999999999</ele>
        <time>2015-04-07T14:29:33Z</time>
      </trkpt>
      <trkpt lat="47.740742024034262" lon="16.419838014990091">
        <ele>228.449999999999989</ele>
        <time>2015-04-07T14:29:34Z</time>
      </trkpt>
      <trkpt lat="47.740753004327416" lon="16.41981496475637">
        <ele>227.969999999999999</ele>
        <time>2015-04-07T14:29:35Z</time>
      </trkpt>
      <trkpt lat="47.740757027640939" lon="16.419779006391764">
        <ele>228.449999999999989</ele>
        <time>2015-04-07T14:29:36Z</time>
      </trkpt>
      <trkpt lat="47.740573966875672" lon="16.419306015595794">
        <ele>228.930000000000007</ele>
        <time>2015-04-07T14:29:47Z</time>
      </trkpt>
      <trkpt lat="47.740344973281026" lon="16.418534964323044">
        <ele>228.930000000000007</ele>
        <time>2015-04-07T14:30:02Z</time>
      </trkpt>
      <trkpt lat="47.740150010213256" lon="16.417521005496383">
        <ele>230.849999999999994</ele>
        <time>2015-04-07T14:30:19Z</time>
      </trkpt>
      <trkpt lat="47.740043979138136" lon="16.416960004717112">
        <ele>230.849999999999994</ele>
        <time>2015-04-07T14:30:31Z</time>
      </trkpt>
      <trkpt lat="47.739910036325455" lon="16.416367990896106">
        <ele>231.330000000000013</ele>
        <time>2015-04-07T14:30:43Z</time>
      </trkpt>
      <trkpt lat="47.739825965836644" lon="16.415699031203985">
        <ele>232.780000000000001</ele>
        <time>2015-04-07T14:30:56Z</time>
      </trkpt>
      <trkpt lat="47.739834012463689" lon="16.415620995685458">
        <ele>231.810000000000002</ele>
        <time>2015-04-07T14:31:06Z</time>
      </trkpt>
      <trkpt lat="47.739844992756844" lon="16.415310027077794">
        <ele>233.259999999999991</ele>
        <time>2015-04-07T14:31:16Z</time>
      </trkpt>
      <trkpt lat="47.739955969154835" lon="16.414719019085169">
        <ele>232.780000000000001</ele>
        <time>2015-04-07T14:31:29Z</time>
      </trkpt>
      <trkpt lat="47.739964015781879" lon="16.414685994386673">
        <ele>232.780000000000001</ele>
        <time>2015-04-07T14:31:30Z</time>
      </trkpt>
      <trkpt lat="47.739970972761512" lon="16.41465799883008">
        <ele>234.219999999999999</ele>
        <time>2015-04-07T14:31:31Z</time>
      </trkpt>
      <trkpt lat="47.739979019388556" lon="16.414621034637094">
        <ele>233.259999999999991</ele>
        <time>2015-04-07T14:31:32Z</time>
      </trkpt>
      <trkpt lat="47.740112040191889" lon="16.413964983075857">
        <ele>235.180000000000007</ele>
        <time>2015-04-07T14:31:46Z</time>
      </trkpt>
      <trkpt lat="47.740150010213256" lon="16.413742024451494">
        <ele>236.139999999999986</ele>
        <time>2015-04-07T14:31:51Z</time>
      </trkpt>
      <trkpt lat="47.740256963297725" lon="16.413159985095263">
        <ele>237.099999999999994</ele>
        <time>2015-04-07T14:32:05Z</time>
      </trkpt>
      <trkpt lat="47.740272972732782" lon="16.412597978487611">
        <ele>237.099999999999994</ele>
        <time>2015-04-07T14:32:17Z</time>
      </trkpt>
      <trkpt lat="47.740299040451646" lon="16.411763979122043">
        <ele>239.02000000000001</ele>
        <time>2015-04-07T14:32:34Z</time>
      </trkpt>
      <trkpt lat="47.740311026573181" lon="16.41126299276948">
        <ele>238.539999999999992</ele>
        <time>2015-04-07T14:32:45Z</time>
      </trkpt>
      <trkpt lat="47.740368023514748" lon="16.410771980881691">
        <ele>239.990000000000009</ele>
        <time>2015-04-07T14:32:57Z</time>
      </trkpt>
      <trkpt lat="47.740482017397881" lon="16.410409966483712">
        <ele>241.909999999999997</ele>
        <time>2015-04-07T14:33:07Z</time>
      </trkpt>
      <trkpt lat="47.740630963817239" lon="16.410105032846332">
        <ele>242.870000000000005</ele>
        <time>2015-04-07T14:33:19Z</time>
      </trkpt>
      <trkpt lat="47.74069600738585" lon="16.409971006214619">
        <ele>244.789999999999992</ele>
        <time>2015-04-07T14:33:30Z</time>
      </trkpt>
      <trkpt lat="47.74069600738585" lon="16.409971006214619">
        <ele>243.830000000000013</ele>
        <time>2015-04-07T14:34:01Z</time>
      </trkpt>
      <trkpt lat="47.740726014599204" lon="16.409962037578225">
        <ele>243.830000000000013</ele>
        <time>2015-04-07T14:34:13Z</time>
      </trkpt>
      <trkpt lat="47.740753004327416" lon="16.409936975687742">
        <ele>244.310000000000002</ele>
        <time>2015-04-07T14:34:18Z</time>
      </trkpt>
      <trkpt lat="47.740764990448952" lon="16.409905962646008">
        <ele>242.870000000000005</ele>
        <time>2015-04-07T14:34:19Z</time>
      </trkpt>
      <trkpt lat="47.740768007934093" lon="16.409863969311118">
        <ele>243.830000000000013</ele>
        <time>2015-04-07T14:34:20Z</time>
      </trkpt>
      <trkpt lat="47.740764990448952" lon="16.409825999289751">
        <ele>243.349999999999994</ele>
        <time>2015-04-07T14:34:21Z</time>
      </trkpt>
      <trkpt lat="47.740760967135429" lon="16.409778976812959">
        <ele>244.310000000000002</ele>
        <time>2015-04-07T14:34:22Z</time>
      </trkpt>
      <trkpt lat="47.740757027640939" lon="16.409742012619972">
        <ele>243.830000000000013</ele>
        <time>2015-04-07T14:34:23Z</time>
      </trkpt>
      <trkpt lat="47.740745963528752" lon="16.409697001799941">
        <ele>243.349999999999994</ele>
        <time>2015-04-07T14:34:24Z</time>
      </trkpt>
      <trkpt lat="47.740730037912726" lon="16.409633969888091">
        <ele>242.870000000000005</ele>
        <time>2015-04-07T14:34:25Z</time>
      </trkpt>
      <trkpt lat="47.740601040422916" lon="16.408766023814678">
        <ele>242.870000000000005</ele>
        <time>2015-04-07T14:34:38Z</time>
      </trkpt>
      <trkpt lat="47.740410016849637" lon="16.40756799839437">
        <ele>240.949999999999989</ele>
        <time>2015-04-07T14:34:55Z</time>
      </trkpt>
      <trkpt lat="47.74024598300457" lon="16.406474998220801">
        <ele>240.949999999999989</ele>
        <time>2015-04-07T14:35:10Z</time>
      </trkpt>
      <trkpt lat="47.740199966356158" lon="16.406193030998111">
        <ele>240.949999999999989</ele>
        <time>2015-04-07T14:35:15Z</time>
      </trkpt>
      <trkpt lat="47.740054959431291" lon="16.40522601082921">
        <ele>241.430000000000007</ele>
        <time>2015-04-07T14:35:30Z</time>
      </trkpt>
      <trkpt lat="47.739925039932132" lon="16.404458982869983">
        <ele>241.430000000000007</ele>
        <time>2015-04-07T14:35:43Z</time>
      </trkpt>
      <trkpt lat="47.739792019128799" lon="16.40348601154983">
        <ele>241.909999999999997</ele>
        <time>2015-04-07T14:35:59Z</time>
      </trkpt>
      <trkpt lat="47.7397729922086" lon="16.402934985235333">
        <ele>241.909999999999997</ele>
        <time>2015-04-07T14:36:11Z</time>
      </trkpt>
      <trkpt lat="47.73942899890244" lon="16.402806993573904">
        <ele>239.509999999999991</ele>
        <time>2015-04-07T14:36:21Z</time>
      </trkpt>
      <trkpt lat="47.738906973972917" lon="16.403187029063702">
        <ele>240.469999999999999</ele>
        <time>2015-04-07T14:36:32Z</time>
      </trkpt>
      <trkpt lat="47.738380003720522" lon="16.403295993804932">
        <ele>240.949999999999989</ele>
        <time>2015-04-07T14:36:45Z</time>
      </trkpt>
      <trkpt lat="47.737980019301176" lon="16.403286019340158">
        <ele>244.789999999999992</ele>
        <time>2015-04-07T14:36:57Z</time>
      </trkpt>
      <trkpt lat="47.737670978531241" lon="16.40333597548306">
        <ele>244.789999999999992</ele>
        <time>2015-04-07T14:37:10Z</time>
      </trkpt>
      <trkpt lat="47.737510967999697" lon="16.40335701406002">
        <ele>247.680000000000007</ele>
        <time>2015-04-07T14:37:18Z</time>
      </trkpt>
      <trkpt lat="47.737488001585007" lon="16.403360031545162">
        <ele>247.680000000000007</ele>
        <time>2015-04-07T14:37:19Z</time>
      </trkpt>
      <trkpt lat="47.737468974664807" lon="16.403372017666698">
        <ele>247.680000000000007</ele>
        <time>2015-04-07T14:37:20Z</time>
      </trkpt>
      <trkpt lat="47.737446008250117" lon="16.403380986303091">
        <ele>248.639999999999986</ele>
        <time>2015-04-07T14:37:21Z</time>
      </trkpt>
      <trkpt lat="47.737426981329918" lon="16.403385009616613">
        <ele>249.120000000000005</ele>
        <time>2015-04-07T14:37:22Z</time>
      </trkpt>
      <trkpt lat="47.73740803822875" lon="16.403385009616613">
        <ele>249.120000000000005</ele>
        <time>2015-04-07T14:37:23Z</time>
      </trkpt>
      <trkpt lat="47.737384987995028" lon="16.403380986303091">
        <ele>249.120000000000005</ele>
        <time>2015-04-07T14:37:24Z</time>
      </trkpt>
      <trkpt lat="47.737369984388351" lon="16.403380986303091">
        <ele>249.599999999999994</ele>
        <time>2015-04-07T14:37:25Z</time>
      </trkpt>
      <trkpt lat="47.737353974953294" lon="16.403387021273375">
        <ele>250.080000000000013</ele>
        <time>2015-04-07T14:37:26Z</time>
      </trkpt>
      <trkpt lat="47.737338971346617" lon="16.40339900739491">
        <ele>250.080000000000013</ele>
        <time>2015-04-07T14:37:27Z</time>
      </trkpt>
      <trkpt lat="47.73732396773994" lon="16.403405964374542">
        <ele>250.560000000000002</ele>
        <time>2015-04-07T14:37:28Z</time>
      </trkpt>
      <trkpt lat="47.737305024638772" lon="16.403414011001587">
        <ele>251.039999999999992</ele>
        <time>2015-04-07T14:37:29Z</time>
      </trkpt>
      <trkpt lat="47.73728197440505" lon="16.403418034315109">
        <ele>251.039999999999992</ele>
        <time>2015-04-07T14:37:30Z</time>
      </trkpt>
      <trkpt lat="47.73725900799036" lon="16.403416022658348">
        <ele>251.52000000000001</ele>
        <time>2015-04-07T14:37:31Z</time>
      </trkpt>
      <trkpt lat="47.73723604157567" lon="16.403411999344826">
        <ele>251.52000000000001</ele>
        <time>2015-04-07T14:37:32Z</time>
      </trkpt>
      <trkpt lat="47.737217014655471" lon="16.403409987688065">
        <ele>252</ele>
        <time>2015-04-07T14:37:33Z</time>
      </trkpt>
      <trkpt lat="47.737057004123926" lon="16.403405964374542">
        <ele>254.889999999999986</ele>
        <time>2015-04-07T14:37:44Z</time>
      </trkpt>
      <trkpt lat="47.737061027437449" lon="16.40337604098022">
        <ele>255.849999999999994</ele>
        <time>2015-04-07T14:37:56Z</time>
      </trkpt>
      <trkpt lat="47.737061027437449" lon="16.40337604098022">
        <ele>255.370000000000005</ele>
        <time>2015-04-07T14:38:26Z</time>
      </trkpt>
      <trkpt lat="47.737061027437449" lon="16.403385009616613">
        <ele>254.889999999999986</ele>
        <time>2015-04-07T14:38:47Z</time>
      </trkpt>
      <trkpt lat="47.737049041315913" lon="16.403402024880052">
        <ele>255.370000000000005</ele>
        <time>2015-04-07T14:38:48Z</time>
      </trkpt>
      <trkpt lat="47.737034037709236" lon="16.40342297963798">
        <ele>255.849999999999994</ele>
        <time>2015-04-07T14:38:49Z</time>
      </trkpt>
      <trkpt lat="47.737019034102559" lon="16.403449969366193">
        <ele>255.370000000000005</ele>
        <time>2015-04-07T14:38:50Z</time>
      </trkpt>
      <trkpt lat="47.737003024667501" lon="16.403483999893069">
        <ele>255.370000000000005</ele>
        <time>2015-04-07T14:38:51Z</time>
      </trkpt>
      <trkpt lat="47.736995983868837" lon="16.403519036248326">
        <ele>255.370000000000005</ele>
        <time>2015-04-07T14:38:52Z</time>
      </trkpt>
      <trkpt lat="47.736949967220426" lon="16.40363696962595">
        <ele>256.329999999999984</ele>
        <time>2015-04-07T14:38:58Z</time>
      </trkpt>
      <trkpt lat="47.736774031072855" lon="16.403645016252995">
        <ele>258.25</ele>
        <time>2015-04-07T14:39:08Z</time>
      </trkpt>
      <trkpt lat="47.736690966412425" lon="16.403607968240976">
        <ele>259.20999999999998</ele>
        <time>2015-04-07T14:39:13Z</time>
      </trkpt>
      <trkpt lat="47.736683003604412" lon="16.403585001826286">
        <ele>259.20999999999998</ele>
        <time>2015-04-07T14:39:14Z</time>
      </trkpt>
      <trkpt lat="47.736675040796399" lon="16.403557006269693">
        <ele>259.20999999999998</ele>
        <time>2015-04-07T14:39:15Z</time>
      </trkpt>
      <trkpt lat="47.736671017482877" lon="16.403523981571198">
        <ele>258.730000000000018</ele>
        <time>2015-04-07T14:39:16Z</time>
      </trkpt>
      <trkpt lat="47.736667999997735" lon="16.403491962701082">
        <ele>259.20999999999998</ele>
        <time>2015-04-07T14:39:17Z</time>
      </trkpt>
      <trkpt lat="47.736588036641479" lon="16.403047973290086">
        <ele>261.139999999999986</ele>
        <time>2015-04-07T14:39:31Z</time>
      </trkpt>
      <trkpt lat="47.736530033871531" lon="16.402686964720488">
        <ele>262.100000000000023</ele>
        <time>2015-04-07T14:39:43Z</time>
      </trkpt>
      <trkpt lat="47.736403970047832" lon="16.402314975857735">
        <ele>263.060000000000002</ele>
        <time>2015-04-07T14:39:56Z</time>
      </trkpt>
      <trkpt lat="47.736331969499588" lon="16.402081958949566">
        <ele>264.980000000000018</ele>
        <time>2015-04-07T14:40:07Z</time>
      </trkpt>
      <trkpt lat="47.736324006691575" lon="16.40206896699965">
        <ele>264.5</ele>
        <time>2015-04-07T14:40:08Z</time>
      </trkpt>
      <trkpt lat="47.736319983378053" lon="16.402052035555243">
        <ele>264.980000000000018</ele>
        <time>2015-04-07T14:40:09Z</time>
      </trkpt>
      <trkpt lat="47.736319983378053" lon="16.402030996978283">
        <ele>264.980000000000018</ele>
        <time>2015-04-07T14:40:10Z</time>
      </trkpt>
      <trkpt lat="47.736316965892911" lon="16.402004007250071">
        <ele>264.980000000000018</ele>
        <time>2015-04-07T14:40:11Z</time>
      </trkpt>
      <trkpt lat="47.736319983378053" lon="16.401978023350239">
        <ele>264.5</ele>
        <time>2015-04-07T14:40:12Z</time>
      </trkpt>
      <trkpt lat="47.736324006691575" lon="16.401957990601659">
        <ele>264.980000000000018</ele>
        <time>2015-04-07T14:40:13Z</time>
      </trkpt>
      <trkpt lat="47.736331969499588" lon="16.401940975338221">
        <ele>264.019999999999982</ele>
        <time>2015-04-07T14:40:14Z</time>
      </trkpt>
      <trkpt lat="47.736340016126633" lon="16.401925971731544">
        <ele>264.019999999999982</ele>
        <time>2015-04-07T14:40:15Z</time>
      </trkpt>
      <trkpt lat="47.736350996419787" lon="16.401909040287137">
        <ele>265.939999999999998</ele>
        <time>2015-04-07T14:40:16Z</time>
      </trkpt>
      <trkpt lat="47.7363589592278" lon="16.401888001710176">
        <ele>265.45999999999998</ele>
        <time>2015-04-07T14:40:17Z</time>
      </trkpt>
      <trkpt lat="47.736366000026464" lon="16.401856988668442">
        <ele>264.5</ele>
        <time>2015-04-07T14:40:18Z</time>
      </trkpt>
      <trkpt lat="47.736370023339987" lon="16.401817006990314">
        <ele>264.980000000000018</ele>
        <time>2015-04-07T14:40:19Z</time>
      </trkpt>
      <trkpt lat="47.736377986148" lon="16.401716005057096">
        <ele>264.5</ele>
        <time>2015-04-07T14:40:31Z</time>
      </trkpt>
      <trkpt lat="47.736377986148" lon="16.401716005057096">
        <ele>263.54000000000002</ele>
        <time>2015-04-07T14:41:02Z</time>
      </trkpt>
      <trkpt lat="47.736373962834477" lon="16.401708964258432">
        <ele>261.620000000000005</ele>
        <time>2015-04-07T14:41:25Z</time>
      </trkpt>
      <trkpt lat="47.736370023339987" lon="16.401690021157265">
        <ele>262.100000000000023</ele>
        <time>2015-04-07T14:41:26Z</time>
      </trkpt>
      <trkpt lat="47.736366000026464" lon="16.401672000065446">
        <ele>262.100000000000023</ele>
        <time>2015-04-07T14:41:27Z</time>
      </trkpt>
      <trkpt lat="47.73635501973331" lon="16.401639981195331">
        <ele>262.579999999999984</ele>
        <time>2015-04-07T14:41:29Z</time>
      </trkpt>
      <trkpt lat="47.73635501973331" lon="16.401621038094163">
        <ele>262.100000000000023</ele>
        <time>2015-04-07T14:41:30Z</time>
      </trkpt>
      <trkpt lat="47.736346973106265" lon="16.401575021445751">
        <ele>263.060000000000002</ele>
        <time>2015-04-07T14:41:42Z</time>
      </trkpt>
      <trkpt lat="47.736340016126633" lon="16.401578960940242">
        <ele>263.060000000000002</ele>
        <time>2015-04-07T14:41:59Z</time>
      </trkpt>
      <trkpt lat="47.736366000026464" lon="16.401531016454101">
        <ele>262.100000000000023</ele>
        <time>2015-04-07T14:42:06Z</time>
      </trkpt>
      <trkpt lat="47.736361976712942" lon="16.401505032554269">
        <ele>261.620000000000005</ele>
        <time>2015-04-07T14:42:07Z</time>
      </trkpt>
      <trkpt lat="47.736350996419787" lon="16.401481982320547">
        <ele>261.620000000000005</ele>
        <time>2015-04-07T14:42:08Z</time>
      </trkpt>
      <trkpt lat="47.73631302639842" lon="16.401405036449432">
        <ele>260.170000000000016</ele>
        <time>2015-04-07T14:42:11Z</time>
      </trkpt>
      <trkpt lat="47.736392989754677" lon="16.401422973722219">
        <ele>258.730000000000018</ele>
        <time>2015-04-07T14:42:18Z</time>
      </trkpt>
      <trkpt lat="47.736500026658177" lon="16.40112298540771">
        <ele>256.329999999999984</ele>
        <time>2015-04-07T14:42:29Z</time>
      </trkpt>
      <trkpt lat="47.736599016934633" lon="16.401262041181326">
        <ele>253.439999999999998</ele>
        <time>2015-04-07T14:42:35Z</time>
      </trkpt>
      <trkpt lat="47.736621983349323" lon="16.401292970404029">
        <ele>252.47999999999999</ele>
        <time>2015-04-07T14:42:36Z</time>
      </trkpt>
      <trkpt lat="47.736648973077536" lon="16.401304034516215">
        <ele>252</ele>
        <time>2015-04-07T14:42:37Z</time>
      </trkpt>
      <trkpt lat="47.736683003604412" lon="16.401300011202693">
        <ele>251.52000000000001</ele>
        <time>2015-04-07T14:42:38Z</time>
      </trkpt>
      <trkpt lat="47.736698007211089" lon="16.401285007596016">
        <ele>252</ele>
        <time>2015-04-07T14:42:39Z</time>
      </trkpt>
      <trkpt lat="47.736702030524611" lon="16.401258017867804">
        <ele>251.52000000000001</ele>
        <time>2015-04-07T14:42:40Z</time>
      </trkpt>
      <trkpt lat="47.736693983897567" lon="16.401217030361295">
        <ele>250.080000000000013</ele>
        <time>2015-04-07T14:42:41Z</time>
      </trkpt>
      <trkpt lat="47.736683003604412" lon="16.401171013712883">
        <ele>249.599999999999994</ele>
        <time>2015-04-07T14:42:42Z</time>
      </trkpt>
      <trkpt lat="47.73667898029089" lon="16.401124997064471">
        <ele>250.080000000000013</ele>
        <time>2015-04-07T14:42:43Z</time>
      </trkpt>
      <trkpt lat="47.736675040796399" lon="16.401075040921569">
        <ele>249.599999999999994</ele>
        <time>2015-04-07T14:42:44Z</time>
      </trkpt>
      <trkpt lat="47.736675040796399" lon="16.401028018444777">
        <ele>249.120000000000005</ele>
        <time>2015-04-07T14:42:45Z</time>
      </trkpt>
      <trkpt lat="47.736675040796399" lon="16.400994993746281">
        <ele>249.120000000000005</ele>
        <time>2015-04-07T14:42:46Z</time>
      </trkpt>
      <trkpt lat="47.736687026917934" lon="16.400972027331591">
        <ele>249.120000000000005</ele>
        <time>2015-04-07T14:42:59Z</time>
      </trkpt>
      <trkpt lat="47.736687026917934" lon="16.400982001796365">
        <ele>247.680000000000007</ele>
        <time>2015-04-07T14:43:21Z</time>
      </trkpt>
      <trkpt lat="47.736687026917934" lon="16.400982001796365">
        <ele>247.680000000000007</ele>
        <time>2015-04-07T14:43:22Z</time>
      </trkpt>
      <trkpt lat="47.736713010817766" lon="16.401078980416059">
        <ele>242.389999999999986</ele>
        <time>2015-04-08T06:04:57Z</time>
      </trkpt>
      <trkpt lat="47.736744023859501" lon="16.401132959872484">
        <ele>241.909999999999997</ele>
        <time>2015-04-08T06:04:58Z</time>
      </trkpt>
      <trkpt lat="47.736771013587713" lon="16.401181994006038">
        <ele>241.909999999999997</ele>
        <time>2015-04-08T06:04:59Z</time>
      </trkpt>
      <trkpt lat="47.736804960295558" lon="16.401219964027405">
        <ele>241.909999999999997</ele>
        <time>2015-04-08T06:05:00Z</time>
      </trkpt>
      <trkpt lat="47.736843014135957" lon="16.401248965412378">
        <ele>240.949999999999989</ele>
        <time>2015-04-08T06:05:01Z</time>
      </trkpt>
      <trkpt lat="47.736885007470846" lon="16.401267992332578">
        <ele>239.990000000000009</ele>
        <time>2015-04-08T06:05:02Z</time>
      </trkpt>
      <trkpt lat="47.736922977492213" lon="16.401287019252777">
        <ele>239.509999999999991</ele>
        <time>2015-04-08T06:05:03Z</time>
      </trkpt>
      <trkpt lat="47.736949967220426" lon="16.401314008980989">
        <ele>239.990000000000009</ele>
        <time>2015-04-08T06:05:04Z</time>
      </trkpt>
      <trkpt lat="47.73697704076767" lon="16.401349967345595">
        <ele>239.509999999999991</ele>
        <time>2015-04-08T06:05:05Z</time>
      </trkpt>
      <trkpt lat="47.737103020772338" lon="16.4018539711833">
        <ele>241.430000000000007</ele>
        <time>2015-04-08T06:05:14Z</time>
      </trkpt>
      <trkpt lat="47.737103020772338" lon="16.401925971731544">
        <ele>241.430000000000007</ele>
        <time>2015-04-08T06:05:15Z</time>
      </trkpt>
      <trkpt lat="47.737019034102559" lon="16.402619993314147">
        <ele>244.789999999999992</ele>
        <time>2015-04-08T06:05:27Z</time>
      </trkpt>
      <trkpt lat="47.737015010789037" lon="16.402932973578572">
        <ele>246.719999999999999</ele>
        <time>2015-04-08T06:05:33Z</time>
      </trkpt>
      <trkpt lat="47.736964970827103" lon="16.403675023466349">
        <ele>250.080000000000013</ele>
        <time>2015-04-08T06:05:47Z</time>
      </trkpt>
      <trkpt lat="47.736870003864169" lon="16.404485972598195">
        <ele>251.039999999999992</ele>
        <time>2015-04-08T06:06:01Z</time>
      </trkpt>
      <trkpt lat="47.736865980550647" lon="16.404546992853284">
        <ele>250.560000000000002</ele>
        <time>2015-04-08T06:06:02Z</time>
      </trkpt>
      <trkpt lat="47.736740000545979" lon="16.405475959181786">
        <ele>250.560000000000002</ele>
        <time>2015-04-08T06:06:16Z</time>
      </trkpt>
      <trkpt lat="47.736553000286222" lon="16.406519003212452">
        <ele>250.080000000000013</ele>
        <time>2015-04-08T06:06:31Z</time>
      </trkpt>
      <trkpt lat="47.736095013096929" lon="16.407583002001047">
        <ele>249.120000000000005</ele>
        <time>2015-04-08T06:06:47Z</time>
      </trkpt>
      <trkpt lat="47.73605695925653" lon="16.407644022256136">
        <ele>249.120000000000005</ele>
        <time>2015-04-08T06:06:48Z</time>
      </trkpt>
      <trkpt lat="47.735228994861245" lon="16.408500988036394">
        <ele>247.680000000000007</ele>
        <time>2015-04-08T06:07:05Z</time>
      </trkpt>
      <trkpt lat="47.734341016039252" lon="16.409318977966905">
        <ele>244.789999999999992</ele>
        <time>2015-04-08T06:07:23Z</time>
      </trkpt>
      <trkpt lat="47.733428981155157" lon="16.410155994817615">
        <ele>241.909999999999997</ele>
        <time>2015-04-08T06:07:40Z</time>
      </trkpt>
      <trkpt lat="47.733310963958502" lon="16.410268982872367">
        <ele>240.949999999999989</ele>
        <time>2015-04-08T06:07:42Z</time>
      </trkpt>
      <trkpt lat="47.732390966266394" lon="16.411159979179502">
        <ele>238.539999999999992</ele>
        <time>2015-04-08T06:07:56Z</time>
      </trkpt>
      <trkpt lat="47.732192985713482" lon="16.411330970004201">
        <ele>238.539999999999992</ele>
        <time>2015-04-08T06:07:59Z</time>
      </trkpt>
      <trkpt lat="47.732128025963902" lon="16.411371035501361">
        <ele>238.060000000000002</ele>
        <time>2015-04-08T06:08:00Z</time>
      </trkpt>
      <trkpt lat="47.731770034879446" lon="16.411622995510697">
        <ele>238.060000000000002</ele>
        <time>2015-04-08T06:08:06Z</time>
      </trkpt>
      <trkpt lat="47.73171597160399" lon="16.411654008552432">
        <ele>238.060000000000002</ele>
        <time>2015-04-08T06:08:07Z</time>
      </trkpt>
      <trkpt lat="47.731655035167933" lon="16.411667000502348">
        <ele>238.539999999999992</ele>
        <time>2015-04-08T06:08:08Z</time>
      </trkpt>
      <trkpt lat="47.731598038226366" lon="16.411667000502348">
        <ele>238.060000000000002</ele>
        <time>2015-04-08T06:08:09Z</time>
      </trkpt>
      <trkpt lat="47.7315410412848" lon="16.411654008552432">
        <ele>238.060000000000002</ele>
        <time>2015-04-08T06:08:10Z</time>
      </trkpt>
      <trkpt lat="47.731483038514853" lon="16.411632969975471">
        <ele>239.02000000000001</ele>
        <time>2015-04-08T06:08:11Z</time>
      </trkpt>
      <trkpt lat="47.730743000283837" lon="16.41145502217114">
        <ele>242.389999999999986</ele>
        <time>2015-04-08T06:08:26Z</time>
      </trkpt>
      <trkpt lat="47.730121985077858" lon="16.411429960280657">
        <ele>244.310000000000002</ele>
        <time>2015-04-08T06:08:40Z</time>
      </trkpt>
      <trkpt lat="47.729580011218786" lon="16.411504978314042">
        <ele>247.199999999999989</ele>
        <time>2015-04-08T06:08:53Z</time>
      </trkpt>
      <trkpt lat="47.728889007121325" lon="16.411642022430897">
        <ele>248.639999999999986</ele>
        <time>2015-04-08T06:09:10Z</time>
      </trkpt>
      <trkpt lat="47.728003961965442" lon="16.411820976063609">
        <ele>251.039999999999992</ele>
        <time>2015-04-08T06:09:30Z</time>
      </trkpt>
      <trkpt lat="47.727222014218569" lon="16.411970006301999">
        <ele>252.47999999999999</ele>
        <time>2015-04-08T06:09:48Z</time>
      </trkpt>
      <trkpt lat="47.726315008476377" lon="16.412115013226867">
        <ele>254.409999999999997</ele>
        <time>2015-04-08T06:10:09Z</time>
      </trkpt>
      <trkpt lat="47.725555021315813" lon="16.412260020151734">
        <ele>255.849999999999994</ele>
        <time>2015-04-08T06:10:27Z</time>
      </trkpt>
      <trkpt lat="47.724853958934546" lon="16.412410978227854">
        <ele>257.769999999999982</ele>
        <time>2015-04-08T06:10:44Z</time>
      </trkpt>
      <trkpt lat="47.724112998694181" lon="16.412588004022837">
        <ele>259.20999999999998</ele>
        <time>2015-04-08T06:11:02Z</time>
      </trkpt>
      <trkpt lat="47.723366003483534" lon="16.41272496432066">
        <ele>262.579999999999984</ele>
        <time>2015-04-08T06:11:21Z</time>
      </trkpt>
      <trkpt lat="47.722466038540006" lon="16.412909030914307">
        <ele>264.5</ele>
        <time>2015-04-08T06:11:44Z</time>
      </trkpt>
      <trkpt lat="47.721782997250557" lon="16.413036016747355">
        <ele>265.939999999999998</ele>
        <time>2015-04-08T06:12:01Z</time>
      </trkpt>
      <trkpt lat="47.720924019813538" lon="16.413058983162045">
        <ele>265.939999999999998</ele>
        <time>2015-04-08T06:12:20Z</time>
      </trkpt>
      <trkpt lat="47.720089014619589" lon="16.412900984287262">
        <ele>267.860000000000014</ele>
        <time>2015-04-08T06:12:39Z</time>
      </trkpt>
      <trkpt lat="47.719326009973884" lon="16.412561014294624">
        <ele>269.79000000000002</ele>
        <time>2015-04-08T06:13:00Z</time>
      </trkpt>
      <trkpt lat="47.718693008646369" lon="16.412124987691641">
        <ele>271.230000000000018</ele>
        <time>2015-04-08T06:13:19Z</time>
      </trkpt>
      <trkpt lat="47.718262011185288" lon="16.411750987172127">
        <ele>272.189999999999998</ele>
        <time>2015-04-08T06:13:34Z</time>
      </trkpt>
      <trkpt lat="47.717723976820707" lon="16.411147993057966">
        <ele>274.589999999999975</ele>
        <time>2015-04-08T06:13:53Z</time>
      </trkpt>
      <trkpt lat="47.717258026823401" lon="16.410460006445646">
        <ele>275.069999999999993</ele>
        <time>2015-04-08T06:14:10Z</time>
      </trkpt>
      <trkpt lat="47.716731978580356" lon="16.409529028460383">
        <ele>276.04000000000002</ele>
        <time>2015-04-08T06:14:29Z</time>
      </trkpt>
      <trkpt lat="47.716239960864186" lon="16.408535018563271">
        <ele>277</ele>
        <time>2015-04-08T06:14:48Z</time>
      </trkpt>
      <trkpt lat="47.715781973674893" lon="16.407583002001047">
        <ele>275.560000000000002</ele>
        <time>2015-04-08T06:15:05Z</time>
      </trkpt>
      <trkpt lat="47.715224996209145" lon="16.406444991007447">
        <ele>273.149999999999977</ele>
        <time>2015-04-08T06:15:25Z</time>
      </trkpt>
      <trkpt lat="47.714714035391808" lon="16.40544100664556">
        <ele>272.670000000000016</ele>
        <time>2015-04-08T06:15:42Z</time>
      </trkpt>
      <trkpt lat="47.71426803432405" lon="16.40453701838851">
        <ele>270.269999999999982</ele>
        <time>2015-04-08T06:15:56Z</time>
      </trkpt>
      <trkpt lat="47.713593039661646" lon="16.403161967173219">
        <ele>267.860000000000014</ele>
        <time>2015-04-08T06:16:17Z</time>
      </trkpt>
      <trkpt lat="47.71302399225533" lon="16.402006018906832">
        <ele>267.379999999999995</ele>
        <time>2015-04-08T06:16:37Z</time>
      </trkpt>
      <trkpt lat="47.712474977597594" lon="16.400893991813064">
        <ele>267.379999999999995</ele>
        <time>2015-04-08T06:16:59Z</time>
      </trkpt>
      <trkpt lat="47.711898973211646" lon="16.399733014404774">
        <ele>267.860000000000014</ele>
        <time>2015-04-08T06:17:22Z</time>
      </trkpt>
      <trkpt lat="47.711517009884119" lon="16.398960035294294">
        <ele>268.829999999999984</ele>
        <time>2015-04-08T06:17:39Z</time>
      </trkpt>
      <trkpt lat="47.711205035448074" lon="16.398320998996496">
        <ele>269.310000000000002</ele>
        <time>2015-04-08T06:17:54Z</time>
      </trkpt>
      <trkpt lat="47.710731960833073" lon="16.397408964112401">
        <ele>270.75</ele>
        <time>2015-04-08T06:18:16Z</time>
      </trkpt>
      <trkpt lat="47.710213037207723" lon="16.396626010537148">
        <ele>271.70999999999998</ele>
        <time>2015-04-08T06:18:37Z</time>
      </trkpt>
      <trkpt lat="47.709595039486885" lon="16.395966019481421">
        <ele>272.670000000000016</ele>
        <time>2015-04-08T06:18:57Z</time>
      </trkpt>
      <trkpt lat="47.708889031782746" lon="16.395452041178942">
        <ele>273.629999999999995</ele>
        <time>2015-04-08T06:19:15Z</time>
      </trkpt>
      <trkpt lat="47.707957969978452" lon="16.395073011517525">
        <ele>273.629999999999995</ele>
        <time>2015-04-08T06:19:35Z</time>
      </trkpt>
      <trkpt lat="47.707062028348446" lon="16.39484996907413">
        <ele>273.629999999999995</ele>
        <time>2015-04-08T06:19:54Z</time>
      </trkpt>
      <trkpt lat="47.70601999014616" lon="16.394593985751271">
        <ele>275.560000000000002</ele>
        <time>2015-04-08T06:20:16Z</time>
      </trkpt>
      <trkpt lat="47.704940987750888" lon="16.39433297328651">
        <ele>277</ele>
        <time>2015-04-08T06:20:40Z</time>
      </trkpt>
      <trkpt lat="47.70382703281939" lon="16.394158964976668">
        <ele>279.399999999999977</ele>
        <time>2015-04-08T06:21:04Z</time>
      </trkpt>
      <trkpt lat="47.702991021797061" lon="16.394156031310558">
        <ele>280.839999999999975</ele>
        <time>2015-04-08T06:21:23Z</time>
      </trkpt>
      <trkpt lat="47.702030036598444" lon="16.394292991608381">
        <ele>283.25</ele>
        <time>2015-04-08T06:21:45Z</time>
      </trkpt>
      <trkpt lat="47.701110960915685" lon="16.394561966881156">
        <ele>284.20999999999998</ele>
        <time>2015-04-08T06:22:06Z</time>
      </trkpt>
      <trkpt lat="47.700366983190179" lon="16.394829014316201">
        <ele>285.649999999999977</ele>
        <time>2015-04-08T06:22:24Z</time>
      </trkpt>
      <trkpt lat="47.699687965214252" lon="16.395075023174286">
        <ele>288.050000000000011</ele>
        <time>2015-04-08T06:22:42Z</time>
      </trkpt>
      <trkpt lat="47.698970977216959" lon="16.395295970141888">
        <ele>289.009999999999991</ele>
        <time>2015-04-08T06:23:02Z</time>
      </trkpt>
      <trkpt lat="47.69813203252852" lon="16.395523035898805">
        <ele>291.899999999999977</ele>
        <time>2015-04-08T06:23:25Z</time>
      </trkpt>
      <trkpt lat="47.697673961520195" lon="16.395592018961906">
        <ele>293.819999999999993</ele>
        <time>2015-04-08T06:23:39Z</time>
      </trkpt>
      <trkpt lat="47.69712402485311" lon="16.395667959004641">
        <ele>296.220000000000027</ele>
        <time>2015-04-08T06:23:57Z</time>
      </trkpt>
      <trkpt lat="47.696747006848454" lon="16.395704001188278">
        <ele>299.589999999999975</ele>
        <time>2015-04-08T06:24:12Z</time>
      </trkpt>
      <trkpt lat="47.696331012994051" lon="16.395717998966575">
        <ele>301.990000000000009</ele>
        <time>2015-04-08T06:24:29Z</time>
      </trkpt>
      <trkpt lat="47.695976039394736" lon="16.395717998966575">
        <ele>305.360000000000014</ele>
        <time>2015-04-08T06:24:43Z</time>
      </trkpt>
      <trkpt lat="47.695473041385412" lon="16.395730990916491">
        <ele>307.279999999999973</ele>
        <time>2015-04-08T06:25:04Z</time>
      </trkpt>
      <trkpt lat="47.695168023929" lon="16.395740965381265">
        <ele>309.680000000000007</ele>
        <time>2015-04-08T06:25:17Z</time>
      </trkpt>
      <trkpt lat="47.694831993430853" lon="16.39575001783669">
        <ele>312.569999999999993</ele>
        <time>2015-04-08T06:25:30Z</time>
      </trkpt>
      <trkpt lat="47.694556983187795" lon="16.395748006179929">
        <ele>313.529999999999973</ele>
        <time>2015-04-08T06:25:44Z</time>
      </trkpt>
      <trkpt lat="47.694270992651582" lon="16.395755968987942">
        <ele>315.449999999999989</ele>
        <time>2015-04-08T06:25:57Z</time>
      </trkpt>
      <trkpt lat="47.693950971588492" lon="16.395767033100128">
        <ele>317.370000000000005</ele>
        <time>2015-04-08T06:26:09Z</time>
      </trkpt>
      <trkpt lat="47.693652994930744" lon="16.395777007564902">
        <ele>318.810000000000002</ele>
        <time>2015-04-08T06:26:21Z</time>
      </trkpt>
      <trkpt lat="47.69327899441123" lon="16.395794022828341">
        <ele>321.220000000000027</ele>
        <time>2015-04-08T06:26:36Z</time>
      </trkpt>
      <trkpt lat="47.69282897002995" lon="16.395797962322831">
        <ele>323.620000000000005</ele>
        <time>2015-04-08T06:26:54Z</time>
      </trkpt>
      <trkpt lat="47.692283978685737" lon="16.395765021443367">
        <ele>325.060000000000002</ele>
        <time>2015-04-08T06:27:14Z</time>
      </trkpt>
      <trkpt lat="47.6919249817729" lon="16.395723028108478">
        <ele>325.54000000000002</ele>
        <time>2015-04-08T06:27:30Z</time>
      </trkpt>
      <trkpt lat="47.691920958459377" lon="16.395721016451716">
        <ele>326.5</ele>
        <time>2015-04-08T06:27:50Z</time>
      </trkpt>
      <trkpt lat="47.691920958459377" lon="16.395721016451716">
        <ele>326.5</ele>
        <time>2015-04-08T06:28:13Z</time>
      </trkpt>
      <trkpt lat="47.691920958459377" lon="16.395721016451716">
        <ele>327.470000000000027</ele>
        <time>2015-04-08T06:28:26Z</time>
      </trkpt>
      <trkpt lat="47.691906038671732" lon="16.395721016451716">
        <ele>327.470000000000027</ele>
        <time>2015-04-08T06:28:27Z</time>
      </trkpt>
      <trkpt lat="47.691887011751533" lon="16.395717998966575">
        <ele>326.990000000000009</ele>
        <time>2015-04-08T06:28:28Z</time>
      </trkpt>
      <trkpt lat="47.691867984831333" lon="16.395713975653052">
        <ele>327.470000000000027</ele>
        <time>2015-04-08T06:28:29Z</time>
      </trkpt>
      <trkpt lat="47.691845018416643" lon="16.395711963996291">
        <ele>327.949999999999989</ele>
        <time>2015-04-08T06:28:30Z</time>
      </trkpt>
      <trkpt lat="47.691276976838708" lon="16.395581960678101">
        <ele>327.949999999999989</ele>
        <time>2015-04-08T06:28:47Z</time>
      </trkpt>
      <trkpt lat="47.690525036305189" lon="16.395330000668764">
        <ele>327.949999999999989</ele>
        <time>2015-04-08T06:29:04Z</time>
      </trkpt>
      <trkpt lat="47.689681984484196" lon="16.394963962957263">
        <ele>328.910000000000025</ele>
        <time>2015-04-08T06:29:23Z</time>
      </trkpt>
      <trkpt lat="47.68859501928091" lon="16.394460964947939">
        <ele>329.870000000000005</ele>
        <time>2015-04-08T06:29:47Z</time>
      </trkpt>
      <trkpt lat="47.687812987715006" lon="16.394105991348624">
        <ele>331.310000000000002</ele>
        <time>2015-04-08T06:30:05Z</time>
      </trkpt>
      <trkpt lat="47.686908999457955" lon="16.393694020807743">
        <ele>331.79000000000002</ele>
        <time>2015-04-08T06:30:26Z</time>
      </trkpt>
      <trkpt lat="47.686119005084038" lon="16.393329994753003">
        <ele>332.269999999999982</ele>
        <time>2015-04-08T06:30:45Z</time>
      </trkpt>
      <trkpt lat="47.685375027358532" lon="16.392983989790082">
        <ele>332.75</ele>
        <time>2015-04-08T06:31:03Z</time>
      </trkpt>
      <trkpt lat="47.684528036043048" lon="16.392590962350368">
        <ele>332.75</ele>
        <time>2015-04-08T06:31:23Z</time>
      </trkpt>
      <trkpt lat="47.683430006727576" lon="16.392109002918005">
        <ele>336.120000000000005</ele>
        <time>2015-04-08T06:31:48Z</time>
      </trkpt>
      <trkpt lat="47.682667002081871" lon="16.391750006005168">
        <ele>335.160000000000025</ele>
        <time>2015-04-08T06:32:06Z</time>
      </trkpt>
      <trkpt lat="47.681758990511298" lon="16.391336023807526">
        <ele>335.639999999999986</ele>
        <time>2015-04-08T06:32:27Z</time>
      </trkpt>
      <trkpt lat="47.680892972275615" lon="16.390952970832586">
        <ele>338.04000000000002</ele>
        <time>2015-04-08T06:32:47Z</time>
      </trkpt>
      <trkpt lat="47.680153017863631" lon="16.390617024153471">
        <ele>340.920000000000016</ele>
        <time>2015-04-08T06:33:08Z</time>
      </trkpt>
      <trkpt lat="47.679661000147462" lon="16.390387024730444">
        <ele>343.329999999999984</ele>
        <time>2015-04-08T06:33:23Z</time>
      </trkpt>
      <trkpt lat="47.679343996569514" lon="16.390245035290718">
        <ele>346.20999999999998</ele>
        <time>2015-04-08T06:33:35Z</time>
      </trkpt>
      <trkpt lat="47.678954992443323" lon="16.390072032809258">
        <ele>348.129999999999995</ele>
        <time>2015-04-08T06:33:48Z</time>
      </trkpt>
      <trkpt lat="47.67856196500361" lon="16.389900036156178">
        <ele>349.579999999999984</ele>
        <time>2015-04-08T06:34:04Z</time>
      </trkpt>
      <trkpt lat="47.678302964195609" lon="16.389767015352845">
        <ele>350.54000000000002</ele>
        <time>2015-04-08T06:34:15Z</time>
      </trkpt>
      <trkpt lat="47.678004987537861" lon="16.389637012034655">
        <ele>352.45999999999998</ele>
        <time>2015-04-08T06:34:27Z</time>
      </trkpt>
      <trkpt lat="47.677505007013679" lon="16.389395026490092">
        <ele>354.379999999999995</ele>
        <time>2015-04-08T06:34:45Z</time>
      </trkpt>
      <trkpt lat="47.677048025652766" lon="16.389186987653375">
        <ele>355.829999999999984</ele>
        <time>2015-04-08T06:35:01Z</time>
      </trkpt>
      <trkpt lat="47.676617028191686" lon="16.388970986008644">
        <ele>357.269999999999982</ele>
        <time>2015-04-08T06:35:18Z</time>
      </trkpt>
      <trkpt lat="47.676604958251119" lon="16.388962017372251">
        <ele>357.269999999999982</ele>
        <time>2015-04-08T06:35:33Z</time>
      </trkpt>
      <trkpt lat="47.676604958251119" lon="16.388962017372251">
        <ele>356.79000000000002</ele>
        <time>2015-04-08T06:36:01Z</time>
      </trkpt>
      <trkpt lat="47.676581991836429" lon="16.388962017372251">
        <ele>356.79000000000002</ele>
        <time>2015-04-08T06:36:09Z</time>
      </trkpt>
      <trkpt lat="47.676559025421739" lon="16.388960005715489">
        <ele>357.269999999999982</ele>
        <time>2015-04-08T06:36:10Z</time>
      </trkpt>
      <trkpt lat="47.676539998501539" lon="16.388951959088445">
        <ele>357.269999999999982</ele>
        <time>2015-04-08T06:36:11Z</time>
      </trkpt>
      <trkpt lat="47.676517032086849" lon="16.388942990452051">
        <ele>357.269999999999982</ele>
        <time>2015-04-08T06:36:12Z</time>
      </trkpt>
      <trkpt lat="47.676494987681508" lon="16.388926981016994">
        <ele>357.269999999999982</ele>
        <time>2015-04-08T06:36:13Z</time>
      </trkpt>
      <trkpt lat="47.676472021266818" lon="16.388909965753555">
        <ele>357.75</ele>
        <time>2015-04-08T06:36:14Z</time>
      </trkpt>
      <trkpt lat="47.675948990508914" lon="16.388627998530865">
        <ele>358.70999999999998</ele>
        <time>2015-04-08T06:36:29Z</time>
      </trkpt>
      <trkpt lat="47.675143992528319" lon="16.388216027989984">
        <ele>359.189999999999998</ele>
        <time>2015-04-08T06:36:50Z</time>
      </trkpt>
      <trkpt lat="47.674274034798145" lon="16.387763991951942">
        <ele>359.670000000000016</ele>
        <time>2015-04-08T06:37:11Z</time>
      </trkpt>
      <trkpt lat="47.67355696298182" lon="16.387389991432428">
        <ele>360.629999999999995</ele>
        <time>2015-04-08T06:37:30Z</time>
      </trkpt>
      <trkpt lat="47.672957992181182" lon="16.387082962319255">
        <ele>362.069999999999993</ele>
        <time>2015-04-08T06:37:48Z</time>
      </trkpt>
      <trkpt lat="47.672447031363845" lon="16.386822033673525">
        <ele>364</ele>
        <time>2015-04-08T06:38:06Z</time>
      </trkpt>
      <trkpt lat="47.671898016706109" lon="16.386538976803422">
        <ele>365.920000000000016</ele>
        <time>2015-04-08T06:38:26Z</time>
      </trkpt>
      <trkpt lat="47.671413039788604" lon="16.386286010965705">
        <ele>367.839999999999975</ele>
        <time>2015-04-08T06:38:44Z</time>
      </trkpt>
      <trkpt lat="47.670882968232036" lon="16.386011000722647">
        <ele>370.240000000000009</ele>
        <time>2015-04-08T06:39:04Z</time>
      </trkpt>
      <trkpt lat="47.670512991026044" lon="16.385815031826496">
        <ele>372.649999999999977</ele>
        <time>2015-04-08T06:39:19Z</time>
      </trkpt>
      <trkpt lat="47.670185007154942" lon="16.385624008253217">
        <ele>374.089999999999975</ele>
        <time>2015-04-08T06:39:32Z</time>
      </trkpt>
      <trkpt lat="47.669833973050117" lon="16.385304993018508">
        <ele>376.490000000000009</ele>
        <time>2015-04-08T06:39:47Z</time>
      </trkpt>
      <trkpt lat="47.669501965865493" lon="16.384929986670613">
        <ele>378.420000000000016</ele>
        <time>2015-04-08T06:40:02Z</time>
      </trkpt>
      <trkpt lat="47.669197032228112" lon="16.384524973109365">
        <ele>381.300000000000011</ele>
        <time>2015-04-08T06:40:18Z</time>
      </trkpt>
      <trkpt lat="47.668902995064855" lon="16.384038990363479">
        <ele>384.660000000000025</ele>
        <time>2015-04-08T06:40:35Z</time>
      </trkpt>
      <trkpt lat="47.668777015060186" lon="16.383581003174186">
        <ele>386.589999999999975</ele>
        <time>2015-04-08T06:40:49Z</time>
      </trkpt>
      <trkpt lat="47.668715994805098" lon="16.38320499099791">
        <ele>389.470000000000027</ele>
        <time>2015-04-08T06:41:00Z</time>
      </trkpt>
      <trkpt lat="47.668674001470208" lon="16.382930986583233">
        <ele>390.910000000000025</ele>
        <time>2015-04-08T06:41:09Z</time>
      </trkpt>
      <trkpt lat="47.668674001470208" lon="16.382901985198259">
        <ele>390.910000000000025</ele>
        <time>2015-04-08T06:41:10Z</time>
      </trkpt>
      <trkpt lat="47.668674001470208" lon="16.382871977984905">
        <ele>391.389999999999986</ele>
        <time>2015-04-08T06:41:11Z</time>
      </trkpt>
      <trkpt lat="47.668670983985066" lon="16.382840964943171">
        <ele>391.389999999999986</ele>
        <time>2015-04-08T06:41:12Z</time>
      </trkpt>
      <trkpt lat="47.668666960671544" lon="16.382811041548848">
        <ele>391.870000000000005</ele>
        <time>2015-04-08T06:41:13Z</time>
      </trkpt>
      <trkpt lat="47.668666960671544" lon="16.382783968001604">
        <ele>391.870000000000005</ele>
        <time>2015-04-08T06:41:14Z</time>
      </trkpt>
      <trkpt lat="47.668663021177053" lon="16.382754966616631">
        <ele>391.870000000000005</ele>
        <time>2015-04-08T06:41:15Z</time>
      </trkpt>
      <trkpt lat="47.668663021177053" lon="16.382729988545179">
        <ele>392.360000000000014</ele>
        <time>2015-04-08T06:41:16Z</time>
      </trkpt>
      <trkpt lat="47.668678024783731" lon="16.382574001327157">
        <ele>393.319999999999993</ele>
        <time>2015-04-08T06:41:23Z</time>
      </trkpt>
      <trkpt lat="47.668674001470208" lon="16.382549023255706">
        <ele>393.319999999999993</ele>
        <time>2015-04-08T06:41:24Z</time>
      </trkpt>
      <trkpt lat="47.668674001470208" lon="16.382523961365223">
        <ele>393.319999999999993</ele>
        <time>2015-04-08T06:41:25Z</time>
      </trkpt>
      <trkpt lat="47.668674001470208" lon="16.382499989122152">
        <ele>393.800000000000011</ele>
        <time>2015-04-08T06:41:26Z</time>
      </trkpt>
      <trkpt lat="47.668678024783731" lon="16.382479034364223">
        <ele>393.800000000000011</ele>
        <time>2015-04-08T06:41:27Z</time>
      </trkpt>
      <trkpt lat="47.668678024783731" lon="16.382460007444024">
        <ele>393.800000000000011</ele>
        <time>2015-04-08T06:41:28Z</time>
      </trkpt>
      <trkpt lat="47.668685987591743" lon="16.382441986352205">
        <ele>393.800000000000011</ele>
        <time>2015-04-08T06:41:29Z</time>
      </trkpt>
      <trkpt lat="47.668690010905266" lon="16.382420025765896">
        <ele>394.279999999999973</ele>
        <time>2015-04-08T06:41:30Z</time>
      </trkpt>
      <trkpt lat="47.668696967884898" lon="16.382365962490439">
        <ele>394.279999999999973</ele>
        <time>2015-04-08T06:41:32Z</time>
      </trkpt>
      <trkpt lat="47.668705014511943" lon="16.382340984418988">
        <ele>394.759999999999991</ele>
        <time>2015-04-08T06:41:33Z</time>
      </trkpt>
      <trkpt lat="47.668738961219788" lon="16.381962038576603">
        <ele>396.680000000000007</ele>
        <time>2015-04-08T06:41:46Z</time>
      </trkpt>
      <trkpt lat="47.668781038373709" lon="16.381633970886469">
        <ele>399.079999999999984</ele>
        <time>2015-04-08T06:41:58Z</time>
      </trkpt>
      <trkpt lat="47.668784977868199" lon="16.38146398589015">
        <ele>400.529999999999973</ele>
        <time>2015-04-08T06:42:05Z</time>
      </trkpt>
      <trkpt lat="47.668789001181722" lon="16.38144101947546">
        <ele>400.529999999999973</ele>
        <time>2015-04-08T06:42:06Z</time>
      </trkpt>
      <trkpt lat="47.668793024495244" lon="16.381421992555261">
        <ele>401.009999999999991</ele>
        <time>2015-04-08T06:42:07Z</time>
      </trkpt>
      <trkpt lat="47.668796963989735" lon="16.381402965635061">
        <ele>401.490000000000009</ele>
        <time>2015-04-08T06:42:08Z</time>
      </trkpt>
      <trkpt lat="47.668799981474876" lon="16.381384022533894">
        <ele>401.490000000000009</ele>
        <time>2015-04-08T06:42:09Z</time>
      </trkpt>
      <trkpt lat="47.668811967596412" lon="16.381120998412371">
        <ele>402.930000000000007</ele>
        <time>2015-04-08T06:42:18Z</time>
      </trkpt>
      <trkpt lat="47.668815990909934" lon="16.381096020340919">
        <ele>403.410000000000025</ele>
        <time>2015-04-08T06:42:19Z</time>
      </trkpt>
      <trkpt lat="47.668819008395076" lon="16.381074981763959">
        <ele>403.410000000000025</ele>
        <time>2015-04-08T06:42:20Z</time>
      </trkpt>
      <trkpt lat="47.668819008395076" lon="16.381047992035747">
        <ele>403.889999999999986</ele>
        <time>2015-04-08T06:42:21Z</time>
      </trkpt>
      <trkpt lat="47.668815990909934" lon="16.381019996479154">
        <ele>403.889999999999986</ele>
        <time>2015-04-08T06:42:22Z</time>
      </trkpt>
      <trkpt lat="47.668815990909934" lon="16.38099099509418">
        <ele>404.370000000000005</ele>
        <time>2015-04-08T06:42:23Z</time>
      </trkpt>
      <trkpt lat="47.668811967596412" lon="16.380961993709207">
        <ele>403.889999999999986</ele>
        <time>2015-04-08T06:42:24Z</time>
      </trkpt>
      <trkpt lat="47.668823031708598" lon="16.380665022879839">
        <ele>406.29000000000002</ele>
        <time>2015-04-08T06:42:34Z</time>
      </trkpt>
      <trkpt lat="47.668819008395076" lon="16.380641972646117">
        <ele>406.29000000000002</ele>
        <time>2015-04-08T06:42:35Z</time>
      </trkpt>
      <trkpt lat="47.668815990909934" lon="16.380614982917905">
        <ele>406.29000000000002</ele>
        <time>2015-04-08T06:42:36Z</time>
      </trkpt>
      <trkpt lat="47.668789001181722" lon="16.380190020427108">
        <ele>409.660000000000025</ele>
        <time>2015-04-08T06:42:50Z</time>
      </trkpt>
      <trkpt lat="47.668835017830133" lon="16.379761034622788">
        <ele>411.579999999999984</ele>
        <time>2015-04-08T06:43:05Z</time>
      </trkpt>
      <trkpt lat="47.668845998123288" lon="16.379454005509615">
        <ele>412.54000000000002</ele>
        <time>2015-04-08T06:43:16Z</time>
      </trkpt>
      <trkpt lat="47.66885002143681" lon="16.379166003316641">
        <ele>414.949999999999989</ele>
        <time>2015-04-08T06:43:27Z</time>
      </trkpt>
      <trkpt lat="47.668853960931301" lon="16.379147982224822">
        <ele>414.949999999999989</ele>
        <time>2015-04-08T06:43:28Z</time>
      </trkpt>
      <trkpt lat="47.668861001729965" lon="16.379129039123654">
        <ele>414.949999999999989</ele>
        <time>2015-04-08T06:43:29Z</time>
      </trkpt>
      <trkpt lat="47.668919004499912" lon="16.378878001123667">
        <ele>417.350000000000023</ele>
        <time>2015-04-08T06:43:40Z</time>
      </trkpt>
      <trkpt lat="47.668922021985054" lon="16.378855034708977">
        <ele>417.350000000000023</ele>
        <time>2015-04-08T06:43:41Z</time>
      </trkpt>
      <trkpt lat="47.668929984793067" lon="16.378829972818494">
        <ele>417.350000000000023</ele>
        <time>2015-04-08T06:43:42Z</time>
      </trkpt>
      <trkpt lat="47.668944988399744" lon="16.378769036382437">
        <ele>417.829999999999984</ele>
        <time>2015-04-08T06:43:44Z</time>
      </trkpt>
      <trkpt lat="47.668940965086222" lon="16.378730982542038">
        <ele>418.310000000000002</ele>
        <time>2015-04-08T06:43:45Z</time>
      </trkpt>
      <trkpt lat="47.668940965086222" lon="16.37869100086391">
        <ele>418.310000000000002</ele>
        <time>2015-04-08T06:43:46Z</time>
      </trkpt>
      <trkpt lat="47.668868964537978" lon="16.378457983955741">
        <ele>419.269999999999982</ele>
        <time>2015-04-08T06:44:00Z</time>
      </trkpt>
      <trkpt lat="47.668868964537978" lon="16.378457983955741">
        <ele>418.79000000000002</ele>
        <time>2015-04-08T06:44:26Z</time>
      </trkpt>
      <trkpt lat="47.668868964537978" lon="16.378462007269263">
        <ele>419.269999999999982</ele>
        <time>2015-04-08T06:44:55Z</time>
      </trkpt>
      <trkpt lat="47.668868964537978" lon="16.378462007269263">
        <ele>419.269999999999982</ele>
        <time>2015-04-08T06:45:02Z</time>
      </trkpt>
      <trkpt lat="47.668857984244823" lon="16.378452032804489">
        <ele>419.269999999999982</ele>
        <time>2015-04-08T06:45:03Z</time>
      </trkpt>
      <trkpt lat="47.668839041143656" lon="16.378440968692303">
        <ele>419.75</ele>
        <time>2015-04-08T06:45:04Z</time>
      </trkpt>
      <trkpt lat="47.668811967596412" lon="16.378430994227529">
        <ele>419.269999999999982</ele>
        <time>2015-04-08T06:45:05Z</time>
      </trkpt>
      <trkpt lat="47.668784977868199" lon="16.378430994227529">
        <ele>419.269999999999982</ele>
        <time>2015-04-08T06:45:06Z</time>
      </trkpt>
      <trkpt lat="47.668754970654845" lon="16.378428982570767">
        <ele>419.269999999999982</ele>
        <time>2015-04-08T06:45:07Z</time>
      </trkpt>
      <trkpt lat="47.668724041432142" lon="16.37843300588429">
        <ele>419.269999999999982</ele>
        <time>2015-04-08T06:45:08Z</time>
      </trkpt>
      <trkpt lat="47.668696967884898" lon="16.378439040854573">
        <ele>419.75</ele>
        <time>2015-04-08T06:45:09Z</time>
      </trkpt>
      <trkpt lat="47.668663021177053" lon="16.378453960642219">
        <ele>419.269999999999982</ele>
        <time>2015-04-08T06:45:10Z</time>
      </trkpt>
      <trkpt lat="47.668633013963699" lon="16.37847701087594">
        <ele>419.269999999999982</ele>
        <time>2015-04-08T06:45:11Z</time>
      </trkpt>
      <trkpt lat="47.668602000921965" lon="16.378508023917675">
        <ele>419.75</ele>
        <time>2015-04-08T06:45:12Z</time>
      </trkpt>
      <trkpt lat="47.66857098788023" lon="16.37854197062552">
        <ele>419.269999999999982</ele>
        <time>2015-04-08T06:45:13Z</time>
      </trkpt>
      <trkpt lat="47.668549027293921" lon="16.378576001152396">
        <ele>419.75</ele>
        <time>2015-04-08T06:45:14Z</time>
      </trkpt>
      <trkpt lat="47.668525977060199" lon="16.378613971173763">
        <ele>419.75</ele>
        <time>2015-04-08T06:45:15Z</time>
      </trkpt>
      <trkpt lat="47.668410977348685" lon="16.379410000517964">
        <ele>422.160000000000025</ele>
        <time>2015-04-08T06:45:29Z</time>
      </trkpt>
      <trkpt lat="47.668262030929327" lon="16.379803027957678">
        <ele>424.560000000000002</ele>
        <time>2015-04-08T06:45:39Z</time>
      </trkpt>
      <trkpt lat="47.668015016242862" lon="16.380122965201735">
        <ele>427.439999999999998</ele>
        <time>2015-04-08T06:45:52Z</time>
      </trkpt>
      <trkpt lat="47.667846959084272" lon="16.38017300516367">
        <ele>428.889999999999986</ele>
        <time>2015-04-08T06:45:58Z</time>
      </trkpt>
      <trkpt lat="47.667548982426524" lon="16.38019597157836">
        <ele>431.29000000000002</ele>
        <time>2015-04-08T06:46:10Z</time>
      </trkpt>
      <trkpt lat="47.667315965518355" lon="16.380117014050484">
        <ele>434.170000000000016</ele>
        <time>2015-04-08T06:46:23Z</time>
      </trkpt>
      <trkpt lat="47.667065011337399" lon="16.379996985197067">
        <ele>435.610000000000014</ele>
        <time>2015-04-08T06:46:35Z</time>
      </trkpt>
      <trkpt lat="47.666827971115708" lon="16.379867987707257">
        <ele>437.54000000000002</ele>
        <time>2015-04-08T06:46:49Z</time>
      </trkpt>
      <trkpt lat="47.666622027754784" lon="16.379799004644156">
        <ele>439.45999999999998</ele>
        <time>2015-04-08T06:47:02Z</time>
      </trkpt>
      <trkpt lat="47.666396973654628" lon="16.379748964682221">
        <ele>441.379999999999995</ele>
        <time>2015-04-08T06:47:13Z</time>
      </trkpt>
      <trkpt lat="47.666088016703725" lon="16.379702026024461">
        <ele>443.310000000000002</ele>
        <time>2015-04-08T06:47:28Z</time>
      </trkpt>
      <trkpt lat="47.665813006460667" lon="16.379656009376049">
        <ele>445.70999999999998</ele>
        <time>2015-04-08T06:47:43Z</time>
      </trkpt>
      <trkpt lat="47.665573032572865" lon="16.379618039354682">
        <ele>447.629999999999995</ele>
        <time>2015-04-08T06:47:56Z</time>
      </trkpt>
      <trkpt lat="47.665516035631299" lon="16.379607981070876">
        <ele>447.629999999999995</ele>
        <time>2015-04-08T06:47:59Z</time>
      </trkpt>
      <trkpt lat="47.6654970087111" lon="16.379604041576385">
        <ele>448.110000000000014</ele>
        <time>2015-04-08T06:48:00Z</time>
      </trkpt>
      <trkpt lat="47.665482005104423" lon="16.379601024091244">
        <ele>448.110000000000014</ele>
        <time>2015-04-08T06:48:01Z</time>
      </trkpt>
      <trkpt lat="47.665461972355843" lon="16.37959498912096">
        <ele>448.589999999999975</ele>
        <time>2015-04-08T06:48:02Z</time>
      </trkpt>
      <trkpt lat="47.665440011769533" lon="16.379587026312947">
        <ele>448.110000000000014</ele>
        <time>2015-04-08T06:48:03Z</time>
      </trkpt>
      <trkpt lat="47.665416961535811" lon="16.379579985514283">
        <ele>448.110000000000014</ele>
        <time>2015-04-08T06:48:04Z</time>
      </trkpt>
      <trkpt lat="47.665187967941165" lon="16.379410000517964">
        <ele>451</ele>
        <time>2015-04-08T06:48:16Z</time>
      </trkpt>
      <trkpt lat="47.664985964074731" lon="16.379201961681247">
        <ele>452.920000000000016</ele>
        <time>2015-04-08T06:48:28Z</time>
      </trkpt>
      <trkpt lat="47.664791001006961" lon="16.378994006663561">
        <ele>454.360000000000014</ele>
        <time>2015-04-08T06:48:41Z</time>
      </trkpt>
      <trkpt lat="47.66470299102366" lon="16.378899039700627">
        <ele>455.800000000000011</ele>
        <time>2015-04-08T06:48:52Z</time>
      </trkpt>
      <trkpt lat="47.664692010730505" lon="16.378884958103299">
        <ele>456.279999999999973</ele>
        <time>2015-04-08T06:49:15Z</time>
      </trkpt>
      <trkpt lat="47.664672983810306" lon="16.378870038315654">
        <ele>455.800000000000011</ele>
        <time>2015-04-08T06:49:16Z</time>
      </trkpt>
      <trkpt lat="47.664654040709138" lon="16.378848999738693">
        <ele>456.279999999999973</ele>
        <time>2015-04-08T06:49:17Z</time>
      </trkpt>
      <trkpt lat="47.664635013788939" lon="16.378826033324003">
        <ele>456.279999999999973</ele>
        <time>2015-04-08T06:49:18Z</time>
      </trkpt>
      <trkpt lat="47.664615986868739" lon="16.378809018060565">
        <ele>456.759999999999991</ele>
        <time>2015-04-08T06:49:19Z</time>
      </trkpt>
      <trkpt lat="47.66459695994854" lon="16.378794014453888">
        <ele>456.759999999999991</ele>
        <time>2015-04-08T06:49:20Z</time>
      </trkpt>
      <trkpt lat="47.664577011018991" lon="16.378774987533689">
        <ele>457.240000000000009</ele>
        <time>2015-04-08T06:49:21Z</time>
      </trkpt>
      <trkpt lat="47.664557984098792" lon="16.37875696644187">
        <ele>456.759999999999991</ele>
        <time>2015-04-08T06:49:22Z</time>
      </trkpt>
      <trkpt lat="47.664276016876101" lon="16.378474999219179">
        <ele>460.129999999999995</ele>
        <time>2015-04-08T06:49:36Z</time>
      </trkpt>
      <trkpt lat="47.664017016068101" lon="16.378299985080957">
        <ele>461.569999999999993</ele>
        <time>2015-04-08T06:49:49Z</time>
      </trkpt>
      <trkpt lat="47.66375700943172" lon="16.378231002017856">
        <ele>463.970000000000027</ele>
        <time>2015-04-08T06:50:01Z</time>
      </trkpt>
      <trkpt lat="47.663524998351932" lon="16.378204012289643">
        <ele>465.899999999999977</ele>
        <time>2015-04-08T06:50:15Z</time>
      </trkpt>
      <trkpt lat="47.66328401863575" lon="16.37815497815609">
        <ele>467.339999999999975</ele>
        <time>2015-04-08T06:50:30Z</time>
      </trkpt>
      <trkpt lat="47.663013031706214" lon="16.378114996477962">
        <ele>469.740000000000009</ele>
        <time>2015-04-08T06:50:44Z</time>
      </trkpt>
      <trkpt lat="47.662697033956647" lon="16.378182973712683">
        <ele>472.139999999999986</ele>
        <time>2015-04-08T06:51:02Z</time>
      </trkpt>
      <trkpt lat="47.662395033985376" lon="16.378329992294312">
        <ele>474.550000000000011</ele>
        <time>2015-04-08T06:51:19Z</time>
      </trkpt>
      <trkpt lat="47.662097979336977" lon="16.378470975905657">
        <ele>476.949999999999989</ele>
        <time>2015-04-08T06:51:34Z</time>
      </trkpt>
      <trkpt lat="47.661822969093919" lon="16.378609025850892">
        <ele>478.870000000000005</ele>
        <time>2015-04-08T06:51:49Z</time>
      </trkpt>
      <trkpt lat="47.661533039063215" lon="16.378769036382437">
        <ele>481.279999999999973</ele>
        <time>2015-04-08T06:52:04Z</time>
      </trkpt>
      <trkpt lat="47.661235984414816" lon="16.37890599668026">
        <ele>483.680000000000007</ele>
        <time>2015-04-08T06:52:19Z</time>
      </trkpt>
      <trkpt lat="47.660938007757068" lon="16.378998029977083">
        <ele>486.079999999999984</ele>
        <time>2015-04-08T06:52:33Z</time>
      </trkpt>
      <trkpt lat="47.660628966987133" lon="16.379086039960384">
        <ele>488.970000000000027</ele>
        <time>2015-04-08T06:52:48Z</time>
      </trkpt>
      <trkpt lat="47.660294026136398" lon="16.379176983609796">
        <ele>491.850000000000023</ele>
        <time>2015-04-08T06:53:03Z</time>
      </trkpt>
      <trkpt lat="47.659950032830238" lon="16.3792509958148">
        <ele>493.769999999999982</ele>
        <time>2015-04-08T06:53:19Z</time>
      </trkpt>
      <trkpt lat="47.659657001495361" lon="16.379304975271225">
        <ele>496.660000000000025</ele>
        <time>2015-04-08T06:53:33Z</time>
      </trkpt>
      <trkpt lat="47.659386014565825" lon="16.379279997199774">
        <ele>499.060000000000002</ele>
        <time>2015-04-08T06:53:47Z</time>
      </trkpt>
      <trkpt lat="47.659199014306068" lon="16.379181006923318">
        <ele>501.45999999999998</ele>
        <time>2015-04-08T06:53:58Z</time>
      </trkpt>
      <trkpt lat="47.659184010699391" lon="16.379159968346357">
        <ele>501.949999999999989</ele>
        <time>2015-04-08T06:53:59Z</time>
      </trkpt>
      <trkpt lat="47.659018971025944" lon="16.378890993073583">
        <ele>503.389999999999986</ele>
        <time>2015-04-08T06:54:14Z</time>
      </trkpt>
      <trkpt lat="47.658992987126112" lon="16.378794014453888">
        <ele>504.350000000000023</ele>
        <time>2015-04-08T06:54:19Z</time>
      </trkpt>
      <trkpt lat="47.658985024318099" lon="16.378769036382437">
        <ele>504.350000000000023</ele>
        <time>2015-04-08T06:54:20Z</time>
      </trkpt>
      <trkpt lat="47.658714037388563" lon="16.378620006144047">
        <ele>502.430000000000007</ele>
        <time>2015-04-08T06:54:30Z</time>
      </trkpt>
      <trkpt lat="47.658585039898753" lon="16.378653030842543">
        <ele>501.45999999999998</ele>
        <time>2015-04-08T06:54:39Z</time>
      </trkpt>
      <trkpt lat="47.658585039898753" lon="16.378653030842543">
        <ele>501.45999999999998</ele>
        <time>2015-04-08T06:55:12Z</time>
      </trkpt>
      <trkpt lat="47.658545980229974" lon="16.378673985600471">
        <ele>500.5</ele>
        <time>2015-04-08T06:55:44Z</time>
      </trkpt>
      <trkpt lat="47.658123029395938" lon="16.378780016675591">
        <ele>497.139999999999986</ele>
        <time>2015-04-08T06:55:52Z</time>
      </trkpt>
      <trkpt lat="47.65774198807776" lon="16.378880012780428">
        <ele>494.740000000000009</ele>
        <time>2015-04-08T06:55:57Z</time>
      </trkpt>
      <trkpt lat="47.657284000888467" lon="16.378959976136684">
        <ele>490.410000000000025</ele>
        <time>2015-04-08T06:56:02Z</time>
      </trkpt>
      <trkpt lat="47.656898014247417" lon="16.378943966701627">
        <ele>487.529999999999973</ele>
        <time>2015-04-08T06:56:06Z</time>
      </trkpt>
      <trkpt lat="47.656712019816041" lon="16.378899039700627">
        <ele>486.079999999999984</ele>
        <time>2015-04-08T06:56:08Z</time>
      </trkpt>
      <trkpt lat="47.656115982681513" lon="16.378615982830524">
        <ele>482.720000000000027</ele>
        <time>2015-04-08T06:56:15Z</time>
      </trkpt>
      <trkpt lat="47.655555987730622" lon="16.378314988687634">
        <ele>479.350000000000023</ele>
        <time>2015-04-08T06:56:22Z</time>
      </trkpt>
      <trkpt lat="47.655166983604431" lon="16.378160007297993">
        <ele>476.949999999999989</ele>
        <time>2015-04-08T06:56:27Z</time>
      </trkpt>
      <trkpt lat="47.654735986143351" lon="16.378097981214523">
        <ele>473.589999999999975</ele>
        <time>2015-04-08T06:56:32Z</time>
      </trkpt>
      <trkpt lat="47.654194012284279" lon="16.37815497815609">
        <ele>469.740000000000009</ele>
        <time>2015-04-08T06:56:38Z</time>
      </trkpt>
      <trkpt lat="47.654101978987455" lon="16.378180040046573">
        <ele>469.740000000000009</ele>
        <time>2015-04-08T06:56:39Z</time>
      </trkpt>
      <trkpt lat="47.653911961242557" lon="16.378238964825869">
        <ele>468.300000000000011</ele>
        <time>2015-04-08T06:56:41Z</time>
      </trkpt>
      <trkpt lat="47.65352999791503" lon="16.378354970365763">
        <ele>464.930000000000007</ele>
        <time>2015-04-08T06:56:45Z</time>
      </trkpt>
      <trkpt lat="47.653133030980825" lon="16.37849603779614">
        <ele>461.569999999999993</ele>
        <time>2015-04-08T06:56:49Z</time>
      </trkpt>
      <trkpt lat="47.6522830221802" lon="16.378985960036516">
        <ele>459.649999999999977</ele>
        <time>2015-04-08T06:56:59Z</time>
      </trkpt>
      <trkpt lat="47.651577014476061" lon="16.379275973886251">
        <ele>456.279999999999973</ele>
        <time>2015-04-08T06:57:08Z</time>
      </trkpt>
      <trkpt lat="47.651355983689427" lon="16.379308998584747">
        <ele>455.319999999999993</ele>
        <time>2015-04-08T06:57:11Z</time>
      </trkpt>
      <trkpt lat="47.650260971859097" lon="16.379348980262876">
        <ele>452.920000000000016</ele>
        <time>2015-04-08T06:57:26Z</time>
      </trkpt>
      <trkpt lat="47.650130968540907" lon="16.379334982484579">
        <ele>452.920000000000016</ele>
        <time>2015-04-08T06:57:28Z</time>
      </trkpt>
      <trkpt lat="47.650031978264451" lon="16.379311010241508">
        <ele>452.920000000000016</ele>
        <time>2015-04-08T06:57:30Z</time>
      </trkpt>
      <trkpt lat="47.649994008243084" lon="16.379311010241508">
        <ele>452.439999999999998</ele>
        <time>2015-04-08T06:57:31Z</time>
      </trkpt>
      <trkpt lat="47.649962995201349" lon="16.379316039383411">
        <ele>452.920000000000016</ele>
        <time>2015-04-08T06:57:32Z</time>
      </trkpt>
      <trkpt lat="47.649937011301517" lon="16.379328025504947">
        <ele>452.439999999999998</ele>
        <time>2015-04-08T06:57:33Z</time>
      </trkpt>
      <trkpt lat="47.649913961067796" lon="16.379332970827818">
        <ele>451.95999999999998</ele>
        <time>2015-04-08T06:57:34Z</time>
      </trkpt>
      <trkpt lat="47.649895017966628" lon="16.379332970827818">
        <ele>452.439999999999998</ele>
        <time>2015-04-08T06:57:35Z</time>
      </trkpt>
      <trkpt lat="47.64987900853157" lon="16.379334982484579">
        <ele>415.910000000000025</ele>
        <time>2015-04-08T06:57:38Z</time>
      </trkpt>
      <trkpt lat="47.649883031845093" lon="16.37933699414134">
        <ele>461.089999999999975</ele>
        <time>2015-04-08T06:57:39Z</time>
      </trkpt>
      <trkpt lat="47.64987900853157" lon="16.37933699414134">
        <ele>453.399999999999977</ele>
        <time>2015-04-08T06:57:40Z</time>
      </trkpt>
      <trkpt lat="47.64987900853157" lon="16.37933699414134">
        <ele>452.920000000000016</ele>
        <time>2015-04-08T06:57:42Z</time>
      </trkpt>
      <trkpt lat="47.649875991046429" lon="16.379317967221141">
        <ele>452.920000000000016</ele>
        <time>2015-04-08T06:57:57Z</time>
      </trkpt>
      <trkpt lat="47.649875991046429" lon="16.379311010241508">
        <ele>452.439999999999998</ele>
        <time>2015-04-08T06:58:21Z</time>
      </trkpt>
      <trkpt lat="47.649875991046429" lon="16.379306986927986">
        <ele>451.95999999999998</ele>
        <time>2015-04-08T06:58:54Z</time>
      </trkpt>
      <trkpt lat="47.649871967732906" lon="16.379308998584747">
        <ele>451.480000000000018</ele>
        <time>2015-04-08T06:59:26Z</time>
      </trkpt>
      <trkpt lat="47.649871967732906" lon="16.379304975271225">
        <ele>452.439999999999998</ele>
        <time>2015-04-08T07:00:01Z</time>
      </trkpt>
      <trkpt lat="47.649864004924893" lon="16.379317967221141">
        <ele>452.439999999999998</ele>
        <time>2015-04-08T07:00:38Z</time>
      </trkpt>
      <trkpt lat="47.649864004924893" lon="16.379317967221141">
        <ele>452.920000000000016</ele>
        <time>2015-04-08T07:01:16Z</time>
      </trkpt>
      <trkpt lat="47.649864004924893" lon="16.379319978877902">
        <ele>452.439999999999998</ele>
        <time>2015-04-08T07:01:49Z</time>
      </trkpt>
      <trkpt lat="47.649811031296849" lon="16.379341017454863">
        <ele>451.95999999999998</ele>
        <time>2015-04-08T07:02:07Z</time>
      </trkpt>
      <trkpt lat="47.64979200437665" lon="16.379348980262876">
        <ele>452.439999999999998</ele>
        <time>2015-04-08T07:02:08Z</time>
      </trkpt>
      <trkpt lat="47.649765014648438" lon="16.37935602106154">
        <ele>452.439999999999998</ele>
        <time>2015-04-08T07:02:09Z</time>
      </trkpt>
      <trkpt lat="47.649730984121561" lon="16.379361972212791">
        <ele>451.95999999999998</ele>
        <time>2015-04-08T07:02:10Z</time>
      </trkpt>
      <trkpt lat="47.649688990786672" lon="16.379363983869553">
        <ele>451.95999999999998</ele>
        <time>2015-04-08T07:02:11Z</time>
      </trkpt>
      <trkpt lat="47.649569967761636" lon="16.379346968606114">
        <ele>451.480000000000018</ele>
        <time>2015-04-08T07:02:14Z</time>
      </trkpt>
      <trkpt lat="47.649528980255127" lon="16.379326013848186">
        <ele>451.95999999999998</ele>
        <time>2015-04-08T07:02:15Z</time>
      </trkpt>
      <trkpt lat="47.649189010262489" lon="16.379178995266557">
        <ele>451</ele>
        <time>2015-04-08T07:02:22Z</time>
      </trkpt>
      <trkpt lat="47.649142993614078" lon="16.379169020801783">
        <ele>451</ele>
        <time>2015-04-08T07:02:23Z</time>
      </trkpt>
      <trkpt lat="47.649093959480524" lon="16.379168014973402">
        <ele>451</ele>
        <time>2015-04-08T07:02:24Z</time>
      </trkpt>
      <trkpt lat="47.648303965106606" lon="16.37927396222949">
        <ele>451</ele>
        <time>2015-04-08T07:02:38Z</time>
      </trkpt>
      <trkpt lat="47.647655038163066" lon="16.379321990534663">
        <ele>450.029999999999973</ele>
        <time>2015-04-08T07:02:49Z</time>
      </trkpt>
      <trkpt lat="47.646621968597174" lon="16.379405977204442">
        <ele>447.629999999999995</ele>
        <time>2015-04-08T07:03:05Z</time>
      </trkpt>
      <trkpt lat="47.645759973675013" lon="16.379577973857522">
        <ele>444.75</ele>
        <time>2015-04-08T07:03:18Z</time>
      </trkpt>
      <trkpt lat="47.64493896625936" lon="16.379902018234134">
        <ele>441.379999999999995</ele>
        <time>2015-04-08T07:03:30Z</time>
      </trkpt>
      <trkpt lat="47.643982004374266" lon="16.380372997373343">
        <ele>438.980000000000018</ele>
        <time>2015-04-08T07:03:43Z</time>
      </trkpt>
      <trkpt lat="47.643379010260105" lon="16.380783040076494">
        <ele>435.610000000000014</ele>
        <time>2015-04-08T07:03:51Z</time>
      </trkpt>
      <trkpt lat="47.643302986398339" lon="16.38084196485579">
        <ele>435.129999999999995</ele>
        <time>2015-04-08T07:03:52Z</time>
      </trkpt>
      <trkpt lat="47.642433028668165" lon="16.381498016417027">
        <ele>432.25</ele>
        <time>2015-04-08T07:04:04Z</time>
      </trkpt>
      <trkpt lat="47.641402976587415" lon="16.382494037970901">
        <ele>429.370000000000005</ele>
        <time>2015-04-08T07:04:20Z</time>
      </trkpt>
      <trkpt lat="47.640353981405497" lon="16.383445970714092">
        <ele>426.480000000000018</ele>
        <time>2015-04-08T07:04:37Z</time>
      </trkpt>
      <trkpt lat="47.639313032850623" lon="16.384067991748452">
        <ele>424.560000000000002</ele>
        <time>2015-04-08T07:04:53Z</time>
      </trkpt>
      <trkpt lat="47.638068990781903" lon="16.384850023314357">
        <ele>421.189999999999998</ele>
        <time>2015-04-08T07:05:12Z</time>
      </trkpt>
      <trkpt lat="47.637211019173265" lon="16.385786030441523">
        <ele>419.269999999999982</ele>
        <time>2015-04-08T07:05:28Z</time>
      </trkpt>
      <trkpt lat="47.636467041447759" lon="16.387158986181021">
        <ele>416.389999999999986</ele>
        <time>2015-04-08T07:05:46Z</time>
      </trkpt>
      <trkpt lat="47.635830016806722" lon="16.388447033241391">
        <ele>413.5</ele>
        <time>2015-04-08T07:06:02Z</time>
      </trkpt>
      <trkpt lat="47.635261975228786" lon="16.389568028971553">
        <ele>410.620000000000005</ele>
        <time>2015-04-08T07:06:16Z</time>
      </trkpt>
      <trkpt lat="47.634501988068223" lon="16.390893962234259">
        <ele>408.220000000000027</ele>
        <time>2015-04-08T07:06:34Z</time>
      </trkpt>
      <trkpt lat="47.633868986740708" lon="16.39179602265358">
        <ele>405.329999999999984</ele>
        <time>2015-04-08T07:06:47Z</time>
      </trkpt>
      <trkpt lat="47.633041022345424" lon="16.392502030357718">
        <ele>403.410000000000025</ele>
        <time>2015-04-08T07:07:01Z</time>
      </trkpt>
      <trkpt lat="47.632179027423263" lon="16.392714008688927">
        <ele>400.050000000000011</ele>
        <time>2015-04-08T07:07:15Z</time>
      </trkpt>
      <trkpt lat="47.631058031693101" lon="16.392436986789107">
        <ele>398.600000000000023</ele>
        <time>2015-04-08T07:07:32Z</time>
      </trkpt>
      <trkpt lat="47.630234006792307" lon="16.392150996252894">
        <ele>395.720000000000027</ele>
        <time>2015-04-08T07:07:44Z</time>
      </trkpt>
      <trkpt lat="47.629104964435101" lon="16.392111014574766">
        <ele>394.279999999999973</ele>
        <time>2015-04-08T07:07:59Z</time>
      </trkpt>
      <trkpt lat="47.628082036972046" lon="16.392359035089612">
        <ele>390.910000000000025</ele>
        <time>2015-04-08T07:08:12Z</time>
      </trkpt>
      <trkpt lat="47.626990964636207" lon="16.393010979518294">
        <ele>389.470000000000027</ele>
        <time>2015-04-08T07:08:28Z</time>
      </trkpt>
      <trkpt lat="47.625805009156466" lon="16.393773984164">
        <ele>385.629999999999995</ele>
        <time>2015-04-08T07:08:47Z</time>
      </trkpt>
      <trkpt lat="47.625094978138804" lon="16.393864005804062">
        <ele>383.220000000000027</ele>
        <time>2015-04-08T07:08:57Z</time>
      </trkpt>
      <trkpt lat="47.623904999345541" lon="16.393965007737279">
        <ele>380.339999999999975</ele>
        <time>2015-04-08T07:09:14Z</time>
      </trkpt>
      <trkpt lat="47.622996987774968" lon="16.394536988809705">
        <ele>376.970000000000027</ele>
        <time>2015-04-08T07:09:28Z</time>
      </trkpt>
      <trkpt lat="47.62181899510324" lon="16.395423961803317">
        <ele>375.050000000000011</ele>
        <time>2015-04-08T07:09:48Z</time>
      </trkpt>
      <trkpt lat="47.620994970202446" lon="16.396287968382239">
        <ele>374.089999999999975</ele>
        <time>2015-04-08T07:10:04Z</time>
      </trkpt>
      <trkpt lat="47.62012098915875" lon="16.396927004680037">
        <ele>372.649999999999977</ele>
        <time>2015-04-08T07:10:20Z</time>
      </trkpt>
      <trkpt lat="47.619071993976831" lon="16.397382980212569">
        <ele>371.20999999999998</ele>
        <time>2015-04-08T07:10:37Z</time>
      </trkpt>
      <trkpt lat="47.61788603849709" lon="16.398005001246929">
        <ele>370.240000000000009</ele>
        <time>2015-04-08T07:10:56Z</time>
      </trkpt>
      <trkpt lat="47.616692036390305" lon="16.398788038641214">
        <ele>369.279999999999973</ele>
        <time>2015-04-08T07:11:17Z</time>
      </trkpt>
      <trkpt lat="47.616363968700171" lon="16.399061037227511">
        <ele>367.839999999999975</ele>
        <time>2015-04-08T07:11:23Z</time>
      </trkpt>
      <trkpt lat="47.615353027358651" lon="16.400214973837137">
        <ele>366.399999999999977</ele>
        <time>2015-04-08T07:11:41Z</time>
      </trkpt>
      <trkpt lat="47.614379972219467" lon="16.401450969278812">
        <ele>363.04000000000002</ele>
        <time>2015-04-08T07:11:59Z</time>
      </trkpt>
      <trkpt lat="47.613106006756425" lon="16.402629967778921">
        <ele>360.149999999999977</ele>
        <time>2015-04-08T07:12:20Z</time>
      </trkpt>
      <trkpt lat="47.611693991348147" lon="16.403862023726106">
        <ele>358.70999999999998</ele>
        <time>2015-04-08T07:12:43Z</time>
      </trkpt>
      <trkpt lat="47.610667962580919" lon="16.404487984254956">
        <ele>357.75</ele>
        <time>2015-04-08T07:13:01Z</time>
      </trkpt>
      <trkpt lat="47.609565993770957" lon="16.405049990862608">
        <ele>354.860000000000014</ele>
        <time>2015-04-08T07:13:20Z</time>
      </trkpt>
      <trkpt lat="47.608741968870163" lon="16.405371017754078">
        <ele>354.379999999999995</ele>
        <time>2015-04-08T07:13:34Z</time>
      </trkpt>
      <trkpt lat="47.607909981161356" lon="16.405672011896968">
        <ele>353.899999999999977</ele>
        <time>2015-04-08T07:13:49Z</time>
      </trkpt>
      <trkpt lat="47.607001969590783" lon="16.405918020755053">
        <ele>353.420000000000016</ele>
        <time>2015-04-08T07:14:05Z</time>
      </trkpt>
      <trkpt lat="47.605991028249264" lon="16.406507017090917">
        <ele>353.899999999999977</ele>
        <time>2015-04-08T07:14:24Z</time>
      </trkpt>
      <trkpt lat="47.605259036645293" lon="16.406943965703249">
        <ele>353.420000000000016</ele>
        <time>2015-04-08T07:14:38Z</time>
      </trkpt>
      <trkpt lat="47.604342978447676" lon="16.4073730353266">
        <ele>352.45999999999998</ele>
        <time>2015-04-08T07:14:55Z</time>
      </trkpt>
      <trkpt lat="47.603714000433683" lon="16.40745903365314">
        <ele>350.54000000000002</ele>
        <time>2015-04-08T07:15:06Z</time>
      </trkpt>
      <trkpt lat="47.603118969127536" lon="16.407735971733928">
        <ele>347.170000000000016</ele>
        <time>2015-04-08T07:15:16Z</time>
      </trkpt>
      <trkpt lat="47.602992989122868" lon="16.407848037779331">
        <ele>346.689999999999998</ele>
        <time>2015-04-08T07:15:18Z</time>
      </trkpt>
      <trkpt lat="47.602801965549588" lon="16.407998995855451">
        <ele>344.769999999999982</ele>
        <time>2015-04-08T07:15:21Z</time>
      </trkpt>
      <trkpt lat="47.601939970627427" lon="16.408715983852744">
        <ele>343.329999999999984</ele>
        <time>2015-04-08T07:15:36Z</time>
      </trkpt>
      <trkpt lat="47.601204039528966" lon="16.409650985151529">
        <ele>341.889999999999986</ele>
        <time>2015-04-08T07:15:51Z</time>
      </trkpt>
      <trkpt lat="47.601158022880554" lon="16.409702030941844">
        <ele>341.410000000000025</ele>
        <time>2015-04-08T07:15:52Z</time>
      </trkpt>
      <trkpt lat="47.601035982370377" lon="16.409815018996596">
        <ele>340.920000000000016</ele>
        <time>2015-04-08T07:15:56Z</time>
      </trkpt>
      <trkpt lat="47.601031959056854" lon="16.409825999289751">
        <ele>341.889999999999986</ele>
        <time>2015-04-08T07:16:09Z</time>
      </trkpt>
      <trkpt lat="47.600929029285908" lon="16.409960025921464">
        <ele>341.410000000000025</ele>
        <time>2015-04-08T07:16:28Z</time>
      </trkpt>
      <trkpt lat="47.600407004356384" lon="16.410362021997571">
        <ele>339.95999999999998</ele>
        <time>2015-04-08T07:16:39Z</time>
      </trkpt>
      <trkpt lat="47.599700996652246" lon="16.41083300113678">
        <ele>337.079999999999984</ele>
        <time>2015-04-08T07:16:50Z</time>
      </trkpt>
      <trkpt lat="47.59893799200654" lon="16.411344967782497">
        <ele>334.199999999999989</ele>
        <time>2015-04-08T07:17:01Z</time>
      </trkpt>
      <trkpt lat="47.598629035055637" lon="16.411568010225892">
        <ele>333.230000000000018</ele>
        <time>2015-04-08T07:17:06Z</time>
      </trkpt>
      <trkpt lat="47.598572038114071" lon="16.411633975803852">
        <ele>332.75</ele>
        <time>2015-04-08T07:17:07Z</time>
      </trkpt>
      <trkpt lat="47.598526021465659" lon="16.411716034635901">
        <ele>333.230000000000018</ele>
        <time>2015-04-08T07:17:08Z</time>
      </trkpt>
      <trkpt lat="47.59848402813077" lon="16.411802032962441">
        <ele>333.230000000000018</ele>
        <time>2015-04-08T07:17:09Z</time>
      </trkpt>
      <trkpt lat="47.598430970683694" lon="16.41188601963222">
        <ele>332.269999999999982</ele>
        <time>2015-04-08T07:17:10Z</time>
      </trkpt>
      <trkpt lat="47.598372967913747" lon="16.411963971331716">
        <ele>331.79000000000002</ele>
        <time>2015-04-08T07:17:11Z</time>
      </trkpt>
      <trkpt lat="47.598309013992548" lon="16.41203697770834">
        <ele>331.310000000000002</ele>
        <time>2015-04-08T07:17:12Z</time>
      </trkpt>
      <trkpt lat="47.597576016560197" lon="16.41259596683085">
        <ele>329.389999999999986</ele>
        <time>2015-04-08T07:17:24Z</time>
      </trkpt>
      <trkpt lat="47.59751901961863" lon="16.412654975429177">
        <ele>328.910000000000025</ele>
        <time>2015-04-08T07:17:25Z</time>
      </trkpt>
      <trkpt lat="47.596965981647372" lon="16.41339099034667">
        <ele>327.949999999999989</ele>
        <time>2015-04-08T07:17:36Z</time>
      </trkpt>
      <trkpt lat="47.596943015232682" lon="16.413469025865197">
        <ele>327.949999999999989</ele>
        <time>2015-04-08T07:17:37Z</time>
      </trkpt>
      <trkpt lat="47.596923988312483" lon="16.413543960079551">
        <ele>327.949999999999989</ele>
        <time>2015-04-08T07:17:38Z</time>
      </trkpt>
      <trkpt lat="47.596889035776258" lon="16.413602968677878">
        <ele>326.990000000000009</ele>
        <time>2015-04-08T07:17:39Z</time>
      </trkpt>
      <trkpt lat="47.596847964450717" lon="16.413646973669529">
        <ele>327.470000000000027</ele>
        <time>2015-04-08T07:17:40Z</time>
      </trkpt>
      <trkpt lat="47.596798008307815" lon="16.413681004196405">
        <ele>327.470000000000027</ele>
        <time>2015-04-08T07:17:41Z</time>
      </trkpt>
      <trkpt lat="47.596741011366248" lon="16.413707993924618">
        <ele>326.990000000000009</ele>
        <time>2015-04-08T07:17:42Z</time>
      </trkpt>
      <trkpt lat="47.596684014424682" lon="16.413730960339308">
        <ele>327.470000000000027</ele>
        <time>2015-04-08T07:17:43Z</time>
      </trkpt>
      <trkpt lat="47.596382014453411" lon="16.413828022778034">
        <ele>326.5</ele>
        <time>2015-04-08T07:17:48Z</time>
      </trkpt>
      <trkpt lat="47.596325017511845" lon="16.413821987807751">
        <ele>326.990000000000009</ele>
        <time>2015-04-08T07:17:49Z</time>
      </trkpt>
      <trkpt lat="47.596268020570278" lon="16.413811007514596">
        <ele>326.5</ele>
        <time>2015-04-08T07:17:50Z</time>
      </trkpt>
      <trkpt lat="47.596214041113853" lon="16.413793992251158">
        <ele>326.5</ele>
        <time>2015-04-08T07:17:51Z</time>
      </trkpt>
      <trkpt lat="47.596156960353255" lon="16.413773037493229">
        <ele>326.990000000000009</ele>
        <time>2015-04-08T07:17:52Z</time>
      </trkpt>
      <trkpt lat="47.595729986205697" lon="16.413742024451494">
        <ele>326.990000000000009</ele>
        <time>2015-04-08T07:17:59Z</time>
      </trkpt>
      <trkpt lat="47.595668965950608" lon="16.413767002522945">
        <ele>326.5</ele>
        <time>2015-04-08T07:18:00Z</time>
      </trkpt>
      <trkpt lat="47.595608029514551" lon="16.413802960887551">
        <ele>326.5</ele>
        <time>2015-04-08T07:18:01Z</time>
      </trkpt>
      <trkpt lat="47.595500992611051" lon="16.413885019719601">
        <ele>326.019999999999982</ele>
        <time>2015-04-08T07:18:03Z</time>
      </trkpt>
      <trkpt lat="47.595454975962639" lon="16.413931036368012">
        <ele>326.019999999999982</ele>
        <time>2015-04-08T07:18:04Z</time>
      </trkpt>
      <trkpt lat="47.595417005941272" lon="16.413984009996057">
        <ele>325.54000000000002</ele>
        <time>2015-04-08T07:18:05Z</time>
      </trkpt>
      <trkpt lat="47.595390016213059" lon="16.414052993059158">
        <ele>325.54000000000002</ele>
        <time>2015-04-08T07:18:06Z</time>
      </trkpt>
      <trkpt lat="47.595375012606382" lon="16.414131028577685">
        <ele>325.060000000000002</ele>
        <time>2015-04-08T07:18:07Z</time>
      </trkpt>
      <trkpt lat="47.595379035919905" lon="16.414215015247464">
        <ele>325.54000000000002</ele>
        <time>2015-04-08T07:18:08Z</time>
      </trkpt>
      <trkpt lat="47.595394039526582" lon="16.414299001917243">
        <ele>325.060000000000002</ele>
        <time>2015-04-08T07:18:09Z</time>
      </trkpt>
      <trkpt lat="47.595412982627749" lon="16.414387011900544">
        <ele>325.060000000000002</ele>
        <time>2015-04-08T07:18:10Z</time>
      </trkpt>
      <trkpt lat="47.595427986234426" lon="16.414470998570323">
        <ele>324.579999999999984</ele>
        <time>2015-04-08T07:18:11Z</time>
      </trkpt>
      <trkpt lat="47.595432009547949" lon="16.414554985240102">
        <ele>325.060000000000002</ele>
        <time>2015-04-08T07:18:12Z</time>
      </trkpt>
      <trkpt lat="47.595417005941272" lon="16.414707032963634">
        <ele>324.579999999999984</ele>
        <time>2015-04-08T07:18:14Z</time>
      </trkpt>
      <trkpt lat="47.595397979021072" lon="16.414781967177987">
        <ele>323.620000000000005</ele>
        <time>2015-04-08T07:18:15Z</time>
      </trkpt>
      <trkpt lat="47.595360008999705" lon="16.414923034608364">
        <ele>327.470000000000027</ele>
        <time>2015-04-08T07:18:17Z</time>
      </trkpt>
      <trkpt lat="47.595340982079506" lon="16.414995035156608">
        <ele>324.100000000000023</ele>
        <time>2015-04-08T07:18:18Z</time>
      </trkpt>
      <trkpt lat="47.595322038978338" lon="16.415074998512864">
        <ele>324.579999999999984</ele>
        <time>2015-04-08T07:18:19Z</time>
      </trkpt>
      <trkpt lat="47.595306029543281" lon="16.415158985182643">
        <ele>324.579999999999984</ele>
        <time>2015-04-08T07:18:20Z</time>
      </trkpt>
      <trkpt lat="47.595168985426426" lon="16.415774971246719">
        <ele>323.620000000000005</ele>
        <time>2015-04-08T07:18:27Z</time>
      </trkpt>
      <trkpt lat="47.595131015405059" lon="16.415854012593627">
        <ele>323.620000000000005</ele>
        <time>2015-04-08T07:18:28Z</time>
      </trkpt>
      <trkpt lat="47.59509296156466" lon="16.415921989828348">
        <ele>324.100000000000023</ele>
        <time>2015-04-08T07:18:29Z</time>
      </trkpt>
      <trkpt lat="47.595043005421758" lon="16.415983010083437">
        <ele>323.620000000000005</ele>
        <time>2015-04-08T07:18:30Z</time>
      </trkpt>
      <trkpt lat="47.594993971288204" lon="16.416034977883101">
        <ele>323.620000000000005</ele>
        <time>2015-04-08T07:18:31Z</time>
      </trkpt>
      <trkpt lat="47.594944015145302" lon="16.416079988703132">
        <ele>323.139999999999986</ele>
        <time>2015-04-08T07:18:32Z</time>
      </trkpt>
      <trkpt lat="47.594893975183368" lon="16.416120976209641">
        <ele>323.620000000000005</ele>
        <time>2015-04-08T07:18:33Z</time>
      </trkpt>
      <trkpt lat="47.594841001555324" lon="16.416157018393278">
        <ele>323.139999999999986</ele>
        <time>2015-04-08T07:18:34Z</time>
      </trkpt>
      <trkpt lat="47.594733964651823" lon="16.41622700728476">
        <ele>323.620000000000005</ele>
        <time>2015-04-08T07:18:36Z</time>
      </trkpt>
      <trkpt lat="47.594688031822443" lon="16.416275035589933">
        <ele>323.139999999999986</ele>
        <time>2015-04-08T07:18:37Z</time>
      </trkpt>
      <trkpt lat="47.594513017684221" lon="16.41646203584969">
        <ele>323.139999999999986</ele>
        <time>2015-04-08T07:18:41Z</time>
      </trkpt>
      <trkpt lat="47.59446700103581" lon="16.416487013921142">
        <ele>323.139999999999986</ele>
        <time>2015-04-08T07:18:42Z</time>
      </trkpt>
      <trkpt lat="47.594417966902256" lon="16.416495982557535">
        <ele>323.139999999999986</ele>
        <time>2015-04-08T07:18:43Z</time>
      </trkpt>
      <trkpt lat="47.594363987445831" lon="16.416489025577903">
        <ele>323.139999999999986</ele>
        <time>2015-04-08T07:18:44Z</time>
      </trkpt>
      <trkpt lat="47.594311013817787" lon="16.416473016142845">
        <ele>322.660000000000025</ele>
        <time>2015-04-08T07:18:45Z</time>
      </trkpt>
      <trkpt lat="47.594139017164707" lon="16.416450971737504">
        <ele>322.660000000000025</ele>
        <time>2015-04-08T07:18:48Z</time>
      </trkpt>
      <trkpt lat="47.594085959717631" lon="16.416473016142845">
        <ele>322.660000000000025</ele>
        <time>2015-04-08T07:18:49Z</time>
      </trkpt>
      <trkpt lat="47.594040026888251" lon="16.416520960628986">
        <ele>322.660000000000025</ele>
        <time>2015-04-08T07:18:50Z</time>
      </trkpt>
      <trkpt lat="47.594005996361375" lon="16.416588015854359">
        <ele>322.180000000000007</ele>
        <time>2015-04-08T07:18:51Z</time>
      </trkpt>
      <trkpt lat="47.593983029946685" lon="16.416665967553854">
        <ele>322.660000000000025</ele>
        <time>2015-04-08T07:18:52Z</time>
      </trkpt>
      <trkpt lat="47.593967020511627" lon="16.416748026385903">
        <ele>322.660000000000025</ele>
        <time>2015-04-08T07:18:53Z</time>
      </trkpt>
      <trkpt lat="47.593959979712963" lon="16.416837964206934">
        <ele>322.660000000000025</ele>
        <time>2015-04-08T07:18:54Z</time>
      </trkpt>
      <trkpt lat="47.593956040218472" lon="16.416926980018616">
        <ele>323.139999999999986</ele>
        <time>2015-04-08T07:18:55Z</time>
      </trkpt>
      <trkpt lat="47.593964003026485" lon="16.417017001658678">
        <ele>322.180000000000007</ele>
        <time>2015-04-08T07:18:56Z</time>
      </trkpt>
      <trkpt lat="47.593970960006118" lon="16.417109034955502">
        <ele>322.180000000000007</ele>
        <time>2015-04-08T07:18:57Z</time>
      </trkpt>
      <trkpt lat="47.593979006633162" lon="16.417199978604913">
        <ele>322.180000000000007</ele>
        <time>2015-04-08T07:18:58Z</time>
      </trkpt>
      <trkpt lat="47.593983029946685" lon="16.417294023558497">
        <ele>322.180000000000007</ele>
        <time>2015-04-08T07:18:59Z</time>
      </trkpt>
      <trkpt lat="47.594009013846517" lon="16.417657965794206">
        <ele>320.740000000000009</ele>
        <time>2015-04-08T07:19:03Z</time>
      </trkpt>
      <trkpt lat="47.594001973047853" lon="16.417740024626255">
        <ele>321.220000000000027</ele>
        <time>2015-04-08T07:19:04Z</time>
      </trkpt>
      <trkpt lat="47.593979006633162" lon="16.41781797632575">
        <ele>321.220000000000027</ele>
        <time>2015-04-08T07:19:05Z</time>
      </trkpt>
      <trkpt lat="47.59395201690495" lon="16.417896011844277">
        <ele>321.220000000000027</ele>
        <time>2015-04-08T07:19:06Z</time>
      </trkpt>
      <trkpt lat="47.593917986378074" lon="16.417969018220901">
        <ele>321.699999999999989</ele>
        <time>2015-04-08T07:19:07Z</time>
      </trkpt>
      <trkpt lat="47.593781026080251" lon="16.418263977393508">
        <ele>320.740000000000009</ele>
        <time>2015-04-08T07:19:11Z</time>
      </trkpt>
      <trkpt lat="47.593726962804794" lon="16.418406972661614">
        <ele>321.699999999999989</ele>
        <time>2015-04-08T07:19:13Z</time>
      </trkpt>
      <trkpt lat="47.59369301609695" lon="16.418461035937071">
        <ele>321.699999999999989</ele>
        <time>2015-04-08T07:19:14Z</time>
      </trkpt>
      <trkpt lat="47.59365102276206" lon="16.41850302927196">
        <ele>321.699999999999989</ele>
        <time>2015-04-08T07:19:15Z</time>
      </trkpt>
      <trkpt lat="47.593605006113648" lon="16.418533036485314">
        <ele>321.699999999999989</ele>
        <time>2015-04-08T07:19:16Z</time>
      </trkpt>
      <trkpt lat="47.593552032485604" lon="16.418556002900004">
        <ele>320.740000000000009</ele>
        <time>2015-04-08T07:19:17Z</time>
      </trkpt>
      <trkpt lat="47.593494029715657" lon="16.41856798902154">
        <ele>320.740000000000009</ele>
        <time>2015-04-08T07:19:18Z</time>
      </trkpt>
      <trkpt lat="47.593429991975427" lon="16.418575029820204">
        <ele>319.779999999999973</ele>
        <time>2015-04-08T07:19:19Z</time>
      </trkpt>
      <trkpt lat="47.59337198920548" lon="16.418605959042907">
        <ele>319.300000000000011</ele>
        <time>2015-04-08T07:19:20Z</time>
      </trkpt>
      <trkpt lat="47.593323038890958" lon="16.418666979297996">
        <ele>319.300000000000011</ele>
        <time>2015-04-08T07:19:21Z</time>
      </trkpt>
      <trkpt lat="47.593288002535701" lon="16.418749038130045">
        <ele>319.300000000000011</ele>
        <time>2015-04-08T07:19:22Z</time>
      </trkpt>
      <trkpt lat="47.593262018635869" lon="16.418836964294314">
        <ele>319.300000000000011</ele>
        <time>2015-04-08T07:19:23Z</time>
      </trkpt>
      <trkpt lat="47.593238968402147" lon="16.418925980105996">
        <ele>319.300000000000011</ele>
        <time>2015-04-08T07:19:24Z</time>
      </trkpt>
      <trkpt lat="47.593189012259245" lon="16.419102000072598">
        <ele>318.329999999999984</ele>
        <time>2015-04-08T07:19:26Z</time>
      </trkpt>
      <trkpt lat="47.593009974807501" lon="16.419488992542028">
        <ele>317.850000000000023</ele>
        <time>2015-04-08T07:19:31Z</time>
      </trkpt>
      <trkpt lat="47.592960018664598" lon="16.419548001140356">
        <ele>317.850000000000023</ele>
        <time>2015-04-08T07:19:32Z</time>
      </trkpt>
      <trkpt lat="47.592445034533739" lon="16.419937005266547">
        <ele>317.370000000000005</ele>
        <time>2015-04-08T07:19:41Z</time>
      </trkpt>
      <trkpt lat="47.59238401427865" lon="16.419957960024476">
        <ele>317.370000000000005</ele>
        <time>2015-04-08T07:19:42Z</time>
      </trkpt>
      <trkpt lat="47.591647999361157" lon="16.420190976932645">
        <ele>316.889999999999986</ele>
        <time>2015-04-08T07:19:54Z</time>
      </trkpt>
      <trkpt lat="47.591537022963166" lon="16.420274963602424">
        <ele>316.889999999999986</ele>
        <time>2015-04-08T07:19:56Z</time>
      </trkpt>
      <trkpt lat="47.591492012143135" lon="16.420337995514274">
        <ele>316.889999999999986</ele>
        <time>2015-04-08T07:19:57Z</time>
      </trkpt>
      <trkpt lat="47.591453958302736" lon="16.420416031032801">
        <ele>316.889999999999986</ele>
        <time>2015-04-08T07:19:58Z</time>
      </trkpt>
      <trkpt lat="47.591423029080033" lon="16.420498006045818">
        <ele>316.889999999999986</ele>
        <time>2015-04-08T07:19:59Z</time>
      </trkpt>
      <trkpt lat="47.591399978846312" lon="16.420586016029119">
        <ele>316.889999999999986</ele>
        <time>2015-04-08T07:20:00Z</time>
      </trkpt>
      <trkpt lat="47.591254971921444" lon="16.420990023761988">
        <ele>316.410000000000025</ele>
        <time>2015-04-08T07:20:05Z</time>
      </trkpt>
      <trkpt lat="47.591212978586555" lon="16.421056995168328">
        <ele>315.930000000000007</ele>
        <time>2015-04-08T07:20:06Z</time>
      </trkpt>
      <trkpt lat="47.590564973652363" lon="16.421884959563613">
        <ele>315.449999999999989</ele>
        <time>2015-04-08T07:20:21Z</time>
      </trkpt>
      <trkpt lat="47.590522980317473" lon="16.421938017010689">
        <ele>315.449999999999989</ele>
        <time>2015-04-08T07:20:22Z</time>
      </trkpt>
      <trkpt lat="47.590476963669062" lon="16.42198596149683">
        <ele>314.970000000000027</ele>
        <time>2015-04-08T07:20:23Z</time>
      </trkpt>
      <trkpt lat="47.590332040563226" lon="16.422101967036724">
        <ele>315.449999999999989</ele>
        <time>2015-04-08T07:20:26Z</time>
      </trkpt>
      <trkpt lat="47.590289963409305" lon="16.422157036140561">
        <ele>314.970000000000027</ele>
        <time>2015-04-08T07:20:27Z</time>
      </trkpt>
      <trkpt lat="47.590260040014982" lon="16.422228030860424">
        <ele>315.449999999999989</ele>
        <time>2015-04-08T07:20:28Z</time>
      </trkpt>
      <trkpt lat="47.59023698978126" lon="16.422301959246397">
        <ele>314.970000000000027</ele>
        <time>2015-04-08T07:20:29Z</time>
      </trkpt>
      <trkpt lat="47.590220980346203" lon="16.422388041391969">
        <ele>314.970000000000027</ele>
        <time>2015-04-08T07:20:30Z</time>
      </trkpt>
      <trkpt lat="47.590244030579925" lon="16.422648970037699">
        <ele>314.970000000000027</ele>
        <time>2015-04-08T07:20:33Z</time>
      </trkpt>
      <trkpt lat="47.590419966727495" lon="16.423277026042342">
        <ele>318.329999999999984</ele>
        <time>2015-04-08T07:20:44Z</time>
      </trkpt>
      <trkpt lat="47.590434970334172" lon="16.423341985791922">
        <ele>318.810000000000002</ele>
        <time>2015-04-08T07:20:46Z</time>
      </trkpt>
      <trkpt lat="47.590453997254372" lon="16.42348900437355">
        <ele>321.220000000000027</ele>
        <time>2015-04-08T07:20:51Z</time>
      </trkpt>
      <trkpt lat="47.590476963669062" lon="16.423576008528471">
        <ele>321.220000000000027</ele>
        <time>2015-04-08T07:20:54Z</time>
      </trkpt>
      <trkpt lat="47.590485010296106" lon="16.423686984926462">
        <ele>322.660000000000025</ele>
        <time>2015-04-08T07:20:58Z</time>
      </trkpt>
      <trkpt lat="47.590317036956549" lon="16.423688996583223">
        <ele>321.699999999999989</ele>
        <time>2015-04-08T07:21:05Z</time>
      </trkpt>
      <trkpt lat="47.589946975931525" lon="16.423236960545182">
        <ele>317.850000000000023</ele>
        <time>2015-04-08T07:21:12Z</time>
      </trkpt>
      <trkpt lat="47.589382035657763" lon="16.422547968104482">
        <ele>314.970000000000027</ele>
        <time>2015-04-08T07:21:21Z</time>
      </trkpt>
      <trkpt lat="47.589325038716197" lon="16.422509998083115">
        <ele>315.449999999999989</ele>
        <time>2015-04-08T07:21:22Z</time>
      </trkpt>
      <trkpt lat="47.589268041774631" lon="16.422477979212999">
        <ele>314.970000000000027</ele>
        <time>2015-04-08T07:21:23Z</time>
      </trkpt>
      <trkpt lat="47.589202998206019" lon="16.422460963949561">
        <ele>314.490000000000009</ele>
        <time>2015-04-08T07:21:24Z</time>
      </trkpt>
      <trkpt lat="47.58913803845644" lon="16.422463981434703">
        <ele>314.490000000000009</ele>
        <time>2015-04-08T07:21:25Z</time>
      </trkpt>
      <trkpt lat="47.589077018201351" lon="16.422474039718509">
        <ele>313.529999999999973</ele>
        <time>2015-04-08T07:21:26Z</time>
      </trkpt>
      <trkpt lat="47.58901197463274" lon="16.422488959506154">
        <ele>314.009999999999991</ele>
        <time>2015-04-08T07:21:27Z</time>
      </trkpt>
      <trkpt lat="47.588951038196683" lon="16.422509998083115">
        <ele>314.009999999999991</ele>
        <time>2015-04-08T07:21:28Z</time>
      </trkpt>
      <trkpt lat="47.588890017941594" lon="16.422549979761243">
        <ele>313.050000000000011</ele>
        <time>2015-04-08T07:21:29Z</time>
      </trkpt>
      <trkpt lat="47.588833021000028" lon="16.422603959217668">
        <ele>313.050000000000011</ele>
        <time>2015-04-08T07:21:30Z</time>
      </trkpt>
      <trkpt lat="47.588779041543603" lon="16.422666991129518">
        <ele>313.050000000000011</ele>
        <time>2015-04-08T07:21:31Z</time>
      </trkpt>
      <trkpt lat="47.588725984096527" lon="16.422728011384606">
        <ele>313.050000000000011</ele>
        <time>2015-04-08T07:21:32Z</time>
      </trkpt>
      <trkpt lat="47.588413003832102" lon="16.423193039372563">
        <ele>313.050000000000011</ele>
        <time>2015-04-08T07:21:39Z</time>
      </trkpt>
      <trkpt lat="47.58838701993227" lon="16.423275014385581">
        <ele>312.569999999999993</ele>
        <time>2015-04-08T07:21:40Z</time>
      </trkpt>
      <trkpt lat="47.588363969698548" lon="16.423361012712121">
        <ele>312.569999999999993</ele>
        <time>2015-04-08T07:21:41Z</time>
      </trkpt>
      <trkpt lat="47.588210999965668" lon="16.424124017357826">
        <ele>312.569999999999993</ele>
        <time>2015-04-08T07:21:50Z</time>
      </trkpt>
      <trkpt lat="47.588173029944301" lon="16.42419601790607">
        <ele>313.050000000000011</ele>
        <time>2015-04-08T07:21:51Z</time>
      </trkpt>
      <trkpt lat="47.587498035281897" lon="16.424942007288337">
        <ele>311.120000000000005</ele>
        <time>2015-04-08T07:22:05Z</time>
      </trkpt>
      <trkpt lat="47.586768977344036" lon="16.425696965306997">
        <ele>310.160000000000025</ele>
        <time>2015-04-08T07:22:20Z</time>
      </trkpt>
      <trkpt lat="47.586636040359735" lon="16.425940040498972">
        <ele>310.160000000000025</ele>
        <time>2015-04-08T07:22:24Z</time>
      </trkpt>
      <trkpt lat="47.586605027318001" lon="16.42600298859179">
        <ele>310.160000000000025</ele>
        <time>2015-04-08T07:22:25Z</time>
      </trkpt>
      <trkpt lat="47.586570996791124" lon="16.426055962219834">
        <ele>310.639999999999986</ele>
        <time>2015-04-08T07:22:26Z</time>
      </trkpt>
      <trkpt lat="47.586421966552734" lon="16.426270036026835">
        <ele>310.160000000000025</ele>
        <time>2015-04-08T07:22:30Z</time>
      </trkpt>
      <trkpt lat="47.586234966292977" lon="16.426434991881251">
        <ele>310.160000000000025</ele>
        <time>2015-04-08T07:22:34Z</time>
      </trkpt>
      <trkpt lat="47.586036985740066" lon="16.42655803821981">
        <ele>305.839999999999975</ele>
        <time>2015-04-08T07:22:38Z</time>
      </trkpt>
      <trkpt lat="47.585990969091654" lon="16.426589973270893">
        <ele>310.639999999999986</ele>
        <time>2015-04-08T07:22:39Z</time>
      </trkpt>
      <trkpt lat="47.58593799546361" lon="16.426621992141008">
        <ele>310.160000000000025</ele>
        <time>2015-04-08T07:22:40Z</time>
      </trkpt>
      <trkpt lat="47.585391998291016" lon="16.426907982677221">
        <ele>308.720000000000027</ele>
        <time>2015-04-08T07:22:50Z</time>
      </trkpt>
      <trkpt lat="47.585227964445949" lon="16.426978977397084">
        <ele>308.240000000000009</ele>
        <time>2015-04-08T07:22:53Z</time>
      </trkpt>
      <trkpt lat="47.58512101136148" lon="16.427018959075212">
        <ele>308.240000000000009</ele>
        <time>2015-04-08T07:22:55Z</time>
      </trkpt>
      <trkpt lat="47.584956977516413" lon="16.427105041220784">
        <ele>308.240000000000009</ele>
        <time>2015-04-08T07:22:58Z</time>
      </trkpt>
      <trkpt lat="47.584899980574846" lon="16.427132030948997">
        <ele>307.759999999999991</ele>
        <time>2015-04-08T07:22:59Z</time>
      </trkpt>
      <trkpt lat="47.584846001118422" lon="16.42716396600008">
        <ele>308.240000000000009</ele>
        <time>2015-04-08T07:23:00Z</time>
      </trkpt>
      <trkpt lat="47.584796966984868" lon="16.427197996526957">
        <ele>308.720000000000027</ele>
        <time>2015-04-08T07:23:01Z</time>
      </trkpt>
      <trkpt lat="47.584754973649979" lon="16.427237978205085">
        <ele>308.240000000000009</ele>
        <time>2015-04-08T07:23:02Z</time>
      </trkpt>
      <trkpt lat="47.584709040820599" lon="16.427277037873864">
        <ele>309.199999999999989</ele>
        <time>2015-04-08T07:23:03Z</time>
      </trkpt>
      <trkpt lat="47.584660006687045" lon="16.427306961268187">
        <ele>308.720000000000027</ele>
        <time>2015-04-08T07:23:04Z</time>
      </trkpt>
      <trkpt lat="47.584618013352156" lon="16.427339985966682">
        <ele>308.720000000000027</ele>
        <time>2015-04-08T07:23:05Z</time>
      </trkpt>
      <trkpt lat="47.584576020017266" lon="16.427372004836798">
        <ele>308.720000000000027</ele>
        <time>2015-04-08T07:23:06Z</time>
      </trkpt>
      <trkpt lat="47.584537966176867" lon="16.427404023706913">
        <ele>308.720000000000027</ele>
        <time>2015-04-08T07:23:07Z</time>
      </trkpt>
      <trkpt lat="47.584495972841978" lon="16.427424978464842">
        <ele>309.199999999999989</ele>
        <time>2015-04-08T07:23:08Z</time>
      </trkpt>
      <trkpt lat="47.584453979507089" lon="16.427424978464842">
        <ele>309.199999999999989</ele>
        <time>2015-04-08T07:23:09Z</time>
      </trkpt>
      <trkpt lat="47.584407962858677" lon="16.427402012050152">
        <ele>308.720000000000027</ele>
        <time>2015-04-08T07:23:10Z</time>
      </trkpt>
      <trkpt lat="47.584365969523787" lon="16.427361024543643">
        <ele>308.240000000000009</ele>
        <time>2015-04-08T07:23:11Z</time>
      </trkpt>
      <trkpt lat="47.58432799950242" lon="16.427298998460174">
        <ele>308.240000000000009</ele>
        <time>2015-04-08T07:23:12Z</time>
      </trkpt>
      <trkpt lat="47.584296986460686" lon="16.427236972376704">
        <ele>307.279999999999973</ele>
        <time>2015-04-08T07:23:13Z</time>
      </trkpt>
      <trkpt lat="47.584263039752841" lon="16.427178969606757">
        <ele>307.279999999999973</ele>
        <time>2015-04-08T07:23:14Z</time>
      </trkpt>
      <trkpt lat="47.584217023104429" lon="16.427143011242151">
        <ele>306.800000000000011</ele>
        <time>2015-04-08T07:23:15Z</time>
      </trkpt>
      <trkpt lat="47.584163965657353" lon="16.427143011242151">
        <ele>306.800000000000011</ele>
        <time>2015-04-08T07:23:16Z</time>
      </trkpt>
      <trkpt lat="47.584118032827973" lon="16.427174024283886">
        <ele>306.319999999999993</ele>
        <time>2015-04-08T07:23:17Z</time>
      </trkpt>
      <trkpt lat="47.584076039493084" lon="16.427216017618775">
        <ele>306.319999999999993</ele>
        <time>2015-04-08T07:23:18Z</time>
      </trkpt>
      <trkpt lat="47.583831958472729" lon="16.427404023706913">
        <ele>306.319999999999993</ele>
        <time>2015-04-08T07:23:23Z</time>
      </trkpt>
      <trkpt lat="47.583777979016304" lon="16.427418021485209">
        <ele>306.319999999999993</ele>
        <time>2015-04-08T07:23:24Z</time>
      </trkpt>
      <trkpt lat="47.58372500538826" lon="16.427424978464842">
        <ele>306.319999999999993</ele>
        <time>2015-04-08T07:23:25Z</time>
      </trkpt>
      <trkpt lat="47.583668008446693" lon="16.4274219609797">
        <ele>306.319999999999993</ele>
        <time>2015-04-08T07:23:26Z</time>
      </trkpt>
      <trkpt lat="47.583614028990269" lon="16.427413998171687">
        <ele>306.319999999999993</ele>
        <time>2015-04-08T07:23:27Z</time>
      </trkpt>
      <trkpt lat="47.582782963290811" lon="16.427325988188386">
        <ele>305.360000000000014</ele>
        <time>2015-04-08T07:23:42Z</time>
      </trkpt>
      <trkpt lat="47.582405023276806" lon="16.427347026765347">
        <ele>305.360000000000014</ele>
        <time>2015-04-08T07:23:49Z</time>
      </trkpt>
      <trkpt lat="47.582297986373305" lon="16.427381979301572">
        <ele>305.360000000000014</ele>
        <time>2015-04-08T07:23:51Z</time>
      </trkpt>
      <trkpt lat="47.582249036058784" lon="16.427407963201404">
        <ele>305.360000000000014</ele>
        <time>2015-04-08T07:23:52Z</time>
      </trkpt>
      <trkpt lat="47.582203019410372" lon="16.427440987899899">
        <ele>304.879999999999995</ele>
        <time>2015-04-08T07:23:53Z</time>
      </trkpt>
      <trkpt lat="47.581585021689534" lon="16.428091004490852">
        <ele>304.879999999999995</ele>
        <time>2015-04-08T07:24:06Z</time>
      </trkpt>
      <trkpt lat="47.5815349817276" lon="16.428132997825742">
        <ele>304.879999999999995</ele>
        <time>2015-04-08T07:24:07Z</time>
      </trkpt>
      <trkpt lat="47.581486031413078" lon="16.428170967847109">
        <ele>304.389999999999986</ele>
        <time>2015-04-08T07:24:08Z</time>
      </trkpt>
      <trkpt lat="47.581431968137622" lon="16.428203992545605">
        <ele>303.910000000000025</ele>
        <time>2015-04-08T07:24:09Z</time>
      </trkpt>
      <trkpt lat="47.581326020881534" lon="16.428256966173649">
        <ele>304.389999999999986</ele>
        <time>2015-04-08T07:24:11Z</time>
      </trkpt>
      <trkpt lat="47.581272041425109" lon="16.428273981437087">
        <ele>304.389999999999986</ele>
        <time>2015-04-08T07:24:12Z</time>
      </trkpt>
      <trkpt lat="47.580440975725651" lon="16.428140960633755">
        <ele>301.990000000000009</ele>
        <time>2015-04-08T07:24:26Z</time>
      </trkpt>
      <trkpt lat="47.579544028267264" lon="16.427933005616069">
        <ele>301.990000000000009</ele>
        <time>2015-04-08T07:24:42Z</time>
      </trkpt>
      <trkpt lat="47.579287961125374" lon="16.427877014502883">
        <ele>301.509999999999991</ele>
        <time>2015-04-08T07:24:47Z</time>
      </trkpt>
      <trkpt lat="47.579243034124374" lon="16.427842983976007">
        <ele>301.029999999999973</ele>
        <time>2015-04-08T07:24:48Z</time>
      </trkpt>
      <trkpt lat="47.579204980283976" lon="16.427790010347962">
        <ele>301.509999999999991</ele>
        <time>2015-04-08T07:24:49Z</time>
      </trkpt>
      <trkpt lat="47.579177990555763" lon="16.427726978436112">
        <ele>301.990000000000009</ele>
        <time>2015-04-08T07:24:50Z</time>
      </trkpt>
      <trkpt lat="47.579146977514029" lon="16.427665958181024">
        <ele>301.509999999999991</ele>
        <time>2015-04-08T07:24:51Z</time>
      </trkpt>
      <trkpt lat="47.579086041077971" lon="16.427556993439794">
        <ele>301.509999999999991</ele>
        <time>2015-04-08T07:24:53Z</time>
      </trkpt>
      <trkpt lat="47.579059973359108" lon="16.427512988448143">
        <ele>301.509999999999991</ele>
        <time>2015-04-08T07:24:54Z</time>
      </trkpt>
      <trkpt lat="47.579028960317373" lon="16.427466971799731">
        <ele>301.509999999999991</ele>
        <time>2015-04-08T07:24:55Z</time>
      </trkpt>
      <trkpt lat="47.578880013898015" lon="16.427354989573359">
        <ele>301.990000000000009</ele>
        <time>2015-04-08T07:25:01Z</time>
      </trkpt>
      <trkpt lat="47.578856963664293" lon="16.427372004836798">
        <ele>301.509999999999991</ele>
        <time>2015-04-08T07:25:02Z</time>
      </trkpt>
      <trkpt lat="47.578835003077984" lon="16.427402012050152">
        <ele>301.990000000000009</ele>
        <time>2015-04-08T07:25:03Z</time>
      </trkpt>
      <trkpt lat="47.578812036663294" lon="16.427440987899899">
        <ele>301.990000000000009</ele>
        <time>2015-04-08T07:25:04Z</time>
      </trkpt>
      <trkpt lat="47.578796027228236" lon="16.427488010376692">
        <ele>301.990000000000009</ele>
        <time>2015-04-08T07:25:05Z</time>
      </trkpt>
      <trkpt lat="47.578616989776492" lon="16.427994025871158">
        <ele>302.470000000000027</ele>
        <time>2015-04-08T07:25:17Z</time>
      </trkpt>
      <trkpt lat="47.578616989776492" lon="16.427997965365648">
        <ele>301.990000000000009</ele>
        <time>2015-04-08T07:25:46Z</time>
      </trkpt>
      <trkpt lat="47.57859000004828" lon="16.428022021427751">
        <ele>301.509999999999991</ele>
        <time>2015-04-08T07:26:06Z</time>
      </trkpt>
      <trkpt lat="47.578579019755125" lon="16.427996037527919">
        <ele>301.509999999999991</ele>
        <time>2015-04-08T07:26:07Z</time>
      </trkpt>
      <trkpt lat="47.578559992834926" lon="16.427965024486184">
        <ele>301.509999999999991</ele>
        <time>2015-04-08T07:26:08Z</time>
      </trkpt>
      <trkpt lat="47.57848396897316" lon="16.427790010347962">
        <ele>300.550000000000011</ele>
        <time>2015-04-08T07:26:12Z</time>
      </trkpt>
      <trkpt lat="47.57846100255847" lon="16.427732007578015">
        <ele>300.550000000000011</ele>
        <time>2015-04-08T07:26:13Z</time>
      </trkpt>
      <trkpt lat="47.578407023102045" lon="16.427620025351644">
        <ele>300.550000000000011</ele>
        <time>2015-04-08T07:26:15Z</time>
      </trkpt>
      <trkpt lat="47.578381039202213" lon="16.427569985389709">
        <ele>300.550000000000011</ele>
        <time>2015-04-08T07:26:16Z</time>
      </trkpt>
      <trkpt lat="47.578346002846956" lon="16.427524974569678">
        <ele>301.029999999999973</ele>
        <time>2015-04-08T07:26:17Z</time>
      </trkpt>
      <trkpt lat="47.578304009512067" lon="16.427492033690214">
        <ele>301.029999999999973</ele>
        <time>2015-04-08T07:26:18Z</time>
      </trkpt>
      <trkpt lat="47.5782660394907" lon="16.42746202647686">
        <ele>301.029999999999973</ele>
        <time>2015-04-08T07:26:19Z</time>
      </trkpt>
      <trkpt lat="47.578223962336779" lon="16.427440987899899">
        <ele>301.029999999999973</ele>
        <time>2015-04-08T07:26:20Z</time>
      </trkpt>
      <trkpt lat="47.578178029507399" lon="16.427431013435125">
        <ele>300.550000000000011</ele>
        <time>2015-04-08T07:26:21Z</time>
      </trkpt>
      <trkpt lat="47.578133018687367" lon="16.427426990121603">
        <ele>300.550000000000011</ele>
        <time>2015-04-08T07:26:22Z</time>
      </trkpt>
      <trkpt lat="47.578087002038956" lon="16.427424978464842">
        <ele>300.550000000000011</ele>
        <time>2015-04-08T07:26:23Z</time>
      </trkpt>
      <trkpt lat="47.577904025092721" lon="16.427406035363674">
        <ele>300.069999999999993</ele>
        <time>2015-04-08T07:26:32Z</time>
      </trkpt>
      <trkpt lat="47.577904025092721" lon="16.427409974858165">
        <ele>300.069999999999993</ele>
        <time>2015-04-08T07:27:08Z</time>
      </trkpt>
      <trkpt lat="47.577907964587212" lon="16.427384996786714">
        <ele>300.550000000000011</ele>
        <time>2015-04-08T07:27:22Z</time>
      </trkpt>
      <trkpt lat="47.577904025092721" lon="16.427362030372024">
        <ele>300.550000000000011</ele>
        <time>2015-04-08T07:27:24Z</time>
      </trkpt>
      <trkpt lat="47.577873012050986" lon="16.427143011242151">
        <ele>300.069999999999993</ele>
        <time>2015-04-08T07:27:32Z</time>
      </trkpt>
      <trkpt lat="47.577849961817265" lon="16.427128007635474">
        <ele>300.069999999999993</ele>
        <time>2015-04-08T07:27:33Z</time>
      </trkpt>
      <trkpt lat="47.577820038422942" lon="16.42711996100843">
        <ele>299.589999999999975</ele>
        <time>2015-04-08T07:27:34Z</time>
      </trkpt>
      <trkpt lat="47.577208997681737" lon="16.42709699459374">
        <ele>299.589999999999975</ele>
        <time>2015-04-08T07:27:47Z</time>
      </trkpt>
      <trkpt lat="47.576209958642721" lon="16.42690303735435">
        <ele>298.629999999999995</ele>
        <time>2015-04-08T07:28:03Z</time>
      </trkpt>
      <trkpt lat="47.575179990381002" lon="16.42660497687757">
        <ele>298.149999999999977</ele>
        <time>2015-04-08T07:28:20Z</time>
      </trkpt>
      <trkpt lat="47.573924968019128" lon="16.426256038248539">
        <ele>296.699999999999989</ele>
        <time>2015-04-08T07:28:40Z</time>
      </trkpt>
      <trkpt lat="47.572692995890975" lon="16.425951020792127">
        <ele>296.699999999999989</ele>
        <time>2015-04-08T07:29:00Z</time>
      </trkpt>
      <trkpt lat="47.571476027369499" lon="16.425652038305998">
        <ele>296.699999999999989</ele>
        <time>2015-04-08T07:29:21Z</time>
      </trkpt>
      <trkpt lat="47.570228967815638" lon="16.425384990870953">
        <ele>297.670000000000016</ele>
        <time>2015-04-08T07:29:43Z</time>
      </trkpt>
      <trkpt lat="47.569148959591985" lon="16.425193967297673">
        <ele>300.550000000000011</ele>
        <time>2015-04-08T07:30:03Z</time>
      </trkpt>
      <trkpt lat="47.568142041563988" lon="16.42520503140986">
        <ele>303.910000000000025</ele>
        <time>2015-04-08T07:30:24Z</time>
      </trkpt>
      <trkpt lat="47.567101009190083" lon="16.425439976155758">
        <ele>305.360000000000014</ele>
        <time>2015-04-08T07:30:46Z</time>
      </trkpt>
      <trkpt lat="47.566188974305987" lon="16.425795033574104">
        <ele>304.879999999999995</ele>
        <time>2015-04-08T07:31:04Z</time>
      </trkpt>
      <trkpt lat="47.566028963774443" lon="16.425860999152064">
        <ele>304.389999999999986</ele>
        <time>2015-04-08T07:31:07Z</time>
      </trkpt>
      <trkpt lat="47.56597900763154" lon="16.425868961960077">
        <ele>304.389999999999986</ele>
        <time>2015-04-08T07:31:08Z</time>
      </trkpt>
      <trkpt lat="47.565926034003496" lon="16.425867034122348">
        <ele>304.389999999999986</ele>
        <time>2015-04-08T07:31:09Z</time>
      </trkpt>
      <trkpt lat="47.565880017355084" lon="16.425857981666923">
        <ele>304.879999999999995</ele>
        <time>2015-04-08T07:31:10Z</time>
      </trkpt>
      <trkpt lat="47.56582997739315" lon="16.425841972231865">
        <ele>304.389999999999986</ele>
        <time>2015-04-08T07:31:11Z</time>
      </trkpt>
      <trkpt lat="47.565781027078629" lon="16.425826968625188">
        <ele>304.879999999999995</ele>
        <time>2015-04-08T07:31:12Z</time>
      </trkpt>
      <trkpt lat="47.565730987116694" lon="16.42583099193871">
        <ele>304.879999999999995</ele>
        <time>2015-04-08T07:31:13Z</time>
      </trkpt>
      <trkpt lat="47.565681030973792" lon="16.425858987495303">
        <ele>304.879999999999995</ele>
        <time>2015-04-08T07:31:14Z</time>
      </trkpt>
      <trkpt lat="47.565639037638903" lon="16.425902992486954">
        <ele>304.879999999999995</ele>
        <time>2015-04-08T07:31:15Z</time>
      </trkpt>
      <trkpt lat="47.565605007112026" lon="16.425962001085281">
        <ele>304.879999999999995</ele>
        <time>2015-04-08T07:31:16Z</time>
      </trkpt>
      <trkpt lat="47.565574999898672" lon="16.426028972491622">
        <ele>304.879999999999995</ele>
        <time>2015-04-08T07:31:17Z</time>
      </trkpt>
      <trkpt lat="47.565543986856937" lon="16.426092004403472">
        <ele>304.879999999999995</ele>
        <time>2015-04-08T07:31:18Z</time>
      </trkpt>
      <trkpt lat="47.565501993522048" lon="16.426149001345038">
        <ele>303.910000000000025</ele>
        <time>2015-04-08T07:31:19Z</time>
      </trkpt>
      <trkpt lat="47.565460000187159" lon="16.426197029650211">
        <ele>304.389999999999986</ele>
        <time>2015-04-08T07:31:20Z</time>
      </trkpt>
      <trkpt lat="47.565413983538747" lon="16.426244974136353">
        <ele>303.910000000000025</ele>
        <time>2015-04-08T07:31:21Z</time>
      </trkpt>
      <trkpt lat="47.565365033224225" lon="16.426285039633512">
        <ele>304.389999999999986</ele>
        <time>2015-04-08T07:31:22Z</time>
      </trkpt>
      <trkpt lat="47.565314993262291" lon="16.426325021311641">
        <ele>303.910000000000025</ele>
        <time>2015-04-08T07:31:23Z</time>
      </trkpt>
      <trkpt lat="47.564536985009909" lon="16.427076039835811">
        <ele>307.279999999999973</ele>
        <time>2015-04-08T07:31:40Z</time>
      </trkpt>
      <trkpt lat="47.564334981143475" lon="16.427585994824767">
        <ele>307.759999999999991</ele>
        <time>2015-04-08T07:31:51Z</time>
      </trkpt>
      <trkpt lat="47.564322995021939" lon="16.427620025351644">
        <ele>307.279999999999973</ele>
        <time>2015-04-08T07:31:52Z</time>
      </trkpt>
      <trkpt lat="47.564307991415262" lon="16.427637040615082">
        <ele>307.759999999999991</ele>
        <time>2015-04-08T07:31:53Z</time>
      </trkpt>
      <trkpt lat="47.564292987808585" lon="16.427647015079856">
        <ele>307.759999999999991</ele>
        <time>2015-04-08T07:32:07Z</time>
      </trkpt>
      <trkpt lat="47.564292987808585" lon="16.427647015079856">
        <ele>308.720000000000027</ele>
        <time>2015-04-08T07:32:40Z</time>
      </trkpt>
      <trkpt lat="47.564297011122108" lon="16.427651960402727">
        <ele>307.759999999999991</ele>
        <time>2015-04-08T07:32:58Z</time>
      </trkpt>
      <trkpt lat="47.564297011122108" lon="16.427645003423095">
        <ele>308.240000000000009</ele>
        <time>2015-04-08T07:33:45Z</time>
      </trkpt>
      <trkpt lat="47.564297011122108" lon="16.427640980109572">
        <ele>308.240000000000009</ele>
        <time>2015-04-08T07:34:19Z</time>
      </trkpt>
      <trkpt lat="47.564297011122108" lon="16.427637040615082">
        <ele>308.240000000000009</ele>
        <time>2015-04-08T07:35:04Z</time>
      </trkpt>
      <trkpt lat="47.564216963946819" lon="16.427667969837785">
        <ele>309.199999999999989</ele>
        <time>2015-04-08T07:35:27Z</time>
      </trkpt>
      <trkpt lat="47.564204977825284" lon="16.427670987322927">
        <ele>309.199999999999989</ele>
        <time>2015-04-08T07:35:28Z</time>
      </trkpt>
      <trkpt lat="47.564186034724116" lon="16.427672998979688">
        <ele>309.680000000000007</ele>
        <time>2015-04-08T07:35:29Z</time>
      </trkpt>
      <trkpt lat="47.564167007803917" lon="16.427675010636449">
        <ele>309.680000000000007</ele>
        <time>2015-04-08T07:35:30Z</time>
      </trkpt>
      <trkpt lat="47.56396098062396" lon="16.427919007837772">
        <ele>309.680000000000007</ele>
        <time>2015-04-08T07:35:39Z</time>
      </trkpt>
      <trkpt lat="47.563419006764889" lon="16.42862300388515">
        <ele>309.199999999999989</ele>
        <time>2015-04-08T07:35:53Z</time>
      </trkpt>
      <trkpt lat="47.562572015449405" lon="16.42928902991116">
        <ele>306.800000000000011</ele>
        <time>2015-04-08T07:36:09Z</time>
      </trkpt>
      <trkpt lat="47.561774980276823" lon="16.429903004318476">
        <ele>303.910000000000025</ele>
        <time>2015-04-08T07:36:23Z</time>
      </trkpt>
      <trkpt lat="47.561008036136627" lon="16.43074999563396">
        <ele>301.029999999999973</ele>
        <time>2015-04-08T07:36:37Z</time>
      </trkpt>
      <trkpt lat="47.560760015621781" lon="16.431084014475346">
        <ele>301.029999999999973</ele>
        <time>2015-04-08T07:36:43Z</time>
      </trkpt>
      <trkpt lat="47.56073797121644" lon="16.431151991710067">
        <ele>301.029999999999973</ele>
        <time>2015-04-08T07:36:44Z</time>
      </trkpt>
      <trkpt lat="47.560721961781383" lon="16.431231033056974">
        <ele>300.550000000000011</ele>
        <time>2015-04-08T07:36:45Z</time>
      </trkpt>
      <trkpt lat="47.560719028115273" lon="16.431316025555134">
        <ele>300.550000000000011</ele>
        <time>2015-04-08T07:36:46Z</time>
      </trkpt>
      <trkpt lat="47.560719028115273" lon="16.431402023881674">
        <ele>300.069999999999993</ele>
        <time>2015-04-08T07:36:47Z</time>
      </trkpt>
      <trkpt lat="47.56071500480175" lon="16.431862022727728">
        <ele>298.629999999999995</ele>
        <time>2015-04-08T07:36:52Z</time>
      </trkpt>
      <trkpt lat="47.56088599562645" lon="16.433083014562726">
        <ele>298.149999999999977</ele>
        <time>2015-04-08T07:37:06Z</time>
      </trkpt>
      <trkpt lat="47.561005018651485" lon="16.43390997312963">
        <ele>294.300000000000011</ele>
        <time>2015-04-08T07:37:16Z</time>
      </trkpt>
      <trkpt lat="47.561023961752653" lon="16.434010975062847">
        <ele>294.300000000000011</ele>
        <time>2015-04-08T07:37:17Z</time>
      </trkpt>
      <trkpt lat="47.561431992799044" lon="16.43526297993958">
        <ele>292.860000000000014</ele>
        <time>2015-04-08T07:37:31Z</time>
      </trkpt>
      <trkpt lat="47.561515979468822" lon="16.435484010726213">
        <ele>291.420000000000016</ele>
        <time>2015-04-08T07:37:34Z</time>
      </trkpt>
      <trkpt lat="47.561576999723911" lon="16.435666987672448">
        <ele>290.45999999999998</ele>
        <time>2015-04-08T07:37:38Z</time>
      </trkpt>
      <trkpt lat="47.561569036915898" lon="16.435693977400661">
        <ele>290.45999999999998</ele>
        <time>2015-04-08T07:37:39Z</time>
      </trkpt>
      <trkpt lat="47.561550009995699" lon="16.43571300432086">
        <ele>289.970000000000027</ele>
        <time>2015-04-08T07:37:40Z</time>
      </trkpt>
      <trkpt lat="47.561545986682177" lon="16.435721972957253">
        <ele>290.45999999999998</ele>
        <time>2015-04-08T07:37:51Z</time>
      </trkpt>
      <trkpt lat="47.561545986682177" lon="16.435723984614015">
        <ele>290.939999999999998</ele>
        <time>2015-04-08T07:38:22Z</time>
      </trkpt>
      <trkpt lat="47.5615309830755" lon="16.43573597073555">
        <ele>289.970000000000027</ele>
        <time>2015-04-08T07:38:51Z</time>
      </trkpt>
      <trkpt lat="47.561253039166331" lon="16.436117012053728">
        <ele>287.569999999999993</ele>
        <time>2015-04-08T07:38:59Z</time>
      </trkpt>
      <trkpt lat="47.560417028144002" lon="16.436838023364544">
        <ele>286.610000000000014</ele>
        <time>2015-04-08T07:39:13Z</time>
      </trkpt>
      <trkpt lat="47.559628039598465" lon="16.437537996098399">
        <ele>285.649999999999977</ele>
        <time>2015-04-08T07:39:26Z</time>
      </trkpt>
      <trkpt lat="47.558509977534413" lon="16.438498981297016">
        <ele>284.20999999999998</ele>
        <time>2015-04-08T07:39:44Z</time>
      </trkpt>
      <trkpt lat="47.557330979034305" lon="16.43968602642417">
        <ele>283.730000000000018</ele>
        <time>2015-04-08T07:40:04Z</time>
      </trkpt>
      <trkpt lat="47.556156003847718" lon="16.440730998292565">
        <ele>282.769999999999982</ele>
        <time>2015-04-08T07:40:24Z</time>
      </trkpt>
      <trkpt lat="47.555080018937588" lon="16.441658036783338">
        <ele>281.800000000000011</ele>
        <time>2015-04-08T07:40:42Z</time>
      </trkpt>
      <trkpt lat="47.554164966568351" lon="16.442678030580282">
        <ele>281.319999999999993</ele>
        <time>2015-04-08T07:40:59Z</time>
      </trkpt>
      <trkpt lat="47.553371032699943" lon="16.443542037159204">
        <ele>280.360000000000014</ele>
        <time>2015-04-08T07:41:13Z</time>
      </trkpt>
      <trkpt lat="47.552237967029214" lon="16.444443007931113">
        <ele>279.879999999999995</ele>
        <time>2015-04-08T07:41:31Z</time>
      </trkpt>
      <trkpt lat="47.551135998219252" lon="16.44535998813808">
        <ele>278.439999999999998</ele>
        <time>2015-04-08T07:41:49Z</time>
      </trkpt>
      <trkpt lat="47.551085958257318" lon="16.445414973422885">
        <ele>278.920000000000016</ele>
        <time>2015-04-08T07:41:50Z</time>
      </trkpt>
      <trkpt lat="47.550689997151494" lon="16.445819986984134">
        <ele>277.95999999999998</ele>
        <time>2015-04-08T07:41:59Z</time>
      </trkpt>
      <trkpt lat="47.550667030736804" lon="16.445804983377457">
        <ele>278.920000000000016</ele>
        <time>2015-04-08T07:42:00Z</time>
      </trkpt>
      <trkpt lat="47.550597963854671" lon="16.445729965344071">
        <ele>278.439999999999998</ele>
        <time>2015-04-08T07:42:03Z</time>
      </trkpt>
      <trkpt lat="47.550559993833303" lon="16.445731977000833">
        <ele>277.95999999999998</ele>
        <time>2015-04-08T07:42:04Z</time>
      </trkpt>
      <trkpt lat="47.550522023811936" lon="16.445755027234554">
        <ele>277.95999999999998</ele>
        <time>2015-04-08T07:42:05Z</time>
      </trkpt>
      <trkpt lat="47.55048799328506" lon="16.445797020569444">
        <ele>277.95999999999998</ele>
        <time>2015-04-08T07:42:06Z</time>
      </trkpt>
      <trkpt lat="47.550449017435312" lon="16.445847982540727">
        <ele>277.95999999999998</ele>
        <time>2015-04-08T07:42:07Z</time>
      </trkpt>
      <trkpt lat="47.550410963594913" lon="16.445898022502661">
        <ele>277.95999999999998</ele>
        <time>2015-04-08T07:42:08Z</time>
      </trkpt>
      <trkpt lat="47.550365030765533" lon="16.445949990302324">
        <ele>277.95999999999998</ele>
        <time>2015-04-08T07:42:09Z</time>
      </trkpt>
      <trkpt lat="47.55031599663198" lon="16.445999024435878">
        <ele>278.439999999999998</ele>
        <time>2015-04-08T07:42:10Z</time>
      </trkpt>
      <trkpt lat="47.549934033304453" lon="16.446406971663237">
        <ele>277.95999999999998</ele>
        <time>2015-04-08T07:42:18Z</time>
      </trkpt>
      <trkpt lat="47.549786008894444" lon="16.446549966931343">
        <ele>277.95999999999998</ele>
        <time>2015-04-08T07:42:21Z</time>
      </trkpt>
      <trkpt lat="47.549202041700482" lon="16.44712395966053">
        <ele>277.95999999999998</ele>
        <time>2015-04-08T07:42:34Z</time>
      </trkpt>
      <trkpt lat="47.549152001738548" lon="16.447151033207774">
        <ele>277.95999999999998</ele>
        <time>2015-04-08T07:42:35Z</time>
      </trkpt>
      <trkpt lat="47.549102967604995" lon="16.447152961045504">
        <ele>278.439999999999998</ele>
        <time>2015-04-08T07:42:36Z</time>
      </trkpt>
      <trkpt lat="47.549053011462092" lon="16.447132006287575">
        <ele>278.439999999999998</ele>
        <time>2015-04-08T07:42:37Z</time>
      </trkpt>
      <trkpt lat="47.549000037834048" lon="16.447101999074221">
        <ele>277.95999999999998</ele>
        <time>2015-04-08T07:42:38Z</time>
      </trkpt>
      <trkpt lat="47.548945974558592" lon="16.447063023224473">
        <ele>277.95999999999998</ele>
        <time>2015-04-08T07:42:39Z</time>
      </trkpt>
      <trkpt lat="47.548301992937922" lon="16.446642000228167">
        <ele>278.439999999999998</ele>
        <time>2015-04-08T07:42:51Z</time>
      </trkpt>
      <trkpt lat="47.547610988840461" lon="16.446565976366401">
        <ele>278.439999999999998</ele>
        <time>2015-04-08T07:43:03Z</time>
      </trkpt>
      <trkpt lat="47.547428011894226" lon="16.446622973307967">
        <ele>277.480000000000018</ele>
        <time>2015-04-08T07:43:06Z</time>
      </trkpt>
      <trkpt lat="47.547160964459181" lon="16.446791030466557">
        <ele>277</ele>
        <time>2015-04-08T07:43:11Z</time>
      </trkpt>
      <trkpt lat="47.547112014144659" lon="16.446824977174401">
        <ele>277</ele>
        <time>2015-04-08T07:43:12Z</time>
      </trkpt>
      <trkpt lat="47.547065997496247" lon="16.446846015751362">
        <ele>277</ele>
        <time>2015-04-08T07:43:13Z</time>
      </trkpt>
      <trkpt lat="47.547019980847836" lon="16.446846015751362">
        <ele>277.480000000000018</ele>
        <time>2015-04-08T07:43:14Z</time>
      </trkpt>
      <trkpt lat="47.546977987512946" lon="16.446831012144685">
        <ele>278.439999999999998</ele>
        <time>2015-04-08T07:43:15Z</time>
      </trkpt>
      <trkpt lat="47.546944040805101" lon="16.44679999910295">
        <ele>277.95999999999998</ele>
        <time>2015-04-08T07:43:16Z</time>
      </trkpt>
      <trkpt lat="47.546909004449844" lon="16.446760017424822">
        <ele>278.439999999999998</ele>
        <time>2015-04-08T07:43:17Z</time>
      </trkpt>
      <trkpt lat="47.54687899723649" lon="16.446738978847861">
        <ele>278.439999999999998</ele>
        <time>2015-04-08T07:43:18Z</time>
      </trkpt>
      <trkpt lat="47.5468560308218" lon="16.446753982454538">
        <ele>278.920000000000016</ele>
        <time>2015-04-08T07:43:19Z</time>
      </trkpt>
      <trkpt lat="47.546843960881233" lon="16.446791030466557">
        <ele>279.399999999999977</ele>
        <time>2015-04-08T07:43:20Z</time>
      </trkpt>
      <trkpt lat="47.546832980588078" lon="16.446826988831162">
        <ele>279.399999999999977</ele>
        <time>2015-04-08T07:43:21Z</time>
      </trkpt>
      <trkpt lat="47.546822000294924" lon="16.446868982166052">
        <ele>278.920000000000016</ele>
        <time>2015-04-08T07:43:22Z</time>
      </trkpt>
      <trkpt lat="47.546645980328321" lon="16.447367034852505">
        <ele>278.439999999999998</ele>
        <time>2015-04-08T07:43:31Z</time>
      </trkpt>
      <trkpt lat="47.546593006700277" lon="16.447462001815438">
        <ele>278.439999999999998</ele>
        <time>2015-04-08T07:43:33Z</time>
      </trkpt>
      <trkpt lat="47.546573979780078" lon="16.447514975443482">
        <ele>278.439999999999998</ele>
        <time>2015-04-08T07:43:34Z</time>
      </trkpt>
      <trkpt lat="47.546566016972065" lon="16.447572978213429">
        <ele>278.920000000000016</ele>
        <time>2015-04-08T07:43:35Z</time>
      </trkpt>
      <trkpt lat="47.54655797034502" lon="16.447631986811757">
        <ele>279.399999999999977</ele>
        <time>2015-04-08T07:43:36Z</time>
      </trkpt>
      <trkpt lat="47.54655503667891" lon="16.447700969874859">
        <ele>278.920000000000016</ele>
        <time>2015-04-08T07:43:37Z</time>
      </trkpt>
      <trkpt lat="47.54655503667891" lon="16.447846982628107">
        <ele>279.399999999999977</ele>
        <time>2015-04-08T07:43:39Z</time>
      </trkpt>
      <trkpt lat="47.54657699726522" lon="16.448114030063152">
        <ele>279.399999999999977</ele>
        <time>2015-04-08T07:43:43Z</time>
      </trkpt>
      <trkpt lat="47.546593006700277" lon="16.448174966499209">
        <ele>278.920000000000016</ele>
        <time>2015-04-08T07:43:44Z</time>
      </trkpt>
      <trkpt lat="47.546630976721644" lon="16.448284015059471">
        <ele>279.399999999999977</ele>
        <time>2015-04-08T07:43:46Z</time>
      </trkpt>
      <trkpt lat="47.546669030562043" lon="16.448392979800701">
        <ele>278.439999999999998</ele>
        <time>2015-04-08T07:43:48Z</time>
      </trkpt>
      <trkpt lat="47.546665007248521" lon="16.44845400005579">
        <ele>277.95999999999998</ele>
        <time>2015-04-08T07:43:49Z</time>
      </trkpt>
      <trkpt lat="47.546642040833831" lon="16.448506973683834">
        <ele>278.439999999999998</ele>
        <time>2015-04-08T07:43:50Z</time>
      </trkpt>
      <trkpt lat="47.546603986993432" lon="16.448548967018723">
        <ele>278.439999999999998</ele>
        <time>2015-04-08T07:43:51Z</time>
      </trkpt>
      <trkpt lat="47.54655797034502" lon="16.448574028909206">
        <ele>278.439999999999998</ele>
        <time>2015-04-08T07:43:52Z</time>
      </trkpt>
      <trkpt lat="47.546504996716976" lon="16.448592972010374">
        <ele>278.439999999999998</ele>
        <time>2015-04-08T07:43:53Z</time>
      </trkpt>
      <trkpt lat="47.545539988204837" lon="16.449022041633725">
        <ele>277.95999999999998</ele>
        <time>2015-04-08T07:44:09Z</time>
      </trkpt>
      <trkpt lat="47.54511603154242" lon="16.449245000258088">
        <ele>277.480000000000018</ele>
        <time>2015-04-08T07:44:16Z</time>
      </trkpt>
      <trkpt lat="47.544266022741795" lon="16.449942039325833">
        <ele>276.519999999999982</ele>
        <time>2015-04-08T07:44:31Z</time>
      </trkpt>
      <trkpt lat="47.543304031714797" lon="16.450670007616282">
        <ele>277</ele>
        <time>2015-04-08T07:44:48Z</time>
      </trkpt>
      <trkpt lat="47.542834980413318" lon="16.450947029516101">
        <ele>277.480000000000018</ele>
        <time>2015-04-08T07:44:57Z</time>
      </trkpt>
      <trkpt lat="47.542797010391951" lon="16.450950969010592">
        <ele>277</ele>
        <time>2015-04-08T07:44:58Z</time>
      </trkpt>
      <trkpt lat="47.542500039562583" lon="16.450950969010592">
        <ele>276.519999999999982</ele>
        <time>2015-04-08T07:45:04Z</time>
      </trkpt>
      <trkpt lat="47.542442036792636" lon="16.450972007587552">
        <ele>276.04000000000002</ele>
        <time>2015-04-08T07:45:05Z</time>
      </trkpt>
      <trkpt lat="47.542385039851069" lon="16.451000003144145">
        <ele>276.519999999999982</ele>
        <time>2015-04-08T07:45:06Z</time>
      </trkpt>
      <trkpt lat="47.542331982403994" lon="16.451037973165512">
        <ele>277</ele>
        <time>2015-04-08T07:45:07Z</time>
      </trkpt>
      <trkpt lat="47.542273979634047" lon="16.451079966500401">
        <ele>276.04000000000002</ele>
        <time>2015-04-08T07:45:08Z</time>
      </trkpt>
      <trkpt lat="47.541526984423399" lon="16.451598973944783">
        <ele>276.04000000000002</ele>
        <time>2015-04-08T07:45:21Z</time>
      </trkpt>
      <trkpt lat="47.541473004966974" lon="16.451642978936434">
        <ele>276.519999999999982</ele>
        <time>2015-04-08T07:45:22Z</time>
      </trkpt>
      <trkpt lat="47.54142003133893" lon="16.451691007241607">
        <ele>276.04000000000002</ele>
        <time>2015-04-08T07:45:23Z</time>
      </trkpt>
      <trkpt lat="47.541366973891854" lon="16.451743980869651">
        <ele>276.519999999999982</ele>
        <time>2015-04-08T07:45:24Z</time>
      </trkpt>
      <trkpt lat="47.541321041062474" lon="16.45180500112474">
        <ele>275.560000000000002</ele>
        <time>2015-04-08T07:45:25Z</time>
      </trkpt>
      <trkpt lat="47.54127100110054" lon="16.45186803303659">
        <ele>276.519999999999982</ele>
        <time>2015-04-08T07:45:26Z</time>
      </trkpt>
      <trkpt lat="47.540913010016084" lon="16.452415036037564">
        <ele>276.04000000000002</ele>
        <time>2015-04-08T07:45:34Z</time>
      </trkpt>
      <trkpt lat="47.540512019768357" lon="16.452681999653578">
        <ele>275.560000000000002</ele>
        <time>2015-04-08T07:45:41Z</time>
      </trkpt>
      <trkpt lat="47.540446976199746" lon="16.452695997431874">
        <ele>276.04000000000002</ele>
        <time>2015-04-08T07:45:42Z</time>
      </trkpt>
      <trkpt lat="47.540382016450167" lon="16.452702032402158">
        <ele>275.560000000000002</ele>
        <time>2015-04-08T07:45:43Z</time>
      </trkpt>
      <trkpt lat="47.539557991549373" lon="16.452882997691631">
        <ele>274.110000000000014</ele>
        <time>2015-04-08T07:45:57Z</time>
      </trkpt>
      <trkpt lat="47.539017023518682" lon="16.453293040394783">
        <ele>274.110000000000014</ele>
        <time>2015-04-08T07:46:07Z</time>
      </trkpt>
      <trkpt lat="47.538436995819211" lon="16.454234998673201">
        <ele>274.110000000000014</ele>
        <time>2015-04-08T07:46:22Z</time>
      </trkpt>
      <trkpt lat="47.538360971957445" lon="16.454371958971024">
        <ele>273.629999999999995</ele>
        <time>2015-04-08T07:46:24Z</time>
      </trkpt>
      <trkpt lat="47.538192998617887" lon="16.454628026112914">
        <ele>273.629999999999995</ele>
        <time>2015-04-08T07:46:28Z</time>
      </trkpt>
      <trkpt lat="47.53742597065866" lon="16.455266978591681">
        <ele>272.670000000000016</ele>
        <time>2015-04-08T07:46:42Z</time>
      </trkpt>
      <trkpt lat="47.536846026778221" lon="16.456115981563926">
        <ele>273.149999999999977</ele>
        <time>2015-04-08T07:46:55Z</time>
      </trkpt>
      <trkpt lat="47.536464985460043" lon="16.457418026402593">
        <ele>273.629999999999995</ele>
        <time>2015-04-08T07:47:10Z</time>
      </trkpt>
      <trkpt lat="47.53602996468544" lon="16.458671959117055">
        <ele>272.670000000000016</ele>
        <time>2015-04-08T07:47:25Z</time>
      </trkpt>
      <trkpt lat="47.535544987767935" lon="16.459312001243234">
        <ele>273.149999999999977</ele>
        <time>2015-04-08T07:47:36Z</time>
      </trkpt>
      <trkpt lat="47.535522021353245" lon="16.459380984306335">
        <ele>272.670000000000016</ele>
        <time>2015-04-08T07:47:37Z</time>
      </trkpt>
      <trkpt lat="47.535502994433045" lon="16.45945499651134">
        <ele>273.149999999999977</ele>
        <time>2015-04-08T07:47:38Z</time>
      </trkpt>
      <trkpt lat="47.535487990826368" lon="16.459534037858248">
        <ele>273.629999999999995</ele>
        <time>2015-04-08T07:47:39Z</time>
      </trkpt>
      <trkpt lat="47.535480028018355" lon="16.459611989557743">
        <ele>273.629999999999995</ele>
        <time>2015-04-08T07:47:40Z</time>
      </trkpt>
      <trkpt lat="47.535453960299492" lon="16.459774011746049">
        <ele>274.110000000000014</ele>
        <time>2015-04-08T07:47:42Z</time>
      </trkpt>
      <trkpt lat="47.53540400415659" lon="16.460229987278581">
        <ele>273.629999999999995</ele>
        <time>2015-04-08T07:47:48Z</time>
      </trkpt>
      <trkpt lat="47.53523301333189" lon="16.461318964138627">
        <ele>273.149999999999977</ele>
        <time>2015-04-08T07:48:02Z</time>
      </trkpt>
      <trkpt lat="47.534992033615708" lon="16.46291496232152">
        <ele>272.189999999999998</ele>
        <time>2015-04-08T07:48:21Z</time>
      </trkpt>
      <trkpt lat="47.534775026142597" lon="16.464253971353173">
        <ele>272.189999999999998</ele>
        <time>2015-04-08T07:48:37Z</time>
      </trkpt>
      <trkpt lat="47.534374035894871" lon="16.465720972046256">
        <ele>272.189999999999998</ele>
        <time>2015-04-08T07:48:55Z</time>
      </trkpt>
      <trkpt lat="47.533805994316936" lon="16.467288974672556">
        <ele>273.149999999999977</ele>
        <time>2015-04-08T07:49:15Z</time>
      </trkpt>
      <trkpt lat="47.533317999914289" lon="16.468726973980665">
        <ele>272.670000000000016</ele>
        <time>2015-04-08T07:49:34Z</time>
      </trkpt>
      <trkpt lat="47.53319201990962" lon="16.469091000035405">
        <ele>272.189999999999998</ele>
        <time>2015-04-08T07:49:43Z</time>
      </trkpt>
      <trkpt lat="47.533095963299274" lon="16.469282023608685">
        <ele>272.670000000000016</ele>
        <time>2015-04-08T07:49:48Z</time>
      </trkpt>
      <trkpt lat="47.532882979139686" lon="16.470316015183926">
        <ele>270.75</ele>
        <time>2015-04-08T07:50:02Z</time>
      </trkpt>
      <trkpt lat="47.53256999887526" lon="16.471961969509721">
        <ele>268.829999999999984</ele>
        <time>2015-04-08T07:50:20Z</time>
      </trkpt>
      <trkpt lat="47.532345028594136" lon="16.47277501411736">
        <ele>267.379999999999995</ele>
        <time>2015-04-08T07:50:29Z</time>
      </trkpt>
      <trkpt lat="47.532309992238879" lon="16.472845003008842">
        <ele>267.860000000000014</ele>
        <time>2015-04-08T07:50:30Z</time>
      </trkpt>
      <trkpt lat="47.53226900473237" lon="16.472913986071944">
        <ele>267.379999999999995</ele>
        <time>2015-04-08T07:50:31Z</time>
      </trkpt>
      <trkpt lat="47.532173031941056" lon="16.473042983561754">
        <ele>267.379999999999995</ele>
        <time>2015-04-08T07:50:33Z</time>
      </trkpt>
      <trkpt lat="47.531802970916033" lon="16.473410027101636">
        <ele>266.899999999999977</ele>
        <time>2015-04-08T07:50:40Z</time>
      </trkpt>
      <trkpt lat="47.531157983466983" lon="16.473718984052539">
        <ele>266.420000000000016</ele>
        <time>2015-04-08T07:50:52Z</time>
      </trkpt>
      <trkpt lat="47.531112972646952" lon="16.473711021244526">
        <ele>266.420000000000016</ele>
        <time>2015-04-08T07:50:53Z</time>
      </trkpt>
      <trkpt lat="47.531075002625585" lon="16.473671039566398">
        <ele>266.420000000000016</ele>
        <time>2015-04-08T07:50:54Z</time>
      </trkpt>
      <trkpt lat="47.531048012897372" lon="16.473605995997787">
        <ele>265.939999999999998</ele>
        <time>2015-04-08T07:50:55Z</time>
      </trkpt>
      <trkpt lat="47.531036026775837" lon="16.473533995449543">
        <ele>265.939999999999998</ele>
        <time>2015-04-08T07:50:56Z</time>
      </trkpt>
      <trkpt lat="47.53102102316916" lon="16.473458977416158">
        <ele>265.939999999999998</ele>
        <time>2015-04-08T07:50:57Z</time>
      </trkpt>
      <trkpt lat="47.53100199624896" lon="16.473388988524675">
        <ele>265.939999999999998</ele>
        <time>2015-04-08T07:50:58Z</time>
      </trkpt>
      <trkpt lat="47.53097902983427" lon="16.473320005461574">
        <ele>266.420000000000016</ele>
        <time>2015-04-08T07:50:59Z</time>
      </trkpt>
      <trkpt lat="47.530650962144136" lon="16.472271010279655">
        <ele>266.420000000000016</ele>
        <time>2015-04-08T07:51:13Z</time>
      </trkpt>
      <trkpt lat="47.530262041836977" lon="16.471497025340796">
        <ele>266.420000000000016</ele>
        <time>2015-04-08T07:51:26Z</time>
      </trkpt>
      <trkpt lat="47.529918970540166" lon="16.470550959929824">
        <ele>267.860000000000014</ele>
        <time>2015-04-08T07:51:41Z</time>
      </trkpt>
      <trkpt lat="47.529884018003941" lon="16.470371000468731">
        <ele>266.420000000000016</ele>
        <time>2015-04-08T07:51:44Z</time>
      </trkpt>
      <trkpt lat="47.529735993593931" lon="16.46959500387311">
        <ele>266.899999999999977</ele>
        <time>2015-04-08T07:51:58Z</time>
      </trkpt>
      <trkpt lat="47.529662987217307" lon="16.469210023060441">
        <ele>267.860000000000014</ele>
        <time>2015-04-08T07:52:08Z</time>
      </trkpt>
      <trkpt lat="47.529635997489095" lon="16.469179010018706">
        <ele>267.860000000000014</ele>
        <time>2015-04-08T07:52:09Z</time>
      </trkpt>
      <trkpt lat="47.529610013589263" lon="16.469164006412029">
        <ele>267.379999999999995</ele>
        <time>2015-04-08T07:52:10Z</time>
      </trkpt>
      <trkpt lat="47.529574977234006" lon="16.46916601806879">
        <ele>267.379999999999995</ele>
        <time>2015-04-08T07:52:11Z</time>
      </trkpt>
      <trkpt lat="47.529537007212639" lon="16.469179010018706">
        <ele>267.379999999999995</ele>
        <time>2015-04-08T07:52:12Z</time>
      </trkpt>
      <trkpt lat="47.529499037191272" lon="16.469199964776635">
        <ele>266.899999999999977</ele>
        <time>2015-04-08T07:52:13Z</time>
      </trkpt>
      <trkpt lat="47.529456960037351" lon="16.469225026667118">
        <ele>267.379999999999995</ele>
        <time>2015-04-08T07:52:14Z</time>
      </trkpt>
      <trkpt lat="47.529418990015984" lon="16.469254028052092">
        <ele>266.899999999999977</ele>
        <time>2015-04-08T07:52:15Z</time>
      </trkpt>
      <trkpt lat="47.528697978705168" lon="16.469779992476106">
        <ele>267.379999999999995</ele>
        <time>2015-04-08T07:52:31Z</time>
      </trkpt>
      <trkpt lat="47.528084004297853" lon="16.470259018242359">
        <ele>267.860000000000014</ele>
        <time>2015-04-08T07:52:45Z</time>
      </trkpt>
      <trkpt lat="47.52777898684144" lon="16.470437971875072">
        <ele>267.860000000000014</ele>
        <time>2015-04-08T07:52:51Z</time>
      </trkpt>
      <trkpt lat="47.527720984071493" lon="16.470449035987258">
        <ele>268.829999999999984</ele>
        <time>2015-04-08T07:52:52Z</time>
      </trkpt>
      <trkpt lat="47.527515040710568" lon="16.470479965209961">
        <ele>268.829999999999984</ele>
        <time>2015-04-08T07:52:56Z</time>
      </trkpt>
      <trkpt lat="47.527367016300559" lon="16.470501003786922">
        <ele>269.310000000000002</ele>
        <time>2015-04-08T07:52:59Z</time>
      </trkpt>
      <trkpt lat="47.527316976338625" lon="16.470501003786922">
        <ele>269.310000000000002</ele>
        <time>2015-04-08T07:53:00Z</time>
      </trkpt>
      <trkpt lat="47.52651197835803" lon="16.470808032900095">
        <ele>268.829999999999984</ele>
        <time>2015-04-08T07:53:17Z</time>
      </trkpt>
      <trkpt lat="47.525706980377436" lon="16.471323017030954">
        <ele>267.860000000000014</ele>
        <time>2015-04-08T07:53:33Z</time>
      </trkpt>
      <trkpt lat="47.524901982396841" lon="16.471860967576504">
        <ele>266.420000000000016</ele>
        <time>2015-04-08T07:53:47Z</time>
      </trkpt>
      <trkpt lat="47.52403998747468" lon="16.472647022455931">
        <ele>266.899999999999977</ele>
        <time>2015-04-08T07:54:03Z</time>
      </trkpt>
      <trkpt lat="47.523197019472718" lon="16.473302990198135">
        <ele>265.939999999999998</ele>
        <time>2015-04-08T07:54:19Z</time>
      </trkpt>
      <trkpt lat="47.523151002824306" lon="16.473330985754728">
        <ele>265.939999999999998</ele>
        <time>2015-04-08T07:54:20Z</time>
      </trkpt>
      <trkpt lat="47.523113032802939" lon="16.473369961604476">
        <ele>265.45999999999998</ele>
        <time>2015-04-08T07:54:21Z</time>
      </trkpt>
      <trkpt lat="47.523083025589585" lon="16.473418995738029">
        <ele>266.420000000000016</ele>
        <time>2015-04-08T07:54:22Z</time>
      </trkpt>
      <trkpt lat="47.523067016154528" lon="16.473482027649879">
        <ele>266.420000000000016</ele>
        <time>2015-04-08T07:54:23Z</time>
      </trkpt>
      <trkpt lat="47.52307103946805" lon="16.473546987399459">
        <ele>267.379999999999995</ele>
        <time>2015-04-08T07:54:24Z</time>
      </trkpt>
      <trkpt lat="47.523086965084076" lon="16.473608007654548">
        <ele>268.350000000000023</ele>
        <time>2015-04-08T07:54:25Z</time>
      </trkpt>
      <trkpt lat="47.523109009489417" lon="16.473669027909636">
        <ele>267.379999999999995</ele>
        <time>2015-04-08T07:54:26Z</time>
      </trkpt>
      <trkpt lat="47.523186039179564" lon="16.473889974877238">
        <ele>265.45999999999998</ele>
        <time>2015-04-08T07:54:29Z</time>
      </trkpt>
      <trkpt lat="47.523593986406922" lon="16.474898988381028">
        <ele>264.5</ele>
        <time>2015-04-08T07:54:43Z</time>
      </trkpt>
      <trkpt lat="47.523810993880033" lon="16.475442973896861">
        <ele>264.5</ele>
        <time>2015-04-08T07:54:50Z</time>
      </trkpt>
      <trkpt lat="47.523846030235291" lon="16.475512962788343">
        <ele>264.019999999999982</ele>
        <time>2015-04-08T07:54:51Z</time>
      </trkpt>
      <trkpt lat="47.524440977722406" lon="16.476792963221669">
        <ele>262.579999999999984</ele>
        <time>2015-04-08T07:55:07Z</time>
      </trkpt>
      <trkpt lat="47.524554971605539" lon="16.477084988728166">
        <ele>261.620000000000005</ele>
        <time>2015-04-08T07:55:11Z</time>
      </trkpt>
      <trkpt lat="47.524600988253951" lon="16.477214992046356">
        <ele>262.100000000000023</ele>
        <time>2015-04-08T07:55:13Z</time>
      </trkpt>
      <trkpt lat="47.524627977982163" lon="16.477254973724484">
        <ele>262.100000000000023</ele>
        <time>2015-04-08T07:55:14Z</time>
      </trkpt>
      <trkpt lat="47.524651028215885" lon="16.477296967059374">
        <ele>262.100000000000023</ele>
        <time>2015-04-08T07:55:15Z</time>
      </trkpt>
      <trkpt lat="47.524651028215885" lon="16.47735002450645">
        <ele>261.620000000000005</ele>
        <time>2015-04-08T07:55:16Z</time>
      </trkpt>
      <trkpt lat="47.524635018780828" lon="16.477396041154861">
        <ele>261.620000000000005</ele>
        <time>2015-04-08T07:55:17Z</time>
      </trkpt>
      <trkpt lat="47.524609034880996" lon="16.477434011176229">
        <ele>262.100000000000023</ele>
        <time>2015-04-08T07:55:18Z</time>
      </trkpt>
      <trkpt lat="47.524573998525739" lon="16.477468041703105">
        <ele>262.100000000000023</ele>
        <time>2015-04-08T07:55:19Z</time>
      </trkpt>
      <trkpt lat="47.524539967998862" lon="16.47750299423933">
        <ele>262.100000000000023</ele>
        <time>2015-04-08T07:55:20Z</time>
      </trkpt>
      <trkpt lat="47.524165967479348" lon="16.477856040000916">
        <ele>262.100000000000023</ele>
        <time>2015-04-08T07:55:29Z</time>
      </trkpt>
      <trkpt lat="47.524117017164826" lon="16.477882023900747">
        <ele>261.620000000000005</ele>
        <time>2015-04-08T07:55:30Z</time>
      </trkpt>
      <trkpt lat="47.524063037708402" lon="16.477894010022283">
        <ele>262.100000000000023</ele>
        <time>2015-04-08T07:55:31Z</time>
      </trkpt>
      <trkpt lat="47.523956000804901" lon="16.477907001972198">
        <ele>262.579999999999984</ele>
        <time>2015-04-08T07:55:33Z</time>
      </trkpt>
      <trkpt lat="47.523212023079395" lon="16.478333976119757">
        <ele>263.060000000000002</ele>
        <time>2015-04-08T07:55:48Z</time>
      </trkpt>
      <trkpt lat="47.522784965112805" lon="16.47857503965497">
        <ele>263.060000000000002</ele>
        <time>2015-04-08T07:55:57Z</time>
      </trkpt>
      <trkpt lat="47.522736014798284" lon="16.478606974706054">
        <ele>263.060000000000002</ele>
        <time>2015-04-08T07:55:58Z</time>
      </trkpt>
      <trkpt lat="47.522689998149872" lon="16.478645028546453">
        <ele>262.579999999999984</ele>
        <time>2015-04-08T07:55:59Z</time>
      </trkpt>
      <trkpt lat="47.522350028157234" lon="16.478925989940763">
        <ele>262.100000000000023</ele>
        <time>2015-04-08T07:56:06Z</time>
      </trkpt>
      <trkpt lat="47.521732030436397" lon="16.479409961029887">
        <ele>259.689999999999998</ele>
        <time>2015-04-08T07:56:18Z</time>
      </trkpt>
      <trkpt lat="47.521400023251772" lon="16.479789996519685">
        <ele>260.170000000000016</ele>
        <time>2015-04-08T07:56:24Z</time>
      </trkpt>
      <trkpt lat="47.521343026310205" lon="16.479836013168097">
        <ele>260.649999999999977</ele>
        <time>2015-04-08T07:56:25Z</time>
      </trkpt>
      <trkpt lat="47.521286029368639" lon="16.479869959875941">
        <ele>260.649999999999977</ele>
        <time>2015-04-08T07:56:26Z</time>
      </trkpt>
      <trkpt lat="47.521232971921563" lon="16.479897033423185">
        <ele>261.139999999999986</ele>
        <time>2015-04-08T07:56:27Z</time>
      </trkpt>
      <trkpt lat="47.521178992465138" lon="16.479918994009495">
        <ele>261.620000000000005</ele>
        <time>2015-04-08T07:56:28Z</time>
      </trkpt>
      <trkpt lat="47.520629977807403" lon="16.480201967060566">
        <ele>262.100000000000023</ele>
        <time>2015-04-08T07:56:39Z</time>
      </trkpt>
      <trkpt lat="47.520270980894566" lon="16.480545038357377">
        <ele>261.620000000000005</ele>
        <time>2015-04-08T07:56:46Z</time>
      </trkpt>
      <trkpt lat="47.519450979307294" lon="16.481348024681211">
        <ele>261.620000000000005</ele>
        <time>2015-04-08T07:57:02Z</time>
      </trkpt>
      <trkpt lat="47.518784031271935" lon="16.481905002146959">
        <ele>261.620000000000005</ele>
        <time>2015-04-08T07:57:15Z</time>
      </trkpt>
      <trkpt lat="47.518748994916677" lon="16.481957975775003">
        <ele>261.620000000000005</ele>
        <time>2015-04-08T07:57:16Z</time>
      </trkpt>
      <trkpt lat="47.518718987703323" lon="16.482023019343615">
        <ele>261.139999999999986</ele>
        <time>2015-04-08T07:57:17Z</time>
      </trkpt>
      <trkpt lat="47.518504997715354" lon="16.482520988211036">
        <ele>259.20999999999998</ele>
        <time>2015-04-08T07:57:25Z</time>
      </trkpt>
      <trkpt lat="47.518512960523367" lon="16.482575973495841">
        <ele>259.689999999999998</ele>
        <time>2015-04-08T07:57:26Z</time>
      </trkpt>
      <trkpt lat="47.518527964130044" lon="16.482634982094169">
        <ele>259.20999999999998</ele>
        <time>2015-04-08T07:57:27Z</time>
      </trkpt>
      <trkpt lat="47.51856199465692" lon="16.482798010110855">
        <ele>258.730000000000018</ele>
        <time>2015-04-08T07:57:30Z</time>
      </trkpt>
      <trkpt lat="47.518546991050243" lon="16.482846960425377">
        <ele>258.25</ele>
        <time>2015-04-08T07:57:31Z</time>
      </trkpt>
      <trkpt lat="47.518512960523367" lon="16.482885014265776">
        <ele>258.25</ele>
        <time>2015-04-08T07:57:32Z</time>
      </trkpt>
      <trkpt lat="47.517924970015883" lon="16.483507035300136">
        <ele>258.25</ele>
        <time>2015-04-08T07:57:45Z</time>
      </trkpt>
      <trkpt lat="47.517818016931415" lon="16.483600996434689">
        <ele>257.769999999999982</ele>
        <time>2015-04-08T07:57:47Z</time>
      </trkpt>
      <trkpt lat="47.517138998955488" lon="16.484231986105442">
        <ele>257.29000000000002</ele>
        <time>2015-04-08T07:58:00Z</time>
      </trkpt>
      <trkpt lat="47.516384040936828" lon="16.484992979094386">
        <ele>257.29000000000002</ele>
        <time>2015-04-08T07:58:15Z</time>
      </trkpt>
      <trkpt lat="47.516220007091761" lon="16.485106972977519">
        <ele>256.810000000000002</ele>
        <time>2015-04-08T07:58:18Z</time>
      </trkpt>
      <trkpt lat="47.516067959368229" lon="16.485209986567497">
        <ele>256.810000000000002</ele>
        <time>2015-04-08T07:58:21Z</time>
      </trkpt>
      <trkpt lat="47.515980033203959" lon="16.485307971015573">
        <ele>256.810000000000002</ele>
        <time>2015-04-08T07:58:23Z</time>
      </trkpt>
      <trkpt lat="47.515941979363561" lon="16.4853669796139">
        <ele>256.810000000000002</ele>
        <time>2015-04-08T07:58:24Z</time>
      </trkpt>
      <trkpt lat="47.515862016007304" lon="16.485487008467317">
        <ele>256.810000000000002</ele>
        <time>2015-04-08T07:58:26Z</time>
      </trkpt>
      <trkpt lat="47.515820022672415" lon="16.4855379704386">
        <ele>256.810000000000002</ele>
        <time>2015-04-08T07:58:27Z</time>
      </trkpt>
      <trkpt lat="47.515774006024003" lon="16.48558197543025">
        <ele>256.810000000000002</ele>
        <time>2015-04-08T07:58:28Z</time>
      </trkpt>
      <trkpt lat="47.515723966062069" lon="16.485619023442268">
        <ele>257.29000000000002</ele>
        <time>2015-04-08T07:58:29Z</time>
      </trkpt>
      <trkpt lat="47.515675015747547" lon="16.485647018998861">
        <ele>256.810000000000002</ele>
        <time>2015-04-08T07:58:30Z</time>
      </trkpt>
      <trkpt lat="47.515624975785613" lon="16.485676020383835">
        <ele>256.810000000000002</ele>
        <time>2015-04-08T07:58:31Z</time>
      </trkpt>
      <trkpt lat="47.515578959137201" lon="16.48570996709168">
        <ele>256.810000000000002</ele>
        <time>2015-04-08T07:58:32Z</time>
      </trkpt>
      <trkpt lat="47.515536965802312" lon="16.48575003258884">
        <ele>256.810000000000002</ele>
        <time>2015-04-08T07:58:33Z</time>
      </trkpt>
      <trkpt lat="47.515285005792975" lon="16.485940972343087">
        <ele>256.810000000000002</ele>
        <time>2015-04-08T07:58:38Z</time>
      </trkpt>
      <trkpt lat="47.515235971659422" lon="16.485991012305021">
        <ele>256.810000000000002</ele>
        <time>2015-04-08T07:58:39Z</time>
      </trkpt>
      <trkpt lat="47.51458402723074" lon="16.486712023615837">
        <ele>256.329999999999984</ele>
        <time>2015-04-08T07:58:53Z</time>
      </trkpt>
      <trkpt lat="47.514533987268806" lon="16.48676298558712">
        <ele>255.849999999999994</ele>
        <time>2015-04-08T07:58:54Z</time>
      </trkpt>
      <trkpt lat="47.514481013640761" lon="16.486799027770758">
        <ele>255.849999999999994</ele>
        <time>2015-04-08T07:58:55Z</time>
      </trkpt>
      <trkpt lat="47.514378000050783" lon="16.486861975863576">
        <ele>255.849999999999994</ele>
        <time>2015-04-08T07:58:57Z</time>
      </trkpt>
      <trkpt lat="47.514053033664823" lon="16.487158024683595">
        <ele>256.329999999999984</ele>
        <time>2015-04-08T07:59:04Z</time>
      </trkpt>
      <trkpt lat="47.513836026191711" lon="16.487437980249524">
        <ele>255.849999999999994</ele>
        <time>2015-04-08T07:59:09Z</time>
      </trkpt>
      <trkpt lat="47.513760002329946" lon="16.487554991617799">
        <ele>255.849999999999994</ele>
        <time>2015-04-08T07:59:11Z</time>
      </trkpt>
      <trkpt lat="47.51359898597002" lon="16.487752972170711">
        <ele>255.370000000000005</ele>
        <time>2015-04-08T07:59:15Z</time>
      </trkpt>
      <trkpt lat="47.513553975149989" lon="16.487789014354348">
        <ele>255.370000000000005</ele>
        <time>2015-04-08T07:59:16Z</time>
      </trkpt>
      <trkpt lat="47.513462025672197" lon="16.487865038216114">
        <ele>255.849999999999994</ele>
        <time>2015-04-08T07:59:18Z</time>
      </trkpt>
      <trkpt lat="47.513423971831799" lon="16.487925974652171">
        <ele>255.370000000000005</ele>
        <time>2015-04-08T07:59:19Z</time>
      </trkpt>
      <trkpt lat="47.513396982103586" lon="16.488000992685556">
        <ele>255.849999999999994</ele>
        <time>2015-04-08T07:59:20Z</time>
      </trkpt>
      <trkpt lat="47.513386001810431" lon="16.488079028204083">
        <ele>255.849999999999994</ele>
        <time>2015-04-08T07:59:21Z</time>
      </trkpt>
      <trkpt lat="47.513386001810431" lon="16.488156979903579">
        <ele>255.849999999999994</ele>
        <time>2015-04-08T07:59:22Z</time>
      </trkpt>
      <trkpt lat="47.513386001810431" lon="16.488321013748646">
        <ele>255.849999999999994</ele>
        <time>2015-04-08T07:59:24Z</time>
      </trkpt>
      <trkpt lat="47.513392958790064" lon="16.488495022058487">
        <ele>255.370000000000005</ele>
        <time>2015-04-08T07:59:26Z</time>
      </trkpt>
      <trkpt lat="47.513386001810431" lon="16.488579008728266">
        <ele>255.370000000000005</ele>
        <time>2015-04-08T07:59:27Z</time>
      </trkpt>
      <trkpt lat="47.513363035395741" lon="16.488656960427761">
        <ele>255.849999999999994</ele>
        <time>2015-04-08T07:59:28Z</time>
      </trkpt>
      <trkpt lat="47.513329004868865" lon="16.488728038966656">
        <ele>255.370000000000005</ele>
        <time>2015-04-08T07:59:29Z</time>
      </trkpt>
      <trkpt lat="47.513290029019117" lon="16.488790987059474">
        <ele>255.370000000000005</ele>
        <time>2015-04-08T07:59:30Z</time>
      </trkpt>
      <trkpt lat="47.513251975178719" lon="16.488849995657802">
        <ele>255.370000000000005</ele>
        <time>2015-04-08T07:59:31Z</time>
      </trkpt>
      <trkpt lat="47.513179974630475" lon="16.488970024511218">
        <ele>255.849999999999994</ele>
        <time>2015-04-08T07:59:33Z</time>
      </trkpt>
      <trkpt lat="47.51314896158874" lon="16.489042025059462">
        <ele>255.370000000000005</ele>
        <time>2015-04-08T07:59:34Z</time>
      </trkpt>
      <trkpt lat="47.513068998232484" lon="16.489273030310869">
        <ele>255.849999999999994</ele>
        <time>2015-04-08T07:59:37Z</time>
      </trkpt>
      <trkpt lat="47.513000015169382" lon="16.489524990320206">
        <ele>255.370000000000005</ele>
        <time>2015-04-08T07:59:40Z</time>
      </trkpt>
      <trkpt lat="47.512970007956028" lon="16.489603025838733">
        <ele>254.889999999999986</ele>
        <time>2015-04-08T07:59:41Z</time>
      </trkpt>
      <trkpt lat="47.512829024344683" lon="16.489909971132874">
        <ele>254.409999999999997</ele>
        <time>2015-04-08T07:59:45Z</time>
      </trkpt>
      <trkpt lat="47.51280203461647" lon="16.489997981116176">
        <ele>255.370000000000005</ele>
        <time>2015-04-08T07:59:46Z</time>
      </trkpt>
      <trkpt lat="47.512787031009793" lon="16.49009102024138">
        <ele>254.889999999999986</ele>
        <time>2015-04-08T07:59:47Z</time>
      </trkpt>
      <trkpt lat="47.512745037674904" lon="16.490460997447371">
        <ele>254.409999999999997</ele>
        <time>2015-04-08T07:59:51Z</time>
      </trkpt>
      <trkpt lat="47.51271796412766" lon="16.490538027137518">
        <ele>254.889999999999986</ele>
        <time>2015-04-08T07:59:52Z</time>
      </trkpt>
      <trkpt lat="47.51263003796339" lon="16.490765009075403">
        <ele>254.409999999999997</ele>
        <time>2015-04-08T07:59:55Z</time>
      </trkpt>
      <trkpt lat="47.512611011043191" lon="16.490848995745182">
        <ele>254.409999999999997</ele>
        <time>2015-04-08T07:59:56Z</time>
      </trkpt>
      <trkpt lat="47.512600030750036" lon="16.490938011556864">
        <ele>254.409999999999997</ele>
        <time>2015-04-08T07:59:57Z</time>
      </trkpt>
      <trkpt lat="47.512585027143359" lon="16.491310000419617">
        <ele>254.889999999999986</ele>
        <time>2015-04-08T08:00:01Z</time>
      </trkpt>
      <trkpt lat="47.512573041021824" lon="16.491400022059679">
        <ele>254.409999999999997</ele>
        <time>2015-04-08T08:00:02Z</time>
      </trkpt>
      <trkpt lat="47.512519983574748" lon="16.491647958755493">
        <ele>254.409999999999997</ele>
        <time>2015-04-08T08:00:05Z</time>
      </trkpt>
      <trkpt lat="47.512470027431846" lon="16.491794977337122">
        <ele>253.930000000000007</ele>
        <time>2015-04-08T08:00:07Z</time>
      </trkpt>
      <trkpt lat="47.512435996904969" lon="16.491858009248972">
        <ele>254.409999999999997</ele>
        <time>2015-04-08T08:00:08Z</time>
      </trkpt>
      <trkpt lat="47.51239400357008" lon="16.491906959563494">
        <ele>254.409999999999997</ele>
        <time>2015-04-08T08:00:09Z</time>
      </trkpt>
      <trkpt lat="47.512341029942036" lon="16.49194099009037">
        <ele>254.889999999999986</ele>
        <time>2015-04-08T08:00:10Z</time>
      </trkpt>
      <trkpt lat="47.512290989980102" lon="16.491972003132105">
        <ele>254.409999999999997</ele>
        <time>2015-04-08T08:00:11Z</time>
      </trkpt>
      <trkpt lat="47.511864015832543" lon="16.492270985618234">
        <ele>254.409999999999997</ele>
        <time>2015-04-08T08:00:19Z</time>
      </trkpt>
      <trkpt lat="47.511776005849242" lon="16.492383973672986">
        <ele>254.409999999999997</ele>
        <time>2015-04-08T08:00:21Z</time>
      </trkpt>
      <trkpt lat="47.511725965887308" lon="16.492427978664637">
        <ele>254.409999999999997</ele>
        <time>2015-04-08T08:00:22Z</time>
      </trkpt>
      <trkpt lat="47.511485991999507" lon="16.492654960602522">
        <ele>253.930000000000007</ele>
        <time>2015-04-08T08:00:27Z</time>
      </trkpt>
      <trkpt lat="47.511451961472631" lon="16.492715980857611">
        <ele>254.409999999999997</ele>
        <time>2015-04-08T08:00:28Z</time>
      </trkpt>
      <trkpt lat="47.51142899505794" lon="16.492784963920712">
        <ele>253.930000000000007</ele>
        <time>2015-04-08T08:00:29Z</time>
      </trkpt>
      <trkpt lat="47.511371998116374" lon="16.492922008037567">
        <ele>253.930000000000007</ele>
        <time>2015-04-08T08:00:31Z</time>
      </trkpt>
      <trkpt lat="47.511330004781485" lon="16.492974981665611">
        <ele>253.930000000000007</ele>
        <time>2015-04-08T08:00:32Z</time>
      </trkpt>
      <trkpt lat="47.511279964819551" lon="16.49301496334374">
        <ele>254.409999999999997</ele>
        <time>2015-04-08T08:00:33Z</time>
      </trkpt>
      <trkpt lat="47.511230008676648" lon="16.493047988042235">
        <ele>253.930000000000007</ele>
        <time>2015-04-08T08:00:34Z</time>
      </trkpt>
      <trkpt lat="47.511177035048604" lon="16.493075983598828">
        <ele>253.930000000000007</ele>
        <time>2015-04-08T08:00:35Z</time>
      </trkpt>
      <trkpt lat="47.51112699508667" lon="16.493106996640563">
        <ele>253.930000000000007</ele>
        <time>2015-04-08T08:00:36Z</time>
      </trkpt>
      <trkpt lat="47.511081984266639" lon="16.49314496666193">
        <ele>253.930000000000007</ele>
        <time>2015-04-08T08:00:37Z</time>
      </trkpt>
      <trkpt lat="47.511035967618227" lon="16.493192994967103">
        <ele>253.439999999999998</ele>
        <time>2015-04-08T08:00:38Z</time>
      </trkpt>
      <trkpt lat="47.510993974283338" lon="16.493244040757418">
        <ele>253.930000000000007</ele>
        <time>2015-04-08T08:00:39Z</time>
      </trkpt>
      <trkpt lat="47.510956004261971" lon="16.493301037698984">
        <ele>253.439999999999998</ele>
        <time>2015-04-08T08:00:40Z</time>
      </trkpt>
      <trkpt lat="47.510577980428934" lon="16.493860026821494">
        <ele>252.960000000000008</ele>
        <time>2015-04-08T08:00:49Z</time>
      </trkpt>
      <trkpt lat="47.510508997365832" lon="16.493977038189769">
        <ele>252.960000000000008</ele>
        <time>2015-04-08T08:00:51Z</time>
      </trkpt>
      <trkpt lat="47.510471027344465" lon="16.494023976847529">
        <ele>252.960000000000008</ele>
        <time>2015-04-08T08:00:52Z</time>
      </trkpt>
      <trkpt lat="47.510426016524434" lon="16.494065970182419">
        <ele>252.960000000000008</ele>
        <time>2015-04-08T08:00:53Z</time>
      </trkpt>
      <trkpt lat="47.5103759765625" lon="16.494101006537676">
        <ele>252.960000000000008</ele>
        <time>2015-04-08T08:00:54Z</time>
      </trkpt>
      <trkpt lat="47.510326020419598" lon="16.49413101375103">
        <ele>252.960000000000008</ele>
        <time>2015-04-08T08:00:55Z</time>
      </trkpt>
      <trkpt lat="47.510276986286044" lon="16.494164038449526">
        <ele>252.960000000000008</ele>
        <time>2015-04-08T08:00:56Z</time>
      </trkpt>
      <trkpt lat="47.510227030143142" lon="16.494202008470893">
        <ele>252.960000000000008</ele>
        <time>2015-04-08T08:00:57Z</time>
      </trkpt>
      <trkpt lat="47.51018101349473" lon="16.494249030947685">
        <ele>253.439999999999998</ele>
        <time>2015-04-08T08:00:58Z</time>
      </trkpt>
      <trkpt lat="47.510016979649663" lon="16.4944520406425">
        <ele>252.960000000000008</ele>
        <time>2015-04-08T08:01:02Z</time>
      </trkpt>
      <trkpt lat="47.509823022410274" lon="16.494751023128629">
        <ele>252.47999999999999</ele>
        <time>2015-04-08T08:01:07Z</time>
      </trkpt>
      <trkpt lat="47.509781029075384" lon="16.49479896761477">
        <ele>252.47999999999999</ele>
        <time>2015-04-08T08:01:08Z</time>
      </trkpt>
      <trkpt lat="47.509726965799928" lon="16.494832998141646">
        <ele>252.960000000000008</ele>
        <time>2015-04-08T08:01:09Z</time>
      </trkpt>
      <trkpt lat="47.509673992171884" lon="16.494859987869859">
        <ele>252.960000000000008</ele>
        <time>2015-04-08T08:01:10Z</time>
      </trkpt>
      <trkpt lat="47.509621018543839" lon="16.49488303810358">
        <ele>252.960000000000008</ele>
        <time>2015-04-08T08:01:11Z</time>
      </trkpt>
      <trkpt lat="47.509563015773892" lon="16.494898041710258">
        <ele>252.47999999999999</ele>
        <time>2015-04-08T08:01:12Z</time>
      </trkpt>
      <trkpt lat="47.509509958326817" lon="16.494907010346651">
        <ele>252.47999999999999</ele>
        <time>2015-04-08T08:01:13Z</time>
      </trkpt>
      <trkpt lat="47.50945296138525" lon="16.494911033660173">
        <ele>252.47999999999999</ele>
        <time>2015-04-08T08:01:14Z</time>
      </trkpt>
      <trkpt lat="47.509398981928825" lon="16.494914973154664">
        <ele>252.47999999999999</ele>
        <time>2015-04-08T08:01:15Z</time>
      </trkpt>
      <trkpt lat="47.509350031614304" lon="16.494931988418102">
        <ele>252.47999999999999</ele>
        <time>2015-04-08T08:01:16Z</time>
      </trkpt>
      <trkpt lat="47.509311977773905" lon="16.494967024773359">
        <ele>252.47999999999999</ele>
        <time>2015-04-08T08:01:17Z</time>
      </trkpt>
      <trkpt lat="47.509274007752538" lon="16.495019998401403">
        <ele>252.47999999999999</ele>
        <time>2015-04-08T08:01:18Z</time>
      </trkpt>
      <trkpt lat="47.509247018024325" lon="16.495081018656492">
        <ele>252.47999999999999</ele>
        <time>2015-04-08T08:01:19Z</time>
      </trkpt>
      <trkpt lat="47.509223967790604" lon="16.495147990062833">
        <ele>252</ele>
        <time>2015-04-08T08:01:20Z</time>
      </trkpt>
      <trkpt lat="47.50912900082767" lon="16.495426017791033">
        <ele>252</ele>
        <time>2015-04-08T08:01:24Z</time>
      </trkpt>
      <trkpt lat="47.509090024977922" lon="16.495487038046122">
        <ele>252</ele>
        <time>2015-04-08T08:01:25Z</time>
      </trkpt>
      <trkpt lat="47.509040990844369" lon="16.495536994189024">
        <ele>252</ele>
        <time>2015-04-08T08:01:26Z</time>
      </trkpt>
      <trkpt lat="47.508987011387944" lon="16.495574964210391">
        <ele>251.52000000000001</ele>
        <time>2015-04-08T08:01:27Z</time>
      </trkpt>
      <trkpt lat="47.508937977254391" lon="16.495611006394029">
        <ele>251.52000000000001</ele>
        <time>2015-04-08T08:01:28Z</time>
      </trkpt>
      <trkpt lat="47.508888021111488" lon="16.495655011385679">
        <ele>251.52000000000001</ele>
        <time>2015-04-08T08:01:29Z</time>
      </trkpt>
      <trkpt lat="47.508838986977935" lon="16.495706979185343">
        <ele>252</ele>
        <time>2015-04-08T08:01:30Z</time>
      </trkpt>
      <trkpt lat="47.508796993643045" lon="16.49576598778367">
        <ele>252</ele>
        <time>2015-04-08T08:01:31Z</time>
      </trkpt>
      <trkpt lat="47.508681993931532" lon="16.495972014963627">
        <ele>251.52000000000001</ele>
        <time>2015-04-08T08:01:34Z</time>
      </trkpt>
      <trkpt lat="47.508583003655076" lon="16.496174018830061">
        <ele>252</ele>
        <time>2015-04-08T08:01:37Z</time>
      </trkpt>
      <trkpt lat="47.50835401006043" lon="16.496519017964602">
        <ele>251.52000000000001</ele>
        <time>2015-04-08T08:01:43Z</time>
      </trkpt>
      <trkpt lat="47.508327020332217" lon="16.496590012684464">
        <ele>251.52000000000001</ele>
        <time>2015-04-08T08:01:44Z</time>
      </trkpt>
      <trkpt lat="47.508307993412018" lon="16.49666603654623">
        <ele>251.52000000000001</ele>
        <time>2015-04-08T08:01:45Z</time>
      </trkpt>
      <trkpt lat="47.508292989805341" lon="16.496748011559248">
        <ele>251.52000000000001</ele>
        <time>2015-04-08T08:01:46Z</time>
      </trkpt>
      <trkpt lat="47.508282009512186" lon="16.496831998229027">
        <ele>251.039999999999992</ele>
        <time>2015-04-08T08:01:47Z</time>
      </trkpt>
      <trkpt lat="47.508255019783974" lon="16.497007012367249">
        <ele>251.52000000000001</ele>
        <time>2015-04-08T08:01:49Z</time>
      </trkpt>
      <trkpt lat="47.508235992863774" lon="16.497086975723505">
        <ele>251.039999999999992</ele>
        <time>2015-04-08T08:01:50Z</time>
      </trkpt>
      <trkpt lat="47.50820497982204" lon="16.497159982100129">
        <ele>251.039999999999992</ele>
        <time>2015-04-08T08:01:51Z</time>
      </trkpt>
      <trkpt lat="47.50816298648715" lon="16.497214967384934">
        <ele>251.039999999999992</ele>
        <time>2015-04-08T08:01:52Z</time>
      </trkpt>
      <trkpt lat="47.50805301591754" lon="16.497258972376585">
        <ele>251.52000000000001</ele>
        <time>2015-04-08T08:01:54Z</time>
      </trkpt>
      <trkpt lat="47.507996018975973" lon="16.497255032882094">
        <ele>251.039999999999992</ele>
        <time>2015-04-08T08:01:55Z</time>
      </trkpt>
      <trkpt lat="47.507942039519548" lon="16.497253021225333">
        <ele>251.039999999999992</ele>
        <time>2015-04-08T08:01:56Z</time>
      </trkpt>
      <trkpt lat="47.50788495875895" lon="16.49726701900363">
        <ele>251.039999999999992</ele>
        <time>2015-04-08T08:01:57Z</time>
      </trkpt>
      <trkpt lat="47.50783902592957" lon="16.497300965711474">
        <ele>251.52000000000001</ele>
        <time>2015-04-08T08:01:58Z</time>
      </trkpt>
      <trkpt lat="47.507797032594681" lon="16.49735301733017">
        <ele>251.52000000000001</ele>
        <time>2015-04-08T08:01:59Z</time>
      </trkpt>
      <trkpt lat="47.507758978754282" lon="16.497415965422988">
        <ele>251.52000000000001</ele>
        <time>2015-04-08T08:02:00Z</time>
      </trkpt>
      <trkpt lat="47.507721008732915" lon="16.49748201481998">
        <ele>251.039999999999992</ele>
        <time>2015-04-08T08:02:01Z</time>
      </trkpt>
      <trkpt lat="47.507450021803379" lon="16.497917035594583">
        <ele>250.560000000000002</ele>
        <time>2015-04-08T08:02:08Z</time>
      </trkpt>
      <trkpt lat="47.50740802846849" lon="16.497969003394246">
        <ele>250.560000000000002</ele>
        <time>2015-04-08T08:02:09Z</time>
      </trkpt>
      <trkpt lat="47.507068980485201" lon="16.498377034440637">
        <ele>250.560000000000002</ele>
        <time>2015-04-08T08:02:17Z</time>
      </trkpt>
      <trkpt lat="47.506886003538966" lon="16.498703006654978">
        <ele>250.560000000000002</ele>
        <time>2015-04-08T08:02:22Z</time>
      </trkpt>
      <trkpt lat="47.506802016869187" lon="16.498813983052969">
        <ele>250.560000000000002</ele>
        <time>2015-04-08T08:02:24Z</time>
      </trkpt>
      <trkpt lat="47.506756000220776" lon="16.498865028843284">
        <ele>250.560000000000002</ele>
        <time>2015-04-08T08:02:25Z</time>
      </trkpt>
      <trkpt lat="47.506676036864519" lon="16.498978016898036">
        <ele>250.080000000000013</ele>
        <time>2015-04-08T08:02:27Z</time>
      </trkpt>
      <trkpt lat="47.506054015830159" lon="16.499701039865613">
        <ele>249.599999999999994</ele>
        <time>2015-04-08T08:02:42Z</time>
      </trkpt>
      <trkpt lat="47.50601202249527" lon="16.499730963259935">
        <ele>249.599999999999994</ele>
        <time>2015-04-08T08:02:43Z</time>
      </trkpt>
      <trkpt lat="47.50597002916038" lon="16.499745966866612">
        <ele>250.080000000000013</ele>
        <time>2015-04-08T08:02:44Z</time>
      </trkpt>
      <trkpt lat="47.505931975319982" lon="16.499732974916697">
        <ele>250.080000000000013</ele>
        <time>2015-04-08T08:02:45Z</time>
      </trkpt>
      <trkpt lat="47.505900962278247" lon="16.499690981581807">
        <ele>250.080000000000013</ele>
        <time>2015-04-08T08:02:46Z</time>
      </trkpt>
      <trkpt lat="47.505874978378415" lon="16.499640019610524">
        <ele>250.080000000000013</ele>
        <time>2015-04-08T08:02:47Z</time>
      </trkpt>
      <trkpt lat="47.505847988650203" lon="16.499586040154099">
        <ele>250.080000000000013</ele>
        <time>2015-04-08T08:02:48Z</time>
      </trkpt>
      <trkpt lat="47.50582099892199" lon="16.499534994363785">
        <ele>250.560000000000002</ele>
        <time>2015-04-08T08:02:49Z</time>
      </trkpt>
      <trkpt lat="47.505790991708636" lon="16.499483026564121">
        <ele>250.560000000000002</ele>
        <time>2015-04-08T08:02:50Z</time>
      </trkpt>
      <trkpt lat="47.505764001980424" lon="16.499426029622555">
        <ele>250.080000000000013</ele>
        <time>2015-04-08T08:02:51Z</time>
      </trkpt>
      <trkpt lat="47.505680015310645" lon="16.499268030747771">
        <ele>251.039999999999992</ele>
        <time>2015-04-08T08:02:54Z</time>
      </trkpt>
      <trkpt lat="47.505656965076923" lon="16.499224025756121">
        <ele>251.039999999999992</ele>
        <time>2015-04-08T08:02:55Z</time>
      </trkpt>
      <trkpt lat="47.505629975348711" lon="16.499185971915722">
        <ele>250.560000000000002</ele>
        <time>2015-04-08T08:02:56Z</time>
      </trkpt>
      <trkpt lat="47.50537097454071" lon="16.498988997191191">
        <ele>251.52000000000001</ele>
        <time>2015-04-08T08:03:04Z</time>
      </trkpt>
      <trkpt lat="47.505337027832866" lon="16.499013975262642">
        <ele>252.960000000000008</ele>
        <time>2015-04-08T08:03:05Z</time>
      </trkpt>
      <trkpt lat="47.505301991477609" lon="16.499043982475996">
        <ele>252.47999999999999</ele>
        <time>2015-04-08T08:03:06Z</time>
      </trkpt>
      <trkpt lat="47.505267960950732" lon="16.499082958325744">
        <ele>252</ele>
        <time>2015-04-08T08:03:07Z</time>
      </trkpt>
      <trkpt lat="47.505229990929365" lon="16.499129980802536">
        <ele>252</ele>
        <time>2015-04-08T08:03:08Z</time>
      </trkpt>
      <trkpt lat="47.505051037296653" lon="16.499387975782156">
        <ele>252.47999999999999</ele>
        <time>2015-04-08T08:03:13Z</time>
      </trkpt>
      <trkpt lat="47.504963027313352" lon="16.499537006020546">
        <ele>252.960000000000008</ele>
        <time>2015-04-08T08:03:16Z</time>
      </trkpt>
      <trkpt lat="47.504928996786475" lon="16.499574976041913">
        <ele>252.960000000000008</ele>
        <time>2015-04-08T08:03:17Z</time>
      </trkpt>
      <trkpt lat="47.504893960431218" lon="16.499611018225551">
        <ele>252.960000000000008</ele>
        <time>2015-04-08T08:03:18Z</time>
      </trkpt>
      <trkpt lat="47.504855990409851" lon="16.499650999903679">
        <ele>252.47999999999999</ele>
        <time>2015-04-08T08:03:19Z</time>
      </trkpt>
      <trkpt lat="47.504821959882975" lon="16.499695004895329">
        <ele>252.47999999999999</ele>
        <time>2015-04-08T08:03:20Z</time>
      </trkpt>
      <trkpt lat="47.504787007346749" lon="16.499734986573458">
        <ele>252.960000000000008</ele>
        <time>2015-04-08T08:03:21Z</time>
      </trkpt>
      <trkpt lat="47.504203962162137" lon="16.500352984294295">
        <ele>252.47999999999999</ele>
        <time>2015-04-08T08:03:35Z</time>
      </trkpt>
      <trkpt lat="47.503562998026609" lon="16.501069972291589">
        <ele>251.039999999999992</ele>
        <time>2015-04-08T08:03:50Z</time>
      </trkpt>
      <trkpt lat="47.503528967499733" lon="16.501126969233155">
        <ele>250.560000000000002</ele>
        <time>2015-04-08T08:03:51Z</time>
      </trkpt>
      <trkpt lat="47.503391001373529" lon="16.501453025266528">
        <ele>250.080000000000013</ele>
        <time>2015-04-08T08:03:56Z</time>
      </trkpt>
      <trkpt lat="47.503386978060007" lon="16.501531982794404">
        <ele>250.080000000000013</ele>
        <time>2015-04-08T08:03:57Z</time>
      </trkpt>
      <trkpt lat="47.503395024687052" lon="16.501614041626453">
        <ele>250.080000000000013</ele>
        <time>2015-04-08T08:03:58Z</time>
      </trkpt>
      <trkpt lat="47.503444980829954" lon="16.502342009916902">
        <ele>248.159999999999997</ele>
        <time>2015-04-08T08:04:06Z</time>
      </trkpt>
      <trkpt lat="47.503432994708419" lon="16.502430019900203">
        <ele>248.159999999999997</ele>
        <time>2015-04-08T08:04:07Z</time>
      </trkpt>
      <trkpt lat="47.503391001373529" lon="16.502590030431747">
        <ele>248.159999999999997</ele>
        <time>2015-04-08T08:04:09Z</time>
      </trkpt>
      <trkpt lat="47.503365017473698" lon="16.502663036808372">
        <ele>248.159999999999997</ele>
        <time>2015-04-08T08:04:10Z</time>
      </trkpt>
      <trkpt lat="47.503097970038652" lon="16.503173997625709">
        <ele>247.680000000000007</ele>
        <time>2015-04-08T08:04:18Z</time>
      </trkpt>
      <trkpt lat="47.503033010289073" lon="16.503309030085802">
        <ele>248.159999999999997</ele>
        <time>2015-04-08T08:04:20Z</time>
      </trkpt>
      <trkpt lat="47.503009960055351" lon="16.503380024805665">
        <ele>248.159999999999997</ele>
        <time>2015-04-08T08:04:21Z</time>
      </trkpt>
      <trkpt lat="47.502964027225971" lon="16.503511033952236">
        <ele>247.680000000000007</ele>
        <time>2015-04-08T08:04:23Z</time>
      </trkpt>
      <trkpt lat="47.502929996699095" lon="16.503538023680449">
        <ele>247.199999999999989</ele>
        <time>2015-04-08T08:04:24Z</time>
      </trkpt>
      <trkpt lat="47.502892026677728" lon="16.503531988710165">
        <ele>246.719999999999999</ele>
        <time>2015-04-08T08:04:25Z</time>
      </trkpt>
      <trkpt lat="47.502865036949515" lon="16.503497958183289">
        <ele>247.680000000000007</ele>
        <time>2015-04-08T08:04:26Z</time>
      </trkpt>
      <trkpt lat="47.502852967008948" lon="16.503461999818683">
        <ele>247.680000000000007</ele>
        <time>2015-04-08T08:04:27Z</time>
      </trkpt>
      <trkpt lat="47.502852967008948" lon="16.503428975120187">
        <ele>248.159999999999997</ele>
        <time>2015-04-08T08:04:28Z</time>
      </trkpt>
      <trkpt lat="47.502852967008948" lon="16.503398967906833">
        <ele>248.159999999999997</ele>
        <time>2015-04-08T08:04:29Z</time>
      </trkpt>
      <trkpt lat="47.502852967008948" lon="16.503369966521859">
        <ele>249.120000000000005</ele>
        <time>2015-04-08T08:04:30Z</time>
      </trkpt>
      <trkpt lat="47.502841986715794" lon="16.503347000107169">
        <ele>248.639999999999986</ele>
        <time>2015-04-08T08:04:31Z</time>
      </trkpt>
      <trkpt lat="47.502826983109117" lon="16.503319004550576">
        <ele>250.080000000000013</ele>
        <time>2015-04-08T08:04:35Z</time>
      </trkpt>
      <trkpt lat="47.502814996987581" lon="16.503283968195319">
        <ele>250.560000000000002</ele>
        <time>2015-04-08T08:04:37Z</time>
      </trkpt>
      <trkpt lat="47.502819020301104" lon="16.50324197486043">
        <ele>250.560000000000002</ele>
        <time>2015-04-08T08:04:39Z</time>
      </trkpt>
      <trkpt lat="47.502819020301104" lon="16.503213979303837">
        <ele>251.039999999999992</ele>
        <time>2015-04-08T08:04:40Z</time>
      </trkpt>
      <trkpt lat="47.502814996987581" lon="16.503184977918863">
        <ele>251.52000000000001</ele>
        <time>2015-04-08T08:04:41Z</time>
      </trkpt>
      <trkpt lat="47.502814996987581" lon="16.50315698236227">
        <ele>251.039999999999992</ele>
        <time>2015-04-08T08:04:42Z</time>
      </trkpt>
      <trkpt lat="47.502808040007949" lon="16.503127980977297">
        <ele>251.039999999999992</ele>
        <time>2015-04-08T08:04:43Z</time>
      </trkpt>
      <trkpt lat="47.502799993380904" lon="16.503097973763943">
        <ele>251.52000000000001</ele>
        <time>2015-04-08T08:04:44Z</time>
      </trkpt>
      <trkpt lat="47.502795970067382" lon="16.503063021227717">
        <ele>251.52000000000001</ele>
        <time>2015-04-08T08:04:45Z</time>
      </trkpt>
      <trkpt lat="47.502792030572891" lon="16.503028990700841">
        <ele>252</ele>
        <time>2015-04-08T08:04:46Z</time>
      </trkpt>
      <trkpt lat="47.502789013087749" lon="16.502997977659106">
        <ele>252</ele>
        <time>2015-04-08T08:04:47Z</time>
      </trkpt>
      <trkpt lat="47.502789013087749" lon="16.502969982102513">
        <ele>252.47999999999999</ele>
        <time>2015-04-08T08:04:48Z</time>
      </trkpt>
      <trkpt lat="47.502792030572891" lon="16.502942992374301">
        <ele>252.47999999999999</ele>
        <time>2015-04-08T08:04:49Z</time>
      </trkpt>
      <trkpt lat="47.502804016694427" lon="16.502920025959611">
        <ele>252.47999999999999</ele>
        <time>2015-04-08T08:04:50Z</time>
      </trkpt>
      <trkpt lat="47.502819020301104" lon="16.50289898738265">
        <ele>253.439999999999998</ele>
        <time>2015-04-08T08:04:51Z</time>
      </trkpt>
      <trkpt lat="47.503067040815949" lon="16.502548037096858">
        <ele>253.439999999999998</ele>
        <time>2015-04-08T08:05:03Z</time>
      </trkpt>
      <trkpt lat="47.503105010837317" lon="16.502492967993021">
        <ele>253.439999999999998</ele>
        <time>2015-04-08T08:05:05Z</time>
      </trkpt>
      <trkpt lat="47.503120014443994" lon="16.502465978264809">
        <ele>253.439999999999998</ele>
        <time>2015-04-08T08:05:06Z</time>
      </trkpt>
      <trkpt lat="47.503136023879051" lon="16.502441000193357">
        <ele>254.409999999999997</ele>
        <time>2015-04-08T08:05:07Z</time>
      </trkpt>
      <trkpt lat="47.503147004172206" lon="16.502408981323242">
        <ele>253.930000000000007</ele>
        <time>2015-04-08T08:05:08Z</time>
      </trkpt>
      <trkpt lat="47.503158990293741" lon="16.502376962453127">
        <ele>253.439999999999998</ele>
        <time>2015-04-08T08:05:09Z</time>
      </trkpt>
      <trkpt lat="47.503158990293741" lon="16.502172024920583">
        <ele>256.329999999999984</ele>
        <time>2015-04-08T08:05:15Z</time>
      </trkpt>
      <trkpt lat="47.503124037757516" lon="16.502129025757313">
        <ele>256.329999999999984</ele>
        <time>2015-04-08T08:05:17Z</time>
      </trkpt>
      <trkpt lat="47.503097970038652" lon="16.502113016322255">
        <ele>256.810000000000002</ele>
        <time>2015-04-08T08:05:18Z</time>
      </trkpt>
      <trkpt lat="47.50307098031044" lon="16.502105975523591">
        <ele>256.810000000000002</ele>
        <time>2015-04-08T08:05:19Z</time>
      </trkpt>
      <trkpt lat="47.503043990582228" lon="16.502105975523591">
        <ele>257.29000000000002</ele>
        <time>2015-04-08T08:05:20Z</time>
      </trkpt>
      <trkpt lat="47.503021024167538" lon="16.502111004665494">
        <ele>257.29000000000002</ele>
        <time>2015-04-08T08:05:21Z</time>
      </trkpt>
      <trkpt lat="47.503001997247338" lon="16.502122990787029">
        <ele>257.769999999999982</ele>
        <time>2015-04-08T08:05:22Z</time>
      </trkpt>
      <trkpt lat="47.502982970327139" lon="16.502142017707229">
        <ele>258.25</ele>
        <time>2015-04-08T08:05:23Z</time>
      </trkpt>
      <trkpt lat="47.502804016694427" lon="16.502305967733264">
        <ele>259.20999999999998</ele>
        <time>2015-04-08T08:05:33Z</time>
      </trkpt>
      <trkpt lat="47.502548033371568" lon="16.502518029883504">
        <ele>257.769999999999982</ele>
        <time>2015-04-08T08:31:10Z</time>
      </trkpt>
      <trkpt lat="47.502452982589602" lon="16.502821035683155">
        <ele>255.370000000000005</ele>
        <time>2015-04-08T08:31:18Z</time>
      </trkpt>
      <trkpt lat="47.502247039228678" lon="16.502846013754606">
        <ele>256.810000000000002</ele>
        <time>2015-04-08T08:31:25Z</time>
      </trkpt>
      <trkpt lat="47.502117035910487" lon="16.502549964934587">
        <ele>260.649999999999977</ele>
        <time>2015-04-08T08:31:38Z</time>
      </trkpt>
      <trkpt lat="47.502109995111823" lon="16.502521969377995">
        <ele>260.649999999999977</ele>
        <time>2015-04-08T08:31:40Z</time>
      </trkpt>
      <trkpt lat="47.502029025927186" lon="16.502289036288857">
        <ele>262.579999999999984</ele>
        <time>2015-04-08T08:31:50Z</time>
      </trkpt>
      <trkpt lat="47.502002958208323" lon="16.50218996219337">
        <ele>263.54000000000002</ele>
        <time>2015-04-08T08:31:53Z</time>
      </trkpt>
      <trkpt lat="47.501881001517177" lon="16.501814033836126">
        <ele>267.379999999999995</ele>
        <time>2015-04-08T08:32:04Z</time>
      </trkpt>
      <trkpt lat="47.501788968220353" lon="16.501654023304582">
        <ele>265.45999999999998</ele>
        <time>2015-04-08T08:32:12Z</time>
      </trkpt>
      <trkpt lat="47.501574978232384" lon="16.501786960288882">
        <ele>266.899999999999977</ele>
        <time>2015-04-08T08:32:20Z</time>
      </trkpt>
      <trkpt lat="47.501125037670135" lon="16.502250982448459">
        <ele>267.379999999999995</ele>
        <time>2015-04-08T08:32:36Z</time>
      </trkpt>
      <trkpt lat="47.5005760230124" lon="16.502815000712872">
        <ele>264.980000000000018</ele>
        <time>2015-04-08T08:32:50Z</time>
      </trkpt>
      <trkpt lat="47.500335965305567" lon="16.503019016236067">
        <ele>264.019999999999982</ele>
        <time>2015-04-08T08:32:58Z</time>
      </trkpt>
      <trkpt lat="47.500308975577354" lon="16.503021027892828">
        <ele>263.54000000000002</ele>
        <time>2015-04-08T08:32:59Z</time>
      </trkpt>
      <trkpt lat="47.500281985849142" lon="16.503009963780642">
        <ele>264.019999999999982</ele>
        <time>2015-04-08T08:33:00Z</time>
      </trkpt>
      <trkpt lat="47.500266982242465" lon="16.502980962395668">
        <ele>264.019999999999982</ele>
        <time>2015-04-08T08:33:01Z</time>
      </trkpt>
      <trkpt lat="47.500251978635788" lon="16.502947015687823">
        <ele>264.5</ele>
        <time>2015-04-08T08:33:02Z</time>
      </trkpt>
      <trkpt lat="47.500244015827775" lon="16.502910973504186">
        <ele>264.980000000000018</ele>
        <time>2015-04-08T08:33:03Z</time>
      </trkpt>
      <trkpt lat="47.500236975029111" lon="16.502871997654438">
        <ele>265.45999999999998</ele>
        <time>2015-04-08T08:33:04Z</time>
      </trkpt>
      <trkpt lat="47.500229012221098" lon="16.502834027633071">
        <ele>265.45999999999998</ele>
        <time>2015-04-08T08:33:05Z</time>
      </trkpt>
      <trkpt lat="47.500214008614421" lon="16.502802008762956">
        <ele>265.939999999999998</ele>
        <time>2015-04-08T08:33:06Z</time>
      </trkpt>
      <trkpt lat="47.500194981694221" lon="16.502777030691504">
        <ele>265.939999999999998</ele>
        <time>2015-04-08T08:33:07Z</time>
      </trkpt>
      <trkpt lat="47.500175032764673" lon="16.502751968801022">
        <ele>266.420000000000016</ele>
        <time>2015-04-08T08:33:08Z</time>
      </trkpt>
      <trkpt lat="47.500141002237797" lon="16.50263998657465">
        <ele>267.860000000000014</ele>
        <time>2015-04-08T08:33:12Z</time>
      </trkpt>
      <trkpt lat="47.500141002237797" lon="16.502612996846437">
        <ele>267.860000000000014</ele>
        <time>2015-04-08T08:33:13Z</time>
      </trkpt>
      <trkpt lat="47.500136978924274" lon="16.502590030431747">
        <ele>268.350000000000023</ele>
        <time>2015-04-08T08:33:14Z</time>
      </trkpt>
      <trkpt lat="47.50012599863112" lon="16.502573015168309">
        <ele>267.860000000000014</ele>
        <time>2015-04-08T08:33:15Z</time>
      </trkpt>
      <trkpt lat="47.500110995024443" lon="16.50255398824811">
        <ele>268.350000000000023</ele>
        <time>2015-04-08T08:33:16Z</time>
      </trkpt>
      <trkpt lat="47.500075958669186" lon="16.50244896300137">
        <ele>269.310000000000002</ele>
        <time>2015-04-08T08:33:20Z</time>
      </trkpt>
      <trkpt lat="47.500075958669186" lon="16.502419039607048">
        <ele>269.79000000000002</ele>
        <time>2015-04-08T08:33:21Z</time>
      </trkpt>
      <trkpt lat="47.500072019174695" lon="16.502388026565313">
        <ele>270.75</ele>
        <time>2015-04-08T08:33:22Z</time>
      </trkpt>
      <trkpt lat="47.500064978376031" lon="16.50236296467483">
        <ele>270.75</ele>
        <time>2015-04-08T08:33:23Z</time>
      </trkpt>
      <trkpt lat="47.500046035274863" lon="16.502344021573663">
        <ele>270.75</ele>
        <time>2015-04-08T08:33:24Z</time>
      </trkpt>
      <trkpt lat="47.500027008354664" lon="16.502324994653463">
        <ele>271.70999999999998</ele>
        <time>2015-04-08T08:33:25Z</time>
      </trkpt>
      <trkpt lat="47.499995995312929" lon="16.502270009368658">
        <ele>272.189999999999998</ele>
        <time>2015-04-08T08:33:27Z</time>
      </trkpt>
      <trkpt lat="47.499995995312929" lon="16.502241007983685">
        <ele>272.189999999999998</ele>
        <time>2015-04-08T08:33:28Z</time>
      </trkpt>
      <trkpt lat="47.500000018626451" lon="16.502214018255472">
        <ele>272.670000000000016</ele>
        <time>2015-04-08T08:33:29Z</time>
      </trkpt>
      <trkpt lat="47.500003958120942" lon="16.502186022698879">
        <ele>272.670000000000016</ele>
        <time>2015-04-08T08:33:30Z</time>
      </trkpt>
      <trkpt lat="47.500000018626451" lon="16.502155009657145">
        <ele>272.670000000000016</ele>
        <time>2015-04-08T08:33:31Z</time>
      </trkpt>
      <trkpt lat="47.49997696839273" lon="16.502113016322255">
        <ele>273.629999999999995</ele>
        <time>2015-04-08T08:33:33Z</time>
      </trkpt>
      <trkpt lat="47.499946961179376" lon="16.502089966088533">
        <ele>273.629999999999995</ele>
        <time>2015-04-08T08:33:35Z</time>
      </trkpt>
      <trkpt lat="47.499886024743319" lon="16.501883016899228">
        <ele>277</ele>
        <time>2015-04-08T08:33:45Z</time>
      </trkpt>
      <trkpt lat="47.499874038621783" lon="16.501792995259166">
        <ele>277.480000000000018</ele>
        <time>2015-04-08T08:33:49Z</time>
      </trkpt>
      <trkpt lat="47.499862974509597" lon="16.501680007204413">
        <ele>278.920000000000016</ele>
        <time>2015-04-08T08:34:01Z</time>
      </trkpt>
      <trkpt lat="47.499844031408429" lon="16.50167103856802">
        <ele>278.920000000000016</ele>
        <time>2015-04-08T08:34:21Z</time>
      </trkpt>
      <trkpt lat="47.499831961467862" lon="16.501513039693236">
        <ele>280.839999999999975</ele>
        <time>2015-04-08T08:34:31Z</time>
      </trkpt>
      <trkpt lat="47.49978301115334" lon="16.501332996413112">
        <ele>282.769999999999982</ele>
        <time>2015-04-08T08:34:40Z</time>
      </trkpt>
      <trkpt lat="47.499774964526296" lon="16.501322016119957">
        <ele>283.25</ele>
        <time>2015-04-08T08:34:41Z</time>
      </trkpt>
      <trkpt lat="47.499732971191406" lon="16.501174997538328">
        <ele>283.25</ele>
        <time>2015-04-08T08:34:48Z</time>
      </trkpt>
      <trkpt lat="47.499714028090239" lon="16.500908033922315">
        <ele>286.129999999999995</ele>
        <time>2015-04-08T08:35:00Z</time>
      </trkpt>
      <trkpt lat="47.499721990898252" lon="16.500871991738677">
        <ele>286.610000000000014</ele>
        <time>2015-04-08T08:35:02Z</time>
      </trkpt>
      <trkpt lat="47.49980203807354" lon="16.500737965106964">
        <ele>288.050000000000011</ele>
        <time>2015-04-08T08:35:09Z</time>
      </trkpt>
      <trkpt lat="47.499859035015106" lon="16.500658001750708">
        <ele>288.529999999999973</ele>
        <time>2015-04-08T08:35:15Z</time>
      </trkpt>
      <trkpt lat="47.499980991706252" lon="16.500534033402801">
        <ele>290.939999999999998</ele>
        <time>2015-04-08T08:35:26Z</time>
      </trkpt>
      <trkpt lat="47.500075958669186" lon="16.500357007607818">
        <ele>292.379999999999995</ele>
        <time>2015-04-08T08:35:37Z</time>
      </trkpt>
      <trkpt lat="47.500099008902907" lon="16.500244019553065">
        <ele>292.379999999999995</ele>
        <time>2015-04-08T08:35:42Z</time>
      </trkpt>
      <trkpt lat="47.50012599863112" lon="16.500108987092972">
        <ele>293.339999999999975</ele>
        <time>2015-04-08T08:35:48Z</time>
      </trkpt>
      <trkpt lat="47.500133961439133" lon="16.499894997105002">
        <ele>294.300000000000011</ele>
        <time>2015-04-08T08:35:57Z</time>
      </trkpt>
      <trkpt lat="47.500088028609753" lon="16.499723000451922">
        <ele>294.779999999999973</ele>
        <time>2015-04-08T08:36:05Z</time>
      </trkpt>
      <trkpt lat="47.500018961727619" lon="16.499532982707024">
        <ele>298.149999999999977</ele>
        <time>2015-04-08T08:36:11Z</time>
      </trkpt>
      <trkpt lat="47.499744035303593" lon="16.49926601909101">
        <ele>299.110000000000014</ele>
        <time>2015-04-08T08:36:27Z</time>
      </trkpt>
      <trkpt lat="47.499701958149672" lon="16.499191001057625">
        <ele>299.110000000000014</ele>
        <time>2015-04-08T08:36:30Z</time>
      </trkpt>
      <trkpt lat="47.499428037554026" lon="16.498940968886018">
        <ele>301.029999999999973</ele>
        <time>2015-04-08T08:36:45Z</time>
      </trkpt>
      <trkpt lat="47.499149003997445" lon="16.498424978926778">
        <ele>301.990000000000009</ele>
        <time>2015-04-08T08:37:01Z</time>
      </trkpt>
      <trkpt lat="47.498954962939024" lon="16.497854003682733">
        <ele>302.470000000000027</ele>
        <time>2015-04-08T08:37:17Z</time>
      </trkpt>
      <trkpt lat="47.498744996264577" lon="16.497027967125177">
        <ele>301.509999999999991</ele>
        <time>2015-04-08T08:37:33Z</time>
      </trkpt>
      <trkpt lat="47.498542992398143" lon="16.496277032420039">
        <ele>298.629999999999995</ele>
        <time>2015-04-08T08:37:45Z</time>
      </trkpt>
      <trkpt lat="47.498298995196819" lon="16.495244968682528">
        <ele>296.220000000000027</ele>
        <time>2015-04-08T08:37:58Z</time>
      </trkpt>
      <trkpt lat="47.498206961899996" lon="16.494980016723275">
        <ele>296.220000000000027</ele>
        <time>2015-04-08T08:38:02Z</time>
      </trkpt>
      <trkpt lat="47.497688038274646" lon="16.494106035679579">
        <ele>297.670000000000016</ele>
        <time>2015-04-08T08:38:19Z</time>
      </trkpt>
      <trkpt lat="47.497265003621578" lon="16.493473034352064">
        <ele>299.110000000000014</ele>
        <time>2015-04-08T08:38:35Z</time>
      </trkpt>
      <trkpt lat="47.496829982846975" lon="16.492769038304687">
        <ele>299.589999999999975</ele>
        <time>2015-04-08T08:38:53Z</time>
      </trkpt>
      <trkpt lat="47.496590008959174" lon="16.492328988388181">
        <ele>300.550000000000011</ele>
        <time>2015-04-08T08:39:07Z</time>
      </trkpt>
      <trkpt lat="47.496449025347829" lon="16.4920689817518">
        <ele>302.470000000000027</ele>
        <time>2015-04-08T08:39:17Z</time>
      </trkpt>
      <trkpt lat="47.496262025088072" lon="16.491723982617259">
        <ele>304.879999999999995</ele>
        <time>2015-04-08T08:39:28Z</time>
      </trkpt>
      <trkpt lat="47.496071001514792" lon="16.491366997361183">
        <ele>307.279999999999973</ele>
        <time>2015-04-08T08:39:42Z</time>
      </trkpt>
      <trkpt lat="47.496020961552858" lon="16.491283010691404">
        <ele>308.240000000000009</ele>
        <time>2015-04-08T08:39:46Z</time>
      </trkpt>
      <trkpt lat="47.495800014585257" lon="16.490828040987253">
        <ele>310.160000000000025</ele>
        <time>2015-04-08T08:40:04Z</time>
      </trkpt>
      <trkpt lat="47.495563980191946" lon="16.490029999986291">
        <ele>310.639999999999986</ele>
        <time>2015-04-08T08:40:22Z</time>
      </trkpt>
      <trkpt lat="47.495369017124176" lon="16.489170016720891">
        <ele>311.120000000000005</ele>
        <time>2015-04-08T08:40:39Z</time>
      </trkpt>
      <trkpt lat="47.495224010199308" lon="16.488852007314563">
        <ele>312.089999999999975</ele>
        <time>2015-04-08T08:40:50Z</time>
      </trkpt>
      <trkpt lat="47.495007002726197" lon="16.488427966833115">
        <ele>314.009999999999991</ele>
        <time>2015-04-08T08:41:03Z</time>
      </trkpt>
      <trkpt lat="47.494720006361604" lon="16.487804017961025">
        <ele>312.569999999999993</ele>
        <time>2015-04-08T08:41:17Z</time>
      </trkpt>
      <trkpt lat="47.494305018335581" lon="16.486872034147382">
        <ele>309.199999999999989</ele>
        <time>2015-04-08T08:41:32Z</time>
      </trkpt>
      <trkpt lat="47.493626000359654" lon="16.485509974882007">
        <ele>305.839999999999975</ele>
        <time>2015-04-08T08:41:52Z</time>
      </trkpt>
      <trkpt lat="47.493195002898574" lon="16.484822994098067">
        <ele>301.509999999999991</ele>
        <time>2015-04-08T08:42:01Z</time>
      </trkpt>
      <trkpt lat="47.493141023442149" lon="16.484743030741811">
        <ele>301.990000000000009</ele>
        <time>2015-04-08T08:42:02Z</time>
      </trkpt>
      <trkpt lat="47.492915969341993" lon="16.484273979440331">
        <ele>301.509999999999991</ele>
        <time>2015-04-08T08:42:07Z</time>
      </trkpt>
      <trkpt lat="47.492888979613781" lon="16.484172977507114">
        <ele>300.550000000000011</ele>
        <time>2015-04-08T08:42:08Z</time>
      </trkpt>
      <trkpt lat="47.492717988789082" lon="16.483286004513502">
        <ele>300.550000000000011</ele>
        <time>2015-04-08T08:42:19Z</time>
      </trkpt>
      <trkpt lat="47.492706002667546" lon="16.483222972601652">
        <ele>300.069999999999993</ele>
        <time>2015-04-08T08:42:20Z</time>
      </trkpt>
      <trkpt lat="47.492686975747347" lon="16.483165975660086">
        <ele>301.029999999999973</ele>
        <time>2015-04-08T08:42:21Z</time>
      </trkpt>
      <trkpt lat="47.492523025721312" lon="16.482697008177638">
        <ele>302.949999999999989</ele>
        <time>2015-04-08T08:42:32Z</time>
      </trkpt>
      <trkpt lat="47.492332002148032" lon="16.482239020988345">
        <ele>304.879999999999995</ele>
        <time>2015-04-08T08:42:44Z</time>
      </trkpt>
      <trkpt lat="47.492195041850209" lon="16.481905002146959">
        <ele>306.319999999999993</ele>
        <time>2015-04-08T08:42:54Z</time>
      </trkpt>
      <trkpt lat="47.492008041590452" lon="16.481252973899245">
        <ele>307.279999999999973</ele>
        <time>2015-04-08T08:43:09Z</time>
      </trkpt>
      <trkpt lat="47.491745017468929" lon="16.480519976466894">
        <ele>307.759999999999991</ele>
        <time>2015-04-08T08:43:25Z</time>
      </trkpt>
      <trkpt lat="47.49140202999115" lon="16.479836013168097">
        <ele>305.360000000000014</ele>
        <time>2015-04-08T08:43:38Z</time>
      </trkpt>
      <trkpt lat="47.490925015881658" lon="16.479009976610541">
        <ele>306.319999999999993</ele>
        <time>2015-04-08T08:43:54Z</time>
      </trkpt>
      <trkpt lat="47.490448001772165" lon="16.478199027478695">
        <ele>306.319999999999993</ele>
        <time>2015-04-08T08:44:10Z</time>
      </trkpt>
      <trkpt lat="47.490428974851966" lon="16.478140018880367">
        <ele>306.319999999999993</ele>
        <time>2015-04-08T08:44:11Z</time>
      </trkpt>
      <trkpt lat="47.490416988730431" lon="16.478074975311756">
        <ele>305.839999999999975</ele>
        <time>2015-04-08T08:44:12Z</time>
      </trkpt>
      <trkpt lat="47.490410031750798" lon="16.478010015562177">
        <ele>306.319999999999993</ele>
        <time>2015-04-08T08:44:13Z</time>
      </trkpt>
      <trkpt lat="47.490406008437276" lon="16.477942038327456">
        <ele>305.839999999999975</ele>
        <time>2015-04-08T08:44:14Z</time>
      </trkpt>
      <trkpt lat="47.490406008437276" lon="16.477872971445322">
        <ele>304.879999999999995</ele>
        <time>2015-04-08T08:44:15Z</time>
      </trkpt>
      <trkpt lat="47.490410031750798" lon="16.477801976725459">
        <ele>305.360000000000014</ele>
        <time>2015-04-08T08:44:16Z</time>
      </trkpt>
      <trkpt lat="47.490416988730431" lon="16.477592010051012">
        <ele>303.430000000000007</ele>
        <time>2015-04-08T08:44:19Z</time>
      </trkpt>
      <trkpt lat="47.490443978458643" lon="16.476959008723497">
        <ele>301.990000000000009</ele>
        <time>2015-04-08T08:44:28Z</time>
      </trkpt>
      <trkpt lat="47.49045898206532" lon="16.476889019832015">
        <ele>301.509999999999991</ele>
        <time>2015-04-08T08:44:29Z</time>
      </trkpt>
      <trkpt lat="47.490485971793532" lon="16.476821964606643">
        <ele>301.509999999999991</ele>
        <time>2015-04-08T08:44:30Z</time>
      </trkpt>
      <trkpt lat="47.490516984835267" lon="16.476754993200302">
        <ele>301.029999999999973</ele>
        <time>2015-04-08T08:44:31Z</time>
      </trkpt>
      <trkpt lat="47.490551015362144" lon="16.476688021793962">
        <ele>300.550000000000011</ele>
        <time>2015-04-08T08:44:32Z</time>
      </trkpt>
      <trkpt lat="47.49060801230371" lon="16.476545026525855">
        <ele>300.069999999999993</ele>
        <time>2015-04-08T08:44:34Z</time>
      </trkpt>
      <trkpt lat="47.490627039223909" lon="16.476462967693806">
        <ele>299.589999999999975</ele>
        <time>2015-04-08T08:44:35Z</time>
      </trkpt>
      <trkpt lat="47.490639025345445" lon="16.476375963538885">
        <ele>299.110000000000014</ele>
        <time>2015-04-08T08:44:36Z</time>
      </trkpt>
      <trkpt lat="47.490639025345445" lon="16.476284014061093">
        <ele>298.629999999999995</ele>
        <time>2015-04-08T08:44:37Z</time>
      </trkpt>
      <trkpt lat="47.490635002031922" lon="16.47619198076427">
        <ele>298.149999999999977</ele>
        <time>2015-04-08T08:44:38Z</time>
      </trkpt>
      <trkpt lat="47.4906309787184" lon="16.476104976609349">
        <ele>297.670000000000016</ele>
        <time>2015-04-08T08:44:39Z</time>
      </trkpt>
      <trkpt lat="47.490635002031922" lon="16.476018978282809">
        <ele>297.180000000000007</ele>
        <time>2015-04-08T08:44:40Z</time>
      </trkpt>
      <trkpt lat="47.490672972053289" lon="16.475754026323557">
        <ele>296.220000000000027</ele>
        <time>2015-04-08T08:44:43Z</time>
      </trkpt>
      <trkpt lat="47.490748995915055" lon="16.475494019687176">
        <ele>294.779999999999973</ele>
        <time>2015-04-08T08:44:46Z</time>
      </trkpt>
      <trkpt lat="47.490787971764803" lon="16.475410033017397">
        <ele>293.819999999999993</ele>
        <time>2015-04-08T08:44:47Z</time>
      </trkpt>
      <trkpt lat="47.490832982584834" lon="16.475339960306883">
        <ele>293.339999999999975</ele>
        <time>2015-04-08T08:44:48Z</time>
      </trkpt>
      <trkpt lat="47.490883022546768" lon="16.475285980850458">
        <ele>292.860000000000014</ele>
        <time>2015-04-08T08:44:49Z</time>
      </trkpt>
      <trkpt lat="47.490935996174812" lon="16.475244993343949">
        <ele>292.860000000000014</ele>
        <time>2015-04-08T08:44:50Z</time>
      </trkpt>
      <trkpt lat="47.490992993116379" lon="16.475210040807724">
        <ele>292.860000000000014</ele>
        <time>2015-04-08T08:44:51Z</time>
      </trkpt>
      <trkpt lat="47.491158032789826" lon="16.475103003904223">
        <ele>291.899999999999977</ele>
        <time>2015-04-08T08:44:54Z</time>
      </trkpt>
      <trkpt lat="47.491199020296335" lon="16.475055981427431">
        <ele>291.420000000000016</ele>
        <time>2015-04-08T08:44:55Z</time>
      </trkpt>
      <trkpt lat="47.491221986711025" lon="16.474989010021091">
        <ele>290.45999999999998</ele>
        <time>2015-04-08T08:44:56Z</time>
      </trkpt>
      <trkpt lat="47.491226010024548" lon="16.474908962845802">
        <ele>290.45999999999998</ele>
        <time>2015-04-08T08:44:57Z</time>
      </trkpt>
      <trkpt lat="47.491206983104348" lon="16.474831011146307">
        <ele>289.970000000000027</ele>
        <time>2015-04-08T08:44:58Z</time>
      </trkpt>
      <trkpt lat="47.491173036396503" lon="16.474762028083205">
        <ele>289.970000000000027</ele>
        <time>2015-04-08T08:44:59Z</time>
      </trkpt>
      <trkpt lat="47.491122996434569" lon="16.47470997646451">
        <ele>289.009999999999991</ele>
        <time>2015-04-08T08:45:00Z</time>
      </trkpt>
      <trkpt lat="47.491070022806525" lon="16.474689021706581">
        <ele>289.490000000000009</ele>
        <time>2015-04-08T08:45:01Z</time>
      </trkpt>
      <trkpt lat="47.491009002551436" lon="16.474705031141639">
        <ele>289.009999999999991</ele>
        <time>2015-04-08T08:45:02Z</time>
      </trkpt>
      <trkpt lat="47.490958962589502" lon="16.474749036133289">
        <ele>289.009999999999991</ele>
        <time>2015-04-08T08:45:03Z</time>
      </trkpt>
      <trkpt lat="47.490913029760122" lon="16.474807960912585">
        <ele>288.529999999999973</ele>
        <time>2015-04-08T08:45:04Z</time>
      </trkpt>
      <trkpt lat="47.490868018940091" lon="16.474856995046139">
        <ele>288.050000000000011</ele>
        <time>2015-04-08T08:45:05Z</time>
      </trkpt>
      <trkpt lat="47.490810016170144" lon="16.474892031401396">
        <ele>287.089999999999975</ele>
        <time>2015-04-08T08:45:06Z</time>
      </trkpt>
      <trkpt lat="47.490742038935423" lon="16.474910974502563">
        <ele>286.129999999999995</ele>
        <time>2015-04-08T08:45:07Z</time>
      </trkpt>
      <trkpt lat="47.490672972053289" lon="16.474910974502563">
        <ele>285.649999999999977</ele>
        <time>2015-04-08T08:45:08Z</time>
      </trkpt>
      <trkpt lat="47.490600971505046" lon="16.474896976724267">
        <ele>285.649999999999977</ele>
        <time>2015-04-08T08:45:09Z</time>
      </trkpt>
      <trkpt lat="47.49045898206532" lon="16.474885996431112">
        <ele>283.730000000000018</ele>
        <time>2015-04-08T08:45:11Z</time>
      </trkpt>
      <trkpt lat="47.490391004830599" lon="16.474896976724267">
        <ele>284.689999999999998</ele>
        <time>2015-04-08T08:45:12Z</time>
      </trkpt>
      <trkpt lat="47.490322021767497" lon="16.474916003644466">
        <ele>284.20999999999998</ele>
        <time>2015-04-08T08:45:13Z</time>
      </trkpt>
      <trkpt lat="47.490172991529107" lon="16.474974006414413">
        <ele>282.769999999999982</ele>
        <time>2015-04-08T08:45:15Z</time>
      </trkpt>
      <trkpt lat="47.490093028172851" lon="16.474997978657484">
        <ele>282.279999999999973</ele>
        <time>2015-04-08T08:45:16Z</time>
      </trkpt>
      <trkpt lat="47.490017004311085" lon="16.475004013627768">
        <ele>282.279999999999973</ele>
        <time>2015-04-08T08:45:17Z</time>
      </trkpt>
      <trkpt lat="47.489948021247983" lon="16.474996972829103">
        <ele>281.800000000000011</ele>
        <time>2015-04-08T08:45:18Z</time>
      </trkpt>
      <trkpt lat="47.48987996019423" lon="16.474976018071175">
        <ele>281.319999999999993</ele>
        <time>2015-04-08T08:45:19Z</time>
      </trkpt>
      <trkpt lat="47.489810977131128" lon="16.474947016686201">
        <ele>280.360000000000014</ele>
        <time>2015-04-08T08:45:20Z</time>
      </trkpt>
      <trkpt lat="47.489741994068027" lon="16.474898988381028">
        <ele>278.920000000000016</ele>
        <time>2015-04-08T08:45:21Z</time>
      </trkpt>
      <trkpt lat="47.489669993519783" lon="16.474841991439462">
        <ele>278.920000000000016</ele>
        <time>2015-04-08T08:45:22Z</time>
      </trkpt>
      <trkpt lat="47.489605033770204" lon="16.474777031689882">
        <ele>277.95999999999998</ele>
        <time>2015-04-08T08:45:23Z</time>
      </trkpt>
      <trkpt lat="47.489548036828637" lon="16.47470997646451">
        <ele>277.480000000000018</ele>
        <time>2015-04-08T08:45:24Z</time>
      </trkpt>
      <trkpt lat="47.489497996866703" lon="16.474649040028453">
        <ele>277</ele>
        <time>2015-04-08T08:45:25Z</time>
      </trkpt>
      <trkpt lat="47.489409986883402" lon="16.474534962326288">
        <ele>276.04000000000002</ele>
        <time>2015-04-08T08:45:27Z</time>
      </trkpt>
      <trkpt lat="47.489219969138503" lon="16.474246960133314">
        <ele>273.629999999999995</ele>
        <time>2015-04-08T08:45:32Z</time>
      </trkpt>
      <trkpt lat="47.489181999117136" lon="16.474216030910611">
        <ele>274.110000000000014</ele>
        <time>2015-04-08T08:45:33Z</time>
      </trkpt>
      <trkpt lat="47.489135982468724" lon="16.474199015647173">
        <ele>273.629999999999995</ele>
        <time>2015-04-08T08:45:34Z</time>
      </trkpt>
      <trkpt lat="47.489086026325822" lon="16.47419398650527">
        <ele>273.629999999999995</ele>
        <time>2015-04-08T08:45:35Z</time>
      </trkpt>
      <trkpt lat="47.48904000967741" lon="16.474206978455186">
        <ele>273.629999999999995</ele>
        <time>2015-04-08T08:45:36Z</time>
      </trkpt>
      <trkpt lat="47.488994998857379" lon="16.474233968183398">
        <ele>273.629999999999995</ele>
        <time>2015-04-08T08:45:37Z</time>
      </trkpt>
      <trkpt lat="47.488944958895445" lon="16.474270010367036">
        <ele>273.149999999999977</ele>
        <time>2015-04-08T08:45:38Z</time>
      </trkpt>
      <trkpt lat="47.488899026066065" lon="16.474312003701925">
        <ele>273.149999999999977</ele>
        <time>2015-04-08T08:45:39Z</time>
      </trkpt>
      <trkpt lat="47.488757958635688" lon="16.474463967606425">
        <ele>272.189999999999998</ele>
        <time>2015-04-08T08:45:42Z</time>
      </trkpt>
      <trkpt lat="47.488704985007644" lon="16.474516019225121">
        <ele>272.189999999999998</ele>
        <time>2015-04-08T08:45:43Z</time>
      </trkpt>
      <trkpt lat="47.488651005551219" lon="16.474563963711262">
        <ele>271.230000000000018</ele>
        <time>2015-04-08T08:45:44Z</time>
      </trkpt>
      <trkpt lat="47.488418994471431" lon="16.474733026698232">
        <ele>270.75</ele>
        <time>2015-04-08T08:45:48Z</time>
      </trkpt>
      <trkpt lat="47.488299971446395" lon="16.474802009761333">
        <ele>270.269999999999982</ele>
        <time>2015-04-08T08:45:50Z</time>
      </trkpt>
      <trkpt lat="47.488242974504828" lon="16.474846014752984">
        <ele>270.269999999999982</ele>
        <time>2015-04-08T08:45:51Z</time>
      </trkpt>
      <trkpt lat="47.488190000876784" lon="16.474898988381028">
        <ele>269.79000000000002</ele>
        <time>2015-04-08T08:45:52Z</time>
      </trkpt>
      <trkpt lat="47.48813602142036" lon="16.474962020292878">
        <ele>269.79000000000002</ele>
        <time>2015-04-08T08:45:53Z</time>
      </trkpt>
      <trkpt lat="47.488086987286806" lon="16.475023040547967">
        <ele>269.79000000000002</ele>
        <time>2015-04-08T08:45:54Z</time>
      </trkpt>
      <trkpt lat="47.487437976524234" lon="16.475895009934902">
        <ele>268.829999999999984</ele>
        <time>2015-04-08T08:46:08Z</time>
      </trkpt>
      <trkpt lat="47.487305039539933" lon="16.476072035729885">
        <ele>268.350000000000023</ele>
        <time>2015-04-08T08:46:11Z</time>
      </trkpt>
      <trkpt lat="47.486777985468507" lon="16.476845014840364">
        <ele>267.860000000000014</ele>
        <time>2015-04-08T08:46:25Z</time>
      </trkpt>
      <trkpt lat="47.486206004396081" lon="16.477586980909109">
        <ele>267.860000000000014</ele>
        <time>2015-04-08T08:46:39Z</time>
      </trkpt>
      <trkpt lat="47.485565040260553" lon="16.478300029411912">
        <ele>267.379999999999995</ele>
        <time>2015-04-08T08:46:54Z</time>
      </trkpt>
      <trkpt lat="47.484898008406162" lon="16.479064961895347">
        <ele>267.379999999999995</ele>
        <time>2015-04-08T08:47:10Z</time>
      </trkpt>
      <trkpt lat="47.484458964318037" lon="16.479573994874954">
        <ele>267.379999999999995</ele>
        <time>2015-04-08T08:47:21Z</time>
      </trkpt>
      <trkpt lat="47.484431974589825" lon="16.479617999866605">
        <ele>267.379999999999995</ele>
        <time>2015-04-08T08:47:22Z</time>
      </trkpt>
      <trkpt lat="47.484356034547091" lon="16.479741968214512">
        <ele>267.379999999999995</ele>
        <time>2015-04-08T08:47:25Z</time>
      </trkpt>
      <trkpt lat="47.484328960999846" lon="16.479752026498318">
        <ele>267.379999999999995</ele>
        <time>2015-04-08T08:47:26Z</time>
      </trkpt>
      <trkpt lat="47.484299037605524" lon="16.47973601706326">
        <ele>267.860000000000014</ele>
        <time>2015-04-08T08:47:27Z</time>
      </trkpt>
      <trkpt lat="47.484199963510036" lon="16.479688994586468">
        <ele>267.379999999999995</ele>
        <time>2015-04-08T08:47:31Z</time>
      </trkpt>
      <trkpt lat="47.484180014580488" lon="16.479696035385132">
        <ele>267.379999999999995</ele>
        <time>2015-04-08T08:47:32Z</time>
      </trkpt>
      <trkpt lat="47.484157970175147" lon="16.479711961001158">
        <ele>267.379999999999995</ele>
        <time>2015-04-08T08:47:33Z</time>
      </trkpt>
      <trkpt lat="47.484135003760457" lon="16.479723025113344">
        <ele>267.379999999999995</ele>
        <time>2015-04-08T08:47:34Z</time>
      </trkpt>
      <trkpt lat="47.484112037345767" lon="16.479732999578118">
        <ele>266.899999999999977</ele>
        <time>2015-04-08T08:47:35Z</time>
      </trkpt>
      <trkpt lat="47.484088987112045" lon="16.479734005406499">
        <ele>267.860000000000014</ele>
        <time>2015-04-08T08:47:36Z</time>
      </trkpt>
      <trkpt lat="47.484073983505368" lon="16.479723025113344">
        <ele>266.899999999999977</ele>
        <time>2015-04-08T08:47:37Z</time>
      </trkpt>
      <trkpt lat="47.484055040404201" lon="16.479697963222861">
        <ele>267.860000000000014</ele>
        <time>2015-04-08T08:47:38Z</time>
      </trkpt>
      <trkpt lat="47.484042970463634" lon="16.479668039828539">
        <ele>266.899999999999977</ele>
        <time>2015-04-08T08:47:39Z</time>
      </trkpt>
      <trkpt lat="47.484039030969143" lon="16.479624034836888">
        <ele>266.899999999999977</ele>
        <time>2015-04-08T08:47:40Z</time>
      </trkpt>
      <trkpt lat="47.484042970463634" lon="16.479576006531715">
        <ele>266.420000000000016</ele>
        <time>2015-04-08T08:47:41Z</time>
      </trkpt>
      <trkpt lat="47.484051017090678" lon="16.479526972398162">
        <ele>266.899999999999977</ele>
        <time>2015-04-08T08:47:42Z</time>
      </trkpt>
      <trkpt lat="47.484088987112045" lon="16.479354975745082">
        <ele>267.379999999999995</ele>
        <time>2015-04-08T08:47:45Z</time>
      </trkpt>
      <trkpt lat="47.484187977388501" lon="16.478738989681005">
        <ele>267.860000000000014</ele>
        <time>2015-04-08T08:47:56Z</time>
      </trkpt>
      <trkpt lat="47.484359974041581" lon="16.477832989767194">
        <ele>267.860000000000014</ele>
        <time>2015-04-08T08:48:12Z</time>
      </trkpt>
      <trkpt lat="47.484622998163104" lon="16.476919027045369">
        <ele>268.350000000000023</ele>
        <time>2015-04-08T08:48:29Z</time>
      </trkpt>
      <trkpt lat="47.484974032267928" lon="16.475820997729897">
        <ele>269.310000000000002</ele>
        <time>2015-04-08T08:48:50Z</time>
      </trkpt>
      <trkpt lat="47.485188022255898" lon="16.475035026669502">
        <ele>267.860000000000014</ele>
        <time>2015-04-08T08:49:07Z</time>
      </trkpt>
      <trkpt lat="47.485359013080597" lon="16.474174037575722">
        <ele>268.829999999999984</ele>
        <time>2015-04-08T08:49:25Z</time>
      </trkpt>
      <trkpt lat="47.485522963106632" lon="16.473063016310334">
        <ele>268.829999999999984</ele>
        <time>2015-04-08T08:49:44Z</time>
      </trkpt>
      <trkpt lat="47.485599992796779" lon="16.471912013366818">
        <ele>269.79000000000002</ele>
        <time>2015-04-08T08:50:03Z</time>
      </trkpt>
      <trkpt lat="47.48560301028192" lon="16.470867041498423">
        <ele>269.310000000000002</ele>
        <time>2015-04-08T08:50:20Z</time>
      </trkpt>
      <trkpt lat="47.485546013340354" lon="16.469922987744212">
        <ele>270.269999999999982</ele>
        <time>2015-04-08T08:50:36Z</time>
      </trkpt>
      <trkpt lat="47.485489016398787" lon="16.469500958919525">
        <ele>270.75</ele>
        <time>2015-04-08T08:50:43Z</time>
      </trkpt>
      <trkpt lat="47.48517201282084" lon="16.468868041411042">
        <ele>270.75</ele>
        <time>2015-04-08T08:50:57Z</time>
      </trkpt>
      <trkpt lat="47.484772028401494" lon="16.467930022627115">
        <ele>271.70999999999998</ele>
        <time>2015-04-08T08:51:15Z</time>
      </trkpt>
      <trkpt lat="47.484374977648258" lon="16.466825036332011">
        <ele>272.189999999999998</ele>
        <time>2015-04-08T08:51:35Z</time>
      </trkpt>
      <trkpt lat="47.484317980706692" lon="16.466665025800467">
        <ele>272.670000000000016</ele>
        <time>2015-04-08T08:51:38Z</time>
      </trkpt>
      <trkpt lat="47.484310017898679" lon="16.466606017202139">
        <ele>272.670000000000016</ele>
        <time>2015-04-08T08:51:39Z</time>
      </trkpt>
      <trkpt lat="47.484275987371802" lon="16.46643603220582">
        <ele>273.149999999999977</ele>
        <time>2015-04-08T08:51:42Z</time>
      </trkpt>
      <trkpt lat="47.484222007915378" lon="16.466271998360753">
        <ele>272.670000000000016</ele>
        <time>2015-04-08T08:51:45Z</time>
      </trkpt>
      <trkpt lat="47.484199963510036" lon="16.466224975883961">
        <ele>273.629999999999995</ele>
        <time>2015-04-08T08:51:46Z</time>
      </trkpt>
      <trkpt lat="47.484172973781824" lon="16.46617703139782">
        <ele>272.670000000000016</ele>
        <time>2015-04-08T08:51:47Z</time>
      </trkpt>
      <trkpt lat="47.484039030969143" lon="16.465961029753089">
        <ele>273.629999999999995</ele>
        <time>2015-04-08T08:51:52Z</time>
      </trkpt>
      <trkpt lat="47.483608033508062" lon="16.465289974585176">
        <ele>274.110000000000014</ele>
        <time>2015-04-08T08:52:07Z</time>
      </trkpt>
      <trkpt lat="47.483424972742796" lon="16.465020999312401">
        <ele>274.589999999999975</ele>
        <time>2015-04-08T08:52:13Z</time>
      </trkpt>
      <trkpt lat="47.482971008867025" lon="16.464321026578546">
        <ele>275.560000000000002</ele>
        <time>2015-04-08T08:52:29Z</time>
      </trkpt>
      <trkpt lat="47.482532970607281" lon="16.463655000552535">
        <ele>277</ele>
        <time>2015-04-08T08:52:46Z</time>
      </trkpt>
      <trkpt lat="47.482028966769576" lon="16.462886966764927">
        <ele>278.439999999999998</ele>
        <time>2015-04-08T08:53:04Z</time>
      </trkpt>
      <trkpt lat="47.481486992910504" lon="16.462059002369642">
        <ele>277.480000000000018</ele>
        <time>2015-04-08T08:53:22Z</time>
      </trkpt>
      <trkpt lat="47.48083496466279" lon="16.461207987740636">
        <ele>278.439999999999998</ele>
        <time>2015-04-08T08:53:41Z</time>
      </trkpt>
      <trkpt lat="47.480629021301866" lon="16.461010007187724">
        <ele>278.439999999999998</ele>
        <time>2015-04-08T08:53:46Z</time>
      </trkpt>
      <trkpt lat="47.479857970029116" lon="16.460442971438169">
        <ele>278.439999999999998</ele>
        <time>2015-04-08T08:54:05Z</time>
      </trkpt>
      <trkpt lat="47.479290012270212" lon="16.460180031135678">
        <ele>279.399999999999977</ele>
        <time>2015-04-08T08:54:19Z</time>
      </trkpt>
      <trkpt lat="47.478633960708976" lon="16.459846012294292">
        <ele>280.360000000000014</ele>
        <time>2015-04-08T08:54:36Z</time>
      </trkpt>
      <trkpt lat="47.477916972711682" lon="16.459493972361088">
        <ele>281.319999999999993</ele>
        <time>2015-04-08T08:54:54Z</time>
      </trkpt>
      <trkpt lat="47.477210965007544" lon="16.459136987105012">
        <ele>282.769999999999982</ele>
        <time>2015-04-08T08:55:12Z</time>
      </trkpt>
      <trkpt lat="47.476543011143804" lon="16.458944035694003">
        <ele>281.800000000000011</ele>
        <time>2015-04-08T08:55:28Z</time>
      </trkpt>
      <trkpt lat="47.475769026204944" lon="16.45878603681922">
        <ele>281.800000000000011</ele>
        <time>2015-04-08T08:55:46Z</time>
      </trkpt>
      <trkpt lat="47.475060001015663" lon="16.458456041291356">
        <ele>282.279999999999973</ele>
        <time>2015-04-08T08:56:04Z</time>
      </trkpt>
      <trkpt lat="47.474304037168622" lon="16.457745004445314">
        <ele>283.730000000000018</ele>
        <time>2015-04-08T08:56:24Z</time>
      </trkpt>
      <trkpt lat="47.473865998908877" lon="16.457258015871048">
        <ele>283.25</ele>
        <time>2015-04-08T08:56:37Z</time>
      </trkpt>
      <trkpt lat="47.473824005573988" lon="16.457248963415623">
        <ele>282.769999999999982</ele>
        <time>2015-04-08T08:56:38Z</time>
      </trkpt>
      <trkpt lat="47.473782012239099" lon="16.457248963415623">
        <ele>281.800000000000011</ele>
        <time>2015-04-08T08:56:39Z</time>
      </trkpt>
      <trkpt lat="47.473731972277164" lon="16.457252986729145">
        <ele>281.800000000000011</ele>
        <time>2015-04-08T08:56:40Z</time>
      </trkpt>
      <trkpt lat="47.473682016134262" lon="16.457233037799597">
        <ele>282.279999999999973</ele>
        <time>2015-04-08T08:56:41Z</time>
      </trkpt>
      <trkpt lat="47.473640022799373" lon="16.457190960645676">
        <ele>282.279999999999973</ele>
        <time>2015-04-08T08:56:42Z</time>
      </trkpt>
      <trkpt lat="47.473601968958974" lon="16.45713597536087">
        <ele>282.279999999999973</ele>
        <time>2015-04-08T08:56:43Z</time>
      </trkpt>
      <trkpt lat="47.47357196174562" lon="16.457080990076065">
        <ele>282.279999999999973</ele>
        <time>2015-04-08T08:56:44Z</time>
      </trkpt>
      <trkpt lat="47.473300974816084" lon="16.456758035346866">
        <ele>282.769999999999982</ele>
        <time>2015-04-08T08:56:51Z</time>
      </trkpt>
      <trkpt lat="47.473122021183372" lon="16.456629037857056">
        <ele>282.279999999999973</ele>
        <time>2015-04-08T08:56:55Z</time>
      </trkpt>
      <trkpt lat="47.473071981221437" lon="16.456607999280095">
        <ele>282.279999999999973</ele>
        <time>2015-04-08T08:56:56Z</time>
      </trkpt>
      <trkpt lat="47.472426993772388" lon="16.45629895851016">
        <ele>282.769999999999982</ele>
        <time>2015-04-08T08:57:09Z</time>
      </trkpt>
      <trkpt lat="47.472381982952356" lon="16.456271968781948">
        <ele>282.279999999999973</ele>
        <time>2015-04-08T08:57:10Z</time>
      </trkpt>
      <trkpt lat="47.471844032406807" lon="16.456025959923863">
        <ele>282.279999999999973</ele>
        <time>2015-04-08T08:57:21Z</time>
      </trkpt>
      <trkpt lat="47.471268028020859" lon="16.455578031018376">
        <ele>282.769999999999982</ele>
        <time>2015-04-08T08:57:34Z</time>
      </trkpt>
      <trkpt lat="47.470882041379809" lon="16.455347025766969">
        <ele>283.25</ele>
        <time>2015-04-08T08:57:43Z</time>
      </trkpt>
      <trkpt lat="47.470508962869644" lon="16.455096993595362">
        <ele>283.25</ele>
        <time>2015-04-08T08:57:52Z</time>
      </trkpt>
      <trkpt lat="47.469799015671015" lon="16.454754006117582">
        <ele>283.25</ele>
        <time>2015-04-08T08:58:08Z</time>
      </trkpt>
      <trkpt lat="47.46966197155416" lon="16.454702038317919">
        <ele>283.730000000000018</ele>
        <time>2015-04-08T08:58:11Z</time>
      </trkpt>
      <trkpt lat="47.469478994607925" lon="16.45466398447752">
        <ele>283.730000000000018</ele>
        <time>2015-04-08T08:58:15Z</time>
      </trkpt>
      <trkpt lat="47.469437001273036" lon="16.454661972820759">
        <ele>283.730000000000018</ele>
        <time>2015-04-08T08:58:16Z</time>
      </trkpt>
      <trkpt lat="47.469398025423288" lon="16.454659039154649">
        <ele>283.25</ele>
        <time>2015-04-08T08:58:17Z</time>
      </trkpt>
      <trkpt lat="47.46935997158289" lon="16.454650992527604">
        <ele>283.730000000000018</ele>
        <time>2015-04-08T08:58:18Z</time>
      </trkpt>
      <trkpt lat="47.469322001561522" lon="16.45464101806283">
        <ele>283.730000000000018</ele>
        <time>2015-04-08T08:58:19Z</time>
      </trkpt>
      <trkpt lat="47.468654969707131" lon="16.45436299033463">
        <ele>284.20999999999998</ele>
        <time>2015-04-08T08:58:35Z</time>
      </trkpt>
      <trkpt lat="47.467891965061426" lon="16.453791009262204">
        <ele>284.20999999999998</ele>
        <time>2015-04-08T08:58:53Z</time>
      </trkpt>
      <trkpt lat="47.467376980930567" lon="16.453360011801124">
        <ele>285.170000000000016</ele>
        <time>2015-04-08T08:59:08Z</time>
      </trkpt>
      <trkpt lat="47.466769963502884" lon="16.452740002423525">
        <ele>286.129999999999995</ele>
        <time>2015-04-08T08:59:26Z</time>
      </trkpt>
      <trkpt lat="47.46607200242579" lon="16.452134996652603">
        <ele>286.610000000000014</ele>
        <time>2015-04-08T08:59:46Z</time>
      </trkpt>
      <trkpt lat="47.465518964454532" lon="16.451730988919735">
        <ele>287.089999999999975</ele>
        <time>2015-04-08T09:00:01Z</time>
      </trkpt>
      <trkpt lat="47.464836006984115" lon="16.451169988140464">
        <ele>288.529999999999973</ele>
        <time>2015-04-08T09:00:20Z</time>
      </trkpt>
      <trkpt lat="47.464420013129711" lon="16.450665984302759">
        <ele>288.050000000000011</ele>
        <time>2015-04-08T09:00:34Z</time>
      </trkpt>
      <trkpt lat="47.464297972619534" lon="16.450377982109785">
        <ele>288.050000000000011</ele>
        <time>2015-04-08T09:00:40Z</time>
      </trkpt>
      <trkpt lat="47.464252039790154" lon="16.450142031535506">
        <ele>288.050000000000011</ele>
        <time>2015-04-08T09:00:44Z</time>
      </trkpt>
      <trkpt lat="47.464237036183476" lon="16.45008503459394">
        <ele>288.529999999999973</ele>
        <time>2015-04-08T09:00:45Z</time>
      </trkpt>
      <trkpt lat="47.464218009263277" lon="16.450027031823993">
        <ele>288.529999999999973</ele>
        <time>2015-04-08T09:00:46Z</time>
      </trkpt>
      <trkpt lat="47.464073002338409" lon="16.44976400770247">
        <ele>288.529999999999973</ele>
        <time>2015-04-08T09:00:51Z</time>
      </trkpt>
      <trkpt lat="47.463428014889359" lon="16.4491200260818">
        <ele>288.529999999999973</ele>
        <time>2015-04-08T09:01:08Z</time>
      </trkpt>
      <trkpt lat="47.46261203661561" lon="16.448493981733918">
        <ele>289.970000000000027</ele>
        <time>2015-04-08T09:01:29Z</time>
      </trkpt>
      <trkpt lat="47.461807038635015" lon="16.447851005941629">
        <ele>290.939999999999998</ele>
        <time>2015-04-08T09:01:50Z</time>
      </trkpt>
      <trkpt lat="47.461150987073779" lon="16.447136029601097">
        <ele>292.860000000000014</ele>
        <time>2015-04-08T09:02:10Z</time>
      </trkpt>
      <trkpt lat="47.46063600294292" lon="16.446489030495286">
        <ele>292.860000000000014</ele>
        <time>2015-04-08T09:02:27Z</time>
      </trkpt>
      <trkpt lat="47.45999101549387" lon="16.445436011999846">
        <ele>292.860000000000014</ele>
        <time>2015-04-08T09:02:49Z</time>
      </trkpt>
      <trkpt lat="47.459660014137626" lon="16.444721035659313">
        <ele>292.860000000000014</ele>
        <time>2015-04-08T09:03:04Z</time>
      </trkpt>
      <trkpt lat="47.459190040826797" lon="16.44366298802197">
        <ele>292.860000000000014</ele>
        <time>2015-04-08T09:03:24Z</time>
      </trkpt>
      <trkpt lat="47.459000023081899" lon="16.44321396946907">
        <ele>293.819999999999993</ele>
        <time>2015-04-08T09:03:32Z</time>
      </trkpt>
      <trkpt lat="47.458976972848177" lon="16.443158984184265">
        <ele>293.819999999999993</ele>
        <time>2015-04-08T09:03:33Z</time>
      </trkpt>
      <trkpt lat="47.458931040018797" lon="16.443053958937526">
        <ele>293.819999999999993</ele>
        <time>2015-04-08T09:03:35Z</time>
      </trkpt>
      <trkpt lat="47.458499958738685" lon="16.442247033119202">
        <ele>293.819999999999993</ele>
        <time>2015-04-08T09:03:52Z</time>
      </trkpt>
      <trkpt lat="47.457957984879613" lon="16.441333992406726">
        <ele>294.300000000000011</ele>
        <time>2015-04-08T09:04:13Z</time>
      </trkpt>
      <trkpt lat="47.457432020455599" lon="16.440378036350012">
        <ele>294.300000000000011</ele>
        <time>2015-04-08T09:04:33Z</time>
      </trkpt>
      <trkpt lat="47.457019966095686" lon="16.439440017566085">
        <ele>295.259999999999991</ele>
        <time>2015-04-08T09:04:53Z</time>
      </trkpt>
      <trkpt lat="47.456799019128084" lon="16.439029974862933">
        <ele>295.740000000000009</ele>
        <time>2015-04-08T09:05:04Z</time>
      </trkpt>
      <trkpt lat="47.456772029399872" lon="16.439029974862933">
        <ele>295.259999999999991</ele>
        <time>2015-04-08T09:05:05Z</time>
      </trkpt>
      <trkpt lat="47.456745039671659" lon="16.439033998176455">
        <ele>295.259999999999991</ele>
        <time>2015-04-08T09:05:06Z</time>
      </trkpt>
      <trkpt lat="47.456715032458305" lon="16.439039027318358">
        <ele>295.259999999999991</ele>
        <time>2015-04-08T09:05:07Z</time>
      </trkpt>
      <trkpt lat="47.456687958911061" lon="16.439049001783133">
        <ele>295.259999999999991</ele>
        <time>2015-04-08T09:05:08Z</time>
      </trkpt>
      <trkpt lat="47.456657029688358" lon="16.439059982076287">
        <ele>294.779999999999973</ele>
        <time>2015-04-08T09:05:09Z</time>
      </trkpt>
      <trkpt lat="47.456634985283017" lon="16.439074985682964">
        <ele>294.779999999999973</ele>
        <time>2015-04-08T09:05:10Z</time>
      </trkpt>
      <trkpt lat="47.456515962257981" lon="16.439090995118022">
        <ele>294.779999999999973</ele>
        <time>2015-04-08T09:05:14Z</time>
      </trkpt>
      <trkpt lat="47.45648997835815" lon="16.439068028703332">
        <ele>295.259999999999991</ele>
        <time>2015-04-08T09:05:15Z</time>
      </trkpt>
      <trkpt lat="47.456462988629937" lon="16.439031986519694">
        <ele>294.779999999999973</ele>
        <time>2015-04-08T09:05:16Z</time>
      </trkpt>
      <trkpt lat="47.456440022215247" lon="16.438989993184805">
        <ele>294.779999999999973</ele>
        <time>2015-04-08T09:05:17Z</time>
      </trkpt>
      <trkpt lat="47.456416971981525" lon="16.438940037041903">
        <ele>294.779999999999973</ele>
        <time>2015-04-08T09:05:18Z</time>
      </trkpt>
      <trkpt lat="47.455940041691065" lon="16.438283985480666">
        <ele>295.259999999999991</ele>
        <time>2015-04-08T09:05:35Z</time>
      </trkpt>
      <trkpt lat="47.455490017309785" lon="16.437709992751479">
        <ele>295.740000000000009</ele>
        <time>2015-04-08T09:05:50Z</time>
      </trkpt>
      <trkpt lat="47.455279966816306" lon="16.437042038887739">
        <ele>296.220000000000027</ele>
        <time>2015-04-08T09:06:03Z</time>
      </trkpt>
      <trkpt lat="47.455292036756873" lon="16.435986002907157">
        <ele>297.180000000000007</ele>
        <time>2015-04-08T09:06:20Z</time>
      </trkpt>
      <trkpt lat="47.455315003171563" lon="16.435080002993345">
        <ele>297.670000000000016</ele>
        <time>2015-04-08T09:06:36Z</time>
      </trkpt>
      <trkpt lat="47.455195980146527" lon="16.434152964502573">
        <ele>298.149999999999977</ele>
        <time>2015-04-08T09:06:53Z</time>
      </trkpt>
      <trkpt lat="47.454830026254058" lon="16.433210000395775">
        <ele>298.149999999999977</ele>
        <time>2015-04-08T09:07:11Z</time>
      </trkpt>
      <trkpt lat="47.454414032399654" lon="16.432586973533034">
        <ele>299.110000000000014</ele>
        <time>2015-04-08T09:07:27Z</time>
      </trkpt>
      <trkpt lat="47.454006001353264" lon="16.432097973302007">
        <ele>299.589999999999975</ele>
        <time>2015-04-08T09:07:41Z</time>
      </trkpt>
      <trkpt lat="47.453423039987683" lon="16.431313008069992">
        <ele>299.589999999999975</ele>
        <time>2015-04-08T09:08:00Z</time>
      </trkpt>
      <trkpt lat="47.452994976192713" lon="16.430575987324119">
        <ele>300.550000000000011</ele>
        <time>2015-04-08T09:08:17Z</time>
      </trkpt>
      <trkpt lat="47.452952982857823" lon="16.430470962077379">
        <ele>300.550000000000011</ele>
        <time>2015-04-08T09:08:19Z</time>
      </trkpt>
      <trkpt lat="47.452868996188045" lon="16.429981039837003">
        <ele>301.029999999999973</ele>
        <time>2015-04-08T09:08:28Z</time>
      </trkpt>
      <trkpt lat="47.452952982857823" lon="16.429157014936209">
        <ele>301.509999999999991</ele>
        <time>2015-04-08T09:08:44Z</time>
      </trkpt>
      <trkpt lat="47.452946025878191" lon="16.429124996066093">
        <ele>301.509999999999991</ele>
        <time>2015-04-08T09:08:45Z</time>
      </trkpt>
      <trkpt lat="47.452930016443133" lon="16.429105969145894">
        <ele>301.509999999999991</ele>
        <time>2015-04-08T09:08:46Z</time>
      </trkpt>
      <trkpt lat="47.452750978991389" lon="16.428962973877788">
        <ele>301.029999999999973</ele>
        <time>2015-04-08T09:08:55Z</time>
      </trkpt>
      <trkpt lat="47.452762965112925" lon="16.428906982764602">
        <ele>300.550000000000011</ele>
        <time>2015-04-08T09:08:56Z</time>
      </trkpt>
      <trkpt lat="47.452777968719602" lon="16.428844034671783">
        <ele>300.550000000000011</ele>
        <time>2015-04-08T09:08:57Z</time>
      </trkpt>
      <trkpt lat="47.452796995639801" lon="16.428777985274792">
        <ele>300.550000000000011</ele>
        <time>2015-04-08T09:08:58Z</time>
      </trkpt>
      <trkpt lat="47.452811999246478" lon="16.428715037181973">
        <ele>301.029999999999973</ele>
        <time>2015-04-08T09:08:59Z</time>
      </trkpt>
      <trkpt lat="47.452823985368013" lon="16.428652005270123">
        <ele>301.509999999999991</ele>
        <time>2015-04-08T09:09:00Z</time>
      </trkpt>
      <trkpt lat="47.452834965661168" lon="16.428590985015035">
        <ele>301.029999999999973</ele>
        <time>2015-04-08T09:09:01Z</time>
      </trkpt>
      <trkpt lat="47.452796995639801" lon="16.427589012309909">
        <ele>302.470000000000027</ele>
        <time>2015-04-08T09:09:17Z</time>
      </trkpt>
      <trkpt lat="47.452774029225111" lon="16.427537966519594">
        <ele>302.470000000000027</ele>
        <time>2015-04-08T09:09:18Z</time>
      </trkpt>
      <trkpt lat="47.452744022011757" lon="16.427492033690214">
        <ele>301.990000000000009</ele>
        <time>2015-04-08T09:09:19Z</time>
      </trkpt>
      <trkpt lat="47.452713008970022" lon="16.427448028698564">
        <ele>301.990000000000009</ele>
        <time>2015-04-08T09:09:20Z</time>
      </trkpt>
      <trkpt lat="47.452681995928288" lon="16.427406035363674">
        <ele>302.470000000000027</ele>
        <time>2015-04-08T09:09:21Z</time>
      </trkpt>
      <trkpt lat="47.452068021520972" lon="16.426643030717969">
        <ele>302.949999999999989</ele>
        <time>2015-04-08T09:09:40Z</time>
      </trkpt>
      <trkpt lat="47.45176300406456" lon="16.426239022985101">
        <ele>302.949999999999989</ele>
        <time>2015-04-08T09:09:53Z</time>
      </trkpt>
      <trkpt lat="47.451728973537683" lon="16.42619501799345">
        <ele>302.949999999999989</ele>
        <time>2015-04-08T09:10:02Z</time>
      </trkpt>
      <trkpt lat="47.451725034043193" lon="16.426187977194786">
        <ele>301.990000000000009</ele>
        <time>2015-04-08T09:10:33Z</time>
      </trkpt>
      <trkpt lat="47.451710030436516" lon="16.426180014386773">
        <ele>302.470000000000027</ele>
        <time>2015-04-08T09:10:36Z</time>
      </trkpt>
      <trkpt lat="47.451694021001458" lon="16.42617397941649">
        <ele>302.949999999999989</ele>
        <time>2015-04-08T09:10:37Z</time>
      </trkpt>
      <trkpt lat="47.451674994081259" lon="16.426168028265238">
        <ele>302.470000000000027</ele>
        <time>2015-04-08T09:10:38Z</time>
      </trkpt>
      <trkpt lat="47.451653033494949" lon="16.426165010780096">
        <ele>302.470000000000027</ele>
        <time>2015-04-08T09:10:39Z</time>
      </trkpt>
      <trkpt lat="47.451633000746369" lon="16.426170039921999">
        <ele>302.470000000000027</ele>
        <time>2015-04-08T09:10:40Z</time>
      </trkpt>
      <trkpt lat="47.451607016846538" lon="16.426180014386773">
        <ele>302.470000000000027</ele>
        <time>2015-04-08T09:10:41Z</time>
      </trkpt>
      <trkpt lat="47.451472990214825" lon="16.426291996613145">
        <ele>301.990000000000009</ele>
        <time>2015-04-08T09:10:46Z</time>
      </trkpt>
      <trkpt lat="47.451450023800135" lon="16.42628101631999">
        <ele>301.990000000000009</ele>
        <time>2015-04-08T09:10:47Z</time>
      </trkpt>
      <trkpt lat="47.451424039900303" lon="16.426256038248539">
        <ele>302.470000000000027</ele>
        <time>2015-04-08T09:10:48Z</time>
      </trkpt>
      <trkpt lat="47.451400989666581" lon="16.42621798440814">
        <ele>302.470000000000027</ele>
        <time>2015-04-08T09:10:49Z</time>
      </trkpt>
      <trkpt lat="47.451381962746382" lon="16.426168028265238">
        <ele>302.470000000000027</ele>
        <time>2015-04-08T09:10:50Z</time>
      </trkpt>
      <trkpt lat="47.451152969151735" lon="16.425737030804157">
        <ele>302.470000000000027</ele>
        <time>2015-04-08T09:10:59Z</time>
      </trkpt>
      <trkpt lat="47.451114999130368" lon="16.425703000277281">
        <ele>302.470000000000027</ele>
        <time>2015-04-08T09:11:00Z</time>
      </trkpt>
      <trkpt lat="47.451073005795479" lon="16.42568196170032">
        <ele>302.470000000000027</ele>
        <time>2015-04-08T09:11:01Z</time>
      </trkpt>
      <trkpt lat="47.451031012460589" lon="16.425680033862591">
        <ele>302.470000000000027</ele>
        <time>2015-04-08T09:11:02Z</time>
      </trkpt>
      <trkpt lat="47.4509890191257" lon="16.425695037469268">
        <ele>302.470000000000027</ele>
        <time>2015-04-08T09:11:03Z</time>
      </trkpt>
      <trkpt lat="47.450947025790811" lon="16.425718003883958">
        <ele>302.949999999999989</ele>
        <time>2015-04-08T09:11:04Z</time>
      </trkpt>
      <trkpt lat="47.450591968372464" lon="16.425971975550056">
        <ele>304.389999999999986</ele>
        <time>2015-04-08T09:11:15Z</time>
      </trkpt>
      <trkpt lat="47.450287034735084" lon="16.425978010520339">
        <ele>305.360000000000014</ele>
        <time>2015-04-08T09:11:25Z</time>
      </trkpt>
      <trkpt lat="47.450024010613561" lon="16.425393959507346">
        <ele>306.800000000000011</ele>
        <time>2015-04-08T09:11:38Z</time>
      </trkpt>
      <trkpt lat="47.449698960408568" lon="16.424590973183513">
        <ele>307.759999999999991</ele>
        <time>2015-04-08T09:11:55Z</time>
      </trkpt>
      <trkpt lat="47.449467033147812" lon="16.424280004575849">
        <ele>309.199999999999989</ele>
        <time>2015-04-08T09:12:06Z</time>
      </trkpt>
      <trkpt lat="47.449286989867687" lon="16.424045981839299">
        <ele>311.120000000000005</ele>
        <time>2015-04-08T09:12:16Z</time>
      </trkpt>
      <trkpt lat="47.449146006256342" lon="16.423721015453339">
        <ele>313.529999999999973</ele>
        <time>2015-04-08T09:12:26Z</time>
      </trkpt>
      <trkpt lat="47.448959005996585" lon="16.423191027715802">
        <ele>312.089999999999975</ele>
        <time>2015-04-08T09:12:37Z</time>
      </trkpt>
      <trkpt lat="47.448939979076385" lon="16.423119027167559">
        <ele>312.089999999999975</ele>
        <time>2015-04-08T09:12:38Z</time>
      </trkpt>
      <trkpt lat="47.44879899546504" lon="16.422684006392956">
        <ele>311.120000000000005</ele>
        <time>2015-04-08T09:12:44Z</time>
      </trkpt>
      <trkpt lat="47.448508981615305" lon="16.422120993956923">
        <ele>310.639999999999986</ele>
        <time>2015-04-08T09:12:53Z</time>
      </trkpt>
      <trkpt lat="47.448405968025327" lon="16.421839026734233">
        <ele>309.680000000000007</ele>
        <time>2015-04-08T09:12:57Z</time>
      </trkpt>
      <trkpt lat="47.448375960811973" lon="16.421764008700848">
        <ele>309.680000000000007</ele>
        <time>2015-04-08T09:12:58Z</time>
      </trkpt>
      <trkpt lat="47.448222991079092" lon="16.421392019838095">
        <ele>308.720000000000027</ele>
        <time>2015-04-08T09:13:03Z</time>
      </trkpt>
      <trkpt lat="47.44819600135088" lon="16.421320019289851">
        <ele>308.240000000000009</ele>
        <time>2015-04-08T09:13:04Z</time>
      </trkpt>
      <trkpt lat="47.448092987760901" lon="16.421034028753638">
        <ele>308.240000000000009</ele>
        <time>2015-04-08T09:13:08Z</time>
      </trkpt>
      <trkpt lat="47.4477459769696" lon="16.420013029128313">
        <ele>307.759999999999991</ele>
        <time>2015-04-08T09:13:24Z</time>
      </trkpt>
      <trkpt lat="47.447700966149569" lon="16.419897023588419">
        <ele>307.759999999999991</ele>
        <time>2015-04-08T09:13:26Z</time>
      </trkpt>
      <trkpt lat="47.447368958964944" lon="16.419250024482608">
        <ele>307.759999999999991</ele>
        <time>2015-04-08T09:13:38Z</time>
      </trkpt>
      <trkpt lat="47.447350015863776" lon="16.419195039197803">
        <ele>307.759999999999991</ele>
        <time>2015-04-08T09:13:39Z</time>
      </trkpt>
      <trkpt lat="47.447334006428719" lon="16.419134018942714">
        <ele>307.279999999999973</ele>
        <time>2015-04-08T09:13:40Z</time>
      </trkpt>
      <trkpt lat="47.447326965630054" lon="16.419075010344386">
        <ele>307.279999999999973</ele>
        <time>2015-04-08T09:13:41Z</time>
      </trkpt>
      <trkpt lat="47.447323026135564" lon="16.41901801340282">
        <ele>307.279999999999973</ele>
        <time>2015-04-08T09:13:42Z</time>
      </trkpt>
      <trkpt lat="47.447326965630054" lon="16.418962022289634">
        <ele>307.759999999999991</ele>
        <time>2015-04-08T09:13:43Z</time>
      </trkpt>
      <trkpt lat="47.447329983115196" lon="16.418908964842558">
        <ele>307.759999999999991</ele>
        <time>2015-04-08T09:13:44Z</time>
      </trkpt>
      <trkpt lat="47.447338029742241" lon="16.418853979557753">
        <ele>307.759999999999991</ele>
        <time>2015-04-08T09:13:45Z</time>
      </trkpt>
      <trkpt lat="47.447383962571621" lon="16.418361961841583">
        <ele>307.279999999999973</ele>
        <time>2015-04-08T09:13:53Z</time>
      </trkpt>
      <trkpt lat="47.44738002307713" lon="16.418294990435243">
        <ele>307.759999999999991</ele>
        <time>2015-04-08T09:13:54Z</time>
      </trkpt>
      <trkpt lat="47.447365019470453" lon="16.418231958523393">
        <ele>307.279999999999973</ele>
        <time>2015-04-08T09:13:55Z</time>
      </trkpt>
      <trkpt lat="47.447350015863776" lon="16.418174961581826">
        <ele>307.279999999999973</ele>
        <time>2015-04-08T09:13:56Z</time>
      </trkpt>
      <trkpt lat="47.447329983115196" lon="16.418120982125401">
        <ele>307.759999999999991</ele>
        <time>2015-04-08T09:13:57Z</time>
      </trkpt>
      <trkpt lat="47.447052039206028" lon="16.417511031031609">
        <ele>307.279999999999973</ele>
        <time>2015-04-08T09:14:10Z</time>
      </trkpt>
      <trkpt lat="47.44699495844543" lon="16.417327970266342">
        <ele>307.759999999999991</ele>
        <time>2015-04-08T09:14:13Z</time>
      </trkpt>
      <trkpt lat="47.446982972323895" lon="16.417267033830285">
        <ele>307.759999999999991</ele>
        <time>2015-04-08T09:14:14Z</time>
      </trkpt>
      <trkpt lat="47.446967968717217" lon="16.417201990261674">
        <ele>308.240000000000009</ele>
        <time>2015-04-08T09:14:15Z</time>
      </trkpt>
      <trkpt lat="47.446918012574315" lon="16.417014990001917">
        <ele>307.759999999999991</ele>
        <time>2015-04-08T09:14:18Z</time>
      </trkpt>
      <trkpt lat="47.446533031761646" lon="16.416388023644686">
        <ele>308.240000000000009</ele>
        <time>2015-04-08T09:14:32Z</time>
      </trkpt>
      <trkpt lat="47.446228014305234" lon="16.415658965706825">
        <ele>306.800000000000011</ele>
        <time>2015-04-08T09:14:46Z</time>
      </trkpt>
      <trkpt lat="47.445975970476866" lon="16.41489596106112">
        <ele>309.199999999999989</ele>
        <time>2015-04-08T09:15:00Z</time>
      </trkpt>
      <trkpt lat="47.445964990183711" lon="16.414525983855128">
        <ele>310.160000000000025</ele>
        <time>2015-04-08T09:15:08Z</time>
      </trkpt>
      <trkpt lat="47.445994997397065" lon="16.414311993867159">
        <ele>308.720000000000027</ele>
        <time>2015-04-08T09:15:15Z</time>
      </trkpt>
      <trkpt lat="47.446002960205078" lon="16.414294978603721">
        <ele>309.199999999999989</ele>
        <time>2015-04-08T09:15:16Z</time>
      </trkpt>
      <trkpt lat="47.446014024317265" lon="16.414283998310566">
        <ele>308.720000000000027</ele>
        <time>2015-04-08T09:15:17Z</time>
      </trkpt>
      <trkpt lat="47.446041014045477" lon="16.414252985268831">
        <ele>309.199999999999989</ele>
        <time>2015-04-08T09:15:32Z</time>
      </trkpt>
      <trkpt lat="47.446041014045477" lon="16.414252985268831">
        <ele>309.199999999999989</ele>
        <time>2015-04-08T09:15:58Z</time>
      </trkpt>
      <trkpt lat="47.44604897685349" lon="16.414233958348632">
        <ele>309.199999999999989</ele>
        <time>2015-04-08T09:16:11Z</time>
      </trkpt>
      <trkpt lat="47.446056017652154" lon="16.414208980277181">
        <ele>308.720000000000027</ele>
        <time>2015-04-08T09:16:12Z</time>
      </trkpt>
      <trkpt lat="47.446056017652154" lon="16.414182996377349">
        <ele>308.720000000000027</ele>
        <time>2015-04-08T09:16:13Z</time>
      </trkpt>
      <trkpt lat="47.446053000167012" lon="16.414160029962659">
        <ele>309.199999999999989</ele>
        <time>2015-04-08T09:16:14Z</time>
      </trkpt>
      <trkpt lat="47.446036990731955" lon="16.414134968072176">
        <ele>308.720000000000027</ele>
        <time>2015-04-08T09:16:15Z</time>
      </trkpt>
      <trkpt lat="47.4460069835186" lon="16.414114013314247">
        <ele>309.199999999999989</ele>
        <time>2015-04-08T09:16:16Z</time>
      </trkpt>
      <trkpt lat="47.445972030982375" lon="16.414092974737287">
        <ele>309.199999999999989</ele>
        <time>2015-04-08T09:16:17Z</time>
      </trkpt>
      <trkpt lat="47.445942023769021" lon="16.414081994444132">
        <ele>309.199999999999989</ele>
        <time>2015-04-08T09:16:18Z</time>
      </trkpt>
      <trkpt lat="47.445614039897919" lon="16.414047041907907">
        <ele>310.160000000000025</ele>
        <time>2015-04-08T09:16:29Z</time>
      </trkpt>
      <trkpt lat="47.445113975554705" lon="16.413986021652818">
        <ele>312.089999999999975</ele>
        <time>2015-04-08T09:16:43Z</time>
      </trkpt>
      <trkpt lat="47.444645008072257" lon="16.413938999176025">
        <ele>314.009999999999991</ele>
        <time>2015-04-08T09:16:56Z</time>
      </trkpt>
      <trkpt lat="47.444220967590809" lon="16.414116024971008">
        <ele>316.889999999999986</ele>
        <time>2015-04-08T09:17:08Z</time>
      </trkpt>
      <trkpt lat="47.443840010091662" lon="16.414262959733605">
        <ele>318.329999999999984</ele>
        <time>2015-04-08T09:17:21Z</time>
      </trkpt>
      <trkpt lat="47.443497022613883" lon="16.414186013862491">
        <ele>320.259999999999991</ele>
        <time>2015-04-08T09:17:32Z</time>
      </trkpt>
      <trkpt lat="47.44306200183928" lon="16.413786029443145">
        <ele>320.259999999999991</ele>
        <time>2015-04-08T09:17:47Z</time>
      </trkpt>
      <trkpt lat="47.442516004666686" lon="16.412955969572067">
        <ele>322.180000000000007</ele>
        <time>2015-04-08T09:18:07Z</time>
      </trkpt>
      <trkpt lat="47.442306960001588" lon="16.412674002349377">
        <ele>324.579999999999984</ele>
        <time>2015-04-08T09:18:19Z</time>
      </trkpt>
      <trkpt lat="47.442294973880053" lon="16.412654975429177">
        <ele>325.54000000000002</ele>
        <time>2015-04-08T09:18:20Z</time>
      </trkpt>
      <trkpt lat="47.442283993586898" lon="16.4126399718225">
        <ele>325.54000000000002</ele>
        <time>2015-04-08T09:18:21Z</time>
      </trkpt>
      <trkpt lat="47.442272007465363" lon="16.412622034549713">
        <ele>325.060000000000002</ele>
        <time>2015-04-08T09:18:22Z</time>
      </trkpt>
      <trkpt lat="47.442261027172208" lon="16.412603007629514">
        <ele>325.54000000000002</ele>
        <time>2015-04-08T09:18:23Z</time>
      </trkpt>
      <trkpt lat="47.442249041050673" lon="16.412581969052553">
        <ele>325.54000000000002</ele>
        <time>2015-04-08T09:18:24Z</time>
      </trkpt>
      <trkpt lat="47.442237976938486" lon="16.412563025951385">
        <ele>325.54000000000002</ele>
        <time>2015-04-08T09:18:25Z</time>
      </trkpt>
      <trkpt lat="47.442225990816951" lon="16.412541987374425">
        <ele>326.019999999999982</ele>
        <time>2015-04-08T09:18:26Z</time>
      </trkpt>
      <trkpt lat="47.442210987210274" lon="16.412526983767748">
        <ele>326.019999999999982</ele>
        <time>2015-04-08T09:18:27Z</time>
      </trkpt>
      <trkpt lat="47.442200006917119" lon="16.41250804066658">
        <ele>326.019999999999982</ele>
        <time>2015-04-08T09:18:28Z</time>
      </trkpt>
      <trkpt lat="47.442183997482061" lon="16.412491025403142">
        <ele>326.019999999999982</ele>
        <time>2015-04-08T09:18:29Z</time>
      </trkpt>
      <trkpt lat="47.442173017188907" lon="16.412471998482943">
        <ele>326.5</ele>
        <time>2015-04-08T09:18:30Z</time>
      </trkpt>
      <trkpt lat="47.44215801358223" lon="16.412449032068253">
        <ele>326.990000000000009</ele>
        <time>2015-04-08T09:18:31Z</time>
      </trkpt>
      <trkpt lat="47.44213898666203" lon="16.412425981834531">
        <ele>326.990000000000009</ele>
        <time>2015-04-08T09:18:32Z</time>
      </trkpt>
      <trkpt lat="47.441998003050685" lon="16.412231018766761">
        <ele>328.910000000000025</ele>
        <time>2015-04-08T09:18:43Z</time>
      </trkpt>
      <trkpt lat="47.441990040242672" lon="16.4122099801898">
        <ele>329.389999999999986</ele>
        <time>2015-04-08T09:18:44Z</time>
      </trkpt>
      <trkpt lat="47.441832963377237" lon="16.411961037665606">
        <ele>331.79000000000002</ele>
        <time>2015-04-08T09:18:56Z</time>
      </trkpt>
      <trkpt lat="47.441791975870728" lon="16.41192801296711">
        <ele>332.269999999999982</ele>
        <time>2015-04-08T09:19:00Z</time>
      </trkpt>
      <trkpt lat="47.441779989749193" lon="16.411917032673955">
        <ele>332.269999999999982</ele>
        <time>2015-04-08T09:19:01Z</time>
      </trkpt>
      <trkpt lat="47.441733973100781" lon="16.411876967176795">
        <ele>332.75</ele>
        <time>2015-04-08T09:19:05Z</time>
      </trkpt>
      <trkpt lat="47.441696003079414" lon="16.411860035732388">
        <ele>333.70999999999998</ele>
        <time>2015-04-08T09:19:18Z</time>
      </trkpt>
      <trkpt lat="47.441673036664724" lon="16.411846037954092">
        <ele>334.199999999999989</ele>
        <time>2015-04-08T09:19:21Z</time>
      </trkpt>
      <trkpt lat="47.441661972552538" lon="16.411840002983809">
        <ele>334.680000000000007</ele>
        <time>2015-04-08T09:19:22Z</time>
      </trkpt>
      <trkpt lat="47.441441025584936" lon="16.411748975515366">
        <ele>337.560000000000002</ele>
        <time>2015-04-08T09:19:40Z</time>
      </trkpt>
      <trkpt lat="47.441208008676767" lon="16.41167102381587">
        <ele>340.439999999999998</ele>
        <time>2015-04-08T09:19:58Z</time>
      </trkpt>
      <trkpt lat="47.440994018688798" lon="16.411532973870635">
        <ele>343.810000000000002</ele>
        <time>2015-04-08T09:20:15Z</time>
      </trkpt>
      <trkpt lat="47.440777011215687" lon="16.411332981660962">
        <ele>347.170000000000016</ele>
        <time>2015-04-08T09:20:33Z</time>
      </trkpt>
      <trkpt lat="47.440513987094164" lon="16.411255029961467">
        <ele>350.54000000000002</ele>
        <time>2015-04-08T09:20:53Z</time>
      </trkpt>
      <trkpt lat="47.440277030691504" lon="16.411216976121068">
        <ele>351.980000000000018</ele>
        <time>2015-04-08T09:21:06Z</time>
      </trkpt>
      <trkpt lat="47.439933959394693" lon="16.411167019978166">
        <ele>353.899999999999977</ele>
        <time>2015-04-08T09:21:21Z</time>
      </trkpt>
      <trkpt lat="47.439587032422423" lon="16.411086972802877">
        <ele>356.79000000000002</ele>
        <time>2015-04-08T09:21:37Z</time>
      </trkpt>
      <trkpt lat="47.43934596888721" lon="16.411051014438272">
        <ele>357.75</ele>
        <time>2015-04-08T09:21:48Z</time>
      </trkpt>
      <trkpt lat="47.439330965280533" lon="16.411044979467988">
        <ele>357.75</ele>
        <time>2015-04-08T09:21:49Z</time>
      </trkpt>
      <trkpt lat="47.439319984987378" lon="16.411037016659975">
        <ele>358.230000000000018</ele>
        <time>2015-04-08T09:21:50Z</time>
      </trkpt>
      <trkpt lat="47.439307998865843" lon="16.411029975861311">
        <ele>358.230000000000018</ele>
        <time>2015-04-08T09:21:51Z</time>
      </trkpt>
      <trkpt lat="47.439297018572688" lon="16.41102603636682">
        <ele>358.230000000000018</ele>
        <time>2015-04-08T09:21:52Z</time>
      </trkpt>
      <trkpt lat="47.43928100913763" lon="16.411020001396537">
        <ele>358.70999999999998</ele>
        <time>2015-04-08T09:21:53Z</time>
      </trkpt>
      <trkpt lat="47.439261982217431" lon="16.411020001396537">
        <ele>358.70999999999998</ele>
        <time>2015-04-08T09:21:54Z</time>
      </trkpt>
      <trkpt lat="47.439017985016108" lon="16.410960992798209">
        <ele>360.629999999999995</ele>
        <time>2015-04-08T09:22:05Z</time>
      </trkpt>
      <trkpt lat="47.438659993931651" lon="16.41083300113678">
        <ele>362.550000000000011</ele>
        <time>2015-04-08T09:22:21Z</time>
      </trkpt>
      <trkpt lat="47.438290016725659" lon="16.410604007542133">
        <ele>364.480000000000018</ele>
        <time>2015-04-08T09:22:40Z</time>
      </trkpt>
      <trkpt lat="47.438000002875924" lon="16.410460006445646">
        <ele>365.439999999999998</ele>
        <time>2015-04-08T09:22:52Z</time>
      </trkpt>
      <trkpt lat="47.437533969059587" lon="16.410111989825964">
        <ele>368.319999999999993</ele>
        <time>2015-04-08T09:23:11Z</time>
      </trkpt>
      <trkpt lat="47.437247978523374" lon="16.409793980419636">
        <ele>369.279999999999973</ele>
        <time>2015-04-08T09:23:26Z</time>
      </trkpt>
      <trkpt lat="47.437065001577139" lon="16.409443030133843">
        <ele>370.730000000000018</ele>
        <time>2015-04-08T09:23:39Z</time>
      </trkpt>
      <trkpt lat="47.436904991045594" lon="16.409099958837032">
        <ele>372.170000000000016</ele>
        <time>2015-04-08T09:23:53Z</time>
      </trkpt>
      <trkpt lat="47.436752021312714" lon="16.408739034086466">
        <ele>374.569999999999993</ele>
        <time>2015-04-08T09:24:05Z</time>
      </trkpt>
      <trkpt lat="47.436626041308045" lon="16.408403003588319">
        <ele>375.529999999999973</ele>
        <time>2015-04-08T09:24:19Z</time>
      </trkpt>
      <trkpt lat="47.436545994132757" lon="16.408082982525229">
        <ele>377.449999999999989</ele>
        <time>2015-04-08T09:24:31Z</time>
      </trkpt>
      <trkpt lat="47.436488997191191" lon="16.407851977273822">
        <ele>379.379999999999995</ele>
        <time>2015-04-08T09:24:40Z</time>
      </trkpt>
      <trkpt lat="47.436481034383178" lon="16.407840996980667">
        <ele>378.899999999999977</ele>
        <time>2015-04-08T09:24:41Z</time>
      </trkpt>
      <trkpt lat="47.436473993584514" lon="16.407829010859132">
        <ele>378.899999999999977</ele>
        <time>2015-04-08T09:24:42Z</time>
      </trkpt>
      <trkpt lat="47.4363780207932" lon="16.407536985352635">
        <ele>380.339999999999975</ele>
        <time>2015-04-08T09:24:54Z</time>
      </trkpt>
      <trkpt lat="47.436240976676345" lon="16.407225010916591">
        <ele>382.259999999999991</ele>
        <time>2015-04-08T09:25:07Z</time>
      </trkpt>
      <trkpt lat="47.436119019985199" lon="16.406974978744984">
        <ele>383.699999999999989</ele>
        <time>2015-04-08T09:25:18Z</time>
      </trkpt>
      <trkpt lat="47.435947023332119" lon="16.406666021794081">
        <ele>386.110000000000014</ele>
        <time>2015-04-08T09:25:32Z</time>
      </trkpt>
      <trkpt lat="47.435767985880375" lon="16.406402997672558">
        <ele>387.069999999999993</ele>
        <time>2015-04-08T09:25:43Z</time>
      </trkpt>
      <trkpt lat="47.435592971742153" lon="16.406283974647522">
        <ele>389.470000000000027</ele>
        <time>2015-04-08T09:25:53Z</time>
      </trkpt>
      <trkpt lat="47.435279991477728" lon="16.406285986304283">
        <ele>389.949999999999989</ele>
        <time>2015-04-08T09:26:06Z</time>
      </trkpt>
      <trkpt lat="47.435211008414626" lon="16.406290009617805">
        <ele>389.949999999999989</ele>
        <time>2015-04-08T09:26:09Z</time>
      </trkpt>
      <trkpt lat="47.435196004807949" lon="16.406270982697606">
        <ele>389.949999999999989</ele>
        <time>2015-04-08T09:26:10Z</time>
      </trkpt>
      <trkpt lat="47.435196004807949" lon="16.406219014897943">
        <ele>391.870000000000005</ele>
        <time>2015-04-08T09:26:15Z</time>
      </trkpt>
      <trkpt lat="47.435237998142838" lon="16.406223038211465">
        <ele>390.910000000000025</ele>
        <time>2015-04-08T09:26:26Z</time>
      </trkpt>
      <trkpt lat="47.435272028669715" lon="16.406231001019478">
        <ele>390.910000000000025</ele>
        <time>2015-04-08T09:26:28Z</time>
      </trkpt>
      <trkpt lat="47.435405971482396" lon="16.406239969655871">
        <ele>390.430000000000007</ele>
        <time>2015-04-08T09:26:33Z</time>
      </trkpt>
      <trkpt lat="47.435466991737485" lon="16.406237035989761">
        <ele>393.800000000000011</ele>
        <time>2015-04-08T09:26:35Z</time>
      </trkpt>
      <trkpt lat="47.435489958152175" lon="16.406224966049194">
        <ele>392.839999999999975</ele>
        <time>2015-04-08T09:26:36Z</time>
      </trkpt>
      <trkpt lat="47.435513008385897" lon="16.406219014897943">
        <ele>392.360000000000014</ele>
        <time>2015-04-08T09:26:37Z</time>
      </trkpt>
      <trkpt lat="47.435534968972206" lon="16.406211974099278">
        <ele>390.910000000000025</ele>
        <time>2015-04-08T09:26:38Z</time>
      </trkpt>
      <trkpt lat="47.435558019205928" lon="16.406201999634504">
        <ele>391.389999999999986</ele>
        <time>2015-04-08T09:26:39Z</time>
      </trkpt>
      <trkpt lat="47.435576962307096" lon="16.406186996027827">
        <ele>390.910000000000025</ele>
        <time>2015-04-08T09:26:40Z</time>
      </trkpt>
      <trkpt lat="47.435600012540817" lon="16.406164029613137">
        <ele>390.910000000000025</ele>
        <time>2015-04-08T09:26:41Z</time>
      </trkpt>
      <trkpt lat="47.435619039461017" lon="16.406132010743022">
        <ele>391.389999999999986</ele>
        <time>2015-04-08T09:26:42Z</time>
      </trkpt>
      <trkpt lat="47.435631025582552" lon="16.406092029064894">
        <ele>390.910000000000025</ele>
        <time>2015-04-08T09:26:43Z</time>
      </trkpt>
      <trkpt lat="47.435634965077043" lon="16.406050035730004">
        <ele>391.870000000000005</ele>
        <time>2015-04-08T09:26:44Z</time>
      </trkpt>
      <trkpt lat="47.435631025582552" lon="16.406007958576083">
        <ele>390.910000000000025</ele>
        <time>2015-04-08T09:26:45Z</time>
      </trkpt>
      <trkpt lat="47.435619039461017" lon="16.405969988554716">
        <ele>391.870000000000005</ele>
        <time>2015-04-08T09:26:46Z</time>
      </trkpt>
      <trkpt lat="47.43560403585434" lon="16.405938975512981">
        <ele>392.360000000000014</ele>
        <time>2015-04-08T09:26:47Z</time>
      </trkpt>
      <trkpt lat="47.435580985620618" lon="16.405908968299627">
        <ele>391.870000000000005</ele>
        <time>2015-04-08T09:26:48Z</time>
      </trkpt>
      <trkpt lat="47.435508985072374" lon="16.40582799911499">
        <ele>393.800000000000011</ele>
        <time>2015-04-08T09:26:51Z</time>
      </trkpt>
      <trkpt lat="47.435218971222639" lon="16.405534967780113">
        <ele>395.720000000000027</ele>
        <time>2015-04-08T09:27:02Z</time>
      </trkpt>
      <trkpt lat="47.434874977916479" lon="16.405228022485971">
        <ele>398.120000000000005</ele>
        <time>2015-04-08T09:27:18Z</time>
      </trkpt>
      <trkpt lat="47.434615977108479" lon="16.405024006962776">
        <ele>400.529999999999973</ele>
        <time>2015-04-08T09:27:33Z</time>
      </trkpt>
      <trkpt lat="47.43434096686542" lon="16.404832983389497">
        <ele>403.410000000000025</ele>
        <time>2015-04-08T09:27:47Z</time>
      </trkpt>
      <trkpt lat="47.43403997272253" lon="16.404633997008204">
        <ele>404.370000000000005</ele>
        <time>2015-04-08T09:28:02Z</time>
      </trkpt>
      <trkpt lat="47.43358600884676" lon="16.404364015907049">
        <ele>406.769999999999982</ele>
        <time>2015-04-08T09:28:23Z</time>
      </trkpt>
      <trkpt lat="47.433102037757635" lon="16.40408699400723">
        <ele>408.699999999999989</ele>
        <time>2015-04-08T09:28:44Z</time>
      </trkpt>
      <trkpt lat="47.432724013924599" lon="16.403858000412583">
        <ele>412.54000000000002</ele>
        <time>2015-04-08T09:29:00Z</time>
      </trkpt>
      <trkpt lat="47.432700963690877" lon="16.403845008462667">
        <ele>412.060000000000002</ele>
        <time>2015-04-08T09:29:01Z</time>
      </trkpt>
      <trkpt lat="47.432383960112929" lon="16.40365800820291">
        <ele>415.430000000000007</ele>
        <time>2015-04-08T09:29:14Z</time>
      </trkpt>
      <trkpt lat="47.432357976213098" lon="16.403643004596233">
        <ele>415.430000000000007</ele>
        <time>2015-04-08T09:29:15Z</time>
      </trkpt>
      <trkpt lat="47.431865958496928" lon="16.403330024331808">
        <ele>416.389999999999986</ele>
        <time>2015-04-08T09:29:35Z</time>
      </trkpt>
      <trkpt lat="47.431515008211136" lon="16.4030990190804">
        <ele>419.269999999999982</ele>
        <time>2015-04-08T09:29:51Z</time>
      </trkpt>
      <trkpt lat="47.431160034611821" lon="16.402842029929161">
        <ele>420.230000000000018</ele>
        <time>2015-04-08T09:30:07Z</time>
      </trkpt>
      <trkpt lat="47.430725013837218" lon="16.402398962527514">
        <ele>423.120000000000005</ele>
        <time>2015-04-08T09:30:25Z</time>
      </trkpt>
      <trkpt lat="47.430304996669292" lon="16.401861011981964">
        <ele>424.560000000000002</ele>
        <time>2015-04-08T09:30:43Z</time>
      </trkpt>
      <trkpt lat="47.430153032764792" lon="16.401646016165614">
        <ele>426</ele>
        <time>2015-04-08T09:30:50Z</time>
      </trkpt>
      <trkpt lat="47.429779032245278" lon="16.401003040373325">
        <ele>426.95999999999998</ele>
        <time>2015-04-08T09:31:08Z</time>
      </trkpt>
      <trkpt lat="47.429381981492043" lon="16.400053035467863">
        <ele>427.439999999999998</ele>
        <time>2015-04-08T09:31:28Z</time>
      </trkpt>
      <trkpt lat="47.429133960977197" lon="16.399332024157047">
        <ele>427.439999999999998</ele>
        <time>2015-04-08T09:31:45Z</time>
      </trkpt>
      <trkpt lat="47.429127003997564" lon="16.399238985031843">
        <ele>428.399999999999977</ele>
        <time>2015-04-08T09:31:48Z</time>
      </trkpt>
      <trkpt lat="47.429137984290719" lon="16.399214006960392">
        <ele>427.920000000000016</ele>
        <time>2015-04-08T09:31:49Z</time>
      </trkpt>
      <trkpt lat="47.429146030917764" lon="16.39918701723218">
        <ele>427.920000000000016</ele>
        <time>2015-04-08T09:31:50Z</time>
      </trkpt>
      <trkpt lat="47.429152987897396" lon="16.399130020290613">
        <ele>427.920000000000016</ele>
        <time>2015-04-08T09:31:52Z</time>
      </trkpt>
      <trkpt lat="47.429146030917764" lon="16.399103030562401">
        <ele>427.439999999999998</ele>
        <time>2015-04-08T09:31:53Z</time>
      </trkpt>
      <trkpt lat="47.429100014269352" lon="16.39901896007359">
        <ele>427.920000000000016</ele>
        <time>2015-04-08T09:32:06Z</time>
      </trkpt>
      <trkpt lat="47.429100014269352" lon="16.39901896007359">
        <ele>428.399999999999977</ele>
        <time>2015-04-08T09:32:39Z</time>
      </trkpt>
      <trkpt lat="47.42909599095583" lon="16.399024995043874">
        <ele>428.889999999999986</ele>
        <time>2015-04-08T09:33:16Z</time>
      </trkpt>
      <trkpt lat="47.429080987349153" lon="16.399020971730351">
        <ele>428.399999999999977</ele>
        <time>2015-04-08T09:33:17Z</time>
      </trkpt>
      <trkpt lat="47.429058020934463" lon="16.399009991437197">
        <ele>428.889999999999986</ele>
        <time>2015-04-08T09:33:18Z</time>
      </trkpt>
      <trkpt lat="47.429038994014263" lon="16.398990964516997">
        <ele>428.399999999999977</ele>
        <time>2015-04-08T09:33:19Z</time>
      </trkpt>
      <trkpt lat="47.429016027599573" lon="16.398963974788785">
        <ele>428.399999999999977</ele>
        <time>2015-04-08T09:33:20Z</time>
      </trkpt>
      <trkpt lat="47.428997000679374" lon="16.398921981453896">
        <ele>428.399999999999977</ele>
        <time>2015-04-08T09:33:21Z</time>
      </trkpt>
      <trkpt lat="47.428977973759174" lon="16.398872025310993">
        <ele>428.889999999999986</ele>
        <time>2015-04-08T09:33:22Z</time>
      </trkpt>
      <trkpt lat="47.428524009883404" lon="16.397881032899022">
        <ele>427.920000000000016</ele>
        <time>2015-04-08T09:33:38Z</time>
      </trkpt>
      <trkpt lat="47.428359976038337" lon="16.397560006007552">
        <ele>427.439999999999998</ele>
        <time>2015-04-08T09:33:43Z</time>
      </trkpt>
      <trkpt lat="47.428157972171903" lon="16.397200003266335">
        <ele>424.079999999999984</ele>
        <time>2015-04-08T09:33:49Z</time>
      </trkpt>
      <trkpt lat="47.42769998498261" lon="16.396501958370209">
        <ele>421.189999999999998</ele>
        <time>2015-04-08T09:34:00Z</time>
      </trkpt>
      <trkpt lat="47.427310980856419" lon="16.396018993109465">
        <ele>417.350000000000023</ele>
        <time>2015-04-08T09:34:07Z</time>
      </trkpt>
      <trkpt lat="47.427044017240405" lon="16.395723028108478">
        <ele>413.980000000000018</ele>
        <time>2015-04-08T09:34:11Z</time>
      </trkpt>
      <trkpt lat="47.426967993378639" lon="16.395649015903473">
        <ele>413.980000000000018</ele>
        <time>2015-04-08T09:34:12Z</time>
      </trkpt>
      <trkpt lat="47.426646966487169" lon="16.395348021760583">
        <ele>410.620000000000005</ele>
        <time>2015-04-08T09:34:16Z</time>
      </trkpt>
      <trkpt lat="47.426285035908222" lon="16.395053984597325">
        <ele>407.259999999999991</ele>
        <time>2015-04-08T09:34:20Z</time>
      </trkpt>
      <trkpt lat="47.425883961841464" lon="16.394776962697506">
        <ele>403.410000000000025</ele>
        <time>2015-04-08T09:34:24Z</time>
      </trkpt>
      <trkpt lat="47.425784971565008" lon="16.394712002947927">
        <ele>403.889999999999986</ele>
        <time>2015-04-08T09:34:25Z</time>
      </trkpt>
      <trkpt lat="47.425480037927628" lon="16.394539000466466">
        <ele>400.050000000000011</ele>
        <time>2015-04-08T09:34:28Z</time>
      </trkpt>
      <trkpt lat="47.425377024337649" lon="16.394484015181661">
        <ele>400.050000000000011</ele>
        <time>2015-04-08T09:34:29Z</time>
      </trkpt>
      <trkpt lat="47.424937980249524" lon="16.394300032407045">
        <ele>396.680000000000007</ele>
        <time>2015-04-08T09:34:33Z</time>
      </trkpt>
      <trkpt lat="47.424594992771745" lon="16.394174974411726">
        <ele>393.319999999999993</ele>
        <time>2015-04-08T09:34:36Z</time>
      </trkpt>
      <trkpt lat="47.424252005293965" lon="16.394051006063819">
        <ele>388.990000000000009</ele>
        <time>2015-04-08T09:34:39Z</time>
      </trkpt>
      <trkpt lat="47.424137005582452" lon="16.394004989415407">
        <ele>390.430000000000007</ele>
        <time>2015-04-08T09:34:40Z</time>
      </trkpt>
      <trkpt lat="47.423794018104672" lon="16.393844978883862">
        <ele>387.550000000000011</ele>
        <time>2015-04-08T09:34:43Z</time>
      </trkpt>
      <trkpt lat="47.423152970150113" lon="16.393428985029459">
        <ele>384.180000000000007</ele>
        <time>2015-04-08T09:34:49Z</time>
      </trkpt>
      <trkpt lat="47.422149991616607" lon="16.392638990655541">
        <ele>384.180000000000007</ele>
        <time>2015-04-08T09:35:01Z</time>
      </trkpt>
      <trkpt lat="47.421696027740836" lon="16.392372027039528">
        <ele>386.589999999999975</ele>
        <time>2015-04-08T09:35:09Z</time>
      </trkpt>
      <trkpt lat="47.421515984460711" lon="16.392315030097961">
        <ele>387.550000000000011</ele>
        <time>2015-04-08T09:35:13Z</time>
      </trkpt>
      <trkpt lat="47.421108037233353" lon="16.3922059815377">
        <ele>390.430000000000007</ele>
        <time>2015-04-08T09:35:25Z</time>
      </trkpt>
      <trkpt lat="47.420768989250064" lon="16.392148984596133">
        <ele>392.360000000000014</ele>
        <time>2015-04-08T09:35:37Z</time>
      </trkpt>
      <trkpt lat="47.420550975948572" lon="16.392113026231527">
        <ele>395.240000000000009</ele>
        <time>2015-04-08T09:35:47Z</time>
      </trkpt>
      <trkpt lat="47.420300021767616" lon="16.392115037888288">
        <ele>396.680000000000007</ele>
        <time>2015-04-08T09:35:59Z</time>
      </trkpt>
      <trkpt lat="47.419952005147934" lon="16.392096010968089">
        <ele>397.639999999999986</ele>
        <time>2015-04-08T09:36:13Z</time>
      </trkpt>
      <trkpt lat="47.419616980478168" lon="16.392087964341044">
        <ele>399.079999999999984</ele>
        <time>2015-04-08T09:36:25Z</time>
      </trkpt>
      <trkpt lat="47.419052040204406" lon="16.392086036503315">
        <ele>401.009999999999991</ele>
        <time>2015-04-08T09:36:41Z</time>
      </trkpt>
      <trkpt lat="47.418419038876891" lon="16.391974976286292">
        <ele>400.050000000000011</ele>
        <time>2015-04-08T09:36:57Z</time>
      </trkpt>
      <trkpt lat="47.417777990922332" lon="16.391629977151752">
        <ele>397.160000000000025</ele>
        <time>2015-04-08T09:37:10Z</time>
      </trkpt>
      <trkpt lat="47.417663997039199" lon="16.39153903350234">
        <ele>396.199999999999989</ele>
        <time>2015-04-08T09:37:12Z</time>
      </trkpt>
      <trkpt lat="47.417484037578106" lon="16.39139000326395">
        <ele>394.759999999999991</ele>
        <time>2015-04-08T09:37:15Z</time>
      </trkpt>
      <trkpt lat="47.417159993201494" lon="16.391038969159126">
        <ele>390.910000000000025</ele>
        <time>2015-04-08T09:37:20Z</time>
      </trkpt>
      <trkpt lat="47.416962012648582" lon="16.390778962522745">
        <ele>389.470000000000027</ele>
        <time>2015-04-08T09:37:23Z</time>
      </trkpt>
      <trkpt lat="47.416759002953768" lon="16.390479980036616">
        <ele>386.589999999999975</ele>
        <time>2015-04-08T09:37:26Z</time>
      </trkpt>
      <trkpt lat="47.416495978832245" lon="16.390030039474368">
        <ele>383.220000000000027</ele>
        <time>2015-04-08T09:37:30Z</time>
      </trkpt>
      <trkpt lat="47.416214011609554" lon="16.38949804008007">
        <ele>379.379999999999995</ele>
        <time>2015-04-08T09:37:35Z</time>
      </trkpt>
      <trkpt lat="47.416157014667988" lon="16.389388991519809">
        <ele>379.379999999999995</ele>
        <time>2015-04-08T09:37:36Z</time>
      </trkpt>
      <trkpt lat="47.415923997759819" lon="16.388926981016994">
        <ele>376.490000000000009</ele>
        <time>2015-04-08T09:37:40Z</time>
      </trkpt>
      <trkpt lat="47.415675977244973" lon="16.388462036848068">
        <ele>373.610000000000014</ele>
        <time>2015-04-08T09:37:44Z</time>
      </trkpt>
      <trkpt lat="47.415337013080716" lon="16.387891983613372">
        <ele>369.759999999999991</ele>
        <time>2015-04-08T09:37:49Z</time>
      </trkpt>
      <trkpt lat="47.41510801948607" lon="16.38754497282207">
        <ele>366.399999999999977</ele>
        <time>2015-04-08T09:37:52Z</time>
      </trkpt>
      <trkpt lat="47.414798978716135" lon="16.387108024209738">
        <ele>363.04000000000002</ele>
        <time>2015-04-08T09:37:56Z</time>
      </trkpt>
      <trkpt lat="47.414641985669732" lon="16.386901997029781">
        <ele>362.069999999999993</ele>
        <time>2015-04-08T09:37:58Z</time>
      </trkpt>
      <trkpt lat="47.414391031488776" lon="16.386591028422117">
        <ele>358.230000000000018</ele>
        <time>2015-04-08T09:38:01Z</time>
      </trkpt>
      <trkpt lat="47.41397101432085" lon="16.386079983785748">
        <ele>354.379999999999995</ele>
        <time>2015-04-08T09:38:06Z</time>
      </trkpt>
      <trkpt lat="47.41356298327446" lon="16.385597018525004">
        <ele>350.54000000000002</ele>
        <time>2015-04-08T09:38:11Z</time>
      </trkpt>
      <trkpt lat="47.41317699663341" lon="16.385120004415512">
        <ele>348.129999999999995</ele>
        <time>2015-04-08T09:38:16Z</time>
      </trkpt>
      <trkpt lat="47.412841971963644" lon="16.384667968377471">
        <ele>344.769999999999982</ele>
        <time>2015-04-08T09:38:21Z</time>
      </trkpt>
      <trkpt lat="47.412102017551661" lon="16.383570022881031">
        <ele>343.329999999999984</ele>
        <time>2015-04-08T09:38:35Z</time>
      </trkpt>
      <trkpt lat="47.411315962672234" lon="16.382523039355874">
        <ele>343.329999999999984</ele>
        <time>2015-04-08T09:38:53Z</time>
      </trkpt>
      <trkpt lat="47.410644991323352" lon="16.381960026919842">
        <ele>343.810000000000002</ele>
        <time>2015-04-08T09:39:07Z</time>
      </trkpt>
      <trkpt lat="47.409904031082988" lon="16.381744025275111">
        <ele>342.850000000000023</ele>
        <time>2015-04-08T09:39:22Z</time>
      </trkpt>
      <trkpt lat="47.408801978453994" lon="16.381603041663766">
        <ele>343.329999999999984</ele>
        <time>2015-04-08T09:39:42Z</time>
      </trkpt>
      <trkpt lat="47.407966973260045" lon="16.38120498508215">
        <ele>343.329999999999984</ele>
        <time>2015-04-08T09:39:59Z</time>
      </trkpt>
      <trkpt lat="47.407424999400973" lon="16.380449021235108">
        <ele>345.25</ele>
        <time>2015-04-08T09:40:16Z</time>
      </trkpt>
      <trkpt lat="47.406971035525203" lon="16.37955098412931">
        <ele>347.649999999999977</ele>
        <time>2015-04-08T09:40:36Z</time>
      </trkpt>
      <trkpt lat="47.4065360147506" lon="16.378703992813826">
        <ele>349.100000000000023</ele>
        <time>2015-04-08T09:40:56Z</time>
      </trkpt>
      <trkpt lat="47.406012983992696" lon="16.377962026745081">
        <ele>349.100000000000023</ele>
        <time>2015-04-08T09:41:15Z</time>
      </trkpt>
      <trkpt lat="47.405174039304256" lon="16.377302035689354">
        <ele>349.579999999999984</ele>
        <time>2015-04-08T09:41:36Z</time>
      </trkpt>
      <trkpt lat="47.40449502132833" lon="16.376837007701397">
        <ele>350.54000000000002</ele>
        <time>2015-04-08T09:41:53Z</time>
      </trkpt>
      <trkpt lat="47.403908036649227" lon="16.376194031909108">
        <ele>351.019999999999982</ele>
        <time>2015-04-08T09:42:09Z</time>
      </trkpt>
      <trkpt lat="47.403446026146412" lon="16.375318961217999">
        <ele>351.5</ele>
        <time>2015-04-08T09:42:27Z</time>
      </trkpt>
      <trkpt lat="47.403167998418212" lon="16.374468030408025">
        <ele>352.45999999999998</ele>
        <time>2015-04-08T09:42:44Z</time>
      </trkpt>
      <trkpt lat="47.4028629809618" lon="16.374299973249435">
        <ele>351.980000000000018</ele>
        <time>2015-04-08T09:42:56Z</time>
      </trkpt>
      <trkpt lat="47.402859041467309" lon="16.374277006834745">
        <ele>351.980000000000018</ele>
        <time>2015-04-08T09:42:57Z</time>
      </trkpt>
      <trkpt lat="47.402859041467309" lon="16.374254040420055">
        <ele>352.45999999999998</ele>
        <time>2015-04-08T09:42:58Z</time>
      </trkpt>
      <trkpt lat="47.402859041467309" lon="16.374233001843095">
        <ele>351.980000000000018</ele>
        <time>2015-04-08T09:43:08Z</time>
      </trkpt>
      <trkpt lat="47.4028629809618" lon="16.374228978529572">
        <ele>353.420000000000016</ele>
        <time>2015-04-08T09:43:26Z</time>
      </trkpt>
      <trkpt lat="47.402859041467309" lon="16.374227972701192">
        <ele>352.939999999999998</ele>
        <time>2015-04-08T09:43:41Z</time>
      </trkpt>
      <trkpt lat="47.402865998446941" lon="16.374220009893179">
        <ele>352.939999999999998</ele>
        <time>2015-04-08T09:43:57Z</time>
      </trkpt>
      <trkpt lat="47.402885025367141" lon="16.374227972701192">
        <ele>352.939999999999998</ele>
        <time>2015-04-08T09:44:06Z</time>
      </trkpt>
      <trkpt lat="47.402901034802198" lon="16.374225961044431">
        <ele>352.939999999999998</ele>
        <time>2015-04-08T09:44:07Z</time>
      </trkpt>
      <trkpt lat="47.402919977903366" lon="16.374227972701192">
        <ele>353.420000000000016</ele>
        <time>2015-04-08T09:44:11Z</time>
      </trkpt>
      <trkpt lat="47.402901034802198" lon="16.374240964651108">
        <ele>352.939999999999998</ele>
        <time>2015-04-08T09:44:13Z</time>
      </trkpt>
      <trkpt lat="47.402888964861631" lon="16.374249011278152">
        <ele>352.939999999999998</ele>
        <time>2015-04-08T09:44:14Z</time>
      </trkpt>
      <trkpt lat="47.402877984568477" lon="16.374284969642758">
        <ele>351.980000000000018</ele>
        <time>2015-04-08T09:44:27Z</time>
      </trkpt>
      <trkpt lat="47.402877984568477" lon="16.374284969642758">
        <ele>352.45999999999998</ele>
        <time>2015-04-08T09:44:51Z</time>
      </trkpt>
      <trkpt lat="47.402873961254954" lon="16.374268038198352">
        <ele>352.45999999999998</ele>
        <time>2015-04-08T09:45:12Z</time>
      </trkpt>
      <trkpt lat="47.402873961254954" lon="16.374268038198352">
        <ele>352.45999999999998</ele>
        <time>2015-04-08T09:45:52Z</time>
      </trkpt>
      <trkpt lat="47.402873961254954" lon="16.374268038198352">
        <ele>351.980000000000018</ele>
        <time>2015-04-08T09:46:05Z</time>
      </trkpt>
      <trkpt lat="47.402873961254954" lon="16.374268038198352">
        <ele>351.980000000000018</ele>
        <time>2015-04-08T09:46:42Z</time>
      </trkpt>
      <trkpt lat="47.402873961254954" lon="16.374270971864462">
        <ele>352.45999999999998</ele>
        <time>2015-04-08T09:47:19Z</time>
      </trkpt>
      <trkpt lat="47.402873961254954" lon="16.374272983521223">
        <ele>351.980000000000018</ele>
        <time>2015-04-08T09:47:55Z</time>
      </trkpt>
      <trkpt lat="47.402873961254954" lon="16.374279018491507">
        <ele>351.980000000000018</ele>
        <time>2015-04-08T09:48:33Z</time>
      </trkpt>
      <trkpt lat="47.402873961254954" lon="16.374279018491507">
        <ele>351.019999999999982</ele>
        <time>2015-04-08T09:49:13Z</time>
      </trkpt>
      <trkpt lat="47.402882007881999" lon="16.374281030148268">
        <ele>351.980000000000018</ele>
        <time>2015-04-08T09:49:50Z</time>
      </trkpt>
      <trkpt lat="47.402885025367141" lon="16.374268960207701">
        <ele>351.980000000000018</ele>
        <time>2015-04-08T09:50:05Z</time>
      </trkpt>
      <trkpt lat="47.402892988175154" lon="16.374242976307869">
        <ele>352.45999999999998</ele>
        <time>2015-04-08T09:50:41Z</time>
      </trkpt>
      <trkpt lat="47.402901034802198" lon="16.374227972701192">
        <ele>351.5</ele>
        <time>2015-04-08T09:51:15Z</time>
      </trkpt>
      <trkpt lat="47.402901034802198" lon="16.374225961044431">
        <ele>352.45999999999998</ele>
        <time>2015-04-08T09:51:57Z</time>
      </trkpt>
      <trkpt lat="47.402904974296689" lon="16.374217998236418">
        <ele>350.54000000000002</ele>
        <time>2015-04-08T09:52:35Z</time>
      </trkpt>
      <trkpt lat="47.402904974296689" lon="16.374217998236418">
        <ele>352.45999999999998</ele>
        <time>2015-04-08T09:53:12Z</time>
      </trkpt>
      <trkpt lat="47.402901034802198" lon="16.374220009893179">
        <ele>352.45999999999998</ele>
        <time>2015-04-08T09:53:21Z</time>
      </trkpt>
      <trkpt lat="47.402885025367141" lon="16.374227972701192">
        <ele>352.45999999999998</ele>
        <time>2015-04-08T09:53:38Z</time>
      </trkpt>
      <trkpt lat="47.402885025367141" lon="16.374227972701192">
        <ele>351.5</ele>
        <time>2015-04-08T09:53:41Z</time>
      </trkpt>
      <trkpt lat="47.402683021500707" lon="16.374169969931245">
        <ele>351.980000000000018</ele>
        <time>2015-04-08T09:53:51Z</time>
      </trkpt>
      <trkpt lat="47.402232997119427" lon="16.374217998236418">
        <ele>351.019999999999982</ele>
        <time>2015-04-08T09:54:05Z</time>
      </trkpt>
      <trkpt lat="47.401900989934802" lon="16.374053964391351">
        <ele>351.5</ele>
        <time>2015-04-08T09:54:16Z</time>
      </trkpt>
      <trkpt lat="47.40172203630209" lon="16.373774008825421">
        <ele>352.45999999999998</ele>
        <time>2015-04-08T09:54:22Z</time>
      </trkpt>
      <trkpt lat="47.401614999398589" lon="16.373589020222425">
        <ele>352.45999999999998</ele>
        <time>2015-04-08T09:54:26Z</time>
      </trkpt>
      <trkpt lat="47.401366978883743" lon="16.373230023309588">
        <ele>353.899999999999977</ele>
        <time>2015-04-08T09:54:34Z</time>
      </trkpt>
      <trkpt lat="47.401333032175899" lon="16.373193981125951">
        <ele>353.899999999999977</ele>
        <time>2015-04-08T09:54:35Z</time>
      </trkpt>
      <trkpt lat="47.401302019134164" lon="16.373156011104584">
        <ele>353.899999999999977</ele>
        <time>2015-04-08T09:54:36Z</time>
      </trkpt>
      <trkpt lat="47.401276035234332" lon="16.373120974749327">
        <ele>353.899999999999977</ele>
        <time>2015-04-08T09:54:37Z</time>
      </trkpt>
      <trkpt lat="47.40125298500061" lon="16.373089039698243">
        <ele>353.420000000000016</ele>
        <time>2015-04-08T09:54:38Z</time>
      </trkpt>
      <trkpt lat="47.400898011401296" lon="16.372766001150012">
        <ele>354.860000000000014</ele>
        <time>2015-04-08T09:54:50Z</time>
      </trkpt>
      <trkpt lat="47.400516970083117" lon="16.372691988945007">
        <ele>356.310000000000002</ele>
        <time>2015-04-08T09:55:02Z</time>
      </trkpt>
      <trkpt lat="47.400275990366936" lon="16.372474981471896">
        <ele>357.75</ele>
        <time>2015-04-08T09:55:13Z</time>
      </trkpt>
      <trkpt lat="47.4000050034374" lon="16.372111961245537">
        <ele>358.70999999999998</ele>
        <time>2015-04-08T09:55:26Z</time>
      </trkpt>
      <trkpt lat="47.399761006236076" lon="16.371823959052563">
        <ele>361.110000000000014</ele>
        <time>2015-04-08T09:55:39Z</time>
      </trkpt>
      <trkpt lat="47.399543998762965" lon="16.371585996821523">
        <ele>363.519999999999982</ele>
        <time>2015-04-08T09:55:52Z</time>
      </trkpt>
      <trkpt lat="47.399409972131252" lon="16.371403019875288">
        <ele>364.95999999999998</ele>
        <time>2015-04-08T09:56:01Z</time>
      </trkpt>
      <trkpt lat="47.399367978796363" lon="16.3713229727">
        <ele>365.920000000000016</ele>
        <time>2015-04-08T09:56:04Z</time>
      </trkpt>
      <trkpt lat="47.399349035695195" lon="16.371304029598832">
        <ele>365.920000000000016</ele>
        <time>2015-04-08T09:56:05Z</time>
      </trkpt>
      <trkpt lat="47.399334032088518" lon="16.371288020163774">
        <ele>366.399999999999977</ele>
        <time>2015-04-08T09:56:06Z</time>
      </trkpt>
      <trkpt lat="47.399315005168319" lon="16.37128097936511">
        <ele>366.399999999999977</ele>
        <time>2015-04-08T09:56:07Z</time>
      </trkpt>
      <trkpt lat="47.399300001561642" lon="16.371268993243575">
        <ele>366.399999999999977</ele>
        <time>2015-04-08T09:56:08Z</time>
      </trkpt>
      <trkpt lat="47.399288015440106" lon="16.371249966323376">
        <ele>366.399999999999977</ele>
        <time>2015-04-08T09:56:09Z</time>
      </trkpt>
      <trkpt lat="47.399280974641442" lon="16.371226999908686">
        <ele>366.879999999999995</ele>
        <time>2015-04-08T09:56:10Z</time>
      </trkpt>
      <trkpt lat="47.399143008515239" lon="16.371059026569128">
        <ele>368.319999999999993</ele>
        <time>2015-04-08T09:56:21Z</time>
      </trkpt>
      <trkpt lat="47.399020968005061" lon="16.370864985510707">
        <ele>369.759999999999991</ele>
        <time>2015-04-08T09:56:33Z</time>
      </trkpt>
      <trkpt lat="47.398963971063495" lon="16.370728025212884">
        <ele>371.20999999999998</ele>
        <time>2015-04-08T09:56:40Z</time>
      </trkpt>
      <trkpt lat="47.398956008255482" lon="16.370717966929078">
        <ele>371.20999999999998</ele>
        <time>2015-04-08T09:56:41Z</time>
      </trkpt>
      <trkpt lat="47.398948967456818" lon="16.370706986635923">
        <ele>371.20999999999998</ele>
        <time>2015-04-08T09:56:42Z</time>
      </trkpt>
      <trkpt lat="47.398890964686871" lon="16.370545970275998">
        <ele>373.610000000000014</ele>
        <time>2015-04-08T09:56:50Z</time>
      </trkpt>
      <trkpt lat="47.398890964686871" lon="16.370530966669321">
        <ele>373.129999999999995</ele>
        <time>2015-04-08T09:56:51Z</time>
      </trkpt>
      <trkpt lat="47.398884007707238" lon="16.370519986376166">
        <ele>373.610000000000014</ele>
        <time>2015-04-08T09:56:52Z</time>
      </trkpt>
      <trkpt lat="47.398872021585703" lon="16.370508000254631">
        <ele>373.610000000000014</ele>
        <time>2015-04-08T09:56:53Z</time>
      </trkpt>
      <trkpt lat="47.398861041292548" lon="16.370497019961476">
        <ele>373.610000000000014</ele>
        <time>2015-04-08T09:56:54Z</time>
      </trkpt>
      <trkpt lat="47.398848971351981" lon="16.37048302218318">
        <ele>374.089999999999975</ele>
        <time>2015-04-08T09:56:55Z</time>
      </trkpt>
      <trkpt lat="47.398842014372349" lon="16.37046399526298">
        <ele>374.089999999999975</ele>
        <time>2015-04-08T09:56:56Z</time>
      </trkpt>
      <trkpt lat="47.398842014372349" lon="16.37044102884829">
        <ele>374.089999999999975</ele>
        <time>2015-04-08T09:56:57Z</time>
      </trkpt>
      <trkpt lat="47.398842014372349" lon="16.370413033291698">
        <ele>374.569999999999993</ele>
        <time>2015-04-08T09:56:58Z</time>
      </trkpt>
      <trkpt lat="47.398837991058826" lon="16.370385959744453">
        <ele>374.569999999999993</ele>
        <time>2015-04-08T09:56:59Z</time>
      </trkpt>
      <trkpt lat="47.398785017430782" lon="16.370235001668334">
        <ele>376.009999999999991</ele>
        <time>2015-04-08T09:57:06Z</time>
      </trkpt>
      <trkpt lat="47.398773031309247" lon="16.370213963091373">
        <ele>376.009999999999991</ele>
        <time>2015-04-08T09:57:07Z</time>
      </trkpt>
      <trkpt lat="47.398765990510583" lon="16.370192002505064">
        <ele>375.529999999999973</ele>
        <time>2015-04-08T09:57:08Z</time>
      </trkpt>
      <trkpt lat="47.398761967197061" lon="16.370167024433613">
        <ele>376.009999999999991</ele>
        <time>2015-04-08T09:57:09Z</time>
      </trkpt>
      <trkpt lat="47.398754004389048" lon="16.370143974199891">
        <ele>376.009999999999991</ele>
        <time>2015-04-08T09:57:10Z</time>
      </trkpt>
      <trkpt lat="47.398749981075525" lon="16.370125031098723">
        <ele>376.009999999999991</ele>
        <time>2015-04-08T09:57:11Z</time>
      </trkpt>
      <trkpt lat="47.398743024095893" lon="16.370103992521763">
        <ele>375.529999999999973</ele>
        <time>2015-04-08T09:57:12Z</time>
      </trkpt>
      <trkpt lat="47.398739000782371" lon="16.370084965601563">
        <ele>376.009999999999991</ele>
        <time>2015-04-08T09:57:13Z</time>
      </trkpt>
      <trkpt lat="47.398734977468848" lon="16.370059987530112">
        <ele>376.009999999999991</ele>
        <time>2015-04-08T09:57:14Z</time>
      </trkpt>
      <trkpt lat="47.398727014660835" lon="16.370040960609913">
        <ele>376.009999999999991</ele>
        <time>2015-04-08T09:57:15Z</time>
      </trkpt>
      <trkpt lat="47.398716034367681" lon="16.370022017508745">
        <ele>376.009999999999991</ele>
        <time>2015-04-08T09:57:16Z</time>
      </trkpt>
      <trkpt lat="47.398707987740636" lon="16.370002990588546">
        <ele>376.970000000000027</ele>
        <time>2015-04-08T09:57:17Z</time>
      </trkpt>
      <trkpt lat="47.398701030761003" lon="16.369980024173856">
        <ele>377.449999999999989</ele>
        <time>2015-04-08T09:57:18Z</time>
      </trkpt>
      <trkpt lat="47.398692984133959" lon="16.369956973940134">
        <ele>376.970000000000027</ele>
        <time>2015-04-08T09:57:19Z</time>
      </trkpt>
      <trkpt lat="47.39863196387887" lon="16.369695961475372">
        <ele>378.899999999999977</ele>
        <time>2015-04-08T09:57:30Z</time>
      </trkpt>
      <trkpt lat="47.398620983585715" lon="16.369672995060682">
        <ele>379.379999999999995</ele>
        <time>2015-04-08T09:57:31Z</time>
      </trkpt>
      <trkpt lat="47.39860899746418" lon="16.36964600533247">
        <ele>379.379999999999995</ele>
        <time>2015-04-08T09:57:32Z</time>
      </trkpt>
      <trkpt lat="47.398602040484548" lon="16.369621027261019">
        <ele>379.379999999999995</ele>
        <time>2015-04-08T09:57:33Z</time>
      </trkpt>
      <trkpt lat="47.398598017171025" lon="16.369595965370536">
        <ele>379.379999999999995</ele>
        <time>2015-04-08T09:57:34Z</time>
      </trkpt>
      <trkpt lat="47.398593993857503" lon="16.369571993127465">
        <ele>378.899999999999977</ele>
        <time>2015-04-08T09:57:35Z</time>
      </trkpt>
      <trkpt lat="47.398505983874202" lon="16.369116017594934">
        <ele>378.899999999999977</ele>
        <time>2015-04-08T09:57:48Z</time>
      </trkpt>
      <trkpt lat="47.398387966677547" lon="16.368461977690458">
        <ele>378.420000000000016</ele>
        <time>2015-04-08T09:58:03Z</time>
      </trkpt>
      <trkpt lat="47.398147992789745" lon="16.367423962801695">
        <ele>376.490000000000009</ele>
        <time>2015-04-08T09:58:18Z</time>
      </trkpt>
      <trkpt lat="47.398032993078232" lon="16.36668199673295">
        <ele>373.610000000000014</ele>
        <time>2015-04-08T09:58:25Z</time>
      </trkpt>
      <trkpt lat="47.398002985864878" lon="16.36644403450191">
        <ele>372.170000000000016</ele>
        <time>2015-04-08T09:58:27Z</time>
      </trkpt>
      <trkpt lat="47.397953029721975" lon="16.366073973476887">
        <ele>370.240000000000009</ele>
        <time>2015-04-08T09:58:30Z</time>
      </trkpt>
      <trkpt lat="47.397868959233165" lon="16.365726040676236">
        <ele>368.800000000000011</ele>
        <time>2015-04-08T09:58:33Z</time>
      </trkpt>
      <trkpt lat="47.397823026403785" lon="16.365620009601116">
        <ele>368.800000000000011</ele>
        <time>2015-04-08T09:58:34Z</time>
      </trkpt>
      <trkpt lat="47.397773992270231" lon="16.365522025153041">
        <ele>368.800000000000011</ele>
        <time>2015-04-08T09:58:35Z</time>
      </trkpt>
      <trkpt lat="47.397716995328665" lon="16.365437032654881">
        <ele>368.319999999999993</ele>
        <time>2015-04-08T09:58:36Z</time>
      </trkpt>
      <trkpt lat="47.397658992558718" lon="16.365354973822832">
        <ele>367.839999999999975</ele>
        <time>2015-04-08T09:58:37Z</time>
      </trkpt>
      <trkpt lat="47.397601995617151" lon="16.365280039608479">
        <ele>367.839999999999975</ele>
        <time>2015-04-08T09:58:38Z</time>
      </trkpt>
      <trkpt lat="47.397353975102305" lon="16.364916013553739">
        <ele>367.839999999999975</ele>
        <time>2015-04-08T09:58:43Z</time>
      </trkpt>
      <trkpt lat="47.397102015092969" lon="16.364236995577812">
        <ele>367.839999999999975</ele>
        <time>2015-04-08T09:58:53Z</time>
      </trkpt>
      <trkpt lat="47.397076031193137" lon="16.364100035279989">
        <ele>367.839999999999975</ele>
        <time>2015-04-08T09:58:55Z</time>
      </trkpt>
      <trkpt lat="47.39704099483788" lon="16.363755958154798">
        <ele>368.800000000000011</ele>
        <time>2015-04-08T09:59:00Z</time>
      </trkpt>
      <trkpt lat="47.396988021209836" lon="16.363163022324443">
        <ele>370.240000000000009</ele>
        <time>2015-04-08T09:59:11Z</time>
      </trkpt>
      <trkpt lat="47.396850977092981" lon="16.362776029855013">
        <ele>371.689999999999998</ele>
        <time>2015-04-08T09:59:22Z</time>
      </trkpt>
      <trkpt lat="47.396724997088313" lon="16.362163983285427">
        <ele>371.689999999999998</ele>
        <time>2015-04-08T09:59:35Z</time>
      </trkpt>
      <trkpt lat="47.396553000435233" lon="16.361659979447722">
        <ele>373.129999999999995</ele>
        <time>2015-04-08T09:59:47Z</time>
      </trkpt>
      <trkpt lat="47.396335992962122" lon="16.361054973676801">
        <ele>373.610000000000014</ele>
        <time>2015-04-08T10:00:01Z</time>
      </trkpt>
      <trkpt lat="47.39611797966063" lon="16.360399005934596">
        <ele>373.610000000000014</ele>
        <time>2015-04-08T10:00:15Z</time>
      </trkpt>
      <trkpt lat="47.395824026316404" lon="16.359638012945652">
        <ele>375.050000000000011</ele>
        <time>2015-04-08T10:00:30Z</time>
      </trkpt>
      <trkpt lat="47.395511968061328" lon="16.358938040211797">
        <ele>376.970000000000027</ele>
        <time>2015-04-08T10:00:45Z</time>
      </trkpt>
      <trkpt lat="47.395156994462013" lon="16.358239995315671">
        <ele>378.899999999999977</ele>
        <time>2015-04-08T10:01:03Z</time>
      </trkpt>
      <trkpt lat="47.394886007532477" lon="16.357710007578135">
        <ele>379.860000000000014</ele>
        <time>2015-04-08T10:01:18Z</time>
      </trkpt>
      <trkpt lat="47.394543020054698" lon="16.356982961297035">
        <ele>380.339999999999975</ele>
        <time>2015-04-08T10:01:36Z</time>
      </trkpt>
      <trkpt lat="47.394115040078759" lon="16.356041003018618">
        <ele>380.339999999999975</ele>
        <time>2015-04-08T10:01:55Z</time>
      </trkpt>
      <trkpt lat="47.393856039270759" lon="16.355348993092775">
        <ele>381.779999999999973</ele>
        <time>2015-04-08T10:02:10Z</time>
      </trkpt>
      <trkpt lat="47.393650012090802" lon="16.354502001777291">
        <ele>381.779999999999973</ele>
        <time>2015-04-08T10:02:27Z</time>
      </trkpt>
      <trkpt lat="47.393512967973948" lon="16.353707984089851">
        <ele>382.259999999999991</ele>
        <time>2015-04-08T10:02:42Z</time>
      </trkpt>
      <trkpt lat="47.393416995182633" lon="16.352953026071191">
        <ele>383.220000000000027</ele>
        <time>2015-04-08T10:02:57Z</time>
      </trkpt>
      <trkpt lat="47.39332596771419" lon="16.351933032274246">
        <ele>384.180000000000007</ele>
        <time>2015-04-08T10:03:15Z</time>
      </trkpt>
      <trkpt lat="47.393246004357934" lon="16.351130967959762">
        <ele>384.660000000000025</ele>
        <time>2015-04-08T10:03:29Z</time>
      </trkpt>
      <trkpt lat="47.393238041549921" lon="16.351068019866943">
        <ele>384.660000000000025</ele>
        <time>2015-04-08T10:03:30Z</time>
      </trkpt>
      <trkpt lat="47.393229994922876" lon="16.351003982126713">
        <ele>384.660000000000025</ele>
        <time>2015-04-08T10:03:31Z</time>
      </trkpt>
      <trkpt lat="47.393093034625053" lon="16.349932020530105">
        <ele>381.300000000000011</ele>
        <time>2015-04-08T10:03:46Z</time>
      </trkpt>
      <trkpt lat="47.393078031018376" lon="16.349854990839958">
        <ele>381.300000000000011</ele>
        <time>2015-04-08T10:03:47Z</time>
      </trkpt>
      <trkpt lat="47.392936963587999" lon="16.349388035014272">
        <ele>381.300000000000011</ele>
        <time>2015-04-08T10:03:54Z</time>
      </trkpt>
      <trkpt lat="47.392394989728928" lon="16.348583037033677">
        <ele>381.300000000000011</ele>
        <time>2015-04-08T10:04:10Z</time>
      </trkpt>
      <trkpt lat="47.392222993075848" lon="16.348399976268411">
        <ele>380.819999999999993</ele>
        <time>2015-04-08T10:04:14Z</time>
      </trkpt>
      <trkpt lat="47.392185023054481" lon="16.348344990983605">
        <ele>380.819999999999993</ele>
        <time>2015-04-08T10:04:15Z</time>
      </trkpt>
      <trkpt lat="47.392150992527604" lon="16.348285982385278">
        <ele>380.819999999999993</ele>
        <time>2015-04-08T10:04:16Z</time>
      </trkpt>
      <trkpt lat="47.392119979485869" lon="16.348221022635698">
        <ele>379.860000000000014</ele>
        <time>2015-04-08T10:04:17Z</time>
      </trkpt>
      <trkpt lat="47.392097013071179" lon="16.348148016259074">
        <ele>379.860000000000014</ele>
        <time>2015-04-08T10:04:18Z</time>
      </trkpt>
      <trkpt lat="47.39207798615098" lon="16.348076015710831">
        <ele>379.860000000000014</ele>
        <time>2015-04-08T10:04:19Z</time>
      </trkpt>
      <trkpt lat="47.392067005857825" lon="16.348000997677445">
        <ele>379.860000000000014</ele>
        <time>2015-04-08T10:04:20Z</time>
      </trkpt>
      <trkpt lat="47.392058959230781" lon="16.34792497381568">
        <ele>380.339999999999975</ele>
        <time>2015-04-08T10:04:21Z</time>
      </trkpt>
      <trkpt lat="47.391875982284546" lon="16.346747986972332">
        <ele>380.339999999999975</ele>
        <time>2015-04-08T10:04:38Z</time>
      </trkpt>
      <trkpt lat="47.39179995842278" lon="16.346109034493566">
        <ele>382.259999999999991</ele>
        <time>2015-04-08T10:04:50Z</time>
      </trkpt>
      <trkpt lat="47.391742961481214" lon="16.346000991761684">
        <ele>381.779999999999973</ele>
        <time>2015-04-08T10:04:53Z</time>
      </trkpt>
      <trkpt lat="47.391712032258511" lon="16.345986993983388">
        <ele>382.259999999999991</ele>
        <time>2015-04-08T10:04:54Z</time>
      </trkpt>
      <trkpt lat="47.391684958711267" lon="16.345981964841485">
        <ele>382.740000000000009</ele>
        <time>2015-04-08T10:04:55Z</time>
      </trkpt>
      <trkpt lat="47.391662998124957" lon="16.345981964841485">
        <ele>383.220000000000027</ele>
        <time>2015-04-08T10:04:56Z</time>
      </trkpt>
      <trkpt lat="47.391643971204758" lon="16.345986993983388">
        <ele>383.220000000000027</ele>
        <time>2015-04-08T10:04:57Z</time>
      </trkpt>
      <trkpt lat="47.391621004790068" lon="16.345984982326627">
        <ele>383.220000000000027</ele>
        <time>2015-04-08T10:04:58Z</time>
      </trkpt>
      <trkpt lat="47.39160499535501" lon="16.345983976498246">
        <ele>383.220000000000027</ele>
        <time>2015-04-08T10:04:59Z</time>
      </trkpt>
      <trkpt lat="47.391585968434811" lon="16.345976013690233">
        <ele>383.699999999999989</ele>
        <time>2015-04-08T10:05:00Z</time>
      </trkpt>
      <trkpt lat="47.391541041433811" lon="16.345971990376711">
        <ele>384.660000000000025</ele>
        <time>2015-04-08T10:05:02Z</time>
      </trkpt>
      <trkpt lat="47.391308024525642" lon="16.345942988991737">
        <ele>387.069999999999993</ele>
        <time>2015-04-08T10:05:13Z</time>
      </trkpt>
      <trkpt lat="47.391288997605443" lon="16.345941983163357">
        <ele>386.589999999999975</ele>
        <time>2015-04-08T10:05:14Z</time>
      </trkpt>
      <trkpt lat="47.391272988170385" lon="16.345941983163357">
        <ele>387.550000000000011</ele>
        <time>2015-04-08T10:05:15Z</time>
      </trkpt>
      <trkpt lat="47.391253961250186" lon="16.345937959849834">
        <ele>387.069999999999993</ele>
        <time>2015-04-08T10:05:16Z</time>
      </trkpt>
      <trkpt lat="47.391239041462541" lon="16.345932008698583">
        <ele>388.029999999999973</ele>
        <time>2015-04-08T10:05:17Z</time>
      </trkpt>
      <trkpt lat="47.391215991228819" lon="16.345934020355344">
        <ele>388.509999999999991</ele>
        <time>2015-04-08T10:05:18Z</time>
      </trkpt>
      <trkpt lat="47.391196964308619" lon="16.345932008698583">
        <ele>388.029999999999973</ele>
        <time>2015-04-08T10:05:19Z</time>
      </trkpt>
      <trkpt lat="47.391151031479239" lon="16.345917005091906">
        <ele>388.509999999999991</ele>
        <time>2015-04-08T10:05:21Z</time>
      </trkpt>
      <trkpt lat="47.39113200455904" lon="16.345912981778383">
        <ele>388.509999999999991</ele>
        <time>2015-04-08T10:05:22Z</time>
      </trkpt>
      <trkpt lat="47.391112977638841" lon="16.345907030627131">
        <ele>388.990000000000009</ele>
        <time>2015-04-08T10:05:23Z</time>
      </trkpt>
      <trkpt lat="47.391094034537673" lon="16.345899989828467">
        <ele>389.470000000000027</ele>
        <time>2015-04-08T10:05:24Z</time>
      </trkpt>
      <trkpt lat="47.391070984303951" lon="16.345894038677216">
        <ele>389.470000000000027</ele>
        <time>2015-04-08T10:05:25Z</time>
      </trkpt>
      <trkpt lat="47.391052041202784" lon="16.345895966514945">
        <ele>389.470000000000027</ele>
        <time>2015-04-08T10:05:26Z</time>
      </trkpt>
      <trkpt lat="47.391033014282584" lon="16.345894038677216">
        <ele>389.949999999999989</ele>
        <time>2015-04-08T10:05:27Z</time>
      </trkpt>
      <trkpt lat="47.390907034277916" lon="16.345727993175387">
        <ele>392.360000000000014</ele>
        <time>2015-04-08T10:05:37Z</time>
      </trkpt>
      <trkpt lat="47.390903010964394" lon="16.345698991790414">
        <ele>391.870000000000005</ele>
        <time>2015-04-08T10:05:38Z</time>
      </trkpt>
      <trkpt lat="47.390850037336349" lon="16.345331026241183">
        <ele>393.319999999999993</ele>
        <time>2015-04-08T10:05:51Z</time>
      </trkpt>
      <trkpt lat="47.390799997374415" lon="16.345031959936023">
        <ele>394.279999999999973</ele>
        <time>2015-04-08T10:06:03Z</time>
      </trkpt>
      <trkpt lat="47.390693966299295" lon="16.344571961089969">
        <ele>396.680000000000007</ele>
        <time>2015-04-08T10:06:18Z</time>
      </trkpt>
      <trkpt lat="47.390663037076592" lon="16.344469031319022">
        <ele>397.160000000000025</ele>
        <time>2015-04-08T10:06:23Z</time>
      </trkpt>
      <trkpt lat="47.39065901376307" lon="16.3444459810853">
        <ele>397.639999999999986</ele>
        <time>2015-04-08T10:06:24Z</time>
      </trkpt>
      <trkpt lat="47.390655996277928" lon="16.344425026327372">
        <ele>397.639999999999986</ele>
        <time>2015-04-08T10:06:25Z</time>
      </trkpt>
      <trkpt lat="47.390651972964406" lon="16.344410022720695">
        <ele>398.120000000000005</ele>
        <time>2015-04-08T10:06:26Z</time>
      </trkpt>
      <trkpt lat="47.390644010156393" lon="16.344390995800495">
        <ele>398.120000000000005</ele>
        <time>2015-04-08T10:06:27Z</time>
      </trkpt>
      <trkpt lat="47.390639986842871" lon="16.344373980537057">
        <ele>398.600000000000023</ele>
        <time>2015-04-08T10:06:28Z</time>
      </trkpt>
      <trkpt lat="47.390635963529348" lon="16.344353025779128">
        <ele>398.120000000000005</ele>
        <time>2015-04-08T10:06:29Z</time>
      </trkpt>
      <trkpt lat="47.390633029863238" lon="16.344331987202168">
        <ele>398.600000000000023</ele>
        <time>2015-04-08T10:06:30Z</time>
      </trkpt>
      <trkpt lat="47.390624983236194" lon="16.344309020787477">
        <ele>399.079999999999984</ele>
        <time>2015-04-08T10:06:31Z</time>
      </trkpt>
      <trkpt lat="47.39053001627326" lon="16.344019006937742">
        <ele>401.490000000000009</ele>
        <time>2015-04-08T10:06:43Z</time>
      </trkpt>
      <trkpt lat="47.390518030151725" lon="16.344006014987826">
        <ele>401.970000000000027</ele>
        <time>2015-04-08T10:06:44Z</time>
      </trkpt>
      <trkpt lat="47.390479976311326" lon="16.343909958377481">
        <ele>401.970000000000027</ele>
        <time>2015-04-08T10:06:49Z</time>
      </trkpt>
      <trkpt lat="47.390430020168424" lon="16.343797976151109">
        <ele>403.410000000000025</ele>
        <time>2015-04-08T10:06:54Z</time>
      </trkpt>
      <trkpt lat="47.390430020168424" lon="16.343781966716051">
        <ele>402.930000000000007</ele>
        <time>2015-04-08T10:06:55Z</time>
      </trkpt>
      <trkpt lat="47.390419039875269" lon="16.343779033049941">
        <ele>403.889999999999986</ele>
        <time>2015-04-08T10:06:56Z</time>
      </trkpt>
      <trkpt lat="47.390395989641547" lon="16.343765035271645">
        <ele>403.889999999999986</ele>
        <time>2015-04-08T10:06:59Z</time>
      </trkpt>
      <trkpt lat="47.390388026833534" lon="16.343751959502697">
        <ele>403.889999999999986</ele>
        <time>2015-04-08T10:07:00Z</time>
      </trkpt>
      <trkpt lat="47.390274032950401" lon="16.343676019459963">
        <ele>405.810000000000002</ele>
        <time>2015-04-08T10:07:11Z</time>
      </trkpt>
      <trkpt lat="47.390117961913347" lon="16.343598989769816">
        <ele>407.259999999999991</ele>
        <time>2015-04-08T10:07:22Z</time>
      </trkpt>
      <trkpt lat="47.390105975791812" lon="16.343598989769816">
        <ele>407.740000000000009</ele>
        <time>2015-04-08T10:07:23Z</time>
      </trkpt>
      <trkpt lat="47.389915036037564" lon="16.343616005033255">
        <ele>410.620000000000005</ele>
        <time>2015-04-08T10:07:36Z</time>
      </trkpt>
      <trkpt lat="47.389804981648922" lon="16.343680964782834">
        <ele>411.579999999999984</ele>
        <time>2015-04-08T10:07:44Z</time>
      </trkpt>
      <trkpt lat="47.389792995527387" lon="16.343696974217892">
        <ele>412.060000000000002</ele>
        <time>2015-04-08T10:07:45Z</time>
      </trkpt>
      <trkpt lat="47.38977799192071" lon="16.343704015016556">
        <ele>412.060000000000002</ele>
        <time>2015-04-08T10:07:46Z</time>
      </trkpt>
      <trkpt lat="47.38975896500051" lon="16.343709966167808">
        <ele>412.060000000000002</ele>
        <time>2015-04-08T10:07:47Z</time>
      </trkpt>
      <trkpt lat="47.38973599858582" lon="16.343718012794852">
        <ele>412.54000000000002</ele>
        <time>2015-04-08T10:07:48Z</time>
      </trkpt>
      <trkpt lat="47.389716971665621" lon="16.343731004744768">
        <ele>413.019999999999982</ele>
        <time>2015-04-08T10:07:49Z</time>
      </trkpt>
      <trkpt lat="47.389705991372466" lon="16.343741985037923">
        <ele>413.019999999999982</ele>
        <time>2015-04-08T10:07:50Z</time>
      </trkpt>
      <trkpt lat="47.389553021639585" lon="16.343884980306029">
        <ele>414.470000000000027</ele>
        <time>2015-04-08T10:08:02Z</time>
      </trkpt>
      <trkpt lat="47.389420000836253" lon="16.344027975574136">
        <ele>415.910000000000025</ele>
        <time>2015-04-08T10:08:14Z</time>
      </trkpt>
      <trkpt lat="47.389339031651616" lon="16.344110034406185">
        <ele>416.870000000000005</ele>
        <time>2015-04-08T10:08:20Z</time>
      </trkpt>
      <trkpt lat="47.389324028044939" lon="16.344115985557437">
        <ele>417.350000000000023</ele>
        <time>2015-04-08T10:08:21Z</time>
      </trkpt>
      <trkpt lat="47.389309024438262" lon="16.344133000820875">
        <ele>417.829999999999984</ele>
        <time>2015-04-08T10:08:22Z</time>
      </trkpt>
      <trkpt lat="47.389122024178505" lon="16.344287982210517">
        <ele>419.75</ele>
        <time>2015-04-08T10:08:34Z</time>
      </trkpt>
      <trkpt lat="47.38909101113677" lon="16.344307009130716">
        <ele>419.75</ele>
        <time>2015-04-08T10:08:36Z</time>
      </trkpt>
      <trkpt lat="47.389080030843616" lon="16.344311032444239">
        <ele>419.75</ele>
        <time>2015-04-08T10:08:37Z</time>
      </trkpt>
      <trkpt lat="47.389065027236938" lon="16.34431597776711">
        <ele>419.75</ele>
        <time>2015-04-08T10:08:38Z</time>
      </trkpt>
      <trkpt lat="47.389050023630261" lon="16.344324024394155">
        <ele>420.70999999999998</ele>
        <time>2015-04-08T10:08:39Z</time>
      </trkpt>
      <trkpt lat="47.389029990881681" lon="16.344329975545406">
        <ele>420.230000000000018</ele>
        <time>2015-04-08T10:08:40Z</time>
      </trkpt>
      <trkpt lat="47.389010963961482" lon="16.34433701634407">
        <ele>420.70999999999998</ele>
        <time>2015-04-08T10:08:41Z</time>
      </trkpt>
      <trkpt lat="47.388740982860327" lon="16.344412034377456">
        <ele>423.600000000000023</ele>
        <time>2015-04-08T10:08:58Z</time>
      </trkpt>
      <trkpt lat="47.388469995930791" lon="16.344384960830212">
        <ele>425.04000000000002</ele>
        <time>2015-04-08T10:09:14Z</time>
      </trkpt>
      <trkpt lat="47.388263968750834" lon="16.344260992482305">
        <ele>426.95999999999998</ele>
        <time>2015-04-08T10:09:27Z</time>
      </trkpt>
      <trkpt lat="47.388049978762865" lon="16.344142975285649">
        <ele>429.370000000000005</ele>
        <time>2015-04-08T10:09:40Z</time>
      </trkpt>
      <trkpt lat="47.387859039008617" lon="16.344001991674304">
        <ele>432.25</ele>
        <time>2015-04-08T10:09:55Z</time>
      </trkpt>
      <trkpt lat="47.387603977695107" lon="16.343854973092675">
        <ele>434.170000000000016</ele>
        <time>2015-04-08T10:10:10Z</time>
      </trkpt>
      <trkpt lat="47.387389987707138" lon="16.343693034723401">
        <ele>436.579999999999984</ele>
        <time>2015-04-08T10:10:25Z</time>
      </trkpt>
      <trkpt lat="47.387180021032691" lon="16.343436967581511">
        <ele>438.980000000000018</ele>
        <time>2015-04-08T10:10:40Z</time>
      </trkpt>
      <trkpt lat="47.386958990246058" lon="16.343128010630608">
        <ele>441.379999999999995</ele>
        <time>2015-04-08T10:10:56Z</time>
      </trkpt>
      <trkpt lat="47.3867719899863" lon="16.342772031202912">
        <ele>442.819999999999993</ele>
        <time>2015-04-08T10:11:12Z</time>
      </trkpt>
      <trkpt lat="47.386604016646743" lon="16.342301974073052">
        <ele>446.189999999999998</ele>
        <time>2015-04-08T10:11:30Z</time>
      </trkpt>
      <trkpt lat="47.386406036093831" lon="16.341853961348534">
        <ele>448.110000000000014</ele>
        <time>2015-04-08T10:11:47Z</time>
      </trkpt>
      <trkpt lat="47.386127002537251" lon="16.341436039656401">
        <ele>450.519999999999982</ele>
        <time>2015-04-08T10:12:04Z</time>
      </trkpt>
      <trkpt lat="47.385956011712551" lon="16.341254990547895">
        <ele>451.480000000000018</ele>
        <time>2015-04-08T10:12:16Z</time>
      </trkpt>
      <trkpt lat="47.38558997400105" lon="16.341013005003333">
        <ele>451.95999999999998</ele>
        <time>2015-04-08T10:12:33Z</time>
      </trkpt>
      <trkpt lat="47.385239023715258" lon="16.340874033048749">
        <ele>453.879999999999995</ele>
        <time>2015-04-08T10:12:48Z</time>
      </trkpt>
      <trkpt lat="47.384768966585398" lon="16.340804966166615">
        <ele>456.279999999999973</ele>
        <time>2015-04-08T10:13:07Z</time>
      </trkpt>
      <trkpt lat="47.384373005479574" lon="16.340816030278802">
        <ele>458.20999999999998</ele>
        <time>2015-04-08T10:13:25Z</time>
      </trkpt>
      <trkpt lat="47.384025994688272" lon="16.340777976438403">
        <ele>461.089999999999975</ele>
        <time>2015-04-08T10:13:42Z</time>
      </trkpt>
      <trkpt lat="47.383750984445214" lon="16.340693989768624">
        <ele>461.569999999999993</ele>
        <time>2015-04-08T10:13:58Z</time>
      </trkpt>
      <trkpt lat="47.38354898057878" lon="16.340612014755607">
        <ele>464.449999999999989</ele>
        <time>2015-04-08T10:14:09Z</time>
      </trkpt>
      <trkpt lat="47.383514028042555" lon="16.340594999492168">
        <ele>464.449999999999989</ele>
        <time>2015-04-08T10:14:12Z</time>
      </trkpt>
      <trkpt lat="47.383502963930368" lon="16.340589970350266">
        <ele>464.449999999999989</ele>
        <time>2015-04-08T10:14:13Z</time>
      </trkpt>
      <trkpt lat="47.383487960323691" lon="16.340582007542253">
        <ele>464.930000000000007</ele>
        <time>2015-04-08T10:14:14Z</time>
      </trkpt>
      <trkpt lat="47.383469017222524" lon="16.340573960915208">
        <ele>464.930000000000007</ele>
        <time>2015-04-08T10:14:15Z</time>
      </trkpt>
      <trkpt lat="47.383449990302324" lon="16.340562980622053">
        <ele>465.420000000000016</ele>
        <time>2015-04-08T10:14:16Z</time>
      </trkpt>
      <trkpt lat="47.383430041372776" lon="16.34055501781404">
        <ele>465.899999999999977</ele>
        <time>2015-04-08T10:14:17Z</time>
      </trkpt>
      <trkpt lat="47.383411014452577" lon="16.340547977015376">
        <ele>465.899999999999977</ele>
        <time>2015-04-08T10:14:18Z</time>
      </trkpt>
      <trkpt lat="47.383388970047235" lon="16.340540014207363">
        <ele>466.379999999999995</ele>
        <time>2015-04-08T10:14:19Z</time>
      </trkpt>
      <trkpt lat="47.383372960612178" lon="16.34053397923708">
        <ele>465.899999999999977</ele>
        <time>2015-04-08T10:14:20Z</time>
      </trkpt>
      <trkpt lat="47.383358040824533" lon="16.340525010600686">
        <ele>466.379999999999995</ele>
        <time>2015-04-08T10:14:21Z</time>
      </trkpt>
      <trkpt lat="47.38320498727262" lon="16.340466002002358">
        <ele>468.779999999999973</ele>
        <time>2015-04-08T10:14:33Z</time>
      </trkpt>
      <trkpt lat="47.383194006979465" lon="16.340467007830739">
        <ele>468.779999999999973</ele>
        <time>2015-04-08T10:14:34Z</time>
      </trkpt>
      <trkpt lat="47.383179003372788" lon="16.3404690194875">
        <ele>468.779999999999973</ele>
        <time>2015-04-08T10:14:35Z</time>
      </trkpt>
      <trkpt lat="47.383162993937731" lon="16.340467007830739">
        <ele>469.259999999999991</ele>
        <time>2015-04-08T10:14:36Z</time>
      </trkpt>
      <trkpt lat="47.383152013644576" lon="16.340461978688836">
        <ele>469.740000000000009</ele>
        <time>2015-04-08T10:14:37Z</time>
      </trkpt>
      <trkpt lat="47.383141033351421" lon="16.340452004224062">
        <ele>470.220000000000027</ele>
        <time>2015-04-08T10:14:38Z</time>
      </trkpt>
      <trkpt lat="47.38292302004993" lon="16.340373968705535">
        <ele>472.139999999999986</ele>
        <time>2015-04-08T10:14:52Z</time>
      </trkpt>
      <trkpt lat="47.382721016183496" lon="16.340333987027407">
        <ele>474.550000000000011</ele>
        <time>2015-04-08T10:15:04Z</time>
      </trkpt>
      <trkpt lat="47.382595036178827" lon="16.340335998684168">
        <ele>475.990000000000009</ele>
        <time>2015-04-08T10:15:15Z</time>
      </trkpt>
      <trkpt lat="47.382565028965473" lon="16.340331975370646">
        <ele>476.470000000000027</ele>
        <time>2015-04-08T10:15:18Z</time>
      </trkpt>
      <trkpt lat="47.382549019530416" lon="16.340331975370646">
        <ele>476.470000000000027</ele>
        <time>2015-04-08T10:15:19Z</time>
      </trkpt>
      <trkpt lat="47.382538039237261" lon="16.340331975370646">
        <ele>476.470000000000027</ele>
        <time>2015-04-08T10:15:20Z</time>
      </trkpt>
      <trkpt lat="47.382525969296694" lon="16.340331975370646">
        <ele>476.470000000000027</ele>
        <time>2015-04-08T10:15:21Z</time>
      </trkpt>
      <trkpt lat="47.382510965690017" lon="16.340329963713884">
        <ele>476.949999999999989</ele>
        <time>2015-04-08T10:15:22Z</time>
      </trkpt>
      <trkpt lat="47.38249596208334" lon="16.340329963713884">
        <ele>476.949999999999989</ele>
        <time>2015-04-08T10:15:23Z</time>
      </trkpt>
      <trkpt lat="47.382263028994203" lon="16.340375980362296">
        <ele>479.350000000000023</ele>
        <time>2015-04-08T10:15:36Z</time>
      </trkpt>
      <trkpt lat="47.382079968228936" lon="16.340445969253778">
        <ele>481.279999999999973</ele>
        <time>2015-04-08T10:15:49Z</time>
      </trkpt>
      <trkpt lat="47.382068987935781" lon="16.340445969253778">
        <ele>481.279999999999973</ele>
        <time>2015-04-08T10:15:50Z</time>
      </trkpt>
      <trkpt lat="47.382057001814246" lon="16.340444963425398">
        <ele>481.279999999999973</ele>
        <time>2015-04-08T10:15:51Z</time>
      </trkpt>
      <trkpt lat="47.382041998207569" lon="16.340445969253778">
        <ele>481.279999999999973</ele>
        <time>2015-04-08T10:15:52Z</time>
      </trkpt>
      <trkpt lat="47.382034035399556" lon="16.340459967032075">
        <ele>481.759999999999991</ele>
        <time>2015-04-08T10:15:53Z</time>
      </trkpt>
      <trkpt lat="47.38202297128737" lon="16.340471031144261">
        <ele>481.759999999999991</ele>
        <time>2015-04-08T10:16:07Z</time>
      </trkpt>
      <trkpt lat="47.382019031792879" lon="16.340485028922558">
        <ele>481.279999999999973</ele>
        <time>2015-04-08T10:16:30Z</time>
      </trkpt>
      <trkpt lat="47.382010985165834" lon="16.340498020872474">
        <ele>481.279999999999973</ele>
        <time>2015-04-08T10:16:31Z</time>
      </trkpt>
      <trkpt lat="47.382004028186202" lon="16.340518975630403">
        <ele>481.279999999999973</ele>
        <time>2015-04-08T10:16:32Z</time>
      </trkpt>
      <trkpt lat="47.381989024579525" lon="16.340542025864124">
        <ele>481.759999999999991</ele>
        <time>2015-04-08T10:16:33Z</time>
      </trkpt>
      <trkpt lat="47.381965974345803" lon="16.340559041127563">
        <ele>481.759999999999991</ele>
        <time>2015-04-08T10:16:34Z</time>
      </trkpt>
      <trkpt lat="47.381943007931113" lon="16.340569015592337">
        <ele>482.240000000000009</ele>
        <time>2015-04-08T10:16:35Z</time>
      </trkpt>
      <trkpt lat="47.381920041516423" lon="16.340573960915208">
        <ele>483.199999999999989</ele>
        <time>2015-04-08T10:16:36Z</time>
      </trkpt>
      <trkpt lat="47.381901014596224" lon="16.340579995885491">
        <ele>483.199999999999989</ele>
        <time>2015-04-08T10:16:37Z</time>
      </trkpt>
      <trkpt lat="47.381652994081378" lon="16.340784011408687">
        <ele>486.079999999999984</ele>
        <time>2015-04-08T10:16:52Z</time>
      </trkpt>
      <trkpt lat="47.381476974114776" lon="16.341003030538559">
        <ele>488.009999999999991</ele>
        <time>2015-04-08T10:17:06Z</time>
      </trkpt>
      <trkpt lat="47.381283016875386" lon="16.341244010254741">
        <ele>490.889999999999986</ele>
        <time>2015-04-08T10:17:21Z</time>
      </trkpt>
      <trkpt lat="47.38105402328074" lon="16.341470992192626">
        <ele>492.810000000000002</ele>
        <time>2015-04-08T10:17:37Z</time>
      </trkpt>
      <trkpt lat="47.380744982510805" lon="16.341660004109144">
        <ele>494.740000000000009</ele>
        <time>2015-04-08T10:17:54Z</time>
      </trkpt>
      <trkpt lat="47.380535015836358" lon="16.341729993000627">
        <ele>496.180000000000007</ele>
        <time>2015-04-08T10:18:05Z</time>
      </trkpt>
      <trkpt lat="47.380318008363247" lon="16.341776009649038">
        <ele>500.019999999999982</ele>
        <time>2015-04-08T10:18:15Z</time>
      </trkpt>
      <trkpt lat="47.380298981443048" lon="16.341780032962561">
        <ele>500.019999999999982</ele>
        <time>2015-04-08T10:18:16Z</time>
      </trkpt>
      <trkpt lat="47.379950964823365" lon="16.341717001050711">
        <ele>499.060000000000002</ele>
        <time>2015-04-08T10:18:32Z</time>
      </trkpt>
      <trkpt lat="47.379538994282484" lon="16.341496976092458">
        <ele>501.45999999999998</ele>
        <time>2015-04-08T10:18:50Z</time>
      </trkpt>
      <trkpt lat="47.379115959629416" lon="16.341023985296488">
        <ele>504.350000000000023</ele>
        <time>2015-04-08T10:19:10Z</time>
      </trkpt>
      <trkpt lat="47.378799039870501" lon="16.340368017554283">
        <ele>506.75</ele>
        <time>2015-04-08T10:19:30Z</time>
      </trkpt>
      <trkpt lat="47.378525035455823" lon="16.33965102955699">
        <ele>509.160000000000025</ele>
        <time>2015-04-08T10:19:50Z</time>
      </trkpt>
      <trkpt lat="47.378304004669189" lon="16.33909597992897">
        <ele>511.079999999999984</ele>
        <time>2015-04-08T10:20:07Z</time>
      </trkpt>
      <trkpt lat="47.378033017739654" lon="16.338631035760045">
        <ele>513.480000000000018</ele>
        <time>2015-04-08T10:20:24Z</time>
      </trkpt>
      <trkpt lat="47.377711990848184" lon="16.338238008320332">
        <ele>515.879999999999995</ele>
        <time>2015-04-08T10:20:43Z</time>
      </trkpt>
      <trkpt lat="47.377482997253537" lon="16.33799702860415">
        <ele>517.330000000000041</ele>
        <time>2015-04-08T10:20:58Z</time>
      </trkpt>
      <trkpt lat="47.376975975930691" lon="16.337479026988149">
        <ele>519.730000000000018</ele>
        <time>2015-04-08T10:21:22Z</time>
      </trkpt>
      <trkpt lat="47.376434002071619" lon="16.336923977360129">
        <ele>522.129999999999995</ele>
        <time>2015-04-08T10:21:44Z</time>
      </trkpt>
      <trkpt lat="47.37607198767364" lon="16.336478982120752">
        <ele>524.059999999999945</ele>
        <time>2015-04-08T10:22:00Z</time>
      </trkpt>
      <trkpt lat="47.375889010727406" lon="16.336143035441637">
        <ele>526.940000000000055</ele>
        <time>2015-04-08T10:22:13Z</time>
      </trkpt>
      <trkpt lat="47.375781973823905" lon="16.335904989391565">
        <ele>529.340000000000032</ele>
        <time>2015-04-08T10:22:23Z</time>
      </trkpt>
      <trkpt lat="47.375648031011224" lon="16.335540963336825">
        <ele>530.789999999999964</ele>
        <time>2015-04-08T10:22:36Z</time>
      </trkpt>
      <trkpt lat="47.37557603046298" lon="16.335188001394272">
        <ele>531.75</ele>
        <time>2015-04-08T10:22:48Z</time>
      </trkpt>
      <trkpt lat="47.375483997166157" lon="16.334585007280111">
        <ele>535.110000000000014</ele>
        <time>2015-04-08T10:23:06Z</time>
      </trkpt>
      <trkpt lat="47.37531996332109" lon="16.333932979032397">
        <ele>536.07000000000005</ele>
        <time>2015-04-08T10:23:23Z</time>
      </trkpt>
      <trkpt lat="47.375052999705076" lon="16.333243986591697">
        <ele>537.029999999999973</ele>
        <time>2015-04-08T10:23:39Z</time>
      </trkpt>
      <trkpt lat="47.374919978901744" lon="16.332252994179726">
        <ele>537.029999999999973</ele>
        <time>2015-04-08T10:23:56Z</time>
      </trkpt>
      <trkpt lat="47.374943029135466" lon="16.331979995593429">
        <ele>536.07000000000005</ele>
        <time>2015-04-08T10:24:00Z</time>
      </trkpt>
      <trkpt lat="47.375172022730112" lon="16.331064021214843">
        <ele>532.710000000000036</ele>
        <time>2015-04-08T10:24:14Z</time>
      </trkpt>
      <trkpt lat="47.37527503632009" lon="16.330724973231554">
        <ele>531.269999999999982</ele>
        <time>2015-04-08T10:24:19Z</time>
      </trkpt>
      <trkpt lat="47.375293979421258" lon="16.330655990168452">
        <ele>530.789999999999964</ele>
        <time>2015-04-08T10:24:20Z</time>
      </trkpt>
      <trkpt lat="47.375392969697714" lon="16.329974960535765">
        <ele>527.899999999999977</ele>
        <time>2015-04-08T10:24:28Z</time>
      </trkpt>
      <trkpt lat="47.375374026596546" lon="16.329340031370521">
        <ele>524.539999999999964</ele>
        <time>2015-04-08T10:24:34Z</time>
      </trkpt>
      <trkpt lat="47.375362040475011" lon="16.329114977270365">
        <ele>523.580000000000041</ele>
        <time>2015-04-08T10:24:36Z</time>
      </trkpt>
      <trkpt lat="47.375343013554811" lon="16.328656990081072">
        <ele>520.690000000000055</ele>
        <time>2015-04-08T10:24:40Z</time>
      </trkpt>
      <trkpt lat="47.375328009948134" lon="16.328218029811978">
        <ele>518.289999999999964</ele>
        <time>2015-04-08T10:24:44Z</time>
      </trkpt>
      <trkpt lat="47.37531702965498" lon="16.32798601873219">
        <ele>516.850000000000023</ele>
        <time>2015-04-08T10:24:46Z</time>
      </trkpt>
      <trkpt lat="47.375251986086369" lon="16.327435998246074">
        <ele>514.440000000000055</ele>
        <time>2015-04-08T10:24:51Z</time>
      </trkpt>
      <trkpt lat="47.375205969437957" lon="16.327141039073467">
        <ele>512.519999999999982</ele>
        <time>2015-04-08T10:24:54Z</time>
      </trkpt>
      <trkpt lat="47.375183003023267" lon="16.327044982463121">
        <ele>513</ele>
        <time>2015-04-08T10:24:55Z</time>
      </trkpt>
      <trkpt lat="47.375069009140134" lon="16.326477024704218">
        <ele>510.120000000000005</ele>
        <time>2015-04-08T10:25:02Z</time>
      </trkpt>
      <trkpt lat="47.375286016613245" lon="16.325692981481552">
        <ele>504.350000000000023</ele>
        <time>2015-04-08T10:26:59Z</time>
      </trkpt>
      <trkpt lat="47.375594973564148" lon="16.325485026463866">
        <ele>501.45999999999998</ele>
        <time>2015-04-08T10:27:05Z</time>
      </trkpt>
      <trkpt lat="47.375874007120728" lon="16.325266007333994">
        <ele>499.060000000000002</ele>
        <time>2015-04-08T10:27:11Z</time>
      </trkpt>
      <trkpt lat="47.375965034589171" lon="16.325155030936003">
        <ele>497.620000000000005</ele>
        <time>2015-04-08T10:27:13Z</time>
      </trkpt>
      <trkpt lat="47.376007027924061" lon="16.325084958225489">
        <ele>497.139999999999986</ele>
        <time>2015-04-08T10:27:14Z</time>
      </trkpt>
      <trkpt lat="47.37604902125895" lon="16.325004994869232">
        <ele>495.699999999999989</ele>
        <time>2015-04-08T10:27:15Z</time>
      </trkpt>
      <trkpt lat="47.376086991280317" lon="16.324911033734679">
        <ele>494.740000000000009</ele>
        <time>2015-04-08T10:27:16Z</time>
      </trkpt>
      <trkpt lat="47.376118004322052" lon="16.32480600848794">
        <ele>494.740000000000009</ele>
        <time>2015-04-08T10:27:17Z</time>
      </trkpt>
      <trkpt lat="47.376143988221884" lon="16.324692014604807">
        <ele>492.329999999999984</ele>
        <time>2015-04-08T10:27:18Z</time>
      </trkpt>
      <trkpt lat="47.376163015142083" lon="16.324581038206816">
        <ele>491.850000000000023</ele>
        <time>2015-04-08T10:27:19Z</time>
      </trkpt>
      <trkpt lat="47.376209031790495" lon="16.324318014085293">
        <ele>488.970000000000027</ele>
        <time>2015-04-08T10:27:22Z</time>
      </trkpt>
      <trkpt lat="47.376236021518707" lon="16.324207037687302">
        <ele>488.009999999999991</ele>
        <time>2015-04-08T10:27:24Z</time>
      </trkpt>
      <trkpt lat="47.376305004581809" lon="16.323933033272624">
        <ele>484.639999999999986</ele>
        <time>2015-04-08T10:27:28Z</time>
      </trkpt>
      <trkpt lat="47.376368958503008" lon="16.323626004159451">
        <ele>481.759999999999991</ele>
        <time>2015-04-08T10:27:31Z</time>
      </trkpt>
      <trkpt lat="47.376408018171787" lon="16.323286034166813">
        <ele>478.389999999999986</ele>
        <time>2015-04-08T10:27:34Z</time>
      </trkpt>
      <trkpt lat="47.376430984586477" lon="16.323065003380179">
        <ele>475.509999999999991</ele>
        <time>2015-04-08T10:27:36Z</time>
      </trkpt>
      <trkpt lat="47.376480018720031" lon="16.322592012584209">
        <ele>471.180000000000007</ele>
        <time>2015-04-08T10:27:40Z</time>
      </trkpt>
      <trkpt lat="47.376568028703332" lon="16.322186999022961">
        <ele>466.860000000000014</ele>
        <time>2015-04-08T10:27:43Z</time>
      </trkpt>
      <trkpt lat="47.376709012314677" lon="16.321659022942185">
        <ele>463.490000000000009</ele>
        <time>2015-04-08T10:27:47Z</time>
      </trkpt>
      <trkpt lat="47.376781012862921" lon="16.321270018815994">
        <ele>461.089999999999975</ele>
        <time>2015-04-08T10:27:50Z</time>
      </trkpt>
      <trkpt lat="47.376792998984456" lon="16.321127023547888">
        <ele>460.610000000000014</ele>
        <time>2015-04-08T10:27:51Z</time>
      </trkpt>
      <trkpt lat="47.376797022297978" lon="16.320973969995975">
        <ele>459.649999999999977</ele>
        <time>2015-04-08T10:27:52Z</time>
      </trkpt>
      <trkpt lat="47.376792998984456" lon="16.320654032751918">
        <ele>458.20999999999998</ele>
        <time>2015-04-08T10:27:54Z</time>
      </trkpt>
      <trkpt lat="47.376742959022522" lon="16.320160003378987">
        <ele>454.839999999999975</ele>
        <time>2015-04-08T10:27:57Z</time>
      </trkpt>
      <trkpt lat="47.376685962080956" lon="16.319652982056141">
        <ele>450.519999999999982</ele>
        <time>2015-04-08T10:28:00Z</time>
      </trkpt>
      <trkpt lat="47.376590995118022" lon="16.319150989875197">
        <ele>447.629999999999995</ele>
        <time>2015-04-08T10:28:03Z</time>
      </trkpt>
      <trkpt lat="47.376471972092986" lon="16.31866299547255">
        <ele>445.230000000000018</ele>
        <time>2015-04-08T10:28:06Z</time>
      </trkpt>
      <trkpt lat="47.376315984874964" lon="16.318035023286939">
        <ele>441.860000000000014</ele>
        <time>2015-04-08T10:28:10Z</time>
      </trkpt>
      <trkpt lat="47.37622101791203" lon="16.317661022767425">
        <ele>439.45999999999998</ele>
        <time>2015-04-08T10:28:12Z</time>
      </trkpt>
      <trkpt lat="47.376080034300685" lon="16.317015029489994">
        <ele>437.54000000000002</ele>
        <time>2015-04-08T10:28:17Z</time>
      </trkpt>
      <trkpt lat="47.376064024865627" lon="16.316873962059617">
        <ele>437.060000000000002</ele>
        <time>2015-04-08T10:28:18Z</time>
      </trkpt>
      <trkpt lat="47.376056984066963" lon="16.316733984276652">
        <ele>436.579999999999984</ele>
        <time>2015-04-08T10:28:19Z</time>
      </trkpt>
      <trkpt lat="47.376056984066963" lon="16.3164690323174">
        <ele>436.100000000000023</ele>
        <time>2015-04-08T10:28:21Z</time>
      </trkpt>
      <trkpt lat="47.37607198767364" lon="16.316344980150461">
        <ele>436.100000000000023</ele>
        <time>2015-04-08T10:28:22Z</time>
      </trkpt>
      <trkpt lat="47.376297041773796" lon="16.315190959721804">
        <ele>434.649999999999977</ele>
        <time>2015-04-08T10:28:33Z</time>
      </trkpt>
      <trkpt lat="47.376381028443575" lon="16.313560009002686">
        <ele>431.769999999999982</ele>
        <time>2015-04-08T10:28:49Z</time>
      </trkpt>
      <trkpt lat="47.376327970996499" lon="16.312328036874533">
        <ele>432.25</ele>
        <time>2015-04-08T10:29:03Z</time>
      </trkpt>
      <trkpt lat="47.376064024865627" lon="16.31111903116107">
        <ele>431.29000000000002</ele>
        <time>2015-04-08T10:29:18Z</time>
      </trkpt>
      <trkpt lat="47.375774011015892" lon="16.310179000720382">
        <ele>430.810000000000002</ele>
        <time>2015-04-08T10:29:32Z</time>
      </trkpt>
      <trkpt lat="47.375335972756147" lon="16.30918700248003">
        <ele>430.329999999999984</ele>
        <time>2015-04-08T10:29:47Z</time>
      </trkpt>
      <trkpt lat="47.37531996332109" lon="16.309112990275025">
        <ele>429.850000000000023</ele>
        <time>2015-04-08T10:29:48Z</time>
      </trkpt>
      <trkpt lat="47.375262966379523" lon="16.308762039989233">
        <ele>430.329999999999984</ele>
        <time>2015-04-08T10:29:53Z</time>
      </trkpt>
      <trkpt lat="47.375266989693046" lon="16.308694984763861">
        <ele>429.370000000000005</ele>
        <time>2015-04-08T10:29:54Z</time>
      </trkpt>
      <trkpt lat="47.375380983576179" lon="16.307583041489124">
        <ele>429.370000000000005</ele>
        <time>2015-04-08T10:30:08Z</time>
      </trkpt>
      <trkpt lat="47.375422976911068" lon="16.306618032976985">
        <ele>426</ele>
        <time>2015-04-08T10:30:19Z</time>
      </trkpt>
      <trkpt lat="47.375453989952803" lon="16.306106988340616">
        <ele>424.560000000000002</ele>
        <time>2015-04-08T10:30:24Z</time>
      </trkpt>
      <trkpt lat="47.375443009659648" lon="16.305512962862849">
        <ele>421.189999999999998</ele>
        <time>2015-04-08T10:30:29Z</time>
      </trkpt>
      <trkpt lat="47.37542700022459" lon="16.305383965373039">
        <ele>421.189999999999998</ele>
        <time>2015-04-08T10:30:30Z</time>
      </trkpt>
      <trkpt lat="47.375359022989869" lon="16.304834028705955">
        <ele>417.829999999999984</ele>
        <time>2015-04-08T10:30:34Z</time>
      </trkpt>
      <trkpt lat="47.375049982219934" lon="16.303535001352429">
        <ele>414.949999999999989</ele>
        <time>2015-04-08T10:30:46Z</time>
      </trkpt>
      <trkpt lat="47.37471797503531" lon="16.302845003083348">
        <ele>412.060000000000002</ele>
        <time>2015-04-08T10:30:54Z</time>
      </trkpt>
      <trkpt lat="47.374626025557518" lon="16.302662026137114">
        <ele>410.620000000000005</ele>
        <time>2015-04-08T10:30:56Z</time>
      </trkpt>
      <trkpt lat="47.374442964792252" lon="16.302295988425612">
        <ele>409.660000000000025</ele>
        <time>2015-04-08T10:31:00Z</time>
      </trkpt>
      <trkpt lat="47.373966034501791" lon="16.301314970478415">
        <ele>406.29000000000002</ele>
        <time>2015-04-08T10:31:11Z</time>
      </trkpt>
      <trkpt lat="47.373489020392299" lon="16.300343004986644">
        <ele>403.410000000000025</ele>
        <time>2015-04-08T10:31:23Z</time>
      </trkpt>
      <trkpt lat="47.372836992144585" lon="16.298819007351995">
        <ele>401.009999999999991</ele>
        <time>2015-04-08T10:31:41Z</time>
      </trkpt>
      <trkpt lat="47.372420998290181" lon="16.297674039378762">
        <ele>398.120000000000005</ele>
        <time>2015-04-08T10:31:54Z</time>
      </trkpt>
      <trkpt lat="47.372157974168658" lon="16.296955039724708">
        <ele>397.160000000000025</ele>
        <time>2015-04-08T10:32:03Z</time>
      </trkpt>
      <trkpt lat="47.371746003627777" lon="16.295784004032612">
        <ele>395.720000000000027</ele>
        <time>2015-04-08T10:32:17Z</time>
      </trkpt>
      <trkpt lat="47.371543999761343" lon="16.294476008042693">
        <ele>394.759999999999991</ele>
        <time>2015-04-08T10:32:32Z</time>
      </trkpt>
      <trkpt lat="47.371455989778042" lon="16.293162982910872">
        <ele>394.279999999999973</ele>
        <time>2015-04-08T10:32:47Z</time>
      </trkpt>
      <trkpt lat="47.371337972581387" lon="16.292067971080542">
        <ele>392.360000000000014</ele>
        <time>2015-04-08T10:32:59Z</time>
      </trkpt>
      <trkpt lat="47.37108601257205" lon="16.290840022265911">
        <ele>388.990000000000009</ele>
        <time>2015-04-08T10:33:12Z</time>
      </trkpt>
      <trkpt lat="47.371062962338328" lon="16.29075201228261">
        <ele>389.470000000000027</ele>
        <time>2015-04-08T10:33:13Z</time>
      </trkpt>
      <trkpt lat="47.371051982045174" lon="16.289811981841922">
        <ele>389.470000000000027</ele>
        <time>2015-04-08T10:33:25Z</time>
      </trkpt>
      <trkpt lat="47.371071008965373" lon="16.289299009367824">
        <ele>389.470000000000027</ele>
        <time>2015-04-08T10:33:32Z</time>
      </trkpt>
      <trkpt lat="47.371066985651851" lon="16.289220973849297">
        <ele>389.470000000000027</ele>
        <time>2015-04-08T10:33:33Z</time>
      </trkpt>
      <trkpt lat="47.371039995923638" lon="16.288989968597889">
        <ele>389.949999999999989</ele>
        <time>2015-04-08T10:33:36Z</time>
      </trkpt>
      <trkpt lat="47.371020969003439" lon="16.288916040211916">
        <ele>390.430000000000007</ele>
        <time>2015-04-08T10:33:37Z</time>
      </trkpt>
      <trkpt lat="47.371002025902271" lon="16.288844961673021">
        <ele>389.949999999999989</ele>
        <time>2015-04-08T10:33:38Z</time>
      </trkpt>
      <trkpt lat="47.370536997914314" lon="16.28796000033617">
        <ele>388.029999999999973</ele>
        <time>2015-04-08T10:33:51Z</time>
      </trkpt>
      <trkpt lat="47.369685983285308" lon="16.287091970443726">
        <ele>386.110000000000014</ele>
        <time>2015-04-08T10:34:08Z</time>
      </trkpt>
      <trkpt lat="47.36863698810339" lon="16.286298958584666">
        <ele>383.220000000000027</ele>
        <time>2015-04-08T10:34:26Z</time>
      </trkpt>
      <trkpt lat="47.367695029824972" lon="16.285749021917582">
        <ele>381.779999999999973</ele>
        <time>2015-04-08T10:34:42Z</time>
      </trkpt>
      <trkpt lat="47.366633964702487" lon="16.285234037786722">
        <ele>380.819999999999993</ele>
        <time>2015-04-08T10:35:00Z</time>
      </trkpt>
      <trkpt lat="47.365630986168981" lon="16.284912005066872">
        <ele>379.379999999999995</ele>
        <time>2015-04-08T10:35:16Z</time>
      </trkpt>
      <trkpt lat="47.364330030977726" lon="16.284549990668893">
        <ele>377.449999999999989</ele>
        <time>2015-04-08T10:35:36Z</time>
      </trkpt>
      <trkpt lat="47.363154971972108" lon="16.284384028986096">
        <ele>375.050000000000011</ele>
        <time>2015-04-08T10:35:53Z</time>
      </trkpt>
      <trkpt lat="47.362949028611183" lon="16.284347986802459">
        <ele>375.529999999999973</ele>
        <time>2015-04-08T10:35:56Z</time>
      </trkpt>
      <trkpt lat="47.361839013174176" lon="16.283929981291294">
        <ele>373.610000000000014</ele>
        <time>2015-04-08T10:36:13Z</time>
      </trkpt>
      <trkpt lat="47.361122025176883" lon="16.283223973587155">
        <ele>373.129999999999995</ele>
        <time>2015-04-08T10:36:27Z</time>
      </trkpt>
      <trkpt lat="47.360377963632345" lon="16.282042041420937">
        <ele>373.129999999999995</ele>
        <time>2015-04-08T10:36:45Z</time>
      </trkpt>
      <trkpt lat="47.359588975086808" lon="16.281475005671382">
        <ele>372.170000000000016</ele>
        <time>2015-04-08T10:37:00Z</time>
      </trkpt>
      <trkpt lat="47.358897970989347" lon="16.280672019347548">
        <ele>371.20999999999998</ele>
        <time>2015-04-08T10:37:15Z</time>
      </trkpt>
      <trkpt lat="47.358657997101545" lon="16.280293995514512">
        <ele>370.730000000000018</ele>
        <time>2015-04-08T10:37:21Z</time>
      </trkpt>
      <trkpt lat="47.357848975807428" lon="16.279350025579333">
        <ele>369.279999999999973</ele>
        <time>2015-04-08T10:37:37Z</time>
      </trkpt>
      <trkpt lat="47.357737999409437" lon="16.279266038909554">
        <ele>369.759999999999991</ele>
        <time>2015-04-08T10:37:39Z</time>
      </trkpt>
      <trkpt lat="47.357193008065224" lon="16.279074009507895">
        <ele>367.839999999999975</ele>
        <time>2015-04-08T10:37:48Z</time>
      </trkpt>
      <trkpt lat="47.356247026473284" lon="16.278704032301903">
        <ele>365.920000000000016</ele>
        <time>2015-04-08T10:38:02Z</time>
      </trkpt>
      <trkpt lat="47.355330968275666" lon="16.278581991791725">
        <ele>364.480000000000018</ele>
        <time>2015-04-08T10:38:16Z</time>
      </trkpt>
      <trkpt lat="47.354251965880394" lon="16.278768992051482">
        <ele>363.519999999999982</ele>
        <time>2015-04-08T10:38:33Z</time>
      </trkpt>
      <trkpt lat="47.353600021451712" lon="16.278847027570009">
        <ele>362.069999999999993</ele>
        <time>2015-04-08T10:38:43Z</time>
      </trkpt>
      <trkpt lat="47.352672982960939" lon="16.278836969286203">
        <ele>361.110000000000014</ele>
        <time>2015-04-08T10:38:58Z</time>
      </trkpt>
      <trkpt lat="47.351486021652818" lon="16.278761029243469">
        <ele>360.149999999999977</ele>
        <time>2015-04-08T10:39:17Z</time>
      </trkpt>
      <trkpt lat="47.350543979555368" lon="16.278695985674858">
        <ele>358.70999999999998</ele>
        <time>2015-04-08T10:39:31Z</time>
      </trkpt>
      <trkpt lat="47.349177980795503" lon="16.27861401066184">
        <ele>356.310000000000002</ele>
        <time>2015-04-08T10:39:50Z</time>
      </trkpt>
      <trkpt lat="47.34814097173512" lon="16.278476966544986">
        <ele>355.829999999999984</ele>
        <time>2015-04-08T10:40:06Z</time>
      </trkpt>
      <trkpt lat="47.347377967089415" lon="16.277961982414126">
        <ele>354.860000000000014</ele>
        <time>2015-04-08T10:40:19Z</time>
      </trkpt>
      <trkpt lat="47.346512032672763" lon="16.277085989713669">
        <ele>354.860000000000014</ele>
        <time>2015-04-08T10:40:36Z</time>
      </trkpt>
      <trkpt lat="47.345673004165292" lon="16.276650968939066">
        <ele>353.420000000000016</ele>
        <time>2015-04-08T10:40:52Z</time>
      </trkpt>
      <trkpt lat="47.344841016456485" lon="16.276725986972451">
        <ele>353.420000000000016</ele>
        <time>2015-04-08T10:41:06Z</time>
      </trkpt>
      <trkpt lat="47.343982961028814" lon="16.277341973036528">
        <ele>352.45999999999998</ele>
        <time>2015-04-08T10:41:22Z</time>
      </trkpt>
      <trkpt lat="47.343238983303308" lon="16.278156023472548">
        <ele>352.45999999999998</ele>
        <time>2015-04-08T10:41:37Z</time>
      </trkpt>
      <trkpt lat="47.343185003846884" lon="16.278198016807437">
        <ele>351.980000000000018</ele>
        <time>2015-04-08T10:41:38Z</time>
      </trkpt>
      <trkpt lat="47.342323008924723" lon="16.278537986800075">
        <ele>351.019999999999982</ele>
        <time>2015-04-08T10:41:52Z</time>
      </trkpt>
      <trkpt lat="47.341254986822605" lon="16.27863697707653">
        <ele>349.100000000000023</ele>
        <time>2015-04-08T10:42:09Z</time>
      </trkpt>
      <trkpt lat="47.341121966019273" lon="16.278645023703575">
        <ele>349.100000000000023</ele>
        <time>2015-04-08T10:42:11Z</time>
      </trkpt>
      <trkpt lat="47.341057006269693" lon="16.27863303758204">
        <ele>349.100000000000023</ele>
        <time>2015-04-08T10:42:12Z</time>
      </trkpt>
      <trkpt lat="47.340220995247364" lon="16.278341012075543">
        <ele>347.170000000000016</ele>
        <time>2015-04-08T10:42:26Z</time>
      </trkpt>
      <trkpt lat="47.33939697034657" lon="16.277782022953033">
        <ele>348.129999999999995</ele>
        <time>2015-04-08T10:42:41Z</time>
      </trkpt>
      <trkpt lat="47.338776038959622" lon="16.277513969689608">
        <ele>349.100000000000023</ele>
        <time>2015-04-08T10:42:55Z</time>
      </trkpt>
      <trkpt lat="47.338043041527271" lon="16.277365023270249">
        <ele>349.100000000000023</ele>
        <time>2015-04-08T10:43:10Z</time>
      </trkpt>
      <trkpt lat="47.337303003296256" lon="16.277208030223846">
        <ele>348.129999999999995</ele>
        <time>2015-04-08T10:43:25Z</time>
      </trkpt>
      <trkpt lat="47.336414018645883" lon="16.276917010545731">
        <ele>345.730000000000018</ele>
        <time>2015-04-08T10:43:40Z</time>
      </trkpt>
      <trkpt lat="47.335175005719066" lon="16.276316028088331">
        <ele>343.329999999999984</ele>
        <time>2015-04-08T10:44:01Z</time>
      </trkpt>
      <trkpt lat="47.334316028282046" lon="16.275757038965821">
        <ele>342.370000000000005</ele>
        <time>2015-04-08T10:44:17Z</time>
      </trkpt>
      <trkpt lat="47.333259992301464" lon="16.274985987693071">
        <ele>341.889999999999986</ele>
        <time>2015-04-08T10:44:38Z</time>
      </trkpt>
      <trkpt lat="47.333217998966575" lon="16.274952040985227">
        <ele>341.889999999999986</ele>
        <time>2015-04-08T10:44:39Z</time>
      </trkpt>
      <trkpt lat="47.333176005631685" lon="16.274923039600253">
        <ele>341.889999999999986</ele>
        <time>2015-04-08T10:44:40Z</time>
      </trkpt>
      <trkpt lat="47.333134012296796" lon="16.274898983538151">
        <ele>341.889999999999986</ele>
        <time>2015-04-08T10:44:41Z</time>
      </trkpt>
      <trkpt lat="47.333092018961906" lon="16.274869982153177">
        <ele>341.410000000000025</ele>
        <time>2015-04-08T10:44:42Z</time>
      </trkpt>
      <trkpt lat="47.333050025627017" lon="16.274837041273713">
        <ele>340.920000000000016</ele>
        <time>2015-04-08T10:44:43Z</time>
      </trkpt>
      <trkpt lat="47.332333037629724" lon="16.274342006072402">
        <ele>340.439999999999998</ele>
        <time>2015-04-08T10:44:58Z</time>
      </trkpt>
      <trkpt lat="47.331612026318908" lon="16.274071019142866">
        <ele>340.439999999999998</ele>
        <time>2015-04-08T10:45:12Z</time>
      </trkpt>
      <trkpt lat="47.330901995301247" lon="16.274055009707808">
        <ele>339.95999999999998</ele>
        <time>2015-04-08T10:45:25Z</time>
      </trkpt>
      <trkpt lat="47.330279974266887" lon="16.274306969717145">
        <ele>339.480000000000018</ele>
        <time>2015-04-08T10:45:39Z</time>
      </trkpt>
      <trkpt lat="47.329872027039528" lon="16.274590026587248">
        <ele>339</ele>
        <time>2015-04-08T10:45:49Z</time>
      </trkpt>
      <trkpt lat="47.329830033704638" lon="16.274621961638331">
        <ele>338.519999999999982</ele>
        <time>2015-04-08T10:45:50Z</time>
      </trkpt>
      <trkpt lat="47.329628029838204" lon="16.274814996868372">
        <ele>338.04000000000002</ele>
        <time>2015-04-08T10:45:55Z</time>
      </trkpt>
      <trkpt lat="47.329250006005168" lon="16.275557968765497">
        <ele>338.519999999999982</ele>
        <time>2015-04-08T10:46:08Z</time>
      </trkpt>
      <trkpt lat="47.329158978536725" lon="16.275790985673666">
        <ele>338.519999999999982</ele>
        <time>2015-04-08T10:46:12Z</time>
      </trkpt>
      <trkpt lat="47.329067029058933" lon="16.275967005640268">
        <ele>338.519999999999982</ele>
        <time>2015-04-08T10:46:15Z</time>
      </trkpt>
      <trkpt lat="47.329028975218534" lon="16.276019979268312">
        <ele>339</ele>
        <time>2015-04-08T10:46:16Z</time>
      </trkpt>
      <trkpt lat="47.328856978565454" lon="16.276219971477985">
        <ele>338.519999999999982</ele>
        <time>2015-04-08T10:46:20Z</time>
      </trkpt>
      <trkpt lat="47.328814985230565" lon="16.276245033368468">
        <ele>339.480000000000018</ele>
        <time>2015-04-08T10:46:21Z</time>
      </trkpt>
      <trkpt lat="47.328769974410534" lon="16.276255007833242">
        <ele>339.480000000000018</ele>
        <time>2015-04-08T10:46:22Z</time>
      </trkpt>
      <trkpt lat="47.328735021874309" lon="16.276255007833242">
        <ele>339</ele>
        <time>2015-04-08T10:46:23Z</time>
      </trkpt>
      <trkpt lat="47.328711971640587" lon="16.276246961206198">
        <ele>339</ele>
        <time>2015-04-08T10:46:24Z</time>
      </trkpt>
      <trkpt lat="47.32865497469902" lon="16.276230029761791">
        <ele>338.519999999999982</ele>
        <time>2015-04-08T10:46:34Z</time>
      </trkpt>
      <trkpt lat="47.32865497469902" lon="16.276230029761791">
        <ele>339.480000000000018</ele>
        <time>2015-04-08T10:46:40Z</time>
      </trkpt>
      <trkpt lat="47.328639971092343" lon="16.276232041418552">
        <ele>339.480000000000018</ele>
        <time>2015-04-08T10:46:41Z</time>
      </trkpt>
      <trkpt lat="47.328621027991176" lon="16.276230029761791">
        <ele>339.480000000000018</ele>
        <time>2015-04-08T10:46:42Z</time>
      </trkpt>
      <trkpt lat="47.328602001070976" lon="16.276223994791508">
        <ele>339.95999999999998</ele>
        <time>2015-04-08T10:46:43Z</time>
      </trkpt>
      <trkpt lat="47.328582974150777" lon="16.276221983134747">
        <ele>339.480000000000018</ele>
        <time>2015-04-08T10:46:44Z</time>
      </trkpt>
      <trkpt lat="47.328564031049609" lon="16.276219971477985">
        <ele>339.480000000000018</ele>
        <time>2015-04-08T10:46:45Z</time>
      </trkpt>
      <trkpt lat="47.328540980815887" lon="16.276217037811875">
        <ele>339.480000000000018</ele>
        <time>2015-04-08T10:46:46Z</time>
      </trkpt>
      <trkpt lat="47.328518014401197" lon="16.276204967871308">
        <ele>339</ele>
        <time>2015-04-08T10:46:47Z</time>
      </trkpt>
      <trkpt lat="47.328494964167476" lon="16.276182001456618">
        <ele>339.480000000000018</ele>
        <time>2015-04-08T10:46:48Z</time>
      </trkpt>
      <trkpt lat="47.328471997752786" lon="16.276154005900025">
        <ele>339.480000000000018</ele>
        <time>2015-04-08T10:46:49Z</time>
      </trkpt>
      <trkpt lat="47.328449031338096" lon="16.276122992858291">
        <ele>339.95999999999998</ele>
        <time>2015-04-08T10:46:50Z</time>
      </trkpt>
      <trkpt lat="47.328307963907719" lon="16.275987960398197">
        <ele>341.410000000000025</ele>
        <time>2015-04-08T10:46:56Z</time>
      </trkpt>
      <trkpt lat="47.328196987509727" lon="16.275923000648618">
        <ele>342.370000000000005</ele>
        <time>2015-04-08T10:47:01Z</time>
      </trkpt>
      <trkpt lat="47.328175026923418" lon="16.275923000648618">
        <ele>342.850000000000023</ele>
        <time>2015-04-08T10:47:13Z</time>
      </trkpt>
      <trkpt lat="47.328144013881683" lon="16.275931969285011">
        <ele>343.810000000000002</ele>
        <time>2015-04-08T10:47:29Z</time>
      </trkpt>
      <trkpt lat="47.328120963647962" lon="16.275938004255295">
        <ele>342.850000000000023</ele>
        <time>2015-04-08T10:47:30Z</time>
      </trkpt>
      <trkpt lat="47.328097997233272" lon="16.275938004255295">
        <ele>343.810000000000002</ele>
        <time>2015-04-08T10:47:31Z</time>
      </trkpt>
      <trkpt lat="47.328075030818582" lon="16.275931969285011">
        <ele>343.329999999999984</ele>
        <time>2015-04-08T10:47:32Z</time>
      </trkpt>
      <trkpt lat="47.328056003898382" lon="16.275920988991857">
        <ele>343.810000000000002</ele>
        <time>2015-04-08T10:47:33Z</time>
      </trkpt>
      <trkpt lat="47.328045023605227" lon="16.275907997041941">
        <ele>343.810000000000002</ele>
        <time>2015-04-08T10:47:34Z</time>
      </trkpt>
      <trkpt lat="47.32803001999855" lon="16.275896010920405">
        <ele>343.810000000000002</ele>
        <time>2015-04-08T10:47:35Z</time>
      </trkpt>
      <trkpt lat="47.328010993078351" lon="16.275881007313728">
        <ele>344.29000000000002</ele>
        <time>2015-04-08T10:47:36Z</time>
      </trkpt>
      <trkpt lat="47.327990960329771" lon="16.275866003707051">
        <ele>344.29000000000002</ele>
        <time>2015-04-08T10:47:37Z</time>
      </trkpt>
      <trkpt lat="47.327873026952147" lon="16.275861980393529">
        <ele>345.730000000000018</ele>
        <time>2015-04-08T10:47:45Z</time>
      </trkpt>
      <trkpt lat="47.327755009755492" lon="16.275826022028923">
        <ele>347.170000000000016</ele>
        <time>2015-04-08T10:47:54Z</time>
      </trkpt>
      <trkpt lat="47.327735982835293" lon="16.275817975401878">
        <ele>348.129999999999995</ele>
        <time>2015-04-08T10:47:55Z</time>
      </trkpt>
      <trkpt lat="47.327713016420603" lon="16.275810012593865">
        <ele>348.129999999999995</ele>
        <time>2015-04-08T10:47:56Z</time>
      </trkpt>
      <trkpt lat="47.327541019767523" lon="16.275795008987188">
        <ele>350.060000000000002</ele>
        <time>2015-04-08T10:48:08Z</time>
      </trkpt>
      <trkpt lat="47.327392995357513" lon="16.275847982615232">
        <ele>350.54000000000002</ele>
        <time>2015-04-08T10:48:19Z</time>
      </trkpt>
      <trkpt lat="47.327258968725801" lon="16.275957031175494">
        <ele>353.899999999999977</ele>
        <time>2015-04-08T10:48:35Z</time>
      </trkpt>
      <trkpt lat="47.327159978449345" lon="16.276011010631919">
        <ele>356.310000000000002</ele>
        <time>2015-04-08T10:48:51Z</time>
      </trkpt>
      <trkpt lat="47.327102981507778" lon="16.276059960946441">
        <ele>358.230000000000018</ele>
        <time>2015-04-08T10:48:57Z</time>
      </trkpt>
      <trkpt lat="47.326983958482742" lon="16.276115030050278">
        <ele>360.629999999999995</ele>
        <time>2015-04-08T10:49:11Z</time>
      </trkpt>
      <trkpt lat="47.326796958222985" lon="16.276093991473317">
        <ele>363.519999999999982</ele>
        <time>2015-04-08T10:49:28Z</time>
      </trkpt>
      <trkpt lat="47.326659997925162" lon="16.276039006188512">
        <ele>365.920000000000016</ele>
        <time>2015-04-08T10:49:42Z</time>
      </trkpt>
      <trkpt lat="47.326510967686772" lon="16.275871032848954">
        <ele>367.839999999999975</ele>
        <time>2015-04-08T10:49:58Z</time>
      </trkpt>
      <trkpt lat="47.326369984075427" lon="16.2757149618119">
        <ele>370.240000000000009</ele>
        <time>2015-04-08T10:50:13Z</time>
      </trkpt>
      <trkpt lat="47.326134033501148" lon="16.275619994848967">
        <ele>373.129999999999995</ele>
        <time>2015-04-08T10:50:33Z</time>
      </trkpt>
      <trkpt lat="47.326000006869435" lon="16.275824010372162">
        <ele>375.050000000000011</ele>
        <time>2015-04-08T10:50:48Z</time>
      </trkpt>
      <trkpt lat="47.325877966359258" lon="16.27605602145195">
        <ele>376.490000000000009</ele>
        <time>2015-04-08T10:51:02Z</time>
      </trkpt>
      <trkpt lat="47.325690966099501" lon="16.27631401643157">
        <ele>379.860000000000014</ele>
        <time>2015-04-08T10:51:21Z</time>
      </trkpt>
      <trkpt lat="47.325497008860111" lon="16.276568993926048">
        <ele>383.220000000000027</ele>
        <time>2015-04-08T10:51:39Z</time>
      </trkpt>
      <trkpt lat="47.325435988605022" lon="16.276691034436226">
        <ele>383.699999999999989</ele>
        <time>2015-04-08T10:51:53Z</time>
      </trkpt>
      <trkpt lat="47.325347978621721" lon="16.276957998052239">
        <ele>384.660000000000025</ele>
        <time>2015-04-08T10:52:06Z</time>
      </trkpt>
      <trkpt lat="47.325347978621721" lon="16.276982976123691">
        <ele>385.149999999999977</ele>
        <time>2015-04-08T10:52:07Z</time>
      </trkpt>
      <trkpt lat="47.325340015813708" lon="16.277004014700651">
        <ele>384.660000000000025</ele>
        <time>2015-04-08T10:52:08Z</time>
      </trkpt>
      <trkpt lat="47.325335992500186" lon="16.277026981115341">
        <ele>385.149999999999977</ele>
        <time>2015-04-08T10:52:09Z</time>
      </trkpt>
      <trkpt lat="47.325332975015044" lon="16.277053970843554">
        <ele>386.110000000000014</ele>
        <time>2015-04-08T10:52:10Z</time>
      </trkpt>
      <trkpt lat="47.325329035520554" lon="16.277079032734036">
        <ele>386.110000000000014</ele>
        <time>2015-04-08T10:52:11Z</time>
      </trkpt>
      <trkpt lat="47.32521403580904" lon="16.277552023530006">
        <ele>387.069999999999993</ele>
        <time>2015-04-08T10:52:32Z</time>
      </trkpt>
      <trkpt lat="47.325096018612385" lon="16.277866009622812">
        <ele>388.990000000000009</ele>
        <time>2015-04-08T10:52:49Z</time>
      </trkpt>
      <trkpt lat="47.324970038607717" lon="16.27811998128891">
        <ele>389.470000000000027</ele>
        <time>2015-04-08T10:53:04Z</time>
      </trkpt>
      <trkpt lat="47.324837017804384" lon="16.278365990146995">
        <ele>389.949999999999989</ele>
        <time>2015-04-08T10:53:18Z</time>
      </trkpt>
      <trkpt lat="47.324672983959317" lon="16.278653992339969">
        <ele>390.910000000000025</ele>
        <time>2015-04-08T10:53:37Z</time>
      </trkpt>
      <trkpt lat="47.324608024209738" lon="16.278752982616425">
        <ele>392.360000000000014</ele>
        <time>2015-04-08T10:53:46Z</time>
      </trkpt>
      <trkpt lat="47.324566030874848" lon="16.278801010921597">
        <ele>392.360000000000014</ele>
        <time>2015-04-08T10:54:00Z</time>
      </trkpt>
      <trkpt lat="47.324566030874848" lon="16.278792964294553">
        <ele>392.839999999999975</ele>
        <time>2015-04-08T10:54:17Z</time>
      </trkpt>
      <trkpt lat="47.324566030874848" lon="16.278794975951314">
        <ele>390.910000000000025</ele>
        <time>2015-04-08T10:54:33Z</time>
      </trkpt>
      <trkpt lat="47.324566030874848" lon="16.278794975951314">
        <ele>391.389999999999986</ele>
        <time>2015-04-08T10:54:59Z</time>
      </trkpt>
      <trkpt lat="47.324566030874848" lon="16.278794975951314">
        <ele>391.389999999999986</ele>
        <time>2015-04-08T10:55:29Z</time>
      </trkpt>
      <trkpt lat="47.324562007561326" lon="16.278798999264836">
        <ele>392.839999999999975</ele>
        <time>2015-04-08T10:55:45Z</time>
      </trkpt>
      <trkpt lat="47.324557984247804" lon="16.278814002871513">
        <ele>391.870000000000005</ele>
        <time>2015-04-08T10:55:57Z</time>
      </trkpt>
      <trkpt lat="47.324557984247804" lon="16.278825988993049">
        <ele>392.360000000000014</ele>
        <time>2015-04-08T10:56:12Z</time>
      </trkpt>
      <trkpt lat="47.324566030874848" lon="16.278818026185036">
        <ele>390.910000000000025</ele>
        <time>2015-04-08T10:56:22Z</time>
      </trkpt>
      <trkpt lat="47.324059009552002" lon="16.279104016721249">
        <ele>391.389999999999986</ele>
        <time>2015-04-08T11:49:41Z</time>
      </trkpt>
      <trkpt lat="47.32401299290359" lon="16.279188003391027">
        <ele>388.990000000000009</ele>
        <time>2015-04-08T11:49:42Z</time>
      </trkpt>
      <trkpt lat="47.323959013447165" lon="16.279242988675833">
        <ele>392.839999999999975</ele>
        <time>2015-04-08T11:50:04Z</time>
      </trkpt>
      <trkpt lat="47.323939986526966" lon="16.279227985069156">
        <ele>392.360000000000014</ele>
        <time>2015-04-08T11:50:31Z</time>
      </trkpt>
      <trkpt lat="47.323929006233811" lon="16.279229996725917">
        <ele>392.839999999999975</ele>
        <time>2015-04-08T11:50:51Z</time>
      </trkpt>
      <trkpt lat="47.323902016505599" lon="16.279205018654466">
        <ele>390.910000000000025</ele>
        <time>2015-04-08T11:50:56Z</time>
      </trkpt>
      <trkpt lat="47.323920959606767" lon="16.279157996177673">
        <ele>393.800000000000011</ele>
        <time>2015-04-08T11:51:19Z</time>
      </trkpt>
      <trkpt lat="47.323917020112276" lon="16.279185991734266">
        <ele>391.870000000000005</ele>
        <time>2015-04-08T11:51:25Z</time>
      </trkpt>
      <trkpt lat="47.323917020112276" lon="16.279188003391027">
        <ele>391.870000000000005</ele>
        <time>2015-04-08T11:51:37Z</time>
      </trkpt>
      <trkpt lat="47.323906039819121" lon="16.279183980077505">
        <ele>392.839999999999975</ele>
        <time>2015-04-08T11:51:59Z</time>
      </trkpt>
      <trkpt lat="47.323891036212444" lon="16.279181968420744">
        <ele>392.360000000000014</ele>
        <time>2015-04-08T11:52:23Z</time>
      </trkpt>
      <trkpt lat="47.323891036212444" lon="16.279177023097873">
        <ele>391.870000000000005</ele>
        <time>2015-04-08T11:52:35Z</time>
      </trkpt>
      <trkpt lat="47.323909979313612" lon="16.27915003336966">
        <ele>392.360000000000014</ele>
        <time>2015-04-08T11:52:45Z</time>
      </trkpt>
      <trkpt lat="47.323929006233811" lon="16.279124971479177">
        <ele>392.839999999999975</ele>
        <time>2015-04-08T11:52:47Z</time>
      </trkpt>
      <trkpt lat="47.323955995962024" lon="16.278676958754659">
        <ele>395.720000000000027</ele>
        <time>2015-04-08T11:53:02Z</time>
      </trkpt>
      <trkpt lat="47.3238639626652" lon="16.278282003477216">
        <ele>397.160000000000025</ele>
        <time>2015-04-08T11:53:15Z</time>
      </trkpt>
      <trkpt lat="47.323821969330311" lon="16.278042029589415">
        <ele>398.600000000000023</ele>
        <time>2015-04-08T11:53:26Z</time>
      </trkpt>
      <trkpt lat="47.323749968782067" lon="16.27773298881948">
        <ele>400.529999999999973</ele>
        <time>2015-04-08T11:53:40Z</time>
      </trkpt>
      <trkpt lat="47.323661958798766" lon="16.277429983019829">
        <ele>403.889999999999986</ele>
        <time>2015-04-08T11:53:54Z</time>
      </trkpt>
      <trkpt lat="47.323638992384076" lon="16.277380026876926">
        <ele>404.370000000000005</ele>
        <time>2015-04-08T11:53:56Z</time>
      </trkpt>
      <trkpt lat="47.323589036241174" lon="16.277123959735036">
        <ele>406.29000000000002</ele>
        <time>2015-04-08T11:54:09Z</time>
      </trkpt>
      <trkpt lat="47.323460038751364" lon="16.276836041361094">
        <ele>407.740000000000009</ele>
        <time>2015-04-08T11:54:24Z</time>
      </trkpt>
      <trkpt lat="47.323444029316306" lon="16.276795975863934">
        <ele>408.220000000000027</ele>
        <time>2015-04-08T11:54:26Z</time>
      </trkpt>
      <trkpt lat="47.323436988517642" lon="16.276484001427889">
        <ele>409.660000000000025</ele>
        <time>2015-04-08T11:54:38Z</time>
      </trkpt>
      <trkpt lat="47.323489962145686" lon="16.276378976181149">
        <ele>409.660000000000025</ele>
        <time>2015-04-08T11:54:48Z</time>
      </trkpt>
      <trkpt lat="47.323493985459208" lon="16.276361038908362">
        <ele>409.180000000000007</ele>
        <time>2015-04-08T11:55:00Z</time>
      </trkpt>
      <trkpt lat="47.323653995990753" lon="16.276048980653286">
        <ele>411.100000000000023</ele>
        <time>2015-04-08T11:55:11Z</time>
      </trkpt>
      <trkpt lat="47.323742005974054" lon="16.275757038965821">
        <ele>411.579999999999984</ele>
        <time>2015-04-08T11:55:22Z</time>
      </trkpt>
      <trkpt lat="47.323685009032488" lon="16.275445986539125">
        <ele>413.019999999999982</ele>
        <time>2015-04-08T11:55:31Z</time>
      </trkpt>
      <trkpt lat="47.323565986007452" lon="16.275135017931461">
        <ele>413.980000000000018</ele>
        <time>2015-04-08T11:55:43Z</time>
      </trkpt>
      <trkpt lat="47.323425002396107" lon="16.27474601380527">
        <ele>415.430000000000007</ele>
        <time>2015-04-08T11:55:56Z</time>
      </trkpt>
      <trkpt lat="47.323134988546371" lon="16.274258019402623">
        <ele>417.350000000000023</ele>
        <time>2015-04-08T11:56:12Z</time>
      </trkpt>
      <trkpt lat="47.322739027440548" lon="16.274268999695778">
        <ele>417.829999999999984</ele>
        <time>2015-04-08T11:56:25Z</time>
      </trkpt>
      <trkpt lat="47.3223149869591" lon="16.273996001109481">
        <ele>418.310000000000002</ele>
        <time>2015-04-08T11:56:38Z</time>
      </trkpt>
      <trkpt lat="47.321879966184497" lon="16.273387977853417">
        <ele>419.269999999999982</ele>
        <time>2015-04-08T11:56:55Z</time>
      </trkpt>
      <trkpt lat="47.321494985371828" lon="16.272995034232736">
        <ele>420.70999999999998</ele>
        <time>2015-04-08T11:57:08Z</time>
      </trkpt>
      <trkpt lat="47.320824014022946" lon="16.272547021508217">
        <ele>419.269999999999982</ele>
        <time>2015-04-08T11:57:23Z</time>
      </trkpt>
      <trkpt lat="47.320170979946852" lon="16.272122981026769">
        <ele>420.230000000000018</ele>
        <time>2015-04-08T11:57:39Z</time>
      </trkpt>
      <trkpt lat="47.319878032431006" lon="16.271915026009083">
        <ele>423.120000000000005</ele>
        <time>2015-04-08T11:57:48Z</time>
      </trkpt>
      <trkpt lat="47.319850958883762" lon="16.271898010745645">
        <ele>423.120000000000005</ele>
        <time>2015-04-08T11:57:49Z</time>
      </trkpt>
      <trkpt lat="47.319465978071094" lon="16.271636998280883">
        <ele>422.160000000000025</ele>
        <time>2015-04-08T11:58:03Z</time>
      </trkpt>
      <trkpt lat="47.319079991430044" lon="16.271355031058192">
        <ele>422.160000000000025</ele>
        <time>2015-04-08T11:58:13Z</time>
      </trkpt>
      <trkpt lat="47.319034980610013" lon="16.271329969167709">
        <ele>422.160000000000025</ele>
        <time>2015-04-08T11:58:14Z</time>
      </trkpt>
      <trkpt lat="47.318385969847441" lon="16.270924033597112">
        <ele>418.79000000000002</ele>
        <time>2015-04-08T11:58:26Z</time>
      </trkpt>
      <trkpt lat="47.317677028477192" lon="16.270447019487619">
        <ele>414.949999999999989</ele>
        <time>2015-04-08T11:58:37Z</time>
      </trkpt>
      <trkpt lat="47.317604022100568" lon="16.270401002839208">
        <ele>414.949999999999989</ele>
        <time>2015-04-08T11:58:38Z</time>
      </trkpt>
      <trkpt lat="47.316863983869553" lon="16.269908985123038">
        <ele>411.579999999999984</ele>
        <time>2015-04-08T11:58:48Z</time>
      </trkpt>
      <trkpt lat="47.316784020513296" lon="16.269855005666614">
        <ele>411.100000000000023</ele>
        <time>2015-04-08T11:58:49Z</time>
      </trkpt>
      <trkpt lat="47.316199969500303" lon="16.26946097239852">
        <ele>408.220000000000027</ele>
        <time>2015-04-08T11:58:56Z</time>
      </trkpt>
      <trkpt lat="47.315861005336046" lon="16.269238013774157">
        <ele>404.850000000000023</ele>
        <time>2015-04-08T11:59:00Z</time>
      </trkpt>
      <trkpt lat="47.315436964854598" lon="16.268925033509731">
        <ele>402.449999999999989</ele>
        <time>2015-04-08T11:59:05Z</time>
      </trkpt>
      <trkpt lat="47.31468603014946" lon="16.268158005550504">
        <ele>401.970000000000027</ele>
        <time>2015-04-08T11:59:17Z</time>
      </trkpt>
      <trkpt lat="47.314137015491724" lon="16.26709601841867">
        <ele>399.569999999999993</ele>
        <time>2015-04-08T11:59:31Z</time>
      </trkpt>
      <trkpt lat="47.31408697552979" lon="16.266909018158913">
        <ele>399.079999999999984</ele>
        <time>2015-04-08T11:59:33Z</time>
      </trkpt>
      <trkpt lat="47.313983961939812" lon="16.266062026843429">
        <ele>395.240000000000009</ele>
        <time>2015-04-08T11:59:41Z</time>
      </trkpt>
      <trkpt lat="47.313975999131799" lon="16.265840996056795">
        <ele>394.279999999999973</ele>
        <time>2015-04-08T11:59:43Z</time>
      </trkpt>
      <trkpt lat="47.313971975818276" lon="16.265284018591046">
        <ele>390.910000000000025</ele>
        <time>2015-04-08T11:59:48Z</time>
      </trkpt>
      <trkpt lat="47.313971975818276" lon="16.264831982553005">
        <ele>387.550000000000011</ele>
        <time>2015-04-08T11:59:52Z</time>
      </trkpt>
      <trkpt lat="47.313971975818276" lon="16.264332002028823">
        <ele>384.180000000000007</ele>
        <time>2015-04-08T11:59:56Z</time>
      </trkpt>
      <trkpt lat="47.313919002190232" lon="16.263802014291286">
        <ele>379.860000000000014</ele>
        <time>2015-04-08T12:00:00Z</time>
      </trkpt>
      <trkpt lat="47.313868962228298" lon="16.263362970203161">
        <ele>376.490000000000009</ele>
        <time>2015-04-08T12:00:03Z</time>
      </trkpt>
      <trkpt lat="47.3137859813869" lon="16.262904983013868">
        <ele>373.129999999999995</ele>
        <time>2015-04-08T12:00:06Z</time>
      </trkpt>
      <trkpt lat="47.313660001382232" lon="16.262444984167814">
        <ele>370.240000000000009</ele>
        <time>2015-04-08T12:00:09Z</time>
      </trkpt>
      <trkpt lat="47.313556987792253" lon="16.262158993631601">
        <ele>367.839999999999975</ele>
        <time>2015-04-08T12:00:11Z</time>
      </trkpt>
      <trkpt lat="47.313498985022306" lon="16.262029996141791">
        <ele>366.399999999999977</ele>
        <time>2015-04-08T12:00:12Z</time>
      </trkpt>
      <trkpt lat="47.313369987532496" lon="16.261793039739132">
        <ele>365.920000000000016</ele>
        <time>2015-04-08T12:00:14Z</time>
      </trkpt>
      <trkpt lat="47.313224980607629" lon="16.261567985638976">
        <ele>362.550000000000011</ele>
        <time>2015-04-08T12:00:16Z</time>
      </trkpt>
      <trkpt lat="47.313064970076084" lon="16.261356007307768">
        <ele>362.069999999999993</ele>
        <time>2015-04-08T12:00:18Z</time>
      </trkpt>
      <trkpt lat="47.312744027003646" lon="16.260942025110126">
        <ele>359.670000000000016</ele>
        <time>2015-04-08T12:00:22Z</time>
      </trkpt>
      <trkpt lat="47.312328033149242" lon="16.259995959699154">
        <ele>355.829999999999984</ele>
        <time>2015-04-08T12:00:30Z</time>
      </trkpt>
      <trkpt lat="47.312252009287477" lon="16.259760009124875">
        <ele>355.339999999999975</ele>
        <time>2015-04-08T12:00:32Z</time>
      </trkpt>
      <trkpt lat="47.311999965459108" lon="16.258975965902209">
        <ele>351.5</ele>
        <time>2015-04-08T12:00:39Z</time>
      </trkpt>
      <trkpt lat="47.311969958245754" lon="16.258871024474502">
        <ele>351.5</ele>
        <time>2015-04-08T12:00:40Z</time>
      </trkpt>
      <trkpt lat="47.311825035139918" lon="16.258436003699899">
        <ele>348.620000000000005</ele>
        <time>2015-04-08T12:00:44Z</time>
      </trkpt>
      <trkpt lat="47.311649015173316" lon="16.257891012355685">
        <ele>344.29000000000002</ele>
        <time>2015-04-08T12:00:49Z</time>
      </trkpt>
      <trkpt lat="47.311557987704873" lon="16.257563028484583">
        <ele>340.920000000000016</ele>
        <time>2015-04-08T12:00:52Z</time>
      </trkpt>
      <trkpt lat="47.311484981328249" lon="16.25734300352633">
        <ele>339.480000000000018</ele>
        <time>2015-04-08T12:00:54Z</time>
      </trkpt>
      <trkpt lat="47.311454974114895" lon="16.257231021299958">
        <ele>339.480000000000018</ele>
        <time>2015-04-08T12:00:55Z</time>
      </trkpt>
      <trkpt lat="47.311324970796704" lon="16.256778985261917">
        <ele>337.560000000000002</ele>
        <time>2015-04-08T12:00:59Z</time>
      </trkpt>
      <trkpt lat="47.31129496358335" lon="16.256657028570771">
        <ele>336.120000000000005</ele>
        <time>2015-04-08T12:01:00Z</time>
      </trkpt>
      <trkpt lat="47.311156997457147" lon="16.256200969219208">
        <ele>331.79000000000002</ele>
        <time>2015-04-08T12:01:04Z</time>
      </trkpt>
      <trkpt lat="47.311020037159324" lon="16.255705012008548">
        <ele>328.430000000000007</ele>
        <time>2015-04-08T12:01:08Z</time>
      </trkpt>
      <trkpt lat="47.310913000255823" lon="16.25532497651875">
        <ele>326.5</ele>
        <time>2015-04-08T12:01:11Z</time>
      </trkpt>
      <trkpt lat="47.310814009979367" lon="16.254994980990887">
        <ele>325.060000000000002</ele>
        <time>2015-04-08T12:01:14Z</time>
      </trkpt>
      <trkpt lat="47.310676965862513" lon="16.254607988521457">
        <ele>324.100000000000023</ele>
        <time>2015-04-08T12:01:18Z</time>
      </trkpt>
      <trkpt lat="47.310634972527623" lon="16.254531964659691">
        <ele>324.100000000000023</ele>
        <time>2015-04-08T12:01:19Z</time>
      </trkpt>
      <trkpt lat="47.310589039698243" lon="16.254471028223634">
        <ele>324.100000000000023</ele>
        <time>2015-04-08T12:01:20Z</time>
      </trkpt>
      <trkpt lat="47.310538999736309" lon="16.254422999918461">
        <ele>324.100000000000023</ele>
        <time>2015-04-08T12:01:21Z</time>
      </trkpt>
      <trkpt lat="47.310489965602756" lon="16.254387041553855">
        <ele>324.100000000000023</ele>
        <time>2015-04-08T12:01:22Z</time>
      </trkpt>
      <trkpt lat="47.310440009459853" lon="16.254344964399934">
        <ele>324.100000000000023</ele>
        <time>2015-04-08T12:01:23Z</time>
      </trkpt>
      <trkpt lat="47.310387035831809" lon="16.254317974671721">
        <ele>324.579999999999984</ele>
        <time>2015-04-08T12:01:24Z</time>
      </trkpt>
      <trkpt lat="47.310332972556353" lon="16.254297019913793">
        <ele>324.579999999999984</ele>
        <time>2015-04-08T12:01:25Z</time>
      </trkpt>
      <trkpt lat="47.310284022241831" lon="16.254282016307116">
        <ele>322.180000000000007</ele>
        <time>2015-04-08T12:01:26Z</time>
      </trkpt>
      <trkpt lat="47.310238005593419" lon="16.254267012700438">
        <ele>322.180000000000007</ele>
        <time>2015-04-08T12:01:27Z</time>
      </trkpt>
      <trkpt lat="47.31004698202014" lon="16.254231976345181">
        <ele>326.019999999999982</ele>
        <time>2015-04-08T12:01:32Z</time>
      </trkpt>
      <trkpt lat="47.310013035312295" lon="16.254233988001943">
        <ele>326.019999999999982</ele>
        <time>2015-04-08T12:01:33Z</time>
      </trkpt>
      <trkpt lat="47.309952015057206" lon="16.254257038235664">
        <ele>326.990000000000009</ele>
        <time>2015-04-08T12:01:42Z</time>
      </trkpt>
      <trkpt lat="47.309952015057206" lon="16.254260977730155">
        <ele>326.990000000000009</ele>
        <time>2015-04-08T12:02:10Z</time>
      </trkpt>
      <trkpt lat="47.309952015057206" lon="16.254260977730155">
        <ele>326.990000000000009</ele>
        <time>2015-04-08T12:02:11Z</time>
      </trkpt>
      <trkpt lat="47.309940028935671" lon="16.254273969680071">
        <ele>327.470000000000027</ele>
        <time>2015-04-08T12:02:12Z</time>
      </trkpt>
      <trkpt lat="47.309928964823484" lon="16.254282016307116">
        <ele>326.990000000000009</ele>
        <time>2015-04-08T12:02:13Z</time>
      </trkpt>
      <trkpt lat="47.309798961505294" lon="16.254255026578903">
        <ele>327.949999999999989</ele>
        <time>2015-04-08T12:02:19Z</time>
      </trkpt>
      <trkpt lat="47.309475000947714" lon="16.254058973863721">
        <ele>329.870000000000005</ele>
        <time>2015-04-08T12:02:34Z</time>
      </trkpt>
      <trkpt lat="47.309334017336369" lon="16.253961995244026">
        <ele>331.79000000000002</ele>
        <time>2015-04-08T12:02:40Z</time>
      </trkpt>
      <trkpt lat="47.30907803401351" lon="16.253778012469411">
        <ele>333.70999999999998</ele>
        <time>2015-04-08T12:02:51Z</time>
      </trkpt>
      <trkpt lat="47.308623986318707" lon="16.253671981394291">
        <ele>336.120000000000005</ele>
        <time>2015-04-08T12:03:08Z</time>
      </trkpt>
      <trkpt lat="47.308078994974494" lon="16.253618001937866">
        <ele>338.519999999999982</ele>
        <time>2015-04-08T12:03:27Z</time>
      </trkpt>
      <trkpt lat="47.307610027492046" lon="16.253428990021348">
        <ele>340.439999999999998</ele>
        <time>2015-04-08T12:03:45Z</time>
      </trkpt>
      <trkpt lat="47.307224040850997" lon="16.253167977556586">
        <ele>341.410000000000025</ele>
        <time>2015-04-08T12:04:02Z</time>
      </trkpt>
      <trkpt lat="47.306769993156195" lon="16.252857008948922">
        <ele>343.810000000000002</ele>
        <time>2015-04-08T12:04:21Z</time>
      </trkpt>
      <trkpt lat="47.306431028991938" lon="16.252606976777315">
        <ele>345.730000000000018</ele>
        <time>2015-04-08T12:04:36Z</time>
      </trkpt>
      <trkpt lat="47.306068008765578" lon="16.25233800150454">
        <ele>348.620000000000005</ele>
        <time>2015-04-08T12:04:52Z</time>
      </trkpt>
      <trkpt lat="47.305690990760922" lon="16.252076989039779">
        <ele>351.5</ele>
        <time>2015-04-08T12:05:09Z</time>
      </trkpt>
      <trkpt lat="47.305378010496497" lon="16.251813964918256">
        <ele>353.899999999999977</ele>
        <time>2015-04-08T12:05:24Z</time>
      </trkpt>
      <trkpt lat="47.30508397333324" lon="16.251454968005419">
        <ele>355.339999999999975</ele>
        <time>2015-04-08T12:05:40Z</time>
      </trkpt>
      <trkpt lat="47.304881969466805" lon="16.251102006062865">
        <ele>357.75</ele>
        <time>2015-04-08T12:05:53Z</time>
      </trkpt>
      <trkpt lat="47.304694969207048" lon="16.250709984451532">
        <ele>360.149999999999977</ele>
        <time>2015-04-08T12:06:07Z</time>
      </trkpt>
      <trkpt lat="47.304496988654137" lon="16.250289967283607">
        <ele>362.069999999999993</ele>
        <time>2015-04-08T12:06:22Z</time>
      </trkpt>
      <trkpt lat="47.304329015314579" lon="16.249846983700991">
        <ele>364</ele>
        <time>2015-04-08T12:06:35Z</time>
      </trkpt>
      <trkpt lat="47.304023997858167" lon="16.249031005427241">
        <ele>362.550000000000011</ele>
        <time>2015-04-08T12:06:51Z</time>
      </trkpt>
      <trkpt lat="47.303680004552007" lon="16.248116036877036">
        <ele>361.110000000000014</ele>
        <time>2015-04-08T12:07:05Z</time>
      </trkpt>
      <trkpt lat="47.303265016525984" lon="16.247206013649702">
        <ele>358.70999999999998</ele>
        <time>2015-04-08T12:07:17Z</time>
      </trkpt>
      <trkpt lat="47.30284902267158" lon="16.246477039530873">
        <ele>355.339999999999975</ele>
        <time>2015-04-08T12:07:27Z</time>
      </trkpt>
      <trkpt lat="47.302508968859911" lon="16.245921989902854">
        <ele>351.5</ele>
        <time>2015-04-08T12:07:34Z</time>
      </trkpt>
      <trkpt lat="47.302363961935043" lon="16.245658965781331">
        <ele>350.060000000000002</ele>
        <time>2015-04-08T12:07:37Z</time>
      </trkpt>
      <trkpt lat="47.301909998059273" lon="16.244842987507582">
        <ele>345.730000000000018</ele>
        <time>2015-04-08T12:07:46Z</time>
      </trkpt>
      <trkpt lat="47.301806984469295" lon="16.244633020833135">
        <ele>344.769999999999982</ele>
        <time>2015-04-08T12:07:48Z</time>
      </trkpt>
      <trkpt lat="47.30164697393775" lon="16.244318028911948">
        <ele>342.850000000000023</ele>
        <time>2015-04-08T12:07:51Z</time>
      </trkpt>
      <trkpt lat="47.301486963406205" lon="16.244003036990762">
        <ele>341.410000000000025</ele>
        <time>2015-04-08T12:07:54Z</time>
      </trkpt>
      <trkpt lat="47.301155040040612" lon="16.243368024006486">
        <ele>338.519999999999982</ele>
        <time>2015-04-08T12:08:00Z</time>
      </trkpt>
      <trkpt lat="47.300919005647302" lon="16.242957981303334">
        <ele>335.639999999999986</ele>
        <time>2015-04-08T12:08:04Z</time>
      </trkpt>
      <trkpt lat="47.300670985132456" lon="16.242526983842254">
        <ele>332.75</ele>
        <time>2015-04-08T12:08:08Z</time>
      </trkpt>
      <trkpt lat="47.300491025671363" lon="16.242167986929417">
        <ele>330.350000000000023</ele>
        <time>2015-04-08T12:08:11Z</time>
      </trkpt>
      <trkpt lat="47.300274018198252" lon="16.241854000836611">
        <ele>328.910000000000025</ele>
        <time>2015-04-08T12:08:14Z</time>
      </trkpt>
      <trkpt lat="47.300067991018295" lon="16.241506990045309">
        <ele>325.54000000000002</ele>
        <time>2015-04-08T12:08:17Z</time>
      </trkpt>
      <trkpt lat="47.299865987151861" lon="16.24116500839591">
        <ele>323.139999999999986</ele>
        <time>2015-04-08T12:08:20Z</time>
      </trkpt>
      <trkpt lat="47.299544960260391" lon="16.240633009001613">
        <ele>320.259999999999991</ele>
        <time>2015-04-08T12:08:25Z</time>
      </trkpt>
      <trkpt lat="47.299190992489457" lon="16.24000696465373">
        <ele>317.370000000000005</ele>
        <time>2015-04-08T12:08:31Z</time>
      </trkpt>
      <trkpt lat="47.299159979447722" lon="16.239907974377275">
        <ele>317.370000000000005</ele>
        <time>2015-04-08T12:08:32Z</time>
      </trkpt>
      <trkpt lat="47.299141036346555" lon="16.239815019071102">
        <ele>317.370000000000005</ele>
        <time>2015-04-08T12:08:33Z</time>
      </trkpt>
      <trkpt lat="47.29913298971951" lon="16.239718962460756">
        <ele>316.410000000000025</ele>
        <time>2015-04-08T12:08:34Z</time>
      </trkpt>
      <trkpt lat="47.29913298971951" lon="16.239626007154584">
        <ele>315.930000000000007</ele>
        <time>2015-04-08T12:08:35Z</time>
      </trkpt>
      <trkpt lat="47.299137013033032" lon="16.23953397385776">
        <ele>315.930000000000007</ele>
        <time>2015-04-08T12:08:36Z</time>
      </trkpt>
      <trkpt lat="47.299152016639709" lon="16.239443030208349">
        <ele>316.889999999999986</ele>
        <time>2015-04-08T12:08:37Z</time>
      </trkpt>
      <trkpt lat="47.299170959740877" lon="16.2393609713763">
        <ele>317.850000000000023</ele>
        <time>2015-04-08T12:08:38Z</time>
      </trkpt>
      <trkpt lat="47.299236003309488" lon="16.239138012751937">
        <ele>315.449999999999989</ele>
        <time>2015-04-08T12:08:41Z</time>
      </trkpt>
      <trkpt lat="47.299262993037701" lon="16.239074980840087">
        <ele>315.930000000000007</ele>
        <time>2015-04-08T12:08:42Z</time>
      </trkpt>
      <trkpt lat="47.299376986920834" lon="16.238755965605378">
        <ele>314.970000000000027</ele>
        <time>2015-04-08T12:08:47Z</time>
      </trkpt>
      <trkpt lat="47.299385033547878" lon="16.238685976713896">
        <ele>314.490000000000009</ele>
        <time>2015-04-08T12:08:48Z</time>
      </trkpt>
      <trkpt lat="47.299381010234356" lon="16.238619005307555">
        <ele>314.970000000000027</ele>
        <time>2015-04-08T12:08:49Z</time>
      </trkpt>
      <trkpt lat="47.299376986920834" lon="16.238555973395705">
        <ele>315.449999999999989</ele>
        <time>2015-04-08T12:08:50Z</time>
      </trkpt>
      <trkpt lat="47.299376986920834" lon="16.238496964797378">
        <ele>314.970000000000027</ele>
        <time>2015-04-08T12:08:51Z</time>
      </trkpt>
      <trkpt lat="47.299370029941201" lon="16.238395962864161">
        <ele>314.490000000000009</ele>
        <time>2015-04-08T12:08:53Z</time>
      </trkpt>
      <trkpt lat="47.299355026334524" lon="16.238357992842793">
        <ele>314.490000000000009</ele>
        <time>2015-04-08T12:08:54Z</time>
      </trkpt>
      <trkpt lat="47.299331976100802" lon="16.238335026428103">
        <ele>314.490000000000009</ele>
        <time>2015-04-08T12:08:55Z</time>
      </trkpt>
      <trkpt lat="47.299309009686112" lon="16.238324968144298">
        <ele>314.009999999999991</ele>
        <time>2015-04-08T12:08:56Z</time>
      </trkpt>
      <trkpt lat="47.299289982765913" lon="16.238321028649807">
        <ele>314.490000000000009</ele>
        <time>2015-04-08T12:08:57Z</time>
      </trkpt>
      <trkpt lat="47.299277996644378" lon="16.238315999507904">
        <ele>315.449999999999989</ele>
        <time>2015-04-08T12:09:08Z</time>
      </trkpt>
      <trkpt lat="47.299277996644378" lon="16.238315999507904">
        <ele>314.009999999999991</ele>
        <time>2015-04-08T12:09:12Z</time>
      </trkpt>
      <trkpt lat="47.299277996644378" lon="16.23830602504313">
        <ele>313.529999999999973</ele>
        <time>2015-04-08T12:09:42Z</time>
      </trkpt>
      <trkpt lat="47.299277996644378" lon="16.23830602504313">
        <ele>315.449999999999989</ele>
        <time>2015-04-08T12:09:48Z</time>
      </trkpt>
      <trkpt lat="47.299277996644378" lon="16.23830602504313">
        <ele>314.490000000000009</ele>
        <time>2015-04-08T12:09:50Z</time>
      </trkpt>
      <trkpt lat="47.299277996644378" lon="16.238297978416085">
        <ele>314.970000000000027</ele>
        <time>2015-04-08T12:10:26Z</time>
      </trkpt>
      <trkpt lat="47.299277996644378" lon="16.238297978416085">
        <ele>314.490000000000009</ele>
        <time>2015-04-08T12:10:38Z</time>
      </trkpt>
      <trkpt lat="47.299273973330855" lon="16.238297978416085">
        <ele>314.490000000000009</ele>
        <time>2015-04-08T12:11:05Z</time>
      </trkpt>
      <trkpt lat="47.299273973330855" lon="16.238297978416085">
        <ele>314.009999999999991</ele>
        <time>2015-04-08T12:11:36Z</time>
      </trkpt>
      <trkpt lat="47.299273973330855" lon="16.238304013386369">
        <ele>314.490000000000009</ele>
        <time>2015-04-08T12:12:07Z</time>
      </trkpt>
      <trkpt lat="47.299236003309488" lon="16.238365033641458">
        <ele>314.009999999999991</ele>
        <time>2015-04-08T12:12:17Z</time>
      </trkpt>
      <trkpt lat="47.299225023016334" lon="16.238394035026431">
        <ele>314.009999999999991</ele>
        <time>2015-04-08T12:12:18Z</time>
      </trkpt>
      <trkpt lat="47.299213036894798" lon="16.238422030583024">
        <ele>313.529999999999973</ele>
        <time>2015-04-08T12:12:19Z</time>
      </trkpt>
      <trkpt lat="47.299107005819678" lon="16.238645995035768">
        <ele>314.009999999999991</ele>
        <time>2015-04-08T12:12:33Z</time>
      </trkpt>
      <trkpt lat="47.298996029421687" lon="16.238892003893852">
        <ele>315.449999999999989</ele>
        <time>2015-04-08T12:12:48Z</time>
      </trkpt>
      <trkpt lat="47.298954036086798" lon="16.239042039960623">
        <ele>315.930000000000007</ele>
        <time>2015-04-08T12:13:02Z</time>
      </trkpt>
      <trkpt lat="47.298954036086798" lon="16.239042039960623">
        <ele>315.930000000000007</ele>
        <time>2015-04-08T12:13:36Z</time>
      </trkpt>
      <trkpt lat="47.298954036086798" lon="16.239030975848436">
        <ele>315.930000000000007</ele>
        <time>2015-04-08T12:14:14Z</time>
      </trkpt>
      <trkpt lat="47.298954036086798" lon="16.239021001383662">
        <ele>315.930000000000007</ele>
        <time>2015-04-08T12:14:52Z</time>
      </trkpt>
      <trkpt lat="47.298950012773275" lon="16.239012032747269">
        <ele>315.930000000000007</ele>
        <time>2015-04-08T12:15:26Z</time>
      </trkpt>
      <trkpt lat="47.298945989459753" lon="16.239087972790003">
        <ele>315.449999999999989</ele>
        <time>2015-04-08T12:15:47Z</time>
      </trkpt>
      <trkpt lat="47.298945989459753" lon="16.239106999710202">
        <ele>315.930000000000007</ele>
        <time>2015-04-08T12:15:48Z</time>
      </trkpt>
      <trkpt lat="47.298954036086798" lon="16.239128038287163">
        <ele>315.449999999999989</ele>
        <time>2015-04-08T12:15:49Z</time>
      </trkpt>
      <trkpt lat="47.298961998894811" lon="16.239148993045092">
        <ele>315.449999999999989</ele>
        <time>2015-04-08T12:15:50Z</time>
      </trkpt>
      <trkpt lat="47.298961998894811" lon="16.239170031622052">
        <ele>315.930000000000007</ele>
        <time>2015-04-08T12:15:51Z</time>
      </trkpt>
      <trkpt lat="47.298965016379952" lon="16.239186963066459">
        <ele>315.449999999999989</ele>
        <time>2015-04-08T12:15:52Z</time>
      </trkpt>
      <trkpt lat="47.299117986112833" lon="16.2394680082798">
        <ele>316.889999999999986</ele>
        <time>2015-04-08T12:16:04Z</time>
      </trkpt>
      <trkpt lat="47.299126032739878" lon="16.239921972155571">
        <ele>317.850000000000023</ele>
        <time>2015-04-08T12:16:15Z</time>
      </trkpt>
      <trkpt lat="47.299319989979267" lon="16.240394962951541">
        <ele>319.779999999999973</ele>
        <time>2015-04-08T12:16:28Z</time>
      </trkpt>
      <trkpt lat="47.299544960260391" lon="16.240776004269719">
        <ele>321.220000000000027</ele>
        <time>2015-04-08T12:16:42Z</time>
      </trkpt>
      <trkpt lat="47.299610003829002" lon="16.240869965404272">
        <ele>321.699999999999989</ele>
        <time>2015-04-08T12:16:54Z</time>
      </trkpt>
      <trkpt lat="47.299610003829002" lon="16.240869965404272">
        <ele>322.180000000000007</ele>
        <time>2015-04-08T12:17:17Z</time>
      </trkpt>
      <trkpt lat="47.299610003829002" lon="16.240869965404272">
        <ele>322.180000000000007</ele>
        <time>2015-04-08T12:17:18Z</time>
      </trkpt>
      <trkpt lat="47.299617966637015" lon="16.240888992324471">
        <ele>322.180000000000007</ele>
        <time>2015-04-08T12:17:19Z</time>
      </trkpt>
      <trkpt lat="47.299625007435679" lon="16.240911036729813">
        <ele>322.180000000000007</ele>
        <time>2015-04-08T12:17:20Z</time>
      </trkpt>
      <trkpt lat="47.299632970243692" lon="16.240930985659361">
        <ele>322.180000000000007</ele>
        <time>2015-04-08T12:17:21Z</time>
      </trkpt>
      <trkpt lat="47.299636993557215" lon="16.240945989266038">
        <ele>322.180000000000007</ele>
        <time>2015-04-08T12:17:22Z</time>
      </trkpt>
      <trkpt lat="47.299641016870737" lon="16.240955041721463">
        <ele>322.180000000000007</ele>
        <time>2015-04-08T12:17:23Z</time>
      </trkpt>
      <trkpt lat="47.299647973850369" lon="16.24096903949976">
        <ele>322.660000000000025</ele>
        <time>2015-04-08T12:17:24Z</time>
      </trkpt>
      <trkpt lat="47.299656020477414" lon="16.240983959287405">
        <ele>322.180000000000007</ele>
        <time>2015-04-08T12:17:25Z</time>
      </trkpt>
      <trkpt lat="47.299823993816972" lon="16.241219993680716">
        <ele>323.620000000000005</ele>
        <time>2015-04-08T12:17:38Z</time>
      </trkpt>
      <trkpt lat="47.299831034615636" lon="16.241238014772534">
        <ele>323.620000000000005</ele>
        <time>2015-04-08T12:17:39Z</time>
      </trkpt>
      <trkpt lat="47.299838997423649" lon="16.241260981187224">
        <ele>323.620000000000005</ele>
        <time>2015-04-08T12:17:40Z</time>
      </trkpt>
      <trkpt lat="47.299846960231662" lon="16.241285037249327">
        <ele>323.620000000000005</ele>
        <time>2015-04-08T12:17:41Z</time>
      </trkpt>
      <trkpt lat="47.299994984641671" lon="16.241549989208579">
        <ele>325.54000000000002</ele>
        <time>2015-04-08T12:17:54Z</time>
      </trkpt>
      <trkpt lat="47.300193971022964" lon="16.241893982514739">
        <ele>327.949999999999989</ele>
        <time>2015-04-08T12:18:07Z</time>
      </trkpt>
      <trkpt lat="47.300410978496075" lon="16.242249039933085">
        <ele>329.870000000000005</ele>
        <time>2015-04-08T12:18:22Z</time>
      </trkpt>
      <trkpt lat="47.300632009282708" lon="16.242608958855271">
        <ele>332.269999999999982</ele>
        <time>2015-04-08T12:18:34Z</time>
      </trkpt>
      <trkpt lat="47.300796965137124" lon="16.242863014340401">
        <ele>334.680000000000007</ele>
        <time>2015-04-08T12:18:48Z</time>
      </trkpt>
      <trkpt lat="47.300964016467333" lon="16.243157973513007">
        <ele>336.120000000000005</ele>
        <time>2015-04-08T12:19:02Z</time>
      </trkpt>
      <trkpt lat="47.301136013120413" lon="16.243447987362742">
        <ele>337.079999999999984</ele>
        <time>2015-04-08T12:19:15Z</time>
      </trkpt>
      <trkpt lat="47.301350003108382" lon="16.243846965953708">
        <ele>339.480000000000018</ele>
        <time>2015-04-08T12:19:31Z</time>
      </trkpt>
      <trkpt lat="47.301498027518392" lon="16.244190037250519">
        <ele>341.410000000000025</ele>
        <time>2015-04-08T12:19:44Z</time>
      </trkpt>
      <trkpt lat="47.301703970879316" lon="16.244569988921285">
        <ele>344.29000000000002</ele>
        <time>2015-04-08T12:20:00Z</time>
      </trkpt>
      <trkpt lat="47.301909998059273" lon="16.244901996105909">
        <ele>345.730000000000018</ele>
        <time>2015-04-08T12:20:15Z</time>
      </trkpt>
      <trkpt lat="47.302090041339397" lon="16.245244983583689">
        <ele>347.170000000000016</ele>
        <time>2015-04-08T12:20:30Z</time>
      </trkpt>
      <trkpt lat="47.302310988306999" lon="16.245642034336925">
        <ele>349.579999999999984</ele>
        <time>2015-04-08T12:20:47Z</time>
      </trkpt>
      <trkpt lat="47.302478961646557" lon="16.245963983237743">
        <ele>351.980000000000018</ele>
        <time>2015-04-08T12:21:01Z</time>
      </trkpt>
      <trkpt lat="47.302704015746713" lon="16.246352987363935">
        <ele>353.420000000000016</ele>
        <time>2015-04-08T12:21:18Z</time>
      </trkpt>
      <trkpt lat="47.302867965772748" lon="16.246627997606993">
        <ele>354.860000000000014</ele>
        <time>2015-04-08T12:21:31Z</time>
      </trkpt>
      <trkpt lat="47.303120009601116" lon="16.247034016996622">
        <ele>356.310000000000002</ele>
        <time>2015-04-08T12:21:47Z</time>
      </trkpt>
      <trkpt lat="47.303374987095594" lon="16.247516982257366">
        <ele>358.230000000000018</ele>
        <time>2015-04-08T12:22:04Z</time>
      </trkpt>
      <trkpt lat="47.303603980690241" lon="16.248058034107089">
        <ele>361.110000000000014</ele>
        <time>2015-04-08T12:22:21Z</time>
      </trkpt>
      <trkpt lat="47.303783018141985" lon="16.248529013246298">
        <ele>362.069999999999993</ele>
        <time>2015-04-08T12:22:35Z</time>
      </trkpt>
      <trkpt lat="47.30398896150291" lon="16.249083979055285">
        <ele>364</ele>
        <time>2015-04-08T12:22:50Z</time>
      </trkpt>
      <trkpt lat="47.304194988682866" lon="16.249618995934725">
        <ele>364.480000000000018</ele>
        <time>2015-04-08T12:23:05Z</time>
      </trkpt>
      <trkpt lat="47.304432028904557" lon="16.250220984220505">
        <ele>364</ele>
        <time>2015-04-08T12:23:19Z</time>
      </trkpt>
      <trkpt lat="47.304516015574336" lon="16.250444026663899">
        <ele>363.04000000000002</ele>
        <time>2015-04-08T12:23:23Z</time>
      </trkpt>
      <trkpt lat="47.304874006658792" lon="16.25124198384583">
        <ele>360.629999999999995</ele>
        <time>2015-04-08T12:23:35Z</time>
      </trkpt>
      <trkpt lat="47.305103000253439" lon="16.251623025164008">
        <ele>357.75</ele>
        <time>2015-04-08T12:23:40Z</time>
      </trkpt>
      <trkpt lat="47.305156979709864" lon="16.251697959378362">
        <ele>357.75</ele>
        <time>2015-04-08T12:23:41Z</time>
      </trkpt>
      <trkpt lat="47.305530980229378" lon="16.252096015959978">
        <ele>354.379999999999995</ele>
        <time>2015-04-08T12:23:47Z</time>
      </trkpt>
      <trkpt lat="47.305740024894476" lon="16.252254014834762">
        <ele>352.939999999999998</ele>
        <time>2015-04-08T12:23:50Z</time>
      </trkpt>
      <trkpt lat="47.306042024865746" lon="16.252453001216054">
        <ele>350.54000000000002</ele>
        <time>2015-04-08T12:23:54Z</time>
      </trkpt>
      <trkpt lat="47.306266995146871" lon="16.252608988434076">
        <ele>348.620000000000005</ele>
        <time>2015-04-08T12:23:57Z</time>
      </trkpt>
      <trkpt lat="47.306838976219296" lon="16.252994975075126">
        <ele>346.20999999999998</ele>
        <time>2015-04-08T12:24:05Z</time>
      </trkpt>
      <trkpt lat="47.307399976998568" lon="16.253374004736543">
        <ele>342.850000000000023</ele>
        <time>2015-04-08T12:24:14Z</time>
      </trkpt>
      <trkpt lat="47.308093998581171" lon="16.253708023577929">
        <ele>340.920000000000016</ele>
        <time>2015-04-08T12:24:28Z</time>
      </trkpt>
      <trkpt lat="47.308719959110022" lon="16.253748005256057">
        <ele>337.560000000000002</ele>
        <time>2015-04-08T12:24:39Z</time>
      </trkpt>
      <trkpt lat="47.308834036812186" lon="16.253760997205973">
        <ele>338.04000000000002</ele>
        <time>2015-04-08T12:24:41Z</time>
      </trkpt>
      <trkpt lat="47.30895197018981" lon="16.253792010247707">
        <ele>337.560000000000002</ele>
        <time>2015-04-08T12:24:43Z</time>
      </trkpt>
      <trkpt lat="47.309006033465266" lon="16.25381899997592">
        <ele>337.560000000000002</ele>
        <time>2015-04-08T12:24:44Z</time>
      </trkpt>
      <trkpt lat="47.309120027348399" lon="16.25388303771615">
        <ele>336.120000000000005</ele>
        <time>2015-04-08T12:24:46Z</time>
      </trkpt>
      <trkpt lat="47.309298980981112" lon="16.254025027155876">
        <ele>334.680000000000007</ele>
        <time>2015-04-08T12:24:53Z</time>
      </trkpt>
      <trkpt lat="47.309298980981112" lon="16.254021003842354">
        <ele>333.70999999999998</ele>
        <time>2015-04-08T12:25:10Z</time>
      </trkpt>
      <trkpt lat="47.309310967102647" lon="16.254026032984257">
        <ele>334.199999999999989</ele>
        <time>2015-04-08T12:25:25Z</time>
      </trkpt>
      <trkpt lat="47.309325970709324" lon="16.254038019105792">
        <ele>333.230000000000018</ele>
        <time>2015-04-08T12:25:26Z</time>
      </trkpt>
      <trkpt lat="47.309352960437536" lon="16.25405503436923">
        <ele>332.75</ele>
        <time>2015-04-08T12:25:27Z</time>
      </trkpt>
      <trkpt lat="47.30938003398478" lon="16.254073977470398">
        <ele>333.230000000000018</ele>
        <time>2015-04-08T12:25:28Z</time>
      </trkpt>
      <trkpt lat="47.309410041198134" lon="16.254093004390597">
        <ele>332.75</ele>
        <time>2015-04-08T12:25:29Z</time>
      </trkpt>
      <trkpt lat="47.309440970420837" lon="16.254113959148526">
        <ele>332.75</ele>
        <time>2015-04-08T12:25:30Z</time>
      </trkpt>
      <trkpt lat="47.309475000947714" lon="16.254139021039009">
        <ele>332.269999999999982</ele>
        <time>2015-04-08T12:25:31Z</time>
      </trkpt>
      <trkpt lat="47.30950903147459" lon="16.254168022423983">
        <ele>332.269999999999982</ele>
        <time>2015-04-08T12:25:32Z</time>
      </trkpt>
      <trkpt lat="47.309547001495957" lon="16.254198029637337">
        <ele>331.79000000000002</ele>
        <time>2015-04-08T12:25:33Z</time>
      </trkpt>
      <trkpt lat="47.309769038110971" lon="16.254329960793257">
        <ele>330.829999999999984</ele>
        <time>2015-04-08T12:25:38Z</time>
      </trkpt>
      <trkpt lat="47.310229958966374" lon="16.254374971613288">
        <ele>327.949999999999989</ele>
        <time>2015-04-08T12:25:48Z</time>
      </trkpt>
      <trkpt lat="47.310363985598087" lon="16.254440015181899">
        <ele>326.5</ele>
        <time>2015-04-08T12:25:51Z</time>
      </trkpt>
      <trkpt lat="47.310528019443154" lon="16.254546968266368">
        <ele>326.019999999999982</ele>
        <time>2015-04-08T12:25:55Z</time>
      </trkpt>
      <trkpt lat="47.310561966150999" lon="16.254583010450006">
        <ele>326.019999999999982</ele>
        <time>2015-04-08T12:25:56Z</time>
      </trkpt>
      <trkpt lat="47.310595996677876" lon="16.254621986299753">
        <ele>326.990000000000009</ele>
        <time>2015-04-08T12:25:57Z</time>
      </trkpt>
      <trkpt lat="47.310622986406088" lon="16.254664985463023">
        <ele>326.019999999999982</ele>
        <time>2015-04-08T12:25:58Z</time>
      </trkpt>
      <trkpt lat="47.3106499761343" lon="16.254715025424957">
        <ele>326.5</ele>
        <time>2015-04-08T12:25:59Z</time>
      </trkpt>
      <trkpt lat="47.310673026368022" lon="16.25476598739624">
        <ele>326.5</ele>
        <time>2015-04-08T12:26:00Z</time>
      </trkpt>
      <trkpt lat="47.310878969728947" lon="16.255445005372167">
        <ele>328.430000000000007</ele>
        <time>2015-04-08T12:26:14Z</time>
      </trkpt>
      <trkpt lat="47.310882993042469" lon="16.255476018413901">
        <ele>328.430000000000007</ele>
        <time>2015-04-08T12:26:15Z</time>
      </trkpt>
      <trkpt lat="47.310878969728947" lon="16.255505019798875">
        <ele>328.430000000000007</ele>
        <time>2015-04-08T12:26:16Z</time>
      </trkpt>
      <trkpt lat="47.310763970017433" lon="16.255764020606875">
        <ele>328.430000000000007</ele>
        <time>2015-04-08T12:26:25Z</time>
      </trkpt>
      <trkpt lat="47.310737986117601" lon="16.255810037255287">
        <ele>327.470000000000027</ele>
        <time>2015-04-08T12:26:26Z</time>
      </trkpt>
      <trkpt lat="47.310706973075867" lon="16.255863010883331">
        <ele>326.990000000000009</ele>
        <time>2015-04-08T12:26:27Z</time>
      </trkpt>
      <trkpt lat="47.310607982799411" lon="16.256030984222889">
        <ele>326.019999999999982</ele>
        <time>2015-04-08T12:26:30Z</time>
      </trkpt>
      <trkpt lat="47.309925025328994" lon="16.257244013249874">
        <ele>322.660000000000025</ele>
        <time>2015-04-08T12:26:48Z</time>
      </trkpt>
      <trkpt lat="47.309479024261236" lon="16.25828898511827">
        <ele>322.660000000000025</ele>
        <time>2015-04-08T12:27:02Z</time>
      </trkpt>
      <trkpt lat="47.30942496098578" lon="16.258337013423443">
        <ele>322.180000000000007</ele>
        <time>2015-04-08T12:27:03Z</time>
      </trkpt>
      <trkpt lat="47.309376010671258" lon="16.258379006758332">
        <ele>321.699999999999989</ele>
        <time>2015-04-08T12:27:04Z</time>
      </trkpt>
      <trkpt lat="47.309322031214833" lon="16.258413037285209">
        <ele>321.699999999999989</ele>
        <time>2015-04-08T12:27:05Z</time>
      </trkpt>
      <trkpt lat="47.309268973767757" lon="16.25843801535666">
        <ele>322.180000000000007</ele>
        <time>2015-04-08T12:27:06Z</time>
      </trkpt>
      <trkpt lat="47.309211976826191" lon="16.258458970114589">
        <ele>322.180000000000007</ele>
        <time>2015-04-08T12:27:07Z</time>
      </trkpt>
      <trkpt lat="47.308296002447605" lon="16.258994992822409">
        <ele>321.220000000000027</ele>
        <time>2015-04-08T12:27:23Z</time>
      </trkpt>
      <trkpt lat="47.307715974748135" lon="16.259410986676812">
        <ele>320.740000000000009</ele>
        <time>2015-04-08T12:27:34Z</time>
      </trkpt>
      <trkpt lat="47.306899996474385" lon="16.259999983012676">
        <ele>321.220000000000027</ele>
        <time>2015-04-08T12:27:50Z</time>
      </trkpt>
      <trkpt lat="47.306778039783239" lon="16.26013602130115">
        <ele>322.660000000000025</ele>
        <time>2015-04-08T12:27:53Z</time>
      </trkpt>
      <trkpt lat="47.306744009256363" lon="16.260193018242717">
        <ele>322.180000000000007</ele>
        <time>2015-04-08T12:27:54Z</time>
      </trkpt>
      <trkpt lat="47.306663962081075" lon="16.260365014895797">
        <ele>322.660000000000025</ele>
        <time>2015-04-08T12:27:57Z</time>
      </trkpt>
      <trkpt lat="47.306648036465049" lon="16.260424023494124">
        <ele>323.139999999999986</ele>
        <time>2015-04-08T12:27:58Z</time>
      </trkpt>
      <trkpt lat="47.306624986231327" lon="16.260551009327173">
        <ele>323.139999999999986</ele>
        <time>2015-04-08T12:28:00Z</time>
      </trkpt>
      <trkpt lat="47.306618029251695" lon="16.260614041239023">
        <ele>324.100000000000023</ele>
        <time>2015-04-08T12:28:01Z</time>
      </trkpt>
      <trkpt lat="47.30660998262465" lon="16.261046966537833">
        <ele>325.060000000000002</ele>
        <time>2015-04-08T12:28:09Z</time>
      </trkpt>
      <trkpt lat="47.30660998262465" lon="16.261535966768861">
        <ele>326.990000000000009</ele>
        <time>2015-04-08T12:28:22Z</time>
      </trkpt>
      <trkpt lat="47.306594979017973" lon="16.261721039190888">
        <ele>328.430000000000007</ele>
        <time>2015-04-08T12:28:29Z</time>
      </trkpt>
      <trkpt lat="47.306594979017973" lon="16.26174702309072">
        <ele>328.910000000000025</ele>
        <time>2015-04-08T12:28:30Z</time>
      </trkpt>
      <trkpt lat="47.306594979017973" lon="16.261774012818933">
        <ele>328.910000000000025</ele>
        <time>2015-04-08T12:28:31Z</time>
      </trkpt>
      <trkpt lat="47.306594979017973" lon="16.261803014203906">
        <ele>329.389999999999986</ele>
        <time>2015-04-08T12:28:32Z</time>
      </trkpt>
      <trkpt lat="47.306594979017973" lon="16.26183302141726">
        <ele>329.389999999999986</ele>
        <time>2015-04-08T12:28:33Z</time>
      </trkpt>
      <trkpt lat="47.306591039523482" lon="16.261862022802234">
        <ele>329.870000000000005</ele>
        <time>2015-04-08T12:28:34Z</time>
      </trkpt>
      <trkpt lat="47.306476961821318" lon="16.26219897530973">
        <ele>333.230000000000018</ele>
        <time>2015-04-08T12:28:46Z</time>
      </trkpt>
      <trkpt lat="47.306240005418658" lon="16.262429980561137">
        <ele>334.680000000000007</ele>
        <time>2015-04-08T12:29:01Z</time>
      </trkpt>
      <trkpt lat="47.305969018489122" lon="16.262675989419222">
        <ele>336.120000000000005</ele>
        <time>2015-04-08T12:29:15Z</time>
      </trkpt>
      <trkpt lat="47.305472977459431" lon="16.263164989650249">
        <ele>336.600000000000023</ele>
        <time>2015-04-08T12:29:34Z</time>
      </trkpt>
      <trkpt lat="47.30501901358366" lon="16.263606967404485">
        <ele>338.519999999999982</ele>
        <time>2015-04-08T12:29:50Z</time>
      </trkpt>
      <trkpt lat="47.304413001984358" lon="16.264191018417478">
        <ele>340.439999999999998</ele>
        <time>2015-04-08T12:30:12Z</time>
      </trkpt>
      <trkpt lat="47.304100021719933" lon="16.264492012560368">
        <ele>342.850000000000023</ele>
        <time>2015-04-08T12:30:26Z</time>
      </trkpt>
      <trkpt lat="47.303920984268188" lon="16.264780014753342">
        <ele>344.769999999999982</ele>
        <time>2015-04-08T12:30:39Z</time>
      </trkpt>
      <trkpt lat="47.303916960954666" lon="16.265086960047483">
        <ele>347.649999999999977</ele>
        <time>2015-04-08T12:30:49Z</time>
      </trkpt>
      <trkpt lat="47.303974041715264" lon="16.265389965847135">
        <ele>349.100000000000023</ele>
        <time>2015-04-08T12:31:02Z</time>
      </trkpt>
      <trkpt lat="47.30398896150291" lon="16.26544201746583">
        <ele>350.060000000000002</ele>
        <time>2015-04-08T12:31:05Z</time>
      </trkpt>
      <trkpt lat="47.303992984816432" lon="16.265460960566998">
        <ele>349.579999999999984</ele>
        <time>2015-04-08T12:31:06Z</time>
      </trkpt>
      <trkpt lat="47.303997008129954" lon="16.265481999143958">
        <ele>350.060000000000002</ele>
        <time>2015-04-08T12:31:07Z</time>
      </trkpt>
      <trkpt lat="47.304004970937967" lon="16.265504965558648">
        <ele>350.060000000000002</ele>
        <time>2015-04-08T12:31:08Z</time>
      </trkpt>
      <trkpt lat="47.304007988423109" lon="16.265526004135609">
        <ele>350.54000000000002</ele>
        <time>2015-04-08T12:31:09Z</time>
      </trkpt>
      <trkpt lat="47.304012011736631" lon="16.265545031055808">
        <ele>350.54000000000002</ele>
        <time>2015-04-08T12:31:10Z</time>
      </trkpt>
      <trkpt lat="47.304016035050154" lon="16.265565985813737">
        <ele>350.54000000000002</ele>
        <time>2015-04-08T12:31:11Z</time>
      </trkpt>
      <trkpt lat="47.304023997858167" lon="16.265587024390697">
        <ele>350.54000000000002</ele>
        <time>2015-04-08T12:31:12Z</time>
      </trkpt>
      <trkpt lat="47.304028021171689" lon="16.265605967491865">
        <ele>351.019999999999982</ele>
        <time>2015-04-08T12:31:13Z</time>
      </trkpt>
      <trkpt lat="47.304034978151321" lon="16.265629017725587">
        <ele>351.5</ele>
        <time>2015-04-08T12:31:14Z</time>
      </trkpt>
      <trkpt lat="47.304039001464844" lon="16.265649972483516">
        <ele>351.019999999999982</ele>
        <time>2015-04-08T12:31:15Z</time>
      </trkpt>
      <trkpt lat="47.304043024778366" lon="16.265668999403715">
        <ele>351.5</ele>
        <time>2015-04-08T12:31:16Z</time>
      </trkpt>
      <trkpt lat="47.304043024778366" lon="16.265690037980676">
        <ele>351.5</ele>
        <time>2015-04-08T12:31:17Z</time>
      </trkpt>
      <trkpt lat="47.304046964272857" lon="16.265710992738605">
        <ele>351.980000000000018</ele>
        <time>2015-04-08T12:31:18Z</time>
      </trkpt>
      <trkpt lat="47.304054005071521" lon="16.265733959153295">
        <ele>351.980000000000018</ele>
        <time>2015-04-08T12:31:19Z</time>
      </trkpt>
      <trkpt lat="47.304061967879534" lon="16.265754997730255">
        <ele>352.45999999999998</ele>
        <time>2015-04-08T12:31:20Z</time>
      </trkpt>
      <trkpt lat="47.304065991193056" lon="16.265780981630087">
        <ele>351.980000000000018</ele>
        <time>2015-04-08T12:31:21Z</time>
      </trkpt>
      <trkpt lat="47.304070014506578" lon="16.265807971358299">
        <ele>352.45999999999998</ele>
        <time>2015-04-08T12:31:22Z</time>
      </trkpt>
      <trkpt lat="47.304076971486211" lon="16.265840996056795">
        <ele>352.939999999999998</ele>
        <time>2015-04-08T12:31:23Z</time>
      </trkpt>
      <trkpt lat="47.304089041426778" lon="16.265875026583672">
        <ele>352.939999999999998</ele>
        <time>2015-04-08T12:31:24Z</time>
      </trkpt>
      <trkpt lat="47.304091975092888" lon="16.265906961634755">
        <ele>352.939999999999998</ele>
        <time>2015-04-08T12:31:25Z</time>
      </trkpt>
      <trkpt lat="47.304152995347977" lon="16.266249027103186">
        <ele>355.339999999999975</ele>
        <time>2015-04-08T12:31:40Z</time>
      </trkpt>
      <trkpt lat="47.304206974804401" lon="16.266506016254425">
        <ele>356.310000000000002</ele>
        <time>2015-04-08T12:31:51Z</time>
      </trkpt>
      <trkpt lat="47.30426799505949" lon="16.266737021505833">
        <ele>359.670000000000016</ele>
        <time>2015-04-08T12:32:00Z</time>
      </trkpt>
      <trkpt lat="47.30426799505949" lon="16.266755964607">
        <ele>359.670000000000016</ele>
        <time>2015-04-08T12:32:01Z</time>
      </trkpt>
      <trkpt lat="47.304272018373013" lon="16.266772979870439">
        <ele>358.70999999999998</ele>
        <time>2015-04-08T12:32:02Z</time>
      </trkpt>
      <trkpt lat="47.304317029193044" lon="16.267012031748891">
        <ele>361.110000000000014</ele>
        <time>2015-04-08T12:32:14Z</time>
      </trkpt>
      <trkpt lat="47.304469998925924" lon="16.267360970377922">
        <ele>362.550000000000011</ele>
        <time>2015-04-08T12:32:31Z</time>
      </trkpt>
      <trkpt lat="47.304832013323903" lon="16.267628017812967">
        <ele>362.550000000000011</ele>
        <time>2015-04-08T12:32:49Z</time>
      </trkpt>
      <trkpt lat="47.305077016353607" lon="16.267813006415963">
        <ele>364.480000000000018</ele>
        <time>2015-04-08T12:33:03Z</time>
      </trkpt>
      <trkpt lat="47.305228980258107" lon="16.268096985295415">
        <ele>365.920000000000016</ele>
        <time>2015-04-08T12:33:14Z</time>
      </trkpt>
      <trkpt lat="47.30523300357163" lon="16.268116012215614">
        <ele>366.399999999999977</ele>
        <time>2015-04-08T12:33:15Z</time>
      </trkpt>
      <trkpt lat="47.305316990241408" lon="16.268433015793562">
        <ele>368.319999999999993</ele>
        <time>2015-04-08T12:33:30Z</time>
      </trkpt>
      <trkpt lat="47.30540500022471" lon="16.268839035183191">
        <ele>369.759999999999991</ele>
        <time>2015-04-08T12:33:45Z</time>
      </trkpt>
      <trkpt lat="47.30549200437963" lon="16.269444040954113">
        <ele>371.20999999999998</ele>
        <time>2015-04-08T12:34:03Z</time>
      </trkpt>
      <trkpt lat="47.305499967187643" lon="16.269950978457928">
        <ele>371.20999999999998</ele>
        <time>2015-04-08T12:34:16Z</time>
      </trkpt>
      <trkpt lat="47.305530980229378" lon="16.270761005580425">
        <ele>371.689999999999998</ele>
        <time>2015-04-08T12:34:32Z</time>
      </trkpt>
      <trkpt lat="47.305530980229378" lon="16.27150297164917">
        <ele>372.170000000000016</ele>
        <time>2015-04-08T12:34:45Z</time>
      </trkpt>
      <trkpt lat="47.30536300688982" lon="16.272219037637115">
        <ele>371.689999999999998</ele>
        <time>2015-04-08T12:34:59Z</time>
      </trkpt>
      <trkpt lat="47.305035023018718" lon="16.27296301536262">
        <ele>372.649999999999977</ele>
        <time>2015-04-08T12:35:15Z</time>
      </trkpt>
      <trkpt lat="47.304553985595703" lon="16.27358797006309">
        <ele>373.129999999999995</ele>
        <time>2015-04-08T12:35:32Z</time>
      </trkpt>
      <trkpt lat="47.303955014795065" lon="16.274174032732844">
        <ele>374.569999999999993</ele>
        <time>2015-04-08T12:35:50Z</time>
      </trkpt>
      <trkpt lat="47.303593000397086" lon="16.274658003821969">
        <ele>376.490000000000009</ele>
        <time>2015-04-08T12:36:06Z</time>
      </trkpt>
      <trkpt lat="47.303436007350683" lon="16.27491801045835">
        <ele>377.939999999999998</ele>
        <time>2015-04-08T12:36:18Z</time>
      </trkpt>
      <trkpt lat="47.303271973505616" lon="16.275194026529789">
        <ele>380.339999999999975</ele>
        <time>2015-04-08T12:36:30Z</time>
      </trkpt>
      <trkpt lat="47.303078016266227" lon="16.275533996522427">
        <ele>383.220000000000027</ele>
        <time>2015-04-08T12:36:44Z</time>
      </trkpt>
      <trkpt lat="47.302990006282926" lon="16.275744969025254">
        <ele>385.629999999999995</ele>
        <time>2015-04-08T12:36:52Z</time>
      </trkpt>
      <trkpt lat="47.302967039868236" lon="16.276118969544768">
        <ele>386.110000000000014</ele>
        <time>2015-04-08T12:37:05Z</time>
      </trkpt>
      <trkpt lat="47.302979025989771" lon="16.276406971737742">
        <ele>385.629999999999995</ele>
        <time>2015-04-08T12:37:19Z</time>
      </trkpt>
      <trkpt lat="47.302979025989771" lon="16.276406971737742">
        <ele>386.110000000000014</ele>
        <time>2015-04-08T12:37:49Z</time>
      </trkpt>
      <trkpt lat="47.302981959655881" lon="16.276417030021548">
        <ele>386.110000000000014</ele>
        <time>2015-04-08T12:38:08Z</time>
      </trkpt>
      <trkpt lat="47.302981959655881" lon="16.276442008092999">
        <ele>386.110000000000014</ele>
        <time>2015-04-08T12:38:09Z</time>
      </trkpt>
      <trkpt lat="47.302985982969403" lon="16.27646598033607">
        <ele>386.110000000000014</ele>
        <time>2015-04-08T12:38:10Z</time>
      </trkpt>
      <trkpt lat="47.302985982969403" lon="16.276490958407521">
        <ele>385.629999999999995</ele>
        <time>2015-04-08T12:38:11Z</time>
      </trkpt>
      <trkpt lat="47.302990006282926" lon="16.276518031954765">
        <ele>385.149999999999977</ele>
        <time>2015-04-08T12:38:12Z</time>
      </trkpt>
      <trkpt lat="47.302997969090939" lon="16.276540998369455">
        <ele>385.149999999999977</ele>
        <time>2015-04-08T12:38:13Z</time>
      </trkpt>
      <trkpt lat="47.302997969090939" lon="16.276571005582809">
        <ele>384.660000000000025</ele>
        <time>2015-04-08T12:38:14Z</time>
      </trkpt>
      <trkpt lat="47.302997969090939" lon="16.276608975604177">
        <ele>384.660000000000025</ele>
        <time>2015-04-08T12:38:15Z</time>
      </trkpt>
      <trkpt lat="47.302939966320992" lon="16.277299979701638">
        <ele>385.149999999999977</ele>
        <time>2015-04-08T12:38:28Z</time>
      </trkpt>
      <trkpt lat="47.302825972437859" lon="16.27792501822114">
        <ele>381.779999999999973</ele>
        <time>2015-04-08T12:38:35Z</time>
      </trkpt>
      <trkpt lat="47.30272295884788" lon="16.278235986828804">
        <ele>379.860000000000014</ele>
        <time>2015-04-08T12:38:38Z</time>
      </trkpt>
      <trkpt lat="47.302669985219836" lon="16.278330031782389">
        <ele>378.899999999999977</ele>
        <time>2015-04-08T12:38:39Z</time>
      </trkpt>
      <trkpt lat="47.302611982449889" lon="16.278418963775039">
        <ele>378.420000000000016</ele>
        <time>2015-04-08T12:38:40Z</time>
      </trkpt>
      <trkpt lat="47.30254702270031" lon="16.278503034263849">
        <ele>378.899999999999977</ele>
        <time>2015-04-08T12:38:41Z</time>
      </trkpt>
      <trkpt lat="47.302478961646557" lon="16.278581991791725">
        <ele>377.939999999999998</ele>
        <time>2015-04-08T12:38:42Z</time>
      </trkpt>
      <trkpt lat="47.302402015775442" lon="16.27865600399673">
        <ele>377.449999999999989</ele>
        <time>2015-04-08T12:38:43Z</time>
      </trkpt>
      <trkpt lat="47.301914021372795" lon="16.279122959822416">
        <ele>376.009999999999991</ele>
        <time>2015-04-08T12:38:50Z</time>
      </trkpt>
      <trkpt lat="47.300902996212244" lon="16.279977997764945">
        <ele>373.610000000000014</ele>
        <time>2015-04-08T12:39:04Z</time>
      </trkpt>
      <trkpt lat="47.299907980486751" lon="16.280581997707486">
        <ele>372.649999999999977</ele>
        <time>2015-04-08T12:39:19Z</time>
      </trkpt>
      <trkpt lat="47.299526017159224" lon="16.280813002958894">
        <ele>369.279999999999973</ele>
        <time>2015-04-08T12:39:25Z</time>
      </trkpt>
      <trkpt lat="47.299026036635041" lon="16.281002014875412">
        <ele>367.360000000000014</ele>
        <time>2015-04-08T12:39:32Z</time>
      </trkpt>
      <trkpt lat="47.298869965597987" lon="16.281039984896779">
        <ele>365.920000000000016</ele>
        <time>2015-04-08T12:39:34Z</time>
      </trkpt>
      <trkpt lat="47.297699013724923" lon="16.281424965709448">
        <ele>363.04000000000002</ele>
        <time>2015-04-08T12:39:49Z</time>
      </trkpt>
      <trkpt lat="47.296650018543005" lon="16.28183601424098">
        <ele>360.629999999999995</ele>
        <time>2015-04-08T12:40:02Z</time>
      </trkpt>
      <trkpt lat="47.295918026939034" lon="16.282141031697392">
        <ele>360.629999999999995</ele>
        <time>2015-04-08T12:40:14Z</time>
      </trkpt>
      <trkpt lat="47.29528795927763" lon="16.282387040555477">
        <ele>361.589999999999975</ele>
        <time>2015-04-08T12:40:28Z</time>
      </trkpt>
      <trkpt lat="47.294937008991838" lon="16.28269599750638">
        <ele>360.629999999999995</ele>
        <time>2015-04-08T12:40:39Z</time>
      </trkpt>
      <trkpt lat="47.294907001778483" lon="16.282823989167809">
        <ele>360.629999999999995</ele>
        <time>2015-04-08T12:40:41Z</time>
      </trkpt>
      <trkpt lat="47.294902978464961" lon="16.282898001372814">
        <ele>360.629999999999995</ele>
        <time>2015-04-08T12:40:42Z</time>
      </trkpt>
      <trkpt lat="47.294907001778483" lon="16.282972013577819">
        <ele>360.149999999999977</ele>
        <time>2015-04-08T12:40:43Z</time>
      </trkpt>
      <trkpt lat="47.294917982071638" lon="16.283050971105695">
        <ele>359.670000000000016</ele>
        <time>2015-04-08T12:40:44Z</time>
      </trkpt>
      <trkpt lat="47.294932985678315" lon="16.283134035766125">
        <ele>359.189999999999998</ele>
        <time>2015-04-08T12:40:45Z</time>
      </trkpt>
      <trkpt lat="47.294956035912037" lon="16.283221961930394">
        <ele>358.230000000000018</ele>
        <time>2015-04-08T12:40:46Z</time>
      </trkpt>
      <trkpt lat="47.29498696513474" lon="16.283311983570457">
        <ele>357.75</ele>
        <time>2015-04-08T12:40:47Z</time>
      </trkpt>
      <trkpt lat="47.295086039230227" lon="16.283612977713346">
        <ele>354.860000000000014</ele>
        <time>2015-04-08T12:40:50Z</time>
      </trkpt>
      <trkpt lat="47.295192992314696" lon="16.283929981291294">
        <ele>352.939999999999998</ele>
        <time>2015-04-08T12:40:53Z</time>
      </trkpt>
      <trkpt lat="47.295330036431551" lon="16.284367013722658">
        <ele>349.579999999999984</ele>
        <time>2015-04-08T12:40:57Z</time>
      </trkpt>
      <trkpt lat="47.295363983139396" lon="16.284476984292269">
        <ele>349.579999999999984</ele>
        <time>2015-04-08T12:40:58Z</time>
      </trkpt>
      <trkpt lat="47.295520976185799" lon="16.28492902033031">
        <ele>345.730000000000018</ele>
        <time>2015-04-08T12:41:02Z</time>
      </trkpt>
      <trkpt lat="47.295685010030866" lon="16.285419026389718">
        <ele>342.370000000000005</ele>
        <time>2015-04-08T12:41:06Z</time>
      </trkpt>
      <trkpt lat="47.295761033892632" lon="16.285638967528939">
        <ele>341.889999999999986</ele>
        <time>2015-04-08T12:41:08Z</time>
      </trkpt>
      <trkpt lat="47.295878967270255" lon="16.285967035219073">
        <ele>339.95999999999998</ele>
        <time>2015-04-08T12:41:11Z</time>
      </trkpt>
      <trkpt lat="47.295993966981769" lon="16.286297030746937">
        <ele>336.120000000000005</ele>
        <time>2015-04-08T12:41:14Z</time>
      </trkpt>
      <trkpt lat="47.296069990843534" lon="16.286517977714539">
        <ele>334.680000000000007</ele>
        <time>2015-04-08T12:41:16Z</time>
      </trkpt>
      <trkpt lat="47.296230001375079" lon="16.286972025409341">
        <ele>330.829999999999984</ele>
        <time>2015-04-08T12:41:20Z</time>
      </trkpt>
      <trkpt lat="47.296391017735004" lon="16.287435963749886">
        <ele>326.990000000000009</ele>
        <time>2015-04-08T12:41:24Z</time>
      </trkpt>
      <trkpt lat="47.296538958325982" lon="16.287878025323153">
        <ele>324.100000000000023</ele>
        <time>2015-04-08T12:41:28Z</time>
      </trkpt>
      <trkpt lat="47.29668396525085" lon="16.288312962278724">
        <ele>320.740000000000009</ele>
        <time>2015-04-08T12:41:32Z</time>
      </trkpt>
      <trkpt lat="47.296840958297253" lon="16.288735996931791">
        <ele>317.370000000000005</ele>
        <time>2015-04-08T12:41:36Z</time>
      </trkpt>
      <trkpt lat="47.296879012137651" lon="16.288833981379867">
        <ele>316.889999999999986</ele>
        <time>2015-04-08T12:41:37Z</time>
      </trkpt>
      <trkpt lat="47.296921005472541" lon="16.288932971656322">
        <ele>315.449999999999989</ele>
        <time>2015-04-08T12:41:38Z</time>
      </trkpt>
      <trkpt lat="47.296970039606094" lon="16.289031961932778">
        <ele>314.970000000000027</ele>
        <time>2015-04-08T12:41:39Z</time>
      </trkpt>
      <trkpt lat="47.297019995748997" lon="16.289129024371505">
        <ele>314.009999999999991</ele>
        <time>2015-04-08T12:41:40Z</time>
      </trkpt>
      <trkpt lat="47.297217976301908" lon="16.289518028497696">
        <ele>311.600000000000023</ele>
        <time>2015-04-08T12:41:44Z</time>
      </trkpt>
      <trkpt lat="47.297501033172011" lon="16.290108030661941">
        <ele>310.160000000000025</ele>
        <time>2015-04-08T12:41:51Z</time>
      </trkpt>
      <trkpt lat="47.297522993758321" lon="16.290185982361436">
        <ele>310.639999999999986</ele>
        <time>2015-04-08T12:41:52Z</time>
      </trkpt>
      <trkpt lat="47.297558030113578" lon="16.290348004549742">
        <ele>310.639999999999986</ele>
        <time>2015-04-08T12:41:54Z</time>
      </trkpt>
      <trkpt lat="47.297588037326932" lon="16.290658973157406">
        <ele>309.199999999999989</ele>
        <time>2015-04-08T12:41:58Z</time>
      </trkpt>
      <trkpt lat="47.297576973214746" lon="16.290810015052557">
        <ele>309.680000000000007</ele>
        <time>2015-04-08T12:42:00Z</time>
      </trkpt>
      <trkpt lat="47.297558030113578" lon="16.290887966752052">
        <ele>309.680000000000007</ele>
        <time>2015-04-08T12:42:01Z</time>
      </trkpt>
      <trkpt lat="47.297534979879856" lon="16.290966002270579">
        <ele>309.199999999999989</ele>
        <time>2015-04-08T12:42:02Z</time>
      </trkpt>
      <trkpt lat="47.297503966838121" lon="16.291036996990442">
        <ele>308.240000000000009</ele>
        <time>2015-04-08T12:42:03Z</time>
      </trkpt>
      <trkpt lat="47.297461973503232" lon="16.291093993932009">
        <ele>308.720000000000027</ele>
        <time>2015-04-08T12:42:04Z</time>
      </trkpt>
      <trkpt lat="47.297408999875188" lon="16.291131963953376">
        <ele>308.720000000000027</ele>
        <time>2015-04-08T12:42:05Z</time>
      </trkpt>
      <trkpt lat="47.297356026247144" lon="16.291160965338349">
        <ele>308.720000000000027</ele>
        <time>2015-04-08T12:42:06Z</time>
      </trkpt>
      <trkpt lat="47.297301962971687" lon="16.29118300974369">
        <ele>308.720000000000027</ele>
        <time>2015-04-08T12:42:07Z</time>
      </trkpt>
      <trkpt lat="47.29681002907455" lon="16.291491966694593">
        <ele>308.240000000000009</ele>
        <time>2015-04-08T12:42:17Z</time>
      </trkpt>
      <trkpt lat="47.29668396525085" lon="16.291618030518293">
        <ele>308.240000000000009</ele>
        <time>2015-04-08T12:42:20Z</time>
      </trkpt>
      <trkpt lat="47.296650018543005" lon="16.291667986661196">
        <ele>308.240000000000009</ele>
        <time>2015-04-08T12:42:21Z</time>
      </trkpt>
      <trkpt lat="47.29661900550127" lon="16.291724983602762">
        <ele>307.759999999999991</ele>
        <time>2015-04-08T12:42:22Z</time>
      </trkpt>
      <trkpt lat="47.296538958325982" lon="16.291923969984055">
        <ele>307.759999999999991</ele>
        <time>2015-04-08T12:42:25Z</time>
      </trkpt>
      <trkpt lat="47.296527978032827" lon="16.291997982189059">
        <ele>307.759999999999991</ele>
        <time>2015-04-08T12:42:26Z</time>
      </trkpt>
      <trkpt lat="47.296443991363049" lon="16.292659984901547">
        <ele>307.759999999999991</ele>
        <time>2015-04-08T12:42:35Z</time>
      </trkpt>
      <trkpt lat="47.296436028555036" lon="16.29272704012692">
        <ele>308.240000000000009</ele>
        <time>2015-04-08T12:42:36Z</time>
      </trkpt>
      <trkpt lat="47.296352041885257" lon="16.29343799315393">
        <ele>307.759999999999991</ele>
        <time>2015-04-08T12:42:48Z</time>
      </trkpt>
      <trkpt lat="47.29634097777307" lon="16.29363102838397">
        <ele>307.279999999999973</ele>
        <time>2015-04-08T12:42:53Z</time>
      </trkpt>
      <trkpt lat="47.296352041885257" lon="16.293677967041731">
        <ele>307.759999999999991</ele>
        <time>2015-04-08T12:42:54Z</time>
      </trkpt>
      <trkpt lat="47.296367967501283" lon="16.293728007003665">
        <ele>307.279999999999973</ele>
        <time>2015-04-08T12:42:55Z</time>
      </trkpt>
      <trkpt lat="47.296454971656203" lon="16.293992958962917">
        <ele>306.800000000000011</ele>
        <time>2015-04-08T12:43:00Z</time>
      </trkpt>
      <trkpt lat="47.296596961095929" lon="16.294711958616972">
        <ele>308.240000000000009</ele>
        <time>2015-04-08T12:43:13Z</time>
      </trkpt>
      <trkpt lat="47.296780021861196" lon="16.295667998492718">
        <ele>307.279999999999973</ele>
        <time>2015-04-08T12:43:29Z</time>
      </trkpt>
      <trkpt lat="47.297019995748997" lon="16.296840962022543">
        <ele>306.800000000000011</ele>
        <time>2015-04-08T12:43:47Z</time>
      </trkpt>
      <trkpt lat="47.297172965481877" lon="16.297726007178426">
        <ele>308.240000000000009</ele>
        <time>2015-04-08T12:44:04Z</time>
      </trkpt>
      <trkpt lat="47.297206996008754" lon="16.297896998003125">
        <ele>307.759999999999991</ele>
        <time>2015-04-08T12:44:18Z</time>
      </trkpt>
      <trkpt lat="47.297206996008754" lon="16.297891968861222">
        <ele>308.240000000000009</ele>
        <time>2015-04-08T12:44:58Z</time>
      </trkpt>
      <trkpt lat="47.297211019322276" lon="16.297891968861222">
        <ele>308.240000000000009</ele>
        <time>2015-04-08T12:45:40Z</time>
      </trkpt>
      <trkpt lat="47.297214958816767" lon="16.297903032973409">
        <ele>308.720000000000027</ele>
        <time>2015-04-08T12:45:55Z</time>
      </trkpt>
      <trkpt lat="47.297221999615431" lon="16.297919964417815">
        <ele>309.199999999999989</ele>
        <time>2015-04-08T12:45:56Z</time>
      </trkpt>
      <trkpt lat="47.297229962423444" lon="16.297943014651537">
        <ele>309.680000000000007</ele>
        <time>2015-04-08T12:45:57Z</time>
      </trkpt>
      <trkpt lat="47.297233985736966" lon="16.29797201603651">
        <ele>309.680000000000007</ele>
        <time>2015-04-08T12:45:58Z</time>
      </trkpt>
      <trkpt lat="47.297237003222108" lon="16.298002023249865">
        <ele>309.199999999999989</ele>
        <time>2015-04-08T12:45:59Z</time>
      </trkpt>
      <trkpt lat="47.29728301987052" lon="16.29820997826755">
        <ele>310.639999999999986</ele>
        <time>2015-04-08T12:46:08Z</time>
      </trkpt>
      <trkpt lat="47.29730598628521" lon="16.298262029886246">
        <ele>311.120000000000005</ele>
        <time>2015-04-08T12:46:18Z</time>
      </trkpt>
      <trkpt lat="47.297317972406745" lon="16.298268986865878">
        <ele>311.120000000000005</ele>
        <time>2015-04-08T12:46:19Z</time>
      </trkpt>
      <trkpt lat="47.297329036518931" lon="16.298280972987413">
        <ele>311.120000000000005</ele>
        <time>2015-04-08T12:46:20Z</time>
      </trkpt>
      <trkpt lat="47.297344040125608" lon="16.298280972987413">
        <ele>311.120000000000005</ele>
        <time>2015-04-08T12:46:21Z</time>
      </trkpt>
      <trkpt lat="47.297358959913254" lon="16.298275021836162">
        <ele>310.639999999999986</ele>
        <time>2015-04-08T12:46:22Z</time>
      </trkpt>
      <trkpt lat="47.297378992661834" lon="16.298268986865878">
        <ele>310.639999999999986</ele>
        <time>2015-04-08T12:46:23Z</time>
      </trkpt>
      <trkpt lat="47.297401037067175" lon="16.298266975209117">
        <ele>310.639999999999986</ele>
        <time>2015-04-08T12:46:24Z</time>
      </trkpt>
      <trkpt lat="47.297767996788025" lon="16.298091961070895">
        <ele>311.600000000000023</ele>
        <time>2015-04-08T12:46:39Z</time>
      </trkpt>
      <trkpt lat="47.298350958153605" lon="16.297871014103293">
        <ele>313.050000000000011</ele>
        <time>2015-04-08T12:46:56Z</time>
      </trkpt>
      <trkpt lat="47.298836018890142" lon="16.297625005245209">
        <ele>313.529999999999973</ele>
        <time>2015-04-08T12:47:13Z</time>
      </trkpt>
      <trkpt lat="47.299403976649046" lon="16.297371033579111">
        <ele>314.970000000000027</ele>
        <time>2015-04-08T12:47:33Z</time>
      </trkpt>
      <trkpt lat="47.299766996875405" lon="16.297312024980783">
        <ele>315.449999999999989</ele>
        <time>2015-04-08T12:47:47Z</time>
      </trkpt>
      <trkpt lat="47.299964977428317" lon="16.297549987211823">
        <ele>316.889999999999986</ele>
        <time>2015-04-08T12:48:00Z</time>
      </trkpt>
      <trkpt lat="47.300156001001596" lon="16.297833966091275">
        <ele>318.810000000000002</ele>
        <time>2015-04-08T12:48:13Z</time>
      </trkpt>
      <trkpt lat="47.300212997943163" lon="16.29810101352632">
        <ele>321.699999999999989</ele>
        <time>2015-04-08T12:48:24Z</time>
      </trkpt>
      <trkpt lat="47.300274018198252" lon="16.298420028761029">
        <ele>324.100000000000023</ele>
        <time>2015-04-08T12:48:38Z</time>
      </trkpt>
      <trkpt lat="47.300278041511774" lon="16.298435032367706">
        <ele>324.100000000000023</ele>
        <time>2015-04-08T12:48:39Z</time>
      </trkpt>
      <trkpt lat="47.300278041511774" lon="16.298453975468874">
        <ele>324.579999999999984</ele>
        <time>2015-04-08T12:48:40Z</time>
      </trkpt>
      <trkpt lat="47.300281981006265" lon="16.298475014045835">
        <ele>324.579999999999984</ele>
        <time>2015-04-08T12:48:41Z</time>
      </trkpt>
      <trkpt lat="47.300289021804929" lon="16.298499992117286">
        <ele>325.060000000000002</ele>
        <time>2015-04-08T12:48:42Z</time>
      </trkpt>
      <trkpt lat="47.300322968512774" lon="16.298671988770366">
        <ele>326.019999999999982</ele>
        <time>2015-04-08T12:48:51Z</time>
      </trkpt>
      <trkpt lat="47.300322968512774" lon="16.298696966841817">
        <ele>326.5</ele>
        <time>2015-04-08T12:48:52Z</time>
      </trkpt>
      <trkpt lat="47.300331015139818" lon="16.298721022903919">
        <ele>326.5</ele>
        <time>2015-04-08T12:48:53Z</time>
      </trkpt>
      <trkpt lat="47.300338977947831" lon="16.298777014017105">
        <ele>326.990000000000009</ele>
        <time>2015-04-08T12:48:56Z</time>
      </trkpt>
      <trkpt lat="47.300338977947831" lon="16.298797968775034">
        <ele>326.990000000000009</ele>
        <time>2015-04-08T12:48:57Z</time>
      </trkpt>
      <trkpt lat="47.300346018746495" lon="16.298822024837136">
        <ele>326.990000000000009</ele>
        <time>2015-04-08T12:48:58Z</time>
      </trkpt>
      <trkpt lat="47.300353981554508" lon="16.298840967938304">
        <ele>327.470000000000027</ele>
        <time>2015-04-08T12:48:59Z</time>
      </trkpt>
      <trkpt lat="47.300358004868031" lon="16.298856977373362">
        <ele>327.470000000000027</ele>
        <time>2015-04-08T12:49:00Z</time>
      </trkpt>
      <trkpt lat="47.300358004868031" lon="16.298871980980039">
        <ele>327.949999999999989</ele>
        <time>2015-04-08T12:49:01Z</time>
      </trkpt>
      <trkpt lat="47.300358004868031" lon="16.29889503121376">
        <ele>327.949999999999989</ele>
        <time>2015-04-08T12:49:02Z</time>
      </trkpt>
      <trkpt lat="47.300364961847663" lon="16.29891799762845">
        <ele>327.470000000000027</ele>
        <time>2015-04-08T12:49:03Z</time>
      </trkpt>
      <trkpt lat="47.300373008474708" lon="16.29894096404314">
        <ele>328.910000000000025</ele>
        <time>2015-04-08T12:49:04Z</time>
      </trkpt>
      <trkpt lat="47.300415001809597" lon="16.299122013151646">
        <ele>329.870000000000005</ele>
        <time>2015-04-08T12:49:13Z</time>
      </trkpt>
      <trkpt lat="47.300410978496075" lon="16.299142967909575">
        <ele>329.870000000000005</ele>
        <time>2015-04-08T12:49:14Z</time>
      </trkpt>
      <trkpt lat="47.300415001809597" lon="16.299166018143296">
        <ele>330.350000000000023</ele>
        <time>2015-04-08T12:49:15Z</time>
      </trkpt>
      <trkpt lat="47.300465041771531" lon="16.299371961504221">
        <ele>331.79000000000002</ele>
        <time>2015-04-08T12:49:27Z</time>
      </trkpt>
      <trkpt lat="47.300465041771531" lon="16.299400040879846">
        <ele>332.269999999999982</ele>
        <time>2015-04-08T12:49:29Z</time>
      </trkpt>
      <trkpt lat="47.300465041771531" lon="16.299420995637774">
        <ele>332.269999999999982</ele>
        <time>2015-04-08T12:49:30Z</time>
      </trkpt>
      <trkpt lat="47.300525978207588" lon="16.299678990617394">
        <ele>334.680000000000007</ele>
        <time>2015-04-08T12:49:42Z</time>
      </trkpt>
      <trkpt lat="47.300609964877367" lon="16.299952995032072">
        <ele>337.560000000000002</ele>
        <time>2015-04-08T12:49:56Z</time>
      </trkpt>
      <trkpt lat="47.300705015659332" lon="16.300225993618369">
        <ele>340.439999999999998</ele>
        <time>2015-04-08T12:50:10Z</time>
      </trkpt>
      <trkpt lat="47.300754971802235" lon="16.300449036061764">
        <ele>342.370000000000005</ele>
        <time>2015-04-08T12:50:19Z</time>
      </trkpt>
      <trkpt lat="47.300766035914421" lon="16.300467979162931">
        <ele>342.370000000000005</ele>
        <time>2015-04-08T12:50:20Z</time>
      </trkpt>
      <trkpt lat="47.3008500225842" lon="16.300735026597977">
        <ele>344.29000000000002</ele>
        <time>2015-04-08T12:50:34Z</time>
      </trkpt>
      <trkpt lat="47.300880029797554" lon="16.300797974690795">
        <ele>344.769999999999982</ele>
        <time>2015-04-08T12:50:38Z</time>
      </trkpt>
      <trkpt lat="47.300883969292045" lon="16.300817001610994">
        <ele>344.29000000000002</ele>
        <time>2015-04-08T12:50:39Z</time>
      </trkpt>
      <trkpt lat="47.300883969292045" lon="16.300841979682446">
        <ele>344.769999999999982</ele>
        <time>2015-04-08T12:50:40Z</time>
      </trkpt>
      <trkpt lat="47.300883969292045" lon="16.300870981067419">
        <ele>344.769999999999982</ele>
        <time>2015-04-08T12:50:41Z</time>
      </trkpt>
      <trkpt lat="47.300887992605567" lon="16.300897970795631">
        <ele>344.769999999999982</ele>
        <time>2015-04-08T12:50:42Z</time>
      </trkpt>
      <trkpt lat="47.300914982333779" lon="16.300988998264074">
        <ele>344.769999999999982</ele>
        <time>2015-04-08T12:50:55Z</time>
      </trkpt>
      <trkpt lat="47.300914982333779" lon="16.300986986607313">
        <ele>344.29000000000002</ele>
        <time>2015-04-08T12:51:29Z</time>
      </trkpt>
      <trkpt lat="47.300922023132443" lon="16.30100098438561">
        <ele>345.25</ele>
        <time>2015-04-08T12:51:39Z</time>
      </trkpt>
      <trkpt lat="47.300934009253979" lon="16.301020011305809">
        <ele>344.29000000000002</ele>
        <time>2015-04-08T12:51:40Z</time>
      </trkpt>
      <trkpt lat="47.300940966233611" lon="16.301037026569247">
        <ele>344.769999999999982</ele>
        <time>2015-04-08T12:51:41Z</time>
      </trkpt>
      <trkpt lat="47.300949012860656" lon="16.301059992983937">
        <ele>344.769999999999982</ele>
        <time>2015-04-08T12:51:42Z</time>
      </trkpt>
      <trkpt lat="47.300956975668669" lon="16.301084971055388">
        <ele>344.29000000000002</ele>
        <time>2015-04-08T12:51:43Z</time>
      </trkpt>
      <trkpt lat="47.301079016178846" lon="16.301680002361536">
        <ele>341.889999999999986</ele>
        <time>2015-04-08T12:51:55Z</time>
      </trkpt>
      <trkpt lat="47.301097959280014" lon="16.301764994859695">
        <ele>341.889999999999986</ele>
        <time>2015-04-08T12:51:56Z</time>
      </trkpt>
      <trkpt lat="47.301185969263315" lon="16.302176965400577">
        <ele>339</ele>
        <time>2015-04-08T12:52:00Z</time>
      </trkpt>
      <trkpt lat="47.301296023651958" lon="16.302689015865326">
        <ele>335.160000000000025</ele>
        <time>2015-04-08T12:52:04Z</time>
      </trkpt>
      <trkpt lat="47.301407000049949" lon="16.303256973624229">
        <ele>331.310000000000002</ele>
        <time>2015-04-08T12:52:08Z</time>
      </trkpt>
      <trkpt lat="47.301471959799528" lon="16.303546987473965">
        <ele>330.350000000000023</ele>
        <time>2015-04-08T12:52:10Z</time>
      </trkpt>
      <trkpt lat="47.30162400752306" lon="16.304265987128019">
        <ele>326.990000000000009</ele>
        <time>2015-04-08T12:52:15Z</time>
      </trkpt>
      <trkpt lat="47.30190304107964" lon="16.305860979482532">
        <ele>323.620000000000005</ele>
        <time>2015-04-08T12:52:28Z</time>
      </trkpt>
      <trkpt lat="47.30190304107964" lon="16.305967010557652">
        <ele>323.139999999999986</ele>
        <time>2015-04-08T12:52:29Z</time>
      </trkpt>
      <trkpt lat="47.301739007234573" lon="16.30744599737227">
        <ele>322.180000000000007</ele>
        <time>2015-04-08T12:52:44Z</time>
      </trkpt>
      <trkpt lat="47.301616966724396" lon="16.308186035603285">
        <ele>324.579999999999984</ele>
        <time>2015-04-08T12:52:57Z</time>
      </trkpt>
      <trkpt lat="47.301589976996183" lon="16.308566993102431">
        <ele>326.990000000000009</ele>
        <time>2015-04-08T12:53:11Z</time>
      </trkpt>
      <trkpt lat="47.30158201418817" lon="16.308872010558844">
        <ele>328.910000000000025</ele>
        <time>2015-04-08T12:53:23Z</time>
      </trkpt>
      <trkpt lat="47.30160104110837" lon="16.309044007211924">
        <ele>329.870000000000005</ele>
        <time>2015-04-08T12:53:30Z</time>
      </trkpt>
      <trkpt lat="47.301613027229905" lon="16.309108966961503">
        <ele>330.350000000000023</ele>
        <time>2015-04-08T12:53:33Z</time>
      </trkpt>
      <trkpt lat="47.301631970331073" lon="16.309354975819588">
        <ele>331.79000000000002</ele>
        <time>2015-04-08T12:53:44Z</time>
      </trkpt>
      <trkpt lat="47.301643034443259" lon="16.309423036873341">
        <ele>333.230000000000018</ele>
        <time>2015-04-08T12:53:47Z</time>
      </trkpt>
      <trkpt lat="47.301661977544427" lon="16.309684971347451">
        <ele>335.160000000000025</ele>
        <time>2015-04-08T12:54:01Z</time>
      </trkpt>
      <trkpt lat="47.301701037213206" lon="16.310029970481992">
        <ele>338.04000000000002</ele>
        <time>2015-04-08T12:54:19Z</time>
      </trkpt>
      <trkpt lat="47.301722997799516" lon="16.310363989323378">
        <ele>339.95999999999998</ele>
        <time>2015-04-08T12:54:36Z</time>
      </trkpt>
      <trkpt lat="47.301739007234573" lon="16.310499021783471">
        <ele>341.889999999999986</ele>
        <time>2015-04-08T12:54:48Z</time>
      </trkpt>
      <trkpt lat="47.301730960607529" lon="16.310523999854922">
        <ele>342.370000000000005</ele>
        <time>2015-04-08T12:54:50Z</time>
      </trkpt>
      <trkpt lat="47.301769014447927" lon="16.310851983726025">
        <ele>345.25</ele>
        <time>2015-04-08T12:55:08Z</time>
      </trkpt>
      <trkpt lat="47.301788041368127" lon="16.311148032546043">
        <ele>348.129999999999995</ele>
        <time>2015-04-08T12:55:25Z</time>
      </trkpt>
      <trkpt lat="47.301800027489662" lon="16.311341989785433">
        <ele>351.980000000000018</ele>
        <time>2015-04-08T12:55:37Z</time>
      </trkpt>
      <trkpt lat="47.301803966984153" lon="16.311341989785433">
        <ele>351.980000000000018</ele>
        <time>2015-04-08T12:55:38Z</time>
      </trkpt>
      <trkpt lat="47.301800027489662" lon="16.311355987563729">
        <ele>351.5</ele>
        <time>2015-04-08T12:55:43Z</time>
      </trkpt>
      <trkpt lat="47.30179600417614" lon="16.311447015032172">
        <ele>351.019999999999982</ele>
        <time>2015-04-08T12:55:48Z</time>
      </trkpt>
      <trkpt lat="47.301806984469295" lon="16.311814980581403">
        <ele>354.379999999999995</ele>
        <time>2015-04-08T12:56:07Z</time>
      </trkpt>
      <trkpt lat="47.301811007782817" lon="16.311907013878226">
        <ele>354.860000000000014</ele>
        <time>2015-04-08T12:56:18Z</time>
      </trkpt>
      <trkpt lat="47.301822993904352" lon="16.312390984967351">
        <ele>357.269999999999982</ele>
        <time>2015-04-08T12:56:41Z</time>
      </trkpt>
      <trkpt lat="47.301837997511029" lon="16.312826005741954">
        <ele>360.149999999999977</ele>
        <time>2015-04-08T12:57:01Z</time>
      </trkpt>
      <trkpt lat="47.301848977804184" lon="16.313165975734591">
        <ele>361.589999999999975</ele>
        <time>2015-04-08T12:57:17Z</time>
      </trkpt>
      <trkpt lat="47.301848977804184" lon="16.31329002790153">
        <ele>362.550000000000011</ele>
        <time>2015-04-08T12:57:24Z</time>
      </trkpt>
      <trkpt lat="47.301845960319042" lon="16.313367979601026">
        <ele>362.550000000000011</ele>
        <time>2015-04-08T12:57:28Z</time>
      </trkpt>
      <trkpt lat="47.301833974197507" lon="16.313767964020371">
        <ele>364</ele>
        <time>2015-04-08T12:57:42Z</time>
      </trkpt>
      <trkpt lat="47.301806984469295" lon="16.314431978389621">
        <ele>362.069999999999993</ele>
        <time>2015-04-08T12:57:59Z</time>
      </trkpt>
      <trkpt lat="47.301791980862617" lon="16.314787035807967">
        <ele>361.110000000000014</ele>
        <time>2015-04-08T12:58:11Z</time>
      </trkpt>
      <trkpt lat="47.301791980862617" lon="16.314787035807967">
        <ele>361.110000000000014</ele>
        <time>2015-04-08T12:58:43Z</time>
      </trkpt>
      <trkpt lat="47.301781000569463" lon="16.315034972503781">
        <ele>358.70999999999998</ele>
        <time>2015-04-08T12:59:04Z</time>
      </trkpt>
      <trkpt lat="47.30177303776145" lon="16.315445015206933">
        <ele>356.79000000000002</ele>
        <time>2015-04-08T12:59:09Z</time>
      </trkpt>
      <trkpt lat="47.301758034154773" lon="16.315824966877699">
        <ele>354.860000000000014</ele>
        <time>2015-04-08T12:59:13Z</time>
      </trkpt>
      <trkpt lat="47.301745964214206" lon="16.316465009003878">
        <ele>351.5</ele>
        <time>2015-04-08T12:59:20Z</time>
      </trkpt>
      <trkpt lat="47.301722997799516" lon="16.316791987046599">
        <ele>349.100000000000023</ele>
        <time>2015-04-08T12:59:24Z</time>
      </trkpt>
      <trkpt lat="47.301701037213206" lon="16.31687899120152">
        <ele>348.620000000000005</ele>
        <time>2015-04-08T12:59:25Z</time>
      </trkpt>
      <trkpt lat="47.301673963665962" lon="16.31696498952806">
        <ele>348.129999999999995</ele>
        <time>2015-04-08T12:59:26Z</time>
      </trkpt>
      <trkpt lat="47.301635993644595" lon="16.317046964541078">
        <ele>347.649999999999977</ele>
        <time>2015-04-08T12:59:27Z</time>
      </trkpt>
      <trkpt lat="47.301589976996183" lon="16.317121982574463">
        <ele>347.170000000000016</ele>
        <time>2015-04-08T12:59:28Z</time>
      </trkpt>
      <trkpt lat="47.301532980054617" lon="16.317183002829552">
        <ele>347.170000000000016</ele>
        <time>2015-04-08T12:59:29Z</time>
      </trkpt>
      <trkpt lat="47.301471959799528" lon="16.317233964800835">
        <ele>346.20999999999998</ele>
        <time>2015-04-08T12:59:30Z</time>
      </trkpt>
      <trkpt lat="47.301402976736426" lon="16.317281993106008">
        <ele>346.20999999999998</ele>
        <time>2015-04-08T12:59:31Z</time>
      </trkpt>
      <trkpt lat="47.301330976188183" lon="16.317323986440897">
        <ele>345.730000000000018</ele>
        <time>2015-04-08T12:59:32Z</time>
      </trkpt>
      <trkpt lat="47.3011090233922" lon="16.317449966445565">
        <ele>344.769999999999982</ele>
        <time>2015-04-08T12:59:35Z</time>
      </trkpt>
      <trkpt lat="47.300338977947831" lon="16.317890016362071">
        <ele>341.410000000000025</ele>
        <time>2015-04-08T12:59:45Z</time>
      </trkpt>
      <trkpt lat="47.29977797716856" lon="16.318321013823152">
        <ele>339</ele>
        <time>2015-04-08T12:59:53Z</time>
      </trkpt>
      <trkpt lat="47.299599023535848" lon="16.318550007417798">
        <ele>337.560000000000002</ele>
        <time>2015-04-08T12:59:56Z</time>
      </trkpt>
      <trkpt lat="47.299334993585944" lon="16.318862987682223">
        <ele>335.160000000000025</ele>
        <time>2015-04-08T13:00:00Z</time>
      </trkpt>
      <trkpt lat="47.29913298971951" lon="16.31911301985383">
        <ele>333.70999999999998</ele>
        <time>2015-04-08T13:00:03Z</time>
      </trkpt>
      <trkpt lat="47.298779021948576" lon="16.319566983729601">
        <ele>331.310000000000002</ele>
        <time>2015-04-08T13:00:08Z</time>
      </trkpt>
      <trkpt lat="47.298716995865107" lon="16.319677038118243">
        <ele>330.829999999999984</ele>
        <time>2015-04-08T13:00:09Z</time>
      </trkpt>
      <trkpt lat="47.29865999892354" lon="16.319795977324247">
        <ele>330.350000000000023</ele>
        <time>2015-04-08T13:00:10Z</time>
      </trkpt>
      <trkpt lat="47.298614988103509" lon="16.319921035319567">
        <ele>330.829999999999984</ele>
        <time>2015-04-08T13:00:11Z</time>
      </trkpt>
      <trkpt lat="47.298580035567284" lon="16.320052966475487">
        <ele>329.870000000000005</ele>
        <time>2015-04-08T13:00:12Z</time>
      </trkpt>
      <trkpt lat="47.298556985333562" lon="16.320184981450438">
        <ele>329.389999999999986</ele>
        <time>2015-04-08T13:00:13Z</time>
      </trkpt>
      <trkpt lat="47.298546005040407" lon="16.320320013910532">
        <ele>329.389999999999986</ele>
        <time>2015-04-08T13:00:14Z</time>
      </trkpt>
      <trkpt lat="47.298541981726885" lon="16.320450017228723">
        <ele>329.389999999999986</ele>
        <time>2015-04-08T13:00:15Z</time>
      </trkpt>
      <trkpt lat="47.29855002835393" lon="16.320578008890152">
        <ele>328.910000000000025</ele>
        <time>2015-04-08T13:00:16Z</time>
      </trkpt>
      <trkpt lat="47.298565031960607" lon="16.320696026086807">
        <ele>328.430000000000007</ele>
        <time>2015-04-08T13:00:17Z</time>
      </trkpt>
      <trkpt lat="47.298587998375297" lon="16.320808008313179">
        <ele>327.949999999999989</ele>
        <time>2015-04-08T13:00:18Z</time>
      </trkpt>
      <trkpt lat="47.298614988103509" lon="16.320916973054409">
        <ele>327.949999999999989</ele>
        <time>2015-04-08T13:00:19Z</time>
      </trkpt>
      <trkpt lat="47.298649018630385" lon="16.321014035493135">
        <ele>327.949999999999989</ele>
        <time>2015-04-08T13:00:20Z</time>
      </trkpt>
      <trkpt lat="47.29868296533823" lon="16.321105984970927">
        <ele>328.430000000000007</ele>
        <time>2015-04-08T13:00:21Z</time>
      </trkpt>
      <trkpt lat="47.299056965857744" lon="16.321954987943172">
        <ele>328.910000000000025</ele>
        <time>2015-04-08T13:00:34Z</time>
      </trkpt>
      <trkpt lat="47.299183029681444" lon="16.322609027847648">
        <ele>330.829999999999984</ele>
        <time>2015-04-08T13:00:46Z</time>
      </trkpt>
      <trkpt lat="47.299102982506156" lon="16.323071960359812">
        <ele>331.310000000000002</ele>
        <time>2015-04-08T13:00:57Z</time>
      </trkpt>
      <trkpt lat="47.298954036086798" lon="16.323540005832911">
        <ele>333.70999999999998</ele>
        <time>2015-04-08T13:01:10Z</time>
      </trkpt>
      <trkpt lat="47.29885496199131" lon="16.323825996369123">
        <ele>335.160000000000025</ele>
        <time>2015-04-08T13:01:21Z</time>
      </trkpt>
      <trkpt lat="47.298737028613687" lon="16.324138976633549">
        <ele>337.079999999999984</ele>
        <time>2015-04-08T13:01:33Z</time>
      </trkpt>
      <trkpt lat="47.298664022237062" lon="16.324365958571434">
        <ele>338.519999999999982</ele>
        <time>2015-04-08T13:01:46Z</time>
      </trkpt>
      <trkpt lat="47.298526978120208" lon="16.324729984626174">
        <ele>340.920000000000016</ele>
        <time>2015-04-08T13:02:06Z</time>
      </trkpt>
      <trkpt lat="47.298420025035739" lon="16.325081018730998">
        <ele>343.329999999999984</ele>
        <time>2015-04-08T13:02:23Z</time>
      </trkpt>
      <trkpt lat="47.298332015052438" lon="16.325308000668883">
        <ele>344.29000000000002</ele>
        <time>2015-04-08T13:02:35Z</time>
      </trkpt>
      <trkpt lat="47.298221960663795" lon="16.325530959293246">
        <ele>345.730000000000018</ele>
        <time>2015-04-08T13:02:50Z</time>
      </trkpt>
      <trkpt lat="47.298221960663795" lon="16.325527019798756">
        <ele>345.730000000000018</ele>
        <time>2015-04-08T13:03:15Z</time>
      </trkpt>
      <trkpt lat="47.298221960663795" lon="16.325527019798756">
        <ele>345.730000000000018</ele>
        <time>2015-04-08T13:03:51Z</time>
      </trkpt>
      <trkpt lat="47.298224978148937" lon="16.325520984828472">
        <ele>346.20999999999998</ele>
        <time>2015-04-08T13:04:25Z</time>
      </trkpt>
      <trkpt lat="47.29822900146246" lon="16.325542023405433">
        <ele>346.20999999999998</ele>
        <time>2015-04-08T13:04:35Z</time>
      </trkpt>
      <trkpt lat="47.29822900146246" lon="16.325564989820123">
        <ele>346.689999999999998</ele>
        <time>2015-04-08T13:04:36Z</time>
      </trkpt>
      <trkpt lat="47.298149038106203" lon="16.325849974527955">
        <ele>347.649999999999977</ele>
        <time>2015-04-08T13:04:47Z</time>
      </trkpt>
      <trkpt lat="47.298019034788013" lon="16.326248031109571">
        <ele>349.100000000000023</ele>
        <time>2015-04-08T13:04:59Z</time>
      </trkpt>
      <trkpt lat="47.297871010378003" lon="16.326706018298864">
        <ele>350.54000000000002</ele>
        <time>2015-04-08T13:05:13Z</time>
      </trkpt>
      <trkpt lat="47.297745030373335" lon="16.327108014374971">
        <ele>352.45999999999998</ele>
        <time>2015-04-08T13:05:26Z</time>
      </trkpt>
      <trkpt lat="47.297660959884524" lon="16.327408002689481">
        <ele>354.379999999999995</ele>
        <time>2015-04-08T13:05:37Z</time>
      </trkpt>
      <trkpt lat="47.297554006800056" lon="16.327775968238711">
        <ele>356.79000000000002</ele>
        <time>2015-04-08T13:05:49Z</time>
      </trkpt>
      <trkpt lat="47.297431966289878" lon="16.328151980414987">
        <ele>357.75</ele>
        <time>2015-04-08T13:06:04Z</time>
      </trkpt>
      <trkpt lat="47.297138012945652" lon="16.328278966248035">
        <ele>356.79000000000002</ele>
        <time>2015-04-08T13:06:16Z</time>
      </trkpt>
      <trkpt lat="47.296879012137651" lon="16.328263962641358">
        <ele>355.339999999999975</ele>
        <time>2015-04-08T13:06:21Z</time>
      </trkpt>
      <trkpt lat="47.296481961384416" lon="16.328259017318487">
        <ele>353.420000000000016</ele>
        <time>2015-04-08T13:06:27Z</time>
      </trkpt>
      <trkpt lat="47.295685010030866" lon="16.328247031196952">
        <ele>350.54000000000002</ele>
        <time>2015-04-08T13:06:37Z</time>
      </trkpt>
      <trkpt lat="47.29511302895844" lon="16.328238984569907">
        <ele>347.170000000000016</ele>
        <time>2015-04-08T13:06:44Z</time>
      </trkpt>
      <trkpt lat="47.295028958469629" lon="16.328235967084765">
        <ele>347.170000000000016</ele>
        <time>2015-04-08T13:06:45Z</time>
      </trkpt>
      <trkpt lat="47.294209040701389" lon="16.328213000670075">
        <ele>344.29000000000002</ele>
        <time>2015-04-08T13:06:55Z</time>
      </trkpt>
      <trkpt lat="47.293178988620639" lon="16.328203026205301">
        <ele>340.920000000000016</ele>
        <time>2015-04-08T13:07:08Z</time>
      </trkpt>
      <trkpt lat="47.293029958382249" lon="16.32820101454854">
        <ele>340.439999999999998</ele>
        <time>2015-04-08T13:07:10Z</time>
      </trkpt>
      <trkpt lat="47.291935030370951" lon="16.328171007335186">
        <ele>337.560000000000002</ele>
        <time>2015-04-08T13:07:25Z</time>
      </trkpt>
      <trkpt lat="47.291251989081502" lon="16.328148040920496">
        <ele>334.680000000000007</ele>
        <time>2015-04-08T13:07:34Z</time>
      </trkpt>
      <trkpt lat="47.290931968018413" lon="16.328142005950212">
        <ele>332.75</ele>
        <time>2015-04-08T13:07:38Z</time>
      </trkpt>
      <trkpt lat="47.290328973904252" lon="16.328131025657058">
        <ele>329.389999999999986</ele>
        <time>2015-04-08T13:07:45Z</time>
      </trkpt>
      <trkpt lat="47.28997802361846" lon="16.328117027878761">
        <ele>327.949999999999989</ele>
        <time>2015-04-08T13:07:49Z</time>
      </trkpt>
      <trkpt lat="47.289237985387444" lon="16.328095989301801">
        <ele>324.100000000000023</ele>
        <time>2015-04-08T13:07:57Z</time>
      </trkpt>
      <trkpt lat="47.288857027888298" lon="16.328090960159898">
        <ele>322.660000000000025</ele>
        <time>2015-04-08T13:08:01Z</time>
      </trkpt>
      <trkpt lat="47.288661981001496" lon="16.328080985695124">
        <ele>321.699999999999989</ele>
        <time>2015-04-08T13:08:03Z</time>
      </trkpt>
      <trkpt lat="47.288456037640572" lon="16.328074028715491">
        <ele>320.259999999999991</ele>
        <time>2015-04-08T13:08:05Z</time>
      </trkpt>
      <trkpt lat="47.287750029936433" lon="16.328063970431685">
        <ele>317.370000000000005</ele>
        <time>2015-04-08T13:08:12Z</time>
      </trkpt>
      <trkpt lat="47.287063971161842" lon="16.328043015673757">
        <ele>320.740000000000009</ele>
        <time>2015-04-08T13:08:22Z</time>
      </trkpt>
      <trkpt lat="47.286544963717461" lon="16.328045027330518">
        <ele>323.620000000000005</ele>
        <time>2015-04-08T13:08:35Z</time>
      </trkpt>
      <trkpt lat="47.286110026761889" lon="16.328030023723841">
        <ele>325.060000000000002</ele>
        <time>2015-04-08T13:08:48Z</time>
      </trkpt>
      <trkpt lat="47.28576703928411" lon="16.328019965440035">
        <ele>326.019999999999982</ele>
        <time>2015-04-08T13:09:00Z</time>
      </trkpt>
      <trkpt lat="47.285172007977962" lon="16.328010996803641">
        <ele>328.430000000000007</ele>
        <time>2015-04-08T13:09:18Z</time>
      </trkpt>
      <trkpt lat="47.284557027742267" lon="16.328001022338867">
        <ele>329.389999999999986</ele>
        <time>2015-04-08T13:09:35Z</time>
      </trkpt>
      <trkpt lat="47.284012036398053" lon="16.328016025945544">
        <ele>331.79000000000002</ele>
        <time>2015-04-08T13:09:51Z</time>
      </trkpt>
      <trkpt lat="47.283504009246826" lon="16.328075034543872">
        <ele>333.230000000000018</ele>
        <time>2015-04-08T13:10:06Z</time>
      </trkpt>
      <trkpt lat="47.28297402150929" lon="16.328134965151548">
        <ele>334.199999999999989</ele>
        <time>2015-04-08T13:10:22Z</time>
      </trkpt>
      <trkpt lat="47.282489966601133" lon="16.328199002891779">
        <ele>335.160000000000025</ele>
        <time>2015-04-08T13:10:39Z</time>
      </trkpt>
      <trkpt lat="47.281956039369106" lon="16.32826597429812">
        <ele>336.120000000000005</ele>
        <time>2015-04-08T13:10:56Z</time>
      </trkpt>
      <trkpt lat="47.281349021941423" lon="16.328149968758225">
        <ele>338.04000000000002</ele>
        <time>2015-04-08T13:11:14Z</time>
      </trkpt>
      <trkpt lat="47.28080403059721" lon="16.328021977096796">
        <ele>339</ele>
        <time>2015-04-08T13:11:32Z</time>
      </trkpt>
      <trkpt lat="47.280399017035961" lon="16.327876970171928">
        <ele>340.439999999999998</ele>
        <time>2015-04-08T13:11:48Z</time>
      </trkpt>
      <trkpt lat="47.280265996232629" lon="16.327994987368584">
        <ele>340.920000000000016</ele>
        <time>2015-04-08T13:11:56Z</time>
      </trkpt>
      <trkpt lat="47.280261972919106" lon="16.328012002632022">
        <ele>340.920000000000016</ele>
        <time>2015-04-08T13:11:57Z</time>
      </trkpt>
      <trkpt lat="47.280250992625952" lon="16.328030023723841">
        <ele>341.410000000000025</ele>
        <time>2015-04-08T13:11:58Z</time>
      </trkpt>
      <trkpt lat="47.280246969312429" lon="16.328048966825008">
        <ele>341.410000000000025</ele>
        <time>2015-04-08T13:11:59Z</time>
      </trkpt>
      <trkpt lat="47.280234983190894" lon="16.328063970431685">
        <ele>341.410000000000025</ele>
        <time>2015-04-08T13:12:00Z</time>
      </trkpt>
      <trkpt lat="47.280228026211262" lon="16.328078974038363">
        <ele>341.410000000000025</ele>
        <time>2015-04-08T13:12:01Z</time>
      </trkpt>
      <trkpt lat="47.280212016776204" lon="16.32809397764504">
        <ele>341.889999999999986</ele>
        <time>2015-04-08T13:12:13Z</time>
      </trkpt>
      <trkpt lat="47.280212016776204" lon="16.328092971816659">
        <ele>341.410000000000025</ele>
        <time>2015-04-08T13:12:45Z</time>
      </trkpt>
      <trkpt lat="47.280212016776204" lon="16.328092971816659">
        <ele>341.889999999999986</ele>
        <time>2015-04-08T13:12:56Z</time>
      </trkpt>
      <trkpt lat="47.280216040089726" lon="16.328111998736858">
        <ele>342.850000000000023</ele>
        <time>2015-04-08T13:12:57Z</time>
      </trkpt>
      <trkpt lat="47.280224002897739" lon="16.328133037313819">
        <ele>340.439999999999998</ele>
        <time>2015-04-08T13:12:58Z</time>
      </trkpt>
      <trkpt lat="47.280230959877372" lon="16.328148040920496">
        <ele>341.889999999999986</ele>
        <time>2015-04-08T13:12:59Z</time>
      </trkpt>
      <trkpt lat="47.280239006504416" lon="16.328166984021664">
        <ele>342.850000000000023</ele>
        <time>2015-04-08T13:13:00Z</time>
      </trkpt>
      <trkpt lat="47.280246969312429" lon="16.328193973749876">
        <ele>341.889999999999986</ele>
        <time>2015-04-08T13:13:01Z</time>
      </trkpt>
      <trkpt lat="47.280258033424616" lon="16.328602004796267">
        <ele>344.29000000000002</ele>
        <time>2015-04-08T13:13:13Z</time>
      </trkpt>
      <trkpt lat="47.280337996780872" lon="16.329052029177547">
        <ele>346.689999999999998</ele>
        <time>2015-04-08T13:13:26Z</time>
      </trkpt>
      <trkpt lat="47.280379990115762" lon="16.329441033303738">
        <ele>348.129999999999995</ele>
        <time>2015-04-08T13:13:39Z</time>
      </trkpt>
      <trkpt lat="47.280391976237297" lon="16.329789971932769">
        <ele>349.579999999999984</ele>
        <time>2015-04-08T13:13:52Z</time>
      </trkpt>
      <trkpt lat="47.280391976237297" lon="16.329862978309393">
        <ele>348.620000000000005</ele>
        <time>2015-04-08T13:13:54Z</time>
      </trkpt>
      <trkpt lat="47.280342020094395" lon="16.330488016828895">
        <ele>347.649999999999977</ele>
        <time>2015-04-08T13:14:08Z</time>
      </trkpt>
      <trkpt lat="47.280261972919106" lon="16.331610018387437">
        <ele>346.689999999999998</ele>
        <time>2015-04-08T13:14:23Z</time>
      </trkpt>
      <trkpt lat="47.280186032876372" lon="16.332869986072183">
        <ele>345.730000000000018</ele>
        <time>2015-04-08T13:14:39Z</time>
      </trkpt>
      <trkpt lat="47.280074972659349" lon="16.334343021735549">
        <ele>343.810000000000002</ele>
        <time>2015-04-08T13:14:56Z</time>
      </trkpt>
      <trkpt lat="47.279999032616615" lon="16.335663003847003">
        <ele>343.810000000000002</ele>
        <time>2015-04-08T13:15:13Z</time>
      </trkpt>
      <trkpt lat="47.279929965734482" lon="16.336711999028921">
        <ele>342.850000000000023</ele>
        <time>2015-04-08T13:15:28Z</time>
      </trkpt>
      <trkpt lat="47.279842039570212" lon="16.338174976408482">
        <ele>341.410000000000025</ele>
        <time>2015-04-08T13:15:46Z</time>
      </trkpt>
      <trkpt lat="47.279757969081402" lon="16.339476015418768">
        <ele>339.95999999999998</ele>
        <time>2015-04-08T13:16:03Z</time>
      </trkpt>
      <trkpt lat="47.279704995453358" lon="16.340016983449459">
        <ele>338.519999999999982</ele>
        <time>2015-04-08T13:16:10Z</time>
      </trkpt>
      <trkpt lat="47.279685968533158" lon="16.34008202701807">
        <ele>338.519999999999982</ele>
        <time>2015-04-08T13:16:11Z</time>
      </trkpt>
      <trkpt lat="47.279663002118468" lon="16.340139023959637">
        <ele>338.519999999999982</ele>
        <time>2015-04-08T13:16:12Z</time>
      </trkpt>
      <trkpt lat="47.279495028778911" lon="16.340441023930907">
        <ele>339.95999999999998</ele>
        <time>2015-04-08T13:16:18Z</time>
      </trkpt>
      <trkpt lat="47.279456974938512" lon="16.340481005609035">
        <ele>339</ele>
        <time>2015-04-08T13:16:19Z</time>
      </trkpt>
      <trkpt lat="47.279305011034012" lon="16.34061997756362">
        <ele>339</ele>
        <time>2015-04-08T13:16:23Z</time>
      </trkpt>
      <trkpt lat="47.279137037694454" lon="16.340685021132231">
        <ele>339.480000000000018</ele>
        <time>2015-04-08T13:16:27Z</time>
      </trkpt>
      <trkpt lat="47.279082974418998" lon="16.340676974505186">
        <ele>338.519999999999982</ele>
        <time>2015-04-08T13:16:28Z</time>
      </trkpt>
      <trkpt lat="47.279025977477431" lon="16.340661970898509">
        <ele>339</ele>
        <time>2015-04-08T13:16:29Z</time>
      </trkpt>
      <trkpt lat="47.278156019747257" lon="16.340439012274146">
        <ele>338.04000000000002</ele>
        <time>2015-04-08T13:16:45Z</time>
      </trkpt>
      <trkpt lat="47.277092020958662" lon="16.340355025604367">
        <ele>337.079999999999984</ele>
        <time>2015-04-08T13:17:02Z</time>
      </trkpt>
      <trkpt lat="47.275967001914978" lon="16.340528028085828">
        <ele>336.120000000000005</ele>
        <time>2015-04-08T13:17:20Z</time>
      </trkpt>
      <trkpt lat="47.274913983419538" lon="16.340698013082147">
        <ele>334.680000000000007</ele>
        <time>2015-04-08T13:17:38Z</time>
      </trkpt>
      <trkpt lat="47.274642996490002" lon="16.340747969225049">
        <ele>335.160000000000025</ele>
        <time>2015-04-08T13:17:43Z</time>
      </trkpt>
      <trkpt lat="47.274593040347099" lon="16.340771019458771">
        <ele>335.160000000000025</ele>
        <time>2015-04-08T13:17:44Z</time>
      </trkpt>
      <trkpt lat="47.274550963193178" lon="16.340806977823377">
        <ele>335.160000000000025</ele>
        <time>2015-04-08T13:17:45Z</time>
      </trkpt>
      <trkpt lat="47.274517016485333" lon="16.340857017785311">
        <ele>335.160000000000025</ele>
        <time>2015-04-08T13:17:46Z</time>
      </trkpt>
      <trkpt lat="47.274497989565134" lon="16.340912003070116">
        <ele>336.120000000000005</ele>
        <time>2015-04-08T13:17:47Z</time>
      </trkpt>
      <trkpt lat="47.274487009271979" lon="16.340971011668444">
        <ele>336.600000000000023</ele>
        <time>2015-04-08T13:17:48Z</time>
      </trkpt>
      <trkpt lat="47.274490026757121" lon="16.341033959761262">
        <ele>337.560000000000002</ele>
        <time>2015-04-08T13:17:49Z</time>
      </trkpt>
      <trkpt lat="47.274497989565134" lon="16.34109296835959">
        <ele>337.560000000000002</ele>
        <time>2015-04-08T13:17:50Z</time>
      </trkpt>
      <trkpt lat="47.274506036192179" lon="16.341151976957917">
        <ele>338.519999999999982</ele>
        <time>2015-04-08T13:17:51Z</time>
      </trkpt>
      <trkpt lat="47.274539982900023" lon="16.341615999117494">
        <ele>339.480000000000018</ele>
        <time>2015-04-08T13:18:01Z</time>
      </trkpt>
      <trkpt lat="47.274585999548435" lon="16.342094019055367">
        <ele>341.410000000000025</ele>
        <time>2015-04-08T13:18:13Z</time>
      </trkpt>
      <trkpt lat="47.274632016196847" lon="16.342609003186226">
        <ele>343.810000000000002</ele>
        <time>2015-04-08T13:18:27Z</time>
      </trkpt>
      <trkpt lat="47.274642996490002" lon="16.342787034809589">
        <ele>345.730000000000018</ele>
        <time>2015-04-08T13:18:32Z</time>
      </trkpt>
      <trkpt lat="47.274689013138413" lon="16.343308975920081">
        <ele>345.730000000000018</ele>
        <time>2015-04-08T13:18:49Z</time>
      </trkpt>
      <trkpt lat="47.274726983159781" lon="16.343852961435914">
        <ele>346.689999999999998</ele>
        <time>2015-04-08T13:19:05Z</time>
      </trkpt>
      <trkpt lat="47.274776017293334" lon="16.344472970813513">
        <ele>349.579999999999984</ele>
        <time>2015-04-08T13:19:23Z</time>
      </trkpt>
      <trkpt lat="47.274798983708024" lon="16.344757033511996">
        <ele>350.060000000000002</ele>
        <time>2015-04-08T13:19:32Z</time>
      </trkpt>
      <trkpt lat="47.274825973436236" lon="16.345233963802457">
        <ele>351.5</ele>
        <time>2015-04-08T13:19:48Z</time>
      </trkpt>
      <trkpt lat="47.274845000356436" lon="16.345476033166051">
        <ele>352.45999999999998</ele>
        <time>2015-04-08T13:19:58Z</time>
      </trkpt>
      <trkpt lat="47.274867966771126" lon="16.345929997041821">
        <ele>354.860000000000014</ele>
        <time>2015-04-08T13:20:12Z</time>
      </trkpt>
      <trkpt lat="47.27489897981286" lon="16.346385972574353">
        <ele>356.79000000000002</ele>
        <time>2015-04-08T13:20:26Z</time>
      </trkpt>
      <trkpt lat="47.274948013946414" lon="16.346895005553961">
        <ele>357.269999999999982</ele>
        <time>2015-04-08T13:20:42Z</time>
      </trkpt>
      <trkpt lat="47.275012973695993" lon="16.347497999668121">
        <ele>357.269999999999982</ele>
        <time>2015-04-08T13:20:55Z</time>
      </trkpt>
      <trkpt lat="47.275066031143069" lon="16.347711989656091">
        <ele>357.269999999999982</ele>
        <time>2015-04-08T13:20:59Z</time>
      </trkpt>
      <trkpt lat="47.275082040578127" lon="16.347764963284135">
        <ele>357.269999999999982</ele>
        <time>2015-04-08T13:21:00Z</time>
      </trkpt>
      <trkpt lat="47.275096960365772" lon="16.347820032387972">
        <ele>357.269999999999982</ele>
        <time>2015-04-08T13:21:01Z</time>
      </trkpt>
      <trkpt lat="47.275111963972449" lon="16.347872000187635">
        <ele>356.310000000000002</ele>
        <time>2015-04-08T13:21:02Z</time>
      </trkpt>
      <trkpt lat="47.275130990892649" lon="16.347921034321189">
        <ele>356.79000000000002</ele>
        <time>2015-04-08T13:21:03Z</time>
      </trkpt>
      <trkpt lat="47.275546984747052" lon="16.348758973181248">
        <ele>354.379999999999995</ele>
        <time>2015-04-08T13:21:17Z</time>
      </trkpt>
      <trkpt lat="47.275676988065243" lon="16.349032977595925">
        <ele>351.5</ele>
        <time>2015-04-08T13:21:21Z</time>
      </trkpt>
      <trkpt lat="47.275829035788774" lon="16.349346041679382">
        <ele>349.100000000000023</ele>
        <time>2015-04-08T13:21:25Z</time>
      </trkpt>
      <trkpt lat="47.276008995249867" lon="16.349706966429949">
        <ele>345.730000000000018</ele>
        <time>2015-04-08T13:21:29Z</time>
      </trkpt>
      <trkpt lat="47.276058029383421" lon="16.349791036918759">
        <ele>346.20999999999998</ele>
        <time>2015-04-08T13:21:30Z</time>
      </trkpt>
      <trkpt lat="47.276103962212801" lon="16.349863037467003">
        <ele>345.25</ele>
        <time>2015-04-08T13:21:31Z</time>
      </trkpt>
      <trkpt lat="47.27616498246789" lon="16.34992397390306">
        <ele>345.25</ele>
        <time>2015-04-08T13:21:32Z</time>
      </trkpt>
      <trkpt lat="47.276226002722979" lon="16.349972002208233">
        <ele>344.769999999999982</ele>
        <time>2015-04-08T13:21:33Z</time>
      </trkpt>
      <trkpt lat="47.276565972715616" lon="16.350121032446623">
        <ele>342.850000000000023</ele>
        <time>2015-04-08T13:21:38Z</time>
      </trkpt>
      <trkpt lat="47.277038963511586" lon="16.350233014672995">
        <ele>339</ele>
        <time>2015-04-08T13:21:44Z</time>
      </trkpt>
      <trkpt lat="47.277648998424411" lon="16.350405011326075">
        <ele>335.639999999999986</ele>
        <time>2015-04-08T13:21:52Z</time>
      </trkpt>
      <trkpt lat="47.277945969253778" lon="16.350497966632247">
        <ele>333.70999999999998</ele>
        <time>2015-04-08T13:21:56Z</time>
      </trkpt>
      <trkpt lat="47.278346959501505" lon="16.350614978000522">
        <ele>330.350000000000023</ele>
        <time>2015-04-08T13:22:01Z</time>
      </trkpt>
      <trkpt lat="47.278702016919851" lon="16.350688990205526">
        <ele>327.949999999999989</ele>
        <time>2015-04-08T13:22:05Z</time>
      </trkpt>
      <trkpt lat="47.279025977477431" lon="16.350772976875305">
        <ele>324.100000000000023</ele>
        <time>2015-04-08T13:22:09Z</time>
      </trkpt>
      <trkpt lat="47.27910996414721" lon="16.350792003795505">
        <ele>324.100000000000023</ele>
        <time>2015-04-08T13:22:10Z</time>
      </trkpt>
      <trkpt lat="47.279345998540521" lon="16.350844977423549">
        <ele>322.660000000000025</ele>
        <time>2015-04-08T13:22:13Z</time>
      </trkpt>
      <trkpt lat="47.279491005465388" lon="16.350893005728722">
        <ele>321.220000000000027</ele>
        <time>2015-04-08T13:22:15Z</time>
      </trkpt>
      <trkpt lat="47.279876992106438" lon="16.351073971018195">
        <ele>318.810000000000002</ele>
        <time>2015-04-08T13:22:21Z</time>
      </trkpt>
      <trkpt lat="47.279933989048004" lon="16.351124010980129">
        <ele>318.810000000000002</ele>
        <time>2015-04-08T13:22:22Z</time>
      </trkpt>
      <trkpt lat="47.279990985989571" lon="16.351176984608173">
        <ele>318.329999999999984</ele>
        <time>2015-04-08T13:22:23Z</time>
      </trkpt>
      <trkpt lat="47.280044965445995" lon="16.351229036226869">
        <ele>317.370000000000005</ele>
        <time>2015-04-08T13:22:24Z</time>
      </trkpt>
      <trkpt lat="47.280089976266026" lon="16.351286033168435">
        <ele>316.410000000000025</ele>
        <time>2015-04-08T13:22:25Z</time>
      </trkpt>
      <trkpt lat="47.280128030106425" lon="16.351350992918015">
        <ele>315.930000000000007</ele>
        <time>2015-04-08T13:22:26Z</time>
      </trkpt>
      <trkpt lat="47.280162982642651" lon="16.351420981809497">
        <ele>315.930000000000007</ele>
        <time>2015-04-08T13:22:27Z</time>
      </trkpt>
      <trkpt lat="47.280192989856005" lon="16.351500023156404">
        <ele>315.449999999999989</ele>
        <time>2015-04-08T13:22:28Z</time>
      </trkpt>
      <trkpt lat="47.280224002897739" lon="16.3515779748559">
        <ele>314.009999999999991</ele>
        <time>2015-04-08T13:22:29Z</time>
      </trkpt>
      <trkpt lat="47.280246969312429" lon="16.351656010374427">
        <ele>314.009999999999991</ele>
        <time>2015-04-08T13:22:30Z</time>
      </trkpt>
      <trkpt lat="47.280265996232629" lon="16.351735973730683">
        <ele>314.009999999999991</ele>
        <time>2015-04-08T13:22:31Z</time>
      </trkpt>
      <trkpt lat="47.280280999839306" lon="16.351819960400462">
        <ele>314.009999999999991</ele>
        <time>2015-04-08T13:22:32Z</time>
      </trkpt>
      <trkpt lat="47.280292985960841" lon="16.35190000757575">
        <ele>314.009999999999991</ele>
        <time>2015-04-08T13:22:33Z</time>
      </trkpt>
      <trkpt lat="47.280303966253996" lon="16.352058006450534">
        <ele>311.120000000000005</ele>
        <time>2015-04-08T13:22:35Z</time>
      </trkpt>
      <trkpt lat="47.280307989567518" lon="16.352308038622141">
        <ele>307.759999999999991</ele>
        <time>2015-04-08T13:22:38Z</time>
      </trkpt>
      <trkpt lat="47.280300026759505" lon="16.352429995313287">
        <ele>306.319999999999993</ele>
        <time>2015-04-08T13:22:41Z</time>
      </trkpt>
      <trkpt lat="47.280296003445983" lon="16.352449022233486">
        <ele>306.800000000000011</ele>
        <time>2015-04-08T13:22:42Z</time>
      </trkpt>
      <trkpt lat="47.280292985960841" lon="16.352466959506273">
        <ele>306.319999999999993</ele>
        <time>2015-04-08T13:22:43Z</time>
      </trkpt>
      <trkpt lat="47.280292985960841" lon="16.352476011961699">
        <ele>305.839999999999975</ele>
        <time>2015-04-08T13:22:57Z</time>
      </trkpt>
      <trkpt lat="47.280292985960841" lon="16.35247802361846">
        <ele>306.319999999999993</ele>
        <time>2015-04-08T13:23:32Z</time>
      </trkpt>
      <trkpt lat="47.280296003445983" lon="16.352505013346672">
        <ele>306.319999999999993</ele>
        <time>2015-04-08T13:23:33Z</time>
      </trkpt>
      <trkpt lat="47.280300026759505" lon="16.352547006681561">
        <ele>305.839999999999975</ele>
        <time>2015-04-08T13:23:34Z</time>
      </trkpt>
      <trkpt lat="47.280307989567518" lon="16.352604003623128">
        <ele>305.360000000000014</ele>
        <time>2015-04-08T13:23:35Z</time>
      </trkpt>
      <trkpt lat="47.280312012881041" lon="16.35267399251461">
        <ele>304.879999999999995</ele>
        <time>2015-04-08T13:23:36Z</time>
      </trkpt>
      <trkpt lat="47.280312012881041" lon="16.352754961699247">
        <ele>303.910000000000025</ele>
        <time>2015-04-08T13:23:37Z</time>
      </trkpt>
      <trkpt lat="47.280318969860673" lon="16.353120999410748">
        <ele>301.029999999999973</ele>
        <time>2015-04-08T13:23:41Z</time>
      </trkpt>
      <trkpt lat="47.280322993174195" lon="16.353417970240116">
        <ele>298.149999999999977</ele>
        <time>2015-04-08T13:23:44Z</time>
      </trkpt>
      <trkpt lat="47.280322993174195" lon="16.353520983830094">
        <ele>298.149999999999977</ele>
        <time>2015-04-08T13:23:45Z</time>
      </trkpt>
      <trkpt lat="47.28033397346735" lon="16.353717958554626">
        <ele>296.220000000000027</ele>
        <time>2015-04-08T13:23:47Z</time>
      </trkpt>
      <trkpt lat="47.280345959588885" lon="16.353806974366307">
        <ele>296.220000000000027</ele>
        <time>2015-04-08T13:23:48Z</time>
      </trkpt>
      <trkpt lat="47.280360963195562" lon="16.353888027369976">
        <ele>296.220000000000027</ele>
        <time>2015-04-08T13:23:49Z</time>
      </trkpt>
      <trkpt lat="47.280415026471019" lon="16.354105034843087">
        <ele>295.259999999999991</ele>
        <time>2015-04-08T13:23:52Z</time>
      </trkpt>
      <trkpt lat="47.280598003417253" lon="16.35469201952219">
        <ele>293.819999999999993</ele>
        <time>2015-04-08T13:24:04Z</time>
      </trkpt>
      <trkpt lat="47.280399017035961" lon="16.354873990640044">
        <ele>293.339999999999975</ele>
        <time>2015-04-08T13:24:14Z</time>
      </trkpt>
      <trkpt lat="47.279884032905102" lon="16.355214966461062">
        <ele>292.860000000000014</ele>
        <time>2015-04-08T13:24:27Z</time>
      </trkpt>
      <trkpt lat="47.279803985729814" lon="16.355275986716151">
        <ele>293.339999999999975</ele>
        <time>2015-04-08T13:24:29Z</time>
      </trkpt>
      <trkpt lat="47.279201997444034" lon="16.355861965566874">
        <ele>293.339999999999975</ele>
        <time>2015-04-08T13:24:45Z</time>
      </trkpt>
      <trkpt lat="47.278961017727852" lon="16.356208976358175">
        <ele>292.860000000000014</ele>
        <time>2015-04-08T13:24:57Z</time>
      </trkpt>
      <trkpt lat="47.278961017727852" lon="16.356240995228291">
        <ele>293.339999999999975</ele>
        <time>2015-04-08T13:24:58Z</time>
      </trkpt>
      <trkpt lat="47.278968980535865" lon="16.356278965249658">
        <ele>292.860000000000014</ele>
        <time>2015-04-08T13:24:59Z</time>
      </trkpt>
      <trkpt lat="47.27897996082902" lon="16.356316013261676">
        <ele>293.339999999999975</ele>
        <time>2015-04-08T13:25:00Z</time>
      </trkpt>
      <trkpt lat="47.278998987749219" lon="16.356349959969521">
        <ele>293.339999999999975</ele>
        <time>2015-04-08T13:25:01Z</time>
      </trkpt>
      <trkpt lat="47.279025977477431" lon="16.356381978839636">
        <ele>293.339999999999975</ele>
        <time>2015-04-08T13:25:02Z</time>
      </trkpt>
      <trkpt lat="47.279133014380932" lon="16.356544001027942">
        <ele>293.339999999999975</ele>
        <time>2015-04-08T13:25:08Z</time>
      </trkpt>
      <trkpt lat="47.279139971360564" lon="16.356557998806238">
        <ele>293.339999999999975</ele>
        <time>2015-04-08T13:26:48Z</time>
      </trkpt>
      <trkpt lat="47.279133014380932" lon="16.356584988534451">
        <ele>292.860000000000014</ele>
        <time>2015-04-08T13:26:49Z</time>
      </trkpt>
      <trkpt lat="47.279082974418998" lon="16.357096033170819">
        <ele>293.339999999999975</ele>
        <time>2015-04-08T13:27:01Z</time>
      </trkpt>
      <trkpt lat="47.279232004657388" lon="16.357658039778471">
        <ele>294.300000000000011</ele>
        <time>2015-04-08T13:27:13Z</time>
      </trkpt>
      <trkpt lat="47.279441971331835" lon="16.358429007232189">
        <ele>297.670000000000016</ele>
        <time>2015-04-08T13:27:29Z</time>
      </trkpt>
      <trkpt lat="47.279597958549857" lon="16.358987996354699">
        <ele>300.550000000000011</ele>
        <time>2015-04-08T13:27:43Z</time>
      </trkpt>
      <trkpt lat="47.279610028490424" lon="16.359014986082911">
        <ele>300.550000000000011</ele>
        <time>2015-04-08T13:27:44Z</time>
      </trkpt>
      <trkpt lat="47.279712958261371" lon="16.359352022409439">
        <ele>300.550000000000011</ele>
        <time>2015-04-08T13:27:59Z</time>
      </trkpt>
      <trkpt lat="47.279793005436659" lon="16.359627032652497">
        <ele>301.029999999999973</ele>
        <time>2015-04-08T13:28:08Z</time>
      </trkpt>
      <trkpt lat="47.280014036223292" lon="16.36040898039937">
        <ele>301.029999999999973</ele>
        <time>2015-04-08T13:28:23Z</time>
      </trkpt>
      <trkpt lat="47.280288962647319" lon="16.361397039145231">
        <ele>301.990000000000009</ele>
        <time>2015-04-08T13:28:42Z</time>
      </trkpt>
      <trkpt lat="47.280536983162165" lon="16.362288035452366">
        <ele>302.949999999999989</ele>
        <time>2015-04-08T13:29:01Z</time>
      </trkpt>
      <trkpt lat="47.280692970380187" lon="16.362824980169535">
        <ele>303.430000000000007</ele>
        <time>2015-04-08T13:29:16Z</time>
      </trkpt>
      <trkpt lat="47.280795983970165" lon="16.363176014274359">
        <ele>304.879999999999995</ele>
        <time>2015-04-08T13:29:30Z</time>
      </trkpt>
      <trkpt lat="47.28080403059721" lon="16.363205015659332">
        <ele>304.879999999999995</ele>
        <time>2015-04-08T13:29:31Z</time>
      </trkpt>
      <trkpt lat="47.280991030856967" lon="16.363887973129749">
        <ele>306.319999999999993</ele>
        <time>2015-04-08T13:29:49Z</time>
      </trkpt>
      <trkpt lat="47.281151041388512" lon="16.364456014707685">
        <ele>307.759999999999991</ele>
        <time>2015-04-08T13:30:05Z</time>
      </trkpt>
      <trkpt lat="47.281283978372812" lon="16.3649180252105">
        <ele>308.720000000000027</ele>
        <time>2015-04-08T13:30:17Z</time>
      </trkpt>
      <trkpt lat="47.281433008611202" lon="16.36543502099812">
        <ele>312.089999999999975</ele>
        <time>2015-04-08T13:30:32Z</time>
      </trkpt>
      <trkpt lat="47.281512971967459" lon="16.365726040676236">
        <ele>313.529999999999973</ele>
        <time>2015-04-08T13:30:44Z</time>
      </trkpt>
      <trkpt lat="47.281630989164114" lon="16.366125019267201">
        <ele>315.449999999999989</ele>
        <time>2015-04-08T13:30:57Z</time>
      </trkpt>
      <trkpt lat="47.281734002754092" lon="16.366488039493561">
        <ele>317.850000000000023</ele>
        <time>2015-04-08T13:31:11Z</time>
      </trkpt>
      <trkpt lat="47.281875992193818" lon="16.36695901863277">
        <ele>319.779999999999973</ele>
        <time>2015-04-08T13:31:25Z</time>
      </trkpt>
      <trkpt lat="47.282082019373775" lon="16.36762797832489">
        <ele>321.220000000000027</ele>
        <time>2015-04-08T13:31:44Z</time>
      </trkpt>
      <trkpt lat="47.282295003533363" lon="16.368348989635706">
        <ele>322.660000000000025</ele>
        <time>2015-04-08T13:32:03Z</time>
      </trkpt>
      <trkpt lat="47.2825469635427" lon="16.369151975959539">
        <ele>322.180000000000007</ele>
        <time>2015-04-08T13:32:21Z</time>
      </trkpt>
      <trkpt lat="47.282577976584435" lon="16.369272004812956">
        <ele>322.180000000000007</ele>
        <time>2015-04-08T13:32:23Z</time>
      </trkpt>
      <trkpt lat="47.282592980191112" lon="16.369335036724806">
        <ele>322.180000000000007</ele>
        <time>2015-04-08T13:32:24Z</time>
      </trkpt>
      <trkpt lat="47.282776040956378" lon="16.370298033580184">
        <ele>318.329999999999984</ele>
        <time>2015-04-08T13:32:36Z</time>
      </trkpt>
      <trkpt lat="47.282905960455537" lon="16.371598988771439">
        <ele>317.850000000000023</ele>
        <time>2015-04-08T13:32:51Z</time>
      </trkpt>
      <trkpt lat="47.283043004572392" lon="16.372888963669538">
        <ele>318.329999999999984</ele>
        <time>2015-04-08T13:33:08Z</time>
      </trkpt>
      <trkpt lat="47.283053984865546" lon="16.373023996129632">
        <ele>318.810000000000002</ele>
        <time>2015-04-08T13:33:10Z</time>
      </trkpt>
      <trkpt lat="47.283062031492591" lon="16.373080993071198">
        <ele>319.300000000000011</ele>
        <time>2015-04-08T13:33:11Z</time>
      </trkpt>
      <trkpt lat="47.283065970987082" lon="16.373134972527623">
        <ele>319.300000000000011</ele>
        <time>2015-04-08T13:33:12Z</time>
      </trkpt>
      <trkpt lat="47.28312699124217" lon="16.373775014653802">
        <ele>320.259999999999991</ele>
        <time>2015-04-08T13:33:24Z</time>
      </trkpt>
      <trkpt lat="47.283207038417459" lon="16.374515974894166">
        <ele>320.740000000000009</ele>
        <time>2015-04-08T13:33:39Z</time>
      </trkpt>
      <trkpt lat="47.283271998167038" lon="16.375015033408999">
        <ele>320.259999999999991</ele>
        <time>2015-04-08T13:33:48Z</time>
      </trkpt>
      <trkpt lat="47.283287001773715" lon="16.375040011480451">
        <ele>320.259999999999991</ele>
        <time>2015-04-08T13:33:49Z</time>
      </trkpt>
      <trkpt lat="47.283302005380392" lon="16.374998018145561">
        <ele>319.779999999999973</ele>
        <time>2015-04-08T13:33:56Z</time>
      </trkpt>
      <trkpt lat="47.283294964581728" lon="16.374988965690136">
        <ele>320.259999999999991</ele>
        <time>2015-04-08T13:33:57Z</time>
      </trkpt>
      <trkpt lat="47.283282978460193" lon="16.374988965690136">
        <ele>319.779999999999973</ele>
        <time>2015-04-08T13:33:58Z</time>
      </trkpt>
      <trkpt lat="47.283271998167038" lon="16.374998018145561">
        <ele>319.779999999999973</ele>
        <time>2015-04-08T13:33:59Z</time>
      </trkpt>
      <trkpt lat="47.283267974853516" lon="16.375022996217012">
        <ele>319.779999999999973</ele>
        <time>2015-04-08T13:34:00Z</time>
      </trkpt>
      <trkpt lat="47.283271998167038" lon="16.375057026743889">
        <ele>319.779999999999973</ele>
        <time>2015-04-08T13:34:01Z</time>
      </trkpt>
      <trkpt lat="47.283279038965702" lon="16.375094996765256">
        <ele>319.779999999999973</ele>
        <time>2015-04-08T13:34:02Z</time>
      </trkpt>
      <trkpt lat="47.283287001773715" lon="16.375141013413668">
        <ele>319.779999999999973</ele>
        <time>2015-04-08T13:34:03Z</time>
      </trkpt>
      <trkpt lat="47.283291025087237" lon="16.375189041718841">
        <ele>319.779999999999973</ele>
        <time>2015-04-08T13:34:04Z</time>
      </trkpt>
      <trkpt lat="47.283370988443494" lon="16.376022035256028">
        <ele>318.329999999999984</ele>
        <time>2015-04-08T13:34:17Z</time>
      </trkpt>
      <trkpt lat="47.283504009246826" lon="16.377305975183845">
        <ele>317.370000000000005</ele>
        <time>2015-04-08T13:34:34Z</time>
      </trkpt>
      <trkpt lat="47.283538961783051" lon="16.377602024003863">
        <ele>316.889999999999986</ele>
        <time>2015-04-08T13:34:38Z</time>
      </trkpt>
      <trkpt lat="47.283656978979707" lon="16.378738023340702">
        <ele>316.410000000000025</ele>
        <time>2015-04-08T13:34:53Z</time>
      </trkpt>
      <trkpt lat="47.283710036426783" lon="16.379112023860216">
        <ele>316.410000000000025</ele>
        <time>2015-04-08T13:34:58Z</time>
      </trkpt>
      <trkpt lat="47.283806009218097" lon="16.380102010443807">
        <ele>315.930000000000007</ele>
        <time>2015-04-08T13:35:12Z</time>
      </trkpt>
      <trkpt lat="47.283858982846141" lon="16.380503000691533">
        <ele>315.449999999999989</ele>
        <time>2015-04-08T13:35:18Z</time>
      </trkpt>
      <trkpt lat="47.283961996436119" lon="16.381531041115522">
        <ele>313.529999999999973</ele>
        <time>2015-04-08T13:35:34Z</time>
      </trkpt>
      <trkpt lat="47.283966019749641" lon="16.381586026400328">
        <ele>314.009999999999991</ele>
        <time>2015-04-08T13:35:35Z</time>
      </trkpt>
      <trkpt lat="47.283978005871177" lon="16.381683005020022">
        <ele>314.490000000000009</ele>
        <time>2015-04-08T13:35:44Z</time>
      </trkpt>
      <trkpt lat="47.283978005871177" lon="16.381683005020022">
        <ele>314.970000000000027</ele>
        <time>2015-04-08T13:36:11Z</time>
      </trkpt>
      <trkpt lat="47.283981023356318" lon="16.381707983091474">
        <ele>314.490000000000009</ele>
        <time>2015-04-08T13:36:12Z</time>
      </trkpt>
      <trkpt lat="47.283981023356318" lon="16.381736984476447">
        <ele>314.009999999999991</ele>
        <time>2015-04-08T13:36:13Z</time>
      </trkpt>
      <trkpt lat="47.28405000641942" lon="16.382418014109135">
        <ele>313.050000000000011</ele>
        <time>2015-04-08T13:36:25Z</time>
      </trkpt>
      <trkpt lat="47.284190990030766" lon="16.383851990103722">
        <ele>312.089999999999975</ele>
        <time>2015-04-08T13:36:43Z</time>
      </trkpt>
      <trkpt lat="47.284320993348956" lon="16.385153029114008">
        <ele>312.089999999999975</ele>
        <time>2015-04-08T13:37:00Z</time>
      </trkpt>
      <trkpt lat="47.284496007487178" lon="16.386789008975029">
        <ele>308.720000000000027</ele>
        <time>2015-04-08T13:37:19Z</time>
      </trkpt>
      <trkpt lat="47.284636991098523" lon="16.388162970542908">
        <ele>305.360000000000014</ele>
        <time>2015-04-08T13:37:34Z</time>
      </trkpt>
      <trkpt lat="47.284663980826735" lon="16.388406967744231">
        <ele>305.360000000000014</ele>
        <time>2015-04-08T13:37:37Z</time>
      </trkpt>
      <trkpt lat="47.284675966948271" lon="16.388475028797984">
        <ele>304.879999999999995</ele>
        <time>2015-04-08T13:37:38Z</time>
      </trkpt>
      <trkpt lat="47.28471402078867" lon="16.388758001849055">
        <ele>304.879999999999995</ele>
        <time>2015-04-08T13:37:42Z</time>
      </trkpt>
      <trkpt lat="47.28471402078867" lon="16.388825979083776">
        <ele>304.389999999999986</ele>
        <time>2015-04-08T13:37:43Z</time>
      </trkpt>
      <trkpt lat="47.284675966948271" lon="16.389110963791609">
        <ele>303.430000000000007</ele>
        <time>2015-04-08T13:37:48Z</time>
      </trkpt>
      <trkpt lat="47.284648977220058" lon="16.389153962954879">
        <ele>302.949999999999989</ele>
        <time>2015-04-08T13:37:49Z</time>
      </trkpt>
      <trkpt lat="47.284611007198691" lon="16.389186987653375">
        <ele>302.949999999999989</ele>
        <time>2015-04-08T13:37:50Z</time>
      </trkpt>
      <trkpt lat="47.284560967236757" lon="16.389199979603291">
        <ele>302.949999999999989</ele>
        <time>2015-04-08T13:37:51Z</time>
      </trkpt>
      <trkpt lat="47.284515034407377" lon="16.389193022623658">
        <ele>302.470000000000027</ele>
        <time>2015-04-08T13:37:52Z</time>
      </trkpt>
      <trkpt lat="47.284470023587346" lon="16.389173995703459">
        <ele>302.949999999999989</ele>
        <time>2015-04-08T13:37:53Z</time>
      </trkpt>
      <trkpt lat="47.284419983625412" lon="16.38915597461164">
        <ele>302.949999999999989</ele>
        <time>2015-04-08T13:37:54Z</time>
      </trkpt>
      <trkpt lat="47.28437002748251" lon="16.389140971004963">
        <ele>302.470000000000027</ele>
        <time>2015-04-08T13:37:55Z</time>
      </trkpt>
      <trkpt lat="47.283478025346994" lon="16.389052961021662">
        <ele>304.389999999999986</ele>
        <time>2015-04-08T13:38:12Z</time>
      </trkpt>
      <trkpt lat="47.282513016834855" lon="16.389248007908463">
        <ele>303.910000000000025</ele>
        <time>2015-04-08T13:38:30Z</time>
      </trkpt>
      <trkpt lat="47.281527975574136" lon="16.389469038695097">
        <ele>301.990000000000009</ele>
        <time>2015-04-08T13:38:47Z</time>
      </trkpt>
      <trkpt lat="47.28046003729105" lon="16.389703983440995">
        <ele>300.069999999999993</ele>
        <time>2015-04-08T13:39:05Z</time>
      </trkpt>
      <trkpt lat="47.279227981343865" lon="16.389974970370531">
        <ele>297.670000000000016</ele>
        <time>2015-04-08T13:39:25Z</time>
      </trkpt>
      <trkpt lat="47.277976982295513" lon="16.390244029462337">
        <ele>295.259999999999991</ele>
        <time>2015-04-08T13:39:44Z</time>
      </trkpt>
      <trkpt lat="47.276844000443816" lon="16.390499006956816">
        <ele>293.819999999999993</ele>
        <time>2015-04-08T13:40:03Z</time>
      </trkpt>
      <trkpt lat="47.275795005261898" lon="16.390728000551462">
        <ele>293.339999999999975</ele>
        <time>2015-04-08T13:40:23Z</time>
      </trkpt>
      <trkpt lat="47.274650959298015" lon="16.390963029116392">
        <ele>290.45999999999998</ele>
        <time>2015-04-08T13:40:43Z</time>
      </trkpt>
      <trkpt lat="47.273811008781195" lon="16.391168972477317">
        <ele>292.860000000000014</ele>
        <time>2015-04-08T13:40:58Z</time>
      </trkpt>
      <trkpt lat="47.273173984140158" lon="16.391316996887326">
        <ele>295.259999999999991</ele>
        <time>2015-04-08T13:41:15Z</time>
      </trkpt>
      <trkpt lat="47.272464958950877" lon="16.391449011862278">
        <ele>295.740000000000009</ele>
        <time>2015-04-08T13:41:34Z</time>
      </trkpt>
      <trkpt lat="47.271636994555593" lon="16.39164699241519">
        <ele>295.740000000000009</ele>
        <time>2015-04-08T13:41:51Z</time>
      </trkpt>
      <trkpt lat="47.270671986043453" lon="16.391865005716681">
        <ele>295.740000000000009</ele>
        <time>2015-04-08T13:42:10Z</time>
      </trkpt>
      <trkpt lat="47.270038984715939" lon="16.392000038176775">
        <ele>295.259999999999991</ele>
        <time>2015-04-08T13:42:24Z</time>
      </trkpt>
      <trkpt lat="47.269187970086932" lon="16.392172034829855">
        <ele>295.259999999999991</ele>
        <time>2015-04-08T13:42:43Z</time>
      </trkpt>
      <trkpt lat="47.268677009269595" lon="16.392082013189793">
        <ele>296.220000000000027</ele>
        <time>2015-04-08T13:42:56Z</time>
      </trkpt>
      <trkpt lat="47.26819203235209" lon="16.391976987943053">
        <ele>294.779999999999973</ele>
        <time>2015-04-08T13:43:11Z</time>
      </trkpt>
      <trkpt lat="47.267601024359465" lon="16.391912028193474">
        <ele>295.259999999999991</ele>
        <time>2015-04-08T13:43:25Z</time>
      </trkpt>
      <trkpt lat="47.266833996400237" lon="16.392126018181443">
        <ele>295.259999999999991</ele>
        <time>2015-04-08T13:43:39Z</time>
      </trkpt>
      <trkpt lat="47.266093958169222" lon="16.392353000119328">
        <ele>295.259999999999991</ele>
        <time>2015-04-08T13:43:53Z</time>
      </trkpt>
      <trkpt lat="47.265304969623685" lon="16.392581993713975">
        <ele>295.259999999999991</ele>
        <time>2015-04-08T13:44:08Z</time>
      </trkpt>
      <trkpt lat="47.264439035207033" lon="16.392756002023816">
        <ele>294.300000000000011</ele>
        <time>2015-04-08T13:44:24Z</time>
      </trkpt>
      <trkpt lat="47.263823971152306" lon="16.392896985635161">
        <ele>294.300000000000011</ele>
        <time>2015-04-08T13:44:36Z</time>
      </trkpt>
      <trkpt lat="47.263019979000092" lon="16.3930659648031">
        <ele>293.819999999999993</ele>
        <time>2015-04-08T13:44:52Z</time>
      </trkpt>
      <trkpt lat="47.262225961312652" lon="16.39325900003314">
        <ele>293.819999999999993</ele>
        <time>2015-04-08T13:45:08Z</time>
      </trkpt>
      <trkpt lat="47.261486006900668" lon="16.393682034686208">
        <ele>292.379999999999995</ele>
        <time>2015-04-08T13:45:26Z</time>
      </trkpt>
      <trkpt lat="47.261303029954433" lon="16.39375101774931">
        <ele>291.899999999999977</ele>
        <time>2015-04-08T13:45:37Z</time>
      </trkpt>
      <trkpt lat="47.261303029954433" lon="16.39375101774931">
        <ele>292.860000000000014</ele>
        <time>2015-04-08T13:46:04Z</time>
      </trkpt>
      <trkpt lat="47.261303029954433" lon="16.39375101774931">
        <ele>292.860000000000014</ele>
        <time>2015-04-08T13:46:12Z</time>
      </trkpt>
      <trkpt lat="47.261288026347756" lon="16.393764009699225">
        <ele>293.339999999999975</ele>
        <time>2015-04-08T13:46:13Z</time>
      </trkpt>
      <trkpt lat="47.261272016912699" lon="16.393782030791044">
        <ele>293.339999999999975</ele>
        <time>2015-04-08T13:46:14Z</time>
      </trkpt>
      <trkpt lat="47.261261036619544" lon="16.393808014690876">
        <ele>293.339999999999975</ele>
        <time>2015-04-08T13:46:15Z</time>
      </trkpt>
      <trkpt lat="47.261261036619544" lon="16.393842967227101">
        <ele>292.860000000000014</ele>
        <time>2015-04-08T13:46:16Z</time>
      </trkpt>
      <trkpt lat="47.261264976114035" lon="16.393884960561991">
        <ele>292.860000000000014</ele>
        <time>2015-04-08T13:46:17Z</time>
      </trkpt>
      <trkpt lat="47.261268999427557" lon="16.393933994695544">
        <ele>292.860000000000014</ele>
        <time>2015-04-08T13:46:18Z</time>
      </trkpt>
      <trkpt lat="47.261268999427557" lon="16.393993003293872">
        <ele>292.860000000000014</ele>
        <time>2015-04-08T13:46:19Z</time>
      </trkpt>
      <trkpt lat="47.261310992762446" lon="16.394543023779988">
        <ele>290.45999999999998</ele>
        <time>2015-04-08T13:46:26Z</time>
      </trkpt>
      <trkpt lat="47.261294983327389" lon="16.394920041784644">
        <ele>289.009999999999991</ele>
        <time>2015-04-08T13:46:30Z</time>
      </trkpt>
      <trkpt lat="47.261131033301353" lon="16.396473040804267">
        <ele>287.569999999999993</ele>
        <time>2015-04-08T13:46:46Z</time>
      </trkpt>
      <trkpt lat="47.260966999456286" lon="16.397874997928739">
        <ele>285.649999999999977</ele>
        <time>2015-04-08T13:47:02Z</time>
      </trkpt>
      <trkpt lat="47.260651001706719" lon="16.399335963651538">
        <ele>286.610000000000014</ele>
        <time>2015-04-08T13:47:21Z</time>
      </trkpt>
      <trkpt lat="47.260272977873683" lon="16.400647982954979">
        <ele>286.610000000000014</ele>
        <time>2015-04-08T13:47:40Z</time>
      </trkpt>
      <trkpt lat="47.259750030934811" lon="16.401685997843742">
        <ele>285.649999999999977</ele>
        <time>2015-04-08T13:47:57Z</time>
      </trkpt>
      <trkpt lat="47.259090039879084" lon="16.403002040460706">
        <ele>285.649999999999977</ele>
        <time>2015-04-08T13:48:18Z</time>
      </trkpt>
      <trkpt lat="47.258834978565574" lon="16.403688015416265">
        <ele>285.170000000000016</ele>
        <time>2015-04-08T13:48:28Z</time>
      </trkpt>
      <trkpt lat="47.258442034944892" lon="16.40488101169467">
        <ele>284.689999999999998</ele>
        <time>2015-04-08T13:48:45Z</time>
      </trkpt>
      <trkpt lat="47.258143974468112" lon="16.406056992709637">
        <ele>283.25</ele>
        <time>2015-04-08T13:49:01Z</time>
      </trkpt>
      <trkpt lat="47.25781599059701" lon="16.4073730353266">
        <ele>280.839999999999975</ele>
        <time>2015-04-08T13:49:18Z</time>
      </trkpt>
      <trkpt lat="47.257640976458788" lon="16.408237041905522">
        <ele>277.95999999999998</ele>
        <time>2015-04-08T13:49:28Z</time>
      </trkpt>
      <trkpt lat="47.257541986182332" lon="16.408889992162585">
        <ele>274.110000000000014</ele>
        <time>2015-04-08T13:49:34Z</time>
      </trkpt>
      <trkpt lat="47.257480965927243" lon="16.409502038732171">
        <ele>270.269999999999982</ele>
        <time>2015-04-08T13:49:39Z</time>
      </trkpt>
      <trkpt lat="47.257438972592354" lon="16.410925034433603">
        <ele>268.829999999999984</ele>
        <time>2015-04-08T13:49:52Z</time>
      </trkpt>
      <trkpt lat="47.257510973140597" lon="16.412462024018168">
        <ele>268.829999999999984</ele>
        <time>2015-04-08T13:50:10Z</time>
      </trkpt>
      <trkpt lat="47.257609963417053" lon="16.413427032530308">
        <ele>269.310000000000002</ele>
        <time>2015-04-08T13:50:24Z</time>
      </trkpt>
      <trkpt lat="47.257770979776978" lon="16.414050981402397">
        <ele>269.310000000000002</ele>
        <time>2015-04-08T13:50:37Z</time>
      </trkpt>
      <trkpt lat="47.25798798725009" lon="16.414486002177">
        <ele>268.829999999999984</ele>
        <time>2015-04-08T13:50:48Z</time>
      </trkpt>
      <trkpt lat="47.258240031078458" lon="16.414919011294842">
        <ele>271.230000000000018</ele>
        <time>2015-04-08T13:51:01Z</time>
      </trkpt>
      <trkpt lat="47.258411021903157" lon="16.415202990174294">
        <ele>273.149999999999977</ele>
        <time>2015-04-08T13:51:12Z</time>
      </trkpt>
      <trkpt lat="47.258620988577604" lon="16.415571039542556">
        <ele>274.110000000000014</ele>
        <time>2015-04-08T13:51:27Z</time>
      </trkpt>
      <trkpt lat="47.258765995502472" lon="16.415832974016666">
        <ele>275.069999999999993</ele>
        <time>2015-04-08T13:51:39Z</time>
      </trkpt>
      <trkpt lat="47.258942015469074" lon="16.416128017008305">
        <ele>276.519999999999982</ele>
        <time>2015-04-08T13:51:51Z</time>
      </trkpt>
      <trkpt lat="47.259181989356875" lon="16.41650402918458">
        <ele>279.399999999999977</ele>
        <time>2015-04-08T13:52:05Z</time>
      </trkpt>
      <trkpt lat="47.259460017085075" lon="16.416938966140151">
        <ele>279.879999999999995</ele>
        <time>2015-04-08T13:52:23Z</time>
      </trkpt>
      <trkpt lat="47.259804010391235" lon="16.417440036311746">
        <ele>280.360000000000014</ele>
        <time>2015-04-08T13:52:42Z</time>
      </trkpt>
      <trkpt lat="47.260154960677028" lon="16.417958959937096">
        <ele>281.319999999999993</ele>
        <time>2015-04-08T13:52:59Z</time>
      </trkpt>
      <trkpt lat="47.260281024500728" lon="16.418127017095685">
        <ele>282.769999999999982</ele>
        <time>2015-04-08T13:53:05Z</time>
      </trkpt>
      <trkpt lat="47.260562991723418" lon="16.418501017615199">
        <ele>282.279999999999973</ele>
        <time>2015-04-08T13:53:19Z</time>
      </trkpt>
      <trkpt lat="47.260844958946109" lon="16.418971996754408">
        <ele>283.730000000000018</ele>
        <time>2015-04-08T13:53:35Z</time>
      </trkpt>
      <trkpt lat="47.261020978912711" lon="16.41921398229897">
        <ele>283.25</ele>
        <time>2015-04-08T13:53:42Z</time>
      </trkpt>
      <trkpt lat="47.261435966938734" lon="16.419867016375065">
        <ele>281.800000000000011</ele>
        <time>2015-04-08T13:53:57Z</time>
      </trkpt>
      <trkpt lat="47.261620033532381" lon="16.420144960284233">
        <ele>281.800000000000011</ele>
        <time>2015-04-08T13:54:09Z</time>
      </trkpt>
      <trkpt lat="47.261622967198491" lon="16.420148983597755">
        <ele>280.360000000000014</ele>
        <time>2015-04-08T13:54:18Z</time>
      </trkpt>
      <trkpt lat="47.261626990512013" lon="16.42015996389091">
        <ele>279.879999999999995</ele>
        <time>2015-04-08T13:54:19Z</time>
      </trkpt>
      <trkpt lat="47.261638976633549" lon="16.420176979154348">
        <ele>280.360000000000014</ele>
        <time>2015-04-08T13:54:20Z</time>
      </trkpt>
      <trkpt lat="47.261653980240226" lon="16.420202041044831">
        <ele>280.360000000000014</ele>
        <time>2015-04-08T13:54:21Z</time>
      </trkpt>
      <trkpt lat="47.261673007160425" lon="16.420229030773044">
        <ele>279.879999999999995</ele>
        <time>2015-04-08T13:54:22Z</time>
      </trkpt>
      <trkpt lat="47.261692034080625" lon="16.420262977480888">
        <ele>280.360000000000014</ele>
        <time>2015-04-08T13:54:23Z</time>
      </trkpt>
      <trkpt lat="47.261948017403483" lon="16.420768992975354">
        <ele>279.399999999999977</ele>
        <time>2015-04-08T13:54:35Z</time>
      </trkpt>
      <trkpt lat="47.262168964371085" lon="16.421524034813046">
        <ele>281.319999999999993</ele>
        <time>2015-04-08T13:54:50Z</time>
      </trkpt>
      <trkpt lat="47.262187991291285" lon="16.421640040352941">
        <ele>280.360000000000014</ele>
        <time>2015-04-08T13:54:52Z</time>
      </trkpt>
      <trkpt lat="47.26226401515305" lon="16.422640001401305">
        <ele>281.319999999999993</ele>
        <time>2015-04-08T13:55:11Z</time>
      </trkpt>
      <trkpt lat="47.262348001822829" lon="16.423347014933825">
        <ele>282.279999999999973</ele>
        <time>2015-04-08T13:55:27Z</time>
      </trkpt>
      <trkpt lat="47.262416984885931" lon="16.423811037093401">
        <ele>282.769999999999982</ele>
        <time>2015-04-08T13:55:40Z</time>
      </trkpt>
      <trkpt lat="47.262504994869232" lon="16.424201969057322">
        <ele>284.20999999999998</ele>
        <time>2015-04-08T13:55:51Z</time>
      </trkpt>
      <trkpt lat="47.262638015672565" lon="16.42471301369369">
        <ele>284.20999999999998</ele>
        <time>2015-04-08T13:56:06Z</time>
      </trkpt>
      <trkpt lat="47.26277899928391" lon="16.425303015857935">
        <ele>285.170000000000016</ele>
        <time>2015-04-08T13:56:21Z</time>
      </trkpt>
      <trkpt lat="47.262862985953689" lon="16.425843983888626">
        <ele>286.129999999999995</ele>
        <time>2015-04-08T13:56:35Z</time>
      </trkpt>
      <trkpt lat="47.262882012873888" lon="16.42692600376904">
        <ele>286.610000000000014</ele>
        <time>2015-04-08T13:56:55Z</time>
      </trkpt>
      <trkpt lat="47.262877989560366" lon="16.427086014300585">
        <ele>285.170000000000016</ele>
        <time>2015-04-08T13:56:58Z</time>
      </trkpt>
      <trkpt lat="47.262874972075224" lon="16.427982039749622">
        <ele>285.649999999999977</ele>
        <time>2015-04-08T13:57:13Z</time>
      </trkpt>
      <trkpt lat="47.262843959033489" lon="16.428922992199659">
        <ele>284.689999999999998</ele>
        <time>2015-04-08T13:57:29Z</time>
      </trkpt>
      <trkpt lat="47.262816969305277" lon="16.429920019581914">
        <ele>284.689999999999998</ele>
        <time>2015-04-08T13:57:46Z</time>
      </trkpt>
      <trkpt lat="47.262790985405445" lon="16.430523013696074">
        <ele>281.319999999999993</ele>
        <time>2015-04-08T13:57:55Z</time>
      </trkpt>
      <trkpt lat="47.262790985405445" lon="16.430597025901079">
        <ele>281.319999999999993</ele>
        <time>2015-04-08T13:57:56Z</time>
      </trkpt>
      <trkpt lat="47.262832978740335" lon="16.431688014417887">
        <ele>278.920000000000016</ele>
        <time>2015-04-08T13:58:09Z</time>
      </trkpt>
      <trkpt lat="47.262852005660534" lon="16.431774012744427">
        <ele>279.399999999999977</ele>
        <time>2015-04-08T13:58:10Z</time>
      </trkpt>
      <trkpt lat="47.263157023116946" lon="16.432776991277933">
        <ele>277.480000000000018</ele>
        <time>2015-04-08T13:58:24Z</time>
      </trkpt>
      <trkpt lat="47.263263976201415" lon="16.433591963723302">
        <ele>277.480000000000018</ele>
        <time>2015-04-08T13:58:38Z</time>
      </trkpt>
      <trkpt lat="47.263145036995411" lon="16.43405900336802">
        <ele>277.95999999999998</ele>
        <time>2015-04-08T13:58:50Z</time>
      </trkpt>
      <trkpt lat="47.262924006208777" lon="16.434553032740951">
        <ele>279.399999999999977</ele>
        <time>2015-04-08T13:59:03Z</time>
      </trkpt>
      <trkpt lat="47.262829039245844" lon="16.435117973014712">
        <ele>282.279999999999973</ele>
        <time>2015-04-08T13:59:17Z</time>
      </trkpt>
      <trkpt lat="47.26288603618741" lon="16.435733959078789">
        <ele>284.689999999999998</ele>
        <time>2015-04-08T13:59:30Z</time>
      </trkpt>
      <trkpt lat="47.262958958745003" lon="16.436436027288437">
        <ele>286.610000000000014</ele>
        <time>2015-04-08T13:59:48Z</time>
      </trkpt>
      <trkpt lat="47.263049986213446" lon="16.436988981440663">
        <ele>287.569999999999993</ele>
        <time>2015-04-08T14:00:02Z</time>
      </trkpt>
      <trkpt lat="47.263392973691225" lon="16.437013959512115">
        <ele>287.569999999999993</ele>
        <time>2015-04-08T14:00:13Z</time>
      </trkpt>
      <trkpt lat="47.263465980067849" lon="16.436996022239327">
        <ele>288.529999999999973</ele>
        <time>2015-04-08T14:00:15Z</time>
      </trkpt>
      <trkpt lat="47.263938970863819" lon="16.436871970072389">
        <ele>286.610000000000014</ele>
        <time>2015-04-08T14:00:29Z</time>
      </trkpt>
      <trkpt lat="47.264644978567958" lon="16.436801981180906">
        <ele>287.569999999999993</ele>
        <time>2015-04-08T14:00:48Z</time>
      </trkpt>
      <trkpt lat="47.265262976288795" lon="16.436774991452694">
        <ele>288.050000000000011</ele>
        <time>2015-04-08T14:01:07Z</time>
      </trkpt>
      <trkpt lat="47.26540002040565" lon="16.436792006716132">
        <ele>288.050000000000011</ele>
        <time>2015-04-08T14:01:18Z</time>
      </trkpt>
      <trkpt lat="47.265446037054062" lon="16.436772979795933">
        <ele>288.529999999999973</ele>
        <time>2015-04-08T14:01:47Z</time>
      </trkpt>
      <trkpt lat="47.265469003468752" lon="16.436772979795933">
        <ele>288.529999999999973</ele>
        <time>2015-04-08T14:01:48Z</time>
      </trkpt>
      <trkpt lat="47.265624990686774" lon="16.436772979795933">
        <ele>289.009999999999991</ele>
        <time>2015-04-08T14:02:04Z</time>
      </trkpt>
      <trkpt lat="47.265639994293451" lon="16.4367660228163">
        <ele>288.529999999999973</ele>
        <time>2015-04-08T14:02:26Z</time>
      </trkpt>
      <trkpt lat="47.265681987628341" lon="16.436749007552862">
        <ele>288.529999999999973</ele>
        <time>2015-04-08T14:02:30Z</time>
      </trkpt>
      <trkpt lat="47.26570101454854" lon="16.436750013381243">
        <ele>289.009999999999991</ele>
        <time>2015-04-08T14:02:42Z</time>
      </trkpt>
      <trkpt lat="47.265624990686774" lon="16.436665020883083">
        <ele>287.569999999999993</ele>
        <time>2015-04-08T14:13:27Z</time>
      </trkpt>
      <trkpt lat="47.265518037602305" lon="16.436713971197605">
        <ele>287.089999999999975</ele>
        <time>2015-04-08T14:13:32Z</time>
      </trkpt>
      <trkpt lat="47.265053009614348" lon="16.436707014217973">
        <ele>287.089999999999975</ele>
        <time>2015-04-08T14:13:45Z</time>
      </trkpt>
      <trkpt lat="47.264445992186666" lon="16.436761999502778">
        <ele>286.610000000000014</ele>
        <time>2015-04-08T14:14:00Z</time>
      </trkpt>
      <trkpt lat="47.264103004708886" lon="16.436792006716132">
        <ele>286.129999999999995</ele>
        <time>2015-04-08T14:14:09Z</time>
      </trkpt>
      <trkpt lat="47.263827994465828" lon="16.436828970909119">
        <ele>286.610000000000014</ele>
        <time>2015-04-08T14:14:15Z</time>
      </trkpt>
      <trkpt lat="47.263786001130939" lon="16.436841962859035">
        <ele>285.649999999999977</ele>
        <time>2015-04-08T14:14:16Z</time>
      </trkpt>
      <trkpt lat="47.26338199339807" lon="16.43695998005569">
        <ele>285.649999999999977</ele>
        <time>2015-04-08T14:14:25Z</time>
      </trkpt>
      <trkpt lat="47.262997012585402" lon="16.437293998897076">
        <ele>286.610000000000014</ele>
        <time>2015-04-08T14:14:38Z</time>
      </trkpt>
      <trkpt lat="47.263034982606769" lon="16.43768903799355">
        <ele>286.610000000000014</ele>
        <time>2015-04-08T14:14:44Z</time>
      </trkpt>
      <trkpt lat="47.263137996196747" lon="16.439128965139389">
        <ele>288.529999999999973</ele>
        <time>2015-04-08T14:15:05Z</time>
      </trkpt>
      <trkpt lat="47.263205973431468" lon="16.440229006111622">
        <ele>289.009999999999991</ele>
        <time>2015-04-08T14:15:23Z</time>
      </trkpt>
      <trkpt lat="47.263267999514937" lon="16.441173981875181">
        <ele>290.45999999999998</ele>
        <time>2015-04-08T14:15:41Z</time>
      </trkpt>
      <trkpt lat="47.263271017000079" lon="16.442061960697174">
        <ele>290.939999999999998</ele>
        <time>2015-04-08T14:15:58Z</time>
      </trkpt>
      <trkpt lat="47.26320999674499" lon="16.44291297532618">
        <ele>292.379999999999995</ele>
        <time>2015-04-08T14:16:15Z</time>
      </trkpt>
      <trkpt lat="47.263106983155012" lon="16.443871026858687">
        <ele>294.300000000000011</ele>
        <time>2015-04-08T14:16:34Z</time>
      </trkpt>
      <trkpt lat="47.262985026463866" lon="16.44469597376883">
        <ele>296.220000000000027</ele>
        <time>2015-04-08T14:16:52Z</time>
      </trkpt>
      <trkpt lat="47.262816969305277" lon="16.445799032226205">
        <ele>298.149999999999977</ele>
        <time>2015-04-08T14:17:14Z</time>
      </trkpt>
      <trkpt lat="47.262656958773732" lon="16.446824977174401">
        <ele>300.069999999999993</ele>
        <time>2015-04-08T14:17:34Z</time>
      </trkpt>
      <trkpt lat="47.262527039274573" lon="16.447661994025111">
        <ele>302.470000000000027</ele>
        <time>2015-04-08T14:17:51Z</time>
      </trkpt>
      <trkpt lat="47.262363005429506" lon="16.448561036959291">
        <ele>303.430000000000007</ele>
        <time>2015-04-08T14:18:10Z</time>
      </trkpt>
      <trkpt lat="47.262145997956395" lon="16.449495032429695">
        <ele>306.319999999999993</ele>
        <time>2015-04-08T14:18:29Z</time>
      </trkpt>
      <trkpt lat="47.262234007939696" lon="16.450063996016979">
        <ele>306.800000000000011</ele>
        <time>2015-04-08T14:18:42Z</time>
      </trkpt>
      <trkpt lat="47.262229984626174" lon="16.450293995440006">
        <ele>306.319999999999993</ele>
        <time>2015-04-08T14:18:52Z</time>
      </trkpt>
      <trkpt lat="47.261924967169762" lon="16.450723987072706">
        <ele>307.279999999999973</ele>
        <time>2015-04-08T14:19:03Z</time>
      </trkpt>
      <trkpt lat="47.261303029954433" lon="16.45176300778985">
        <ele>307.759999999999991</ele>
        <time>2015-04-08T14:19:23Z</time>
      </trkpt>
      <trkpt lat="47.260796008631587" lon="16.452890038490295">
        <ele>306.800000000000011</ele>
        <time>2015-04-08T14:19:40Z</time>
      </trkpt>
      <trkpt lat="47.260353025048971" lon="16.454199040308595">
        <ele>304.879999999999995</ele>
        <time>2015-04-08T14:19:57Z</time>
      </trkpt>
      <trkpt lat="47.260006014257669" lon="16.45543503575027">
        <ele>301.509999999999991</ele>
        <time>2015-04-08T14:20:11Z</time>
      </trkpt>
      <trkpt lat="47.259705020114779" lon="16.456529963761568">
        <ele>298.629999999999995</ele>
        <time>2015-04-08T14:20:22Z</time>
      </trkpt>
      <trkpt lat="47.259590020403266" lon="16.456945035606623">
        <ele>296.699999999999989</ele>
        <time>2015-04-08T14:20:26Z</time>
      </trkpt>
      <trkpt lat="47.259445013478398" lon="16.45747896283865">
        <ele>294.300000000000011</ele>
        <time>2015-04-08T14:20:31Z</time>
      </trkpt>
      <trkpt lat="47.259124992415309" lon="16.458644969388843">
        <ele>290.939999999999998</ele>
        <time>2015-04-08T14:20:42Z</time>
      </trkpt>
      <trkpt lat="47.258677985519171" lon="16.460288995876908">
        <ele>288.050000000000011</ele>
        <time>2015-04-08T14:20:58Z</time>
      </trkpt>
      <trkpt lat="47.258285963907838" lon="16.461663963273168">
        <ele>286.610000000000014</ele>
        <time>2015-04-08T14:21:13Z</time>
      </trkpt>
      <trkpt lat="47.257839040830731" lon="16.463154014199972">
        <ele>283.25</ele>
        <time>2015-04-08T14:21:30Z</time>
      </trkpt>
      <trkpt lat="47.25736596621573" lon="16.46460902877152">
        <ele>282.769999999999982</ele>
        <time>2015-04-08T14:21:48Z</time>
      </trkpt>
      <trkpt lat="47.256859028711915" lon="16.465847035869956">
        <ele>281.800000000000011</ele>
        <time>2015-04-08T14:22:05Z</time>
      </trkpt>
      <trkpt lat="47.256413027644157" lon="16.466817995533347">
        <ele>282.279999999999973</ele>
        <time>2015-04-08T14:22:21Z</time>
      </trkpt>
      <trkpt lat="47.256103986874223" lon="16.467647971585393">
        <ele>279.399999999999977</ele>
        <time>2015-04-08T14:22:33Z</time>
      </trkpt>
      <trkpt lat="47.25579502992332" lon="16.468839962035418">
        <ele>279.399999999999977</ele>
        <time>2015-04-08T14:22:49Z</time>
      </trkpt>
      <trkpt lat="47.255489006638527" lon="16.46983296610415">
        <ele>278.920000000000016</ele>
        <time>2015-04-08T14:23:03Z</time>
      </trkpt>
      <trkpt lat="47.255126992240548" lon="16.470797974616289">
        <ele>277.95999999999998</ele>
        <time>2015-04-08T14:23:18Z</time>
      </trkpt>
      <trkpt lat="47.254860028624535" lon="16.471299966797233">
        <ele>277</ele>
        <time>2015-04-08T14:23:26Z</time>
      </trkpt>
      <trkpt lat="47.254814011976123" lon="16.471354030072689">
        <ele>276.519999999999982</ele>
        <time>2015-04-08T14:23:27Z</time>
      </trkpt>
      <trkpt lat="47.254245970398188" lon="16.471857028082013">
        <ele>274.589999999999975</ele>
        <time>2015-04-08T14:23:38Z</time>
      </trkpt>
      <trkpt lat="47.254188973456621" lon="16.471890974789858">
        <ele>274.110000000000014</ele>
        <time>2015-04-08T14:23:39Z</time>
      </trkpt>
      <trkpt lat="47.254130970686674" lon="16.47191402502358">
        <ele>274.110000000000014</ele>
        <time>2015-04-08T14:23:40Z</time>
      </trkpt>
      <trkpt lat="47.254070034250617" lon="16.471928022801876">
        <ele>274.110000000000014</ele>
        <time>2015-04-08T14:23:41Z</time>
      </trkpt>
      <trkpt lat="47.253703996539116" lon="16.471976973116398">
        <ele>273.629999999999995</ele>
        <time>2015-04-08T14:23:47Z</time>
      </trkpt>
      <trkpt lat="47.253590002655983" lon="16.47202298976481">
        <ele>273.629999999999995</ele>
        <time>2015-04-08T14:23:49Z</time>
      </trkpt>
      <trkpt lat="47.253226982429624" lon="16.472359020262957">
        <ele>273.149999999999977</ele>
        <time>2015-04-08T14:23:56Z</time>
      </trkpt>
      <trkpt lat="47.253070995211601" lon="16.472733020782471">
        <ele>274.110000000000014</ele>
        <time>2015-04-08T14:24:01Z</time>
      </trkpt>
      <trkpt lat="47.252914002165198" lon="16.472938964143395">
        <ele>274.110000000000014</ele>
        <time>2015-04-08T14:24:05Z</time>
      </trkpt>
      <trkpt lat="47.252624994143844" lon="16.473167035728693">
        <ele>273.629999999999995</ele>
        <time>2015-04-08T14:24:11Z</time>
      </trkpt>
      <trkpt lat="47.252430031076074" lon="16.473234007135034">
        <ele>273.149999999999977</ele>
        <time>2015-04-08T14:24:15Z</time>
      </trkpt>
      <trkpt lat="47.25173600949347" lon="16.47378696128726">
        <ele>271.70999999999998</ele>
        <time>2015-04-08T14:24:28Z</time>
      </trkpt>
      <trkpt lat="47.250865967944264" lon="16.474731015041471">
        <ele>269.79000000000002</ele>
        <time>2015-04-08T14:24:45Z</time>
      </trkpt>
      <trkpt lat="47.249919986352324" lon="16.476216958835721">
        <ele>266.899999999999977</ele>
        <time>2015-04-08T14:25:06Z</time>
      </trkpt>
      <trkpt lat="47.249240968376398" lon="16.477324962615967">
        <ele>267.379999999999995</ele>
        <time>2015-04-08T14:25:23Z</time>
      </trkpt>
      <trkpt lat="47.248607967048883" lon="16.478578979149461">
        <ele>265.939999999999998</ele>
        <time>2015-04-08T14:25:43Z</time>
      </trkpt>
      <trkpt lat="47.248058030381799" lon="16.479814974591136">
        <ele>264.5</ele>
        <time>2015-04-08T14:26:02Z</time>
      </trkpt>
      <trkpt lat="47.247504992410541" lon="16.481051975861192">
        <ele>263.54000000000002</ele>
        <time>2015-04-08T14:26:22Z</time>
      </trkpt>
      <trkpt lat="47.246979027986526" lon="16.482234997674823">
        <ele>263.060000000000002</ele>
        <time>2015-04-08T14:26:41Z</time>
      </trkpt>
      <trkpt lat="47.246482986956835" lon="16.483527990058064">
        <ele>262.100000000000023</ele>
        <time>2015-04-08T14:27:00Z</time>
      </trkpt>
      <trkpt lat="47.24612801335752" lon="16.484653009101748">
        <ele>262.100000000000023</ele>
        <time>2015-04-08T14:27:17Z</time>
      </trkpt>
      <trkpt lat="47.246040003374219" lon="16.484994990751147">
        <ele>261.620000000000005</ele>
        <time>2015-04-08T14:27:23Z</time>
      </trkpt>
      <trkpt lat="47.245963979512453" lon="16.485247034579515">
        <ele>262.100000000000023</ele>
        <time>2015-04-08T14:27:28Z</time>
      </trkpt>
      <trkpt lat="47.245785025879741" lon="16.485234964638948">
        <ele>261.620000000000005</ele>
        <time>2015-04-08T14:27:35Z</time>
      </trkpt>
      <trkpt lat="47.245631972327828" lon="16.485722959041595">
        <ele>259.689999999999998</ele>
        <time>2015-04-08T14:27:47Z</time>
      </trkpt>
      <trkpt lat="47.245448995381594" lon="16.486929031088948">
        <ele>258.730000000000018</ele>
        <time>2015-04-08T14:28:02Z</time>
      </trkpt>
      <trkpt lat="47.245391998440027" lon="16.487629003822803">
        <ele>257.769999999999982</ele>
        <time>2015-04-08T14:28:10Z</time>
      </trkpt>
      <trkpt lat="47.24520499818027" lon="16.489042025059462">
        <ele>255.370000000000005</ele>
        <time>2015-04-08T14:28:27Z</time>
      </trkpt>
      <trkpt lat="47.244971981272101" lon="16.490502990782261">
        <ele>253.930000000000007</ele>
        <time>2015-04-08T14:28:44Z</time>
      </trkpt>
      <trkpt lat="47.244720021262765" lon="16.491734040901065">
        <ele>253.439999999999998</ele>
        <time>2015-04-08T14:28:58Z</time>
      </trkpt>
      <trkpt lat="47.244536960497499" lon="16.493109008297324">
        <ele>252.960000000000008</ele>
        <time>2015-04-08T14:29:15Z</time>
      </trkpt>
      <trkpt lat="47.244736030697823" lon="16.494522029533982">
        <ele>255.370000000000005</ele>
        <time>2015-04-08T14:29:34Z</time>
      </trkpt>
      <trkpt lat="47.244949014857411" lon="16.495622992515564">
        <ele>255.849999999999994</ele>
        <time>2015-04-08T14:29:52Z</time>
      </trkpt>
      <trkpt lat="47.245083041489124" lon="16.496710041537881">
        <ele>252.960000000000008</ele>
        <time>2015-04-08T14:30:08Z</time>
      </trkpt>
      <trkpt lat="47.245197035372257" lon="16.497401967644691">
        <ele>251.039999999999992</ele>
        <time>2015-04-08T14:30:17Z</time>
      </trkpt>
      <trkpt lat="47.245372971519828" lon="16.498285001143813">
        <ele>248.639999999999986</ele>
        <time>2015-04-08T14:30:31Z</time>
      </trkpt>
      <trkpt lat="47.245448995381594" lon="16.498624971136451">
        <ele>248.159999999999997</ele>
        <time>2015-04-08T14:30:45Z</time>
      </trkpt>
      <trkpt lat="47.245448995381594" lon="16.498624971136451">
        <ele>247.680000000000007</ele>
        <time>2015-04-08T14:30:57Z</time>
      </trkpt>
      <trkpt lat="47.245384035632014" lon="16.498942980542779">
        <ele>248.159999999999997</ele>
        <time>2015-04-08T14:31:07Z</time>
      </trkpt>
      <trkpt lat="47.245411025360227" lon="16.500110998749733">
        <ele>249.120000000000005</ele>
        <time>2015-04-08T14:31:23Z</time>
      </trkpt>
      <trkpt lat="47.245178008452058" lon="16.501177009195089">
        <ele>249.120000000000005</ele>
        <time>2015-04-08T14:31:39Z</time>
      </trkpt>
      <trkpt lat="47.245049010962248" lon="16.501548998057842">
        <ele>249.599999999999994</ele>
        <time>2015-04-08T14:31:45Z</time>
      </trkpt>
      <trkpt lat="47.244648020714521" lon="16.502263974398375">
        <ele>250.080000000000013</ele>
        <time>2015-04-08T14:32:00Z</time>
      </trkpt>
      <trkpt lat="47.243984006345272" lon="16.502859005704522">
        <ele>249.599999999999994</ele>
        <time>2015-04-08T14:32:16Z</time>
      </trkpt>
      <trkpt lat="47.24335896782577" lon="16.503224959596992">
        <ele>249.599999999999994</ele>
        <time>2015-04-08T14:32:30Z</time>
      </trkpt>
      <trkpt lat="47.242812970653176" lon="16.503723012283444">
        <ele>249.120000000000005</ele>
        <time>2015-04-08T14:32:43Z</time>
      </trkpt>
      <trkpt lat="47.242493033409119" lon="16.504402030259371">
        <ele>250.080000000000013</ele>
        <time>2015-04-08T14:32:58Z</time>
      </trkpt>
      <trkpt lat="47.242493033409119" lon="16.5044039580971">
        <ele>251.039999999999992</ele>
        <time>2015-04-08T14:33:27Z</time>
      </trkpt>
      <trkpt lat="47.242457997053862" lon="16.504611996933818">
        <ele>250.560000000000002</ele>
        <time>2015-04-08T14:33:56Z</time>
      </trkpt>
      <trkpt lat="47.242309972643852" lon="16.505528977140784">
        <ele>250.560000000000002</ele>
        <time>2015-04-08T14:34:11Z</time>
      </trkpt>
      <trkpt lat="47.242016019299626" lon="16.506621977314353">
        <ele>251.039999999999992</ele>
        <time>2015-04-08T14:34:27Z</time>
      </trkpt>
      <trkpt lat="47.241679988801479" lon="16.50783902965486">
        <ele>252</ele>
        <time>2015-04-08T14:34:46Z</time>
      </trkpt>
      <trkpt lat="47.241389974951744" lon="16.509135961532593">
        <ele>253.439999999999998</ele>
        <time>2015-04-08T14:35:08Z</time>
      </trkpt>
      <trkpt lat="47.241268018260598" lon="16.510313032194972">
        <ele>254.409999999999997</ele>
        <time>2015-04-08T14:35:29Z</time>
      </trkpt>
      <trkpt lat="47.241024021059275" lon="16.511441990733147">
        <ele>253.439999999999998</ele>
        <time>2015-04-08T14:35:47Z</time>
      </trkpt>
      <trkpt lat="47.240437036380172" lon="16.512827016413212">
        <ele>252.47999999999999</ele>
        <time>2015-04-08T14:36:08Z</time>
      </trkpt>
      <trkpt lat="47.239819038659334" lon="16.514324024319649">
        <ele>250.080000000000013</ele>
        <time>2015-04-08T14:36:28Z</time>
      </trkpt>
      <trkpt lat="47.239613011479378" lon="16.515575023368001">
        <ele>248.639999999999986</ele>
        <time>2015-04-08T14:36:44Z</time>
      </trkpt>
      <trkpt lat="47.239604964852333" lon="16.515622967854142">
        <ele>248.639999999999986</ele>
        <time>2015-04-08T14:36:45Z</time>
      </trkpt>
      <trkpt lat="47.239551991224289" lon="16.515727993100882">
        <ele>247.680000000000007</ele>
        <time>2015-04-08T14:36:54Z</time>
      </trkpt>
      <trkpt lat="47.239551991224289" lon="16.51572598144412">
        <ele>247.199999999999989</ele>
        <time>2015-04-08T14:37:34Z</time>
      </trkpt>
      <trkpt lat="47.239551991224289" lon="16.515718018636107">
        <ele>247.680000000000007</ele>
        <time>2015-04-08T14:37:40Z</time>
      </trkpt>
      <trkpt lat="47.239559032022953" lon="16.515727993100882">
        <ele>249.120000000000005</ele>
        <time>2015-04-08T14:37:43Z</time>
      </trkpt>
      <trkpt lat="47.2395099978894" lon="16.516087995842099">
        <ele>248.639999999999986</ele>
        <time>2015-04-08T14:37:55Z</time>
      </trkpt>
      <trkpt lat="47.239291984587908" lon="16.516766007989645">
        <ele>249.120000000000005</ele>
        <time>2015-04-08T14:38:09Z</time>
      </trkpt>
      <trkpt lat="47.238875990733504" lon="16.517860013991594">
        <ele>250.080000000000013</ele>
        <time>2015-04-08T14:38:26Z</time>
      </trkpt>
      <trkpt lat="47.238456979393959" lon="16.518995007500052">
        <ele>251.039999999999992</ele>
        <time>2015-04-08T14:38:44Z</time>
      </trkpt>
      <trkpt lat="47.238353965803981" lon="16.519952975213528">
        <ele>251.039999999999992</ele>
        <time>2015-04-08T14:38:59Z</time>
      </trkpt>
      <trkpt lat="47.23835002630949" lon="16.520077027380466">
        <ele>251.52000000000001</ele>
        <time>2015-04-08T14:39:01Z</time>
      </trkpt>
      <trkpt lat="47.238311972469091" lon="16.520654959604144">
        <ele>252</ele>
        <time>2015-04-08T14:39:15Z</time>
      </trkpt>
      <trkpt lat="47.238326976075768" lon="16.520860986784101">
        <ele>252</ele>
        <time>2015-04-08T14:39:36Z</time>
      </trkpt>
      <trkpt lat="47.238353965803981" lon="16.521669002249837">
        <ele>251.039999999999992</ele>
        <time>2015-04-08T14:39:49Z</time>
      </trkpt>
      <trkpt lat="47.238482963293791" lon="16.522882031276822">
        <ele>250.560000000000002</ele>
        <time>2015-04-08T14:40:05Z</time>
      </trkpt>
      <trkpt lat="47.238636016845703" lon="16.524451961740851">
        <ele>250.560000000000002</ele>
        <time>2015-04-08T14:40:26Z</time>
      </trkpt>
      <trkpt lat="47.238761996850371" lon="16.525681000202894">
        <ele>249.599999999999994</ele>
        <time>2015-04-08T14:40:43Z</time>
      </trkpt>
      <trkpt lat="47.238907003775239" lon="16.527197035029531">
        <ele>249.120000000000005</ele>
        <time>2015-04-08T14:41:04Z</time>
      </trkpt>
      <trkpt lat="47.239001970738173" lon="16.528521040454507">
        <ele>250.080000000000013</ele>
        <time>2015-04-08T14:41:23Z</time>
      </trkpt>
      <trkpt lat="47.239058967679739" lon="16.529244985431433">
        <ele>250.080000000000013</ele>
        <time>2015-04-08T14:41:34Z</time>
      </trkpt>
      <trkpt lat="47.239056034013629" lon="16.529502980411053">
        <ele>250.080000000000013</ele>
        <time>2015-04-08T14:41:38Z</time>
      </trkpt>
      <trkpt lat="47.239192994311452" lon="16.530630011111498">
        <ele>249.120000000000005</ele>
        <time>2015-04-08T14:41:56Z</time>
      </trkpt>
      <trkpt lat="47.23931897431612" lon="16.531334007158875">
        <ele>246.719999999999999</ele>
        <time>2015-04-08T14:42:10Z</time>
      </trkpt>
      <trkpt lat="47.239513015374541" lon="16.531984023749828">
        <ele>246.22999999999999</ele>
        <time>2015-04-08T14:42:28Z</time>
      </trkpt>
      <trkpt lat="47.239586021751165" lon="16.532059041783214">
        <ele>198.650000000000006</ele>
        <time>2015-04-09T06:06:52Z</time>
      </trkpt>
      <trkpt lat="47.239608988165855" lon="16.532494984567165">
        <ele>244.789999999999992</ele>
        <time>2015-04-09T06:10:47Z</time>
      </trkpt>
      <trkpt lat="47.239734968170524" lon="16.533606005832553">
        <ele>242.870000000000005</ele>
        <time>2015-04-09T06:11:01Z</time>
      </trkpt>
      <trkpt lat="47.239830018952489" lon="16.534850969910622">
        <ele>239.509999999999991</ele>
        <time>2015-04-09T06:11:15Z</time>
      </trkpt>
      <trkpt lat="47.240050965920091" lon="16.536145973950624">
        <ele>237.099999999999994</ele>
        <time>2015-04-09T06:11:30Z</time>
      </trkpt>
      <trkpt lat="47.240352965891361" lon="16.53746603988111">
        <ele>234.699999999999989</ele>
        <time>2015-04-09T06:11:45Z</time>
      </trkpt>
      <trkpt lat="47.240780023857951" lon="16.538846958428621">
        <ele>233.259999999999991</ele>
        <time>2015-04-09T06:12:03Z</time>
      </trkpt>
      <trkpt lat="47.241138014942408" lon="16.540011959150434">
        <ele>232.300000000000011</ele>
        <time>2015-04-09T06:12:18Z</time>
      </trkpt>
      <trkpt lat="47.241416964679956" lon="16.540956012904644">
        <ele>232.300000000000011</ele>
        <time>2015-04-09T06:12:32Z</time>
      </trkpt>
      <trkpt lat="47.241580998525023" lon="16.541524976491928">
        <ele>231.330000000000013</ele>
        <time>2015-04-09T06:12:42Z</time>
      </trkpt>
      <trkpt lat="47.24163799546659" lon="16.541693033650517">
        <ele>232.300000000000011</ele>
        <time>2015-04-09T06:12:45Z</time>
      </trkpt>
      <trkpt lat="47.241871012374759" lon="16.542080026119947">
        <ele>231.810000000000002</ele>
        <time>2015-04-09T06:12:55Z</time>
      </trkpt>
      <trkpt lat="47.241890039294958" lon="16.542135011404753">
        <ele>232.300000000000011</ele>
        <time>2015-04-09T06:12:56Z</time>
      </trkpt>
      <trkpt lat="47.242115009576082" lon="16.542874965816736">
        <ele>232.300000000000011</ele>
        <time>2015-04-09T06:13:09Z</time>
      </trkpt>
      <trkpt lat="47.242312990128994" lon="16.543570999056101">
        <ele>233.740000000000009</ele>
        <time>2015-04-09T06:13:22Z</time>
      </trkpt>
      <trkpt lat="47.242495967075229" lon="16.544255968183279">
        <ele>235.180000000000007</ele>
        <time>2015-04-09T06:13:35Z</time>
      </trkpt>
      <trkpt lat="47.242671987041831" lon="16.544973039999604">
        <ele>236.620000000000005</ele>
        <time>2015-04-09T06:13:49Z</time>
      </trkpt>
      <trkpt lat="47.242831997573376" lon="16.545546026900411">
        <ele>237.580000000000013</ele>
        <time>2015-04-09T06:14:01Z</time>
      </trkpt>
      <trkpt lat="47.242935011163354" lon="16.545953974127769">
        <ele>239.02000000000001</ele>
        <time>2015-04-09T06:14:09Z</time>
      </trkpt>
      <trkpt lat="47.243117988109589" lon="16.546740029007196">
        <ele>239.02000000000001</ele>
        <time>2015-04-09T06:14:24Z</time>
      </trkpt>
      <trkpt lat="47.243262995034456" lon="16.547778965905309">
        <ele>238.539999999999992</ele>
        <time>2015-04-09T06:14:41Z</time>
      </trkpt>
      <trkpt lat="47.243168028071523" lon="16.548352958634496">
        <ele>238.060000000000002</ele>
        <time>2015-04-09T06:14:52Z</time>
      </trkpt>
      <trkpt lat="47.243069037795067" lon="16.548594022169709">
        <ele>237.580000000000013</ele>
        <time>2015-04-09T06:14:56Z</time>
      </trkpt>
      <trkpt lat="47.24301497451961" lon="16.550005031749606">
        <ele>236.139999999999986</ele>
        <time>2015-04-09T06:15:12Z</time>
      </trkpt>
      <trkpt lat="47.24318697117269" lon="16.551446970552206">
        <ele>232.780000000000001</ele>
        <time>2015-04-09T06:15:28Z</time>
      </trkpt>
      <trkpt lat="47.243351005017757" lon="16.552822021767497">
        <ele>231.810000000000002</ele>
        <time>2015-04-09T06:15:43Z</time>
      </trkpt>
      <trkpt lat="47.243523001670837" lon="16.554216016083956">
        <ele>228.930000000000007</ele>
        <time>2015-04-09T06:15:58Z</time>
      </trkpt>
      <trkpt lat="47.243705978617072" lon="16.555712018162012">
        <ele>227.969999999999999</ele>
        <time>2015-04-09T06:16:14Z</time>
      </trkpt>
      <trkpt lat="47.24383195862174" lon="16.556198000907898">
        <ele>227.969999999999999</ele>
        <time>2015-04-09T06:16:20Z</time>
      </trkpt>
      <trkpt lat="47.2444730065763" lon="16.557202991098166">
        <ele>227.969999999999999</ele>
        <time>2015-04-09T06:16:38Z</time>
      </trkpt>
      <trkpt lat="47.244621030986309" lon="16.557414969429374">
        <ele>227.969999999999999</ele>
        <time>2015-04-09T06:16:42Z</time>
      </trkpt>
      <trkpt lat="47.245101984590292" lon="16.558551974594593">
        <ele>229.409999999999997</ele>
        <time>2015-04-09T06:17:01Z</time>
      </trkpt>
      <trkpt lat="47.245357967913151" lon="16.559521006420255">
        <ele>230.849999999999994</ele>
        <time>2015-04-09T06:17:18Z</time>
      </trkpt>
      <trkpt lat="47.245471961796284" lon="16.560691958293319">
        <ele>231.330000000000013</ele>
        <time>2015-04-09T06:17:35Z</time>
      </trkpt>
      <trkpt lat="47.24539602175355" lon="16.562143033370376">
        <ele>230.370000000000005</ele>
        <time>2015-04-09T06:17:54Z</time>
      </trkpt>
      <trkpt lat="47.245270041748881" lon="16.563670970499516">
        <ele>229.889999999999986</ele>
        <time>2015-04-09T06:18:13Z</time>
      </trkpt>
      <trkpt lat="47.245007017627358" lon="16.56507502309978">
        <ele>229.889999999999986</ele>
        <time>2015-04-09T06:18:32Z</time>
      </trkpt>
      <trkpt lat="47.24492596462369" lon="16.565368976444006">
        <ele>229.409999999999997</ele>
        <time>2015-04-09T06:20:25Z</time>
      </trkpt>
      <trkpt lat="47.244971981272101" lon="16.565371993929148">
        <ele>229.409999999999997</ele>
        <time>2015-04-09T06:20:33Z</time>
      </trkpt>
      <trkpt lat="47.244976004585624" lon="16.56557098031044">
        <ele>229.409999999999997</ele>
        <time>2015-04-09T06:20:39Z</time>
      </trkpt>
      <trkpt lat="47.245070971548557" lon="16.566590974107385">
        <ele>227.969999999999999</ele>
        <time>2015-04-09T06:20:53Z</time>
      </trkpt>
      <trkpt lat="47.245350005105138" lon="16.567936018109322">
        <ele>227.969999999999999</ele>
        <time>2015-04-09T06:21:09Z</time>
      </trkpt>
      <trkpt lat="47.245589978992939" lon="16.56928600743413">
        <ele>227.490000000000009</ele>
        <time>2015-04-09T06:21:26Z</time>
      </trkpt>
      <trkpt lat="47.245712019503117" lon="16.570088993757963">
        <ele>227.009999999999991</ele>
        <time>2015-04-09T06:21:36Z</time>
      </trkpt>
      <trkpt lat="47.245646975934505" lon="16.57063901424408">
        <ele>227.490000000000009</ele>
        <time>2015-04-09T06:21:43Z</time>
      </trkpt>
      <trkpt lat="47.245758036151528" lon="16.570997005328536">
        <ele>227.490000000000009</ele>
        <time>2015-04-09T06:21:48Z</time>
      </trkpt>
      <trkpt lat="47.245776979252696" lon="16.572705991566181">
        <ele>227.490000000000009</ele>
        <time>2015-04-09T06:22:08Z</time>
      </trkpt>
      <trkpt lat="47.24582701921463" lon="16.573482993990183">
        <ele>227.490000000000009</ele>
        <time>2015-04-09T06:22:18Z</time>
      </trkpt>
      <trkpt lat="47.245902959257364" lon="16.573724979534745">
        <ele>227.490000000000009</ele>
        <time>2015-04-09T06:22:23Z</time>
      </trkpt>
      <trkpt lat="47.245963979512453" lon="16.573855988681316">
        <ele>227.969999999999999</ele>
        <time>2015-04-09T06:22:27Z</time>
      </trkpt>
      <trkpt lat="47.246005972847342" lon="16.574448002502322">
        <ele>227.490000000000009</ele>
        <time>2015-04-09T06:22:36Z</time>
      </trkpt>
      <trkpt lat="47.246024999767542" lon="16.575787011533976">
        <ele>227.969999999999999</ele>
        <time>2015-04-09T06:22:53Z</time>
      </trkpt>
      <trkpt lat="47.246024999767542" lon="16.577158039435744">
        <ele>227.969999999999999</ele>
        <time>2015-04-09T06:23:11Z</time>
      </trkpt>
      <trkpt lat="47.246108986437321" lon="16.578380959108472">
        <ele>228.449999999999989</ele>
        <time>2015-04-09T06:23:28Z</time>
      </trkpt>
      <trkpt lat="47.246185010299087" lon="16.579626007005572">
        <ele>227.969999999999999</ele>
        <time>2015-04-09T06:23:44Z</time>
      </trkpt>
      <trkpt lat="47.246306966990232" lon="16.581029975786805">
        <ele>227.969999999999999</ele>
        <time>2015-04-09T06:24:02Z</time>
      </trkpt>
      <trkpt lat="47.246268996968865" lon="16.582361022010446">
        <ele>225.090000000000003</ele>
        <time>2015-04-09T06:24:19Z</time>
      </trkpt>
      <trkpt lat="47.24602097645402" lon="16.58370397053659">
        <ele>223.639999999999986</ele>
        <time>2015-04-09T06:24:36Z</time>
      </trkpt>
      <trkpt lat="47.245724005624652" lon="16.584751037880778">
        <ele>222.680000000000007</ele>
        <time>2015-04-09T06:24:52Z</time>
      </trkpt>
      <trkpt lat="47.245620992034674" lon="16.585176000371575">
        <ele>222.680000000000007</ele>
        <time>2015-04-09T06:24:59Z</time>
      </trkpt>
      <trkpt lat="47.245667008683085" lon="16.585475988686085">
        <ele>222.199999999999989</ele>
        <time>2015-04-09T06:25:04Z</time>
      </trkpt>
      <trkpt lat="47.245604982599616" lon="16.585675980895758">
        <ele>222.199999999999989</ele>
        <time>2015-04-09T06:25:10Z</time>
      </trkpt>
      <trkpt lat="47.245341958478093" lon="16.585756028071046">
        <ele>221.719999999999999</ele>
        <time>2015-04-09T06:25:20Z</time>
      </trkpt>
      <trkpt lat="47.24522796459496" lon="16.585748987272382">
        <ele>221.719999999999999</ele>
        <time>2015-04-09T06:25:25Z</time>
      </trkpt>
      <trkpt lat="47.245189994573593" lon="16.585774971172214">
        <ele>222.199999999999989</ele>
        <time>2015-04-09T06:25:36Z</time>
      </trkpt>
      <trkpt lat="47.245143977925181" lon="16.58582903444767">
        <ele>222.680000000000007</ele>
        <time>2015-04-09T06:25:40Z</time>
      </trkpt>
      <trkpt lat="47.245040964335203" lon="16.58600396476686">
        <ele>222.680000000000007</ele>
        <time>2015-04-09T06:25:54Z</time>
      </trkpt>
      <trkpt lat="47.245037024840713" lon="16.585999019443989">
        <ele>223.159999999999997</ele>
        <time>2015-04-09T06:26:36Z</time>
      </trkpt>
      <trkpt lat="47.245037024840713" lon="16.585997007787228">
        <ele>223.159999999999997</ele>
        <time>2015-04-09T06:27:15Z</time>
      </trkpt>
      <trkpt lat="47.244968041777611" lon="16.586162969470024">
        <ele>222.680000000000007</ele>
        <time>2015-04-09T06:27:42Z</time>
      </trkpt>
      <trkpt lat="47.244899980723858" lon="16.586290039122105">
        <ele>222.680000000000007</ele>
        <time>2015-04-09T06:27:45Z</time>
      </trkpt>
      <trkpt lat="47.244415003806353" lon="16.587287988513708">
        <ele>222.199999999999989</ele>
        <time>2015-04-09T06:28:02Z</time>
      </trkpt>
      <trkpt lat="47.243874035775661" lon="16.58817102201283">
        <ele>223.159999999999997</ele>
        <time>2015-04-09T06:28:17Z</time>
      </trkpt>
      <trkpt lat="47.243771022185683" lon="16.588318040594459">
        <ele>223.159999999999997</ele>
        <time>2015-04-09T06:28:20Z</time>
      </trkpt>
      <trkpt lat="47.242996031418443" lon="16.589124966412783">
        <ele>222.199999999999989</ele>
        <time>2015-04-09T06:28:38Z</time>
      </trkpt>
      <trkpt lat="47.242306033149362" lon="16.589972041547298">
        <ele>222.199999999999989</ele>
        <time>2015-04-09T06:28:55Z</time>
      </trkpt>
      <trkpt lat="47.241756012663245" lon="16.590693974867463">
        <ele>222.199999999999989</ele>
        <time>2015-04-09T06:29:09Z</time>
      </trkpt>
      <trkpt lat="47.241603964939713" lon="16.590977031737566">
        <ele>221.719999999999999</ele>
        <time>2015-04-09T06:29:14Z</time>
      </trkpt>
      <trkpt lat="47.241519978269935" lon="16.5910719987005">
        <ele>221.719999999999999</ele>
        <time>2015-04-09T06:29:16Z</time>
      </trkpt>
      <trkpt lat="47.241123011335731" lon="16.591606009751558">
        <ele>221.240000000000009</ele>
        <time>2015-04-09T06:29:26Z</time>
      </trkpt>
      <trkpt lat="47.241039024665952" lon="16.591679016128182">
        <ele>222.199999999999989</ele>
        <time>2015-04-09T06:29:28Z</time>
      </trkpt>
      <trkpt lat="47.240479029715061" lon="16.592470016330481">
        <ele>221.240000000000009</ele>
        <time>2015-04-09T06:29:43Z</time>
      </trkpt>
      <trkpt lat="47.240035962313414" lon="16.593240983784199">
        <ele>220.759999999999991</ele>
        <time>2015-04-09T06:29:57Z</time>
      </trkpt>
      <trkpt lat="47.240002015605569" lon="16.593292029574513">
        <ele>220.759999999999991</ele>
        <time>2015-04-09T06:29:58Z</time>
      </trkpt>
      <trkpt lat="47.239613011479378" lon="16.594370026141405">
        <ele>220.759999999999991</ele>
        <time>2015-04-09T06:30:14Z</time>
      </trkpt>
      <trkpt lat="47.239643018692732" lon="16.594979977235198">
        <ele>219.800000000000011</ele>
        <time>2015-04-09T06:30:23Z</time>
      </trkpt>
      <trkpt lat="47.239604964852333" lon="16.595373004674911">
        <ele>219.319999999999993</ele>
        <time>2015-04-09T06:30:29Z</time>
      </trkpt>
      <trkpt lat="47.239643018692732" lon="16.596325021237135">
        <ele>219.319999999999993</ele>
        <time>2015-04-09T06:30:41Z</time>
      </trkpt>
      <trkpt lat="47.239680988714099" lon="16.596800023689866">
        <ele>218.840000000000003</ele>
        <time>2015-04-09T06:30:47Z</time>
      </trkpt>
      <trkpt lat="47.23974603228271" lon="16.597723038867116">
        <ele>219.800000000000011</ele>
        <time>2015-04-09T06:30:59Z</time>
      </trkpt>
      <trkpt lat="47.23974603228271" lon="16.597867961972952">
        <ele>219.319999999999993</ele>
        <time>2015-04-09T06:31:01Z</time>
      </trkpt>
      <trkpt lat="47.239773022010922" lon="16.598198041319847">
        <ele>219.319999999999993</ele>
        <time>2015-04-09T06:31:06Z</time>
      </trkpt>
      <trkpt lat="47.23983395844698" lon="16.598702967166901">
        <ele>219.319999999999993</ele>
        <time>2015-04-09T06:31:13Z</time>
      </trkpt>
      <trkpt lat="47.239899002015591" lon="16.59983997233212">
        <ele>218.840000000000003</ele>
        <time>2015-04-09T06:31:28Z</time>
      </trkpt>
      <trkpt lat="47.239867988973856" lon="16.600675983354449">
        <ele>220.280000000000001</ele>
        <time>2015-04-09T06:31:40Z</time>
      </trkpt>
      <trkpt lat="47.239909982308745" lon="16.60091201774776">
        <ele>220.759999999999991</ele>
        <time>2015-04-09T06:31:44Z</time>
      </trkpt>
      <trkpt lat="47.23996396176517" lon="16.601059036329389">
        <ele>221.240000000000009</ele>
        <time>2015-04-09T06:31:47Z</time>
      </trkpt>
      <trkpt lat="47.24009295925498" lon="16.601405963301659">
        <ele>221.240000000000009</ele>
        <time>2015-04-09T06:31:54Z</time>
      </trkpt>
      <trkpt lat="47.239997992292047" lon="16.601535966619849">
        <ele>220.280000000000001</ele>
        <time>2015-04-09T06:31:58Z</time>
      </trkpt>
      <trkpt lat="47.239882992580533" lon="16.601788010448217">
        <ele>220.759999999999991</ele>
        <time>2015-04-09T06:32:03Z</time>
      </trkpt>
      <trkpt lat="47.239872012287378" lon="16.602014992386103">
        <ele>220.759999999999991</ele>
        <time>2015-04-09T06:32:12Z</time>
      </trkpt>
      <trkpt lat="47.239861031994224" lon="16.602082969620824">
        <ele>220.759999999999991</ele>
        <time>2015-04-09T06:32:15Z</time>
      </trkpt>
      <trkpt lat="47.239696998149157" lon="16.60211599431932">
        <ele>220.759999999999991</ele>
        <time>2015-04-09T06:32:21Z</time>
      </trkpt>
      <trkpt lat="47.239517038688064" lon="16.602205010131001">
        <ele>220.759999999999991</ele>
        <time>2015-04-09T06:32:32Z</time>
      </trkpt>
      <trkpt lat="47.239517038688064" lon="16.602205010131001">
        <ele>221.719999999999999</ele>
        <time>2015-04-09T06:32:43Z</time>
      </trkpt>
      <trkpt lat="47.239513015374541" lon="16.602207021787763">
        <ele>221.240000000000009</ele>
        <time>2015-04-09T06:33:18Z</time>
      </trkpt>
      <trkpt lat="47.239513015374541" lon="16.602209033444524">
        <ele>220.759999999999991</ele>
        <time>2015-04-09T06:33:56Z</time>
      </trkpt>
      <trkpt lat="47.239513015374541" lon="16.602209033444524">
        <ele>221.240000000000009</ele>
        <time>2015-04-09T06:34:26Z</time>
      </trkpt>
      <trkpt lat="47.239505974575877" lon="16.602216996252537">
        <ele>220.759999999999991</ele>
        <time>2015-04-09T06:34:28Z</time>
      </trkpt>
      <trkpt lat="47.239368008449674" lon="16.601948020979762">
        <ele>219.800000000000011</ele>
        <time>2015-04-09T06:34:39Z</time>
      </trkpt>
      <trkpt lat="47.239094004034996" lon="16.601892029866576">
        <ele>219.319999999999993</ele>
        <time>2015-04-09T06:34:49Z</time>
      </trkpt>
      <trkpt lat="47.239047987386584" lon="16.601909967139363">
        <ele>219.319999999999993</ele>
        <time>2015-04-09T06:34:50Z</time>
      </trkpt>
      <trkpt lat="47.238964000716805" lon="16.601908039301634">
        <ele>219.319999999999993</ele>
        <time>2015-04-09T06:34:52Z</time>
      </trkpt>
      <trkpt lat="47.2382200229913" lon="16.60220299847424">
        <ele>217.879999999999995</ele>
        <time>2015-04-09T06:35:08Z</time>
      </trkpt>
      <trkpt lat="47.238128995522857" lon="16.602239962667227">
        <ele>217.879999999999995</ele>
        <time>2015-04-09T06:35:10Z</time>
      </trkpt>
      <trkpt lat="47.237961022183299" lon="16.602306012064219">
        <ele>218.360000000000014</ele>
        <time>2015-04-09T06:35:14Z</time>
      </trkpt>
      <trkpt lat="47.237777961418033" lon="16.602379018440843">
        <ele>217.400000000000006</ele>
        <time>2015-04-09T06:35:18Z</time>
      </trkpt>
      <trkpt lat="47.237639995291829" lon="16.602431992068887">
        <ele>217.400000000000006</ele>
        <time>2015-04-09T06:35:21Z</time>
      </trkpt>
      <trkpt lat="47.23746900446713" lon="16.602500975131989">
        <ele>217.400000000000006</ele>
        <time>2015-04-09T06:35:25Z</time>
      </trkpt>
      <trkpt lat="47.237038007006049" lon="16.602702978998423">
        <ele>217.400000000000006</ele>
        <time>2015-04-09T06:35:34Z</time>
      </trkpt>
      <trkpt lat="47.236571973189712" lon="16.602985030040145">
        <ele>216.909999999999997</ele>
        <time>2015-04-09T06:35:44Z</time>
      </trkpt>
      <trkpt lat="47.236369969323277" lon="16.603290969505906">
        <ele>217.400000000000006</ele>
        <time>2015-04-09T06:35:50Z</time>
      </trkpt>
      <trkpt lat="47.236195039004087" lon="16.603768989443779">
        <ele>216.909999999999997</ele>
        <time>2015-04-09T06:35:57Z</time>
      </trkpt>
      <trkpt lat="47.236129995435476" lon="16.603888012468815">
        <ele>216.909999999999997</ele>
        <time>2015-04-09T06:35:59Z</time>
      </trkpt>
      <trkpt lat="47.235869988799095" lon="16.604230999946594">
        <ele>216.430000000000007</ele>
        <time>2015-04-09T06:36:06Z</time>
      </trkpt>
      <trkpt lat="47.235802011564374" lon="16.604316998273134">
        <ele>216.909999999999997</ele>
        <time>2015-04-09T06:36:08Z</time>
      </trkpt>
      <trkpt lat="47.235736967995763" lon="16.604406014084816">
        <ele>216.909999999999997</ele>
        <time>2015-04-09T06:36:10Z</time>
      </trkpt>
      <trkpt lat="47.235324997454882" lon="16.604839023202658">
        <ele>216.430000000000007</ele>
        <time>2015-04-09T06:36:23Z</time>
      </trkpt>
      <trkpt lat="47.235290966928005" lon="16.604883028194308">
        <ele>215.949999999999989</ele>
        <time>2015-04-09T06:36:24Z</time>
      </trkpt>
      <trkpt lat="47.235145960003138" lon="16.605066005140543">
        <ele>216.909999999999997</ele>
        <time>2015-04-09T06:36:28Z</time>
      </trkpt>
      <trkpt lat="47.234940016642213" lon="16.605336992070079">
        <ele>217.400000000000006</ele>
        <time>2015-04-09T06:36:39Z</time>
      </trkpt>
      <trkpt lat="47.234862986952066" lon="16.605462972074747">
        <ele>217.400000000000006</ele>
        <time>2015-04-09T06:37:11Z</time>
      </trkpt>
      <trkpt lat="47.234519999474287" lon="16.605906039476395">
        <ele>217.879999999999995</ele>
        <time>2015-04-09T06:37:23Z</time>
      </trkpt>
      <trkpt lat="47.23433299921453" lon="16.6061129886657">
        <ele>217.400000000000006</ele>
        <time>2015-04-09T06:37:28Z</time>
      </trkpt>
      <trkpt lat="47.234264016151428" lon="16.606212984770536">
        <ele>216.909999999999997</ele>
        <time>2015-04-09T06:37:30Z</time>
      </trkpt>
      <trkpt lat="47.233699997887015" lon="16.607062993571162">
        <ele>216.430000000000007</ele>
        <time>2015-04-09T06:37:45Z</time>
      </trkpt>
      <trkpt lat="47.233662027865648" lon="16.607100963592529">
        <ele>215.949999999999989</ele>
        <time>2015-04-09T06:37:46Z</time>
      </trkpt>
      <trkpt lat="47.233341000974178" lon="16.607320988550782">
        <ele>215.949999999999989</ele>
        <time>2015-04-09T06:37:53Z</time>
      </trkpt>
      <trkpt lat="47.232715962454677" lon="16.607648972421885">
        <ele>216.430000000000007</ele>
        <time>2015-04-09T06:38:06Z</time>
      </trkpt>
      <trkpt lat="47.232543965801597" lon="16.608162028715014">
        <ele>215.949999999999989</ele>
        <time>2015-04-09T06:38:15Z</time>
      </trkpt>
      <trkpt lat="47.232646979391575" lon="16.609640009701252">
        <ele>215.469999999999999</ele>
        <time>2015-04-09T06:38:34Z</time>
      </trkpt>
      <trkpt lat="47.23265502601862" lon="16.609881995245814">
        <ele>215.949999999999989</ele>
        <time>2015-04-09T06:38:37Z</time>
      </trkpt>
      <trkpt lat="47.232670029625297" lon="16.6107979696244">
        <ele>216.909999999999997</ele>
        <time>2015-04-09T06:38:50Z</time>
      </trkpt>
      <trkpt lat="47.232479006052017" lon="16.611503977328539">
        <ele>217.400000000000006</ele>
        <time>2015-04-09T06:39:04Z</time>
      </trkpt>
      <trkpt lat="47.232326958328485" lon="16.611712016165257">
        <ele>216.909999999999997</ele>
        <time>2015-04-09T06:39:10Z</time>
      </trkpt>
      <trkpt lat="47.23199101164937" lon="16.611962970346212">
        <ele>216.909999999999997</ele>
        <time>2015-04-09T06:39:22Z</time>
      </trkpt>
      <trkpt lat="47.231929991394281" lon="16.612105965614319">
        <ele>216.430000000000007</ele>
        <time>2015-04-09T06:39:27Z</time>
      </trkpt>
      <trkpt lat="47.231834018602967" lon="16.612173020839691">
        <ele>216.909999999999997</ele>
        <time>2015-04-09T06:39:38Z</time>
      </trkpt>
      <trkpt lat="47.231789007782936" lon="16.612200010567904">
        <ele>216.430000000000007</ele>
        <time>2015-04-09T06:40:15Z</time>
      </trkpt>
      <trkpt lat="47.231425987556577" lon="16.612358009442687">
        <ele>215.949999999999989</ele>
        <time>2015-04-09T06:40:26Z</time>
      </trkpt>
      <trkpt lat="47.231030026450753" lon="16.612756988033652">
        <ele>216.909999999999997</ele>
        <time>2015-04-09T06:40:39Z</time>
      </trkpt>
      <trkpt lat="47.230750992894173" lon="16.612659003585577">
        <ele>215.949999999999989</ele>
        <time>2015-04-09T06:40:49Z</time>
      </trkpt>
      <trkpt lat="47.230399958789349" lon="16.612907024100423">
        <ele>216.430000000000007</ele>
        <time>2015-04-09T06:41:01Z</time>
      </trkpt>
      <trkpt lat="47.230346985161304" lon="16.613200977444649">
        <ele>216.430000000000007</ele>
        <time>2015-04-09T06:41:12Z</time>
      </trkpt>
      <trkpt lat="47.230346985161304" lon="16.613200977444649">
        <ele>215.949999999999989</ele>
        <time>2015-04-09T06:41:31Z</time>
      </trkpt>
      <trkpt lat="47.230381015688181" lon="16.613284964114428">
        <ele>215.949999999999989</ele>
        <time>2015-04-09T06:41:35Z</time>
      </trkpt>
      <trkpt lat="47.230258975178003" lon="16.614123992621899">
        <ele>215.949999999999989</ele>
        <time>2015-04-09T06:41:49Z</time>
      </trkpt>
      <trkpt lat="47.230049008503556" lon="16.614480977877975">
        <ele>215.949999999999989</ele>
        <time>2015-04-09T06:41:56Z</time>
      </trkpt>
      <trkpt lat="47.229407960548997" lon="16.615038039162755">
        <ele>214.509999999999991</ele>
        <time>2015-04-09T06:42:11Z</time>
      </trkpt>
      <trkpt lat="47.229286003857851" lon="16.615139041095972">
        <ele>214.990000000000009</ele>
        <time>2015-04-09T06:42:14Z</time>
      </trkpt>
      <trkpt lat="47.229160023853183" lon="16.615718984976411">
        <ele>215.469999999999999</ele>
        <time>2015-04-09T06:42:23Z</time>
      </trkpt>
      <trkpt lat="47.229308970272541" lon="16.616336982697248">
        <ele>214.990000000000009</ele>
        <time>2015-04-09T06:42:32Z</time>
      </trkpt>
      <trkpt lat="47.229263037443161" lon="16.61707098595798">
        <ele>214.990000000000009</ele>
        <time>2015-04-09T06:42:45Z</time>
      </trkpt>
      <trkpt lat="47.22904602997005" lon="16.617557974532247">
        <ele>214.990000000000009</ele>
        <time>2015-04-09T06:42:59Z</time>
      </trkpt>
      <trkpt lat="47.229015016928315" lon="16.617572978138924">
        <ele>214.990000000000009</ele>
        <time>2015-04-09T06:43:09Z</time>
      </trkpt>
      <trkpt lat="47.228965982794762" lon="16.617587981745601">
        <ele>215.469999999999999</ele>
        <time>2015-04-09T06:43:12Z</time>
      </trkpt>
      <trkpt lat="47.228923989459872" lon="16.617557974532247">
        <ele>215.949999999999989</ele>
        <time>2015-04-09T06:43:24Z</time>
      </trkpt>
      <trkpt lat="47.228970006108284" lon="16.617803983390331">
        <ele>214.990000000000009</ele>
        <time>2015-04-09T06:44:46Z</time>
      </trkpt>
      <trkpt lat="47.228866992518306" lon="16.618148982524872">
        <ele>214.990000000000009</ele>
        <time>2015-04-09T06:44:58Z</time>
      </trkpt>
      <trkpt lat="47.22861897200346" lon="16.618227018043399">
        <ele>214.990000000000009</ele>
        <time>2015-04-09T06:45:08Z</time>
      </trkpt>
      <trkpt lat="47.228569015860558" lon="16.618249984458089">
        <ele>214.509999999999991</ele>
        <time>2015-04-09T06:45:11Z</time>
      </trkpt>
      <trkpt lat="47.228515958413482" lon="16.618299018591642">
        <ele>214.990000000000009</ele>
        <time>2015-04-09T06:45:23Z</time>
      </trkpt>
      <trkpt lat="47.228515958413482" lon="16.618299018591642">
        <ele>215.469999999999999</ele>
        <time>2015-04-09T06:45:47Z</time>
      </trkpt>
      <trkpt lat="47.228522999212146" lon="16.618304969742894">
        <ele>214.990000000000009</ele>
        <time>2015-04-09T06:45:53Z</time>
      </trkpt>
      <trkpt lat="47.228591982275248" lon="16.618399014696479">
        <ele>214.509999999999991</ele>
        <time>2015-04-09T06:45:58Z</time>
      </trkpt>
      <trkpt lat="47.228824999183416" lon="16.619012989103794">
        <ele>215.469999999999999</ele>
        <time>2015-04-09T06:46:14Z</time>
      </trkpt>
      <trkpt lat="47.22909196279943" lon="16.619665017351508">
        <ele>216.430000000000007</ele>
        <time>2015-04-09T06:46:29Z</time>
      </trkpt>
      <trkpt lat="47.229404021054506" lon="16.620318973436952">
        <ele>217.400000000000006</ele>
        <time>2015-04-09T06:46:44Z</time>
      </trkpt>
      <trkpt lat="47.229773998260498" lon="16.620883997529745">
        <ele>217.400000000000006</ele>
        <time>2015-04-09T06:46:59Z</time>
      </trkpt>
      <trkpt lat="47.229977007955313" lon="16.621277024969459">
        <ele>217.400000000000006</ele>
        <time>2015-04-09T06:47:11Z</time>
      </trkpt>
      <trkpt lat="47.230007015168667" lon="16.621339973062277">
        <ele>218.360000000000014</ele>
        <time>2015-04-09T06:47:24Z</time>
      </trkpt>
      <trkpt lat="47.23001497797668" lon="16.621349025517702">
        <ele>217.400000000000006</ele>
        <time>2015-04-09T06:47:48Z</time>
      </trkpt>
      <trkpt lat="47.230053031817079" lon="16.621329998597503">
        <ele>217.879999999999995</ele>
        <time>2015-04-09T06:47:51Z</time>
      </trkpt>
      <trkpt lat="47.230056971311569" lon="16.621262021362782">
        <ele>217.879999999999995</ele>
        <time>2015-04-09T06:47:55Z</time>
      </trkpt>
      <trkpt lat="47.230236008763313" lon="16.62119697779417">
        <ele>218.360000000000014</ele>
        <time>2015-04-09T06:48:03Z</time>
      </trkpt>
      <trkpt lat="47.230575978755951" lon="16.620984999462962">
        <ele>217.879999999999995</ele>
        <time>2015-04-09T06:48:15Z</time>
      </trkpt>
      <trkpt lat="47.230854006484151" lon="16.620932025834918">
        <ele>217.879999999999995</ele>
        <time>2015-04-09T06:48:28Z</time>
      </trkpt>
      <trkpt lat="47.230854006484151" lon="16.620932025834918">
        <ele>217.879999999999995</ele>
        <time>2015-04-09T06:48:46Z</time>
      </trkpt>
      <trkpt lat="47.231124993413687" lon="16.621248023584485">
        <ele>217.879999999999995</ele>
        <time>2015-04-09T06:48:58Z</time>
      </trkpt>
      <trkpt lat="47.231139997020364" lon="16.621277024969459">
        <ele>216.909999999999997</ele>
        <time>2015-04-09T06:48:59Z</time>
      </trkpt>
      <trkpt lat="47.231162963435054" lon="16.621846994385123">
        <ele>217.400000000000006</ele>
        <time>2015-04-09T06:49:12Z</time>
      </trkpt>
      <trkpt lat="47.231171010062099" lon="16.622555013746023">
        <ele>217.400000000000006</ele>
        <time>2015-04-09T06:49:26Z</time>
      </trkpt>
      <trkpt lat="47.231181990355253" lon="16.622977964580059">
        <ele>217.400000000000006</ele>
        <time>2015-04-09T06:49:39Z</time>
      </trkpt>
      <trkpt lat="47.231177967041731" lon="16.622954998165369">
        <ele>217.400000000000006</ele>
        <time>2015-04-09T06:49:59Z</time>
      </trkpt>
      <trkpt lat="47.23121602088213" lon="16.623467970639467">
        <ele>217.400000000000006</ele>
        <time>2015-04-09T06:50:12Z</time>
      </trkpt>
      <trkpt lat="47.231406960636377" lon="16.62420297972858">
        <ele>217.400000000000006</ele>
        <time>2015-04-09T06:50:25Z</time>
      </trkpt>
      <trkpt lat="47.231524977833033" lon="16.624914016574621">
        <ele>217.879999999999995</ele>
        <time>2015-04-09T06:50:39Z</time>
      </trkpt>
      <trkpt lat="47.231536963954568" lon="16.625357000157237">
        <ele>217.400000000000006</ele>
        <time>2015-04-09T06:53:39Z</time>
      </trkpt>
      <trkpt lat="47.231696974486113" lon="16.626098966225982">
        <ele>217.400000000000006</ele>
        <time>2015-04-09T06:53:51Z</time>
      </trkpt>
      <trkpt lat="47.231898978352547" lon="16.6268440335989">
        <ele>217.400000000000006</ele>
        <time>2015-04-09T06:54:03Z</time>
      </trkpt>
      <trkpt lat="47.231995034962893" lon="16.627305960282683">
        <ele>217.879999999999995</ele>
        <time>2015-04-09T06:54:14Z</time>
      </trkpt>
      <trkpt lat="47.23216200247407" lon="16.627184003591537">
        <ele>217.879999999999995</ele>
        <time>2015-04-09T06:55:00Z</time>
      </trkpt>
      <trkpt lat="47.23216200247407" lon="16.627184003591537">
        <ele>217.879999999999995</ele>
        <time>2015-04-09T06:55:02Z</time>
      </trkpt>
      <trkpt lat="47.232307009398937" lon="16.627184003591537">
        <ele>218.360000000000014</ele>
        <time>2015-04-09T06:55:13Z</time>
      </trkpt>
      <trkpt lat="47.23235696554184" lon="16.627538977190852">
        <ele>217.879999999999995</ele>
        <time>2015-04-09T06:55:23Z</time>
      </trkpt>
      <trkpt lat="47.232437012717128" lon="16.628180025145411">
        <ele>217.879999999999995</ele>
        <time>2015-04-09T06:55:33Z</time>
      </trkpt>
      <trkpt lat="47.232646979391575" lon="16.628774972632527">
        <ele>217.879999999999995</ele>
        <time>2015-04-09T06:55:46Z</time>
      </trkpt>
      <trkpt lat="47.232676986604929" lon="16.628831969574094">
        <ele>218.360000000000014</ele>
        <time>2015-04-09T06:55:59Z</time>
      </trkpt>
      <trkpt lat="47.232676986604929" lon="16.628831969574094">
        <ele>218.360000000000014</ele>
        <time>2015-04-09T06:56:25Z</time>
      </trkpt>
      <trkpt lat="47.232676986604929" lon="16.628831969574094">
        <ele>218.360000000000014</ele>
        <time>2015-04-09T06:56:28Z</time>
      </trkpt>
      <trkpt lat="47.232651002705097" lon="16.628941018134356">
        <ele>217.879999999999995</ele>
        <time>2015-04-09T06:56:33Z</time>
      </trkpt>
      <trkpt lat="47.232631975784898" lon="16.629147967323661">
        <ele>218.360000000000014</ele>
        <time>2015-04-09T06:56:46Z</time>
      </trkpt>
      <trkpt lat="47.232631975784898" lon="16.629147967323661">
        <ele>218.840000000000003</ele>
        <time>2015-04-09T06:57:12Z</time>
      </trkpt>
      <trkpt lat="47.232631975784898" lon="16.629147967323661">
        <ele>218.840000000000003</ele>
        <time>2015-04-09T06:57:15Z</time>
      </trkpt>
      <trkpt lat="47.232426032423973" lon="16.629395987838507">
        <ele>217.879999999999995</ele>
        <time>2015-04-09T06:57:28Z</time>
      </trkpt>
      <trkpt lat="47.232437012717128" lon="16.629968974739313">
        <ele>216.909999999999997</ele>
        <time>2015-04-09T06:57:41Z</time>
      </trkpt>
      <trkpt lat="47.232802966609597" lon="16.630527041852474">
        <ele>216.909999999999997</ele>
        <time>2015-04-09T06:57:52Z</time>
      </trkpt>
      <trkpt lat="47.232899023219943" lon="16.630896013230085">
        <ele>217.400000000000006</ele>
        <time>2015-04-09T06:58:03Z</time>
      </trkpt>
      <trkpt lat="47.232910003513098" lon="16.630921997129917">
        <ele>218.840000000000003</ele>
        <time>2015-04-09T06:58:28Z</time>
      </trkpt>
      <trkpt lat="47.232917966321111" lon="16.630924008786678">
        <ele>218.360000000000014</ele>
        <time>2015-04-09T06:58:43Z</time>
      </trkpt>
      <trkpt lat="47.232791986316442" lon="16.630887966603041">
        <ele>219.319999999999993</ele>
        <time>2015-04-09T07:03:08Z</time>
      </trkpt>
      <trkpt lat="47.23278796300292" lon="16.630886038765311">
        <ele>218.840000000000003</ele>
        <time>2015-04-09T07:03:52Z</time>
      </trkpt>
      <trkpt lat="47.23278796300292" lon="16.630882015451789">
        <ele>217.400000000000006</ele>
        <time>2015-04-09T07:04:32Z</time>
      </trkpt>
      <trkpt lat="47.23278796300292" lon="16.630886038765311">
        <ele>217.879999999999995</ele>
        <time>2015-04-09T07:05:15Z</time>
      </trkpt>
      <trkpt lat="47.232780000194907" lon="16.630880003795028">
        <ele>218.360000000000014</ele>
        <time>2015-04-09T07:05:56Z</time>
      </trkpt>
      <trkpt lat="47.232776982709765" lon="16.630869023501873">
        <ele>218.360000000000014</ele>
        <time>2015-04-09T07:06:40Z</time>
      </trkpt>
      <trkpt lat="47.232776982709765" lon="16.630872962996364">
        <ele>217.879999999999995</ele>
        <time>2015-04-09T07:07:19Z</time>
      </trkpt>
      <trkpt lat="47.232776982709765" lon="16.630872962996364">
        <ele>217.879999999999995</ele>
        <time>2015-04-09T07:07:56Z</time>
      </trkpt>
      <trkpt lat="47.23278402350843" lon="16.630871035158634">
        <ele>217.879999999999995</ele>
        <time>2015-04-09T07:08:37Z</time>
      </trkpt>
      <trkpt lat="47.232769019901752" lon="16.630854019895196">
        <ele>217.879999999999995</ele>
        <time>2015-04-09T07:09:22Z</time>
      </trkpt>
      <trkpt lat="47.232776982709765" lon="16.630854019895196">
        <ele>217.400000000000006</ele>
        <time>2015-04-09T07:10:07Z</time>
      </trkpt>
      <trkpt lat="47.232769019901752" lon="16.630830969661474">
        <ele>218.840000000000003</ele>
        <time>2015-04-09T07:10:33Z</time>
      </trkpt>
      <trkpt lat="47.232894999906421" lon="16.630651010200381">
        <ele>217.400000000000006</ele>
        <time>2015-04-09T07:10:45Z</time>
      </trkpt>
      <trkpt lat="47.232899023219943" lon="16.630416987463832">
        <ele>217.879999999999995</ele>
        <time>2015-04-09T07:10:51Z</time>
      </trkpt>
      <trkpt lat="47.232707999646664" lon="16.6299610119313">
        <ele>217.879999999999995</ele>
        <time>2015-04-09T07:11:01Z</time>
      </trkpt>
      <trkpt lat="47.232448998838663" lon="16.629456002265215">
        <ele>217.879999999999995</ele>
        <time>2015-04-09T07:11:12Z</time>
      </trkpt>
      <trkpt lat="47.232345985248685" lon="16.629215022549033">
        <ele>218.360000000000014</ele>
        <time>2015-04-09T07:11:24Z</time>
      </trkpt>
      <trkpt lat="47.232345985248685" lon="16.629215022549033">
        <ele>217.879999999999995</ele>
        <time>2015-04-09T07:11:43Z</time>
      </trkpt>
      <trkpt lat="47.232365012168884" lon="16.629233965650201">
        <ele>218.840000000000003</ele>
        <time>2015-04-09T07:12:16Z</time>
      </trkpt>
      <trkpt lat="47.232365012168884" lon="16.629233965650201">
        <ele>218.360000000000014</ele>
        <time>2015-04-09T07:12:17Z</time>
      </trkpt>
      <trkpt lat="47.232571039348841" lon="16.629103040322661">
        <ele>218.360000000000014</ele>
        <time>2015-04-09T07:12:26Z</time>
      </trkpt>
      <trkpt lat="47.232594005763531" lon="16.629072027280927">
        <ele>218.360000000000014</ele>
        <time>2015-04-09T07:12:41Z</time>
      </trkpt>
      <trkpt lat="47.232573973014951" lon="16.628903970122337">
        <ele>218.840000000000003</ele>
        <time>2015-04-09T07:13:04Z</time>
      </trkpt>
      <trkpt lat="47.232510019093752" lon="16.628441037610173">
        <ele>219.319999999999993</ele>
        <time>2015-04-09T07:13:15Z</time>
      </trkpt>
      <trkpt lat="47.232413962483406" lon="16.62796201184392">
        <ele>219.319999999999993</ele>
        <time>2015-04-09T07:13:24Z</time>
      </trkpt>
      <trkpt lat="47.23235696554184" lon="16.627208981662989">
        <ele>218.360000000000014</ele>
        <time>2015-04-09T07:13:38Z</time>
      </trkpt>
      <trkpt lat="47.23218203522265" lon="16.626946963369846">
        <ele>218.840000000000003</ele>
        <time>2015-04-09T07:13:49Z</time>
      </trkpt>
      <trkpt lat="47.231995034962893" lon="16.626519989222288">
        <ele>218.360000000000014</ele>
        <time>2015-04-09T07:14:04Z</time>
      </trkpt>
      <trkpt lat="47.231856985017657" lon="16.626120004802942">
        <ele>218.360000000000014</ele>
        <time>2015-04-09T07:14:13Z</time>
      </trkpt>
      <trkpt lat="47.231716001406312" lon="16.625963011756539">
        <ele>218.840000000000003</ele>
        <time>2015-04-09T07:14:21Z</time>
      </trkpt>
      <trkpt lat="47.231627991423011" lon="16.625273013487458">
        <ele>219.319999999999993</ele>
        <time>2015-04-09T07:14:33Z</time>
      </trkpt>
      <trkpt lat="47.231467980891466" lon="16.624352009966969">
        <ele>219.319999999999993</ele>
        <time>2015-04-09T07:14:50Z</time>
      </trkpt>
      <trkpt lat="47.23136899061501" lon="16.62400801666081">
        <ele>220.280000000000001</ele>
        <time>2015-04-09T07:15:00Z</time>
      </trkpt>
      <trkpt lat="47.23121602088213" lon="16.623465958982706">
        <ele>220.280000000000001</ele>
        <time>2015-04-09T07:15:12Z</time>
      </trkpt>
      <trkpt lat="47.231003036722541" lon="16.622876962646842">
        <ele>219.319999999999993</ele>
        <time>2015-04-09T07:15:25Z</time>
      </trkpt>
      <trkpt lat="47.230812013149261" lon="16.622144971042871">
        <ele>218.840000000000003</ele>
        <time>2015-04-09T07:15:39Z</time>
      </trkpt>
      <trkpt lat="47.23061797209084" lon="16.621470982208848">
        <ele>219.319999999999993</ele>
        <time>2015-04-09T07:15:54Z</time>
      </trkpt>
      <trkpt lat="47.230438012629747" lon="16.62110703997314">
        <ele>220.280000000000001</ele>
        <time>2015-04-09T07:16:05Z</time>
      </trkpt>
      <trkpt lat="47.230152022093534" lon="16.621222039684653">
        <ele>220.759999999999991</ele>
        <time>2015-04-09T07:16:15Z</time>
      </trkpt>
      <trkpt lat="47.230002991855145" lon="16.621068986132741">
        <ele>220.280000000000001</ele>
        <time>2015-04-09T07:16:25Z</time>
      </trkpt>
      <trkpt lat="47.229728987440467" lon="16.62087201140821">
        <ele>220.280000000000001</ele>
        <time>2015-04-09T07:16:43Z</time>
      </trkpt>
      <trkpt lat="47.229530001059175" lon="16.620648968964815">
        <ele>219.800000000000011</ele>
        <time>2015-04-09T07:16:59Z</time>
      </trkpt>
      <trkpt lat="47.229335960000753" lon="16.620307993143797">
        <ele>219.800000000000011</ele>
        <time>2015-04-09T07:17:17Z</time>
      </trkpt>
      <trkpt lat="47.22919799387455" lon="16.619870960712433">
        <ele>219.319999999999993</ele>
        <time>2015-04-09T07:17:34Z</time>
      </trkpt>
      <trkpt lat="47.22904996946454" lon="16.619458990171552">
        <ele>219.319999999999993</ele>
        <time>2015-04-09T07:17:52Z</time>
      </trkpt>
      <trkpt lat="47.228928012773395" lon="16.619062023237348">
        <ele>218.360000000000014</ele>
        <time>2015-04-09T07:18:08Z</time>
      </trkpt>
      <trkpt lat="47.228824999183416" lon="16.618689028546214">
        <ele>217.879999999999995</ele>
        <time>2015-04-09T07:18:25Z</time>
      </trkpt>
      <trkpt lat="47.228778982535005" lon="16.618424998596311">
        <ele>217.400000000000006</ele>
        <time>2015-04-09T07:18:40Z</time>
      </trkpt>
      <trkpt lat="47.228786023333669" lon="16.618412006646395">
        <ele>217.879999999999995</ele>
        <time>2015-04-09T07:18:53Z</time>
      </trkpt>
      <trkpt lat="47.228950979188085" lon="16.618278985843062">
        <ele>217.879999999999995</ele>
        <time>2015-04-09T07:19:07Z</time>
      </trkpt>
      <trkpt lat="47.22904996946454" lon="16.618225006386638">
        <ele>218.360000000000014</ele>
        <time>2015-04-09T07:19:14Z</time>
      </trkpt>
      <trkpt lat="47.229266976937652" lon="16.618092991411686">
        <ele>218.840000000000003</ele>
        <time>2015-04-09T07:19:30Z</time>
      </trkpt>
      <trkpt lat="47.229308970272541" lon="16.618049992248416">
        <ele>219.319999999999993</ele>
        <time>2015-04-09T07:19:46Z</time>
      </trkpt>
      <trkpt lat="47.229308970272541" lon="16.618049992248416">
        <ele>219.319999999999993</ele>
        <time>2015-04-09T07:20:00Z</time>
      </trkpt>
      <trkpt lat="47.229286003857851" lon="16.617963993921876">
        <ele>218.840000000000003</ele>
        <time>2015-04-09T07:20:04Z</time>
      </trkpt>
      <trkpt lat="47.22917896695435" lon="16.617774982005358">
        <ele>219.319999999999993</ele>
        <time>2015-04-09T07:20:15Z</time>
      </trkpt>
      <trkpt lat="47.229118030518293" lon="16.617661993950605">
        <ele>218.360000000000014</ele>
        <time>2015-04-09T07:20:22Z</time>
      </trkpt>
      <trkpt lat="47.228943016380072" lon="16.617279024794698">
        <ele>219.319999999999993</ele>
        <time>2015-04-09T07:20:43Z</time>
      </trkpt>
      <trkpt lat="47.228805972263217" lon="16.616925979033113">
        <ele>218.840000000000003</ele>
        <time>2015-04-09T07:21:00Z</time>
      </trkpt>
      <trkpt lat="47.22857303917408" lon="16.61644603125751">
        <ele>218.840000000000003</ele>
        <time>2015-04-09T07:21:13Z</time>
      </trkpt>
      <trkpt lat="47.228316972032189" lon="16.616045041009784">
        <ele>218.840000000000003</ele>
        <time>2015-04-09T07:21:25Z</time>
      </trkpt>
      <trkpt lat="47.228026958182454" lon="16.615600967779756">
        <ele>219.319999999999993</ele>
        <time>2015-04-09T07:21:39Z</time>
      </trkpt>
      <trkpt lat="47.227782960981131" lon="16.615164019167423">
        <ele>219.319999999999993</ele>
        <time>2015-04-09T07:21:52Z</time>
      </trkpt>
      <trkpt lat="47.22767299041152" lon="16.614970983937383">
        <ele>219.319999999999993</ele>
        <time>2015-04-09T07:21:58Z</time>
      </trkpt>
      <trkpt lat="47.227424969896674" lon="16.615063017234206">
        <ele>219.319999999999993</ele>
        <time>2015-04-09T07:22:09Z</time>
      </trkpt>
      <trkpt lat="47.227402003481984" lon="16.615051031112671">
        <ele>218.840000000000003</ele>
        <time>2015-04-09T07:22:10Z</time>
      </trkpt>
      <trkpt lat="47.227355986833572" lon="16.615001996979117">
        <ele>219.319999999999993</ele>
        <time>2015-04-09T07:22:17Z</time>
      </trkpt>
      <trkpt lat="47.227131016552448" lon="16.615076009184122">
        <ele>218.840000000000003</ele>
        <time>2015-04-09T07:22:27Z</time>
      </trkpt>
      <trkpt lat="47.226887019351125" lon="16.615349007770419">
        <ele>219.319999999999993</ele>
        <time>2015-04-09T07:22:35Z</time>
      </trkpt>
      <trkpt lat="47.226673029363155" lon="16.615081960335374">
        <ele>219.319999999999993</ele>
        <time>2015-04-09T07:22:43Z</time>
      </trkpt>
      <trkpt lat="47.226559035480022" lon="16.614842992275953">
        <ele>218.840000000000003</ele>
        <time>2015-04-09T07:22:47Z</time>
      </trkpt>
      <trkpt lat="47.226109011098742" lon="16.613899022340775">
        <ele>217.879999999999995</ele>
        <time>2015-04-09T07:23:03Z</time>
      </trkpt>
      <trkpt lat="47.225697040557861" lon="16.613039039075375">
        <ele>217.879999999999995</ele>
        <time>2015-04-09T07:23:18Z</time>
      </trkpt>
      <trkpt lat="47.225543987005949" lon="16.612725974991918">
        <ele>217.879999999999995</ele>
        <time>2015-04-09T07:23:23Z</time>
      </trkpt>
      <trkpt lat="47.225070996209979" lon="16.6117840167135">
        <ele>217.879999999999995</ele>
        <time>2015-04-09T07:23:39Z</time>
      </trkpt>
      <trkpt lat="47.224910985678434" lon="16.611449997872114">
        <ele>217.400000000000006</ele>
        <time>2015-04-09T07:23:45Z</time>
      </trkpt>
      <trkpt lat="47.224765978753567" lon="16.611146992072463">
        <ele>217.400000000000006</ele>
        <time>2015-04-09T07:23:50Z</time>
      </trkpt>
      <trkpt lat="47.224647961556911" lon="16.610900983214378">
        <ele>217.879999999999995</ele>
        <time>2015-04-09T07:23:54Z</time>
      </trkpt>
      <trkpt lat="47.224246971309185" lon="16.610038988292217">
        <ele>217.879999999999995</ele>
        <time>2015-04-09T07:24:09Z</time>
      </trkpt>
      <trkpt lat="47.223866013810039" lon="16.609295010566711">
        <ele>219.319999999999993</ele>
        <time>2015-04-09T07:24:25Z</time>
      </trkpt>
      <trkpt lat="47.223808011040092" lon="16.609169030562043">
        <ele>220.280000000000001</ele>
        <time>2015-04-09T07:24:28Z</time>
      </trkpt>
      <trkpt lat="47.223800970241427" lon="16.60903500393033">
        <ele>219.800000000000011</ele>
        <time>2015-04-09T07:24:31Z</time>
      </trkpt>
      <trkpt lat="47.223679013550282" lon="16.608743984252214">
        <ele>220.759999999999991</ele>
        <time>2015-04-09T07:24:43Z</time>
      </trkpt>
      <trkpt lat="47.223679013550282" lon="16.608741972595453">
        <ele>220.280000000000001</ele>
        <time>2015-04-09T07:25:16Z</time>
      </trkpt>
      <trkpt lat="47.223679013550282" lon="16.608741972595453">
        <ele>219.800000000000011</ele>
        <time>2015-04-09T07:25:28Z</time>
      </trkpt>
      <trkpt lat="47.223586980253458" lon="16.608655974268913">
        <ele>219.800000000000011</ele>
        <time>2015-04-09T07:25:38Z</time>
      </trkpt>
      <trkpt lat="47.223335020244122" lon="16.608354980126023">
        <ele>221.240000000000009</ele>
        <time>2015-04-09T07:25:48Z</time>
      </trkpt>
      <trkpt lat="47.223022039979696" lon="16.607791967689991">
        <ele>222.680000000000007</ele>
        <time>2015-04-09T07:26:01Z</time>
      </trkpt>
      <trkpt lat="47.222999995574355" lon="16.60774402320385">
        <ele>222.199999999999989</ele>
        <time>2015-04-09T07:26:02Z</time>
      </trkpt>
      <trkpt lat="47.222751975059509" lon="16.607109010219574">
        <ele>225.090000000000003</ele>
        <time>2015-04-09T07:26:15Z</time>
      </trkpt>
      <trkpt lat="47.222651978954673" lon="16.606495035812259">
        <ele>227.490000000000009</ele>
        <time>2015-04-09T07:26:28Z</time>
      </trkpt>
      <trkpt lat="47.222590958699584" lon="16.605954989790916">
        <ele>228.930000000000007</ele>
        <time>2015-04-09T07:26:39Z</time>
      </trkpt>
      <trkpt lat="47.222557011991739" lon="16.605609990656376">
        <ele>230.370000000000005</ele>
        <time>2015-04-09T07:26:46Z</time>
      </trkpt>
      <trkpt lat="47.222419967874885" lon="16.604813039302826">
        <ele>232.300000000000011</ele>
        <time>2015-04-09T07:27:02Z</time>
      </trkpt>
      <trkpt lat="47.222084021195769" lon="16.604164028540254">
        <ele>232.780000000000001</ele>
        <time>2015-04-09T07:27:16Z</time>
      </trkpt>
      <trkpt lat="47.221560990437865" lon="16.603586012497544">
        <ele>231.810000000000002</ele>
        <time>2015-04-09T07:27:31Z</time>
      </trkpt>
      <trkpt lat="47.220787005499005" lon="16.603241013363004">
        <ele>230.370000000000005</ele>
        <time>2015-04-09T07:27:46Z</time>
      </trkpt>
      <trkpt lat="47.219844963401556" lon="16.603318965062499">
        <ele>228.449999999999989</ele>
        <time>2015-04-09T07:28:02Z</time>
      </trkpt>
      <trkpt lat="47.218891019001603" lon="16.60347000695765">
        <ele>227.490000000000009</ele>
        <time>2015-04-09T07:28:20Z</time>
      </trkpt>
      <trkpt lat="47.218135977163911" lon="16.603584000840783">
        <ele>226.530000000000001</ele>
        <time>2015-04-09T07:28:35Z</time>
      </trkpt>
      <trkpt lat="47.217194018885493" lon="16.603720039129257">
        <ele>225.090000000000003</ele>
        <time>2015-04-09T07:28:51Z</time>
      </trkpt>
      <trkpt lat="47.216290030628443" lon="16.603601016104221">
        <ele>224.120000000000005</ele>
        <time>2015-04-09T07:29:06Z</time>
      </trkpt>
      <trkpt lat="47.215397022664547" lon="16.60334000363946">
        <ele>222.680000000000007</ele>
        <time>2015-04-09T07:29:21Z</time>
      </trkpt>
      <trkpt lat="47.214457998052239" lon="16.603056024760008">
        <ele>221.719999999999999</ele>
        <time>2015-04-09T07:29:37Z</time>
      </trkpt>
      <trkpt lat="47.213444039225578" lon="16.60286701284349">
        <ele>220.759999999999991</ele>
        <time>2015-04-09T07:29:54Z</time>
      </trkpt>
      <trkpt lat="47.213004995137453" lon="16.602776991203427">
        <ele>219.800000000000011</ele>
        <time>2015-04-09T07:30:01Z</time>
      </trkpt>
      <trkpt lat="47.212771978229284" lon="16.602596025913954">
        <ele>219.319999999999993</ele>
        <time>2015-04-09T07:30:05Z</time>
      </trkpt>
      <trkpt lat="47.212337041273713" lon="16.601954977959394">
        <ele>219.800000000000011</ele>
        <time>2015-04-09T07:30:15Z</time>
      </trkpt>
      <trkpt lat="47.211784003302455" lon="16.600973038002849">
        <ele>217.879999999999995</ele>
        <time>2015-04-09T07:30:30Z</time>
      </trkpt>
      <trkpt lat="47.211040025576949" lon="16.600156975910068">
        <ele>217.400000000000006</ele>
        <time>2015-04-09T07:30:46Z</time>
      </trkpt>
      <trkpt lat="47.210315996780992" lon="16.599656995385885">
        <ele>216.909999999999997</ele>
        <time>2015-04-09T07:31:00Z</time>
      </trkpt>
      <trkpt lat="47.20962499268353" lon="16.599089037626982">
        <ele>217.400000000000006</ele>
        <time>2015-04-09T07:31:13Z</time>
      </trkpt>
      <trkpt lat="47.209400022402406" lon="16.598841017112136">
        <ele>217.400000000000006</ele>
        <time>2015-04-09T07:31:18Z</time>
      </trkpt>
      <trkpt lat="47.209255015477538" lon="16.598605988547206">
        <ele>217.400000000000006</ele>
        <time>2015-04-09T07:31:22Z</time>
      </trkpt>
      <trkpt lat="47.208747994154692" lon="16.597286006435752">
        <ele>218.360000000000014</ele>
        <time>2015-04-09T07:31:41Z</time>
      </trkpt>
      <trkpt lat="47.208248013630509" lon="16.595855969935656">
        <ele>218.840000000000003</ele>
        <time>2015-04-09T07:32:02Z</time>
      </trkpt>
      <trkpt lat="47.207844005897641" lon="16.594728017225862">
        <ele>220.280000000000001</ele>
        <time>2015-04-09T07:32:21Z</time>
      </trkpt>
      <trkpt lat="47.207568995654583" lon="16.594001976773143">
        <ele>221.240000000000009</ele>
        <time>2015-04-09T07:32:36Z</time>
      </trkpt>
      <trkpt lat="47.207217961549759" lon="16.593102011829615">
        <ele>222.680000000000007</ele>
        <time>2015-04-09T07:32:56Z</time>
      </trkpt>
      <trkpt lat="47.206825017929077" lon="16.592359961941838">
        <ele>224.610000000000014</ele>
        <time>2015-04-09T07:33:15Z</time>
      </trkpt>
      <trkpt lat="47.206593006849289" lon="16.59186702221632">
        <ele>227.009999999999991</ele>
        <time>2015-04-09T07:33:28Z</time>
      </trkpt>
      <trkpt lat="47.206389997154474" lon="16.591450022533536">
        <ele>229.409999999999997</ele>
        <time>2015-04-09T07:33:40Z</time>
      </trkpt>
      <trkpt lat="47.206081040203571" lon="16.590980971232057">
        <ele>230.849999999999994</ele>
        <time>2015-04-09T07:33:54Z</time>
      </trkpt>
      <trkpt lat="47.205794965848327" lon="16.590660028159618">
        <ele>233.259999999999991</ele>
        <time>2015-04-09T07:34:07Z</time>
      </trkpt>
      <trkpt lat="47.205559015274048" lon="16.590183014050126">
        <ele>235.659999999999997</ele>
        <time>2015-04-09T07:34:21Z</time>
      </trkpt>
      <trkpt lat="47.205424988642335" lon="16.589622013270855">
        <ele>237.580000000000013</ele>
        <time>2015-04-09T07:34:34Z</time>
      </trkpt>
      <trkpt lat="47.205345025286078" lon="16.589095965027809">
        <ele>239.02000000000001</ele>
        <time>2015-04-09T07:34:46Z</time>
      </trkpt>
      <trkpt lat="47.205273024737835" lon="16.588615011423826">
        <ele>239.509999999999991</ele>
        <time>2015-04-09T07:35:01Z</time>
      </trkpt>
      <trkpt lat="47.205173028632998" lon="16.588013023138046">
        <ele>239.02000000000001</ele>
        <time>2015-04-09T07:35:15Z</time>
      </trkpt>
      <trkpt lat="47.205040007829666" lon="16.58735797740519">
        <ele>239.990000000000009</ele>
        <time>2015-04-09T07:35:28Z</time>
      </trkpt>
      <trkpt lat="47.204776983708143" lon="16.586332032456994">
        <ele>239.02000000000001</ele>
        <time>2015-04-09T07:35:45Z</time>
      </trkpt>
      <trkpt lat="47.204334000125527" lon="16.584815997630358">
        <ele>239.02000000000001</ele>
        <time>2015-04-09T07:36:06Z</time>
      </trkpt>
      <trkpt lat="47.20405999571085" lon="16.583629958331585">
        <ele>237.580000000000013</ele>
        <time>2015-04-09T07:36:22Z</time>
      </trkpt>
      <trkpt lat="47.203751038759947" lon="16.582003030925989">
        <ele>234.699999999999989</ele>
        <time>2015-04-09T07:36:42Z</time>
      </trkpt>
      <trkpt lat="47.20339204184711" lon="16.580603001639247">
        <ele>232.300000000000011</ele>
        <time>2015-04-09T07:36:58Z</time>
      </trkpt>
      <trkpt lat="47.203045031055808" lon="16.579327024519444">
        <ele>233.740000000000009</ele>
        <time>2015-04-09T07:37:14Z</time>
      </trkpt>
      <trkpt lat="47.202812014147639" lon="16.578379031270742">
        <ele>237.099999999999994</ele>
        <time>2015-04-09T07:37:29Z</time>
      </trkpt>
      <trkpt lat="47.202720986679196" lon="16.577922971919179">
        <ele>239.02000000000001</ele>
        <time>2015-04-09T07:37:39Z</time>
      </trkpt>
      <trkpt lat="47.202682010829449" lon="16.577725997194648">
        <ele>239.509999999999991</ele>
        <time>2015-04-09T07:37:43Z</time>
      </trkpt>
      <trkpt lat="47.202557036653161" lon="16.577099030837417">
        <ele>241.430000000000007</ele>
        <time>2015-04-09T07:37:57Z</time>
      </trkpt>
      <trkpt lat="47.202445976436138" lon="16.576583962887526">
        <ele>242.389999999999986</ele>
        <time>2015-04-09T07:38:10Z</time>
      </trkpt>
      <trkpt lat="47.20229703001678" lon="16.576112983748317">
        <ele>243.349999999999994</ele>
        <time>2015-04-09T07:38:20Z</time>
      </trkpt>
      <trkpt lat="47.202011039480567" lon="16.57534796744585">
        <ele>244.789999999999992</ele>
        <time>2015-04-09T07:38:36Z</time>
      </trkpt>
      <trkpt lat="47.201622035354376" lon="16.574603989720345">
        <ele>245.27000000000001</ele>
        <time>2015-04-09T07:38:52Z</time>
      </trkpt>
      <trkpt lat="47.200958020985126" lon="16.573673011735082">
        <ele>246.22999999999999</ele>
        <time>2015-04-09T07:39:12Z</time>
      </trkpt>
      <trkpt lat="47.200500033795834" lon="16.573035987094045">
        <ele>247.199999999999989</ele>
        <time>2015-04-09T07:39:27Z</time>
      </trkpt>
      <trkpt lat="47.200099965557456" lon="16.572651006281376">
        <ele>249.120000000000005</ele>
        <time>2015-04-09T07:39:41Z</time>
      </trkpt>
      <trkpt lat="47.199901985004544" lon="16.572496024891734">
        <ele>249.120000000000005</ele>
        <time>2015-04-09T07:39:47Z</time>
      </trkpt>
      <trkpt lat="47.199177034199238" lon="16.571723967790604">
        <ele>251.039999999999992</ele>
        <time>2015-04-09T07:40:09Z</time>
      </trkpt>
      <trkpt lat="47.19862399622798" lon="16.570887034758925">
        <ele>251.039999999999992</ele>
        <time>2015-04-09T07:40:27Z</time>
      </trkpt>
      <trkpt lat="47.198124015703797" lon="16.569871986284852">
        <ele>251.52000000000001</ele>
        <time>2015-04-09T07:40:45Z</time>
      </trkpt>
      <trkpt lat="47.197762001305819" lon="16.56885702162981">
        <ele>251.52000000000001</ele>
        <time>2015-04-09T07:41:01Z</time>
      </trkpt>
      <trkpt lat="47.197392024099827" lon="16.56795303337276">
        <ele>252</ele>
        <time>2015-04-09T07:41:17Z</time>
      </trkpt>
      <trkpt lat="47.197127994149923" lon="16.567279966548085">
        <ele>252</ele>
        <time>2015-04-09T07:41:30Z</time>
      </trkpt>
      <trkpt lat="47.196853989735246" lon="16.566262990236282">
        <ele>252.47999999999999</ele>
        <time>2015-04-09T07:41:45Z</time>
      </trkpt>
      <trkpt lat="47.196804033592343" lon="16.566051011905074">
        <ele>252.47999999999999</ele>
        <time>2015-04-09T07:41:48Z</time>
      </trkpt>
      <trkpt lat="47.196723986417055" lon="16.565781030803919">
        <ele>252.47999999999999</ele>
        <time>2015-04-09T07:41:52Z</time>
      </trkpt>
      <trkpt lat="47.196617033332586" lon="16.565474001690745">
        <ele>252.960000000000008</ele>
        <time>2015-04-09T07:41:57Z</time>
      </trkpt>
      <trkpt lat="47.196147982031107" lon="16.564521985128522">
        <ele>253.930000000000007</ele>
        <time>2015-04-09T07:42:14Z</time>
      </trkpt>
      <trkpt lat="47.196116968989372" lon="16.564460964873433">
        <ele>253.930000000000007</ele>
        <time>2015-04-09T07:42:15Z</time>
      </trkpt>
      <trkpt lat="47.195670967921615" lon="16.563320020213723">
        <ele>254.409999999999997</ele>
        <time>2015-04-09T07:42:33Z</time>
      </trkpt>
      <trkpt lat="47.195221027359366" lon="16.562404967844486">
        <ele>253.930000000000007</ele>
        <time>2015-04-09T07:42:48Z</time>
      </trkpt>
      <trkpt lat="47.194739989936352" lon="16.561411041766405">
        <ele>253.439999999999998</ele>
        <time>2015-04-09T07:43:04Z</time>
      </trkpt>
      <trkpt lat="47.194431032985449" lon="16.560348970815539">
        <ele>252.960000000000008</ele>
        <time>2015-04-09T07:43:19Z</time>
      </trkpt>
      <trkpt lat="47.194190975278616" lon="16.559307016432285">
        <ele>253.439999999999998</ele>
        <time>2015-04-09T07:43:35Z</time>
      </trkpt>
      <trkpt lat="47.194179994985461" lon="16.559173995628953">
        <ele>252.960000000000008</ele>
        <time>2015-04-09T07:43:37Z</time>
      </trkpt>
      <trkpt lat="47.19424101524055" lon="16.558497995138168">
        <ele>252.960000000000008</ele>
        <time>2015-04-09T07:43:47Z</time>
      </trkpt>
      <trkpt lat="47.194416029378772" lon="16.557519994676113">
        <ele>252.47999999999999</ele>
        <time>2015-04-09T07:44:01Z</time>
      </trkpt>
      <trkpt lat="47.194500016048551" lon="16.557093020528555">
        <ele>252</ele>
        <time>2015-04-09T07:44:07Z</time>
      </trkpt>
      <trkpt lat="47.194530023261905" lon="16.556875007227063">
        <ele>252.47999999999999</ele>
        <time>2015-04-09T07:44:10Z</time>
      </trkpt>
      <trkpt lat="47.194533962756395" lon="16.556660011410713">
        <ele>252.47999999999999</ele>
        <time>2015-04-09T07:44:13Z</time>
      </trkpt>
      <trkpt lat="47.194510996341705" lon="16.556448033079505">
        <ele>252.47999999999999</ele>
        <time>2015-04-09T07:44:16Z</time>
      </trkpt>
      <trkpt lat="47.194202039390802" lon="16.555659966543317">
        <ele>252.47999999999999</ele>
        <time>2015-04-09T07:44:28Z</time>
      </trkpt>
      <trkpt lat="47.193783028051257" lon="16.554562021046877">
        <ele>253.930000000000007</ele>
        <time>2015-04-09T07:44:46Z</time>
      </trkpt>
      <trkpt lat="47.193427970632911" lon="16.553682005032897">
        <ele>255.370000000000005</ele>
        <time>2015-04-09T07:45:04Z</time>
      </trkpt>
      <trkpt lat="47.19316896982491" lon="16.552877007052302">
        <ele>256.810000000000002</ele>
        <time>2015-04-09T07:45:20Z</time>
      </trkpt>
      <trkpt lat="47.192879039794207" lon="16.551832035183907">
        <ele>257.29000000000002</ele>
        <time>2015-04-09T07:45:38Z</time>
      </trkpt>
      <trkpt lat="47.192589025944471" lon="16.550612971186638">
        <ele>258.730000000000018</ele>
        <time>2015-04-09T07:45:56Z</time>
      </trkpt>
      <trkpt lat="47.192119974642992" lon="16.549552995711565">
        <ele>259.689999999999998</ele>
        <time>2015-04-09T07:46:14Z</time>
      </trkpt>
      <trkpt lat="47.1916429605335" lon="16.548860985785723">
        <ele>259.689999999999998</ele>
        <time>2015-04-09T07:46:30Z</time>
      </trkpt>
      <trkpt lat="47.191073996946216" lon="16.548325968906283">
        <ele>260.649999999999977</ele>
        <time>2015-04-09T07:46:45Z</time>
      </trkpt>
      <trkpt lat="47.190463962033391" lon="16.547749964520335">
        <ele>260.170000000000016</ele>
        <time>2015-04-09T07:46:59Z</time>
      </trkpt>
      <trkpt lat="47.189800031483173" lon="16.546911019831896">
        <ele>261.139999999999986</ele>
        <time>2015-04-09T07:47:17Z</time>
      </trkpt>
      <trkpt lat="47.189074996858835" lon="16.545874010771513">
        <ele>262.100000000000023</ele>
        <time>2015-04-09T07:47:38Z</time>
      </trkpt>
      <trkpt lat="47.188622038811445" lon="16.544675985351205">
        <ele>262.100000000000023</ele>
        <time>2015-04-09T07:47:57Z</time>
      </trkpt>
      <trkpt lat="47.188171008601785" lon="16.543377041816711">
        <ele>263.54000000000002</ele>
        <time>2015-04-09T07:48:16Z</time>
      </trkpt>
      <trkpt lat="47.187846964225173" lon="16.542379008606076">
        <ele>263.060000000000002</ele>
        <time>2015-04-09T07:48:34Z</time>
      </trkpt>
      <trkpt lat="47.187584023922682" lon="16.541460016742349">
        <ele>263.54000000000002</ele>
        <time>2015-04-09T07:48:50Z</time>
      </trkpt>
      <trkpt lat="47.187362993136048" lon="16.540987025946379">
        <ele>263.54000000000002</ele>
        <time>2015-04-09T07:48:58Z</time>
      </trkpt>
      <trkpt lat="47.186562018468976" lon="16.540293004363775">
        <ele>261.620000000000005</ele>
        <time>2015-04-09T07:49:14Z</time>
      </trkpt>
      <trkpt lat="47.185721984133124" lon="16.539463028311729">
        <ele>258.730000000000018</ele>
        <time>2015-04-09T07:49:30Z</time>
      </trkpt>
      <trkpt lat="47.185504976660013" lon="16.539252977818251">
        <ele>258.730000000000018</ele>
        <time>2015-04-09T07:49:34Z</time>
      </trkpt>
      <trkpt lat="47.185016982257366" lon="16.53877797536552">
        <ele>255.370000000000005</ele>
        <time>2015-04-09T07:49:43Z</time>
      </trkpt>
      <trkpt lat="47.184662008658051" lon="16.538402969017625">
        <ele>253.439999999999998</ele>
        <time>2015-04-09T07:49:49Z</time>
      </trkpt>
      <trkpt lat="47.184475008398294" lon="16.538168024271727">
        <ele>251.52000000000001</ele>
        <time>2015-04-09T07:49:52Z</time>
      </trkpt>
      <trkpt lat="47.184288008138537" lon="16.537920003756881">
        <ele>250.560000000000002</ele>
        <time>2015-04-09T07:49:55Z</time>
      </trkpt>
      <trkpt lat="47.183655006811023" lon="16.536831026896834">
        <ele>249.120000000000005</ele>
        <time>2015-04-09T07:50:08Z</time>
      </trkpt>
      <trkpt lat="47.183204982429743" lon="16.536037009209394">
        <ele>251.52000000000001</ele>
        <time>2015-04-09T07:50:20Z</time>
      </trkpt>
      <trkpt lat="47.182956961914897" lon="16.53568597510457">
        <ele>254.889999999999986</ele>
        <time>2015-04-09T07:50:30Z</time>
      </trkpt>
      <trkpt lat="47.182715982198715" lon="16.535382969304919">
        <ele>256.329999999999984</ele>
        <time>2015-04-09T07:50:40Z</time>
      </trkpt>
      <trkpt lat="47.182438038289547" lon="16.535052973777056">
        <ele>258.25</ele>
        <time>2015-04-09T07:50:51Z</time>
      </trkpt>
      <trkpt lat="47.182259000837803" lon="16.534835966303945">
        <ele>259.689999999999998</ele>
        <time>2015-04-09T07:51:01Z</time>
      </trkpt>
      <trkpt lat="47.18195297755301" lon="16.534542012959719">
        <ele>261.620000000000005</ele>
        <time>2015-04-09T07:51:12Z</time>
      </trkpt>
      <trkpt lat="47.181464983150363" lon="16.534197013825178">
        <ele>261.620000000000005</ele>
        <time>2015-04-09T07:51:27Z</time>
      </trkpt>
      <trkpt lat="47.180695021525025" lon="16.533626960590482">
        <ele>263.060000000000002</ele>
        <time>2015-04-09T07:51:46Z</time>
      </trkpt>
      <trkpt lat="47.180050034075975" lon="16.532915001735091">
        <ele>263.060000000000002</ele>
        <time>2015-04-09T07:52:02Z</time>
      </trkpt>
      <trkpt lat="47.179336985573173" lon="16.532222991809249">
        <ele>263.060000000000002</ele>
        <time>2015-04-09T07:52:19Z</time>
      </trkpt>
      <trkpt lat="47.179118972271681" lon="16.53203196823597">
        <ele>263.060000000000002</ele>
        <time>2015-04-09T07:52:24Z</time>
      </trkpt>
      <trkpt lat="47.178416987881064" lon="16.531531987711787">
        <ele>263.060000000000002</ele>
        <time>2015-04-09T07:52:39Z</time>
      </trkpt>
      <trkpt lat="47.177620036527514" lon="16.530716009438038">
        <ele>262.579999999999984</ele>
        <time>2015-04-09T07:52:55Z</time>
      </trkpt>
      <trkpt lat="47.176983011886477" lon="16.529832975938916">
        <ele>261.139999999999986</ele>
        <time>2015-04-09T07:53:10Z</time>
      </trkpt>
      <trkpt lat="47.176829958334565" lon="16.529456963762641">
        <ele>262.100000000000023</ele>
        <time>2015-04-09T07:53:15Z</time>
      </trkpt>
      <trkpt lat="47.176369037479162" lon="16.528281988576055">
        <ele>259.689999999999998</ele>
        <time>2015-04-09T07:53:30Z</time>
      </trkpt>
      <trkpt lat="47.17589202336967" lon="16.527329972013831">
        <ele>260.170000000000016</ele>
        <time>2015-04-09T07:53:44Z</time>
      </trkpt>
      <trkpt lat="47.175712985917926" lon="16.527055967599154">
        <ele>259.689999999999998</ele>
        <time>2015-04-09T07:53:49Z</time>
      </trkpt>
      <trkpt lat="47.17496900819242" lon="16.526366975158453">
        <ele>260.170000000000016</ele>
        <time>2015-04-09T07:54:05Z</time>
      </trkpt>
      <trkpt lat="47.174370037391782" lon="16.525788959115744">
        <ele>262.579999999999984</ele>
        <time>2015-04-09T07:54:21Z</time>
      </trkpt>
      <trkpt lat="47.173824040219188" lon="16.524981027469039">
        <ele>263.54000000000002</ele>
        <time>2015-04-09T07:54:39Z</time>
      </trkpt>
      <trkpt lat="47.173308972269297" lon="16.524180974811316">
        <ele>263.54000000000002</ele>
        <time>2015-04-09T07:54:56Z</time>
      </trkpt>
      <trkpt lat="47.173191038891673" lon="16.523985005915165">
        <ele>264.019999999999982</ele>
        <time>2015-04-09T07:55:00Z</time>
      </trkpt>
      <trkpt lat="47.172745037823915" lon="16.523142037913203">
        <ele>264.5</ele>
        <time>2015-04-09T07:55:16Z</time>
      </trkpt>
      <trkpt lat="47.172195017337799" lon="16.522069992497563">
        <ele>264.5</ele>
        <time>2015-04-09T07:55:35Z</time>
      </trkpt>
      <trkpt lat="47.172096027061343" lon="16.521895984187722">
        <ele>264.980000000000018</ele>
        <time>2015-04-09T07:55:38Z</time>
      </trkpt>
      <trkpt lat="47.171523962169886" lon="16.520912032574415">
        <ele>264.5</ele>
        <time>2015-04-09T07:55:56Z</time>
      </trkpt>
      <trkpt lat="47.171131018549204" lon="16.520088007673621">
        <ele>264.019999999999982</ele>
        <time>2015-04-09T07:56:11Z</time>
      </trkpt>
      <trkpt lat="47.170821977779269" lon="16.519072037190199">
        <ele>261.139999999999986</ele>
        <time>2015-04-09T07:56:24Z</time>
      </trkpt>
      <trkpt lat="47.170691974461079" lon="16.518539031967521">
        <ele>259.20999999999998</ele>
        <time>2015-04-09T07:56:30Z</time>
      </trkpt>
      <trkpt lat="47.170544033870101" lon="16.517992028966546">
        <ele>256.810000000000002</ele>
        <time>2015-04-09T07:56:35Z</time>
      </trkpt>
      <trkpt lat="47.1704369969666" lon="16.517663961276412">
        <ele>255.370000000000005</ele>
        <time>2015-04-09T07:56:38Z</time>
      </trkpt>
      <trkpt lat="47.17030699364841" lon="16.517377970740199">
        <ele>255.370000000000005</ele>
        <time>2015-04-09T07:56:41Z</time>
      </trkpt>
      <trkpt lat="47.170151006430387" lon="16.517170015722513">
        <ele>255.370000000000005</ele>
        <time>2015-04-09T07:56:44Z</time>
      </trkpt>
      <trkpt lat="47.169513981789351" lon="16.516653019934893">
        <ele>258.25</ele>
        <time>2015-04-09T07:56:58Z</time>
      </trkpt>
      <trkpt lat="47.169247018173337" lon="16.516446992754936">
        <ele>261.620000000000005</ele>
        <time>2015-04-09T07:57:09Z</time>
      </trkpt>
      <trkpt lat="47.168987011536956" lon="16.516139963641763">
        <ele>264.019999999999982</ele>
        <time>2015-04-09T07:57:22Z</time>
      </trkpt>
      <trkpt lat="47.168776961043477" lon="16.515664961189032">
        <ele>265.45999999999998</ele>
        <time>2015-04-09T07:57:34Z</time>
      </trkpt>
      <trkpt lat="47.168560037389398" lon="16.515045035630465">
        <ele>265.45999999999998</ele>
        <time>2015-04-09T07:57:50Z</time>
      </trkpt>
      <trkpt lat="47.168316040188074" lon="16.514399964362383">
        <ele>264.980000000000018</ele>
        <time>2015-04-09T07:58:05Z</time>
      </trkpt>
      <trkpt lat="47.168041029945016" lon="16.513632014393806">
        <ele>264.5</ele>
        <time>2015-04-09T07:58:21Z</time>
      </trkpt>
      <trkpt lat="47.167683038860559" lon="16.51260799728334">
        <ele>265.45999999999998</ele>
        <time>2015-04-09T07:58:37Z</time>
      </trkpt>
      <trkpt lat="47.167239971458912" lon="16.511352974921465">
        <ele>266.420000000000016</ele>
        <time>2015-04-09T07:58:55Z</time>
      </trkpt>
      <trkpt lat="47.166935037821531" lon="16.510491985827684">
        <ele>267.379999999999995</ele>
        <time>2015-04-09T07:59:10Z</time>
      </trkpt>
      <trkpt lat="47.166434973478317" lon="16.509092040359974">
        <ele>267.860000000000014</ele>
        <time>2015-04-09T07:59:32Z</time>
      </trkpt>
      <trkpt lat="47.166018979623914" lon="16.50790398940444">
        <ele>266.899999999999977</ele>
        <time>2015-04-09T07:59:49Z</time>
      </trkpt>
      <trkpt lat="47.165614971891046" lon="16.506795985624194">
        <ele>266.420000000000016</ele>
        <time>2015-04-09T08:00:04Z</time>
      </trkpt>
      <trkpt lat="47.165210964158177" lon="16.505618998780847">
        <ele>266.420000000000016</ele>
        <time>2015-04-09T08:00:21Z</time>
      </trkpt>
      <trkpt lat="47.164767980575562" lon="16.504326006397605">
        <ele>267.379999999999995</ele>
        <time>2015-04-09T08:00:40Z</time>
      </trkpt>
      <trkpt lat="47.16437503695488" lon="16.503124041482806">
        <ele>266.420000000000016</ele>
        <time>2015-04-09T08:00:57Z</time>
      </trkpt>
      <trkpt lat="47.163993995636702" lon="16.502034980803728">
        <ele>266.420000000000016</ele>
        <time>2015-04-09T08:01:12Z</time>
      </trkpt>
      <trkpt lat="47.163657965138555" lon="16.501040970906615">
        <ele>267.379999999999995</ele>
        <time>2015-04-09T08:01:27Z</time>
      </trkpt>
      <trkpt lat="47.16326099820435" lon="16.499845962971449">
        <ele>267.860000000000014</ele>
        <time>2015-04-09T08:01:45Z</time>
      </trkpt>
      <trkpt lat="47.162826983258128" lon="16.498550036922097">
        <ele>267.860000000000014</ele>
        <time>2015-04-09T08:02:04Z</time>
      </trkpt>
      <trkpt lat="47.162418030202389" lon="16.497392999008298">
        <ele>268.829999999999984</ele>
        <time>2015-04-09T08:02:22Z</time>
      </trkpt>
      <trkpt lat="47.162144025787711" lon="16.49662203155458">
        <ele>269.310000000000002</ele>
        <time>2015-04-09T08:02:34Z</time>
      </trkpt>
      <trkpt lat="47.161761978641152" lon="16.495505981147289">
        <ele>269.79000000000002</ele>
        <time>2015-04-09T08:02:51Z</time>
      </trkpt>
      <trkpt lat="47.161342967301607" lon="16.494289012625813">
        <ele>268.350000000000023</ele>
        <time>2015-04-09T08:03:08Z</time>
      </trkpt>
      <trkpt lat="47.160866037011147" lon="16.492952015250921">
        <ele>268.350000000000023</ele>
        <time>2015-04-09T08:03:27Z</time>
      </trkpt>
      <trkpt lat="47.160473009571433" lon="16.491846023127437">
        <ele>267.860000000000014</ele>
        <time>2015-04-09T08:03:43Z</time>
      </trkpt>
      <trkpt lat="47.160075958818197" lon="16.490659983828664">
        <ele>268.350000000000023</ele>
        <time>2015-04-09T08:04:00Z</time>
      </trkpt>
      <trkpt lat="47.159762978553772" lon="16.489720959216356">
        <ele>269.310000000000002</ele>
        <time>2015-04-09T08:04:15Z</time>
      </trkpt>
      <trkpt lat="47.159373974427581" lon="16.488555958494544">
        <ele>269.310000000000002</ele>
        <time>2015-04-09T08:04:32Z</time>
      </trkpt>
      <trkpt lat="47.159087983891368" lon="16.48770896717906">
        <ele>269.310000000000002</ele>
        <time>2015-04-09T08:04:46Z</time>
      </trkpt>
      <trkpt lat="47.158966027200222" lon="16.487365979701281">
        <ele>269.310000000000002</ele>
        <time>2015-04-09T08:04:52Z</time>
      </trkpt>
      <trkpt lat="47.158610969781876" lon="16.4862269628793">
        <ele>269.79000000000002</ele>
        <time>2015-04-09T08:05:10Z</time>
      </trkpt>
      <trkpt lat="47.158221965655684" lon="16.485053999349475">
        <ele>269.79000000000002</ele>
        <time>2015-04-09T08:05:27Z</time>
      </trkpt>
      <trkpt lat="47.15784503147006" lon="16.483953036367893">
        <ele>268.829999999999984</ele>
        <time>2015-04-09T08:05:44Z</time>
      </trkpt>
      <trkpt lat="47.157726008445024" lon="16.483611976727843">
        <ele>268.350000000000023</ele>
        <time>2015-04-09T08:05:51Z</time>
      </trkpt>
      <trkpt lat="47.157519981265068" lon="16.482960032299161">
        <ele>268.829999999999984</ele>
        <time>2015-04-09T08:06:55Z</time>
      </trkpt>
      <trkpt lat="47.157169030979276" lon="16.481931991875172">
        <ele>268.350000000000023</ele>
        <time>2015-04-09T08:07:11Z</time>
      </trkpt>
      <trkpt lat="47.156768962740898" lon="16.480775959789753">
        <ele>268.350000000000023</ele>
        <time>2015-04-09T08:07:27Z</time>
      </trkpt>
      <trkpt lat="47.156371995806694" lon="16.479613976553082">
        <ele>267.379999999999995</ele>
        <time>2015-04-09T08:07:43Z</time>
      </trkpt>
      <trkpt lat="47.155982991680503" lon="16.478507984429598">
        <ele>264.980000000000018</ele>
        <time>2015-04-09T08:07:58Z</time>
      </trkpt>
      <trkpt lat="47.155623994767666" lon="16.477507017552853">
        <ele>265.939999999999998</ele>
        <time>2015-04-09T08:08:12Z</time>
      </trkpt>
      <trkpt lat="47.155490973964334" lon="16.477161012589931">
        <ele>265.45999999999998</ele>
        <time>2015-04-09T08:08:18Z</time>
      </trkpt>
      <trkpt lat="47.155399024486542" lon="16.476906035095453">
        <ele>264.5</ele>
        <time>2015-04-09T08:08:22Z</time>
      </trkpt>
      <trkpt lat="47.15537304058671" lon="16.47674803622067">
        <ele>264.019999999999982</ele>
        <time>2015-04-09T08:08:24Z</time>
      </trkpt>
      <trkpt lat="47.155448980629444" lon="16.475899033248425">
        <ele>260.170000000000016</ele>
        <time>2015-04-09T08:08:33Z</time>
      </trkpt>
      <trkpt lat="47.155478987842798" lon="16.475809011608362">
        <ele>259.20999999999998</ele>
        <time>2015-04-09T08:08:34Z</time>
      </trkpt>
      <trkpt lat="47.155692977830768" lon="16.47539502941072">
        <ele>256.810000000000002</ele>
        <time>2015-04-09T08:08:39Z</time>
      </trkpt>
      <trkpt lat="47.155993971973658" lon="16.474936036393046">
        <ele>253.439999999999998</ele>
        <time>2015-04-09T08:08:45Z</time>
      </trkpt>
      <trkpt lat="47.156039988622069" lon="16.474854983389378">
        <ele>252.960000000000008</ele>
        <time>2015-04-09T08:08:46Z</time>
      </trkpt>
      <trkpt lat="47.156226988881826" lon="16.474507972598076">
        <ele>250.080000000000013</ele>
        <time>2015-04-09T08:08:51Z</time>
      </trkpt>
      <trkpt lat="47.156303012743592" lon="16.474261963739991">
        <ele>248.639999999999986</ele>
        <time>2015-04-09T08:08:55Z</time>
      </trkpt>
      <trkpt lat="47.15634198859334" lon="16.474036993458867">
        <ele>247.199999999999989</ele>
        <time>2015-04-09T08:09:04Z</time>
      </trkpt>
      <trkpt lat="47.15634198859334" lon="16.474036993458867">
        <ele>247.680000000000007</ele>
        <time>2015-04-09T08:09:32Z</time>
      </trkpt>
      <trkpt lat="47.15634198859334" lon="16.474036993458867">
        <ele>246.22999999999999</ele>
        <time>2015-04-09T08:09:37Z</time>
      </trkpt>
      <trkpt lat="47.15634198859334" lon="16.473918976262212">
        <ele>245.75</ele>
        <time>2015-04-09T08:09:41Z</time>
      </trkpt>
      <trkpt lat="47.156398985534906" lon="16.47324800491333">
        <ele>242.389999999999986</ele>
        <time>2015-04-09T08:09:50Z</time>
      </trkpt>
      <trkpt lat="47.156497975811362" lon="16.472506960853934">
        <ele>239.02000000000001</ele>
        <time>2015-04-09T08:09:58Z</time>
      </trkpt>
      <trkpt lat="47.156730992719531" lon="16.471479004248977">
        <ele>236.620000000000005</ele>
        <time>2015-04-09T08:10:10Z</time>
      </trkpt>
      <trkpt lat="47.157139023765922" lon="16.470707030966878">
        <ele>237.580000000000013</ele>
        <time>2015-04-09T08:10:23Z</time>
      </trkpt>
      <trkpt lat="47.157214963808656" lon="16.4700030349195">
        <ele>238.060000000000002</ele>
        <time>2015-04-09T08:10:33Z</time>
      </trkpt>
      <trkpt lat="47.157161990180612" lon="16.469141039997339">
        <ele>237.580000000000013</ele>
        <time>2015-04-09T08:10:47Z</time>
      </trkpt>
      <trkpt lat="47.156959986314178" lon="16.467818962410092">
        <ele>234.219999999999999</ele>
        <time>2015-04-09T08:11:03Z</time>
      </trkpt>
      <trkpt lat="47.15694397687912" lon="16.467719972133636">
        <ele>234.219999999999999</ele>
        <time>2015-04-09T08:11:04Z</time>
      </trkpt>
      <trkpt lat="47.156726969406009" lon="16.466408036649227">
        <ele>231.810000000000002</ele>
        <time>2015-04-09T08:11:18Z</time>
      </trkpt>
      <trkpt lat="47.156653963029385" lon="16.465606978163123">
        <ele>231.810000000000002</ele>
        <time>2015-04-09T08:11:29Z</time>
      </trkpt>
      <trkpt lat="47.156627979129553" lon="16.464748000726104">
        <ele>231.810000000000002</ele>
        <time>2015-04-09T08:11:46Z</time>
      </trkpt>
      <trkpt lat="47.156554972752929" lon="16.46426604129374">
        <ele>230.849999999999994</ele>
        <time>2015-04-09T08:11:56Z</time>
      </trkpt>
      <trkpt lat="47.156391022726893" lon="16.463119983673096">
        <ele>231.330000000000013</ele>
        <time>2015-04-09T08:12:12Z</time>
      </trkpt>
      <trkpt lat="47.156246015802026" lon="16.462037963792682">
        <ele>230.370000000000005</ele>
        <time>2015-04-09T08:12:27Z</time>
      </trkpt>
      <trkpt lat="47.156005958095193" lon="16.460917973890901">
        <ele>230.849999999999994</ele>
        <time>2015-04-09T08:12:42Z</time>
      </trkpt>
      <trkpt lat="47.155421990901232" lon="16.45969002507627">
        <ele>231.330000000000013</ele>
        <time>2015-04-09T08:13:01Z</time>
      </trkpt>
      <trkpt lat="47.155086966231465" lon="16.458548996597528">
        <ele>230.370000000000005</ele>
        <time>2015-04-09T08:13:17Z</time>
      </trkpt>
      <trkpt lat="47.155089983716607" lon="16.457406962290406">
        <ele>230.849999999999994</ele>
        <time>2015-04-09T08:13:32Z</time>
      </trkpt>
      <trkpt lat="47.15505201369524" lon="16.457051988691092">
        <ele>230.370000000000005</ele>
        <time>2015-04-09T08:13:37Z</time>
      </trkpt>
      <trkpt lat="47.154818996787071" lon="16.456022020429373">
        <ele>230.849999999999994</ele>
        <time>2015-04-09T08:13:53Z</time>
      </trkpt>
      <trkpt lat="47.154544992372394" lon="16.454929020255804">
        <ele>229.889999999999986</ele>
        <time>2015-04-09T08:14:09Z</time>
      </trkpt>
      <trkpt lat="47.154190018773079" lon="16.453663017600775">
        <ele>229.889999999999986</ele>
        <time>2015-04-09T08:14:27Z</time>
      </trkpt>
      <trkpt lat="47.153748041018844" lon="16.452420987188816">
        <ele>229.409999999999997</ele>
        <time>2015-04-09T08:14:45Z</time>
      </trkpt>
      <trkpt lat="47.153235990554094" lon="16.451651025563478">
        <ele>229.409999999999997</ele>
        <time>2015-04-09T08:15:00Z</time>
      </trkpt>
      <trkpt lat="47.153198020532727" lon="16.451609032228589">
        <ele>228.930000000000007</ele>
        <time>2015-04-09T08:15:01Z</time>
      </trkpt>
      <trkpt lat="47.153029963374138" lon="16.451244000345469">
        <ele>228.449999999999989</ele>
        <time>2015-04-09T08:15:11Z</time>
      </trkpt>
      <trkpt lat="47.153029963374138" lon="16.451244000345469">
        <ele>228.930000000000007</ele>
        <time>2015-04-09T08:15:36Z</time>
      </trkpt>
      <trkpt lat="47.153029963374138" lon="16.451244000345469">
        <ele>229.409999999999997</ele>
        <time>2015-04-09T08:15:41Z</time>
      </trkpt>
      <trkpt lat="47.153029963374138" lon="16.451191026717424">
        <ele>229.889999999999986</ele>
        <time>2015-04-09T08:15:44Z</time>
      </trkpt>
      <trkpt lat="47.153111016377807" lon="16.451147021725774">
        <ele>227.969999999999999</ele>
        <time>2015-04-09T08:15:48Z</time>
      </trkpt>
      <trkpt lat="47.153530027717352" lon="16.451180968433619">
        <ele>229.409999999999997</ele>
        <time>2015-04-09T08:16:00Z</time>
      </trkpt>
      <trkpt lat="47.153762960806489" lon="16.451130006462336">
        <ele>229.409999999999997</ele>
        <time>2015-04-09T08:16:06Z</time>
      </trkpt>
      <trkpt lat="47.154399985447526" lon="16.451002014800906">
        <ele>228.930000000000007</ele>
        <time>2015-04-09T08:16:22Z</time>
      </trkpt>
      <trkpt lat="47.155258040875196" lon="16.45081702619791">
        <ele>229.409999999999997</ele>
        <time>2015-04-09T08:16:43Z</time>
      </trkpt>
      <trkpt lat="47.156029008328915" lon="16.45064402371645">
        <ele>229.409999999999997</ele>
        <time>2015-04-09T08:17:02Z</time>
      </trkpt>
      <trkpt lat="47.156895026564598" lon="16.450459035113454">
        <ele>228.930000000000007</ele>
        <time>2015-04-09T08:17:23Z</time>
      </trkpt>
      <trkpt lat="47.157654007896781" lon="16.450292989611626">
        <ele>229.889999999999986</ele>
        <time>2015-04-09T08:17:41Z</time>
      </trkpt>
      <trkpt lat="47.158454982563853" lon="16.450116969645023">
        <ele>229.409999999999997</ele>
        <time>2015-04-09T08:18:00Z</time>
      </trkpt>
      <trkpt lat="47.159328041598201" lon="16.449928041547537">
        <ele>229.889999999999986</ele>
        <time>2015-04-09T08:18:21Z</time>
      </trkpt>
      <trkpt lat="47.159823998808861" lon="16.449859980493784">
        <ele>229.889999999999986</ele>
        <time>2015-04-09T08:18:35Z</time>
      </trkpt>
      <trkpt lat="47.16050704009831" lon="16.449674991890788">
        <ele>230.370000000000005</ele>
        <time>2015-04-09T08:18:51Z</time>
      </trkpt>
      <trkpt lat="47.161423014476895" lon="16.449461001902819">
        <ele>230.370000000000005</ele>
        <time>2015-04-09T08:19:12Z</time>
      </trkpt>
      <trkpt lat="47.162280986085534" lon="16.449209041893482">
        <ele>230.849999999999994</ele>
        <time>2015-04-09T08:19:31Z</time>
      </trkpt>
      <trkpt lat="47.162322979420424" lon="16.449199989438057">
        <ele>230.849999999999994</ele>
        <time>2015-04-09T08:19:32Z</time>
      </trkpt>
      <trkpt lat="47.162903007119894" lon="16.449037967249751">
        <ele>230.849999999999994</ele>
        <time>2015-04-09T08:19:46Z</time>
      </trkpt>
      <trkpt lat="47.163718985393643" lon="16.448801010847092">
        <ele>231.330000000000013</ele>
        <time>2015-04-09T08:20:05Z</time>
      </trkpt>
      <trkpt lat="47.164360033348203" lon="16.448544021695852">
        <ele>231.330000000000013</ele>
        <time>2015-04-09T08:20:22Z</time>
      </trkpt>
      <trkpt lat="47.164471009746194" lon="16.448619961738586">
        <ele>229.409999999999997</ele>
        <time>2015-04-09T08:39:34Z</time>
      </trkpt>
      <trkpt lat="47.164906030520797" lon="16.448618033900857">
        <ele>229.889999999999986</ele>
        <time>2015-04-09T08:39:45Z</time>
      </trkpt>
      <trkpt lat="47.165370974689722" lon="16.448587020859122">
        <ele>230.849999999999994</ele>
        <time>2015-04-09T08:39:59Z</time>
      </trkpt>
      <trkpt lat="47.165400981903076" lon="16.448567993938923">
        <ele>230.370000000000005</ele>
        <time>2015-04-09T08:40:00Z</time>
      </trkpt>
      <trkpt lat="47.165482034906745" lon="16.448355009779334">
        <ele>230.370000000000005</ele>
        <time>2015-04-09T08:40:05Z</time>
      </trkpt>
      <trkpt lat="47.165421014651656" lon="16.447392012923956">
        <ele>231.330000000000013</ele>
        <time>2015-04-09T08:40:21Z</time>
      </trkpt>
      <trkpt lat="47.165412968024611" lon="16.447211969643831">
        <ele>231.330000000000013</ele>
        <time>2015-04-09T08:40:24Z</time>
      </trkpt>
      <trkpt lat="47.165348008275032" lon="16.446462962776423">
        <ele>231.330000000000013</ele>
        <time>2015-04-09T08:40:37Z</time>
      </trkpt>
      <trkpt lat="47.165253041312099" lon="16.445469036698341">
        <ele>232.300000000000011</ele>
        <time>2015-04-09T08:40:54Z</time>
      </trkpt>
      <trkpt lat="47.165131000801921" lon="16.444443007931113">
        <ele>232.780000000000001</ele>
        <time>2015-04-09T08:41:10Z</time>
      </trkpt>
      <trkpt lat="47.164993034675717" lon="16.44325302913785">
        <ele>233.259999999999991</ele>
        <time>2015-04-09T08:41:28Z</time>
      </trkpt>
      <trkpt lat="47.164924973621964" lon="16.442577028647065">
        <ele>232.300000000000011</ele>
        <time>2015-04-09T08:41:41Z</time>
      </trkpt>
      <trkpt lat="47.164813997223973" lon="16.44168502651155">
        <ele>233.740000000000009</ele>
        <time>2015-04-09T08:41:56Z</time>
      </trkpt>
      <trkpt lat="47.164798993617296" lon="16.441570026800036">
        <ele>233.740000000000009</ele>
        <time>2015-04-09T08:41:58Z</time>
      </trkpt>
      <trkpt lat="47.164706960320473" lon="16.440728986635804">
        <ele>234.219999999999999</ele>
        <time>2015-04-09T08:42:13Z</time>
      </trkpt>
      <trkpt lat="47.164622973650694" lon="16.440447019413114">
        <ele>234.219999999999999</ele>
        <time>2015-04-09T08:42:23Z</time>
      </trkpt>
      <trkpt lat="47.164585003629327" lon="16.440430004149675">
        <ele>234.699999999999989</ele>
        <time>2015-04-09T08:42:37Z</time>
      </trkpt>
      <trkpt lat="47.164585003629327" lon="16.440430004149675">
        <ele>234.219999999999999</ele>
        <time>2015-04-09T08:42:52Z</time>
      </trkpt>
      <trkpt lat="47.164585003629327" lon="16.440423969179392">
        <ele>234.699999999999989</ele>
        <time>2015-04-09T08:43:36Z</time>
      </trkpt>
      <trkpt lat="47.164585003629327" lon="16.440420029684901">
        <ele>234.699999999999989</ele>
        <time>2015-04-09T08:44:15Z</time>
      </trkpt>
      <trkpt lat="47.164574023336172" lon="16.440422041341662">
        <ele>234.219999999999999</ele>
        <time>2015-04-09T08:44:25Z</time>
      </trkpt>
      <trkpt lat="47.164016962051392" lon="16.440539974719286">
        <ele>231.810000000000002</ele>
        <time>2015-04-09T08:49:56Z</time>
      </trkpt>
      <trkpt lat="47.162952041253448" lon="16.440772991627455">
        <ele>232.300000000000011</ele>
        <time>2015-04-09T08:50:13Z</time>
      </trkpt>
      <trkpt lat="47.161999018862844" lon="16.440974995493889">
        <ele>230.849999999999994</ele>
        <time>2015-04-09T08:50:28Z</time>
      </trkpt>
      <trkpt lat="47.160919010639191" lon="16.441210024058819">
        <ele>229.889999999999986</ele>
        <time>2015-04-09T08:50:45Z</time>
      </trkpt>
      <trkpt lat="47.160018961876631" lon="16.441408004611731">
        <ele>230.370000000000005</ele>
        <time>2015-04-09T08:51:00Z</time>
      </trkpt>
      <trkpt lat="47.158771986141801" lon="16.441693995147943">
        <ele>229.889999999999986</ele>
        <time>2015-04-09T08:51:21Z</time>
      </trkpt>
      <trkpt lat="47.157805971801281" lon="16.441902033984661">
        <ele>229.889999999999986</ele>
        <time>2015-04-09T08:51:38Z</time>
      </trkpt>
      <trkpt lat="47.156433016061783" lon="16.442182995378971">
        <ele>229.409999999999997</ele>
        <time>2015-04-09T08:52:01Z</time>
      </trkpt>
      <trkpt lat="47.155433977022767" lon="16.442368989810348">
        <ele>228.930000000000007</ele>
        <time>2015-04-09T08:52:17Z</time>
      </trkpt>
      <trkpt lat="47.15445295907557" lon="16.442421041429043">
        <ele>227.969999999999999</ele>
        <time>2015-04-09T08:52:32Z</time>
      </trkpt>
      <trkpt lat="47.153232973068953" lon="16.442377036437392">
        <ele>227.009999999999991</ele>
        <time>2015-04-09T08:52:51Z</time>
      </trkpt>
      <trkpt lat="47.15210703201592" lon="16.442220965400338">
        <ele>227.009999999999991</ele>
        <time>2015-04-09T08:53:09Z</time>
      </trkpt>
      <trkpt lat="47.150989975780249" lon="16.442043017596006">
        <ele>226.530000000000001</ele>
        <time>2015-04-09T08:53:27Z</time>
      </trkpt>
      <trkpt lat="47.149834027513862" lon="16.441850988194346">
        <ele>226.050000000000011</ele>
        <time>2015-04-09T08:53:47Z</time>
      </trkpt>
      <trkpt lat="47.149089965969324" lon="16.441730037331581">
        <ele>226.530000000000001</ele>
        <time>2015-04-09T08:54:04Z</time>
      </trkpt>
      <trkpt lat="47.148411031812429" lon="16.441626017913222">
        <ele>226.530000000000001</ele>
        <time>2015-04-09T08:54:19Z</time>
      </trkpt>
      <trkpt lat="47.147609973326325" lon="16.441474976018071">
        <ele>226.530000000000001</ele>
        <time>2015-04-09T08:54:35Z</time>
      </trkpt>
      <trkpt lat="47.146610012277961" lon="16.44130096770823">
        <ele>227.009999999999991</ele>
        <time>2015-04-09T08:54:52Z</time>
      </trkpt>
      <trkpt lat="47.146454025059938" lon="16.441236007958651">
        <ele>226.530000000000001</ele>
        <time>2015-04-09T08:54:55Z</time>
      </trkpt>
      <trkpt lat="47.145656989887357" lon="16.440885979682207">
        <ele>227.009999999999991</ele>
        <time>2015-04-09T08:55:10Z</time>
      </trkpt>
      <trkpt lat="47.144389981403947" lon="16.440508039668202">
        <ele>226.050000000000011</ele>
        <time>2015-04-09T08:55:32Z</time>
      </trkpt>
      <trkpt lat="47.14345196262002" lon="16.440235041081905">
        <ele>226.050000000000011</ele>
        <time>2015-04-09T08:55:50Z</time>
      </trkpt>
      <trkpt lat="47.142962962388992" lon="16.440097996965051">
        <ele>226.050000000000011</ele>
        <time>2015-04-09T08:56:05Z</time>
      </trkpt>
      <trkpt lat="47.142951982095838" lon="16.440100008621812">
        <ele>226.050000000000011</ele>
        <time>2015-04-09T08:56:19Z</time>
      </trkpt>
      <trkpt lat="47.142944019287825" lon="16.440102020278573">
        <ele>226.050000000000011</ele>
        <time>2015-04-09T08:56:41Z</time>
      </trkpt>
      <trkpt lat="47.142929015681148" lon="16.440105037763715">
        <ele>226.050000000000011</ele>
        <time>2015-04-09T08:56:42Z</time>
      </trkpt>
      <trkpt lat="47.142918035387993" lon="16.440108977258205">
        <ele>226.050000000000011</ele>
        <time>2015-04-09T08:56:43Z</time>
      </trkpt>
      <trkpt lat="47.142899008467793" lon="16.440108977258205">
        <ele>226.050000000000011</ele>
        <time>2015-04-09T08:56:44Z</time>
      </trkpt>
      <trkpt lat="47.142875958234072" lon="16.440102020278573">
        <ele>226.050000000000011</ele>
        <time>2015-04-09T08:56:45Z</time>
      </trkpt>
      <trkpt lat="47.142852991819382" lon="16.440078970044851">
        <ele>226.050000000000011</ele>
        <time>2015-04-09T08:56:46Z</time>
      </trkpt>
      <trkpt lat="47.142841005697846" lon="16.440041000023484">
        <ele>226.050000000000011</ele>
        <time>2015-04-09T08:56:47Z</time>
      </trkpt>
      <trkpt lat="47.142833964899182" lon="16.439994983375072">
        <ele>226.050000000000011</ele>
        <time>2015-04-09T08:56:48Z</time>
      </trkpt>
      <trkpt lat="47.142661968246102" lon="16.439565997570753">
        <ele>226.050000000000011</ele>
        <time>2015-04-09T08:56:59Z</time>
      </trkpt>
      <trkpt lat="47.142623998224735" lon="16.439544958993793">
        <ele>226.530000000000001</ele>
        <time>2015-04-09T08:57:00Z</time>
      </trkpt>
      <trkpt lat="47.142582004889846" lon="16.439534984529018">
        <ele>226.050000000000011</ele>
        <time>2015-04-09T08:57:01Z</time>
      </trkpt>
      <trkpt lat="47.142544034868479" lon="16.43953699618578">
        <ele>225.090000000000003</ele>
        <time>2015-04-09T08:57:02Z</time>
      </trkpt>
      <trkpt lat="47.142502041533589" lon="16.439539007842541">
        <ele>225.090000000000003</ele>
        <time>2015-04-09T08:57:03Z</time>
      </trkpt>
      <trkpt lat="47.142463987693191" lon="16.439541019499302">
        <ele>225.090000000000003</ele>
        <time>2015-04-09T08:57:04Z</time>
      </trkpt>
      <trkpt lat="47.142426017671824" lon="16.439544958993793">
        <ele>225.090000000000003</ele>
        <time>2015-04-09T08:57:05Z</time>
      </trkpt>
      <trkpt lat="47.142342031002045" lon="16.439551999792457">
        <ele>226.050000000000011</ele>
        <time>2015-04-09T08:57:07Z</time>
      </trkpt>
      <trkpt lat="47.141819000244141" lon="16.439674040302634">
        <ele>227.009999999999991</ele>
        <time>2015-04-09T08:57:22Z</time>
      </trkpt>
      <trkpt lat="47.141739036887884" lon="16.439692983403802">
        <ele>227.009999999999991</ele>
        <time>2015-04-09T08:57:33Z</time>
      </trkpt>
      <trkpt lat="47.141724033281207" lon="16.439701030030847">
        <ele>226.530000000000001</ele>
        <time>2015-04-09T08:57:41Z</time>
      </trkpt>
      <trkpt lat="47.14171196334064" lon="16.43970899283886">
        <ele>227.009999999999991</ele>
        <time>2015-04-09T08:57:42Z</time>
      </trkpt>
      <trkpt lat="47.141693020239472" lon="16.439714021980762">
        <ele>226.530000000000001</ele>
        <time>2015-04-09T08:57:43Z</time>
      </trkpt>
      <trkpt lat="47.141669970005751" lon="16.439721984788775">
        <ele>227.009999999999991</ele>
        <time>2015-04-09T08:57:44Z</time>
      </trkpt>
      <trkpt lat="47.141643986105919" lon="16.439728019759059">
        <ele>227.009999999999991</ele>
        <time>2015-04-09T08:57:45Z</time>
      </trkpt>
      <trkpt lat="47.141159009188414" lon="16.439849976450205">
        <ele>227.009999999999991</ele>
        <time>2015-04-09T08:57:57Z</time>
      </trkpt>
      <trkpt lat="47.14029299095273" lon="16.440011998638511">
        <ele>227.009999999999991</ele>
        <time>2015-04-09T08:58:14Z</time>
      </trkpt>
      <trkpt lat="47.139206025749445" lon="16.439913008362055">
        <ele>226.530000000000001</ele>
        <time>2015-04-09T08:58:33Z</time>
      </trkpt>
      <trkpt lat="47.137939017266035" lon="16.4400539919734">
        <ele>226.050000000000011</ele>
        <time>2015-04-09T08:58:54Z</time>
      </trkpt>
      <trkpt lat="47.137099988758564" lon="16.439980985596776">
        <ele>225.569999999999993</ele>
        <time>2015-04-09T08:59:08Z</time>
      </trkpt>
      <trkpt lat="47.13704701513052" lon="16.439938992261887">
        <ele>225.569999999999993</ele>
        <time>2015-04-09T08:59:09Z</time>
      </trkpt>
      <trkpt lat="47.13689798489213" lon="16.43979599699378">
        <ele>225.569999999999993</ele>
        <time>2015-04-09T08:59:12Z</time>
      </trkpt>
      <trkpt lat="47.136496994644403" lon="16.438956968486309">
        <ele>226.050000000000011</ele>
        <time>2015-04-09T08:59:25Z</time>
      </trkpt>
      <trkpt lat="47.136451983824372" lon="16.437821974977851">
        <ele>227.490000000000009</ele>
        <time>2015-04-09T08:59:42Z</time>
      </trkpt>
      <trkpt lat="47.136459024623036" lon="16.436784965917468">
        <ele>228.449999999999989</ele>
        <time>2015-04-09T08:59:59Z</time>
      </trkpt>
      <trkpt lat="47.136417031288147" lon="16.435644021257758">
        <ele>228.930000000000007</ele>
        <time>2015-04-09T09:00:19Z</time>
      </trkpt>
      <trkpt lat="47.136303037405014" lon="16.435273960232735">
        <ele>228.930000000000007</ele>
        <time>2015-04-09T09:00:26Z</time>
      </trkpt>
      <trkpt lat="47.136279987171292" lon="16.435226015746593">
        <ele>228.930000000000007</ele>
        <time>2015-04-09T09:00:27Z</time>
      </trkpt>
      <trkpt lat="47.135833986103535" lon="16.434770962223411">
        <ele>228.930000000000007</ele>
        <time>2015-04-09T09:00:40Z</time>
      </trkpt>
      <trkpt lat="47.135796016082168" lon="16.434769034385681">
        <ele>229.409999999999997</ele>
        <time>2015-04-09T09:00:41Z</time>
      </trkpt>
      <trkpt lat="47.13575704023242" lon="16.434784037992358">
        <ele>228.930000000000007</ele>
        <time>2015-04-09T09:00:42Z</time>
      </trkpt>
      <trkpt lat="47.135723009705544" lon="16.434802981093526">
        <ele>229.409999999999997</ele>
        <time>2015-04-09T09:00:43Z</time>
      </trkpt>
      <trkpt lat="47.135685039684176" lon="16.434819996356964">
        <ele>229.409999999999997</ele>
        <time>2015-04-09T09:00:44Z</time>
      </trkpt>
      <trkpt lat="47.135642962530255" lon="16.434833994135261">
        <ele>229.409999999999997</ele>
        <time>2015-04-09T09:00:45Z</time>
      </trkpt>
      <trkpt lat="47.135604992508888" lon="16.434837011620402">
        <ele>229.409999999999997</ele>
        <time>2015-04-09T09:00:46Z</time>
      </trkpt>
      <trkpt lat="47.135573979467154" lon="16.434829970821738">
        <ele>229.409999999999997</ele>
        <time>2015-04-09T09:00:47Z</time>
      </trkpt>
      <trkpt lat="47.135543972253799" lon="16.434817984700203">
        <ele>229.409999999999997</ele>
        <time>2015-04-09T09:00:48Z</time>
      </trkpt>
      <trkpt lat="47.135509019717574" lon="16.434809016063809">
        <ele>229.889999999999986</ele>
        <time>2015-04-09T09:00:49Z</time>
      </trkpt>
      <trkpt lat="47.135483035817742" lon="16.434802981093526">
        <ele>230.370000000000005</ele>
        <time>2015-04-09T09:00:50Z</time>
      </trkpt>
      <trkpt lat="47.135375998914242" lon="16.434756964445114">
        <ele>230.370000000000005</ele>
        <time>2015-04-09T09:00:58Z</time>
      </trkpt>
      <trkpt lat="47.135365018621087" lon="16.434733998030424">
        <ele>230.370000000000005</ele>
        <time>2015-04-09T09:00:59Z</time>
      </trkpt>
      <trkpt lat="47.135353032499552" lon="16.434701979160309">
        <ele>230.370000000000005</ele>
        <time>2015-04-09T09:01:00Z</time>
      </trkpt>
      <trkpt lat="47.135356971994042" lon="16.434664009138942">
        <ele>230.370000000000005</ele>
        <time>2015-04-09T09:01:01Z</time>
      </trkpt>
      <trkpt lat="47.135368036106229" lon="16.434624027460814">
        <ele>230.370000000000005</ele>
        <time>2015-04-09T09:01:02Z</time>
      </trkpt>
      <trkpt lat="47.135386979207397" lon="16.434580022469163">
        <ele>230.370000000000005</ele>
        <time>2015-04-09T09:01:03Z</time>
      </trkpt>
      <trkpt lat="47.135398965328932" lon="16.434534005820751">
        <ele>230.849999999999994</ele>
        <time>2015-04-09T09:01:04Z</time>
      </trkpt>
      <trkpt lat="47.135406006127596" lon="16.434483965858817">
        <ele>230.849999999999994</ele>
        <time>2015-04-09T09:01:05Z</time>
      </trkpt>
      <trkpt lat="47.135413968935609" lon="16.434433003887534">
        <ele>230.849999999999994</ele>
        <time>2015-04-09T09:01:06Z</time>
      </trkpt>
      <trkpt lat="47.135512959212065" lon="16.434046011418104">
        <ele>231.810000000000002</ele>
        <time>2015-04-09T09:01:17Z</time>
      </trkpt>
      <trkpt lat="47.135670036077499" lon="16.433669999241829">
        <ele>232.780000000000001</ele>
        <time>2015-04-09T09:01:31Z</time>
      </trkpt>
      <trkpt lat="47.135944040492177" lon="16.43311302177608">
        <ele>232.780000000000001</ele>
        <time>2015-04-09T09:01:44Z</time>
      </trkpt>
      <trkpt lat="47.136215027421713" lon="16.432526037096977">
        <ele>233.740000000000009</ele>
        <time>2015-04-09T09:01:59Z</time>
      </trkpt>
      <trkpt lat="47.136237993836403" lon="16.432330990210176">
        <ele>233.740000000000009</ele>
        <time>2015-04-09T09:02:04Z</time>
      </trkpt>
      <trkpt lat="47.136264983564615" lon="16.432306012138724">
        <ele>233.740000000000009</ele>
        <time>2015-04-09T09:02:05Z</time>
      </trkpt>
      <trkpt lat="47.136299014091492" lon="16.432278016582131">
        <ele>233.740000000000009</ele>
        <time>2015-04-09T09:02:06Z</time>
      </trkpt>
      <trkpt lat="47.136360034346581" lon="16.432200986891985">
        <ele>233.740000000000009</ele>
        <time>2015-04-09T09:02:08Z</time>
      </trkpt>
      <trkpt lat="47.136390963569283" lon="16.432153964415193">
        <ele>233.259999999999991</ele>
        <time>2015-04-09T09:02:09Z</time>
      </trkpt>
      <trkpt lat="47.136417031288147" lon="16.432097973302007">
        <ele>233.740000000000009</ele>
        <time>2015-04-09T09:02:10Z</time>
      </trkpt>
      <trkpt lat="47.13685599155724" lon="16.431035986170173">
        <ele>232.780000000000001</ele>
        <time>2015-04-09T09:02:26Z</time>
      </trkpt>
      <trkpt lat="47.137183975428343" lon="16.429797979071736">
        <ele>233.259999999999991</ele>
        <time>2015-04-09T09:02:44Z</time>
      </trkpt>
      <trkpt lat="47.137424033135176" lon="16.428280016407371">
        <ele>232.300000000000011</ele>
        <time>2015-04-09T09:03:04Z</time>
      </trkpt>
      <trkpt lat="47.137611033394933" lon="16.426884010434151">
        <ele>232.300000000000011</ele>
        <time>2015-04-09T09:03:23Z</time>
      </trkpt>
      <trkpt lat="47.1377560403198" lon="16.425732001662254">
        <ele>232.780000000000001</ele>
        <time>2015-04-09T09:03:41Z</time>
      </trkpt>
      <trkpt lat="47.137836003676057" lon="16.425060024484992">
        <ele>232.780000000000001</ele>
        <time>2015-04-09T09:03:55Z</time>
      </trkpt>
      <trkpt lat="47.137931976467371" lon="16.423856969922781">
        <ele>233.259999999999991</ele>
        <time>2015-04-09T09:04:13Z</time>
      </trkpt>
      <trkpt lat="47.138030966743827" lon="16.422503963112831">
        <ele>233.740000000000009</ele>
        <time>2015-04-09T09:04:32Z</time>
      </trkpt>
      <trkpt lat="47.138126017525792" lon="16.421261010691524">
        <ele>234.219999999999999</ele>
        <time>2015-04-09T09:04:51Z</time>
      </trkpt>
      <trkpt lat="47.13822903111577" lon="16.420441009104252">
        <ele>235.180000000000007</ele>
        <time>2015-04-09T09:05:06Z</time>
      </trkpt>
      <trkpt lat="47.138302037492394" lon="16.419446999207139">
        <ele>235.659999999999997</ele>
        <time>2015-04-09T09:05:25Z</time>
      </trkpt>
      <trkpt lat="47.138350987806916" lon="16.418609982356429">
        <ele>236.620000000000005</ele>
        <time>2015-04-09T09:05:40Z</time>
      </trkpt>
      <trkpt lat="47.138492977246642" lon="16.417755028232932">
        <ele>236.620000000000005</ele>
        <time>2015-04-09T09:05:56Z</time>
      </trkpt>
      <trkpt lat="47.13874401524663" lon="16.416908036917448">
        <ele>236.620000000000005</ele>
        <time>2015-04-09T09:06:12Z</time>
      </trkpt>
      <trkpt lat="47.139022964984179" lon="16.41579600982368">
        <ele>236.620000000000005</ele>
        <time>2015-04-09T09:06:30Z</time>
      </trkpt>
      <trkpt lat="47.139026988297701" lon="16.415737001225352">
        <ele>236.620000000000005</ele>
        <time>2015-04-09T09:06:31Z</time>
      </trkpt>
      <trkpt lat="47.139030005782843" lon="16.415677992627025">
        <ele>237.099999999999994</ele>
        <time>2015-04-09T09:06:32Z</time>
      </trkpt>
      <trkpt lat="47.139022964984179" lon="16.415623007342219">
        <ele>236.620000000000005</ele>
        <time>2015-04-09T09:06:33Z</time>
      </trkpt>
      <trkpt lat="47.139019025489688" lon="16.415571039542556">
        <ele>236.620000000000005</ele>
        <time>2015-04-09T09:06:34Z</time>
      </trkpt>
      <trkpt lat="47.139019025489688" lon="16.415527034550905">
        <ele>236.620000000000005</ele>
        <time>2015-04-09T09:06:35Z</time>
      </trkpt>
      <trkpt lat="47.139019025489688" lon="16.415486969053745">
        <ele>237.099999999999994</ele>
        <time>2015-04-09T09:06:36Z</time>
      </trkpt>
      <trkpt lat="47.139010978862643" lon="16.415370963513851">
        <ele>236.620000000000005</ele>
        <time>2015-04-09T09:06:47Z</time>
      </trkpt>
      <trkpt lat="47.139010978862643" lon="16.415357971563935">
        <ele>236.620000000000005</ele>
        <time>2015-04-09T09:07:27Z</time>
      </trkpt>
      <trkpt lat="47.139004021883011" lon="16.415337016806006">
        <ele>236.620000000000005</ele>
        <time>2015-04-09T09:07:28Z</time>
      </trkpt>
      <trkpt lat="47.138881981372833" lon="16.414877017959952">
        <ele>237.099999999999994</ele>
        <time>2015-04-09T09:07:40Z</time>
      </trkpt>
      <trkpt lat="47.138760024681687" lon="16.414493964985013">
        <ele>237.580000000000013</ele>
        <time>2015-04-09T09:07:52Z</time>
      </trkpt>
      <trkpt lat="47.13874401524663" lon="16.414466975256801">
        <ele>237.580000000000013</ele>
        <time>2015-04-09T09:07:54Z</time>
      </trkpt>
      <trkpt lat="47.13874401524663" lon="16.414453983306885">
        <ele>237.580000000000013</ele>
        <time>2015-04-09T09:08:12Z</time>
      </trkpt>
      <trkpt lat="47.138740997761488" lon="16.414454989135265">
        <ele>238.060000000000002</ele>
        <time>2015-04-09T09:08:48Z</time>
      </trkpt>
      <trkpt lat="47.138740997761488" lon="16.414457000792027">
        <ele>238.060000000000002</ele>
        <time>2015-04-09T09:09:19Z</time>
      </trkpt>
      <trkpt lat="47.138740997761488" lon="16.414457000792027">
        <ele>237.580000000000013</ele>
        <time>2015-04-09T09:09:35Z</time>
      </trkpt>
      <trkpt lat="47.138736974447966" lon="16.414435962215066">
        <ele>237.580000000000013</ele>
        <time>2015-04-09T09:09:36Z</time>
      </trkpt>
      <trkpt lat="47.138729011639953" lon="16.414415007457137">
        <ele>238.060000000000002</ele>
        <time>2015-04-09T09:09:37Z</time>
      </trkpt>
      <trkpt lat="47.13872498832643" lon="16.414393968880177">
        <ele>237.580000000000013</ele>
        <time>2015-04-09T09:09:38Z</time>
      </trkpt>
      <trkpt lat="47.138720965012908" lon="16.414371002465487">
        <ele>238.060000000000002</ele>
        <time>2015-04-09T09:09:39Z</time>
      </trkpt>
      <trkpt lat="47.138709984719753" lon="16.413958026096225">
        <ele>237.580000000000013</ele>
        <time>2015-04-09T09:09:49Z</time>
      </trkpt>
      <trkpt lat="47.13872498832643" lon="16.413331981748343">
        <ele>238.060000000000002</ele>
        <time>2015-04-09T09:10:01Z</time>
      </trkpt>
      <trkpt lat="47.138778967782855" lon="16.412407038733363">
        <ele>239.02000000000001</ele>
        <time>2015-04-09T09:10:16Z</time>
      </trkpt>
      <trkpt lat="47.138797994703054" lon="16.411357959732413">
        <ele>240.469999999999999</ele>
        <time>2015-04-09T09:10:33Z</time>
      </trkpt>
      <trkpt lat="47.138823978602886" lon="16.410308964550495">
        <ele>242.870000000000005</ele>
        <time>2015-04-09T09:10:49Z</time>
      </trkpt>
      <trkpt lat="47.138995975255966" lon="16.409645034000278">
        <ele>244.310000000000002</ele>
        <time>2015-04-09T09:11:02Z</time>
      </trkpt>
      <trkpt lat="47.13911097496748" lon="16.409094007685781">
        <ele>245.75</ele>
        <time>2015-04-09T09:11:13Z</time>
      </trkpt>
      <trkpt lat="47.139160009101033" lon="16.408709026873112">
        <ele>247.680000000000007</ele>
        <time>2015-04-09T09:11:24Z</time>
      </trkpt>
      <trkpt lat="47.139171995222569" lon="16.408313987776637">
        <ele>249.120000000000005</ele>
        <time>2015-04-09T09:11:35Z</time>
      </trkpt>
      <trkpt lat="47.139149028807878" lon="16.40786899253726">
        <ele>250.560000000000002</ele>
        <time>2015-04-09T09:11:47Z</time>
      </trkpt>
      <trkpt lat="47.139122039079666" lon="16.407354008406401">
        <ele>253.439999999999998</ele>
        <time>2015-04-09T09:12:01Z</time>
      </trkpt>
      <trkpt lat="47.139152968302369" lon="16.406819997355342">
        <ele>254.889999999999986</ele>
        <time>2015-04-09T09:12:14Z</time>
      </trkpt>
      <trkpt lat="47.139155985787511" lon="16.406252039596438">
        <ele>257.29000000000002</ele>
        <time>2015-04-09T09:12:30Z</time>
      </trkpt>
      <trkpt lat="47.139091026037931" lon="16.405868986621499">
        <ele>258.25</ele>
        <time>2015-04-09T09:12:42Z</time>
      </trkpt>
      <trkpt lat="47.138968985527754" lon="16.405514013022184">
        <ele>261.620000000000005</ele>
        <time>2015-04-09T09:12:54Z</time>
      </trkpt>
      <trkpt lat="47.138844011351466" lon="16.405115034431219">
        <ele>263.54000000000002</ele>
        <time>2015-04-09T09:13:06Z</time>
      </trkpt>
      <trkpt lat="47.138718031346798" lon="16.404680013656616">
        <ele>265.939999999999998</ele>
        <time>2015-04-09T09:13:20Z</time>
      </trkpt>
      <trkpt lat="47.138576963916421" lon="16.404278017580509">
        <ele>268.829999999999984</ele>
        <time>2015-04-09T09:13:32Z</time>
      </trkpt>
      <trkpt lat="47.13840102776885" lon="16.404005018994212">
        <ele>271.230000000000018</ele>
        <time>2015-04-09T09:13:47Z</time>
      </trkpt>
      <trkpt lat="47.138184020295739" lon="16.403640992939472">
        <ele>274.110000000000014</ele>
        <time>2015-04-09T09:14:02Z</time>
      </trkpt>
      <trkpt lat="47.13810296729207" lon="16.403409987688065">
        <ele>275.560000000000002</ele>
        <time>2015-04-09T09:14:13Z</time>
      </trkpt>
      <trkpt lat="47.138000037521124" lon="16.403128020465374">
        <ele>277</ele>
        <time>2015-04-09T09:14:25Z</time>
      </trkpt>
      <trkpt lat="47.138000037521124" lon="16.403128020465374">
        <ele>277</ele>
        <time>2015-04-09T09:14:51Z</time>
      </trkpt>
      <trkpt lat="47.137997020035982" lon="16.403126008808613">
        <ele>277.95999999999998</ele>
        <time>2015-04-09T09:15:21Z</time>
      </trkpt>
      <trkpt lat="47.137985033914447" lon="16.403102958574891">
        <ele>277.480000000000018</ele>
        <time>2015-04-09T09:15:22Z</time>
      </trkpt>
      <trkpt lat="47.137977993115783" lon="16.403064988553524">
        <ele>277.480000000000018</ele>
        <time>2015-04-09T09:15:23Z</time>
      </trkpt>
      <trkpt lat="47.137966006994247" lon="16.403025006875396">
        <ele>277.480000000000018</ele>
        <time>2015-04-09T09:15:24Z</time>
      </trkpt>
      <trkpt lat="47.13795100338757" lon="16.402976978570223">
        <ele>277.480000000000018</ele>
        <time>2015-04-09T09:15:25Z</time>
      </trkpt>
      <trkpt lat="47.13777900673449" lon="16.402311036363244">
        <ele>279.399999999999977</ele>
        <time>2015-04-09T09:15:38Z</time>
      </trkpt>
      <trkpt lat="47.137557975947857" lon="16.401555994525552">
        <ele>280.360000000000014</ele>
        <time>2015-04-09T09:15:53Z</time>
      </trkpt>
      <trkpt lat="47.137397965416312" lon="16.401250977069139">
        <ele>282.279999999999973</ele>
        <time>2015-04-09T09:16:04Z</time>
      </trkpt>
      <trkpt lat="47.137214988470078" lon="16.401070011779666">
        <ele>284.689999999999998</ele>
        <time>2015-04-09T09:16:14Z</time>
      </trkpt>
      <trkpt lat="47.137099988758564" lon="16.400997005403042">
        <ele>286.129999999999995</ele>
        <time>2015-04-09T09:16:20Z</time>
      </trkpt>
      <trkpt lat="47.137084985151887" lon="16.400972027331591">
        <ele>286.610000000000014</ele>
        <time>2015-04-09T09:16:21Z</time>
      </trkpt>
      <trkpt lat="47.13706998154521" lon="16.400953000411391">
        <ele>287.089999999999975</ele>
        <time>2015-04-09T09:16:22Z</time>
      </trkpt>
      <trkpt lat="47.137057995423675" lon="16.400942020118237">
        <ele>287.089999999999975</ele>
        <time>2015-04-09T09:16:23Z</time>
      </trkpt>
      <trkpt lat="47.137038968503475" lon="16.400933973491192">
        <ele>287.569999999999993</ele>
        <time>2015-04-09T09:16:24Z</time>
      </trkpt>
      <trkpt lat="47.137016002088785" lon="16.400933973491192">
        <ele>287.569999999999993</ele>
        <time>2015-04-09T09:16:25Z</time>
      </trkpt>
      <trkpt lat="47.136879041790962" lon="16.400782009586692">
        <ele>290.45999999999998</ele>
        <time>2015-04-09T09:16:34Z</time>
      </trkpt>
      <trkpt lat="47.136719031259418" lon="16.400642031803727">
        <ele>292.379999999999995</ele>
        <time>2015-04-09T09:16:51Z</time>
      </trkpt>
      <trkpt lat="47.136543011292815" lon="16.40045503154397">
        <ele>295.259999999999991</ele>
        <time>2015-04-09T09:17:08Z</time>
      </trkpt>
      <trkpt lat="47.136375037953258" lon="16.400255039334297">
        <ele>298.149999999999977</ele>
        <time>2015-04-09T09:17:24Z</time>
      </trkpt>
      <trkpt lat="47.136185020208359" lon="16.400060998275876">
        <ele>301.509999999999991</ele>
        <time>2015-04-09T09:17:41Z</time>
      </trkpt>
      <trkpt lat="47.135993996635079" lon="16.399884978309274">
        <ele>301.509999999999991</ele>
        <time>2015-04-09T09:17:57Z</time>
      </trkpt>
      <trkpt lat="47.135868016630411" lon="16.399787999689579">
        <ele>301.509999999999991</ele>
        <time>2015-04-09T09:18:09Z</time>
      </trkpt>
      <trkpt lat="47.135833986103535" lon="16.399741983041167">
        <ele>304.879999999999995</ele>
        <time>2015-04-09T09:18:13Z</time>
      </trkpt>
      <trkpt lat="47.135821999981999" lon="16.399734020233154">
        <ele>304.879999999999995</ele>
        <time>2015-04-09T09:18:14Z</time>
      </trkpt>
      <trkpt lat="47.135784029960632" lon="16.399697978049517">
        <ele>305.360000000000014</ele>
        <time>2015-04-09T09:18:17Z</time>
      </trkpt>
      <trkpt lat="47.135772965848446" lon="16.399686997756362">
        <ele>305.839999999999975</ele>
        <time>2015-04-09T09:18:18Z</time>
      </trkpt>
      <trkpt lat="47.135760979726911" lon="16.399679034948349">
        <ele>308.720000000000027</ele>
        <time>2015-04-09T09:18:19Z</time>
      </trkpt>
      <trkpt lat="47.135578002780676" lon="16.399522963911295">
        <ele>308.720000000000027</ele>
        <time>2015-04-09T09:18:34Z</time>
      </trkpt>
      <trkpt lat="47.135360995307565" lon="16.399357002228498">
        <ele>311.600000000000023</ele>
        <time>2015-04-09T09:18:51Z</time>
      </trkpt>
      <trkpt lat="47.135120015591383" lon="16.399125996977091">
        <ele>312.569999999999993</ele>
        <time>2015-04-09T09:19:05Z</time>
      </trkpt>
      <trkpt lat="47.134995041415095" lon="16.398870013654232">
        <ele>314.009999999999991</ele>
        <time>2015-04-09T09:19:18Z</time>
      </trkpt>
      <trkpt lat="47.134991018101573" lon="16.398485032841563">
        <ele>314.490000000000009</ele>
        <time>2015-04-09T09:19:31Z</time>
      </trkpt>
      <trkpt lat="47.135081961750984" lon="16.39789997600019">
        <ele>315.449999999999989</ele>
        <time>2015-04-09T09:19:45Z</time>
      </trkpt>
      <trkpt lat="47.135142982006073" lon="16.397237973287702">
        <ele>315.930000000000007</ele>
        <time>2015-04-09T09:19:59Z</time>
      </trkpt>
      <trkpt lat="47.135208025574684" lon="16.396639002487063">
        <ele>317.370000000000005</ele>
        <time>2015-04-09T09:20:13Z</time>
      </trkpt>
      <trkpt lat="47.135277008637786" lon="16.396027039736509">
        <ele>319.779999999999973</ele>
        <time>2015-04-09T09:20:28Z</time>
      </trkpt>
      <trkpt lat="47.135319001972675" lon="16.395656978711486">
        <ele>321.220000000000027</ele>
        <time>2015-04-09T09:20:40Z</time>
      </trkpt>
      <trkpt lat="47.135383961722255" lon="16.395159009844065">
        <ele>324.579999999999984</ele>
        <time>2015-04-09T09:20:53Z</time>
      </trkpt>
      <trkpt lat="47.135413968935609" lon="16.394652994349599">
        <ele>325.060000000000002</ele>
        <time>2015-04-09T09:21:07Z</time>
      </trkpt>
      <trkpt lat="47.135464008897543" lon="16.394186038523912">
        <ele>325.060000000000002</ele>
        <time>2015-04-09T09:21:20Z</time>
      </trkpt>
      <trkpt lat="47.135540032759309" lon="16.393514983355999">
        <ele>322.660000000000025</ele>
        <time>2015-04-09T09:21:30Z</time>
      </trkpt>
      <trkpt lat="47.135604992508888" lon="16.393170990049839">
        <ele>321.220000000000027</ele>
        <time>2015-04-09T09:21:34Z</time>
      </trkpt>
      <trkpt lat="47.135754022747278" lon="16.392610995098948">
        <ele>320.740000000000009</ele>
        <time>2015-04-09T09:21:41Z</time>
      </trkpt>
      <trkpt lat="47.135772965848446" lon="16.392540000379086">
        <ele>320.740000000000009</ele>
        <time>2015-04-09T09:21:42Z</time>
      </trkpt>
      <trkpt lat="47.135905986651778" lon="16.39207798987627">
        <ele>320.740000000000009</ele>
        <time>2015-04-09T09:21:49Z</time>
      </trkpt>
      <trkpt lat="47.1359290368855" lon="16.392016969621181">
        <ele>320.740000000000009</ele>
        <time>2015-04-09T09:21:50Z</time>
      </trkpt>
      <trkpt lat="47.135959966108203" lon="16.391873974353075">
        <ele>321.220000000000027</ele>
        <time>2015-04-09T09:21:52Z</time>
      </trkpt>
      <trkpt lat="47.135978993028402" lon="16.391730979084969">
        <ele>321.220000000000027</ele>
        <time>2015-04-09T09:21:54Z</time>
      </trkpt>
      <trkpt lat="47.135989973321557" lon="16.391658978536725">
        <ele>321.220000000000027</ele>
        <time>2015-04-09T09:21:55Z</time>
      </trkpt>
      <trkpt lat="47.136070020496845" lon="16.390919024124742">
        <ele>321.699999999999989</ele>
        <time>2015-04-09T09:22:05Z</time>
      </trkpt>
      <trkpt lat="47.136077983304858" lon="16.390855992212892">
        <ele>321.699999999999989</ele>
        <time>2015-04-09T09:22:06Z</time>
      </trkpt>
      <trkpt lat="47.136086029931903" lon="16.390649965032935">
        <ele>322.180000000000007</ele>
        <time>2015-04-09T09:22:09Z</time>
      </trkpt>
      <trkpt lat="47.136092986911535" lon="16.389957033097744">
        <ele>324.100000000000023</ele>
        <time>2015-04-09T09:22:22Z</time>
      </trkpt>
      <trkpt lat="47.136134980246425" lon="16.389311039820313">
        <ele>325.54000000000002</ele>
        <time>2015-04-09T09:22:35Z</time>
      </trkpt>
      <trkpt lat="47.136196000501513" lon="16.389021025970578">
        <ele>327.470000000000027</ele>
        <time>2015-04-09T09:22:42Z</time>
      </trkpt>
      <trkpt lat="47.136207986623049" lon="16.388980960473418">
        <ele>326.990000000000009</ele>
        <time>2015-04-09T09:22:43Z</time>
      </trkpt>
      <trkpt lat="47.136218966916203" lon="16.388942990452051">
        <ele>326.019999999999982</ele>
        <time>2015-04-09T09:22:44Z</time>
      </trkpt>
      <trkpt lat="47.136321980506182" lon="16.388557003811002">
        <ele>326.990000000000009</ele>
        <time>2015-04-09T09:22:58Z</time>
      </trkpt>
      <trkpt lat="47.136538987979293" lon="16.387933976948261">
        <ele>325.54000000000002</ele>
        <time>2015-04-09T09:23:11Z</time>
      </trkpt>
      <trkpt lat="47.136585004627705" lon="16.387793999165297">
        <ele>325.54000000000002</ele>
        <time>2015-04-09T09:23:13Z</time>
      </trkpt>
      <trkpt lat="47.136607971042395" lon="16.387721998617053">
        <ele>325.060000000000002</ele>
        <time>2015-04-09T09:23:14Z</time>
      </trkpt>
      <trkpt lat="47.13685599155724" lon="16.386741986498237">
        <ele>322.180000000000007</ele>
        <time>2015-04-09T09:23:25Z</time>
      </trkpt>
      <trkpt lat="47.136902008205652" lon="16.386574013158679">
        <ele>322.180000000000007</ele>
        <time>2015-04-09T09:23:27Z</time>
      </trkpt>
      <trkpt lat="47.136921035125852" lon="16.386496983468533">
        <ele>322.180000000000007</ele>
        <time>2015-04-09T09:23:28Z</time>
      </trkpt>
      <trkpt lat="47.136939978227019" lon="16.386415008455515">
        <ele>322.660000000000025</ele>
        <time>2015-04-09T09:23:29Z</time>
      </trkpt>
      <trkpt lat="47.136966967955232" lon="16.386250974610448">
        <ele>322.180000000000007</ele>
        <time>2015-04-09T09:23:31Z</time>
      </trkpt>
      <trkpt lat="47.136966967955232" lon="16.386165982112288">
        <ele>322.660000000000025</ele>
        <time>2015-04-09T09:23:32Z</time>
      </trkpt>
      <trkpt lat="47.136948024854064" lon="16.385828023776412">
        <ele>321.220000000000027</ele>
        <time>2015-04-09T09:23:36Z</time>
      </trkpt>
      <trkpt lat="47.136798994615674" lon="16.384652964770794">
        <ele>318.329999999999984</ele>
        <time>2015-04-09T09:23:49Z</time>
      </trkpt>
      <trkpt lat="47.136668991297483" lon="16.383324014022946">
        <ele>316.889999999999986</ele>
        <time>2015-04-09T09:24:03Z</time>
      </trkpt>
      <trkpt lat="47.136554997414351" lon="16.38266796246171">
        <ele>316.410000000000025</ele>
        <time>2015-04-09T09:24:10Z</time>
      </trkpt>
      <trkpt lat="47.136318041011691" lon="16.381729021668434">
        <ele>315.449999999999989</ele>
        <time>2015-04-09T09:24:22Z</time>
      </trkpt>
      <trkpt lat="47.136303037405014" lon="16.381655009463429">
        <ele>315.930000000000007</ele>
        <time>2015-04-09T09:24:23Z</time>
      </trkpt>
      <trkpt lat="47.136279987171292" lon="16.381577979773283">
        <ele>315.930000000000007</ele>
        <time>2015-04-09T09:24:24Z</time>
      </trkpt>
      <trkpt lat="47.13623003102839" lon="16.381342029199004">
        <ele>315.930000000000007</ele>
        <time>2015-04-09T09:24:27Z</time>
      </trkpt>
      <trkpt lat="47.136211004108191" lon="16.381266005337238">
        <ele>315.930000000000007</ele>
        <time>2015-04-09T09:24:28Z</time>
      </trkpt>
      <trkpt lat="47.136191977187991" lon="16.381186963990331">
        <ele>315.930000000000007</ele>
        <time>2015-04-09T09:24:29Z</time>
      </trkpt>
      <trkpt lat="47.136020986363292" lon="16.38028297573328">
        <ele>315.930000000000007</ele>
        <time>2015-04-09T09:24:41Z</time>
      </trkpt>
      <trkpt lat="47.13597496971488" lon="16.379948034882545">
        <ele>316.410000000000025</ele>
        <time>2015-04-09T09:24:46Z</time>
      </trkpt>
      <trkpt lat="47.135967006906867" lon="16.379889026284218">
        <ele>315.930000000000007</ele>
        <time>2015-04-09T09:24:47Z</time>
      </trkpt>
      <trkpt lat="47.135956026613712" lon="16.37982901185751">
        <ele>316.410000000000025</ele>
        <time>2015-04-09T09:24:48Z</time>
      </trkpt>
      <trkpt lat="47.135932976379991" lon="16.379706971347332">
        <ele>316.410000000000025</ele>
        <time>2015-04-09T09:24:50Z</time>
      </trkpt>
      <trkpt lat="47.135925013571978" lon="16.379646034911275">
        <ele>316.410000000000025</ele>
        <time>2015-04-09T09:24:51Z</time>
      </trkpt>
      <trkpt lat="47.135920990258455" lon="16.379454005509615">
        <ele>316.410000000000025</ele>
        <time>2015-04-09T09:24:54Z</time>
      </trkpt>
      <trkpt lat="47.135914033278823" lon="16.379388961941004">
        <ele>315.930000000000007</ele>
        <time>2015-04-09T09:24:55Z</time>
      </trkpt>
      <trkpt lat="47.135910009965301" lon="16.379326013848186">
        <ele>316.889999999999986</ele>
        <time>2015-04-09T09:24:56Z</time>
      </trkpt>
      <trkpt lat="47.135910009965301" lon="16.379258958622813">
        <ele>316.410000000000025</ele>
        <time>2015-04-09T09:24:57Z</time>
      </trkpt>
      <trkpt lat="47.135910009965301" lon="16.379198022186756">
        <ele>316.410000000000025</ele>
        <time>2015-04-09T09:24:58Z</time>
      </trkpt>
      <trkpt lat="47.135905986651778" lon="16.379134990274906">
        <ele>316.410000000000025</ele>
        <time>2015-04-09T09:24:59Z</time>
      </trkpt>
      <trkpt lat="47.135905986651778" lon="16.379071958363056">
        <ele>316.889999999999986</ele>
        <time>2015-04-09T09:25:00Z</time>
      </trkpt>
      <trkpt lat="47.135905986651778" lon="16.379009010270238">
        <ele>316.410000000000025</ele>
        <time>2015-04-09T09:25:01Z</time>
      </trkpt>
      <trkpt lat="47.135910009965301" lon="16.378947990015149">
        <ele>316.889999999999986</ele>
        <time>2015-04-09T09:25:02Z</time>
      </trkpt>
      <trkpt lat="47.135920990258455" lon="16.378398975357413">
        <ele>317.850000000000023</ele>
        <time>2015-04-09T09:25:13Z</time>
      </trkpt>
      <trkpt lat="47.135944040492177" lon="16.377967977896333">
        <ele>318.810000000000002</ele>
        <time>2015-04-09T09:25:23Z</time>
      </trkpt>
      <trkpt lat="47.1359290368855" lon="16.377514014020562">
        <ele>321.699999999999989</ele>
        <time>2015-04-09T09:25:34Z</time>
      </trkpt>
      <trkpt lat="47.135883020237088" lon="16.377039011567831">
        <ele>323.139999999999986</ele>
        <time>2015-04-09T09:25:46Z</time>
      </trkpt>
      <trkpt lat="47.135817976668477" lon="16.376493014395237">
        <ele>325.060000000000002</ele>
        <time>2015-04-09T09:25:59Z</time>
      </trkpt>
      <trkpt lat="47.135727033019066" lon="16.376122031360865">
        <ele>326.019999999999982</ele>
        <time>2015-04-09T09:26:13Z</time>
      </trkpt>
      <trkpt lat="47.135604992508888" lon="16.375673012807965">
        <ele>324.579999999999984</ele>
        <time>2015-04-09T09:26:29Z</time>
      </trkpt>
      <trkpt lat="47.135494016110897" lon="16.375161968171597">
        <ele>324.579999999999984</ele>
        <time>2015-04-09T09:26:41Z</time>
      </trkpt>
      <trkpt lat="47.135489992797375" lon="16.374998018145561">
        <ele>326.019999999999982</ele>
        <time>2015-04-09T09:26:44Z</time>
      </trkpt>
      <trkpt lat="47.135516982525587" lon="16.374607002362609">
        <ele>326.019999999999982</ele>
        <time>2015-04-09T09:26:51Z</time>
      </trkpt>
      <trkpt lat="47.135573979467154" lon="16.373846009373665">
        <ele>326.019999999999982</ele>
        <time>2015-04-09T09:27:03Z</time>
      </trkpt>
      <trkpt lat="47.135582026094198" lon="16.373720029368997">
        <ele>326.5</ele>
        <time>2015-04-09T09:27:05Z</time>
      </trkpt>
      <trkpt lat="47.135627958923578" lon="16.372971022501588">
        <ele>327.949999999999989</ele>
        <time>2015-04-09T09:27:18Z</time>
      </trkpt>
      <trkpt lat="47.135734995827079" lon="16.372152026742697">
        <ele>328.910000000000025</ele>
        <time>2015-04-09T09:27:32Z</time>
      </trkpt>
      <trkpt lat="47.135844966396689" lon="16.371421962976456">
        <ele>329.870000000000005</ele>
        <time>2015-04-09T09:27:45Z</time>
      </trkpt>
      <trkpt lat="47.135983016341925" lon="16.370574971660972">
        <ele>330.829999999999984</ele>
        <time>2015-04-09T09:28:01Z</time>
      </trkpt>
      <trkpt lat="47.136107990518212" lon="16.369865024462342">
        <ele>331.79000000000002</ele>
        <time>2015-04-09T09:28:15Z</time>
      </trkpt>
      <trkpt lat="47.136196000501513" lon="16.368946032598615">
        <ele>332.269999999999982</ele>
        <time>2015-04-09T09:28:31Z</time>
      </trkpt>
      <trkpt lat="47.13625299744308" lon="16.368093006312847">
        <ele>333.230000000000018</ele>
        <time>2015-04-09T09:28:46Z</time>
      </trkpt>
      <trkpt lat="47.136321980506182" lon="16.367322960868478">
        <ele>334.199999999999989</ele>
        <time>2015-04-09T09:29:00Z</time>
      </trkpt>
      <trkpt lat="47.136398004367948" lon="16.366646038368344">
        <ele>331.79000000000002</ele>
        <time>2015-04-09T09:29:09Z</time>
      </trkpt>
      <trkpt lat="47.136435974389315" lon="16.366013959050179">
        <ele>328.910000000000025</ele>
        <time>2015-04-09T09:29:16Z</time>
      </trkpt>
      <trkpt lat="47.13642499409616" lon="16.365123968571424">
        <ele>326.5</ele>
        <time>2015-04-09T09:29:25Z</time>
      </trkpt>
      <trkpt lat="47.136409990489483" lon="16.365021038800478">
        <ele>326.019999999999982</ele>
        <time>2015-04-09T09:29:26Z</time>
      </trkpt>
      <trkpt lat="47.136387024074793" lon="16.364911990240216">
        <ele>325.54000000000002</ele>
        <time>2015-04-09T09:29:27Z</time>
      </trkpt>
      <trkpt lat="47.136356011033058" lon="16.364808976650238">
        <ele>325.54000000000002</ele>
        <time>2015-04-09T09:29:28Z</time>
      </trkpt>
      <trkpt lat="47.136321980506182" lon="16.364714009687304">
        <ele>325.060000000000002</ele>
        <time>2015-04-09T09:29:29Z</time>
      </trkpt>
      <trkpt lat="47.136288033798337" lon="16.364623988047242">
        <ele>325.54000000000002</ele>
        <time>2015-04-09T09:29:30Z</time>
      </trkpt>
      <trkpt lat="47.135821999981999" lon="16.363752018660307">
        <ele>323.620000000000005</ele>
        <time>2015-04-09T09:29:41Z</time>
      </trkpt>
      <trkpt lat="47.135245995596051" lon="16.363053973764181">
        <ele>319.779999999999973</ele>
        <time>2015-04-09T09:29:52Z</time>
      </trkpt>
      <trkpt lat="47.135075004771352" lon="16.362804025411606">
        <ele>318.329999999999984</ele>
        <time>2015-04-09T09:29:55Z</time>
      </trkpt>
      <trkpt lat="47.134674014523625" lon="16.362174963578582">
        <ele>314.970000000000027</ele>
        <time>2015-04-09T09:30:02Z</time>
      </trkpt>
      <trkpt lat="47.13427403010428" lon="16.361529976129532">
        <ele>312.569999999999993</ele>
        <time>2015-04-09T09:30:10Z</time>
      </trkpt>
      <trkpt lat="47.133758962154388" lon="16.360957995057106">
        <ele>309.680000000000007</ele>
        <time>2015-04-09T09:30:19Z</time>
      </trkpt>
      <trkpt lat="47.133117998018861" lon="16.360555998980999">
        <ele>306.319999999999993</ele>
        <time>2015-04-09T09:30:28Z</time>
      </trkpt>
      <trkpt lat="47.132739974185824" lon="16.360276965424418">
        <ele>303.910000000000025</ele>
        <time>2015-04-09T09:30:33Z</time>
      </trkpt>
      <trkpt lat="47.132148966193199" lon="16.359795005992055">
        <ele>300.069999999999993</ele>
        <time>2015-04-09T09:30:41Z</time>
      </trkpt>
      <trkpt lat="47.131705982610583" lon="16.35941899381578">
        <ele>296.699999999999989</ele>
        <time>2015-04-09T09:30:47Z</time>
      </trkpt>
      <trkpt lat="47.131321001797915" lon="16.359115988016129">
        <ele>294.779999999999973</ele>
        <time>2015-04-09T09:30:52Z</time>
      </trkpt>
      <trkpt lat="47.131103994324803" lon="16.358924964442849">
        <ele>292.860000000000014</ele>
        <time>2015-04-09T09:30:55Z</time>
      </trkpt>
      <trkpt lat="47.130978014320135" lon="16.35875497944653">
        <ele>291.899999999999977</ele>
        <time>2015-04-09T09:30:57Z</time>
      </trkpt>
      <trkpt lat="47.130916994065046" lon="16.358651965856552">
        <ele>290.939999999999998</ele>
        <time>2015-04-09T09:30:58Z</time>
      </trkpt>
      <trkpt lat="47.130870977416635" lon="16.358537971973419">
        <ele>290.939999999999998</ele>
        <time>2015-04-09T09:30:59Z</time>
      </trkpt>
      <trkpt lat="47.130656987428665" lon="16.357907988131046">
        <ele>287.569999999999993</ele>
        <time>2015-04-09T09:31:04Z</time>
      </trkpt>
      <trkpt lat="47.130523966625333" lon="16.357513032853603">
        <ele>284.20999999999998</ele>
        <time>2015-04-09T09:31:07Z</time>
      </trkpt>
      <trkpt lat="47.130465963855386" lon="16.357384035363793">
        <ele>284.20999999999998</ele>
        <time>2015-04-09T09:31:08Z</time>
      </trkpt>
      <trkpt lat="47.130402009934187" lon="16.357264006510377">
        <ele>283.25</ele>
        <time>2015-04-09T09:31:09Z</time>
      </trkpt>
      <trkpt lat="47.130333026871085" lon="16.357153030112386">
        <ele>282.279999999999973</ele>
        <time>2015-04-09T09:31:10Z</time>
      </trkpt>
      <trkpt lat="47.130252979695797" lon="16.357052028179169">
        <ele>281.800000000000011</ele>
        <time>2015-04-09T09:31:11Z</time>
      </trkpt>
      <trkpt lat="47.13017301633954" lon="16.356962006539106">
        <ele>281.319999999999993</ele>
        <time>2015-04-09T09:31:12Z</time>
      </trkpt>
      <trkpt lat="47.130089029669762" lon="16.356873996555805">
        <ele>280.360000000000014</ele>
        <time>2015-04-09T09:31:13Z</time>
      </trkpt>
      <trkpt lat="47.130004959180951" lon="16.356792021542788">
        <ele>280.360000000000014</ele>
        <time>2015-04-09T09:31:14Z</time>
      </trkpt>
      <trkpt lat="47.129601035267115" lon="16.356423972174525">
        <ele>277.95999999999998</ele>
        <time>2015-04-09T09:31:19Z</time>
      </trkpt>
      <trkpt lat="47.129458962008357" lon="16.35626002214849">
        <ele>276.519999999999982</ele>
        <time>2015-04-09T09:31:21Z</time>
      </trkpt>
      <trkpt lat="47.1293980255723" lon="16.356154996901751">
        <ele>275.069999999999993</ele>
        <time>2015-04-09T09:31:22Z</time>
      </trkpt>
      <trkpt lat="47.129341028630733" lon="16.356033040210605">
        <ele>274.110000000000014</ele>
        <time>2015-04-09T09:31:23Z</time>
      </trkpt>
      <trkpt lat="47.12929199449718" lon="16.355900019407272">
        <ele>272.670000000000016</ele>
        <time>2015-04-09T09:31:24Z</time>
      </trkpt>
      <trkpt lat="47.129238015040755" lon="16.355753000825644">
        <ele>271.230000000000018</ele>
        <time>2015-04-09T09:31:25Z</time>
      </trkpt>
      <trkpt lat="47.129078004509211" lon="16.355288978666067">
        <ele>267.860000000000014</ele>
        <time>2015-04-09T09:31:28Z</time>
      </trkpt>
      <trkpt lat="47.12897096760571" lon="16.354970969259739">
        <ele>264.5</ele>
        <time>2015-04-09T09:31:30Z</time>
      </trkpt>
      <trkpt lat="47.128859991207719" lon="16.35464902035892">
        <ele>261.620000000000005</ele>
        <time>2015-04-09T09:31:32Z</time>
      </trkpt>
      <trkpt lat="47.12879897095263" lon="16.354488003998995">
        <ele>260.170000000000016</ele>
        <time>2015-04-09T09:31:33Z</time>
      </trkpt>
      <trkpt lat="47.128735017031431" lon="16.35432799346745">
        <ele>259.20999999999998</ele>
        <time>2015-04-09T09:31:34Z</time>
      </trkpt>
      <trkpt lat="47.128677014261484" lon="16.354169994592667">
        <ele>257.769999999999982</ele>
        <time>2015-04-09T09:31:35Z</time>
      </trkpt>
      <trkpt lat="47.128612976521254" lon="16.354022976011038">
        <ele>256.810000000000002</ele>
        <time>2015-04-09T09:31:36Z</time>
      </trkpt>
      <trkpt lat="47.128536030650139" lon="16.353884004056454">
        <ele>256.329999999999984</ele>
        <time>2015-04-09T09:31:37Z</time>
      </trkpt>
      <trkpt lat="47.128464030101895" lon="16.353751989081502">
        <ele>255.370000000000005</ele>
        <time>2015-04-09T09:31:38Z</time>
      </trkpt>
      <trkpt lat="47.128394963219762" lon="16.353626009076834">
        <ele>255.370000000000005</ele>
        <time>2015-04-09T09:31:39Z</time>
      </trkpt>
      <trkpt lat="47.128283986821771" lon="16.353380000218749">
        <ele>254.409999999999997</ele>
        <time>2015-04-09T09:31:41Z</time>
      </trkpt>
      <trkpt lat="47.128246016800404" lon="16.35325200855732">
        <ele>254.889999999999986</ele>
        <time>2015-04-09T09:31:42Z</time>
      </trkpt>
      <trkpt lat="47.128216009587049" lon="16.35312301106751">
        <ele>255.370000000000005</ele>
        <time>2015-04-09T09:31:43Z</time>
      </trkpt>
      <trkpt lat="47.128147026523948" lon="16.352773988619447">
        <ele>256.329999999999984</ele>
        <time>2015-04-09T09:31:46Z</time>
      </trkpt>
      <trkpt lat="47.128117019310594" lon="16.352676004171371">
        <ele>256.329999999999984</ele>
        <time>2015-04-09T09:31:47Z</time>
      </trkpt>
      <trkpt lat="47.128093969076872" lon="16.35258698835969">
        <ele>256.329999999999984</ele>
        <time>2015-04-09T09:31:48Z</time>
      </trkpt>
      <trkpt lat="47.128063039854169" lon="16.352503001689911">
        <ele>256.329999999999984</ele>
        <time>2015-04-09T09:31:49Z</time>
      </trkpt>
      <trkpt lat="47.128033032640815" lon="16.352424966171384">
        <ele>256.329999999999984</ele>
        <time>2015-04-09T09:31:50Z</time>
      </trkpt>
      <trkpt lat="47.127903029322624" lon="16.352116009220481">
        <ele>257.29000000000002</ele>
        <time>2015-04-09T09:31:55Z</time>
      </trkpt>
      <trkpt lat="47.127749975770712" lon="16.351821972057223">
        <ele>258.730000000000018</ele>
        <time>2015-04-09T09:32:05Z</time>
      </trkpt>
      <trkpt lat="47.127719968557358" lon="16.35177000425756">
        <ele>260.170000000000016</ele>
        <time>2015-04-09T09:32:07Z</time>
      </trkpt>
      <trkpt lat="47.127628019079566" lon="16.351632960140705">
        <ele>262.100000000000023</ele>
        <time>2015-04-09T09:32:17Z</time>
      </trkpt>
      <trkpt lat="47.127602035179734" lon="16.351589038968086">
        <ele>261.139999999999986</ele>
        <time>2015-04-09T09:32:24Z</time>
      </trkpt>
      <trkpt lat="47.12759398855269" lon="16.351579986512661">
        <ele>261.139999999999986</ele>
        <time>2015-04-09T09:32:25Z</time>
      </trkpt>
      <trkpt lat="47.127586025744677" lon="16.351568000391126">
        <ele>261.139999999999986</ele>
        <time>2015-04-09T09:32:26Z</time>
      </trkpt>
      <trkpt lat="47.127536991611123" lon="16.351511003449559">
        <ele>261.139999999999986</ele>
        <time>2015-04-09T09:32:42Z</time>
      </trkpt>
      <trkpt lat="47.127415034919977" lon="16.35129701346159">
        <ele>265.45999999999998</ele>
        <time>2015-04-09T09:33:02Z</time>
      </trkpt>
      <trkpt lat="47.127406988292933" lon="16.351284021511674">
        <ele>264.019999999999982</ele>
        <time>2015-04-09T09:33:03Z</time>
      </trkpt>
      <trkpt lat="47.12731596082449" lon="16.35110498405993">
        <ele>266.899999999999977</ele>
        <time>2015-04-09T09:33:14Z</time>
      </trkpt>
      <trkpt lat="47.127167014405131" lon="16.350851012393832">
        <ele>269.310000000000002</ele>
        <time>2015-04-09T09:33:30Z</time>
      </trkpt>
      <trkpt lat="47.126984037458897" lon="16.350671974942088">
        <ele>272.189999999999998</ele>
        <time>2015-04-09T09:33:46Z</time>
      </trkpt>
      <trkpt lat="47.126727970317006" lon="16.350525040179491">
        <ele>273.629999999999995</ele>
        <time>2015-04-09T09:34:01Z</time>
      </trkpt>
      <trkpt lat="47.126408033072948" lon="16.3502879999578">
        <ele>276.04000000000002</ele>
        <time>2015-04-09T09:34:16Z</time>
      </trkpt>
      <trkpt lat="47.126185996457934" lon="16.350066969171166">
        <ele>278.439999999999998</ele>
        <time>2015-04-09T09:34:29Z</time>
      </trkpt>
      <trkpt lat="47.126109972596169" lon="16.349980970844626">
        <ele>279.879999999999995</ele>
        <time>2015-04-09T09:34:35Z</time>
      </trkpt>
      <trkpt lat="47.126102009788156" lon="16.349972002208233">
        <ele>279.879999999999995</ele>
        <time>2015-04-09T09:34:36Z</time>
      </trkpt>
      <trkpt lat="47.126010982319713" lon="16.349894972518086">
        <ele>281.319999999999993</ele>
        <time>2015-04-09T09:34:49Z</time>
      </trkpt>
      <trkpt lat="47.125937975943089" lon="16.349791036918759">
        <ele>283.25</ele>
        <time>2015-04-09T09:34:59Z</time>
      </trkpt>
      <trkpt lat="47.125904029235244" lon="16.349745020270348">
        <ele>284.689999999999998</ele>
        <time>2015-04-09T09:35:03Z</time>
      </trkpt>
      <trkpt lat="47.125892965123057" lon="16.349733034148812">
        <ele>284.20999999999998</ele>
        <time>2015-04-09T09:35:04Z</time>
      </trkpt>
      <trkpt lat="47.125885002315044" lon="16.349721970036626">
        <ele>284.20999999999998</ele>
        <time>2015-04-09T09:35:05Z</time>
      </trkpt>
      <trkpt lat="47.12574795819819" lon="16.349523989483714">
        <ele>287.569999999999993</ele>
        <time>2015-04-09T09:35:22Z</time>
      </trkpt>
      <trkpt lat="47.125590965151787" lon="16.349406978115439">
        <ele>289.970000000000027</ele>
        <time>2015-04-09T09:35:37Z</time>
      </trkpt>
      <trkpt lat="47.12538099847734" lon="16.349398009479046">
        <ele>292.379999999999995</ele>
        <time>2015-04-09T09:35:52Z</time>
      </trkpt>
      <trkpt lat="47.125190980732441" lon="16.349532958120108">
        <ele>293.819999999999993</ele>
        <time>2015-04-09T09:36:05Z</time>
      </trkpt>
      <trkpt lat="47.124858973547816" lon="16.349791036918759">
        <ele>295.259999999999991</ele>
        <time>2015-04-09T09:36:20Z</time>
      </trkpt>
      <trkpt lat="47.124526966363192" lon="16.349978959187865">
        <ele>295.740000000000009</ele>
        <time>2015-04-09T09:36:32Z</time>
      </trkpt>
      <trkpt lat="47.124171992763877" lon="16.349861025810242">
        <ele>297.670000000000016</ele>
        <time>2015-04-09T09:36:45Z</time>
      </trkpt>
      <trkpt lat="47.123932018876076" lon="16.349635971710086">
        <ele>299.589999999999975</ele>
        <time>2015-04-09T09:36:58Z</time>
      </trkpt>
      <trkpt lat="47.123710988089442" lon="16.349475961178541">
        <ele>300.550000000000011</ele>
        <time>2015-04-09T09:37:11Z</time>
      </trkpt>
      <trkpt lat="47.123646028339863" lon="16.349403038620949">
        <ele>300.069999999999993</ele>
        <time>2015-04-09T09:37:23Z</time>
      </trkpt>
      <trkpt lat="47.123646028339863" lon="16.349403038620949">
        <ele>300.550000000000011</ele>
        <time>2015-04-09T09:37:53Z</time>
      </trkpt>
      <trkpt lat="47.12364200502634" lon="16.349404966458678">
        <ele>300.069999999999993</ele>
        <time>2015-04-09T09:38:26Z</time>
      </trkpt>
      <trkpt lat="47.123631024733186" lon="16.349403038620949">
        <ele>300.069999999999993</ele>
        <time>2015-04-09T09:38:39Z</time>
      </trkpt>
      <trkpt lat="47.123576961457729" lon="16.349346041679382">
        <ele>299.589999999999975</ele>
        <time>2015-04-09T09:38:42Z</time>
      </trkpt>
      <trkpt lat="47.123549971729517" lon="16.349316034466028">
        <ele>299.589999999999975</ele>
        <time>2015-04-09T09:38:43Z</time>
      </trkpt>
      <trkpt lat="47.123519964516163" lon="16.34927898645401">
        <ele>298.629999999999995</ele>
        <time>2015-04-09T09:38:44Z</time>
      </trkpt>
      <trkpt lat="47.123462967574596" lon="16.349191982299089">
        <ele>298.149999999999977</ele>
        <time>2015-04-09T09:38:46Z</time>
      </trkpt>
      <trkpt lat="47.123432038351893" lon="16.349140014499426">
        <ele>296.699999999999989</ele>
        <time>2015-04-09T09:38:47Z</time>
      </trkpt>
      <trkpt lat="47.123404964804649" lon="16.349078994244337">
        <ele>296.699999999999989</ele>
        <time>2015-04-09T09:38:48Z</time>
      </trkpt>
      <trkpt lat="47.123347967863083" lon="16.348951002582908">
        <ele>296.699999999999989</ele>
        <time>2015-04-09T09:38:50Z</time>
      </trkpt>
      <trkpt lat="47.123294994235039" lon="16.348802978172898">
        <ele>295.259999999999991</ele>
        <time>2015-04-09T09:38:52Z</time>
      </trkpt>
      <trkpt lat="47.123272027820349" lon="16.348718991503119">
        <ele>295.259999999999991</ele>
        <time>2015-04-09T09:38:53Z</time>
      </trkpt>
      <trkpt lat="47.123253000900149" lon="16.348626958206296">
        <ele>294.300000000000011</ele>
        <time>2015-04-09T09:38:54Z</time>
      </trkpt>
      <trkpt lat="47.123158033937216" lon="16.347973002120852">
        <ele>292.379999999999995</ele>
        <time>2015-04-09T09:39:01Z</time>
      </trkpt>
      <trkpt lat="47.123118974268436" lon="16.347793964669108">
        <ele>292.860000000000014</ele>
        <time>2015-04-09T09:39:03Z</time>
      </trkpt>
      <trkpt lat="47.123088967055082" lon="16.347707966342568">
        <ele>292.860000000000014</ele>
        <time>2015-04-09T09:39:04Z</time>
      </trkpt>
      <trkpt lat="47.123055020347238" lon="16.347621968016028">
        <ele>291.899999999999977</ele>
        <time>2015-04-09T09:39:05Z</time>
      </trkpt>
      <trkpt lat="47.123009003698826" lon="16.34753798134625">
        <ele>291.420000000000016</ele>
        <time>2015-04-09T09:39:06Z</time>
      </trkpt>
      <trkpt lat="47.122962987050414" lon="16.347460029646754">
        <ele>290.939999999999998</ele>
        <time>2015-04-09T09:39:07Z</time>
      </trkpt>
      <trkpt lat="47.122905990108848" lon="16.347382999956608">
        <ele>290.939999999999998</ele>
        <time>2015-04-09T09:39:08Z</time>
      </trkpt>
      <trkpt lat="47.122742040082812" lon="16.347163980826735">
        <ele>289.009999999999991</ele>
        <time>2015-04-09T09:39:11Z</time>
      </trkpt>
      <trkpt lat="47.122368039563298" lon="16.346562998369336">
        <ele>285.649999999999977</ele>
        <time>2015-04-09T09:39:18Z</time>
      </trkpt>
      <trkpt lat="47.122032009065151" lon="16.345912981778383">
        <ele>282.279999999999973</ele>
        <time>2015-04-09T09:39:25Z</time>
      </trkpt>
      <trkpt lat="47.121750041842461" lon="16.345426999032497">
        <ele>278.439999999999998</ele>
        <time>2015-04-09T09:39:30Z</time>
      </trkpt>
      <trkpt lat="47.121409988030791" lon="16.344986027106643">
        <ele>275.069999999999993</ele>
        <time>2015-04-09T09:39:35Z</time>
      </trkpt>
      <trkpt lat="47.120987037196755" lon="16.344546983018517">
        <ele>272.670000000000016</ele>
        <time>2015-04-09T09:39:41Z</time>
      </trkpt>
      <trkpt lat="47.120323022827506" lon="16.34390601888299">
        <ele>268.829999999999984</ele>
        <time>2015-04-09T09:39:52Z</time>
      </trkpt>
      <trkpt lat="47.12026996538043" lon="16.34384298697114">
        <ele>268.829999999999984</ele>
        <time>2015-04-09T09:39:53Z</time>
      </trkpt>
      <trkpt lat="47.119919015094638" lon="16.343539981171489">
        <ele>265.45999999999998</ele>
        <time>2015-04-09T09:39:59Z</time>
      </trkpt>
      <trkpt lat="47.11979697458446" lon="16.343447025865316">
        <ele>264.019999999999982</ele>
        <time>2015-04-09T09:40:01Z</time>
      </trkpt>
      <trkpt lat="47.119739977642894" lon="16.343391034752131">
        <ele>263.060000000000002</ele>
        <time>2015-04-09T09:40:02Z</time>
      </trkpt>
      <trkpt lat="47.119572004303336" lon="16.343199005350471">
        <ele>259.689999999999998</ele>
        <time>2015-04-09T09:40:05Z</time>
      </trkpt>
      <trkpt lat="47.119353991001844" lon="16.342911003157496">
        <ele>255.370000000000005</ele>
        <time>2015-04-09T09:40:09Z</time>
      </trkpt>
      <trkpt lat="47.119156010448933" lon="16.342642027884722">
        <ele>253.439999999999998</ele>
        <time>2015-04-09T09:40:13Z</time>
      </trkpt>
      <trkpt lat="47.119090966880322" lon="16.342539014294744">
        <ele>252.960000000000008</ele>
        <time>2015-04-09T09:40:15Z</time>
      </trkpt>
      <trkpt lat="47.119072023779154" lon="16.342488974332809">
        <ele>252.47999999999999</ele>
        <time>2015-04-09T09:40:16Z</time>
      </trkpt>
      <trkpt lat="47.119057020172477" lon="16.342442035675049">
        <ele>252.47999999999999</ele>
        <time>2015-04-09T09:40:17Z</time>
      </trkpt>
      <trkpt lat="47.119045034050941" lon="16.342398030683398">
        <ele>252</ele>
        <time>2015-04-09T09:40:18Z</time>
      </trkpt>
      <trkpt lat="47.119026007130742" lon="16.342357965186238">
        <ele>251.52000000000001</ele>
        <time>2015-04-09T09:40:19Z</time>
      </trkpt>
      <trkpt lat="47.11899901740253" lon="16.342339022085071">
        <ele>251.52000000000001</ele>
        <time>2015-04-09T09:40:20Z</time>
      </trkpt>
      <trkpt lat="47.118969010189176" lon="16.342342039570212">
        <ele>252</ele>
        <time>2015-04-09T09:40:21Z</time>
      </trkpt>
      <trkpt lat="47.118942020460963" lon="16.342362994328141">
        <ele>251.52000000000001</ele>
        <time>2015-04-09T09:40:22Z</time>
      </trkpt>
      <trkpt lat="47.118916036561131" lon="16.342394007369876">
        <ele>251.52000000000001</ele>
        <time>2015-04-09T09:40:23Z</time>
      </trkpt>
      <trkpt lat="47.118885023519397" lon="16.342429965734482">
        <ele>251.52000000000001</ele>
        <time>2015-04-09T09:40:24Z</time>
      </trkpt>
      <trkpt lat="47.11885099299252" lon="16.342471959069371">
        <ele>251.52000000000001</ele>
        <time>2015-04-09T09:40:25Z</time>
      </trkpt>
      <trkpt lat="47.118659969419241" lon="16.342692989856005">
        <ele>251.52000000000001</ele>
        <time>2015-04-09T09:40:31Z</time>
      </trkpt>
      <trkpt lat="47.118361992761493" lon="16.342932041734457">
        <ele>251.52000000000001</ele>
        <time>2015-04-09T09:40:38Z</time>
      </trkpt>
      <trkpt lat="47.118319999426603" lon="16.342975962907076">
        <ele>250.560000000000002</ele>
        <time>2015-04-09T09:40:39Z</time>
      </trkpt>
      <trkpt lat="47.118282029405236" lon="16.343014016747475">
        <ele>250.560000000000002</ele>
        <time>2015-04-09T09:40:40Z</time>
      </trkpt>
      <trkpt lat="47.117770984768867" lon="16.343630002811551">
        <ele>251.039999999999992</ele>
        <time>2015-04-09T09:40:54Z</time>
      </trkpt>
      <trkpt lat="47.117125997319818" lon="16.34440197609365">
        <ele>250.560000000000002</ele>
        <time>2015-04-09T09:41:11Z</time>
      </trkpt>
      <trkpt lat="47.116660969331861" lon="16.344957025721669">
        <ele>250.080000000000013</ele>
        <time>2015-04-09T09:41:25Z</time>
      </trkpt>
      <trkpt lat="47.115897964686155" lon="16.345866965129972">
        <ele>251.039999999999992</ele>
        <time>2015-04-09T09:41:45Z</time>
      </trkpt>
      <trkpt lat="47.115463027730584" lon="16.346008032560349">
        <ele>250.560000000000002</ele>
        <time>2015-04-09T09:41:56Z</time>
      </trkpt>
      <trkpt lat="47.115273009985685" lon="16.346020018681884">
        <ele>250.560000000000002</ele>
        <time>2015-04-09T09:42:02Z</time>
      </trkpt>
      <trkpt lat="47.115252977237105" lon="16.34599101729691">
        <ele>251.039999999999992</ele>
        <time>2015-04-09T09:42:03Z</time>
      </trkpt>
      <trkpt lat="47.115246020257473" lon="16.345961010083556">
        <ele>250.560000000000002</ele>
        <time>2015-04-09T09:42:10Z</time>
      </trkpt>
      <trkpt lat="47.115249959751964" lon="16.345914993435144">
        <ele>251.039999999999992</ele>
        <time>2015-04-09T09:42:12Z</time>
      </trkpt>
      <trkpt lat="47.115252977237105" lon="16.345890015363693">
        <ele>251.039999999999992</ele>
        <time>2015-04-09T09:42:13Z</time>
      </trkpt>
      <trkpt lat="47.115252977237105" lon="16.345822960138321">
        <ele>251.039999999999992</ele>
        <time>2015-04-09T09:42:15Z</time>
      </trkpt>
      <trkpt lat="47.115237973630428" lon="16.345787001773715">
        <ele>250.560000000000002</ele>
        <time>2015-04-09T09:42:16Z</time>
      </trkpt>
      <trkpt lat="47.115222970023751" lon="16.345750959590077">
        <ele>251.039999999999992</ele>
        <time>2015-04-09T09:42:17Z</time>
      </trkpt>
      <trkpt lat="47.11496002972126" lon="16.34521896019578">
        <ele>253.439999999999998</ele>
        <time>2015-04-09T09:42:30Z</time>
      </trkpt>
      <trkpt lat="47.114749979227781" lon="16.344916960224509">
        <ele>256.329999999999984</ele>
        <time>2015-04-09T09:42:42Z</time>
      </trkpt>
      <trkpt lat="47.114613018929958" lon="16.344731971621513">
        <ele>259.20999999999998</ele>
        <time>2015-04-09T09:42:52Z</time>
      </trkpt>
      <trkpt lat="47.114448985084891" lon="16.344529967755079">
        <ele>262.579999999999984</ele>
        <time>2015-04-09T09:43:03Z</time>
      </trkpt>
      <trkpt lat="47.114426018670201" lon="16.344502978026867">
        <ele>263.060000000000002</ele>
        <time>2015-04-09T09:43:08Z</time>
      </trkpt>
      <trkpt lat="47.114406991750002" lon="16.344476994127035">
        <ele>263.060000000000002</ele>
        <time>2015-04-09T09:43:10Z</time>
      </trkpt>
      <trkpt lat="47.114395005628467" lon="16.344462996348739">
        <ele>264.019999999999982</ele>
        <time>2015-04-09T09:43:27Z</time>
      </trkpt>
      <trkpt lat="47.1143570356071" lon="16.34442301467061">
        <ele>264.019999999999982</ele>
        <time>2015-04-09T09:43:39Z</time>
      </trkpt>
      <trkpt lat="47.1143380086869" lon="16.344397030770779">
        <ele>264.5</ele>
        <time>2015-04-09T09:43:41Z</time>
      </trkpt>
      <trkpt lat="47.114212028682232" lon="16.344241965562105">
        <ele>267.860000000000014</ele>
        <time>2015-04-09T09:43:52Z</time>
      </trkpt>
      <trkpt lat="47.114067021757364" lon="16.344061000272632">
        <ele>270.75</ele>
        <time>2015-04-09T09:44:06Z</time>
      </trkpt>
      <trkpt lat="47.113913968205452" lon="16.343839969485998">
        <ele>274.110000000000014</ele>
        <time>2015-04-09T09:44:22Z</time>
      </trkpt>
      <trkpt lat="47.113750018179417" lon="16.34354199282825">
        <ele>277</ele>
        <time>2015-04-09T09:44:41Z</time>
      </trkpt>
      <trkpt lat="47.113682040944695" lon="16.343401009216905">
        <ele>278.439999999999998</ele>
        <time>2015-04-09T09:44:56Z</time>
      </trkpt>
      <trkpt lat="47.113673994317651" lon="16.343386005610228">
        <ele>278.920000000000016</ele>
        <time>2015-04-09T09:44:57Z</time>
      </trkpt>
      <trkpt lat="47.113667037338018" lon="16.343364967033267">
        <ele>278.920000000000016</ele>
        <time>2015-04-09T09:44:58Z</time>
      </trkpt>
      <trkpt lat="47.113658990710974" lon="16.343348035588861">
        <ele>278.920000000000016</ele>
        <time>2015-04-09T09:44:59Z</time>
      </trkpt>
      <trkpt lat="47.113651027902961" lon="16.343332026153803">
        <ele>279.879999999999995</ele>
        <time>2015-04-09T09:45:00Z</time>
      </trkpt>
      <trkpt lat="47.113643987104297" lon="16.343317022547126">
        <ele>279.399999999999977</ele>
        <time>2015-04-09T09:45:01Z</time>
      </trkpt>
      <trkpt lat="47.113632000982761" lon="16.343302018940449">
        <ele>279.879999999999995</ele>
        <time>2015-04-09T09:45:02Z</time>
      </trkpt>
      <trkpt lat="47.113495040684938" lon="16.343018040060997">
        <ele>282.769999999999982</ele>
        <time>2015-04-09T09:45:19Z</time>
      </trkpt>
      <trkpt lat="47.113346010446548" lon="16.34276800788939">
        <ele>285.649999999999977</ele>
        <time>2015-04-09T09:45:37Z</time>
      </trkpt>
      <trkpt lat="47.113151969388127" lon="16.342559969052672">
        <ele>288.529999999999973</ele>
        <time>2015-04-09T09:45:54Z</time>
      </trkpt>
      <trkpt lat="47.113029006868601" lon="16.342443041503429">
        <ele>289.490000000000009</ele>
        <time>2015-04-09T09:46:04Z</time>
      </trkpt>
      <trkpt lat="47.112843012437224" lon="16.342255035415292">
        <ele>292.379999999999995</ele>
        <time>2015-04-09T09:46:20Z</time>
      </trkpt>
      <trkpt lat="47.112602032721043" lon="16.3420370221138">
        <ele>294.779999999999973</ele>
        <time>2015-04-09T09:46:39Z</time>
      </trkpt>
      <trkpt lat="47.112385025247931" lon="16.34182495996356">
        <ele>297.180000000000007</ele>
        <time>2015-04-09T09:46:57Z</time>
      </trkpt>
      <trkpt lat="47.11218997836113" lon="16.341635026037693">
        <ele>299.589999999999975</ele>
        <time>2015-04-09T09:47:14Z</time>
      </trkpt>
      <trkpt lat="47.112002978101373" lon="16.341459006071091">
        <ele>301.509999999999991</ele>
        <time>2015-04-09T09:47:25Z</time>
      </trkpt>
      <trkpt lat="47.111809020861983" lon="16.341249039396644">
        <ele>302.470000000000027</ele>
        <time>2015-04-09T09:47:38Z</time>
      </trkpt>
      <trkpt lat="47.111529987305403" lon="16.340887024998665">
        <ele>303.430000000000007</ele>
        <time>2015-04-09T09:47:52Z</time>
      </trkpt>
      <trkpt lat="47.11109203286469" lon="16.340215969830751">
        <ele>303.430000000000007</ele>
        <time>2015-04-09T09:48:08Z</time>
      </trkpt>
      <trkpt lat="47.11105297319591" lon="16.340177999809384">
        <ele>303.430000000000007</ele>
        <time>2015-04-09T09:48:09Z</time>
      </trkpt>
      <trkpt lat="47.110531032085419" lon="16.339691011235118">
        <ele>304.389999999999986</ele>
        <time>2015-04-09T09:48:24Z</time>
      </trkpt>
      <trkpt lat="47.110076984390616" lon="16.339207040145993">
        <ele>305.360000000000014</ele>
        <time>2015-04-09T09:48:40Z</time>
      </trkpt>
      <trkpt lat="47.109840027987957" lon="16.338875032961369">
        <ele>307.279999999999973</ele>
        <time>2015-04-09T09:48:53Z</time>
      </trkpt>
      <trkpt lat="47.1096530277282" lon="16.338775958865881">
        <ele>306.319999999999993</ele>
        <time>2015-04-09T09:48:59Z</time>
      </trkpt>
      <trkpt lat="47.109348010271788" lon="16.338743017986417">
        <ele>306.319999999999993</ele>
        <time>2015-04-09T09:49:06Z</time>
      </trkpt>
      <trkpt lat="47.109306016936898" lon="16.338735977187753">
        <ele>306.800000000000011</ele>
        <time>2015-04-09T09:49:07Z</time>
      </trkpt>
      <trkpt lat="47.109264023602009" lon="16.33872801437974">
        <ele>306.800000000000011</ele>
        <time>2015-04-09T09:49:08Z</time>
      </trkpt>
      <trkpt lat="47.108649965375662" lon="16.338583007454872">
        <ele>308.240000000000009</ele>
        <time>2015-04-09T09:49:24Z</time>
      </trkpt>
      <trkpt lat="47.108212010934949" lon="16.338479993864894">
        <ele>311.120000000000005</ele>
        <time>2015-04-09T09:49:39Z</time>
      </trkpt>
      <trkpt lat="47.107872040942311" lon="16.338358037173748">
        <ele>312.569999999999993</ele>
        <time>2015-04-09T09:49:53Z</time>
      </trkpt>
      <trkpt lat="47.107536010444164" lon="16.338284024968743">
        <ele>314.490000000000009</ele>
        <time>2015-04-09T09:50:06Z</time>
      </trkpt>
      <trkpt lat="47.107193022966385" lon="16.338198026642203">
        <ele>316.410000000000025</ele>
        <time>2015-04-09T09:50:19Z</time>
      </trkpt>
      <trkpt lat="47.106868978589773" lon="16.338099036365747">
        <ele>318.329999999999984</ele>
        <time>2015-04-09T09:50:31Z</time>
      </trkpt>
      <trkpt lat="47.106448961421847" lon="16.337985964491963">
        <ele>319.779999999999973</ele>
        <time>2015-04-09T09:50:47Z</time>
      </trkpt>
      <trkpt lat="47.106213010847569" lon="16.337906001135707">
        <ele>318.329999999999984</ele>
        <time>2015-04-09T09:51:01Z</time>
      </trkpt>
      <trkpt lat="47.106204964220524" lon="16.337894015014172">
        <ele>319.300000000000011</ele>
        <time>2015-04-09T09:51:17Z</time>
      </trkpt>
      <trkpt lat="47.106204964220524" lon="16.337894015014172">
        <ele>319.779999999999973</ele>
        <time>2015-04-09T09:51:29Z</time>
      </trkpt>
      <trkpt lat="47.106189960613847" lon="16.337888985872269">
        <ele>319.300000000000011</ele>
        <time>2015-04-09T09:51:41Z</time>
      </trkpt>
      <trkpt lat="47.106171017512679" lon="16.337881023064256">
        <ele>319.300000000000011</ele>
        <time>2015-04-09T09:51:42Z</time>
      </trkpt>
      <trkpt lat="47.106147967278957" lon="16.337879011407495">
        <ele>319.300000000000011</ele>
        <time>2015-04-09T09:51:43Z</time>
      </trkpt>
      <trkpt lat="47.106120977550745" lon="16.337874988093972">
        <ele>318.810000000000002</ele>
        <time>2015-04-09T09:51:44Z</time>
      </trkpt>
      <trkpt lat="47.106093987822533" lon="16.337869958952069">
        <ele>318.810000000000002</ele>
        <time>2015-04-09T09:51:45Z</time>
      </trkpt>
      <trkpt lat="47.105575986206532" lon="16.337650017812848">
        <ele>315.930000000000007</ele>
        <time>2015-04-09T09:51:57Z</time>
      </trkpt>
      <trkpt lat="47.104697981849313" lon="16.337265037000179">
        <ele>313.529999999999973</ele>
        <time>2015-04-09T09:52:11Z</time>
      </trkpt>
      <trkpt lat="47.104308977723122" lon="16.337140984833241">
        <ele>312.089999999999975</ele>
        <time>2015-04-09T09:52:17Z</time>
      </trkpt>
      <trkpt lat="47.104244017973542" lon="16.337132016196847">
        <ele>312.569999999999993</ele>
        <time>2015-04-09T09:52:18Z</time>
      </trkpt>
      <trkpt lat="47.10318798199296" lon="16.337135033681989">
        <ele>312.089999999999975</ele>
        <time>2015-04-09T09:52:34Z</time>
      </trkpt>
      <trkpt lat="47.102263960987329" lon="16.337177027016878">
        <ele>312.569999999999993</ele>
        <time>2015-04-09T09:52:49Z</time>
      </trkpt>
      <trkpt lat="47.102203024551272" lon="16.337189013138413">
        <ele>312.569999999999993</ele>
        <time>2015-04-09T09:52:50Z</time>
      </trkpt>
      <trkpt lat="47.102142004296184" lon="16.337199993431568">
        <ele>312.569999999999993</ele>
        <time>2015-04-09T09:52:51Z</time>
      </trkpt>
      <trkpt lat="47.101550996303558" lon="16.337280040606856">
        <ele>309.680000000000007</ele>
        <time>2015-04-09T09:53:00Z</time>
      </trkpt>
      <trkpt lat="47.101238016039133" lon="16.337334020063281">
        <ele>307.279999999999973</ele>
        <time>2015-04-09T09:53:04Z</time>
      </trkpt>
      <trkpt lat="47.100898968055844" lon="16.337380958721042">
        <ele>305.360000000000014</ele>
        <time>2015-04-09T09:53:08Z</time>
      </trkpt>
      <trkpt lat="47.09985701367259" lon="16.337639037519693">
        <ele>304.389999999999986</ele>
        <time>2015-04-09T09:53:22Z</time>
      </trkpt>
      <trkpt lat="47.099662972614169" lon="16.337689999490976">
        <ele>303.910000000000025</ele>
        <time>2015-04-09T09:53:25Z</time>
      </trkpt>
      <trkpt lat="47.098763007670641" lon="16.337940031662583">
        <ele>305.360000000000014</ele>
        <time>2015-04-09T09:53:40Z</time>
      </trkpt>
      <trkpt lat="47.09833100438118" lon="16.338055031374097">
        <ele>305.839999999999975</ele>
        <time>2015-04-09T09:53:49Z</time>
      </trkpt>
      <trkpt lat="47.09781602025032" lon="16.338181011378765">
        <ele>307.759999999999991</ele>
        <time>2015-04-09T09:54:01Z</time>
      </trkpt>
      <trkpt lat="47.097392985597253" lon="16.338310008868575">
        <ele>309.199999999999989</ele>
        <time>2015-04-09T09:54:13Z</time>
      </trkpt>
      <trkpt lat="47.096831984817982" lon="16.338460966944695">
        <ele>310.160000000000025</ele>
        <time>2015-04-09T09:54:27Z</time>
      </trkpt>
      <trkpt lat="47.096294034272432" lon="16.338618965819478">
        <ele>310.160000000000025</ele>
        <time>2015-04-09T09:54:40Z</time>
      </trkpt>
      <trkpt lat="47.095512002706528" lon="16.338818036019802">
        <ele>308.240000000000009</ele>
        <time>2015-04-09T09:54:55Z</time>
      </trkpt>
      <trkpt lat="47.095336988568306" lon="16.338864974677563">
        <ele>306.800000000000011</ele>
        <time>2015-04-09T09:54:58Z</time>
      </trkpt>
      <trkpt lat="47.094612037763" lon="16.339033031836152">
        <ele>303.910000000000025</ele>
        <time>2015-04-09T09:55:09Z</time>
      </trkpt>
      <trkpt lat="47.09371198900044" lon="16.339273005723953">
        <ele>303.430000000000007</ele>
        <time>2015-04-09T09:55:23Z</time>
      </trkpt>
      <trkpt lat="47.093654992058873" lon="16.339293960481882">
        <ele>303.430000000000007</ele>
        <time>2015-04-09T09:55:24Z</time>
      </trkpt>
      <trkpt lat="47.092757960781455" lon="16.339528989046812">
        <ele>302.949999999999989</ele>
        <time>2015-04-09T09:55:40Z</time>
      </trkpt>
      <trkpt lat="47.091811979189515" lon="16.339770974591374">
        <ele>301.990000000000009</ele>
        <time>2015-04-09T09:55:56Z</time>
      </trkpt>
      <trkpt lat="47.090767007321119" lon="16.340058976784348">
        <ele>299.110000000000014</ele>
        <time>2015-04-09T09:56:12Z</time>
      </trkpt>
      <trkpt lat="47.089843992143869" lon="16.340285958722234">
        <ele>297.670000000000016</ele>
        <time>2015-04-09T09:56:27Z</time>
      </trkpt>
      <trkpt lat="47.089016027748585" lon="16.340505983680487">
        <ele>296.699999999999989</ele>
        <time>2015-04-09T09:56:41Z</time>
      </trkpt>
      <trkpt lat="47.088394006714225" lon="16.340676974505186">
        <ele>295.740000000000009</ele>
        <time>2015-04-09T09:56:51Z</time>
      </trkpt>
      <trkpt lat="47.087402008473873" lon="16.34096103720367">
        <ele>293.339999999999975</ele>
        <time>2015-04-09T09:57:07Z</time>
      </trkpt>
      <trkpt lat="47.086574966087937" lon="16.341560008004308">
        <ele>290.939999999999998</ele>
        <time>2015-04-09T09:57:21Z</time>
      </trkpt>
      <trkpt lat="47.085555978119373" lon="16.342202983796597">
        <ele>288.529999999999973</ele>
        <time>2015-04-09T09:57:38Z</time>
      </trkpt>
      <trkpt lat="47.085254983976483" lon="16.342323012650013">
        <ele>288.050000000000011</ele>
        <time>2015-04-09T09:57:43Z</time>
      </trkpt>
      <trkpt lat="47.085196981206536" lon="16.342347990721464">
        <ele>288.050000000000011</ele>
        <time>2015-04-09T09:57:44Z</time>
      </trkpt>
      <trkpt lat="47.084430959075689" lon="16.342567009851336">
        <ele>286.610000000000014</ele>
        <time>2015-04-09T09:57:57Z</time>
      </trkpt>
      <trkpt lat="47.083996022120118" lon="16.342647979035974">
        <ele>286.129999999999995</ele>
        <time>2015-04-09T09:58:04Z</time>
      </trkpt>
      <trkpt lat="47.083935001865029" lon="16.342655019834638">
        <ele>285.649999999999977</ele>
        <time>2015-04-09T09:58:05Z</time>
      </trkpt>
      <trkpt lat="47.083869958296418" lon="16.342667005956173">
        <ele>285.649999999999977</ele>
        <time>2015-04-09T09:58:06Z</time>
      </trkpt>
      <trkpt lat="47.082874020561576" lon="16.342730037868023">
        <ele>282.769999999999982</ele>
        <time>2015-04-09T09:58:22Z</time>
      </trkpt>
      <trkpt lat="47.08217597566545" lon="16.342658959329128">
        <ele>279.399999999999977</ele>
        <time>2015-04-09T09:58:32Z</time>
      </trkpt>
      <trkpt lat="47.082103975117207" lon="16.342644039541483">
        <ele>279.399999999999977</ele>
        <time>2015-04-09T09:58:33Z</time>
      </trkpt>
      <trkpt lat="47.080897986888885" lon="16.342468019574881">
        <ele>277.480000000000018</ele>
        <time>2015-04-09T09:58:50Z</time>
      </trkpt>
      <trkpt lat="47.079459987580776" lon="16.342279007658362">
        <ele>276.04000000000002</ele>
        <time>2015-04-09T09:59:12Z</time>
      </trkpt>
      <trkpt lat="47.078487016260624" lon="16.342163002118468">
        <ele>275.069999999999993</ele>
        <time>2015-04-09T09:59:28Z</time>
      </trkpt>
      <trkpt lat="47.078255005180836" lon="16.342136012390256">
        <ele>275.069999999999993</ele>
        <time>2015-04-09T09:59:32Z</time>
      </trkpt>
      <trkpt lat="47.078197002410889" lon="16.342125032097101">
        <ele>275.069999999999993</ele>
        <time>2015-04-09T09:59:33Z</time>
      </trkpt>
      <trkpt lat="47.077876981347799" lon="16.342035010457039">
        <ele>274.589999999999975</ele>
        <time>2015-04-09T09:59:39Z</time>
      </trkpt>
      <trkpt lat="47.077830964699388" lon="16.342007014900446">
        <ele>274.110000000000014</ele>
        <time>2015-04-09T09:59:40Z</time>
      </trkpt>
      <trkpt lat="47.077782014384866" lon="16.341969966888428">
        <ele>274.589999999999975</ele>
        <time>2015-04-09T09:59:47Z</time>
      </trkpt>
      <trkpt lat="47.077782014384866" lon="16.341969966888428">
        <ele>274.110000000000014</ele>
        <time>2015-04-09T10:00:13Z</time>
      </trkpt>
      <trkpt lat="47.077785031870008" lon="16.341976001858711">
        <ele>274.110000000000014</ele>
        <time>2015-04-09T10:00:33Z</time>
      </trkpt>
      <trkpt lat="47.07777002826333" lon="16.341967033222318">
        <ele>274.589999999999975</ele>
        <time>2015-04-09T10:00:34Z</time>
      </trkpt>
      <trkpt lat="47.077751001343131" lon="16.34195102378726">
        <ele>274.110000000000014</ele>
        <time>2015-04-09T10:00:35Z</time>
      </trkpt>
      <trkpt lat="47.077728034928441" lon="16.341934008523822">
        <ele>274.110000000000014</ele>
        <time>2015-04-09T10:00:36Z</time>
      </trkpt>
      <trkpt lat="47.077704984694719" lon="16.341916993260384">
        <ele>274.589999999999975</ele>
        <time>2015-04-09T10:00:37Z</time>
      </trkpt>
      <trkpt lat="47.077679000794888" lon="16.341890003532171">
        <ele>274.110000000000014</ele>
        <time>2015-04-09T10:00:38Z</time>
      </trkpt>
      <trkpt lat="47.077647987753153" lon="16.341857984662056">
        <ele>273.629999999999995</ele>
        <time>2015-04-09T10:00:39Z</time>
      </trkpt>
      <trkpt lat="47.077144989743829" lon="16.341290026903152">
        <ele>270.75</ele>
        <time>2015-04-09T10:00:50Z</time>
      </trkpt>
      <trkpt lat="47.07708396948874" lon="16.341217020526528">
        <ele>270.75</ele>
        <time>2015-04-09T10:00:51Z</time>
      </trkpt>
      <trkpt lat="47.076751962304115" lon="16.340838996693492">
        <ele>267.379999999999995</ele>
        <time>2015-04-09T10:00:56Z</time>
      </trkpt>
      <trkpt lat="47.076392965391278" lon="16.340407999232411">
        <ele>264.019999999999982</ele>
        <time>2015-04-09T10:01:01Z</time>
      </trkpt>
      <trkpt lat="47.076241001486778" lon="16.340223010629416">
        <ele>262.579999999999984</ele>
        <time>2015-04-09T10:01:03Z</time>
      </trkpt>
      <trkpt lat="47.075928021222353" lon="16.339858984574676">
        <ele>259.689999999999998</ele>
        <time>2015-04-09T10:01:07Z</time>
      </trkpt>
      <trkpt lat="47.075389986857772" lon="16.339225983247161">
        <ele>256.329999999999984</ele>
        <time>2015-04-09T10:01:14Z</time>
      </trkpt>
      <trkpt lat="47.075165016576648" lon="16.33896597661078">
        <ele>255.370000000000005</ele>
        <time>2015-04-09T10:01:17Z</time>
      </trkpt>
      <trkpt lat="47.074791016057134" lon="16.338532967492938">
        <ele>252.47999999999999</ele>
        <time>2015-04-09T10:01:22Z</time>
      </trkpt>
      <trkpt lat="47.07407402805984" lon="16.337927039712667">
        <ele>249.120000000000005</ele>
        <time>2015-04-09T10:01:31Z</time>
      </trkpt>
      <trkpt lat="47.072952026501298" lon="16.337140984833241">
        <ele>246.719999999999999</ele>
        <time>2015-04-09T10:01:47Z</time>
      </trkpt>
      <trkpt lat="47.072018031030893" lon="16.336333975195885">
        <ele>244.310000000000002</ele>
        <time>2015-04-09T10:02:02Z</time>
      </trkpt>
      <trkpt lat="47.071532970294356" lon="16.335899038240314">
        <ele>243.349999999999994</ele>
        <time>2015-04-09T10:02:10Z</time>
      </trkpt>
      <trkpt lat="47.070716992020607" lon="16.33503302000463">
        <ele>241.430000000000007</ele>
        <time>2015-04-09T10:02:25Z</time>
      </trkpt>
      <trkpt lat="47.070067981258035" lon="16.334279989823699">
        <ele>240.949999999999989</ele>
        <time>2015-04-09T10:02:38Z</time>
      </trkpt>
      <trkpt lat="47.070022970438004" lon="16.334213018417358">
        <ele>240.949999999999989</ele>
        <time>2015-04-09T10:02:39Z</time>
      </trkpt>
      <trkpt lat="47.069904031231999" lon="16.333991987630725">
        <ele>239.990000000000009</ele>
        <time>2015-04-09T10:02:42Z</time>
      </trkpt>
      <trkpt lat="47.069454006850719" lon="16.332711987197399">
        <ele>239.990000000000009</ele>
        <time>2015-04-09T10:02:58Z</time>
      </trkpt>
      <trkpt lat="47.069419976323843" lon="16.332637974992394">
        <ele>240.469999999999999</ele>
        <time>2015-04-09T10:02:59Z</time>
      </trkpt>
      <trkpt lat="47.068858975544572" lon="16.331691993400455">
        <ele>239.509999999999991</ele>
        <time>2015-04-09T10:03:13Z</time>
      </trkpt>
      <trkpt lat="47.068665018305182" lon="16.33146702311933">
        <ele>239.509999999999991</ele>
        <time>2015-04-09T10:03:17Z</time>
      </trkpt>
      <trkpt lat="47.068611038848758" lon="16.331425029784441">
        <ele>239.02000000000001</ele>
        <time>2015-04-09T10:03:18Z</time>
      </trkpt>
      <trkpt lat="47.068562004715204" lon="16.331394016742706">
        <ele>239.02000000000001</ele>
        <time>2015-04-09T10:03:19Z</time>
      </trkpt>
      <trkpt lat="47.067776033654809" lon="16.331098973751068">
        <ele>238.539999999999992</ele>
        <time>2015-04-09T10:03:33Z</time>
      </trkpt>
      <trkpt lat="47.066829968243837" lon="16.330766966566443">
        <ele>237.099999999999994</ele>
        <time>2015-04-09T10:03:49Z</time>
      </trkpt>
      <trkpt lat="47.065894966945052" lon="16.330229016020894">
        <ele>236.620000000000005</ele>
        <time>2015-04-09T10:04:05Z</time>
      </trkpt>
      <trkpt lat="47.065135985612869" lon="16.329562989994884">
        <ele>235.180000000000007</ele>
        <time>2015-04-09T10:04:19Z</time>
      </trkpt>
      <trkpt lat="47.064959965646267" lon="16.329390993341804">
        <ele>234.219999999999999</ele>
        <time>2015-04-09T10:04:22Z</time>
      </trkpt>
      <trkpt lat="47.064906992018223" lon="16.329316981136799">
        <ele>233.259999999999991</ele>
        <time>2015-04-09T10:04:23Z</time>
      </trkpt>
      <trkpt lat="47.06485703587532" lon="16.329228971153498">
        <ele>232.780000000000001</ele>
        <time>2015-04-09T10:04:24Z</time>
      </trkpt>
      <trkpt lat="47.064544977620244" lon="16.328678028658032">
        <ele>229.889999999999986</ele>
        <time>2015-04-09T10:04:30Z</time>
      </trkpt>
      <trkpt lat="47.064152033999562" lon="16.328107975423336">
        <ele>227.969999999999999</ele>
        <time>2015-04-09T10:04:39Z</time>
      </trkpt>
      <trkpt lat="47.063838969916105" lon="16.327959029003978">
        <ele>227.490000000000009</ele>
        <time>2015-04-09T10:04:49Z</time>
      </trkpt>
      <trkpt lat="47.063727993518114" lon="16.32800898514688">
        <ele>227.490000000000009</ele>
        <time>2015-04-09T10:04:52Z</time>
      </trkpt>
      <trkpt lat="47.063682982698083" lon="16.327989958226681">
        <ele>226.530000000000001</ele>
        <time>2015-04-09T10:04:53Z</time>
      </trkpt>
      <trkpt lat="47.063117958605289" lon="16.327737998217344">
        <ele>227.009999999999991</ele>
        <time>2015-04-09T10:05:04Z</time>
      </trkpt>
      <trkpt lat="47.063064984977245" lon="16.327718971297145">
        <ele>226.530000000000001</ele>
        <time>2015-04-09T10:05:05Z</time>
      </trkpt>
      <trkpt lat="47.062491998076439" lon="16.327376989647746">
        <ele>226.530000000000001</ele>
        <time>2015-04-09T10:05:19Z</time>
      </trkpt>
      <trkpt lat="47.062397031113505" lon="16.327086975798011">
        <ele>227.009999999999991</ele>
        <time>2015-04-09T10:05:28Z</time>
      </trkpt>
      <trkpt lat="47.062363000586629" lon="16.327044982463121">
        <ele>227.009999999999991</ele>
        <time>2015-04-09T10:05:29Z</time>
      </trkpt>
      <trkpt lat="47.062325030565262" lon="16.327016986906528">
        <ele>227.009999999999991</ele>
        <time>2015-04-09T10:05:30Z</time>
      </trkpt>
      <trkpt lat="47.06227901391685" lon="16.327001983299851">
        <ele>227.009999999999991</ele>
        <time>2015-04-09T10:05:31Z</time>
      </trkpt>
      <trkpt lat="47.062225034460425" lon="16.32699997164309">
        <ele>227.009999999999991</ele>
        <time>2015-04-09T10:05:32Z</time>
      </trkpt>
      <trkpt lat="47.062176000326872" lon="16.327001983299851">
        <ele>227.009999999999991</ele>
        <time>2015-04-09T10:05:33Z</time>
      </trkpt>
      <trkpt lat="47.062122020870447" lon="16.32699997164309">
        <ele>227.009999999999991</ele>
        <time>2015-04-09T10:05:34Z</time>
      </trkpt>
      <trkpt lat="47.061797976493835" lon="16.327016986906528">
        <ele>227.490000000000009</ele>
        <time>2015-04-09T10:05:40Z</time>
      </trkpt>
      <trkpt lat="47.061687000095844" lon="16.327002989128232">
        <ele>227.009999999999991</ele>
        <time>2015-04-09T10:05:42Z</time>
      </trkpt>
      <trkpt lat="47.061577029526234" lon="16.326968958601356">
        <ele>227.009999999999991</ele>
        <time>2015-04-09T10:05:44Z</time>
      </trkpt>
      <trkpt lat="47.061522966250777" lon="16.326943980529904">
        <ele>227.490000000000009</ele>
        <time>2015-04-09T10:05:45Z</time>
      </trkpt>
      <trkpt lat="47.060615960508585" lon="16.326409969478846">
        <ele>227.490000000000009</ele>
        <time>2015-04-09T10:06:03Z</time>
      </trkpt>
      <trkpt lat="47.060005003586411" lon="16.326121967285872">
        <ele>227.490000000000009</ele>
        <time>2015-04-09T10:06:16Z</time>
      </trkpt>
      <trkpt lat="47.059723036363721" lon="16.326091960072517">
        <ele>228.449999999999989</ele>
        <time>2015-04-09T10:06:22Z</time>
      </trkpt>
      <trkpt lat="47.059398991987109" lon="16.325830025598407">
        <ele>230.370000000000005</ele>
        <time>2015-04-09T10:06:33Z</time>
      </trkpt>
      <trkpt lat="47.059376025572419" lon="16.3254280295223">
        <ele>231.810000000000002</ele>
        <time>2015-04-09T10:06:42Z</time>
      </trkpt>
      <trkpt lat="47.05937996506691" lon="16.324894018471241">
        <ele>233.259999999999991</ele>
        <time>2015-04-09T10:06:53Z</time>
      </trkpt>
      <trkpt lat="47.059345012530684" lon="16.324337041005492">
        <ele>235.659999999999997</ele>
        <time>2015-04-09T10:07:06Z</time>
      </trkpt>
      <trkpt lat="47.059382982552052" lon="16.323781991377473">
        <ele>237.580000000000013</ele>
        <time>2015-04-09T10:07:18Z</time>
      </trkpt>
      <trkpt lat="47.059436962008476" lon="16.323550986126065">
        <ele>238.060000000000002</ele>
        <time>2015-04-09T10:07:26Z</time>
      </trkpt>
      <trkpt lat="47.059436962008476" lon="16.323520978912711">
        <ele>238.060000000000002</ele>
        <time>2015-04-09T10:07:27Z</time>
      </trkpt>
      <trkpt lat="47.059440985321999" lon="16.323488038033247">
        <ele>238.060000000000002</ele>
        <time>2015-04-09T10:07:28Z</time>
      </trkpt>
      <trkpt lat="47.059448026120663" lon="16.323461970314384">
        <ele>238.060000000000002</ele>
        <time>2015-04-09T10:07:29Z</time>
      </trkpt>
      <trkpt lat="47.059455988928676" lon="16.323439003899693">
        <ele>238.060000000000002</ele>
        <time>2015-04-09T10:07:30Z</time>
      </trkpt>
      <trkpt lat="47.059505023062229" lon="16.323388963937759">
        <ele>237.099999999999994</ele>
        <time>2015-04-09T10:07:39Z</time>
      </trkpt>
      <trkpt lat="47.059521032497287" lon="16.323200035840273">
        <ele>248.159999999999997</ele>
        <time>2015-04-09T10:50:13Z</time>
      </trkpt>
      <trkpt lat="47.059512985870242" lon="16.323055028915405">
        <ele>250.560000000000002</ele>
        <time>2015-04-09T10:50:20Z</time>
      </trkpt>
      <trkpt lat="47.059460012242198" lon="16.322644986212254">
        <ele>252</ele>
        <time>2015-04-09T10:50:31Z</time>
      </trkpt>
      <trkpt lat="47.059237975627184" lon="16.321976026520133">
        <ele>252.960000000000008</ele>
        <time>2015-04-09T10:50:44Z</time>
      </trkpt>
      <trkpt lat="47.059116018936038" lon="16.321706967428327">
        <ele>252.960000000000008</ele>
        <time>2015-04-09T10:50:49Z</time>
      </trkpt>
      <trkpt lat="47.058929018676281" lon="16.321404967457056">
        <ele>252.47999999999999</ele>
        <time>2015-04-09T10:50:55Z</time>
      </trkpt>
      <trkpt lat="47.058743024244905" lon="16.321204975247383">
        <ele>252.960000000000008</ele>
        <time>2015-04-09T10:51:00Z</time>
      </trkpt>
      <trkpt lat="47.058574967086315" lon="16.320949997752905">
        <ele>252.47999999999999</ele>
        <time>2015-04-09T10:51:05Z</time>
      </trkpt>
      <trkpt lat="47.05854001455009" lon="16.320898029953241">
        <ele>252.47999999999999</ele>
        <time>2015-04-09T10:51:06Z</time>
      </trkpt>
      <trkpt lat="47.058288976550102" lon="16.320635005831718">
        <ele>252.47999999999999</ele>
        <time>2015-04-09T10:51:12Z</time>
      </trkpt>
      <trkpt lat="47.058136006817222" lon="16.320538027212024">
        <ele>252.47999999999999</ele>
        <time>2015-04-09T10:51:15Z</time>
      </trkpt>
      <trkpt lat="47.058083033189178" lon="16.320502990856767">
        <ele>252</ele>
        <time>2015-04-09T10:51:16Z</time>
      </trkpt>
      <trkpt lat="47.057796036824584" lon="16.320307021960616">
        <ele>252.47999999999999</ele>
        <time>2015-04-09T10:51:22Z</time>
      </trkpt>
      <trkpt lat="47.057754965499043" lon="16.320268968120217">
        <ele>252</ele>
        <time>2015-04-09T10:51:23Z</time>
      </trkpt>
      <trkpt lat="47.057628985494375" lon="16.320153968408704">
        <ele>250.560000000000002</ele>
        <time>2015-04-09T10:51:26Z</time>
      </trkpt>
      <trkpt lat="47.057586992159486" lon="16.320115998387337">
        <ele>250.560000000000002</ele>
        <time>2015-04-09T10:51:27Z</time>
      </trkpt>
      <trkpt lat="47.057549022138119" lon="16.320065036416054">
        <ele>250.080000000000013</ele>
        <time>2015-04-09T10:51:28Z</time>
      </trkpt>
      <trkpt lat="47.057513985782862" lon="16.319997981190681">
        <ele>249.120000000000005</ele>
        <time>2015-04-09T10:51:29Z</time>
      </trkpt>
      <trkpt lat="47.057483978569508" lon="16.319920029491186">
        <ele>248.639999999999986</ele>
        <time>2015-04-09T10:51:30Z</time>
      </trkpt>
      <trkpt lat="47.057456988841295" lon="16.319830007851124">
        <ele>248.159999999999997</ele>
        <time>2015-04-09T10:51:31Z</time>
      </trkpt>
      <trkpt lat="47.057434022426605" lon="16.319731017574668">
        <ele>247.199999999999989</ele>
        <time>2015-04-09T10:51:32Z</time>
      </trkpt>
      <trkpt lat="47.057269988581538" lon="16.318966001272202">
        <ele>244.789999999999992</ele>
        <time>2015-04-09T10:51:39Z</time>
      </trkpt>
      <trkpt lat="47.057120958343148" lon="16.317594973370433">
        <ele>243.830000000000013</ele>
        <time>2015-04-09T10:51:53Z</time>
      </trkpt>
      <trkpt lat="47.056964971125126" lon="16.316196033731103">
        <ele>243.830000000000013</ele>
        <time>2015-04-09T10:52:10Z</time>
      </trkpt>
      <trkpt lat="47.056698007509112" lon="16.314874961972237">
        <ele>243.830000000000013</ele>
        <time>2015-04-09T10:52:27Z</time>
      </trkpt>
      <trkpt lat="47.056412016972899" lon="16.313421037048101">
        <ele>243.830000000000013</ele>
        <time>2015-04-09T10:52:47Z</time>
      </trkpt>
      <trkpt lat="47.056114040315151" lon="16.31195998750627">
        <ele>243.830000000000013</ele>
        <time>2015-04-09T10:53:07Z</time>
      </trkpt>
      <trkpt lat="47.055893009528518" lon="16.310851983726025">
        <ele>243.830000000000013</ele>
        <time>2015-04-09T10:53:23Z</time>
      </trkpt>
      <trkpt lat="47.055716989561915" lon="16.309731993824244">
        <ele>244.310000000000002</ele>
        <time>2015-04-09T10:53:39Z</time>
      </trkpt>
      <trkpt lat="47.05578999593854" lon="16.308524999767542">
        <ele>245.75</ele>
        <time>2015-04-09T10:53:56Z</time>
      </trkpt>
      <trkpt lat="47.055873982608318" lon="16.307385982945561">
        <ele>246.22999999999999</ele>
        <time>2015-04-09T10:54:13Z</time>
      </trkpt>
      <trkpt lat="47.055945983156562" lon="16.30622299388051">
        <ele>246.719999999999999</ele>
        <time>2015-04-09T10:54:30Z</time>
      </trkpt>
      <trkpt lat="47.056210013106465" lon="16.305167963728309">
        <ele>245.27000000000001</ele>
        <time>2015-04-09T10:54:44Z</time>
      </trkpt>
      <trkpt lat="47.056781994178891" lon="16.30402903072536">
        <ele>245.75</ele>
        <time>2015-04-09T10:55:01Z</time>
      </trkpt>
      <trkpt lat="47.057178039103746" lon="16.303330985829234">
        <ele>244.789999999999992</ele>
        <time>2015-04-09T10:55:12Z</time>
      </trkpt>
      <trkpt lat="47.057208968326449" lon="16.303263008594513">
        <ele>244.789999999999992</ele>
        <time>2015-04-09T10:55:13Z</time>
      </trkpt>
      <trkpt lat="47.057835012674332" lon="16.301958030089736">
        <ele>245.27000000000001</ele>
        <time>2015-04-09T10:55:32Z</time>
      </trkpt>
      <trkpt lat="47.058272967115045" lon="16.300690015777946">
        <ele>244.789999999999992</ele>
        <time>2015-04-09T10:55:50Z</time>
      </trkpt>
      <trkpt lat="47.058582007884979" lon="16.299393000081182">
        <ele>244.310000000000002</ele>
        <time>2015-04-09T10:56:08Z</time>
      </trkpt>
      <trkpt lat="47.058773031458259" lon="16.29803697578609">
        <ele>244.789999999999992</ele>
        <time>2015-04-09T10:56:27Z</time>
      </trkpt>
      <trkpt lat="47.058975035324693" lon="16.296552959829569">
        <ele>245.27000000000001</ele>
        <time>2015-04-09T10:56:47Z</time>
      </trkpt>
      <trkpt lat="47.059134962037206" lon="16.295594992116094">
        <ele>245.27000000000001</ele>
        <time>2015-04-09T10:57:01Z</time>
      </trkpt>
      <trkpt lat="47.059340989217162" lon="16.294574998319149">
        <ele>245.75</ele>
        <time>2015-04-09T10:57:17Z</time>
      </trkpt>
      <trkpt lat="47.059608036652207" lon="16.293462971225381">
        <ele>246.719999999999999</ele>
        <time>2015-04-09T10:57:34Z</time>
      </trkpt>
      <trkpt lat="47.059943983331323" lon="16.292315991595387">
        <ele>246.719999999999999</ele>
        <time>2015-04-09T10:57:51Z</time>
      </trkpt>
      <trkpt lat="47.060286970809102" lon="16.291227014735341">
        <ele>247.199999999999989</ele>
        <time>2015-04-09T10:58:08Z</time>
      </trkpt>
      <trkpt lat="47.060664994642138" lon="16.290134014561772">
        <ele>247.680000000000007</ele>
        <time>2015-04-09T10:58:25Z</time>
      </trkpt>
      <trkpt lat="47.06101200543344" lon="16.289262967184186">
        <ele>248.639999999999986</ele>
        <time>2015-04-09T10:58:41Z</time>
      </trkpt>
      <trkpt lat="47.061344012618065" lon="16.288479007780552">
        <ele>247.680000000000007</ele>
        <time>2015-04-09T10:58:59Z</time>
      </trkpt>
      <trkpt lat="47.061665039509535" lon="16.287755984812975">
        <ele>247.680000000000007</ele>
        <time>2015-04-09T10:59:12Z</time>
      </trkpt>
      <trkpt lat="47.062119003385305" lon="16.286736996844411">
        <ele>248.159999999999997</ele>
        <time>2015-04-09T10:59:28Z</time>
      </trkpt>
      <trkpt lat="47.062686961144209" lon="16.285536037757993">
        <ele>247.199999999999989</ele>
        <time>2015-04-09T10:59:46Z</time>
      </trkpt>
      <trkpt lat="47.063392968848348" lon="16.284348992630839">
        <ele>246.22999999999999</ele>
        <time>2015-04-09T11:00:04Z</time>
      </trkpt>
      <trkpt lat="47.063721036538482" lon="16.283929981291294">
        <ele>246.22999999999999</ele>
        <time>2015-04-09T11:00:12Z</time>
      </trkpt>
      <trkpt lat="47.064434001222253" lon="16.283223973587155">
        <ele>245.75</ele>
        <time>2015-04-09T11:00:28Z</time>
      </trkpt>
      <trkpt lat="47.065258026123047" lon="16.282452000305057">
        <ele>245.75</ele>
        <time>2015-04-09T11:00:46Z</time>
      </trkpt>
      <trkpt lat="47.065964033827186" lon="16.281817993149161">
        <ele>245.27000000000001</ele>
        <time>2015-04-09T11:01:02Z</time>
      </trkpt>
      <trkpt lat="47.066871961578727" lon="16.281004026532173">
        <ele>245.75</ele>
        <time>2015-04-09T11:01:23Z</time>
      </trkpt>
      <trkpt lat="47.067486019805074" lon="16.280441014096141">
        <ele>245.75</ele>
        <time>2015-04-09T11:01:38Z</time>
      </trkpt>
      <trkpt lat="47.068328987807035" lon="16.279682032763958">
        <ele>246.22999999999999</ele>
        <time>2015-04-09T11:01:57Z</time>
      </trkpt>
      <trkpt lat="47.06913398578763" lon="16.27895699813962">
        <ele>247.199999999999989</ele>
        <time>2015-04-09T11:02:16Z</time>
      </trkpt>
      <trkpt lat="47.069217972457409" lon="16.278884997591376">
        <ele>247.199999999999989</ele>
        <time>2015-04-09T11:02:18Z</time>
      </trkpt>
      <trkpt lat="47.069259965792298" lon="16.27885197289288">
        <ele>247.199999999999989</ele>
        <time>2015-04-09T11:02:19Z</time>
      </trkpt>
      <trkpt lat="47.069298019632697" lon="16.278820037841797">
        <ele>247.199999999999989</ele>
        <time>2015-04-09T11:02:20Z</time>
      </trkpt>
      <trkpt lat="47.07007996737957" lon="16.278130961582065">
        <ele>247.680000000000007</ele>
        <time>2015-04-09T11:02:39Z</time>
      </trkpt>
      <trkpt lat="47.070743981748819" lon="16.277600973844528">
        <ele>248.639999999999986</ele>
        <time>2015-04-09T11:02:56Z</time>
      </trkpt>
      <trkpt lat="47.071545040234923" lon="16.277057994157076">
        <ele>249.120000000000005</ele>
        <time>2015-04-09T11:03:15Z</time>
      </trkpt>
      <trkpt lat="47.071659034118056" lon="16.276994962245226">
        <ele>249.120000000000005</ele>
        <time>2015-04-09T11:03:18Z</time>
      </trkpt>
      <trkpt lat="47.071697004139423" lon="16.276967972517014">
        <ele>249.599999999999994</ele>
        <time>2015-04-09T11:03:19Z</time>
      </trkpt>
      <trkpt lat="47.07173497416079" lon="16.27693897113204">
        <ele>249.599999999999994</ele>
        <time>2015-04-09T11:03:20Z</time>
      </trkpt>
      <trkpt lat="47.072464032098651" lon="16.276503028348088">
        <ele>249.599999999999994</ele>
        <time>2015-04-09T11:03:37Z</time>
      </trkpt>
      <trkpt lat="47.073078006505966" lon="16.276008998975158">
        <ele>250.080000000000013</ele>
        <time>2015-04-09T11:03:53Z</time>
      </trkpt>
      <trkpt lat="47.073727017268538" lon="16.2751330062747">
        <ele>250.560000000000002</ele>
        <time>2015-04-09T11:04:12Z</time>
      </trkpt>
      <trkpt lat="47.074168995022774" lon="16.274106977507472">
        <ele>250.560000000000002</ele>
        <time>2015-04-09T11:04:28Z</time>
      </trkpt>
      <trkpt lat="47.074421038851142" lon="16.272837035357952">
        <ele>249.599999999999994</ele>
        <time>2015-04-09T11:04:44Z</time>
      </trkpt>
      <trkpt lat="47.074450962245464" lon="16.271410016342998">
        <ele>248.159999999999997</ele>
        <time>2015-04-09T11:05:00Z</time>
      </trkpt>
      <trkpt lat="47.074390025809407" lon="16.27008399926126">
        <ele>247.680000000000007</ele>
        <time>2015-04-09T11:05:15Z</time>
      </trkpt>
      <trkpt lat="47.07407402805984" lon="16.268998961895704">
        <ele>247.680000000000007</ele>
        <time>2015-04-09T11:05:29Z</time>
      </trkpt>
      <trkpt lat="47.07360103726387" lon="16.267909985035658">
        <ele>247.680000000000007</ele>
        <time>2015-04-09T11:05:45Z</time>
      </trkpt>
      <trkpt lat="47.07317397929728" lon="16.267276983708143">
        <ele>247.680000000000007</ele>
        <time>2015-04-09T11:05:59Z</time>
      </trkpt>
      <trkpt lat="47.072711968794465" lon="16.266515990719199">
        <ele>246.22999999999999</ele>
        <time>2015-04-09T11:06:14Z</time>
      </trkpt>
      <trkpt lat="47.072284994646907" lon="16.265334980562329">
        <ele>246.719999999999999</ele>
        <time>2015-04-09T11:06:33Z</time>
      </trkpt>
      <trkpt lat="47.072048038244247" lon="16.264223037287593">
        <ele>247.680000000000007</ele>
        <time>2015-04-09T11:06:51Z</time>
      </trkpt>
      <trkpt lat="47.071857014670968" lon="16.262882016599178">
        <ele>249.599999999999994</ele>
        <time>2015-04-09T11:07:13Z</time>
      </trkpt>
      <trkpt lat="47.071719970554113" lon="16.262150024995208">
        <ele>250.560000000000002</ele>
        <time>2015-04-09T11:07:28Z</time>
      </trkpt>
      <trkpt lat="47.071578986942768" lon="16.261476958170533">
        <ele>252</ele>
        <time>2015-04-09T11:07:45Z</time>
      </trkpt>
      <trkpt lat="47.071568006649613" lon="16.261420967057347">
        <ele>252</ele>
        <time>2015-04-09T11:07:46Z</time>
      </trkpt>
      <trkpt lat="47.071438003331423" lon="16.260829959064722">
        <ele>253.439999999999998</ele>
        <time>2015-04-09T11:08:00Z</time>
      </trkpt>
      <trkpt lat="47.071330966427922" lon="16.260323021560907">
        <ele>254.889999999999986</ele>
        <time>2015-04-09T11:08:12Z</time>
      </trkpt>
      <trkpt lat="47.071231976151466" lon="16.259826980531216">
        <ele>257.29000000000002</ele>
        <time>2015-04-09T11:08:24Z</time>
      </trkpt>
      <trkpt lat="47.071140026673675" lon="16.259329011663795">
        <ele>259.689999999999998</ele>
        <time>2015-04-09T11:08:36Z</time>
      </trkpt>
      <trkpt lat="47.071090992540121" lon="16.258946964517236">
        <ele>261.620000000000005</ele>
        <time>2015-04-09T11:08:47Z</time>
      </trkpt>
      <trkpt lat="47.071048999205232" lon="16.258571958169341">
        <ele>263.060000000000002</ele>
        <time>2015-04-09T11:08:59Z</time>
      </trkpt>
      <trkpt lat="47.07098001614213" lon="16.258093016222119">
        <ele>264.980000000000018</ele>
        <time>2015-04-09T11:09:12Z</time>
      </trkpt>
      <trkpt lat="47.070899968966842" lon="16.257672999054193">
        <ele>265.939999999999998</ele>
        <time>2015-04-09T11:09:23Z</time>
      </trkpt>
      <trkpt lat="47.070773988962173" lon="16.257301010191441">
        <ele>266.899999999999977</ele>
        <time>2015-04-09T11:09:33Z</time>
      </trkpt>
      <trkpt lat="47.070477018132806" lon="16.256584022194147">
        <ele>267.379999999999995</ele>
        <time>2015-04-09T11:09:51Z</time>
      </trkpt>
      <trkpt lat="47.070351038128138" lon="16.256389981135726">
        <ele>266.899999999999977</ele>
        <time>2015-04-09T11:09:56Z</time>
      </trkpt>
      <trkpt lat="47.070030011236668" lon="16.256026960909367">
        <ele>263.54000000000002</ele>
        <time>2015-04-09T11:10:04Z</time>
      </trkpt>
      <trkpt lat="47.069781990721822" lon="16.255742982029915">
        <ele>260.649999999999977</ele>
        <time>2015-04-09T11:10:09Z</time>
      </trkpt>
      <trkpt lat="47.069729017093778" lon="16.255678022280335">
        <ele>260.170000000000016</ele>
        <time>2015-04-09T11:10:10Z</time>
      </trkpt>
      <trkpt lat="47.069572024047375" lon="16.255489010363817">
        <ele>258.730000000000018</ele>
        <time>2015-04-09T11:10:13Z</time>
      </trkpt>
      <trkpt lat="47.069480996578932" lon="16.255375016480684">
        <ele>258.730000000000018</ele>
        <time>2015-04-09T11:10:15Z</time>
      </trkpt>
      <trkpt lat="47.069397009909153" lon="16.255272002890706">
        <ele>257.769999999999982</ele>
        <time>2015-04-09T11:10:17Z</time>
      </trkpt>
      <trkpt lat="47.069320986047387" lon="16.255175024271011">
        <ele>256.810000000000002</ele>
        <time>2015-04-09T11:10:19Z</time>
      </trkpt>
      <trkpt lat="47.069225013256073" lon="16.255040997639298">
        <ele>256.810000000000002</ele>
        <time>2015-04-09T11:10:22Z</time>
      </trkpt>
      <trkpt lat="47.069183019921184" lon="16.255010990425944">
        <ele>256.329999999999984</ele>
        <time>2015-04-09T11:10:23Z</time>
      </trkpt>
      <trkpt lat="47.069141026586294" lon="16.254991963505745">
        <ele>255.849999999999994</ele>
        <time>2015-04-09T11:10:24Z</time>
      </trkpt>
      <trkpt lat="47.06868396140635" lon="16.254950975999236">
        <ele>254.409999999999997</ele>
        <time>2015-04-09T11:10:35Z</time>
      </trkpt>
      <trkpt lat="47.06868396140635" lon="16.254950975999236">
        <ele>254.889999999999986</ele>
        <time>2015-04-09T11:10:55Z</time>
      </trkpt>
      <trkpt lat="47.06868396140635" lon="16.254950975999236">
        <ele>254.409999999999997</ele>
        <time>2015-04-09T11:11:00Z</time>
      </trkpt>
      <trkpt lat="47.068668035790324" lon="16.254950975999236">
        <ele>254.409999999999997</ele>
        <time>2015-04-09T11:11:01Z</time>
      </trkpt>
      <trkpt lat="47.068644985556602" lon="16.254949970170856">
        <ele>254.409999999999997</ele>
        <time>2015-04-09T11:11:02Z</time>
      </trkpt>
      <trkpt lat="47.068619001656771" lon="16.254952987655997">
        <ele>254.409999999999997</ele>
        <time>2015-04-09T11:11:03Z</time>
      </trkpt>
      <trkpt lat="47.068587988615036" lon="16.254964973777533">
        <ele>254.409999999999997</ele>
        <time>2015-04-09T11:11:04Z</time>
      </trkpt>
      <trkpt lat="47.068562004715204" lon="16.254981989040971">
        <ele>253.930000000000007</ele>
        <time>2015-04-09T11:11:05Z</time>
      </trkpt>
      <trkpt lat="47.06853099167347" lon="16.255003027617931">
        <ele>254.889999999999986</ele>
        <time>2015-04-09T11:11:06Z</time>
      </trkpt>
      <trkpt lat="47.068500984460115" lon="16.255014007911086">
        <ele>254.409999999999997</ele>
        <time>2015-04-09T11:11:07Z</time>
      </trkpt>
      <trkpt lat="47.068469971418381" lon="16.255021970719099">
        <ele>254.409999999999997</ele>
        <time>2015-04-09T11:11:08Z</time>
      </trkpt>
      <trkpt lat="47.068436024710536" lon="16.255021970719099">
        <ele>254.409999999999997</ele>
        <time>2015-04-09T11:11:09Z</time>
      </trkpt>
      <trkpt lat="47.068291017785668" lon="16.25500101596117">
        <ele>255.370000000000005</ele>
        <time>2015-04-09T11:11:18Z</time>
      </trkpt>
      <trkpt lat="47.068291017785668" lon="16.25500101596117">
        <ele>254.889999999999986</ele>
        <time>2015-04-09T11:11:48Z</time>
      </trkpt>
      <trkpt lat="47.068279031664133" lon="16.255006967112422">
        <ele>254.889999999999986</ele>
        <time>2015-04-09T11:12:12Z</time>
      </trkpt>
      <trkpt lat="47.068222034722567" lon="16.255139987915754">
        <ele>255.849999999999994</ele>
        <time>2015-04-09T11:12:18Z</time>
      </trkpt>
      <trkpt lat="47.068203007802367" lon="16.255155997350812">
        <ele>255.370000000000005</ele>
        <time>2015-04-09T11:12:19Z</time>
      </trkpt>
      <trkpt lat="47.068126983940601" lon="16.255190027877688">
        <ele>256.329999999999984</ele>
        <time>2015-04-09T11:12:23Z</time>
      </trkpt>
      <trkpt lat="47.068110974505544" lon="16.255177035927773">
        <ele>256.329999999999984</ele>
        <time>2015-04-09T11:12:24Z</time>
      </trkpt>
      <trkpt lat="47.068092031404376" lon="16.255163038149476">
        <ele>256.329999999999984</ele>
        <time>2015-04-09T11:12:25Z</time>
      </trkpt>
      <trkpt lat="47.068077027797699" lon="16.255149962380528">
        <ele>256.329999999999984</ele>
        <time>2015-04-09T11:12:26Z</time>
      </trkpt>
      <trkpt lat="47.068233015015721" lon="16.255153985694051">
        <ele>254.409999999999997</ele>
        <time>2015-04-09T11:15:26Z</time>
      </trkpt>
      <trkpt lat="47.068286994472146" lon="16.255163038149476">
        <ele>254.409999999999997</ele>
        <time>2015-04-09T11:15:40Z</time>
      </trkpt>
      <trkpt lat="47.068478018045425" lon="16.25523897819221">
        <ele>253.930000000000007</ele>
        <time>2015-04-09T11:15:50Z</time>
      </trkpt>
      <trkpt lat="47.06846603192389" lon="16.255262028425932">
        <ele>254.889999999999986</ele>
        <time>2015-04-09T11:16:01Z</time>
      </trkpt>
      <trkpt lat="47.068469971418381" lon="16.25525901094079">
        <ele>254.409999999999997</ele>
        <time>2015-04-09T11:16:15Z</time>
      </trkpt>
      <trkpt lat="47.068481035530567" lon="16.255212994292378">
        <ele>253.930000000000007</ele>
        <time>2015-04-09T11:16:59Z</time>
      </trkpt>
      <trkpt lat="47.068496961146593" lon="16.255201008170843">
        <ele>253.930000000000007</ele>
        <time>2015-04-09T11:17:00Z</time>
      </trkpt>
      <trkpt lat="47.06851196475327" lon="16.255186004564166">
        <ele>253.930000000000007</ele>
        <time>2015-04-09T11:17:01Z</time>
      </trkpt>
      <trkpt lat="47.068526968359947" lon="16.255163038149476">
        <ele>253.930000000000007</ele>
        <time>2015-04-09T11:17:02Z</time>
      </trkpt>
      <trkpt lat="47.068539038300514" lon="16.255141999572515">
        <ele>253.439999999999998</ele>
        <time>2015-04-09T11:17:03Z</time>
      </trkpt>
      <trkpt lat="47.068577008321881" lon="16.255111992359161">
        <ele>252.960000000000008</ele>
        <time>2015-04-09T11:17:16Z</time>
      </trkpt>
      <trkpt lat="47.068592011928558" lon="16.255067987367511">
        <ele>252.960000000000008</ele>
        <time>2015-04-09T11:17:46Z</time>
      </trkpt>
      <trkpt lat="47.068599974736571" lon="16.255034962669015">
        <ele>252.960000000000008</ele>
        <time>2015-04-09T11:17:47Z</time>
      </trkpt>
      <trkpt lat="47.068611038848758" lon="16.254996992647648">
        <ele>252.960000000000008</ele>
        <time>2015-04-09T11:17:48Z</time>
      </trkpt>
      <trkpt lat="47.068623024970293" lon="16.254952987655997">
        <ele>252</ele>
        <time>2015-04-09T11:17:49Z</time>
      </trkpt>
      <trkpt lat="47.068625958636403" lon="16.254904037341475">
        <ele>252</ele>
        <time>2015-04-09T11:17:50Z</time>
      </trkpt>
      <trkpt lat="47.068629981949925" lon="16.254853997379541">
        <ele>251.52000000000001</ele>
        <time>2015-04-09T11:17:51Z</time>
      </trkpt>
      <trkpt lat="47.068691002205014" lon="16.254374971613288">
        <ele>251.039999999999992</ele>
        <time>2015-04-09T11:18:03Z</time>
      </trkpt>
      <trkpt lat="47.068641968071461" lon="16.254070037975907">
        <ele>250.080000000000013</ele>
        <time>2015-04-09T11:18:14Z</time>
      </trkpt>
      <trkpt lat="47.068619001656771" lon="16.253945985808969">
        <ele>249.599999999999994</ele>
        <time>2015-04-09T11:18:21Z</time>
      </trkpt>
      <trkpt lat="47.068469971418381" lon="16.25345204025507">
        <ele>248.159999999999997</ele>
        <time>2015-04-09T11:18:33Z</time>
      </trkpt>
      <trkpt lat="47.068535014986992" lon="16.252795988693833">
        <ele>249.599999999999994</ele>
        <time>2015-04-09T11:18:46Z</time>
      </trkpt>
      <trkpt lat="47.068770965561271" lon="16.252419976517558">
        <ele>251.52000000000001</ele>
        <time>2015-04-09T11:18:58Z</time>
      </trkpt>
      <trkpt lat="47.068779012188315" lon="16.25229500234127">
        <ele>252</ele>
        <time>2015-04-09T11:19:03Z</time>
      </trkpt>
      <trkpt lat="47.068768031895161" lon="16.252266000956297">
        <ele>251.52000000000001</ele>
        <time>2015-04-09T11:19:04Z</time>
      </trkpt>
      <trkpt lat="47.068755961954594" lon="16.252229958772659">
        <ele>251.52000000000001</ele>
        <time>2015-04-09T11:19:05Z</time>
      </trkpt>
      <trkpt lat="47.068737018853426" lon="16.25218603760004">
        <ele>251.52000000000001</ele>
        <time>2015-04-09T11:19:06Z</time>
      </trkpt>
      <trkpt lat="47.068717991933227" lon="16.252147983759642">
        <ele>251.52000000000001</ele>
        <time>2015-04-09T11:19:07Z</time>
      </trkpt>
      <trkpt lat="47.068686978891492" lon="16.252114959061146">
        <ele>251.52000000000001</ele>
        <time>2015-04-09T11:19:08Z</time>
      </trkpt>
      <trkpt lat="47.06866099499166" lon="16.252089980989695">
        <ele>249.599999999999994</ele>
        <time>2015-04-09T11:19:09Z</time>
      </trkpt>
      <trkpt lat="47.068343991413713" lon="16.251761997118592">
        <ele>249.120000000000005</ele>
        <time>2015-04-09T11:19:18Z</time>
      </trkpt>
      <trkpt lat="47.06808096729219" lon="16.25130501575768">
        <ele>249.120000000000005</ele>
        <time>2015-04-09T11:19:30Z</time>
      </trkpt>
      <trkpt lat="47.068065963685513" lon="16.251205019652843">
        <ele>249.120000000000005</ele>
        <time>2015-04-09T11:19:40Z</time>
      </trkpt>
      <trkpt lat="47.068053977563977" lon="16.251153973862529">
        <ele>249.599999999999994</ele>
        <time>2015-04-09T11:20:10Z</time>
      </trkpt>
      <trkpt lat="47.067965967580676" lon="16.250508986413479">
        <ele>247.199999999999989</ele>
        <time>2015-04-09T11:20:21Z</time>
      </trkpt>
      <trkpt lat="47.067752983421087" lon="16.248974008485675">
        <ele>244.789999999999992</ele>
        <time>2015-04-09T11:20:38Z</time>
      </trkpt>
      <trkpt lat="47.067634966224432" lon="16.24735102057457">
        <ele>244.789999999999992</ele>
        <time>2015-04-09T11:20:57Z</time>
      </trkpt>
      <trkpt lat="47.067550979554653" lon="16.246271012350917">
        <ele>245.75</ele>
        <time>2015-04-09T11:21:13Z</time>
      </trkpt>
      <trkpt lat="47.067508986219764" lon="16.245721997693181">
        <ele>246.22999999999999</ele>
        <time>2015-04-09T11:21:22Z</time>
      </trkpt>
      <trkpt lat="47.067706966772676" lon="16.244865031912923">
        <ele>246.719999999999999</ele>
        <time>2015-04-09T11:21:37Z</time>
      </trkpt>
      <trkpt lat="47.067821966484189" lon="16.244591027498245">
        <ele>246.719999999999999</ele>
        <time>2015-04-09T11:21:42Z</time>
      </trkpt>
      <trkpt lat="47.067851973697543" lon="16.244549034163356">
        <ele>246.719999999999999</ele>
        <time>2015-04-09T11:21:43Z</time>
      </trkpt>
      <trkpt lat="47.067890027537942" lon="16.244521960616112">
        <ele>247.199999999999989</ele>
        <time>2015-04-09T11:21:44Z</time>
      </trkpt>
      <trkpt lat="47.067927997559309" lon="16.244501005858183">
        <ele>246.719999999999999</ele>
        <time>2015-04-09T11:21:45Z</time>
      </trkpt>
      <trkpt lat="47.067965967580676" lon="16.244486002251506">
        <ele>246.719999999999999</ele>
        <time>2015-04-09T11:21:46Z</time>
      </trkpt>
      <trkpt lat="47.068047020584345" lon="16.244464963674545">
        <ele>246.719999999999999</ele>
        <time>2015-04-09T11:21:48Z</time>
      </trkpt>
      <trkpt lat="47.068717991933227" lon="16.244162041693926">
        <ele>246.719999999999999</ele>
        <time>2015-04-09T11:22:02Z</time>
      </trkpt>
      <trkpt lat="47.069045975804329" lon="16.243918966501951">
        <ele>245.27000000000001</ele>
        <time>2015-04-09T11:22:09Z</time>
      </trkpt>
      <trkpt lat="47.069461969658732" lon="16.243629036471248">
        <ele>247.680000000000007</ele>
        <time>2015-04-09T11:22:21Z</time>
      </trkpt>
      <trkpt lat="47.069572024047375" lon="16.243560975417495">
        <ele>247.680000000000007</ele>
        <time>2015-04-09T11:22:24Z</time>
      </trkpt>
      <trkpt lat="47.069610999897122" lon="16.24352996237576">
        <ele>248.159999999999997</ele>
        <time>2015-04-09T11:22:25Z</time>
      </trkpt>
      <trkpt lat="47.069775033742189" lon="16.243336005136371">
        <ele>248.159999999999997</ele>
        <time>2015-04-09T11:22:30Z</time>
      </trkpt>
      <trkpt lat="47.069832030683756" lon="16.243237014859915">
        <ele>247.680000000000007</ele>
        <time>2015-04-09T11:22:32Z</time>
      </trkpt>
      <trkpt lat="47.070250958204269" lon="16.242376025766134">
        <ele>250.080000000000013</ele>
        <time>2015-04-09T11:22:49Z</time>
      </trkpt>
      <trkpt lat="47.070540972054005" lon="16.241842014715075">
        <ele>251.52000000000001</ele>
        <time>2015-04-09T11:23:03Z</time>
      </trkpt>
      <trkpt lat="47.070580031722784" lon="16.241739001125097">
        <ele>251.039999999999992</ele>
        <time>2015-04-09T11:23:05Z</time>
      </trkpt>
      <trkpt lat="47.070995019748807" lon="16.240796959027648">
        <ele>251.039999999999992</ele>
        <time>2015-04-09T11:23:21Z</time>
      </trkpt>
      <trkpt lat="47.071185959503055" lon="16.240224977955222">
        <ele>253.439999999999998</ele>
        <time>2015-04-09T11:23:34Z</time>
      </trkpt>
      <trkpt lat="47.071246979758143" lon="16.239885007962584">
        <ele>254.889999999999986</ele>
        <time>2015-04-09T11:23:45Z</time>
      </trkpt>
      <trkpt lat="47.071354016661644" lon="16.239402964711189">
        <ele>257.769999999999982</ele>
        <time>2015-04-09T11:24:00Z</time>
      </trkpt>
      <trkpt lat="47.071563983336091" lon="16.238944977521896">
        <ele>259.20999999999998</ele>
        <time>2015-04-09T11:24:13Z</time>
      </trkpt>
      <trkpt lat="47.07173204049468" lon="16.238660998642445">
        <ele>261.139999999999986</ele>
        <time>2015-04-09T11:24:26Z</time>
      </trkpt>
      <trkpt lat="47.071910994127393" lon="16.238341983407736">
        <ele>262.100000000000023</ele>
        <time>2015-04-09T11:24:39Z</time>
      </trkpt>
      <trkpt lat="47.072044014930725" lon="16.238029003143311">
        <ele>264.019999999999982</ele>
        <time>2015-04-09T11:24:51Z</time>
      </trkpt>
      <trkpt lat="47.072147028520703" lon="16.237750975415111">
        <ele>265.45999999999998</ele>
        <time>2015-04-09T11:25:03Z</time>
      </trkpt>
      <trkpt lat="47.072299998253584" lon="16.237385021522641">
        <ele>266.899999999999977</ele>
        <time>2015-04-09T11:25:15Z</time>
      </trkpt>
      <trkpt lat="47.072436958551407" lon="16.237090984359384">
        <ele>268.350000000000023</ele>
        <time>2015-04-09T11:25:28Z</time>
      </trkpt>
      <trkpt lat="47.072642985731363" lon="16.236800970509648">
        <ele>270.269999999999982</ele>
        <time>2015-04-09T11:25:42Z</time>
      </trkpt>
      <trkpt lat="47.072796039283276" lon="16.236591003835201">
        <ele>271.70999999999998</ele>
        <time>2015-04-09T11:25:53Z</time>
      </trkpt>
      <trkpt lat="47.072952026501298" lon="16.236340971663594">
        <ele>273.629999999999995</ele>
        <time>2015-04-09T11:26:06Z</time>
      </trkpt>
      <trkpt lat="47.07297901622951" lon="16.236309036612511">
        <ele>274.110000000000014</ele>
        <time>2015-04-09T11:26:08Z</time>
      </trkpt>
      <trkpt lat="47.072997959330678" lon="16.236299984157085">
        <ele>274.110000000000014</ele>
        <time>2015-04-09T11:26:09Z</time>
      </trkpt>
      <trkpt lat="47.073009023442864" lon="16.236281963065267">
        <ele>274.589999999999975</ele>
        <time>2015-04-09T11:26:10Z</time>
      </trkpt>
      <trkpt lat="47.073181020095944" lon="16.2359659653157">
        <ele>276.519999999999982</ele>
        <time>2015-04-09T11:26:23Z</time>
      </trkpt>
      <trkpt lat="47.073284033685923" lon="16.235802015289664">
        <ele>277.480000000000018</ele>
        <time>2015-04-09T11:26:32Z</time>
      </trkpt>
      <trkpt lat="47.0732990372926" lon="16.235777037218213">
        <ele>277.480000000000018</ele>
        <time>2015-04-09T11:26:33Z</time>
      </trkpt>
      <trkpt lat="47.073540017008781" lon="16.235520970076323">
        <ele>279.879999999999995</ele>
        <time>2015-04-09T11:26:46Z</time>
      </trkpt>
      <trkpt lat="47.073733974248171" lon="16.235216036438942">
        <ele>281.800000000000011</ele>
        <time>2015-04-09T11:26:58Z</time>
      </trkpt>
      <trkpt lat="47.074013007804751" lon="16.234843963757157">
        <ele>283.25</ele>
        <time>2015-04-09T11:27:16Z</time>
      </trkpt>
      <trkpt lat="47.074180981144309" lon="16.234628967940807">
        <ele>283.730000000000018</ele>
        <time>2015-04-09T11:27:28Z</time>
      </trkpt>
      <trkpt lat="47.074367981404066" lon="16.234377007931471">
        <ele>283.730000000000018</ele>
        <time>2015-04-09T11:27:40Z</time>
      </trkpt>
      <trkpt lat="47.074382985010743" lon="16.234377007931471">
        <ele>283.25</ele>
        <time>2015-04-09T11:27:55Z</time>
      </trkpt>
      <trkpt lat="47.074387008324265" lon="16.234362004324794">
        <ele>282.769999999999982</ele>
        <time>2015-04-09T11:28:20Z</time>
      </trkpt>
      <trkpt lat="47.074393965303898" lon="16.23433300293982">
        <ele>282.769999999999982</ele>
        <time>2015-04-09T11:28:21Z</time>
      </trkpt>
      <trkpt lat="47.074672998860478" lon="16.23448203317821">
        <ele>279.399999999999977</ele>
        <time>2015-04-09T11:28:28Z</time>
      </trkpt>
      <trkpt lat="47.0747409760952" lon="16.234544981271029">
        <ele>277.95999999999998</ele>
        <time>2015-04-09T11:28:29Z</time>
      </trkpt>
      <trkpt lat="47.074963012710214" lon="16.234759977087379">
        <ele>274.110000000000014</ele>
        <time>2015-04-09T11:28:32Z</time>
      </trkpt>
      <trkpt lat="47.075217990204692" lon="16.235036998987198">
        <ele>270.269999999999982</ele>
        <time>2015-04-09T11:28:35Z</time>
      </trkpt>
      <trkpt lat="47.075378000736237" lon="16.235223999246955">
        <ele>267.379999999999995</ele>
        <time>2015-04-09T11:28:37Z</time>
      </trkpt>
      <trkpt lat="47.075549997389317" lon="16.235421979799867">
        <ele>264.019999999999982</ele>
        <time>2015-04-09T11:28:39Z</time>
      </trkpt>
      <trkpt lat="47.075825007632375" lon="16.235733032226562">
        <ele>258.730000000000018</ele>
        <time>2015-04-09T11:28:42Z</time>
      </trkpt>
      <trkpt lat="47.076022988185287" lon="16.235951967537403">
        <ele>254.889999999999986</ele>
        <time>2015-04-09T11:28:44Z</time>
      </trkpt>
      <trkpt lat="47.076251981779933" lon="16.236194958910346">
        <ele>251.039999999999992</ele>
        <time>2015-04-09T11:29:13Z</time>
      </trkpt>
      <trkpt lat="47.076286012306809" lon="16.236132010817528">
        <ele>251.52000000000001</ele>
        <time>2015-04-09T11:29:15Z</time>
      </trkpt>
      <trkpt lat="47.076473012566566" lon="16.23562197200954">
        <ele>251.039999999999992</ele>
        <time>2015-04-09T11:29:30Z</time>
      </trkpt>
      <trkpt lat="47.076541995629668" lon="16.235415022820234">
        <ele>252.960000000000008</ele>
        <time>2015-04-09T11:29:35Z</time>
      </trkpt>
      <trkpt lat="47.076785992830992" lon="16.234630979597569">
        <ele>250.080000000000013</ele>
        <time>2015-04-09T11:29:47Z</time>
      </trkpt>
      <trkpt lat="47.076817005872726" lon="16.234579011797905">
        <ele>250.080000000000013</ele>
        <time>2015-04-09T11:29:48Z</time>
      </trkpt>
      <trkpt lat="47.076851036399603" lon="16.234535006806254">
        <ele>250.560000000000002</ele>
        <time>2015-04-09T11:29:49Z</time>
      </trkpt>
      <trkpt lat="47.076893029734492" lon="16.234493013471365">
        <ele>249.599999999999994</ele>
        <time>2015-04-09T11:29:50Z</time>
      </trkpt>
      <trkpt lat="47.076935023069382" lon="16.234453031793237">
        <ele>250.560000000000002</ele>
        <time>2015-04-09T11:29:51Z</time>
      </trkpt>
      <trkpt lat="47.077460987493396" lon="16.233889013528824">
        <ele>253.439999999999998</ele>
        <time>2015-04-09T11:30:06Z</time>
      </trkpt>
      <trkpt lat="47.077930038794875" lon="16.233191974461079">
        <ele>255.370000000000005</ele>
        <time>2015-04-09T11:30:23Z</time>
      </trkpt>
      <trkpt lat="47.078277971595526" lon="16.232611024752259">
        <ele>254.889999999999986</ele>
        <time>2015-04-09T11:30:36Z</time>
      </trkpt>
      <trkpt lat="47.078304039314389" lon="16.232552016153932">
        <ele>254.409999999999997</ele>
        <time>2015-04-09T11:30:37Z</time>
      </trkpt>
      <trkpt lat="47.078773006796837" lon="16.231506038457155">
        <ele>253.439999999999998</ele>
        <time>2015-04-09T11:30:52Z</time>
      </trkpt>
      <trkpt lat="47.07938396371901" lon="16.230285968631506">
        <ele>252.47999999999999</ele>
        <time>2015-04-09T11:31:09Z</time>
      </trkpt>
      <trkpt lat="47.079978995025158" lon="16.229222975671291">
        <ele>252.960000000000008</ele>
        <time>2015-04-09T11:31:25Z</time>
      </trkpt>
      <trkpt lat="47.08049800246954" lon="16.228365004062653">
        <ele>252.960000000000008</ele>
        <time>2015-04-09T11:31:40Z</time>
      </trkpt>
      <trkpt lat="47.080707969143987" lon="16.227946998551488">
        <ele>253.439999999999998</ele>
        <time>2015-04-09T11:31:47Z</time>
      </trkpt>
      <trkpt lat="47.081199986860156" lon="16.226974027231336">
        <ele>252</ele>
        <time>2015-04-09T11:32:03Z</time>
      </trkpt>
      <trkpt lat="47.081768028438091" lon="16.225662007927895">
        <ele>252.47999999999999</ele>
        <time>2015-04-09T11:32:22Z</time>
      </trkpt>
      <trkpt lat="47.081867018714547" lon="16.225492022931576">
        <ele>252.47999999999999</ele>
        <time>2015-04-09T11:32:25Z</time>
      </trkpt>
      <trkpt lat="47.082195002585649" lon="16.22447001747787">
        <ele>251.52000000000001</ele>
        <time>2015-04-09T11:32:39Z</time>
      </trkpt>
      <trkpt lat="47.082351995632052" lon="16.223377017304301">
        <ele>252</ele>
        <time>2015-04-09T11:32:55Z</time>
      </trkpt>
      <trkpt lat="47.082366999238729" lon="16.22268701903522">
        <ele>252.47999999999999</ele>
        <time>2015-04-09T11:33:12Z</time>
      </trkpt>
      <trkpt lat="47.082362975925207" lon="16.222421983256936">
        <ele>253.930000000000007</ele>
        <time>2015-04-09T11:33:21Z</time>
      </trkpt>
      <trkpt lat="47.082283012568951" lon="16.222038008272648">
        <ele>254.409999999999997</ele>
        <time>2015-04-09T11:33:32Z</time>
      </trkpt>
      <trkpt lat="47.082160972058773" lon="16.221663001924753">
        <ele>257.29000000000002</ele>
        <time>2015-04-09T11:33:44Z</time>
      </trkpt>
      <trkpt lat="47.08204697817564" lon="16.221289001405239">
        <ele>259.689999999999998</ele>
        <time>2015-04-09T11:33:56Z</time>
      </trkpt>
      <trkpt lat="47.082015965133905" lon="16.221200991421938">
        <ele>260.649999999999977</ele>
        <time>2015-04-09T11:33:59Z</time>
      </trkpt>
      <trkpt lat="47.081920998170972" lon="16.220835037529469">
        <ele>263.060000000000002</ele>
        <time>2015-04-09T11:34:12Z</time>
      </trkpt>
      <trkpt lat="47.081898031756282" lon="16.220541000366211">
        <ele>263.54000000000002</ele>
        <time>2015-04-09T11:34:23Z</time>
      </trkpt>
      <trkpt lat="47.081904988735914" lon="16.22017496265471">
        <ele>263.060000000000002</ele>
        <time>2015-04-09T11:34:35Z</time>
      </trkpt>
      <trkpt lat="47.08191697485745" lon="16.219524024054408">
        <ele>263.54000000000002</ele>
        <time>2015-04-09T11:34:49Z</time>
      </trkpt>
      <trkpt lat="47.081913035362959" lon="16.219219006597996">
        <ele>263.060000000000002</ele>
        <time>2015-04-09T11:34:55Z</time>
      </trkpt>
      <trkpt lat="47.08191697485745" lon="16.219153963029385">
        <ele>263.060000000000002</ele>
        <time>2015-04-09T11:34:56Z</time>
      </trkpt>
      <trkpt lat="47.081847991794348" lon="16.218517022207379">
        <ele>260.649999999999977</ele>
        <time>2015-04-09T11:35:04Z</time>
      </trkpt>
      <trkpt lat="47.081711031496525" lon="16.217820988968015">
        <ele>257.29000000000002</ele>
        <time>2015-04-09T11:35:11Z</time>
      </trkpt>
      <trkpt lat="47.081692004576325" lon="16.217715963721275">
        <ele>256.810000000000002</ele>
        <time>2015-04-09T11:35:12Z</time>
      </trkpt>
      <trkpt lat="47.081635007634759" lon="16.217387979850173">
        <ele>255.849999999999994</ele>
        <time>2015-04-09T11:35:15Z</time>
      </trkpt>
      <trkpt lat="47.081581028178334" lon="16.217072987928987">
        <ele>254.409999999999997</ele>
        <time>2015-04-09T11:35:18Z</time>
      </trkpt>
      <trkpt lat="47.081566024571657" lon="16.216991012915969">
        <ele>254.409999999999997</ele>
        <time>2015-04-09T11:35:19Z</time>
      </trkpt>
      <trkpt lat="47.08155102096498" lon="16.21692999266088">
        <ele>254.889999999999986</ele>
        <time>2015-04-09T11:35:20Z</time>
      </trkpt>
      <trkpt lat="47.081542974337935" lon="16.216882970184088">
        <ele>254.409999999999997</ele>
        <time>2015-04-09T11:35:21Z</time>
      </trkpt>
      <trkpt lat="47.081539034843445" lon="16.216845000162721">
        <ele>254.889999999999986</ele>
        <time>2015-04-09T11:35:22Z</time>
      </trkpt>
      <trkpt lat="47.081542974337935" lon="16.216811975464225">
        <ele>254.889999999999986</ele>
        <time>2015-04-09T11:35:23Z</time>
      </trkpt>
      <trkpt lat="47.081542974337935" lon="16.216780040413141">
        <ele>254.889999999999986</ele>
        <time>2015-04-09T11:35:24Z</time>
      </trkpt>
      <trkpt lat="47.081531994044781" lon="16.216745004057884">
        <ele>254.889999999999986</ele>
        <time>2015-04-09T11:35:25Z</time>
      </trkpt>
      <trkpt lat="47.081509027630091" lon="16.216710973531008">
        <ele>254.409999999999997</ele>
        <time>2015-04-09T11:35:26Z</time>
      </trkpt>
      <trkpt lat="47.081038970500231" lon="16.216296991333365">
        <ele>255.370000000000005</ele>
        <time>2015-04-09T11:35:39Z</time>
      </trkpt>
      <trkpt lat="47.080321982502937" lon="16.215557036921382">
        <ele>257.769999999999982</ele>
        <time>2015-04-09T11:36:00Z</time>
      </trkpt>
      <trkpt lat="47.079715970903635" lon="16.214878018945456">
        <ele>259.20999999999998</ele>
        <time>2015-04-09T11:36:21Z</time>
      </trkpt>
      <trkpt lat="47.079239040613174" lon="16.214442998170853">
        <ele>260.649999999999977</ele>
        <time>2015-04-09T11:36:39Z</time>
      </trkpt>
      <trkpt lat="47.07906000316143" lon="16.214304026216269">
        <ele>261.139999999999986</ele>
        <time>2015-04-09T11:36:51Z</time>
      </trkpt>
      <trkpt lat="47.079043993726373" lon="16.214302014559507">
        <ele>260.170000000000016</ele>
        <time>2015-04-09T11:37:16Z</time>
      </trkpt>
      <trkpt lat="47.079028990119696" lon="16.214295979589224">
        <ele>260.649999999999977</ele>
        <time>2015-04-09T11:37:17Z</time>
      </trkpt>
      <trkpt lat="47.079009963199496" lon="16.214284999296069">
        <ele>260.170000000000016</ele>
        <time>2015-04-09T11:37:18Z</time>
      </trkpt>
      <trkpt lat="47.078986996784806" lon="16.214269995689392">
        <ele>260.649999999999977</ele>
        <time>2015-04-09T11:37:19Z</time>
      </trkpt>
      <trkpt lat="47.078960007056594" lon="16.214251974597573">
        <ele>260.649999999999977</ele>
        <time>2015-04-09T11:37:20Z</time>
      </trkpt>
      <trkpt lat="47.07892999984324" lon="16.214236970990896">
        <ele>260.649999999999977</ele>
        <time>2015-04-09T11:37:21Z</time>
      </trkpt>
      <trkpt lat="47.078380985185504" lon="16.214001020416617">
        <ele>260.649999999999977</ele>
        <time>2015-04-09T11:37:36Z</time>
      </trkpt>
      <trkpt lat="47.077735997736454" lon="16.213615033775568">
        <ele>258.730000000000018</ele>
        <time>2015-04-09T11:37:51Z</time>
      </trkpt>
      <trkpt lat="47.077098973095417" lon="16.21291003189981">
        <ele>258.730000000000018</ele>
        <time>2015-04-09T11:38:07Z</time>
      </trkpt>
      <trkpt lat="47.076633023098111" lon="16.212050970643759">
        <ele>258.730000000000018</ele>
        <time>2015-04-09T11:38:24Z</time>
      </trkpt>
      <trkpt lat="47.076293975114822" lon="16.211157040670514">
        <ele>260.170000000000016</ele>
        <time>2015-04-09T11:38:40Z</time>
      </trkpt>
      <trkpt lat="47.076157014816999" lon="16.210542982444167">
        <ele>261.139999999999986</ele>
        <time>2015-04-09T11:38:53Z</time>
      </trkpt>
      <trkpt lat="47.076121978461742" lon="16.209950968623161">
        <ele>262.579999999999984</ele>
        <time>2015-04-09T11:39:06Z</time>
      </trkpt>
      <trkpt lat="47.076088031753898" lon="16.209270022809505">
        <ele>263.54000000000002</ele>
        <time>2015-04-09T11:39:20Z</time>
      </trkpt>
      <trkpt lat="47.076012007892132" lon="16.208511041477323">
        <ele>263.54000000000002</ele>
        <time>2015-04-09T11:39:34Z</time>
      </trkpt>
      <trkpt lat="47.075702967122197" lon="16.20769296772778">
        <ele>263.060000000000002</ele>
        <time>2015-04-09T11:39:49Z</time>
      </trkpt>
      <trkpt lat="47.075123023241758" lon="16.206834996119142">
        <ele>261.620000000000005</ele>
        <time>2015-04-09T11:40:06Z</time>
      </trkpt>
      <trkpt lat="47.074593035504222" lon="16.206241976469755">
        <ele>261.139999999999986</ele>
        <time>2015-04-09T11:40:20Z</time>
      </trkpt>
      <trkpt lat="47.073986018076539" lon="16.205904018133879">
        <ele>262.100000000000023</ele>
        <time>2015-04-09T11:40:35Z</time>
      </trkpt>
      <trkpt lat="47.073940001428127" lon="16.205882979556918">
        <ele>261.139999999999986</ele>
        <time>2015-04-09T11:40:36Z</time>
      </trkpt>
      <trkpt lat="47.073856014758348" lon="16.20584299787879">
        <ele>262.100000000000023</ele>
        <time>2015-04-09T11:40:38Z</time>
      </trkpt>
      <trkpt lat="47.073814021423459" lon="16.205832017585635">
        <ele>262.100000000000023</ele>
        <time>2015-04-09T11:40:39Z</time>
      </trkpt>
      <trkpt lat="47.073311023414135" lon="16.205739984288812">
        <ele>263.060000000000002</ele>
        <time>2015-04-09T11:40:51Z</time>
      </trkpt>
      <trkpt lat="47.072757985442877" lon="16.205611992627382">
        <ele>264.5</ele>
        <time>2015-04-09T11:41:06Z</time>
      </trkpt>
      <trkpt lat="47.072319025173783" lon="16.205502022057772">
        <ele>266.420000000000016</ele>
        <time>2015-04-09T11:41:20Z</time>
      </trkpt>
      <trkpt lat="47.071930021047592" lon="16.205434966832399">
        <ele>268.350000000000023</ele>
        <time>2015-04-09T11:41:33Z</time>
      </trkpt>
      <trkpt lat="47.071545040234923" lon="16.205343017354608">
        <ele>270.269999999999982</ele>
        <time>2015-04-09T11:41:48Z</time>
      </trkpt>
      <trkpt lat="47.071044975891709" lon="16.205249978229403">
        <ele>269.79000000000002</ele>
        <time>2015-04-09T11:42:03Z</time>
      </trkpt>
      <trkpt lat="47.070824028924108" lon="16.205235980451107">
        <ele>270.269999999999982</ele>
        <time>2015-04-09T11:42:08Z</time>
      </trkpt>
      <trkpt lat="47.070697965100408" lon="16.205218965187669">
        <ele>270.269999999999982</ele>
        <time>2015-04-09T11:42:11Z</time>
      </trkpt>
      <trkpt lat="47.070480035617948" lon="16.20519801042974">
        <ele>270.75</ele>
        <time>2015-04-09T11:42:16Z</time>
      </trkpt>
      <trkpt lat="47.070431001484394" lon="16.20519801042974">
        <ele>270.269999999999982</ele>
        <time>2015-04-09T11:42:17Z</time>
      </trkpt>
      <trkpt lat="47.069542016834021" lon="16.205146964639425">
        <ele>269.79000000000002</ele>
        <time>2015-04-09T11:42:35Z</time>
      </trkpt>
      <trkpt lat="47.069087969139218" lon="16.205156017094851">
        <ele>270.269999999999982</ele>
        <time>2015-04-09T11:42:46Z</time>
      </trkpt>
      <trkpt lat="47.068161014467478" lon="16.205232962965965">
        <ele>270.75</ele>
        <time>2015-04-09T11:43:07Z</time>
      </trkpt>
      <trkpt lat="47.067329026758671" lon="16.205407977104187">
        <ele>271.70999999999998</ele>
        <time>2015-04-09T11:43:27Z</time>
      </trkpt>
      <trkpt lat="47.067122999578714" lon="16.205447958782315">
        <ele>273.149999999999977</ele>
        <time>2015-04-09T11:43:34Z</time>
      </trkpt>
      <trkpt lat="47.066483041271567" lon="16.205372018739581">
        <ele>273.629999999999995</ele>
        <time>2015-04-09T11:43:53Z</time>
      </trkpt>
      <trkpt lat="47.065951963886619" lon="16.205045962706208">
        <ele>275.069999999999993</ele>
        <time>2015-04-09T11:44:09Z</time>
      </trkpt>
      <trkpt lat="47.065529013052583" lon="16.204483034089208">
        <ele>276.04000000000002</ele>
        <time>2015-04-09T11:44:25Z</time>
      </trkpt>
      <trkpt lat="47.065346036106348" lon="16.204075003042817">
        <ele>277.95999999999998</ele>
        <time>2015-04-09T11:44:38Z</time>
      </trkpt>
      <trkpt lat="47.065197005867958" lon="16.203563958406448">
        <ele>280.360000000000014</ele>
        <time>2015-04-09T11:44:51Z</time>
      </trkpt>
      <trkpt lat="47.065041018649936" lon="16.203105971217155">
        <ele>282.279999999999973</ele>
        <time>2015-04-09T11:45:03Z</time>
      </trkpt>
      <trkpt lat="47.064887965098023" lon="16.202764995396137">
        <ele>283.730000000000018</ele>
        <time>2015-04-09T11:45:14Z</time>
      </trkpt>
      <trkpt lat="47.064849995076656" lon="16.202676985412836">
        <ele>283.730000000000018</ele>
        <time>2015-04-09T11:45:26Z</time>
      </trkpt>
      <trkpt lat="47.06485703587532" lon="16.202678997069597">
        <ele>285.170000000000016</ele>
        <time>2015-04-09T11:46:00Z</time>
      </trkpt>
      <trkpt lat="47.064869021996856" lon="16.202623005956411">
        <ele>284.20999999999998</ele>
        <time>2015-04-09T11:46:36Z</time>
      </trkpt>
      <trkpt lat="47.064938005059958" lon="16.202373979613185">
        <ele>280.360000000000014</ele>
        <time>2015-04-09T11:46:41Z</time>
      </trkpt>
      <trkpt lat="47.065269006416202" lon="16.20158800855279">
        <ele>277.95999999999998</ele>
        <time>2015-04-09T11:46:49Z</time>
      </trkpt>
      <trkpt lat="47.065295996144414" lon="16.201497986912727">
        <ele>278.439999999999998</ele>
        <time>2015-04-09T11:46:50Z</time>
      </trkpt>
      <trkpt lat="47.065399009734392" lon="16.201099008321762">
        <ele>279.399999999999977</ele>
        <time>2015-04-09T11:46:55Z</time>
      </trkpt>
      <trkpt lat="47.065406972542405" lon="16.201024996116757">
        <ele>279.399999999999977</ele>
        <time>2015-04-09T11:46:56Z</time>
      </trkpt>
      <trkpt lat="47.065410995855927" lon="16.200954001396894">
        <ele>279.879999999999995</ele>
        <time>2015-04-09T11:46:57Z</time>
      </trkpt>
      <trkpt lat="47.065406972542405" lon="16.200884012505412">
        <ele>279.879999999999995</ele>
        <time>2015-04-09T11:46:58Z</time>
      </trkpt>
      <trkpt lat="47.06539498642087" lon="16.200817041099072">
        <ele>280.360000000000014</ele>
        <time>2015-04-09T11:46:59Z</time>
      </trkpt>
      <trkpt lat="47.065379982814193" lon="16.200758032500744">
        <ele>280.839999999999975</ele>
        <time>2015-04-09T11:47:00Z</time>
      </trkpt>
      <trkpt lat="47.065364979207516" lon="16.200701035559177">
        <ele>280.839999999999975</ele>
        <time>2015-04-09T11:47:01Z</time>
      </trkpt>
      <trkpt lat="47.065300019457936" lon="16.20017196983099">
        <ele>282.769999999999982</ele>
        <time>2015-04-09T11:47:12Z</time>
      </trkpt>
      <trkpt lat="47.065421976149082" lon="16.199776008725166">
        <ele>285.170000000000016</ele>
        <time>2015-04-09T11:47:22Z</time>
      </trkpt>
      <trkpt lat="47.065559020265937" lon="16.199245015159249">
        <ele>286.610000000000014</ele>
        <time>2015-04-09T11:47:35Z</time>
      </trkpt>
      <trkpt lat="47.065593972802162" lon="16.198939997702837">
        <ele>288.050000000000011</ele>
        <time>2015-04-09T11:47:46Z</time>
      </trkpt>
      <trkpt lat="47.065638983622193" lon="16.198520986363292">
        <ele>289.970000000000027</ele>
        <time>2015-04-09T11:47:59Z</time>
      </trkpt>
      <trkpt lat="47.065659016370773" lon="16.198186967521906">
        <ele>291.899999999999977</ele>
        <time>2015-04-09T11:48:11Z</time>
      </trkpt>
      <trkpt lat="47.065650969743729" lon="16.197849009186029">
        <ele>294.300000000000011</ele>
        <time>2015-04-09T11:48:23Z</time>
      </trkpt>
      <trkpt lat="47.065662033855915" lon="16.197662008926272">
        <ele>295.740000000000009</ele>
        <time>2015-04-09T11:48:31Z</time>
      </trkpt>
      <trkpt lat="47.065659016370773" lon="16.197640970349312">
        <ele>295.259999999999991</ele>
        <time>2015-04-09T11:48:32Z</time>
      </trkpt>
      <trkpt lat="47.065662033855915" lon="16.197612974792719">
        <ele>295.259999999999991</ele>
        <time>2015-04-09T11:48:33Z</time>
      </trkpt>
      <trkpt lat="47.065662033855915" lon="16.197583973407745">
        <ele>295.740000000000009</ele>
        <time>2015-04-09T11:48:34Z</time>
      </trkpt>
      <trkpt lat="47.065662033855915" lon="16.197558995336294">
        <ele>296.220000000000027</ele>
        <time>2015-04-09T11:48:35Z</time>
      </trkpt>
      <trkpt lat="47.065659016370773" lon="16.197535023093224">
        <ele>296.220000000000027</ele>
        <time>2015-04-09T11:48:36Z</time>
      </trkpt>
      <trkpt lat="47.065659016370773" lon="16.197513984516263">
        <ele>296.220000000000027</ele>
        <time>2015-04-09T11:48:37Z</time>
      </trkpt>
      <trkpt lat="47.065654993057251" lon="16.197493029758334">
        <ele>296.699999999999989</ele>
        <time>2015-04-09T11:48:38Z</time>
      </trkpt>
      <trkpt lat="47.065654993057251" lon="16.197467967867851">
        <ele>296.699999999999989</ele>
        <time>2015-04-09T11:48:39Z</time>
      </trkpt>
      <trkpt lat="47.065654993057251" lon="16.197447013109922">
        <ele>296.699999999999989</ele>
        <time>2015-04-09T11:48:40Z</time>
      </trkpt>
      <trkpt lat="47.065659016370773" lon="16.197427986189723">
        <ele>297.180000000000007</ele>
        <time>2015-04-09T11:48:41Z</time>
      </trkpt>
      <trkpt lat="47.065638983622193" lon="16.197123974561691">
        <ele>299.589999999999975</ele>
        <time>2015-04-09T11:48:53Z</time>
      </trkpt>
      <trkpt lat="47.065605036914349" lon="16.196849970147014">
        <ele>301.029999999999973</ele>
        <time>2015-04-09T11:49:04Z</time>
      </trkpt>
      <trkpt lat="47.065581986680627" lon="16.196772018447518">
        <ele>301.990000000000009</ele>
        <time>2015-04-09T11:49:13Z</time>
      </trkpt>
      <trkpt lat="47.065577963367105" lon="16.196758020669222">
        <ele>302.470000000000027</ele>
        <time>2015-04-09T11:49:14Z</time>
      </trkpt>
      <trkpt lat="47.065490959212184" lon="16.196534978225827">
        <ele>305.839999999999975</ele>
        <time>2015-04-09T11:49:31Z</time>
      </trkpt>
      <trkpt lat="47.065478973090649" lon="16.196527015417814">
        <ele>305.360000000000014</ele>
        <time>2015-04-09T11:49:32Z</time>
      </trkpt>
      <trkpt lat="47.065472016111016" lon="16.196514023467898">
        <ele>305.839999999999975</ele>
        <time>2015-04-09T11:49:33Z</time>
      </trkpt>
      <trkpt lat="47.065463969483972" lon="16.196499019861221">
        <ele>305.360000000000014</ele>
        <time>2015-04-09T11:49:34Z</time>
      </trkpt>
      <trkpt lat="47.065460029989481" lon="16.196486027911305">
        <ele>305.839999999999975</ele>
        <time>2015-04-09T11:49:35Z</time>
      </trkpt>
      <trkpt lat="47.065456006675959" lon="16.196468006819487">
        <ele>305.839999999999975</ele>
        <time>2015-04-09T11:49:36Z</time>
      </trkpt>
      <trkpt lat="47.065452989190817" lon="16.196448979899287">
        <ele>306.319999999999993</ele>
        <time>2015-04-09T11:49:37Z</time>
      </trkpt>
      <trkpt lat="47.065399009734392" lon="16.196257034316659">
        <ele>309.199999999999989</ele>
        <time>2015-04-09T11:49:49Z</time>
      </trkpt>
      <trkpt lat="47.065315023064613" lon="16.196048995479941">
        <ele>312.569999999999993</ele>
        <time>2015-04-09T11:50:03Z</time>
      </trkpt>
      <trkpt lat="47.065135985612869" lon="16.195813966915011">
        <ele>314.970000000000027</ele>
        <time>2015-04-09T11:50:21Z</time>
      </trkpt>
      <trkpt lat="47.0649219956249" lon="16.195705002173781">
        <ele>317.370000000000005</ele>
        <time>2015-04-09T11:50:37Z</time>
      </trkpt>
      <trkpt lat="47.064818982034922" lon="16.195703996345401">
        <ele>320.740000000000009</ele>
        <time>2015-04-09T11:50:45Z</time>
      </trkpt>
      <trkpt lat="47.064616978168488" lon="16.195727968588471">
        <ele>321.220000000000027</ele>
        <time>2015-04-09T11:51:01Z</time>
      </trkpt>
      <trkpt lat="47.064396031200886" lon="16.195754958316684">
        <ele>322.660000000000025</ele>
        <time>2015-04-09T11:51:18Z</time>
      </trkpt>
      <trkpt lat="47.064155973494053" lon="16.195807009935379">
        <ele>325.060000000000002</ele>
        <time>2015-04-09T11:51:36Z</time>
      </trkpt>
      <trkpt lat="47.064075004309416" lon="16.195828970521688">
        <ele>326.5</ele>
        <time>2015-04-09T11:51:49Z</time>
      </trkpt>
      <trkpt lat="47.064064024016261" lon="16.19583098217845">
        <ele>326.5</ele>
        <time>2015-04-09T11:51:50Z</time>
      </trkpt>
      <trkpt lat="47.064052959904075" lon="16.195832993835211">
        <ele>326.5</ele>
        <time>2015-04-09T11:51:51Z</time>
      </trkpt>
      <trkpt lat="47.064040973782539" lon="16.195839028805494">
        <ele>326.990000000000009</ele>
        <time>2015-04-09T11:51:52Z</time>
      </trkpt>
      <trkpt lat="47.064029993489385" lon="16.195846991613507">
        <ele>326.990000000000009</ele>
        <time>2015-04-09T11:51:53Z</time>
      </trkpt>
      <trkpt lat="47.064018007367849" lon="16.195850009098649">
        <ele>326.990000000000009</ele>
        <time>2015-04-09T11:51:54Z</time>
      </trkpt>
      <trkpt lat="47.063823966309428" lon="16.195870963856578">
        <ele>329.870000000000005</ele>
        <time>2015-04-09T11:52:10Z</time>
      </trkpt>
      <trkpt lat="47.063663033768535" lon="16.195842968299985">
        <ele>331.310000000000002</ele>
        <time>2015-04-09T11:52:23Z</time>
      </trkpt>
      <trkpt lat="47.063648030161858" lon="16.195847997441888">
        <ele>330.829999999999984</ele>
        <time>2015-04-09T11:52:24Z</time>
      </trkpt>
      <trkpt lat="47.063633026555181" lon="16.195850009098649">
        <ele>331.310000000000002</ele>
        <time>2015-04-09T11:52:25Z</time>
      </trkpt>
      <trkpt lat="47.063609976321459" lon="16.195847997441888">
        <ele>331.310000000000002</ele>
        <time>2015-04-09T11:52:26Z</time>
      </trkpt>
      <trkpt lat="47.063587009906769" lon="16.195844979956746">
        <ele>331.310000000000002</ele>
        <time>2015-04-09T11:52:27Z</time>
      </trkpt>
      <trkpt lat="47.063209991902113" lon="16.195763004943728">
        <ele>333.230000000000018</ele>
        <time>2015-04-09T11:52:42Z</time>
      </trkpt>
      <trkpt lat="47.062919978052378" lon="16.195668959990144">
        <ele>335.160000000000025</ele>
        <time>2015-04-09T11:52:56Z</time>
      </trkpt>
      <trkpt lat="47.062710011377931" lon="16.19557399302721">
        <ele>337.079999999999984</ele>
        <time>2015-04-09T11:53:07Z</time>
      </trkpt>
      <trkpt lat="47.062511024996638" lon="16.195485983043909">
        <ele>339</ele>
        <time>2015-04-09T11:53:19Z</time>
      </trkpt>
      <trkpt lat="47.062336010858417" lon="16.195438038557768">
        <ele>340.920000000000016</ele>
        <time>2015-04-09T11:53:32Z</time>
      </trkpt>
      <trkpt lat="47.062144987285137" lon="16.195470979437232">
        <ele>342.370000000000005</ele>
        <time>2015-04-09T11:53:46Z</time>
      </trkpt>
      <trkpt lat="47.062072986736894" lon="16.195490006357431">
        <ele>343.329999999999984</ele>
        <time>2015-04-09T11:53:50Z</time>
      </trkpt>
      <trkpt lat="47.062061000615358" lon="16.195500986650586">
        <ele>343.810000000000002</ele>
        <time>2015-04-09T11:53:51Z</time>
      </trkpt>
      <trkpt lat="47.062050020322204" lon="16.19551096111536">
        <ele>343.329999999999984</ele>
        <time>2015-04-09T11:53:52Z</time>
      </trkpt>
      <trkpt lat="47.062038034200668" lon="16.195518001914024">
        <ele>343.329999999999984</ele>
        <time>2015-04-09T11:53:53Z</time>
      </trkpt>
      <trkpt lat="47.062023030593991" lon="16.195522025227547">
        <ele>344.29000000000002</ele>
        <time>2015-04-09T11:53:54Z</time>
      </trkpt>
      <trkpt lat="47.062008026987314" lon="16.195524036884308">
        <ele>344.29000000000002</ele>
        <time>2015-04-09T11:53:55Z</time>
      </trkpt>
      <trkpt lat="47.061993023380637" lon="16.195520013570786">
        <ele>344.769999999999982</ele>
        <time>2015-04-09T11:53:56Z</time>
      </trkpt>
      <trkpt lat="47.061764029785991" lon="16.195625038817525">
        <ele>347.170000000000016</ele>
        <time>2015-04-09T11:54:09Z</time>
      </trkpt>
      <trkpt lat="47.061573006212711" lon="16.195645993575454">
        <ele>348.129999999999995</ele>
        <time>2015-04-09T11:54:21Z</time>
      </trkpt>
      <trkpt lat="47.061568982899189" lon="16.195643981918693">
        <ele>349.100000000000023</ele>
        <time>2015-04-09T11:54:43Z</time>
      </trkpt>
      <trkpt lat="47.061553979292512" lon="16.195628978312016">
        <ele>349.100000000000023</ele>
        <time>2015-04-09T11:54:45Z</time>
      </trkpt>
      <trkpt lat="47.061546016484499" lon="16.195601988583803">
        <ele>348.620000000000005</ele>
        <time>2015-04-09T11:54:46Z</time>
      </trkpt>
      <trkpt lat="47.061542998999357" lon="16.195568041875958">
        <ele>348.620000000000005</ele>
        <time>2015-04-09T11:54:47Z</time>
      </trkpt>
      <trkpt lat="47.061599995940924" lon="16.195210972800851">
        <ele>345.730000000000018</ele>
        <time>2015-04-09T11:54:53Z</time>
      </trkpt>
      <trkpt lat="47.061625979840755" lon="16.19512396864593">
        <ele>344.769999999999982</ele>
        <time>2015-04-09T11:54:54Z</time>
      </trkpt>
      <trkpt lat="47.061755983158946" lon="16.194719038903713">
        <ele>342.850000000000023</ele>
        <time>2015-04-09T11:54:58Z</time>
      </trkpt>
      <trkpt lat="47.061874000355601" lon="16.194153008982539">
        <ele>340.920000000000016</ele>
        <time>2015-04-09T11:55:03Z</time>
      </trkpt>
      <trkpt lat="47.061878023669124" lon="16.194040020927787">
        <ele>341.889999999999986</ele>
        <time>2015-04-09T11:55:04Z</time>
      </trkpt>
      <trkpt lat="47.061874000355601" lon="16.193929966539145">
        <ele>340.920000000000016</ele>
        <time>2015-04-09T11:55:05Z</time>
      </trkpt>
      <trkpt lat="47.061863020062447" lon="16.193823013454676">
        <ele>341.410000000000025</ele>
        <time>2015-04-09T11:55:06Z</time>
      </trkpt>
      <trkpt lat="47.061843993142247" lon="16.19372402317822">
        <ele>341.889999999999986</ele>
        <time>2015-04-09T11:55:07Z</time>
      </trkpt>
      <trkpt lat="47.061821026727557" lon="16.193629978224635">
        <ele>341.410000000000025</ele>
        <time>2015-04-09T11:55:08Z</time>
      </trkpt>
      <trkpt lat="47.061622962355614" lon="16.192961018532515">
        <ele>344.29000000000002</ele>
        <time>2015-04-09T11:55:18Z</time>
      </trkpt>
      <trkpt lat="47.061478039249778" lon="16.192639991641045">
        <ele>346.689999999999998</ele>
        <time>2015-04-09T11:55:27Z</time>
      </trkpt>
      <trkpt lat="47.061317022889853" lon="16.192306978628039">
        <ele>350.060000000000002</ele>
        <time>2015-04-09T11:55:39Z</time>
      </trkpt>
      <trkpt lat="47.061115019023418" lon="16.191945970058441">
        <ele>350.060000000000002</ele>
        <time>2015-04-09T11:55:52Z</time>
      </trkpt>
      <trkpt lat="47.060992978513241" lon="16.191765004768968">
        <ele>349.100000000000023</ele>
        <time>2015-04-09T11:55:57Z</time>
      </trkpt>
      <trkpt lat="47.060950985178351" lon="16.191731980070472">
        <ele>348.620000000000005</ele>
        <time>2015-04-09T11:55:58Z</time>
      </trkpt>
      <trkpt lat="47.06090203486383" lon="16.191694010049105">
        <ele>348.620000000000005</ele>
        <time>2015-04-09T11:55:59Z</time>
      </trkpt>
      <trkpt lat="47.060187980532646" lon="16.191155975684524">
        <ele>347.170000000000016</ele>
        <time>2015-04-09T11:56:15Z</time>
      </trkpt>
      <trkpt lat="47.059738039970398" lon="16.190980961546302">
        <ele>347.649999999999977</ele>
        <time>2015-04-09T11:56:24Z</time>
      </trkpt>
      <trkpt lat="47.059288015589118" lon="16.190964030101895">
        <ele>348.620000000000005</ele>
        <time>2015-04-09T11:56:37Z</time>
      </trkpt>
      <trkpt lat="47.058887025341392" lon="16.190979033708572">
        <ele>350.54000000000002</ele>
        <time>2015-04-09T11:56:49Z</time>
      </trkpt>
      <trkpt lat="47.058501960709691" lon="16.190925976261497">
        <ele>351.5</ele>
        <time>2015-04-09T11:57:02Z</time>
      </trkpt>
      <trkpt lat="47.058188980445266" lon="16.190913990139961">
        <ele>353.420000000000016</ele>
        <time>2015-04-09T11:57:12Z</time>
      </trkpt>
      <trkpt lat="47.057868959382176" lon="16.190865961834788">
        <ele>355.339999999999975</ele>
        <time>2015-04-09T11:57:25Z</time>
      </trkpt>
      <trkpt lat="47.057796036824584" lon="16.190620036795735">
        <ele>357.269999999999982</ele>
        <time>2015-04-09T11:57:34Z</time>
      </trkpt>
      <trkpt lat="47.057803999632597" lon="16.190601009875536">
        <ele>357.269999999999982</ele>
        <time>2015-04-09T11:57:35Z</time>
      </trkpt>
      <trkpt lat="47.057808022946119" lon="16.190583994612098">
        <ele>357.269999999999982</ele>
        <time>2015-04-09T11:57:36Z</time>
      </trkpt>
      <trkpt lat="47.057995023205876" lon="16.190362963825464">
        <ele>359.670000000000016</ele>
        <time>2015-04-09T11:57:49Z</time>
      </trkpt>
      <trkpt lat="47.058208007365465" lon="16.190221980214119">
        <ele>362.069999999999993</ele>
        <time>2015-04-09T11:58:02Z</time>
      </trkpt>
      <trkpt lat="47.05836902372539" lon="16.19009398855269">
        <ele>364</ele>
        <time>2015-04-09T11:58:13Z</time>
      </trkpt>
      <trkpt lat="47.058547977358103" lon="16.189906988292933">
        <ele>365.920000000000016</ele>
        <time>2015-04-09T11:58:26Z</time>
      </trkpt>
      <trkpt lat="47.058722991496325" lon="16.18968402966857">
        <ele>367.360000000000014</ele>
        <time>2015-04-09T11:58:39Z</time>
      </trkpt>
      <trkpt lat="47.058846037834883" lon="16.189394015818834">
        <ele>368.800000000000011</ele>
        <time>2015-04-09T11:58:52Z</time>
      </trkpt>
      <trkpt lat="47.059071008116007" lon="16.188823962584138">
        <ele>368.319999999999993</ele>
        <time>2015-04-09T11:59:07Z</time>
      </trkpt>
      <trkpt lat="47.059387005865574" lon="16.187958028167486">
        <ele>368.800000000000011</ele>
        <time>2015-04-09T11:59:23Z</time>
      </trkpt>
      <trkpt lat="47.059653969481587" lon="16.187634989619255">
        <ele>371.689999999999998</ele>
        <time>2015-04-09T11:59:35Z</time>
      </trkpt>
      <trkpt lat="47.059952029958367" lon="16.18743097409606">
        <ele>374.089999999999975</ele>
        <time>2015-04-09T11:59:47Z</time>
      </trkpt>
      <trkpt lat="47.060229973867536" lon="16.1873459815979">
        <ele>376.490000000000009</ele>
        <time>2015-04-09T12:00:00Z</time>
      </trkpt>
      <trkpt lat="47.06043197773397" lon="16.18727901019156">
        <ele>376.970000000000027</ele>
        <time>2015-04-09T12:00:14Z</time>
      </trkpt>
      <trkpt lat="47.060436001047492" lon="16.187255959957838">
        <ele>376.970000000000027</ele>
        <time>2015-04-09T12:00:36Z</time>
      </trkpt>
      <trkpt lat="47.060443963855505" lon="16.187225030735135">
        <ele>376.490000000000009</ele>
        <time>2015-04-09T12:00:37Z</time>
      </trkpt>
      <trkpt lat="47.060447987169027" lon="16.187186976894736">
        <ele>376.970000000000027</ele>
        <time>2015-04-09T12:00:38Z</time>
      </trkpt>
      <trkpt lat="47.060447987169027" lon="16.187144983559847">
        <ele>376.490000000000009</ele>
        <time>2015-04-09T12:00:39Z</time>
      </trkpt>
      <trkpt lat="47.06045201048255" lon="16.187097961083055">
        <ele>376.490000000000009</ele>
        <time>2015-04-09T12:00:40Z</time>
      </trkpt>
      <trkpt lat="47.060447987169027" lon="16.187045993283391">
        <ele>376.490000000000009</ele>
        <time>2015-04-09T12:00:41Z</time>
      </trkpt>
      <trkpt lat="47.060455027967691" lon="16.186425983905792">
        <ele>376.490000000000009</ele>
        <time>2015-04-09T12:00:52Z</time>
      </trkpt>
      <trkpt lat="47.060768008232117" lon="16.185809997841716">
        <ele>373.610000000000014</ele>
        <time>2015-04-09T12:01:02Z</time>
      </trkpt>
      <trkpt lat="47.061329009011388" lon="16.184694031253457">
        <ele>371.689999999999998</ele>
        <time>2015-04-09T12:01:17Z</time>
      </trkpt>
      <trkpt lat="47.061520032584667" lon="16.184172006323934">
        <ele>371.20999999999998</ele>
        <time>2015-04-09T12:01:24Z</time>
      </trkpt>
      <trkpt lat="47.061558002606034" lon="16.183876041322947">
        <ele>370.240000000000009</ele>
        <time>2015-04-09T12:01:28Z</time>
      </trkpt>
      <trkpt lat="47.061553979292512" lon="16.183802029117942">
        <ele>370.240000000000009</ele>
        <time>2015-04-09T12:01:29Z</time>
      </trkpt>
      <trkpt lat="47.061546016484499" lon="16.183731034398079">
        <ele>370.240000000000009</ele>
        <time>2015-04-09T12:01:30Z</time>
      </trkpt>
      <trkpt lat="47.0615269895643" lon="16.183663979172707">
        <ele>369.759999999999991</ele>
        <time>2015-04-09T12:01:31Z</time>
      </trkpt>
      <trkpt lat="47.06150402314961" lon="16.183604970574379">
        <ele>369.759999999999991</ele>
        <time>2015-04-09T12:01:32Z</time>
      </trkpt>
      <trkpt lat="47.061478039249778" lon="16.183554008603096">
        <ele>370.240000000000009</ele>
        <time>2015-04-09T12:01:33Z</time>
      </trkpt>
      <trkpt lat="47.061450965702534" lon="16.183512015268207">
        <ele>370.240000000000009</ele>
        <time>2015-04-09T12:01:34Z</time>
      </trkpt>
      <trkpt lat="47.061245022341609" lon="16.183335995301604">
        <ele>367.839999999999975</ele>
        <time>2015-04-09T12:01:44Z</time>
      </trkpt>
      <trkpt lat="47.061191964894533" lon="16.183338006958365">
        <ele>367.360000000000014</ele>
        <time>2015-04-09T12:01:55Z</time>
      </trkpt>
      <trkpt lat="47.061191964894533" lon="16.183338006958365">
        <ele>367.360000000000014</ele>
        <time>2015-04-09T12:02:24Z</time>
      </trkpt>
      <trkpt lat="47.061168998479843" lon="16.183343958109617">
        <ele>366.399999999999977</ele>
        <time>2015-04-09T12:02:25Z</time>
      </trkpt>
      <trkpt lat="47.061089035123587" lon="16.183338006958365">
        <ele>365.920000000000016</ele>
        <time>2015-04-09T12:02:27Z</time>
      </trkpt>
      <trkpt lat="47.060772031545639" lon="16.183274975046515">
        <ele>361.589999999999975</ele>
        <time>2015-04-09T12:02:32Z</time>
      </trkpt>
      <trkpt lat="47.060368023812771" lon="16.183113036677241">
        <ele>357.75</ele>
        <time>2015-04-09T12:02:38Z</time>
      </trkpt>
      <trkpt lat="47.060310021042824" lon="16.183076994493604">
        <ele>356.79000000000002</ele>
        <time>2015-04-09T12:02:39Z</time>
      </trkpt>
      <trkpt lat="47.060253024101257" lon="16.18302502669394">
        <ele>355.829999999999984</ele>
        <time>2015-04-09T12:02:40Z</time>
      </trkpt>
      <trkpt lat="47.060199966654181" lon="16.18296098895371">
        <ele>354.379999999999995</ele>
        <time>2015-04-09T12:02:41Z</time>
      </trkpt>
      <trkpt lat="47.060027970001101" lon="16.182693019509315">
        <ele>350.060000000000002</ele>
        <time>2015-04-09T12:02:44Z</time>
      </trkpt>
      <trkpt lat="47.059849016368389" lon="16.182362018153071">
        <ele>346.689999999999998</ele>
        <time>2015-04-09T12:02:47Z</time>
      </trkpt>
      <trkpt lat="47.059653969481587" lon="16.181919034570456">
        <ele>342.850000000000023</ele>
        <time>2015-04-09T12:02:51Z</time>
      </trkpt>
      <trkpt lat="47.059623962268233" lon="16.181805040687323">
        <ele>341.889999999999986</ele>
        <time>2015-04-09T12:02:52Z</time>
      </trkpt>
      <trkpt lat="47.059600995853543" lon="16.181695992127061">
        <ele>340.920000000000016</ele>
        <time>2015-04-09T12:02:53Z</time>
      </trkpt>
      <trkpt lat="47.059589009732008" lon="16.181589039042592">
        <ele>339.95999999999998</ele>
        <time>2015-04-09T12:02:54Z</time>
      </trkpt>
      <trkpt lat="47.059585992246866" lon="16.18147999048233">
        <ele>339.480000000000018</ele>
        <time>2015-04-09T12:02:55Z</time>
      </trkpt>
      <trkpt lat="47.059589009732008" lon="16.181359961628914">
        <ele>339</ele>
        <time>2015-04-09T12:02:56Z</time>
      </trkpt>
      <trkpt lat="47.059608036652207" lon="16.181233981624246">
        <ele>338.04000000000002</ele>
        <time>2015-04-09T12:02:57Z</time>
      </trkpt>
      <trkpt lat="47.05963896587491" lon="16.181104984134436">
        <ele>336.120000000000005</ele>
        <time>2015-04-09T12:02:58Z</time>
      </trkpt>
      <trkpt lat="47.0596809592098" lon="16.180967018008232">
        <ele>334.199999999999989</ele>
        <time>2015-04-09T12:02:59Z</time>
      </trkpt>
      <trkpt lat="47.059730999171734" lon="16.180824022740126">
        <ele>332.75</ele>
        <time>2015-04-09T12:03:00Z</time>
      </trkpt>
      <trkpt lat="47.059822026640177" lon="16.180600980296731">
        <ele>329.870000000000005</ele>
        <time>2015-04-09T12:03:01Z</time>
      </trkpt>
      <trkpt lat="47.059864019975066" lon="16.180526968091726">
        <ele>329.870000000000005</ele>
        <time>2015-04-09T12:03:02Z</time>
      </trkpt>
      <trkpt lat="47.0599399600178" lon="16.18038397282362">
        <ele>326.5</ele>
        <time>2015-04-09T12:03:03Z</time>
      </trkpt>
      <trkpt lat="47.060024030506611" lon="16.180224968120456">
        <ele>324.579999999999984</ele>
        <time>2015-04-09T12:03:04Z</time>
      </trkpt>
      <trkpt lat="47.060192003846169" lon="16.179925985634327">
        <ele>321.220000000000027</ele>
        <time>2015-04-09T12:03:06Z</time>
      </trkpt>
      <trkpt lat="47.060440024361014" lon="16.179479984566569">
        <ele>316.889999999999986</ele>
        <time>2015-04-09T12:03:09Z</time>
      </trkpt>
      <trkpt lat="47.060492997989058" lon="16.179305976256728">
        <ele>316.410000000000025</ele>
        <time>2015-04-09T12:03:10Z</time>
      </trkpt>
      <trkpt lat="47.060673041269183" lon="16.178658977150917">
        <ele>313.050000000000011</ele>
        <time>2015-04-09T12:03:14Z</time>
      </trkpt>
      <trkpt lat="47.060889964923263" lon="16.178071992471814">
        <ele>309.199999999999989</ele>
        <time>2015-04-09T12:03:18Z</time>
      </trkpt>
      <trkpt lat="47.06120696850121" lon="16.17726699449122">
        <ele>306.319999999999993</ele>
        <time>2015-04-09T12:03:24Z</time>
      </trkpt>
      <trkpt lat="47.061454989016056" lon="16.17664497345686">
        <ele>302.470000000000027</ele>
        <time>2015-04-09T12:03:29Z</time>
      </trkpt>
      <trkpt lat="47.061909036710858" lon="16.175531018525362">
        <ele>299.110000000000014</ele>
        <time>2015-04-09T12:03:39Z</time>
      </trkpt>
      <trkpt lat="47.061953963711858" lon="16.175417024642229">
        <ele>299.110000000000014</ele>
        <time>2015-04-09T12:03:40Z</time>
      </trkpt>
      <trkpt lat="47.062294017523527" lon="16.174602974206209">
        <ele>297.670000000000016</ele>
        <time>2015-04-09T12:03:48Z</time>
      </trkpt>
      <trkpt lat="47.062312960624695" lon="16.174511024728417">
        <ele>297.670000000000016</ele>
        <time>2015-04-09T12:03:49Z</time>
      </trkpt>
      <trkpt lat="47.062316983938217" lon="16.174421003088355">
        <ele>297.670000000000016</ele>
        <time>2015-04-09T12:03:50Z</time>
      </trkpt>
      <trkpt lat="47.06230198033154" lon="16.174335004761815">
        <ele>298.149999999999977</ele>
        <time>2015-04-09T12:03:51Z</time>
      </trkpt>
      <trkpt lat="47.062270967289805" lon="16.17426099255681">
        <ele>298.149999999999977</ele>
        <time>2015-04-09T12:03:52Z</time>
      </trkpt>
      <trkpt lat="47.062232997268438" lon="16.174196032807231">
        <ele>298.149999999999977</ele>
        <time>2015-04-09T12:03:53Z</time>
      </trkpt>
      <trkpt lat="47.062191003933549" lon="16.174140963703394">
        <ele>298.149999999999977</ele>
        <time>2015-04-09T12:03:54Z</time>
      </trkpt>
      <trkpt lat="47.06214901059866" lon="16.17408899590373">
        <ele>298.149999999999977</ele>
        <time>2015-04-09T12:03:55Z</time>
      </trkpt>
      <trkpt lat="47.061942983418703" lon="16.173882968723774">
        <ele>298.149999999999977</ele>
        <time>2015-04-09T12:04:00Z</time>
      </trkpt>
      <trkpt lat="47.061920017004013" lon="16.173836030066013">
        <ele>297.670000000000016</ele>
        <time>2015-04-09T12:04:01Z</time>
      </trkpt>
      <trkpt lat="47.061909036710858" lon="16.173781966790557">
        <ele>298.149999999999977</ele>
        <time>2015-04-09T12:04:02Z</time>
      </trkpt>
      <trkpt lat="47.061912976205349" lon="16.173739973455667">
        <ele>297.670000000000016</ele>
        <time>2015-04-09T12:04:03Z</time>
      </trkpt>
      <trkpt lat="47.061924040317535" lon="16.173711977899075">
        <ele>297.670000000000016</ele>
        <time>2015-04-09T12:04:04Z</time>
      </trkpt>
      <trkpt lat="47.061938960105181" lon="16.173689011484385">
        <ele>297.670000000000016</ele>
        <time>2015-04-09T12:04:05Z</time>
      </trkpt>
      <trkpt lat="47.061942983418703" lon="16.173665961250663">
        <ele>297.670000000000016</ele>
        <time>2015-04-09T12:04:06Z</time>
      </trkpt>
      <trkpt lat="47.061942983418703" lon="16.173627991229296">
        <ele>297.670000000000016</ele>
        <time>2015-04-09T12:04:07Z</time>
      </trkpt>
      <trkpt lat="47.061932003125548" lon="16.173583986237645">
        <ele>297.670000000000016</ele>
        <time>2015-04-09T12:04:08Z</time>
      </trkpt>
      <trkpt lat="47.061912976205349" lon="16.173537969589233">
        <ele>297.180000000000007</ele>
        <time>2015-04-09T12:04:09Z</time>
      </trkpt>
      <trkpt lat="47.061890009790659" lon="16.173489019274712">
        <ele>297.180000000000007</ele>
        <time>2015-04-09T12:04:10Z</time>
      </trkpt>
      <trkpt lat="47.061531012877822" lon="16.172569021582603">
        <ele>294.300000000000011</ele>
        <time>2015-04-09T12:04:24Z</time>
      </trkpt>
      <trkpt lat="47.061443002894521" lon="16.172259980812669">
        <ele>294.300000000000011</ele>
        <time>2015-04-09T12:04:28Z</time>
      </trkpt>
      <trkpt lat="47.061122981831431" lon="16.171116018667817">
        <ele>292.379999999999995</ele>
        <time>2015-04-09T12:04:43Z</time>
      </trkpt>
      <trkpt lat="47.060821987688541" lon="16.170050008222461">
        <ele>291.899999999999977</ele>
        <time>2015-04-09T12:04:58Z</time>
      </trkpt>
      <trkpt lat="47.060420997440815" lon="16.169077036902308">
        <ele>291.420000000000016</ele>
        <time>2015-04-09T12:05:13Z</time>
      </trkpt>
      <trkpt lat="47.060078009963036" lon="16.168359965085983">
        <ele>290.45999999999998</ele>
        <time>2015-04-09T12:05:28Z</time>
      </trkpt>
      <trkpt lat="47.059879023581743" lon="16.168000968173146">
        <ele>290.45999999999998</ele>
        <time>2015-04-09T12:05:36Z</time>
      </trkpt>
      <trkpt lat="47.059631003066897" lon="16.167640965431929">
        <ele>290.45999999999998</ele>
        <time>2015-04-09T12:05:45Z</time>
      </trkpt>
      <trkpt lat="47.059158012270927" lon="16.167069990187883">
        <ele>289.009999999999991</ele>
        <time>2015-04-09T12:05:59Z</time>
      </trkpt>
      <trkpt lat="47.059062961488962" lon="16.166948033496737">
        <ele>290.939999999999998</ele>
        <time>2015-04-09T12:06:02Z</time>
      </trkpt>
      <trkpt lat="47.05899003893137" lon="16.16686999797821">
        <ele>289.970000000000027</ele>
        <time>2015-04-09T12:06:04Z</time>
      </trkpt>
      <trkpt lat="47.058547977358103" lon="16.166402958333492">
        <ele>290.45999999999998</ele>
        <time>2015-04-09T12:06:18Z</time>
      </trkpt>
      <trkpt lat="47.058525010943413" lon="16.166384015232325">
        <ele>290.45999999999998</ele>
        <time>2015-04-09T12:06:29Z</time>
      </trkpt>
      <trkpt lat="47.058525010943413" lon="16.166384015232325">
        <ele>289.970000000000027</ele>
        <time>2015-04-09T12:06:57Z</time>
      </trkpt>
      <trkpt lat="47.058514030650258" lon="16.166382003575563">
        <ele>289.970000000000027</ele>
        <time>2015-04-09T12:06:58Z</time>
      </trkpt>
      <trkpt lat="47.058495003730059" lon="16.16637404076755">
        <ele>289.490000000000009</ele>
        <time>2015-04-09T12:06:59Z</time>
      </trkpt>
      <trkpt lat="47.058472037315369" lon="16.166364988312125">
        <ele>289.490000000000009</ele>
        <time>2015-04-09T12:07:00Z</time>
      </trkpt>
      <trkpt lat="47.058444963768125" lon="16.166357025504112">
        <ele>289.970000000000027</ele>
        <time>2015-04-09T12:07:01Z</time>
      </trkpt>
      <trkpt lat="47.058417974039912" lon="16.166350990533829">
        <ele>289.490000000000009</ele>
        <time>2015-04-09T12:07:02Z</time>
      </trkpt>
      <trkpt lat="47.058311020955443" lon="16.166340010240674">
        <ele>289.490000000000009</ele>
        <time>2015-04-09T12:07:05Z</time>
      </trkpt>
      <trkpt lat="47.058270033448935" lon="16.166335986927152">
        <ele>289.970000000000027</ele>
        <time>2015-04-09T12:07:06Z</time>
      </trkpt>
      <trkpt lat="47.058146987110376" lon="16.166327018290758">
        <ele>289.970000000000027</ele>
        <time>2015-04-09T12:07:09Z</time>
      </trkpt>
      <trkpt lat="47.058101976290345" lon="16.166335986927152">
        <ele>289.490000000000009</ele>
        <time>2015-04-09T12:07:10Z</time>
      </trkpt>
      <trkpt lat="47.057335032150149" lon="16.166661959141493">
        <ele>289.009999999999991</ele>
        <time>2015-04-09T12:07:25Z</time>
      </trkpt>
      <trkpt lat="47.057124981656671" lon="16.16667696274817">
        <ele>289.009999999999991</ele>
        <time>2015-04-09T12:07:29Z</time>
      </trkpt>
      <trkpt lat="47.057082988321781" lon="16.166643016040325">
        <ele>289.009999999999991</ele>
        <time>2015-04-09T12:07:30Z</time>
      </trkpt>
      <trkpt lat="47.057045018300414" lon="16.166599011048675">
        <ele>289.009999999999991</ele>
        <time>2015-04-09T12:07:31Z</time>
      </trkpt>
      <trkpt lat="47.05637002363801" lon="16.166056031361222">
        <ele>288.050000000000011</ele>
        <time>2015-04-09T12:07:44Z</time>
      </trkpt>
      <trkpt lat="47.056277990341187" lon="16.166008003056049">
        <ele>288.529999999999973</ele>
        <time>2015-04-09T12:07:46Z</time>
      </trkpt>
      <trkpt lat="47.056231973692775" lon="16.165997022762895">
        <ele>288.529999999999973</ele>
        <time>2015-04-09T12:07:47Z</time>
      </trkpt>
      <trkpt lat="47.056179000064731" lon="16.165990987792611">
        <ele>288.050000000000011</ele>
        <time>2015-04-09T12:07:48Z</time>
      </trkpt>
      <trkpt lat="47.056122003123164" lon="16.165990987792611">
        <ele>288.050000000000011</ele>
        <time>2015-04-09T12:07:49Z</time>
      </trkpt>
      <trkpt lat="47.056060982868075" lon="16.165992999449372">
        <ele>287.569999999999993</ele>
        <time>2015-04-09T12:07:50Z</time>
      </trkpt>
      <trkpt lat="47.055011987686157" lon="16.166227022185922">
        <ele>286.610000000000014</ele>
        <time>2015-04-09T12:08:06Z</time>
      </trkpt>
      <trkpt lat="47.054954990744591" lon="16.166259963065386">
        <ele>286.129999999999995</ele>
        <time>2015-04-09T12:08:07Z</time>
      </trkpt>
      <trkpt lat="47.054901011288166" lon="16.166302040219307">
        <ele>286.610000000000014</ele>
        <time>2015-04-09T12:08:08Z</time>
      </trkpt>
      <trkpt lat="47.05465299077332" lon="16.166518963873386">
        <ele>287.089999999999975</ele>
        <time>2015-04-09T12:08:13Z</time>
      </trkpt>
      <trkpt lat="47.054172959178686" lon="16.16719102486968">
        <ele>288.529999999999973</ele>
        <time>2015-04-09T12:08:26Z</time>
      </trkpt>
      <trkpt lat="47.054138006642461" lon="16.167224971577525">
        <ele>288.050000000000011</ele>
        <time>2015-04-09T12:08:27Z</time>
      </trkpt>
      <trkpt lat="47.053790995851159" lon="16.167439967393875">
        <ele>287.569999999999993</ele>
        <time>2015-04-09T12:08:35Z</time>
      </trkpt>
      <trkpt lat="47.053741039708257" lon="16.167446002364159">
        <ele>287.569999999999993</ele>
        <time>2015-04-09T12:08:36Z</time>
      </trkpt>
      <trkpt lat="47.053692005574703" lon="16.167443990707397">
        <ele>287.569999999999993</ele>
        <time>2015-04-09T12:08:37Z</time>
      </trkpt>
      <trkpt lat="47.053505005314946" lon="16.167433010414243">
        <ele>287.089999999999975</ele>
        <time>2015-04-09T12:08:41Z</time>
      </trkpt>
      <trkpt lat="47.052707970142365" lon="16.167483972385526">
        <ele>286.610000000000014</ele>
        <time>2015-04-09T12:08:56Z</time>
      </trkpt>
      <trkpt lat="47.051848992705345" lon="16.167480032891035">
        <ele>287.569999999999993</ele>
        <time>2015-04-09T12:09:14Z</time>
      </trkpt>
      <trkpt lat="47.051136028021574" lon="16.167386993765831">
        <ele>288.050000000000011</ele>
        <time>2015-04-09T12:09:29Z</time>
      </trkpt>
      <trkpt lat="47.050457010045648" lon="16.167195970192552">
        <ele>286.129999999999995</ele>
        <time>2015-04-09T12:09:43Z</time>
      </trkpt>
      <trkpt lat="47.049911012873054" lon="16.167048029601574">
        <ele>285.649999999999977</ele>
        <time>2015-04-09T12:09:55Z</time>
      </trkpt>
      <trkpt lat="47.049891985952854" lon="16.167078036814928">
        <ele>285.649999999999977</ele>
        <time>2015-04-09T12:09:56Z</time>
      </trkpt>
      <trkpt lat="47.049872959032655" lon="16.167109971866012">
        <ele>286.129999999999995</ele>
        <time>2015-04-09T12:09:57Z</time>
      </trkpt>
      <trkpt lat="47.049849992617965" lon="16.167138973250985">
        <ele>286.610000000000014</ele>
        <time>2015-04-09T12:09:58Z</time>
      </trkpt>
      <trkpt lat="47.049824008718133" lon="16.167153976857662">
        <ele>286.610000000000014</ele>
        <time>2015-04-09T12:09:59Z</time>
      </trkpt>
      <trkpt lat="47.049792995676398" lon="16.167149031534791">
        <ele>285.649999999999977</ele>
        <time>2015-04-09T12:10:00Z</time>
      </trkpt>
      <trkpt lat="47.049755025655031" lon="16.167133022099733">
        <ele>285.649999999999977</ele>
        <time>2015-04-09T12:10:01Z</time>
      </trkpt>
      <trkpt lat="47.049061004072428" lon="16.166918026283383">
        <ele>283.25</ele>
        <time>2015-04-09T12:10:15Z</time>
      </trkpt>
      <trkpt lat="47.048203032463789" lon="16.167072001844645">
        <ele>279.879999999999995</ele>
        <time>2015-04-09T12:10:29Z</time>
      </trkpt>
      <trkpt lat="47.047645971179008" lon="16.167254978790879">
        <ele>278.920000000000016</ele>
        <time>2015-04-09T12:10:38Z</time>
      </trkpt>
      <trkpt lat="47.046580966562033" lon="16.167411971837282">
        <ele>277.480000000000018</ele>
        <time>2015-04-09T12:10:56Z</time>
      </trkpt>
      <trkpt lat="47.045852998271585" lon="16.167539963498712">
        <ele>277</ele>
        <time>2015-04-09T12:11:10Z</time>
      </trkpt>
      <trkpt lat="47.045203987509012" lon="16.167767029255629">
        <ele>277</ele>
        <time>2015-04-09T12:11:24Z</time>
      </trkpt>
      <trkpt lat="47.0451579708606" lon="16.167775997892022">
        <ele>277</ele>
        <time>2015-04-09T12:11:25Z</time>
      </trkpt>
      <trkpt lat="47.044247025623918" lon="16.167820002883673">
        <ele>276.04000000000002</ele>
        <time>2015-04-09T12:11:44Z</time>
      </trkpt>
      <trkpt lat="47.043574964627624" lon="16.16770600900054">
        <ele>275.560000000000002</ele>
        <time>2015-04-09T12:11:59Z</time>
      </trkpt>
      <trkpt lat="47.042591013014317" lon="16.167524037882686">
        <ele>274.589999999999975</ele>
        <time>2015-04-09T12:12:18Z</time>
      </trkpt>
      <trkpt lat="47.042399989441037" lon="16.167529989033937">
        <ele>274.110000000000014</ele>
        <time>2015-04-09T12:12:22Z</time>
      </trkpt>
      <trkpt lat="47.041823985055089" lon="16.167703997343779">
        <ele>274.110000000000014</ele>
        <time>2015-04-09T12:12:35Z</time>
      </trkpt>
      <trkpt lat="47.04133196733892" lon="16.167874988168478">
        <ele>273.629999999999995</ele>
        <time>2015-04-09T12:12:48Z</time>
      </trkpt>
      <trkpt lat="47.040759986266494" lon="16.168097024783492">
        <ele>272.670000000000016</ele>
        <time>2015-04-09T12:13:00Z</time>
      </trkpt>
      <trkpt lat="47.040713969618082" lon="16.168128959834576">
        <ele>272.670000000000016</ele>
        <time>2015-04-09T12:13:01Z</time>
      </trkpt>
      <trkpt lat="47.040504002943635" lon="16.168299028649926">
        <ele>272.189999999999998</ele>
        <time>2015-04-09T12:13:06Z</time>
      </trkpt>
      <trkpt lat="47.039927998557687" lon="16.168876960873604">
        <ele>273.629999999999995</ele>
        <time>2015-04-09T12:13:22Z</time>
      </trkpt>
      <trkpt lat="47.039341013878584" lon="16.169260013848543">
        <ele>274.589999999999975</ele>
        <time>2015-04-09T12:13:37Z</time>
      </trkpt>
      <trkpt lat="47.038657972589135" lon="16.169742979109287">
        <ele>274.589999999999975</ele>
        <time>2015-04-09T12:13:54Z</time>
      </trkpt>
      <trkpt lat="47.038467032834888" lon="16.170014971867204">
        <ele>274.110000000000014</ele>
        <time>2015-04-09T12:14:00Z</time>
      </trkpt>
      <trkpt lat="47.03804399818182" lon="16.170887025073171">
        <ele>272.670000000000016</ele>
        <time>2015-04-09T12:14:15Z</time>
      </trkpt>
      <trkpt lat="47.037867978215218" lon="16.171107972040772">
        <ele>271.70999999999998</ele>
        <time>2015-04-09T12:14:21Z</time>
      </trkpt>
      <trkpt lat="47.037852974608541" lon="16.171089028939605">
        <ele>271.230000000000018</ele>
        <time>2015-04-09T12:14:22Z</time>
      </trkpt>
      <trkpt lat="47.037834031507373" lon="16.171059021726251">
        <ele>271.70999999999998</ele>
        <time>2015-04-09T12:14:23Z</time>
      </trkpt>
      <trkpt lat="47.037810981273651" lon="16.171025997027755">
        <ele>271.230000000000018</ele>
        <time>2015-04-09T12:14:24Z</time>
      </trkpt>
      <trkpt lat="47.037784997373819" lon="16.170981992036104">
        <ele>270.75</ele>
        <time>2015-04-09T12:14:25Z</time>
      </trkpt>
      <trkpt lat="47.037753984332085" lon="16.17092901840806">
        <ele>270.75</ele>
        <time>2015-04-09T12:14:26Z</time>
      </trkpt>
      <trkpt lat="47.037289040163159" lon="16.169957974925637">
        <ele>271.230000000000018</ele>
        <time>2015-04-09T12:14:43Z</time>
      </trkpt>
      <trkpt lat="47.037186026573181" lon="16.169781032949686">
        <ele>272.189999999999998</ele>
        <time>2015-04-09T12:14:49Z</time>
      </trkpt>
      <trkpt lat="47.037166999652982" lon="16.169755971059203">
        <ele>272.189999999999998</ele>
        <time>2015-04-09T12:14:50Z</time>
      </trkpt>
      <trkpt lat="47.037150990217924" lon="16.169730992987752">
        <ele>272.670000000000016</ele>
        <time>2015-04-09T12:14:51Z</time>
      </trkpt>
      <trkpt lat="47.037131963297725" lon="16.169710038229823">
        <ele>273.149999999999977</ele>
        <time>2015-04-09T12:14:52Z</time>
      </trkpt>
      <trkpt lat="47.037113020196557" lon="16.169688999652863">
        <ele>273.149999999999977</ele>
        <time>2015-04-09T12:14:53Z</time>
      </trkpt>
      <trkpt lat="47.037093993276358" lon="16.169664021581411">
        <ele>274.110000000000014</ele>
        <time>2015-04-09T12:14:54Z</time>
      </trkpt>
      <trkpt lat="47.036953009665012" lon="16.16955597884953">
        <ele>275.560000000000002</ele>
        <time>2015-04-09T12:15:01Z</time>
      </trkpt>
      <trkpt lat="47.036715969443321" lon="16.169696962460876">
        <ele>277.480000000000018</ele>
        <time>2015-04-09T12:15:12Z</time>
      </trkpt>
      <trkpt lat="47.036689985543489" lon="16.169743984937668">
        <ele>277.480000000000018</ele>
        <time>2015-04-09T12:15:14Z</time>
      </trkpt>
      <trkpt lat="47.036471972241998" lon="16.170139024034142">
        <ele>277.480000000000018</ele>
        <time>2015-04-09T12:15:27Z</time>
      </trkpt>
      <trkpt lat="47.036082968115807" lon="16.170740006491542">
        <ele>277</ele>
        <time>2015-04-09T12:15:42Z</time>
      </trkpt>
      <trkpt lat="47.035621963441372" lon="16.171459006145597">
        <ele>275.560000000000002</ele>
        <time>2015-04-09T12:15:56Z</time>
      </trkpt>
      <trkpt lat="47.035542000085115" lon="16.171557996422052">
        <ele>275.069999999999993</ele>
        <time>2015-04-09T12:15:58Z</time>
      </trkpt>
      <trkpt lat="47.034897012636065" lon="16.172020006924868">
        <ele>272.670000000000016</ele>
        <time>2015-04-09T12:16:12Z</time>
      </trkpt>
      <trkpt lat="47.034385967999697" lon="16.172194015234709">
        <ele>271.230000000000018</ele>
        <time>2015-04-09T12:16:22Z</time>
      </trkpt>
      <trkpt lat="47.034336011856794" lon="16.172209018841386">
        <ele>271.230000000000018</ele>
        <time>2015-04-09T12:16:23Z</time>
      </trkpt>
      <trkpt lat="47.033905014395714" lon="16.172295017167926">
        <ele>270.75</ele>
        <time>2015-04-09T12:16:31Z</time>
      </trkpt>
      <trkpt lat="47.033070009201765" lon="16.172483023256063">
        <ele>269.79000000000002</ele>
        <time>2015-04-09T12:16:46Z</time>
      </trkpt>
      <trkpt lat="47.032386967912316" lon="16.172668011859059">
        <ele>269.310000000000002</ele>
        <time>2015-04-09T12:17:02Z</time>
      </trkpt>
      <trkpt lat="47.032352015376091" lon="16.172704976052046">
        <ele>269.310000000000002</ele>
        <time>2015-04-09T12:17:03Z</time>
      </trkpt>
      <trkpt lat="47.032066024839878" lon="16.172985015437007">
        <ele>267.860000000000014</ele>
        <time>2015-04-09T12:17:10Z</time>
      </trkpt>
      <trkpt lat="47.032024031504989" lon="16.173022985458374">
        <ele>267.379999999999995</ele>
        <time>2015-04-09T12:17:11Z</time>
      </trkpt>
      <trkpt lat="47.031738040968776" lon="16.173243010416627">
        <ele>266.899999999999977</ele>
        <time>2015-04-09T12:17:17Z</time>
      </trkpt>
      <trkpt lat="47.031024992465973" lon="16.173440990969539">
        <ele>266.420000000000016</ele>
        <time>2015-04-09T12:17:31Z</time>
      </trkpt>
      <trkpt lat="47.030391991138458" lon="16.173491030931473">
        <ele>265.939999999999998</ele>
        <time>2015-04-09T12:17:44Z</time>
      </trkpt>
      <trkpt lat="47.030185963958502" lon="16.173536041751504">
        <ele>265.939999999999998</ele>
        <time>2015-04-09T12:17:48Z</time>
      </trkpt>
      <trkpt lat="47.030098037794232" lon="16.173568982630968">
        <ele>265.939999999999998</ele>
        <time>2015-04-09T12:17:50Z</time>
      </trkpt>
      <trkpt lat="47.030055960640311" lon="16.173583986237645">
        <ele>266.420000000000016</ele>
        <time>2015-04-09T12:17:51Z</time>
      </trkpt>
      <trkpt lat="47.030017990618944" lon="16.173605024814606">
        <ele>266.899999999999977</ele>
        <time>2015-04-09T12:17:52Z</time>
      </trkpt>
      <trkpt lat="47.029902990907431" lon="16.17368096485734">
        <ele>266.420000000000016</ele>
        <time>2015-04-09T12:17:55Z</time>
      </trkpt>
      <trkpt lat="47.029609959572554" lon="16.173920016735792">
        <ele>265.939999999999998</ele>
        <time>2015-04-09T12:18:06Z</time>
      </trkpt>
      <trkpt lat="47.02932002954185" lon="16.174124032258987">
        <ele>265.939999999999998</ele>
        <time>2015-04-09T12:18:18Z</time>
      </trkpt>
      <trkpt lat="47.028953991830349" lon="16.17438898421824">
        <ele>267.379999999999995</ele>
        <time>2015-04-09T12:18:29Z</time>
      </trkpt>
      <trkpt lat="47.0285489782691" lon="16.17466701194644">
        <ele>266.899999999999977</ele>
        <time>2015-04-09T12:18:41Z</time>
      </trkpt>
      <trkpt lat="47.028171960264444" lon="16.174937998875976">
        <ele>265.45999999999998</ele>
        <time>2015-04-09T12:18:50Z</time>
      </trkpt>
      <trkpt lat="47.027961993589997" lon="16.175085017457604">
        <ele>264.5</ele>
        <time>2015-04-09T12:18:54Z</time>
      </trkpt>
      <trkpt lat="47.027725037187338" lon="16.175198005512357">
        <ele>263.060000000000002</ele>
        <time>2015-04-09T12:18:58Z</time>
      </trkpt>
      <trkpt lat="47.027676003053784" lon="16.175233963876963">
        <ele>263.060000000000002</ele>
        <time>2015-04-09T12:18:59Z</time>
      </trkpt>
      <trkpt lat="47.02762202359736" lon="16.175263971090317">
        <ele>263.54000000000002</ele>
        <time>2015-04-09T12:19:00Z</time>
      </trkpt>
      <trkpt lat="47.026718035340309" lon="16.175644006580114">
        <ele>262.579999999999984</ele>
        <time>2015-04-09T12:19:14Z</time>
      </trkpt>
      <trkpt lat="47.026072964072227" lon="16.175824971869588">
        <ele>261.620000000000005</ele>
        <time>2015-04-09T12:19:24Z</time>
      </trkpt>
      <trkpt lat="47.025406016036868" lon="16.176097970455885">
        <ele>260.649999999999977</ele>
        <time>2015-04-09T12:19:34Z</time>
      </trkpt>
      <trkpt lat="47.02508901245892" lon="16.176127977669239">
        <ele>259.689999999999998</ele>
        <time>2015-04-09T12:19:39Z</time>
      </trkpt>
      <trkpt lat="47.025023968890309" lon="16.176116997376084">
        <ele>259.689999999999998</ele>
        <time>2015-04-09T12:19:40Z</time>
      </trkpt>
      <trkpt lat="47.024963032454252" lon="16.176095958799124">
        <ele>259.689999999999998</ele>
        <time>2015-04-09T12:19:41Z</time>
      </trkpt>
      <trkpt lat="47.024342017248273" lon="16.175779039040208">
        <ele>261.620000000000005</ele>
        <time>2015-04-09T12:19:53Z</time>
      </trkpt>
      <trkpt lat="47.023944966495037" lon="16.175609976053238">
        <ele>260.649999999999977</ele>
        <time>2015-04-09T12:20:02Z</time>
      </trkpt>
      <trkpt lat="47.02373499982059" lon="16.175466980785131">
        <ele>262.100000000000023</ele>
        <time>2015-04-09T12:20:07Z</time>
      </trkpt>
      <trkpt lat="47.023697029799223" lon="16.175439991056919">
        <ele>261.620000000000005</ele>
        <time>2015-04-09T12:20:08Z</time>
      </trkpt>
      <trkpt lat="47.023651013150811" lon="16.175413001328707">
        <ele>261.620000000000005</ele>
        <time>2015-04-09T12:20:09Z</time>
      </trkpt>
      <trkpt lat="47.023353958502412" lon="16.175219966098666">
        <ele>262.100000000000023</ele>
        <time>2015-04-09T12:20:16Z</time>
      </trkpt>
      <trkpt lat="47.023148015141487" lon="16.175116030499339">
        <ele>262.100000000000023</ele>
        <time>2015-04-09T12:20:21Z</time>
      </trkpt>
      <trkpt lat="47.023101998493075" lon="16.175094991922379">
        <ele>262.579999999999984</ele>
        <time>2015-04-09T12:20:22Z</time>
      </trkpt>
      <trkpt lat="47.022732021287084" lon="16.174935987219214">
        <ele>263.54000000000002</ele>
        <time>2015-04-09T12:20:33Z</time>
      </trkpt>
      <trkpt lat="47.022609980776906" lon="16.174893993884325">
        <ele>263.060000000000002</ele>
        <time>2015-04-09T12:20:36Z</time>
      </trkpt>
      <trkpt lat="47.022572010755539" lon="16.174878990277648">
        <ele>263.060000000000002</ele>
        <time>2015-04-09T12:20:37Z</time>
      </trkpt>
      <trkpt lat="47.022533034905791" lon="16.174865998327732">
        <ele>263.54000000000002</ele>
        <time>2015-04-09T12:20:38Z</time>
      </trkpt>
      <trkpt lat="47.022494981065392" lon="16.174858035519719">
        <ele>263.54000000000002</ele>
        <time>2015-04-09T12:20:39Z</time>
      </trkpt>
      <trkpt lat="47.022461034357548" lon="16.174854012206197">
        <ele>264.019999999999982</ele>
        <time>2015-04-09T12:20:40Z</time>
      </trkpt>
      <trkpt lat="47.022430021315813" lon="16.174849988892674">
        <ele>263.54000000000002</ele>
        <time>2015-04-09T12:20:41Z</time>
      </trkpt>
      <trkpt lat="47.022400014102459" lon="16.174844959750772">
        <ele>264.019999999999982</ele>
        <time>2015-04-09T12:20:42Z</time>
      </trkpt>
      <trkpt lat="47.022365983575583" lon="16.174836996942759">
        <ele>263.54000000000002</ele>
        <time>2015-04-09T12:20:43Z</time>
      </trkpt>
      <trkpt lat="47.021975973621011" lon="16.174817970022559">
        <ele>264.019999999999982</ele>
        <time>2015-04-09T12:20:55Z</time>
      </trkpt>
      <trkpt lat="47.021777993068099" lon="16.174852000549436">
        <ele>262.579999999999984</ele>
        <time>2015-04-09T12:21:00Z</time>
      </trkpt>
      <trkpt lat="47.021686965599656" lon="16.174856023862958">
        <ele>261.620000000000005</ele>
        <time>2015-04-09T12:21:02Z</time>
      </trkpt>
      <trkpt lat="47.021637009456754" lon="16.174856023862958">
        <ele>261.620000000000005</ele>
        <time>2015-04-09T12:21:03Z</time>
      </trkpt>
      <trkpt lat="47.02109101228416" lon="16.174832973629236">
        <ele>260.170000000000016</ele>
        <time>2015-04-09T12:21:13Z</time>
      </trkpt>
      <trkpt lat="47.020579967647791" lon="16.17468997836113">
        <ele>260.170000000000016</ele>
        <time>2015-04-09T12:21:22Z</time>
      </trkpt>
      <trkpt lat="47.019835989922285" lon="16.174718979746103">
        <ele>259.20999999999998</ele>
        <time>2015-04-09T12:21:34Z</time>
      </trkpt>
      <trkpt lat="47.019783016294241" lon="16.174725014716387">
        <ele>259.20999999999998</ele>
        <time>2015-04-09T12:21:35Z</time>
      </trkpt>
      <trkpt lat="47.019596016034484" lon="16.174762984737754">
        <ele>259.20999999999998</ele>
        <time>2015-04-09T12:21:38Z</time>
      </trkpt>
      <trkpt lat="47.019534995779395" lon="16.17477597668767">
        <ele>259.20999999999998</ele>
        <time>2015-04-09T12:21:39Z</time>
      </trkpt>
      <trkpt lat="47.019066028296947" lon="16.174849988892674">
        <ele>259.20999999999998</ele>
        <time>2015-04-09T12:21:48Z</time>
      </trkpt>
      <trkpt lat="47.018844997510314" lon="16.174828028306365">
        <ele>257.29000000000002</ele>
        <time>2015-04-09T12:21:52Z</time>
      </trkpt>
      <trkpt lat="47.018257007002831" lon="16.174602974206209">
        <ele>258.730000000000018</ele>
        <time>2015-04-09T12:22:02Z</time>
      </trkpt>
      <trkpt lat="47.017902033403516" lon="16.174516975879669">
        <ele>261.620000000000005</ele>
        <time>2015-04-09T12:22:13Z</time>
      </trkpt>
      <trkpt lat="47.017696006223559" lon="16.174499960616231">
        <ele>263.060000000000002</ele>
        <time>2015-04-09T12:22:24Z</time>
      </trkpt>
      <trkpt lat="47.017696006223559" lon="16.174489986151457">
        <ele>262.100000000000023</ele>
        <time>2015-04-09T12:22:43Z</time>
      </trkpt>
      <trkpt lat="47.017688965424895" lon="16.174502978101373">
        <ele>262.579999999999984</ele>
        <time>2015-04-09T12:23:09Z</time>
      </trkpt>
      <trkpt lat="47.01767697930336" lon="16.174509013071656">
        <ele>262.579999999999984</ele>
        <time>2015-04-09T12:23:10Z</time>
      </trkpt>
      <trkpt lat="47.017661975696683" lon="16.174511024728417">
        <ele>262.579999999999984</ele>
        <time>2015-04-09T12:23:11Z</time>
      </trkpt>
      <trkpt lat="47.017239024862647" lon="16.174511024728417">
        <ele>262.579999999999984</ele>
        <time>2015-04-09T12:23:24Z</time>
      </trkpt>
      <trkpt lat="47.017109021544456" lon="16.174511024728417">
        <ele>262.579999999999984</ele>
        <time>2015-04-09T12:23:27Z</time>
      </trkpt>
      <trkpt lat="47.017067028209567" lon="16.174507001414895">
        <ele>262.100000000000023</ele>
        <time>2015-04-09T12:23:28Z</time>
      </trkpt>
      <trkpt lat="47.017021011561155" lon="16.174500966444612">
        <ele>262.100000000000023</ele>
        <time>2015-04-09T12:23:29Z</time>
      </trkpt>
      <trkpt lat="47.016974994912744" lon="16.174489986151457">
        <ele>262.579999999999984</ele>
        <time>2015-04-09T12:23:30Z</time>
      </trkpt>
      <trkpt lat="47.016929984092712" lon="16.174480011686683">
        <ele>261.620000000000005</ele>
        <time>2015-04-09T12:23:31Z</time>
      </trkpt>
      <trkpt lat="47.016826970502734" lon="16.174456039443612">
        <ele>261.620000000000005</ele>
        <time>2015-04-09T12:23:33Z</time>
      </trkpt>
      <trkpt lat="47.016772991046309" lon="16.174440030008554">
        <ele>261.139999999999986</ele>
        <time>2015-04-09T12:23:34Z</time>
      </trkpt>
      <trkpt lat="47.016609041020274" lon="16.174390995875001">
        <ele>261.139999999999986</ele>
        <time>2015-04-09T12:23:37Z</time>
      </trkpt>
      <trkpt lat="47.016414999961853" lon="16.174373980611563">
        <ele>261.139999999999986</ele>
        <time>2015-04-09T12:23:41Z</time>
      </trkpt>
      <trkpt lat="47.016364959999919" lon="16.174368029460311">
        <ele>260.649999999999977</ele>
        <time>2015-04-09T12:23:42Z</time>
      </trkpt>
      <trkpt lat="47.016311986371875" lon="16.174364006146789">
        <ele>261.139999999999986</ele>
        <time>2015-04-09T12:23:43Z</time>
      </trkpt>
      <trkpt lat="47.016029013320804" lon="16.174322012811899">
        <ele>261.139999999999986</ele>
        <time>2015-04-09T12:23:48Z</time>
      </trkpt>
      <trkpt lat="47.015765989199281" lon="16.174199972301722">
        <ele>260.649999999999977</ele>
        <time>2015-04-09T12:23:53Z</time>
      </trkpt>
      <trkpt lat="47.015433982014656" lon="16.173844998702407">
        <ele>260.649999999999977</ele>
        <time>2015-04-09T12:24:03Z</time>
      </trkpt>
      <trkpt lat="47.015277994796634" lon="16.173440990969539">
        <ele>258.25</ele>
        <time>2015-04-09T12:24:10Z</time>
      </trkpt>
      <trkpt lat="47.015228038653731" lon="16.173386005684733">
        <ele>257.769999999999982</ele>
        <time>2015-04-09T12:24:11Z</time>
      </trkpt>
      <trkpt lat="47.015171041712165" lon="16.173339989036322">
        <ele>257.769999999999982</ele>
        <time>2015-04-09T12:24:12Z</time>
      </trkpt>
      <trkpt lat="47.015121001750231" lon="16.173308975994587">
        <ele>257.769999999999982</ele>
        <time>2015-04-09T12:24:13Z</time>
      </trkpt>
      <trkpt lat="47.015071967616677" lon="16.173280980437994">
        <ele>257.29000000000002</ele>
        <time>2015-04-09T12:24:14Z</time>
      </trkpt>
      <trkpt lat="47.015022011473775" lon="16.173258014023304">
        <ele>257.29000000000002</ele>
        <time>2015-04-09T12:24:15Z</time>
      </trkpt>
      <trkpt lat="47.014778014272451" lon="16.17316204123199">
        <ele>255.370000000000005</ele>
        <time>2015-04-09T12:24:19Z</time>
      </trkpt>
      <trkpt lat="47.014209972694516" lon="16.172956014052033">
        <ele>252.960000000000008</ele>
        <time>2015-04-09T12:24:30Z</time>
      </trkpt>
      <trkpt lat="47.014197986572981" lon="16.172945033758879">
        <ele>253.439999999999998</ele>
        <time>2015-04-09T12:24:43Z</time>
      </trkpt>
      <trkpt lat="47.014197986572981" lon="16.172941010445356">
        <ele>253.439999999999998</ele>
        <time>2015-04-09T12:25:13Z</time>
      </trkpt>
      <trkpt lat="47.014178959652781" lon="16.172936987131834">
        <ele>253.439999999999998</ele>
        <time>2015-04-09T12:25:35Z</time>
      </trkpt>
      <trkpt lat="47.014167979359627" lon="16.172932041808963">
        <ele>253.439999999999998</ele>
        <time>2015-04-09T12:25:36Z</time>
      </trkpt>
      <trkpt lat="47.01415297575295" lon="16.172919971868396">
        <ele>253.439999999999998</ele>
        <time>2015-04-09T12:25:37Z</time>
      </trkpt>
      <trkpt lat="47.014136966317892" lon="16.172904968261719">
        <ele>253.439999999999998</ele>
        <time>2015-04-09T12:25:38Z</time>
      </trkpt>
      <trkpt lat="47.014118023216724" lon="16.172894993796945">
        <ele>253.439999999999998</ele>
        <time>2015-04-09T12:25:39Z</time>
      </trkpt>
      <trkpt lat="47.014103019610047" lon="16.172888036817312">
        <ele>253.439999999999998</ele>
        <time>2015-04-09T12:25:40Z</time>
      </trkpt>
      <trkpt lat="47.014083992689848" lon="16.172886025160551">
        <ele>252.960000000000008</ele>
        <time>2015-04-09T12:25:41Z</time>
      </trkpt>
      <trkpt lat="47.014057002961636" lon="16.172891976311803">
        <ele>252.960000000000008</ele>
        <time>2015-04-09T12:25:42Z</time>
      </trkpt>
      <trkpt lat="47.014026995748281" lon="16.172911003232002">
        <ele>252.47999999999999</ele>
        <time>2015-04-09T12:25:43Z</time>
      </trkpt>
      <trkpt lat="47.013995982706547" lon="16.172948973253369">
        <ele>252.47999999999999</ele>
        <time>2015-04-09T12:25:44Z</time>
      </trkpt>
      <trkpt lat="47.013973016291857" lon="16.172997001558542">
        <ele>252.47999999999999</ele>
        <time>2015-04-09T12:25:45Z</time>
      </trkpt>
      <trkpt lat="47.013962035998702" lon="16.173051986843348">
        <ele>252</ele>
        <time>2015-04-09T12:25:46Z</time>
      </trkpt>
      <trkpt lat="47.013949966058135" lon="16.173113007098436">
        <ele>252.47999999999999</ele>
        <time>2015-04-09T12:25:47Z</time>
      </trkpt>
      <trkpt lat="47.013931022956967" lon="16.173236975446343">
        <ele>252</ele>
        <time>2015-04-09T12:25:49Z</time>
      </trkpt>
      <trkpt lat="47.01391601935029" lon="16.173295984044671">
        <ele>252.960000000000008</ele>
        <time>2015-04-09T12:25:50Z</time>
      </trkpt>
      <trkpt lat="47.013901015743613" lon="16.173352980986238">
        <ele>252.960000000000008</ele>
        <time>2015-04-09T12:25:51Z</time>
      </trkpt>
      <trkpt lat="47.013702029362321" lon="16.174120008945465">
        <ele>252.47999999999999</ele>
        <time>2015-04-09T12:26:03Z</time>
      </trkpt>
      <trkpt lat="47.01348502188921" lon="16.175089040771127">
        <ele>251.52000000000001</ele>
        <time>2015-04-09T12:26:16Z</time>
      </trkpt>
      <trkpt lat="47.013278994709253" lon="16.175945000723004">
        <ele>250.560000000000002</ele>
        <time>2015-04-09T12:26:31Z</time>
      </trkpt>
      <trkpt lat="47.013252004981041" lon="16.176067041233182">
        <ele>250.080000000000013</ele>
        <time>2015-04-09T12:26:33Z</time>
      </trkpt>
      <trkpt lat="47.013226021081209" lon="16.176121020689607">
        <ele>250.560000000000002</ele>
        <time>2015-04-09T12:26:34Z</time>
      </trkpt>
      <trkpt lat="47.01318696141243" lon="16.176154967397451">
        <ele>250.560000000000002</ele>
        <time>2015-04-09T12:26:35Z</time>
      </trkpt>
      <trkpt lat="47.013138011097908" lon="16.176165025681257">
        <ele>249.120000000000005</ele>
        <time>2015-04-09T12:26:36Z</time>
      </trkpt>
      <trkpt lat="47.013087971135974" lon="16.176165025681257">
        <ele>249.120000000000005</ele>
        <time>2015-04-09T12:26:37Z</time>
      </trkpt>
      <trkpt lat="47.013042038306594" lon="16.176156979054213">
        <ele>249.120000000000005</ele>
        <time>2015-04-09T12:26:38Z</time>
      </trkpt>
      <trkpt lat="47.012847997248173" lon="16.17608598433435">
        <ele>248.639999999999986</ele>
        <time>2015-04-09T12:26:42Z</time>
      </trkpt>
      <trkpt lat="47.012611040845513" lon="16.176033010706306">
        <ele>249.599999999999994</ele>
        <time>2015-04-09T12:26:47Z</time>
      </trkpt>
      <trkpt lat="47.012530993670225" lon="16.176038961857557">
        <ele>250.080000000000013</ele>
        <time>2015-04-09T12:26:49Z</time>
      </trkpt>
      <trkpt lat="47.012530993670225" lon="16.176254041492939">
        <ele>249.599999999999994</ele>
        <time>2015-04-09T12:26:54Z</time>
      </trkpt>
      <trkpt lat="47.012596037238836" lon="16.176383960992098">
        <ele>249.599999999999994</ele>
        <time>2015-04-09T12:26:57Z</time>
      </trkpt>
      <trkpt lat="47.01252001337707" lon="16.176697025075555">
        <ele>251.52000000000001</ele>
        <time>2015-04-09T12:27:05Z</time>
      </trkpt>
      <trkpt lat="47.012599976733327" lon="16.176745975390077">
        <ele>251.039999999999992</ele>
        <time>2015-04-09T12:27:08Z</time>
      </trkpt>
      <trkpt lat="47.012836011126637" lon="16.176862986758351">
        <ele>251.52000000000001</ele>
        <time>2015-04-09T12:27:16Z</time>
      </trkpt>
      <trkpt lat="47.013042038306594" lon="16.177113018929958">
        <ele>253.439999999999998</ele>
        <time>2015-04-09T12:27:27Z</time>
      </trkpt>
      <trkpt lat="47.013100041076541" lon="16.177217038348317">
        <ele>253.930000000000007</ele>
        <time>2015-04-09T12:27:32Z</time>
      </trkpt>
      <trkpt lat="47.012936007231474" lon="16.177275041118264">
        <ele>254.409999999999997</ele>
        <time>2015-04-09T12:36:18Z</time>
      </trkpt>
      <trkpt lat="47.012897031381726" lon="16.17748299613595">
        <ele>255.370000000000005</ele>
        <time>2015-04-09T12:36:21Z</time>
      </trkpt>
      <trkpt lat="47.012894013896585" lon="16.177542004734278">
        <ele>253.930000000000007</ele>
        <time>2015-04-09T12:36:22Z</time>
      </trkpt>
      <trkpt lat="47.012889990583062" lon="16.177594978362322">
        <ele>255.849999999999994</ele>
        <time>2015-04-09T12:36:23Z</time>
      </trkpt>
      <trkpt lat="47.012889990583062" lon="16.177643006667495">
        <ele>256.329999999999984</ele>
        <time>2015-04-09T12:36:24Z</time>
      </trkpt>
      <trkpt lat="47.012897031381726" lon="16.177689023315907">
        <ele>254.889999999999986</ele>
        <time>2015-04-09T12:36:25Z</time>
      </trkpt>
      <trkpt lat="47.012832993641496" lon="16.178295034915209">
        <ele>256.329999999999984</ele>
        <time>2015-04-09T12:36:37Z</time>
      </trkpt>
      <trkpt lat="47.012729980051517" lon="16.178889982402325">
        <ele>257.769999999999982</ele>
        <time>2015-04-09T12:36:49Z</time>
      </trkpt>
      <trkpt lat="47.012641970068216" lon="16.179327014833689">
        <ele>257.769999999999982</ele>
        <time>2015-04-09T12:36:57Z</time>
      </trkpt>
      <trkpt lat="47.012443989515305" lon="16.180105023086071">
        <ele>258.25</ele>
        <time>2015-04-09T12:37:12Z</time>
      </trkpt>
      <trkpt lat="47.012309962883592" lon="16.180550018325448">
        <ele>256.810000000000002</ele>
        <time>2015-04-09T12:37:20Z</time>
      </trkpt>
      <trkpt lat="47.012001005932689" lon="16.181664979085326">
        <ele>255.849999999999994</ele>
        <time>2015-04-09T12:37:36Z</time>
      </trkpt>
      <trkpt lat="47.011829009279609" lon="16.182335028424859">
        <ele>257.769999999999982</ele>
        <time>2015-04-09T12:37:48Z</time>
      </trkpt>
      <trkpt lat="47.011737981811166" lon="16.182786980643868">
        <ele>257.769999999999982</ele>
        <time>2015-04-09T12:38:00Z</time>
      </trkpt>
      <trkpt lat="47.011622982099652" lon="16.183301964774728">
        <ele>256.810000000000002</ele>
        <time>2015-04-09T12:38:14Z</time>
      </trkpt>
      <trkpt lat="47.011589035391808" lon="16.183525007218122">
        <ele>257.769999999999982</ele>
        <time>2015-04-09T12:38:18Z</time>
      </trkpt>
      <trkpt lat="47.011368004605174" lon="16.184699982404709">
        <ele>256.810000000000002</ele>
        <time>2015-04-09T12:38:35Z</time>
      </trkpt>
      <trkpt lat="47.011196007952094" lon="16.185612017288804">
        <ele>258.25</ele>
        <time>2015-04-09T12:38:51Z</time>
      </trkpt>
      <trkpt lat="47.011191984638572" lon="16.185669014230371">
        <ele>257.769999999999982</ele>
        <time>2015-04-09T12:38:52Z</time>
      </trkpt>
      <trkpt lat="47.011181004345417" lon="16.185728022828698">
        <ele>257.769999999999982</ele>
        <time>2015-04-09T12:38:53Z</time>
      </trkpt>
      <trkpt lat="47.01116600073874" lon="16.185787031427026">
        <ele>257.769999999999982</ele>
        <time>2015-04-09T12:38:54Z</time>
      </trkpt>
      <trkpt lat="47.011149991303682" lon="16.185846040025353">
        <ele>257.769999999999982</ele>
        <time>2015-04-09T12:38:55Z</time>
      </trkpt>
      <trkpt lat="47.011130964383483" lon="16.185903958976269">
        <ele>257.769999999999982</ele>
        <time>2015-04-09T12:38:56Z</time>
      </trkpt>
      <trkpt lat="47.010967014357448" lon="16.186624970287085">
        <ele>254.409999999999997</ele>
        <time>2015-04-09T12:39:05Z</time>
      </trkpt>
      <trkpt lat="47.010807003825903" lon="16.187284039333463">
        <ele>251.039999999999992</ele>
        <time>2015-04-09T12:39:11Z</time>
      </trkpt>
      <trkpt lat="47.010780014097691" lon="16.18738898076117">
        <ele>251.039999999999992</ele>
        <time>2015-04-09T12:39:12Z</time>
      </trkpt>
      <trkpt lat="47.010620003566146" lon="16.188046960160136">
        <ele>250.560000000000002</ele>
        <time>2015-04-09T12:39:19Z</time>
      </trkpt>
      <trkpt lat="47.010612040758133" lon="16.18824603036046">
        <ele>252.47999999999999</ele>
        <time>2015-04-09T12:39:22Z</time>
      </trkpt>
      <trkpt lat="47.010344993323088" lon="16.189003000035882">
        <ele>252.47999999999999</ele>
        <time>2015-04-09T12:39:36Z</time>
      </trkpt>
      <trkpt lat="47.010006029158831" lon="16.189924003556371">
        <ele>251.52000000000001</ele>
        <time>2015-04-09T12:39:52Z</time>
      </trkpt>
      <trkpt lat="47.009681984782219" lon="16.190657000988722">
        <ele>250.080000000000013</ele>
        <time>2015-04-09T12:40:05Z</time>
      </trkpt>
      <trkpt lat="47.009654995054007" lon="16.190707962960005">
        <ele>250.080000000000013</ele>
        <time>2015-04-09T12:40:06Z</time>
      </trkpt>
      <trkpt lat="47.009342014789581" lon="16.191245997324586">
        <ele>249.120000000000005</ele>
        <time>2015-04-09T12:40:18Z</time>
      </trkpt>
      <trkpt lat="47.009056024253368" lon="16.191999027505517">
        <ele>248.639999999999986</ele>
        <time>2015-04-09T12:40:31Z</time>
      </trkpt>
      <trkpt lat="47.008906994014978" lon="16.192472018301487">
        <ele>248.159999999999997</ele>
        <time>2015-04-09T12:40:38Z</time>
      </trkpt>
      <trkpt lat="47.008590996265411" lon="16.193605000153184">
        <ele>248.159999999999997</ele>
        <time>2015-04-09T12:40:55Z</time>
      </trkpt>
      <trkpt lat="47.008346999064088" lon="16.194463977590203">
        <ele>247.680000000000007</ele>
        <time>2015-04-09T12:41:08Z</time>
      </trkpt>
      <trkpt lat="47.008315986022353" lon="16.194513011723757">
        <ele>247.680000000000007</ele>
        <time>2015-04-09T12:41:09Z</time>
      </trkpt>
      <trkpt lat="47.008285978808999" lon="16.194559028372169">
        <ele>247.199999999999989</ele>
        <time>2015-04-09T12:41:10Z</time>
      </trkpt>
      <trkpt lat="47.007937962189317" lon="16.19494803249836">
        <ele>247.199999999999989</ele>
        <time>2015-04-09T12:41:20Z</time>
      </trkpt>
      <trkpt lat="47.007919019088149" lon="16.195000000298023">
        <ele>247.199999999999989</ele>
        <time>2015-04-09T12:41:21Z</time>
      </trkpt>
      <trkpt lat="47.007908038794994" lon="16.19505699723959">
        <ele>247.199999999999989</ele>
        <time>2015-04-09T12:41:22Z</time>
      </trkpt>
      <trkpt lat="47.007911978289485" lon="16.195116005837917">
        <ele>246.719999999999999</ele>
        <time>2015-04-09T12:41:23Z</time>
      </trkpt>
      <trkpt lat="47.00792295858264" lon="16.195170991122723">
        <ele>247.199999999999989</ele>
        <time>2015-04-09T12:41:24Z</time>
      </trkpt>
      <trkpt lat="47.007937962189317" lon="16.195222958922386">
        <ele>247.199999999999989</ele>
        <time>2015-04-09T12:41:25Z</time>
      </trkpt>
      <trkpt lat="47.008101996034384" lon="16.195662003010511">
        <ele>250.560000000000002</ele>
        <time>2015-04-09T12:41:36Z</time>
      </trkpt>
      <trkpt lat="47.008018009364605" lon="16.196051007136703">
        <ele>250.560000000000002</ele>
        <time>2015-04-09T12:41:46Z</time>
      </trkpt>
      <trkpt lat="47.007998982444406" lon="16.196098029613495">
        <ele>250.080000000000013</ele>
        <time>2015-04-09T12:41:47Z</time>
      </trkpt>
      <trkpt lat="47.007827991619706" lon="16.196526009589434">
        <ele>250.560000000000002</ele>
        <time>2015-04-09T12:41:55Z</time>
      </trkpt>
      <trkpt lat="47.007522974163294" lon="16.197132021188736">
        <ele>250.560000000000002</ele>
        <time>2015-04-09T12:42:06Z</time>
      </trkpt>
      <trkpt lat="47.006831970065832" lon="16.198134999722242">
        <ele>250.080000000000013</ele>
        <time>2015-04-09T12:42:25Z</time>
      </trkpt>
      <trkpt lat="47.00618002563715" lon="16.199338976293802">
        <ele>250.080000000000013</ele>
        <time>2015-04-09T12:42:44Z</time>
      </trkpt>
      <trkpt lat="47.005725977942348" lon="16.20047396980226">
        <ele>249.120000000000005</ele>
        <time>2015-04-09T12:43:01Z</time>
      </trkpt>
      <trkpt lat="47.0054089743644" lon="16.201365971937776">
        <ele>247.199999999999989</ele>
        <time>2015-04-09T12:43:14Z</time>
      </trkpt>
      <trkpt lat="47.005302021279931" lon="16.201766962185502">
        <ele>248.639999999999986</ele>
        <time>2015-04-09T12:43:20Z</time>
      </trkpt>
      <trkpt lat="47.005112003535032" lon="16.202327962964773">
        <ele>248.639999999999986</ele>
        <time>2015-04-09T12:43:32Z</time>
      </trkpt>
      <trkpt lat="47.005070010200143" lon="16.202816041186452">
        <ele>248.639999999999986</ele>
        <time>2015-04-09T12:43:42Z</time>
      </trkpt>
      <trkpt lat="47.005004966631532" lon="16.203023996204138">
        <ele>248.639999999999986</ele>
        <time>2015-04-09T12:43:46Z</time>
      </trkpt>
      <trkpt lat="47.004672959446907" lon="16.203982969745994">
        <ele>248.639999999999986</ele>
        <time>2015-04-09T12:44:03Z</time>
      </trkpt>
      <trkpt lat="47.004600958898664" lon="16.204200983047485">
        <ele>248.639999999999986</ele>
        <time>2015-04-09T12:44:07Z</time>
      </trkpt>
      <trkpt lat="47.004581009969115" lon="16.204255968332291">
        <ele>249.120000000000005</ele>
        <time>2015-04-09T12:44:08Z</time>
      </trkpt>
      <trkpt lat="47.004374982789159" lon="16.204910008236766">
        <ele>249.120000000000005</ele>
        <time>2015-04-09T12:44:23Z</time>
      </trkpt>
      <trkpt lat="47.00448595918715" lon="16.204885030165315">
        <ele>250.080000000000013</ele>
        <time>2015-04-09T12:44:34Z</time>
      </trkpt>
      <trkpt lat="47.004535999149084" lon="16.204877989366651">
        <ele>249.599999999999994</ele>
        <time>2015-04-09T12:44:35Z</time>
      </trkpt>
      <trkpt lat="47.004581009969115" lon="16.204864997416735">
        <ele>249.599999999999994</ele>
        <time>2015-04-09T12:44:36Z</time>
      </trkpt>
      <trkpt lat="47.004627026617527" lon="16.204846976324916">
        <ele>249.599999999999994</ele>
        <time>2015-04-09T12:44:37Z</time>
      </trkpt>
      <trkpt lat="47.004669019952416" lon="16.204848987981677">
        <ele>250.080000000000013</ele>
        <time>2015-04-09T12:44:38Z</time>
      </trkpt>
      <trkpt lat="47.004700032994151" lon="16.204872038215399">
        <ele>250.080000000000013</ele>
        <time>2015-04-09T12:44:39Z</time>
      </trkpt>
      <trkpt lat="47.004718976095319" lon="16.204912019893527">
        <ele>249.599999999999994</ele>
        <time>2015-04-09T12:44:40Z</time>
      </trkpt>
      <trkpt lat="47.004726016893983" lon="16.204959964379668">
        <ele>249.599999999999994</ele>
        <time>2015-04-09T12:44:41Z</time>
      </trkpt>
      <trkpt lat="47.004726016893983" lon="16.204996006563306">
        <ele>249.599999999999994</ele>
        <time>2015-04-09T12:44:42Z</time>
      </trkpt>
      <trkpt lat="47.004718976095319" lon="16.205035988241434">
        <ele>249.599999999999994</ele>
        <time>2015-04-09T12:44:43Z</time>
      </trkpt>
      <trkpt lat="47.004379006102681" lon="16.205759011209011">
        <ele>249.599999999999994</ele>
        <time>2015-04-09T12:44:56Z</time>
      </trkpt>
      <trkpt lat="47.004348998889327" lon="16.2058200314641">
        <ele>249.599999999999994</ele>
        <time>2015-04-09T12:44:57Z</time>
      </trkpt>
      <trkpt lat="47.0038409717381" lon="16.20696097612381">
        <ele>249.599999999999994</ele>
        <time>2015-04-09T12:45:16Z</time>
      </trkpt>
      <trkpt lat="47.003731001168489" lon="16.207170020788908">
        <ele>250.560000000000002</ele>
        <time>2015-04-09T12:45:20Z</time>
      </trkpt>
      <trkpt lat="47.003315007314086" lon="16.208307025954127">
        <ele>251.52000000000001</ele>
        <time>2015-04-09T12:45:39Z</time>
      </trkpt>
      <trkpt lat="47.002990962937474" lon="16.209244038909674">
        <ele>252</ele>
        <time>2015-04-09T12:45:57Z</time>
      </trkpt>
      <trkpt lat="47.002773033455014" lon="16.209912998601794">
        <ele>249.599999999999994</ele>
        <time>2015-04-09T12:46:07Z</time>
      </trkpt>
      <trkpt lat="47.002574969083071" lon="16.210601991042495">
        <ele>247.199999999999989</ele>
        <time>2015-04-09T12:46:15Z</time>
      </trkpt>
      <trkpt lat="47.002219995483756" lon="16.212004031985998">
        <ele>246.719999999999999</ele>
        <time>2015-04-09T12:46:31Z</time>
      </trkpt>
      <trkpt lat="47.00218596495688" lon="16.212160019204021">
        <ele>246.719999999999999</ele>
        <time>2015-04-09T12:46:33Z</time>
      </trkpt>
      <trkpt lat="47.002178002148867" lon="16.212237970903516">
        <ele>247.199999999999989</ele>
        <time>2015-04-09T12:46:34Z</time>
      </trkpt>
      <trkpt lat="47.002173978835344" lon="16.212318018078804">
        <ele>247.199999999999989</ele>
        <time>2015-04-09T12:46:35Z</time>
      </trkpt>
      <trkpt lat="47.002170961350203" lon="16.212393036112189">
        <ele>247.199999999999989</ele>
        <time>2015-04-09T12:46:36Z</time>
      </trkpt>
      <trkpt lat="47.002158975228667" lon="16.212465036660433">
        <ele>246.719999999999999</ele>
        <time>2015-04-09T12:46:37Z</time>
      </trkpt>
      <trkpt lat="47.002147994935513" lon="16.212529996410012">
        <ele>247.680000000000007</ele>
        <time>2015-04-09T12:46:38Z</time>
      </trkpt>
      <trkpt lat="47.002131985500455" lon="16.212591016665101">
        <ele>247.680000000000007</ele>
        <time>2015-04-09T12:46:39Z</time>
      </trkpt>
      <trkpt lat="47.002112958580256" lon="16.212653964757919">
        <ele>247.680000000000007</ele>
        <time>2015-04-09T12:46:40Z</time>
      </trkpt>
      <trkpt lat="47.001986978575587" lon="16.21302000246942">
        <ele>248.159999999999997</ele>
        <time>2015-04-09T12:46:47Z</time>
      </trkpt>
      <trkpt lat="47.001739963889122" lon="16.213926002383232">
        <ele>248.639999999999986</ele>
        <time>2015-04-09T12:47:02Z</time>
      </trkpt>
      <trkpt lat="47.001384990289807" lon="16.214996036142111">
        <ele>248.159999999999997</ele>
        <time>2015-04-09T12:47:18Z</time>
      </trkpt>
      <trkpt lat="47.001235960051417" lon="16.215469026938081">
        <ele>248.639999999999986</ele>
        <time>2015-04-09T12:47:27Z</time>
      </trkpt>
      <trkpt lat="47.001202013343573" lon="16.215474978089333">
        <ele>248.159999999999997</ele>
        <time>2015-04-09T12:47:28Z</time>
      </trkpt>
      <trkpt lat="47.001060023903847" lon="16.215430973097682">
        <ele>247.680000000000007</ele>
        <time>2015-04-09T12:47:32Z</time>
      </trkpt>
      <trkpt lat="47.00102599337697" lon="16.215445976704359">
        <ele>247.199999999999989</ele>
        <time>2015-04-09T12:47:33Z</time>
      </trkpt>
      <trkpt lat="47.000995986163616" lon="16.21548998169601">
        <ele>247.199999999999989</ele>
        <time>2015-04-09T12:47:34Z</time>
      </trkpt>
      <trkpt lat="47.000973019748926" lon="16.215547984465957">
        <ele>247.199999999999989</ele>
        <time>2015-04-09T12:47:35Z</time>
      </trkpt>
      <trkpt lat="47.000949969515204" lon="16.215612022206187">
        <ele>246.719999999999999</ele>
        <time>2015-04-09T12:47:36Z</time>
      </trkpt>
      <trkpt lat="47.000434985384345" lon="16.21671499684453">
        <ele>245.75</ele>
        <time>2015-04-09T12:47:52Z</time>
      </trkpt>
      <trkpt lat="46.999920001253486" lon="16.217783018946648">
        <ele>243.830000000000013</ele>
        <time>2015-04-09T12:48:06Z</time>
      </trkpt>
      <trkpt lat="46.999385990202427" lon="16.21890602633357">
        <ele>243.349999999999994</ele>
        <time>2015-04-09T12:48:22Z</time>
      </trkpt>
      <trkpt lat="46.998920040205121" lon="16.219866005703807">
        <ele>242.389999999999986</ele>
        <time>2015-04-09T12:48:37Z</time>
      </trkpt>
      <trkpt lat="46.998824989423156" lon="16.220058035105467">
        <ele>242.389999999999986</ele>
        <time>2015-04-09T12:48:40Z</time>
      </trkpt>
      <trkpt lat="46.998398015275598" lon="16.220841994509101">
        <ele>242.870000000000005</ele>
        <time>2015-04-09T12:48:55Z</time>
      </trkpt>
      <trkpt lat="46.998046981170774" lon="16.221374999731779">
        <ele>241.430000000000007</ele>
        <time>2015-04-09T12:49:06Z</time>
      </trkpt>
      <trkpt lat="46.997977998107672" lon="16.221476001664996">
        <ele>241.430000000000007</ele>
        <time>2015-04-09T12:49:08Z</time>
      </trkpt>
      <trkpt lat="46.997443987056613" lon="16.222190978005528">
        <ele>240.949999999999989</ele>
        <time>2015-04-09T12:49:22Z</time>
      </trkpt>
      <trkpt lat="46.997371986508369" lon="16.222288040444255">
        <ele>240.949999999999989</ele>
        <time>2015-04-09T12:49:24Z</time>
      </trkpt>
      <trkpt lat="46.997337033972144" lon="16.222333973273635">
        <ele>240.949999999999989</ele>
        <time>2015-04-09T12:49:25Z</time>
      </trkpt>
      <trkpt lat="46.996902013197541" lon="16.223054984584451">
        <ele>239.990000000000009</ele>
        <time>2015-04-09T12:49:38Z</time>
      </trkpt>
      <trkpt lat="46.996737979352474" lon="16.22341699898243">
        <ele>239.990000000000009</ele>
        <time>2015-04-09T12:49:44Z</time>
      </trkpt>
      <trkpt lat="46.996722975745797" lon="16.223472990095615">
        <ele>239.509999999999991</ele>
        <time>2015-04-09T12:49:45Z</time>
      </trkpt>
      <trkpt lat="46.996716018766165" lon="16.223534010350704">
        <ele>239.990000000000009</ele>
        <time>2015-04-09T12:49:46Z</time>
      </trkpt>
      <trkpt lat="46.996551984921098" lon="16.223867023363709">
        <ele>240.469999999999999</ele>
        <time>2015-04-09T12:49:54Z</time>
      </trkpt>
      <trkpt lat="46.996478978544474" lon="16.223927959799767">
        <ele>239.990000000000009</ele>
        <time>2015-04-09T12:49:56Z</time>
      </trkpt>
      <trkpt lat="46.996463974937797" lon="16.223988980054855">
        <ele>239.990000000000009</ele>
        <time>2015-04-09T12:49:57Z</time>
      </trkpt>
      <trkpt lat="46.996467998251319" lon="16.224051006138325">
        <ele>239.990000000000009</ele>
        <time>2015-04-09T12:49:58Z</time>
      </trkpt>
      <trkpt lat="46.996487025171518" lon="16.22410599142313">
        <ele>239.990000000000009</ele>
        <time>2015-04-09T12:49:59Z</time>
      </trkpt>
      <trkpt lat="46.996509991586208" lon="16.224154019728303">
        <ele>240.469999999999999</ele>
        <time>2015-04-09T12:50:00Z</time>
      </trkpt>
      <trkpt lat="46.99655500240624" lon="16.224303971976042">
        <ele>240.949999999999989</ele>
        <time>2015-04-09T12:50:03Z</time>
      </trkpt>
      <trkpt lat="46.996547961607575" lon="16.224358035251498">
        <ele>241.430000000000007</ele>
        <time>2015-04-09T12:50:04Z</time>
      </trkpt>
      <trkpt lat="46.99653597548604" lon="16.22440698556602">
        <ele>241.430000000000007</ele>
        <time>2015-04-09T12:50:05Z</time>
      </trkpt>
      <trkpt lat="46.996524995192885" lon="16.224459037184715">
        <ele>241.430000000000007</ele>
        <time>2015-04-09T12:50:06Z</time>
      </trkpt>
      <trkpt lat="46.996517032384872" lon="16.224516034126282">
        <ele>241.430000000000007</ele>
        <time>2015-04-09T12:50:07Z</time>
      </trkpt>
      <trkpt lat="46.996505968272686" lon="16.224580993875861">
        <ele>241.430000000000007</ele>
        <time>2015-04-09T12:50:08Z</time>
      </trkpt>
      <trkpt lat="46.996502028778195" lon="16.224647965282202">
        <ele>240.469999999999999</ele>
        <time>2015-04-09T12:50:09Z</time>
      </trkpt>
      <trkpt lat="46.996498005464673" lon="16.224709991365671">
        <ele>241.430000000000007</ele>
        <time>2015-04-09T12:50:10Z</time>
      </trkpt>
      <trkpt lat="46.996498005464673" lon="16.22477101162076">
        <ele>241.430000000000007</ele>
        <time>2015-04-09T12:50:11Z</time>
      </trkpt>
      <trkpt lat="46.996505968272686" lon="16.224831026047468">
        <ele>241.909999999999997</ele>
        <time>2015-04-09T12:50:12Z</time>
      </trkpt>
      <trkpt lat="46.996509991586208" lon="16.224891962483525">
        <ele>242.389999999999986</ele>
        <time>2015-04-09T12:50:13Z</time>
      </trkpt>
      <trkpt lat="46.996505968272686" lon="16.224954994395375">
        <ele>241.909999999999997</ele>
        <time>2015-04-09T12:50:14Z</time>
      </trkpt>
      <trkpt lat="46.996498005464673" lon="16.225020959973335">
        <ele>241.909999999999997</ele>
        <time>2015-04-09T12:50:15Z</time>
      </trkpt>
      <trkpt lat="46.996493982151151" lon="16.225090026855469">
        <ele>241.909999999999997</ele>
        <time>2015-04-09T12:50:16Z</time>
      </trkpt>
      <trkpt lat="46.996417958289385" lon="16.226559039205313">
        <ele>240.469999999999999</ele>
        <time>2015-04-09T12:50:35Z</time>
      </trkpt>
      <trkpt lat="46.996222995221615" lon="16.227511977776885">
        <ele>239.990000000000009</ele>
        <time>2015-04-09T12:50:48Z</time>
      </trkpt>
      <trkpt lat="46.996197011321783" lon="16.227569980546832">
        <ele>239.509999999999991</ele>
        <time>2015-04-09T12:50:49Z</time>
      </trkpt>
      <trkpt lat="46.996173961088061" lon="16.22762898914516">
        <ele>239.990000000000009</ele>
        <time>2015-04-09T12:50:50Z</time>
      </trkpt>
      <trkpt lat="46.996155017986894" lon="16.227694032713771">
        <ele>239.990000000000009</ele>
        <time>2015-04-09T12:50:51Z</time>
      </trkpt>
      <trkpt lat="46.996140014380217" lon="16.227762009948492">
        <ele>239.990000000000009</ele>
        <time>2015-04-09T12:50:52Z</time>
      </trkpt>
      <trkpt lat="46.995968017727137" lon="16.228457959368825">
        <ele>239.02000000000001</ele>
        <time>2015-04-09T12:51:02Z</time>
      </trkpt>
      <trkpt lat="46.995646990835667" lon="16.229778025299311">
        <ele>239.509999999999991</ele>
        <time>2015-04-09T12:51:21Z</time>
      </trkpt>
      <trkpt lat="46.99563198722899" lon="16.22984298504889">
        <ele>239.509999999999991</ele>
        <time>2015-04-09T12:51:22Z</time>
      </trkpt>
      <trkpt lat="46.995616983622313" lon="16.229910040274262">
        <ele>239.509999999999991</ele>
        <time>2015-04-09T12:51:23Z</time>
      </trkpt>
      <trkpt lat="46.995570966973901" lon="16.230201981961727">
        <ele>239.02000000000001</ele>
        <time>2015-04-09T12:51:27Z</time>
      </trkpt>
      <trkpt lat="46.995532996952534" lon="16.230497024953365">
        <ele>238.539999999999992</ele>
        <time>2015-04-09T12:51:31Z</time>
      </trkpt>
      <trkpt lat="46.995517993345857" lon="16.230566008016467">
        <ele>239.02000000000001</ele>
        <time>2015-04-09T12:51:32Z</time>
      </trkpt>
      <trkpt lat="46.995319006964564" lon="16.231872998178005">
        <ele>239.02000000000001</ele>
        <time>2015-04-09T12:51:51Z</time>
      </trkpt>
      <trkpt lat="46.995209036394954" lon="16.232346994802356">
        <ele>239.02000000000001</ele>
        <time>2015-04-09T12:51:59Z</time>
      </trkpt>
      <trkpt lat="46.994914999231696" lon="16.233517024666071">
        <ele>237.099999999999994</ele>
        <time>2015-04-09T12:52:15Z</time>
      </trkpt>
      <trkpt lat="46.994831012561917" lon="16.233794968575239">
        <ele>236.620000000000005</ele>
        <time>2015-04-09T12:52:19Z</time>
      </trkpt>
      <trkpt lat="46.994617022573948" lon="16.234367033466697">
        <ele>238.060000000000002</ele>
        <time>2015-04-09T12:52:31Z</time>
      </trkpt>
      <trkpt lat="46.994576035067439" lon="16.234480021521449">
        <ele>238.539999999999992</ele>
        <time>2015-04-09T12:52:34Z</time>
      </trkpt>
      <trkpt lat="46.994552984833717" lon="16.234539030119777">
        <ele>237.580000000000013</ele>
        <time>2015-04-09T12:52:35Z</time>
      </trkpt>
      <trkpt lat="46.994503028690815" lon="16.234673978760839">
        <ele>237.099999999999994</ele>
        <time>2015-04-09T12:52:37Z</time>
      </trkpt>
      <trkpt lat="46.994246961548924" lon="16.235265992581844">
        <ele>237.099999999999994</ele>
        <time>2015-04-09T12:52:49Z</time>
      </trkpt>
      <trkpt lat="46.994038000702858" lon="16.235760021954775">
        <ele>237.099999999999994</ele>
        <time>2015-04-09T12:53:00Z</time>
      </trkpt>
      <trkpt lat="46.99374002404511" lon="16.236465023830533">
        <ele>237.099999999999994</ele>
        <time>2015-04-09T12:53:12Z</time>
      </trkpt>
      <trkpt lat="46.993282036855817" lon="16.237543020397425">
        <ele>237.099999999999994</ele>
        <time>2015-04-09T12:53:29Z</time>
      </trkpt>
      <trkpt lat="46.993258986622095" lon="16.237607980147004">
        <ele>237.099999999999994</ele>
        <time>2015-04-09T12:53:30Z</time>
      </trkpt>
      <trkpt lat="46.993237026035786" lon="16.237671012058854">
        <ele>237.099999999999994</ele>
        <time>2015-04-09T12:53:31Z</time>
      </trkpt>
      <trkpt lat="46.993206012994051" lon="16.237732032313943">
        <ele>237.099999999999994</ele>
        <time>2015-04-09T12:53:32Z</time>
      </trkpt>
      <trkpt lat="46.992931002750993" lon="16.238366961479187">
        <ele>236.620000000000005</ele>
        <time>2015-04-09T12:53:44Z</time>
      </trkpt>
      <trkpt lat="46.992908036336303" lon="16.238420018926263">
        <ele>236.620000000000005</ele>
        <time>2015-04-09T12:53:45Z</time>
      </trkpt>
      <trkpt lat="46.992889009416103" lon="16.238469975069165">
        <ele>237.099999999999994</ele>
        <time>2015-04-09T12:53:46Z</time>
      </trkpt>
      <trkpt lat="46.992679964751005" lon="16.238818997517228">
        <ele>238.060000000000002</ele>
        <time>2015-04-09T12:53:56Z</time>
      </trkpt>
      <trkpt lat="46.992541998624802" lon="16.239410005509853">
        <ele>238.539999999999992</ele>
        <time>2015-04-09T12:54:09Z</time>
      </trkpt>
      <trkpt lat="46.992348041385412" lon="16.239863969385624">
        <ele>239.509999999999991</ele>
        <time>2015-04-09T12:54:22Z</time>
      </trkpt>
      <trkpt lat="46.992118963971734" lon="16.24041398987174">
        <ele>239.509999999999991</ele>
        <time>2015-04-09T12:54:33Z</time>
      </trkpt>
      <trkpt lat="46.991974040865898" lon="16.240767035633326">
        <ele>239.509999999999991</ele>
        <time>2015-04-09T12:54:39Z</time>
      </trkpt>
      <trkpt lat="46.991955013945699" lon="16.240824032574892">
        <ele>239.02000000000001</ele>
        <time>2015-04-09T12:54:40Z</time>
      </trkpt>
      <trkpt lat="46.991618983447552" lon="16.241713017225266">
        <ele>239.02000000000001</ele>
        <time>2015-04-09T12:54:56Z</time>
      </trkpt>
      <trkpt lat="46.991485962644219" lon="16.242135968059301">
        <ele>238.539999999999992</ele>
        <time>2015-04-09T12:55:03Z</time>
      </trkpt>
      <trkpt lat="46.991183962672949" lon="16.243111034855247">
        <ele>239.509999999999991</ele>
        <time>2015-04-09T12:55:18Z</time>
      </trkpt>
      <trkpt lat="46.991012971848249" lon="16.243720985949039">
        <ele>238.539999999999992</ele>
        <time>2015-04-09T12:55:27Z</time>
      </trkpt>
      <trkpt lat="46.99079898186028" lon="16.244786996394396">
        <ele>238.060000000000002</ele>
        <time>2015-04-09T12:55:41Z</time>
      </trkpt>
      <trkpt lat="46.990532018244267" lon="16.246017040684819">
        <ele>237.099999999999994</ele>
        <time>2015-04-09T12:55:58Z</time>
      </trkpt>
      <trkpt lat="46.990387011319399" lon="16.246775016188622">
        <ele>237.580000000000013</ele>
        <time>2015-04-09T12:56:10Z</time>
      </trkpt>
      <trkpt lat="46.990237981081009" lon="16.247549001127481">
        <ele>237.099999999999994</ele>
        <time>2015-04-09T12:56:23Z</time>
      </trkpt>
      <trkpt lat="46.989845037460327" lon="16.248989012092352">
        <ele>236.620000000000005</ele>
        <time>2015-04-09T12:56:45Z</time>
      </trkpt>
      <trkpt lat="46.989609003067017" lon="16.249798033386469">
        <ele>236.139999999999986</ele>
        <time>2015-04-09T12:57:00Z</time>
      </trkpt>
      <trkpt lat="46.989471036940813" lon="16.250181002542377">
        <ele>235.180000000000007</ele>
        <time>2015-04-09T12:57:07Z</time>
      </trkpt>
      <trkpt lat="46.989452010020614" lon="16.250234981998801">
        <ele>235.180000000000007</ele>
        <time>2015-04-09T12:57:08Z</time>
      </trkpt>
      <trkpt lat="46.989193009212613" lon="16.250891033560038">
        <ele>235.659999999999997</ele>
        <time>2015-04-09T12:57:20Z</time>
      </trkpt>
      <trkpt lat="46.988830994814634" lon="16.251687984913588">
        <ele>236.620000000000005</ele>
        <time>2015-04-09T12:57:36Z</time>
      </trkpt>
      <trkpt lat="46.988647012040019" lon="16.252300031483173">
        <ele>238.539999999999992</ele>
        <time>2015-04-09T12:57:50Z</time>
      </trkpt>
      <trkpt lat="46.988410977646708" lon="16.252790037542582">
        <ele>237.580000000000013</ele>
        <time>2015-04-09T12:58:03Z</time>
      </trkpt>
      <trkpt lat="46.988117024302483" lon="16.253442987799644">
        <ele>237.580000000000013</ele>
        <time>2015-04-09T12:58:17Z</time>
      </trkpt>
      <trkpt lat="46.987946033477783" lon="16.253653960302472">
        <ele>239.02000000000001</ele>
        <time>2015-04-09T12:58:24Z</time>
      </trkpt>
      <trkpt lat="46.987846037372947" lon="16.253941962495446">
        <ele>240.469999999999999</ele>
        <time>2015-04-09T12:58:34Z</time>
      </trkpt>
      <trkpt lat="46.987838996574283" lon="16.254007006064057">
        <ele>240.469999999999999</ele>
        <time>2015-04-09T12:58:37Z</time>
      </trkpt>
      <trkpt lat="46.987620983272791" lon="16.253908015787601">
        <ele>239.02000000000001</ele>
        <time>2015-04-09T13:03:12Z</time>
      </trkpt>
      <trkpt lat="46.986831994727254" lon="16.253945985808969">
        <ele>237.580000000000013</ele>
        <time>2015-04-09T13:03:28Z</time>
      </trkpt>
      <trkpt lat="46.986202010884881" lon="16.253979010507464">
        <ele>237.099999999999994</ele>
        <time>2015-04-09T13:03:42Z</time>
      </trkpt>
      <trkpt lat="46.985329035669565" lon="16.254026032984257">
        <ele>236.620000000000005</ele>
        <time>2015-04-09T13:04:00Z</time>
      </trkpt>
      <trkpt lat="46.985081015154719" lon="16.254025027155876">
        <ele>237.099999999999994</ele>
        <time>2015-04-09T13:04:11Z</time>
      </trkpt>
      <trkpt lat="46.985081015154719" lon="16.254025027155876">
        <ele>236.620000000000005</ele>
        <time>2015-04-09T13:04:33Z</time>
      </trkpt>
      <trkpt lat="46.985072968527675" lon="16.25401102937758">
        <ele>237.099999999999994</ele>
        <time>2015-04-09T13:04:34Z</time>
      </trkpt>
      <trkpt lat="46.984993005171418" lon="16.253912039101124">
        <ele>237.099999999999994</ele>
        <time>2015-04-09T13:04:43Z</time>
      </trkpt>
      <trkpt lat="46.984489001333714" lon="16.253900974988937">
        <ele>236.620000000000005</ele>
        <time>2015-04-09T13:04:55Z</time>
      </trkpt>
      <trkpt lat="46.983550982549787" lon="16.253898963332176">
        <ele>236.620000000000005</ele>
        <time>2015-04-09T13:05:13Z</time>
      </trkpt>
      <trkpt lat="46.98244096711278" lon="16.253945985808969">
        <ele>235.659999999999997</ele>
        <time>2015-04-09T13:05:35Z</time>
      </trkpt>
      <trkpt lat="46.981521975249052" lon="16.254007006064057">
        <ele>235.180000000000007</ele>
        <time>2015-04-09T13:05:54Z</time>
      </trkpt>
      <trkpt lat="46.980282040312886" lon="16.254085963591933">
        <ele>234.699999999999989</ele>
        <time>2015-04-09T13:06:19Z</time>
      </trkpt>
      <trkpt lat="46.97917596437037" lon="16.254132986068726">
        <ele>234.699999999999989</ele>
        <time>2015-04-09T13:06:41Z</time>
      </trkpt>
      <trkpt lat="46.978004006668925" lon="16.254185037687421">
        <ele>234.699999999999989</ele>
        <time>2015-04-09T13:07:04Z</time>
      </trkpt>
      <trkpt lat="46.977248964831233" lon="16.254216972738504">
        <ele>234.219999999999999</ele>
        <time>2015-04-09T13:07:20Z</time>
      </trkpt>
      <trkpt lat="46.976109025999904" lon="16.2542690243572">
        <ele>234.219999999999999</ele>
        <time>2015-04-09T13:07:43Z</time>
      </trkpt>
      <trkpt lat="46.975376028567553" lon="16.254317974671721">
        <ele>234.699999999999989</ele>
        <time>2015-04-09T13:07:59Z</time>
      </trkpt>
      <trkpt lat="46.97449098341167" lon="16.254425011575222">
        <ele>235.180000000000007</ele>
        <time>2015-04-09T13:08:19Z</time>
      </trkpt>
      <trkpt lat="46.97354500181973" lon="16.254585022106767">
        <ele>236.139999999999986</ele>
        <time>2015-04-09T13:08:40Z</time>
      </trkpt>
      <trkpt lat="46.972759030759335" lon="16.254680994898081">
        <ele>235.180000000000007</ele>
        <time>2015-04-09T13:08:57Z</time>
      </trkpt>
      <trkpt lat="46.972271036356688" lon="16.254730029031634">
        <ele>235.180000000000007</ele>
        <time>2015-04-09T13:09:08Z</time>
      </trkpt>
      <trkpt lat="46.972225019708276" lon="16.254730029031634">
        <ele>235.659999999999997</ele>
        <time>2015-04-09T13:09:09Z</time>
      </trkpt>
      <trkpt lat="46.972179003059864" lon="16.254728017374873">
        <ele>235.180000000000007</ele>
        <time>2015-04-09T13:09:10Z</time>
      </trkpt>
      <trkpt lat="46.971271997317672" lon="16.254762969911098">
        <ele>235.180000000000007</ele>
        <time>2015-04-09T13:09:29Z</time>
      </trkpt>
      <trkpt lat="46.970389969646931" lon="16.254718964919448">
        <ele>235.180000000000007</ele>
        <time>2015-04-09T13:09:47Z</time>
      </trkpt>
      <trkpt lat="46.97025703266263" lon="16.254717037081718">
        <ele>234.699999999999989</ele>
        <time>2015-04-09T13:09:50Z</time>
      </trkpt>
      <trkpt lat="46.969318008050323" lon="16.254641013219953">
        <ele>233.259999999999991</ele>
        <time>2015-04-09T13:10:09Z</time>
      </trkpt>
      <trkpt lat="46.968532958999276" lon="16.254548979923129">
        <ele>233.740000000000009</ele>
        <time>2015-04-09T13:10:26Z</time>
      </trkpt>
      <trkpt lat="46.967621007934213" lon="16.254361979663372">
        <ele>234.219999999999999</ele>
        <time>2015-04-09T13:10:45Z</time>
      </trkpt>
      <trkpt lat="46.966853979974985" lon="16.254161987453699">
        <ele>234.219999999999999</ele>
        <time>2015-04-09T13:11:03Z</time>
      </trkpt>
      <trkpt lat="46.96622097864747" lon="16.253917990252376">
        <ele>234.699999999999989</ele>
        <time>2015-04-09T13:11:19Z</time>
      </trkpt>
      <trkpt lat="46.965626031160355" lon="16.253620013594627">
        <ele>234.699999999999989</ele>
        <time>2015-04-09T13:11:36Z</time>
      </trkpt>
      <trkpt lat="46.965218000113964" lon="16.253371993079782">
        <ele>235.659999999999997</ele>
        <time>2015-04-09T13:11:48Z</time>
      </trkpt>
      <trkpt lat="46.964848022907972" lon="16.253115003928542">
        <ele>236.139999999999986</ele>
        <time>2015-04-09T13:12:01Z</time>
      </trkpt>
      <trkpt lat="46.964396992698312" lon="16.25276799313724">
        <ele>235.659999999999997</ele>
        <time>2015-04-09T13:12:16Z</time>
      </trkpt>
      <trkpt lat="46.96374898776412" lon="16.25218796543777">
        <ele>236.620000000000005</ele>
        <time>2015-04-09T13:12:35Z</time>
      </trkpt>
      <trkpt lat="46.963096959516406" lon="16.251485981047153">
        <ele>236.620000000000005</ele>
        <time>2015-04-09T13:12:53Z</time>
      </trkpt>
      <trkpt lat="46.962539982050657" lon="16.250814003869891">
        <ele>237.580000000000013</ele>
        <time>2015-04-09T13:13:10Z</time>
      </trkpt>
      <trkpt lat="46.961945034563541" lon="16.250055022537708">
        <ele>238.539999999999992</ele>
        <time>2015-04-09T13:13:28Z</time>
      </trkpt>
      <trkpt lat="46.961369030177593" lon="16.249358989298344">
        <ele>239.509999999999991</ele>
        <time>2015-04-09T13:13:47Z</time>
      </trkpt>
      <trkpt lat="46.961079016327858" lon="16.248989012092352">
        <ele>239.990000000000009</ele>
        <time>2015-04-09T13:13:59Z</time>
      </trkpt>
      <trkpt lat="46.960959993302822" lon="16.248837970197201">
        <ele>240.469999999999999</ele>
        <time>2015-04-09T13:14:03Z</time>
      </trkpt>
      <trkpt lat="46.960566965863109" lon="16.248361961916089">
        <ele>241.909999999999997</ele>
        <time>2015-04-09T13:14:17Z</time>
      </trkpt>
      <trkpt lat="46.960067991167307" lon="16.247720997780561">
        <ele>242.389999999999986</ele>
        <time>2015-04-09T13:14:34Z</time>
      </trkpt>
      <trkpt lat="46.959454016759992" lon="16.246937038376927">
        <ele>242.870000000000005</ele>
        <time>2015-04-09T13:14:53Z</time>
      </trkpt>
      <trkpt lat="46.959361983463168" lon="16.24675003811717">
        <ele>242.870000000000005</ele>
        <time>2015-04-09T13:14:57Z</time>
      </trkpt>
      <trkpt lat="46.959331976249814" lon="16.24670603312552">
        <ele>242.870000000000005</ele>
        <time>2015-04-09T13:14:58Z</time>
      </trkpt>
      <trkpt lat="46.958939032629132" lon="16.246201023459435">
        <ele>242.870000000000005</ele>
        <time>2015-04-09T13:15:12Z</time>
      </trkpt>
      <trkpt lat="46.958565032109618" lon="16.24570095911622">
        <ele>242.389999999999986</ele>
        <time>2015-04-09T13:15:23Z</time>
      </trkpt>
      <trkpt lat="46.957934964448214" lon="16.24492303468287">
        <ele>240.949999999999989</ele>
        <time>2015-04-09T13:15:39Z</time>
      </trkpt>
      <trkpt lat="46.957679986953735" lon="16.244572000578046">
        <ele>240.469999999999999</ele>
        <time>2015-04-09T13:15:46Z</time>
      </trkpt>
      <trkpt lat="46.957648973912001" lon="16.244523972272873">
        <ele>241.430000000000007</ele>
        <time>2015-04-09T13:15:47Z</time>
      </trkpt>
      <trkpt lat="46.957446970045567" lon="16.24423798173666">
        <ele>239.990000000000009</ele>
        <time>2015-04-09T13:15:54Z</time>
      </trkpt>
      <trkpt lat="46.956855962052941" lon="16.24331496655941">
        <ele>240.949999999999989</ele>
        <time>2015-04-09T13:16:12Z</time>
      </trkpt>
      <trkpt lat="46.956749008968472" lon="16.243140958249569">
        <ele>240.949999999999989</ele>
        <time>2015-04-09T13:16:15Z</time>
      </trkpt>
      <trkpt lat="46.956711038947105" lon="16.243092007935047">
        <ele>240.469999999999999</ele>
        <time>2015-04-09T13:16:16Z</time>
      </trkpt>
      <trkpt lat="46.956547005102038" lon="16.242886986583471">
        <ele>239.509999999999991</ele>
        <time>2015-04-09T13:16:20Z</time>
      </trkpt>
      <trkpt lat="46.956505011767149" lon="16.24284197576344">
        <ele>239.509999999999991</ele>
        <time>2015-04-09T13:16:21Z</time>
      </trkpt>
      <trkpt lat="46.955935964360833" lon="16.242526983842254">
        <ele>239.02000000000001</ele>
        <time>2015-04-09T13:16:33Z</time>
      </trkpt>
      <trkpt lat="46.955902017652988" lon="16.242487002164125">
        <ele>239.02000000000001</ele>
        <time>2015-04-09T13:16:34Z</time>
      </trkpt>
      <trkpt lat="46.955872010439634" lon="16.242430005222559">
        <ele>239.02000000000001</ele>
        <time>2015-04-09T13:16:35Z</time>
      </trkpt>
      <trkpt lat="46.9558409973979" lon="16.242363033816218">
        <ele>239.02000000000001</ele>
        <time>2015-04-09T13:16:36Z</time>
      </trkpt>
      <trkpt lat="46.955814007669687" lon="16.242292039096355">
        <ele>239.02000000000001</ele>
        <time>2015-04-09T13:16:37Z</time>
      </trkpt>
      <trkpt lat="46.955665983259678" lon="16.241952991113067">
        <ele>239.02000000000001</ele>
        <time>2015-04-09T13:16:42Z</time>
      </trkpt>
      <trkpt lat="46.955643016844988" lon="16.241876967251301">
        <ele>239.02000000000001</ele>
        <time>2015-04-09T13:16:43Z</time>
      </trkpt>
      <trkpt lat="46.955619966611266" lon="16.241800021380186">
        <ele>239.509999999999991</ele>
        <time>2015-04-09T13:16:44Z</time>
      </trkpt>
      <trkpt lat="46.955460039898753" lon="16.240918999537826">
        <ele>239.509999999999991</ele>
        <time>2015-04-09T13:16:56Z</time>
      </trkpt>
      <trkpt lat="46.955436989665031" lon="16.240409966558218">
        <ele>240.469999999999999</ele>
        <time>2015-04-09T13:17:04Z</time>
      </trkpt>
      <trkpt lat="46.955432966351509" lon="16.240342995151877">
        <ele>239.509999999999991</ele>
        <time>2015-04-09T13:17:05Z</time>
      </trkpt>
      <trkpt lat="46.955420980229974" lon="16.240276023745537">
        <ele>239.990000000000009</ele>
        <time>2015-04-09T13:17:06Z</time>
      </trkpt>
      <trkpt lat="46.955405976623297" lon="16.240206034854054">
        <ele>241.430000000000007</ele>
        <time>2015-04-09T13:17:07Z</time>
      </trkpt>
      <trkpt lat="46.955394996330142" lon="16.240135040134192">
        <ele>239.990000000000009</ele>
        <time>2015-04-09T13:17:08Z</time>
      </trkpt>
      <trkpt lat="46.955378986895084" lon="16.240067984908819">
        <ele>239.990000000000009</ele>
        <time>2015-04-09T13:17:09Z</time>
      </trkpt>
      <trkpt lat="46.955028958618641" lon="16.238810028880835">
        <ele>239.990000000000009</ele>
        <time>2015-04-09T13:17:26Z</time>
      </trkpt>
      <trkpt lat="46.954589998349547" lon="16.237730020657182">
        <ele>239.990000000000009</ele>
        <time>2015-04-09T13:17:41Z</time>
      </trkpt>
      <trkpt lat="46.95412396453321" lon="16.236730981618166">
        <ele>240.949999999999989</ele>
        <time>2015-04-09T13:17:57Z</time>
      </trkpt>
      <trkpt lat="46.953815007582307" lon="16.23605296947062">
        <ele>241.909999999999997</ele>
        <time>2015-04-09T13:18:08Z</time>
      </trkpt>
      <trkpt lat="46.95378097705543" lon="16.23600603081286">
        <ele>241.909999999999997</ele>
        <time>2015-04-09T13:18:09Z</time>
      </trkpt>
      <trkpt lat="46.953593976795673" lon="16.235790029168129">
        <ele>241.909999999999997</ele>
        <time>2015-04-09T13:18:14Z</time>
      </trkpt>
      <trkpt lat="46.953391972929239" lon="16.235494986176491">
        <ele>242.389999999999986</ele>
        <time>2015-04-09T13:18:20Z</time>
      </trkpt>
      <trkpt lat="46.952972039580345" lon="16.234379019588232">
        <ele>242.389999999999986</ele>
        <time>2015-04-09T13:18:37Z</time>
      </trkpt>
      <trkpt lat="46.952502988278866" lon="16.233407976105809">
        <ele>242.389999999999986</ele>
        <time>2015-04-09T13:18:53Z</time>
      </trkpt>
      <trkpt lat="46.952076014131308" lon="16.23240097425878">
        <ele>241.430000000000007</ele>
        <time>2015-04-09T13:19:08Z</time>
      </trkpt>
      <trkpt lat="46.952052963897586" lon="16.232329979538918">
        <ele>240.949999999999989</ele>
        <time>2015-04-09T13:19:09Z</time>
      </trkpt>
      <trkpt lat="46.951941987499595" lon="16.23199101537466">
        <ele>240.949999999999989</ele>
        <time>2015-04-09T13:19:14Z</time>
      </trkpt>
      <trkpt lat="46.951808966696262" lon="16.231664959341288">
        <ele>239.990000000000009</ele>
        <time>2015-04-09T13:19:19Z</time>
      </trkpt>
      <trkpt lat="46.951775019988418" lon="16.231610979884863">
        <ele>239.990000000000009</ele>
        <time>2015-04-09T13:19:20Z</time>
      </trkpt>
      <trkpt lat="46.951733026653528" lon="16.231570998206735">
        <ele>239.990000000000009</ele>
        <time>2015-04-09T13:19:21Z</time>
      </trkpt>
      <trkpt lat="46.951687010005116" lon="16.231548031792045">
        <ele>239.990000000000009</ele>
        <time>2015-04-09T13:19:22Z</time>
      </trkpt>
      <trkpt lat="46.951636970043182" lon="16.231535039842129">
        <ele>240.469999999999999</ele>
        <time>2015-04-09T13:19:23Z</time>
      </trkpt>
      <trkpt lat="46.951588019728661" lon="16.231531016528606">
        <ele>239.990000000000009</ele>
        <time>2015-04-09T13:19:24Z</time>
      </trkpt>
      <trkpt lat="46.951542003080249" lon="16.231531016528606">
        <ele>239.990000000000009</ele>
        <time>2015-04-09T13:19:25Z</time>
      </trkpt>
      <trkpt lat="46.951491963118315" lon="16.231536967679858">
        <ele>240.469999999999999</ele>
        <time>2015-04-09T13:19:26Z</time>
      </trkpt>
      <trkpt lat="46.951447036117315" lon="16.231555994600058">
        <ele>239.990000000000009</ele>
        <time>2015-04-09T13:19:27Z</time>
      </trkpt>
      <trkpt lat="46.951401019468904" lon="16.231578961014748">
        <ele>239.990000000000009</ele>
        <time>2015-04-09T13:19:28Z</time>
      </trkpt>
      <trkpt lat="46.950805988162756" lon="16.231967965140939">
        <ele>239.02000000000001</ele>
        <time>2015-04-09T13:19:40Z</time>
      </trkpt>
      <trkpt lat="46.950068967416883" lon="16.232468029484153">
        <ele>239.02000000000001</ele>
        <time>2015-04-09T13:19:55Z</time>
      </trkpt>
      <trkpt lat="46.949752969667315" lon="16.232675984501839">
        <ele>238.060000000000002</ele>
        <time>2015-04-09T13:20:02Z</time>
      </trkpt>
      <trkpt lat="46.949397996068001" lon="16.232798025012016">
        <ele>238.060000000000002</ele>
        <time>2015-04-09T13:20:10Z</time>
      </trkpt>
      <trkpt lat="46.94926799274981" lon="16.232778998091817">
        <ele>238.539999999999992</ele>
        <time>2015-04-09T13:20:13Z</time>
      </trkpt>
      <trkpt lat="46.949080992490053" lon="16.23274396173656">
        <ele>238.060000000000002</ele>
        <time>2015-04-09T13:20:17Z</time>
      </trkpt>
      <trkpt lat="46.948509011417627" lon="16.232439028099179">
        <ele>237.580000000000013</ele>
        <time>2015-04-09T13:20:31Z</time>
      </trkpt>
      <trkpt lat="46.94847104139626" lon="16.232407009229064">
        <ele>237.580000000000013</ele>
        <time>2015-04-09T13:20:32Z</time>
      </trkpt>
      <trkpt lat="46.948070973157883" lon="16.232013981789351">
        <ele>237.580000000000013</ele>
        <time>2015-04-09T13:20:42Z</time>
      </trkpt>
      <trkpt lat="46.948031997308135" lon="16.231977017596364">
        <ele>237.580000000000013</ele>
        <time>2015-04-09T13:20:43Z</time>
      </trkpt>
      <trkpt lat="46.947997966781259" lon="16.23194701038301">
        <ele>237.580000000000013</ele>
        <time>2015-04-09T13:20:44Z</time>
      </trkpt>
      <trkpt lat="46.947964020073414" lon="16.231923960149288">
        <ele>238.060000000000002</ele>
        <time>2015-04-09T13:20:45Z</time>
      </trkpt>
      <trkpt lat="46.947928983718157" lon="16.231909040361643">
        <ele>237.580000000000013</ele>
        <time>2015-04-09T13:20:46Z</time>
      </trkpt>
      <trkpt lat="46.94789101369679" lon="16.231894958764315">
        <ele>237.580000000000013</ele>
        <time>2015-04-09T13:20:47Z</time>
      </trkpt>
      <trkpt lat="46.947861006483436" lon="16.231872998178005">
        <ele>237.580000000000013</ele>
        <time>2015-04-09T13:20:48Z</time>
      </trkpt>
      <trkpt lat="46.947829993441701" lon="16.231833016499877">
        <ele>237.580000000000013</ele>
        <time>2015-04-09T13:20:49Z</time>
      </trkpt>
      <trkpt lat="46.947814989835024" lon="16.231780964881182">
        <ele>237.580000000000013</ele>
        <time>2015-04-09T13:20:50Z</time>
      </trkpt>
      <trkpt lat="46.947807027027011" lon="16.231723967939615">
        <ele>238.060000000000002</ele>
        <time>2015-04-09T13:20:51Z</time>
      </trkpt>
      <trkpt lat="46.947803003713489" lon="16.231661019846797">
        <ele>238.060000000000002</ele>
        <time>2015-04-09T13:20:52Z</time>
      </trkpt>
      <trkpt lat="46.947795962914824" lon="16.231590025126934">
        <ele>238.060000000000002</ele>
        <time>2015-04-09T13:20:53Z</time>
      </trkpt>
      <trkpt lat="46.947788000106812" lon="16.231514001265168">
        <ele>238.060000000000002</ele>
        <time>2015-04-09T13:20:54Z</time>
      </trkpt>
      <trkpt lat="46.947753969579935" lon="16.230684025213122">
        <ele>239.02000000000001</ele>
        <time>2015-04-09T13:21:08Z</time>
      </trkpt>
      <trkpt lat="46.947792023420334" lon="16.230370039120317">
        <ele>239.02000000000001</ele>
        <time>2015-04-09T13:21:15Z</time>
      </trkpt>
      <trkpt lat="46.947788000106812" lon="16.230339026078582">
        <ele>238.539999999999992</ele>
        <time>2015-04-09T13:21:16Z</time>
      </trkpt>
      <trkpt lat="46.947783976793289" lon="16.230326034128666">
        <ele>239.02000000000001</ele>
        <time>2015-04-09T13:21:28Z</time>
      </trkpt>
      <trkpt lat="46.947783976793289" lon="16.230326034128666">
        <ele>239.02000000000001</ele>
        <time>2015-04-09T13:21:29Z</time>
      </trkpt>
      <trkpt lat="46.947768973186612" lon="16.23031597584486">
        <ele>239.02000000000001</ele>
        <time>2015-04-09T13:21:30Z</time>
      </trkpt>
      <trkpt lat="46.947757992893457" lon="16.230312036350369">
        <ele>238.539999999999992</ele>
        <time>2015-04-09T13:21:31Z</time>
      </trkpt>
      <trkpt lat="46.947696972638369" lon="16.230309018865228">
        <ele>239.02000000000001</ele>
        <time>2015-04-09T13:21:43Z</time>
      </trkpt>
      <trkpt lat="46.947674006223679" lon="16.230309018865228">
        <ele>239.02000000000001</ele>
        <time>2015-04-09T13:21:44Z</time>
      </trkpt>
      <trkpt lat="46.947654979303479" lon="16.230304995551705">
        <ele>239.02000000000001</ele>
        <time>2015-04-09T13:21:45Z</time>
      </trkpt>
      <trkpt lat="46.947632012888789" lon="16.230295021086931">
        <ele>238.060000000000002</ele>
        <time>2015-04-09T13:21:46Z</time>
      </trkpt>
      <trkpt lat="46.947620026767254" lon="16.230269959196448">
        <ele>238.539999999999992</ele>
        <time>2015-04-09T13:21:47Z</time>
      </trkpt>
      <trkpt lat="46.947623966261744" lon="16.230243975296617">
        <ele>238.539999999999992</ele>
        <time>2015-04-09T13:21:48Z</time>
      </trkpt>
      <trkpt lat="46.947636036202312" lon="16.230221008881927">
        <ele>238.539999999999992</ele>
        <time>2015-04-09T13:21:58Z</time>
      </trkpt>
      <trkpt lat="46.947654979303479" lon="16.230227965861559">
        <ele>238.539999999999992</ele>
        <time>2015-04-09T13:21:59Z</time>
      </trkpt>
      <trkpt lat="46.947669982910156" lon="16.230245986953378">
        <ele>238.539999999999992</ele>
        <time>2015-04-09T13:22:00Z</time>
      </trkpt>
      <trkpt lat="46.947680963203311" lon="16.230269959196448">
        <ele>238.539999999999992</ele>
        <time>2015-04-09T13:22:01Z</time>
      </trkpt>
      <trkpt lat="46.947696972638369" lon="16.23029300943017">
        <ele>238.060000000000002</ele>
        <time>2015-04-09T13:22:02Z</time>
      </trkpt>
      <trkpt lat="46.947711976245046" lon="16.230317987501621">
        <ele>238.539999999999992</ele>
        <time>2015-04-09T13:22:03Z</time>
      </trkpt>
      <trkpt lat="46.947723040357232" lon="16.230341037735343">
        <ele>238.539999999999992</ele>
        <time>2015-04-09T13:22:04Z</time>
      </trkpt>
      <trkpt lat="46.947735026478767" lon="16.230372972786427">
        <ele>238.539999999999992</ele>
        <time>2015-04-09T13:22:05Z</time>
      </trkpt>
      <trkpt lat="46.947738965973258" lon="16.230414966121316">
        <ele>238.539999999999992</ele>
        <time>2015-04-09T13:22:06Z</time>
      </trkpt>
      <trkpt lat="46.947738965973258" lon="16.230462994426489">
        <ele>238.060000000000002</ele>
        <time>2015-04-09T13:22:07Z</time>
      </trkpt>
      <trkpt lat="46.94776201620698" lon="16.230777986347675">
        <ele>239.02000000000001</ele>
        <time>2015-04-09T13:22:16Z</time>
      </trkpt>
      <trkpt lat="46.947788000106812" lon="16.230779998004436">
        <ele>239.509999999999991</ele>
        <time>2015-04-09T13:22:26Z</time>
      </trkpt>
      <trkpt lat="46.947783976793289" lon="16.230783015489578">
        <ele>239.02000000000001</ele>
        <time>2015-04-09T13:23:03Z</time>
      </trkpt>
      <trkpt lat="46.947783976793289" lon="16.230783015489578">
        <ele>239.02000000000001</ele>
        <time>2015-04-09T13:23:37Z</time>
      </trkpt>
      <trkpt lat="46.947792023420334" lon="16.230787038803101">
        <ele>239.509999999999991</ele>
        <time>2015-04-09T13:24:11Z</time>
      </trkpt>
      <trkpt lat="46.947792023420334" lon="16.23078896664083">
        <ele>239.509999999999991</ele>
        <time>2015-04-09T13:24:30Z</time>
      </trkpt>
      <trkpt lat="46.947792023420334" lon="16.23078896664083">
        <ele>239.02000000000001</ele>
        <time>2015-04-09T13:24:55Z</time>
      </trkpt>
      <trkpt lat="46.947792023420334" lon="16.230792989954352">
        <ele>239.509999999999991</ele>
        <time>2015-04-09T13:25:27Z</time>
      </trkpt>
      <trkpt lat="46.947792023420334" lon="16.230792989954352">
        <ele>239.02000000000001</ele>
        <time>2015-04-09T13:25:31Z</time>
      </trkpt>
      <trkpt lat="46.947795962914824" lon="16.230772035196424">
        <ele>238.539999999999992</ele>
        <time>2015-04-09T13:25:32Z</time>
      </trkpt>
      <trkpt lat="46.947792023420334" lon="16.230746973305941">
        <ele>239.02000000000001</ele>
        <time>2015-04-09T13:25:33Z</time>
      </trkpt>
      <trkpt lat="46.947788000106812" lon="16.230718977749348">
        <ele>239.02000000000001</ele>
        <time>2015-04-09T13:25:34Z</time>
      </trkpt>
      <trkpt lat="46.947777019813657" lon="16.230687964707613">
        <ele>239.02000000000001</ele>
        <time>2015-04-09T13:25:35Z</time>
      </trkpt>
      <trkpt lat="46.947768973186612" lon="16.230658041313291">
        <ele>238.539999999999992</ele>
        <time>2015-04-09T13:25:36Z</time>
      </trkpt>
      <trkpt lat="46.947757992893457" lon="16.230627028271556">
        <ele>238.539999999999992</ele>
        <time>2015-04-09T13:25:37Z</time>
      </trkpt>
      <trkpt lat="46.947746006771922" lon="16.230595009401441">
        <ele>239.02000000000001</ele>
        <time>2015-04-09T13:25:38Z</time>
      </trkpt>
      <trkpt lat="46.947689009830356" lon="16.230181027203798">
        <ele>238.539999999999992</ele>
        <time>2015-04-09T13:25:46Z</time>
      </trkpt>
      <trkpt lat="46.947659002617002" lon="16.229987991973758">
        <ele>238.539999999999992</ele>
        <time>2015-04-09T13:25:49Z</time>
      </trkpt>
      <trkpt lat="46.947551965713501" lon="16.228987025097013">
        <ele>238.060000000000002</ele>
        <time>2015-04-09T13:26:04Z</time>
      </trkpt>
      <trkpt lat="46.947524975985289" lon="16.228732969611883">
        <ele>237.580000000000013</ele>
        <time>2015-04-09T13:26:08Z</time>
      </trkpt>
      <trkpt lat="46.947513995692134" lon="16.228534989058971">
        <ele>238.060000000000002</ele>
        <time>2015-04-09T13:26:11Z</time>
      </trkpt>
      <trkpt lat="46.947509972378612" lon="16.228470029309392">
        <ele>237.580000000000013</ele>
        <time>2015-04-09T13:26:12Z</time>
      </trkpt>
      <trkpt lat="46.947487005963922" lon="16.227924032136798">
        <ele>238.060000000000002</ele>
        <time>2015-04-09T13:26:20Z</time>
      </trkpt>
      <trkpt lat="46.947491029277444" lon="16.227853959426284">
        <ele>238.539999999999992</ele>
        <time>2015-04-09T13:26:21Z</time>
      </trkpt>
      <trkpt lat="46.947491029277444" lon="16.2277149874717">
        <ele>238.060000000000002</ele>
        <time>2015-04-09T13:26:23Z</time>
      </trkpt>
      <trkpt lat="46.947487005963922" lon="16.227646004408598">
        <ele>238.060000000000002</ele>
        <time>2015-04-09T13:26:24Z</time>
      </trkpt>
      <trkpt lat="46.947487005963922" lon="16.227507032454014">
        <ele>237.580000000000013</ele>
        <time>2015-04-09T13:26:26Z</time>
      </trkpt>
      <trkpt lat="46.947563029825687" lon="16.226306995376945">
        <ele>238.539999999999992</ele>
        <time>2015-04-09T13:26:42Z</time>
      </trkpt>
      <trkpt lat="46.947551965713501" lon="16.225058007985353">
        <ele>238.539999999999992</ele>
        <time>2015-04-09T13:26:58Z</time>
      </trkpt>
      <trkpt lat="46.947475019842386" lon="16.224010018631816">
        <ele>238.539999999999992</ele>
        <time>2015-04-09T13:27:13Z</time>
      </trkpt>
      <trkpt lat="46.947403019294143" lon="16.222840994596481">
        <ele>239.509999999999991</ele>
        <time>2015-04-09T13:27:29Z</time>
      </trkpt>
      <trkpt lat="46.94728902541101" lon="16.22176400385797">
        <ele>239.509999999999991</ele>
        <time>2015-04-09T13:27:44Z</time>
      </trkpt>
      <trkpt lat="46.94713999517262" lon="16.220620963722467">
        <ele>239.509999999999991</ele>
        <time>2015-04-09T13:28:00Z</time>
      </trkpt>
      <trkpt lat="46.947086015716195" lon="16.220092987641692">
        <ele>239.509999999999991</ele>
        <time>2015-04-09T13:28:07Z</time>
      </trkpt>
      <trkpt lat="46.94709800183773" lon="16.22002400457859">
        <ele>239.509999999999991</ele>
        <time>2015-04-09T13:28:08Z</time>
      </trkpt>
      <trkpt lat="46.947128009051085" lon="16.219972958788276">
        <ele>239.509999999999991</ele>
        <time>2015-04-09T13:28:09Z</time>
      </trkpt>
      <trkpt lat="46.947159022092819" lon="16.219930965453386">
        <ele>239.509999999999991</ele>
        <time>2015-04-09T13:28:10Z</time>
      </trkpt>
      <trkpt lat="46.947189029306173" lon="16.219883020967245">
        <ele>239.509999999999991</ele>
        <time>2015-04-09T13:28:11Z</time>
      </trkpt>
      <trkpt lat="46.947205038741231" lon="16.219826024025679">
        <ele>239.509999999999991</ele>
        <time>2015-04-09T13:28:12Z</time>
      </trkpt>
      <trkpt lat="46.947196992114186" lon="16.21976500377059">
        <ele>239.509999999999991</ele>
        <time>2015-04-09T13:28:13Z</time>
      </trkpt>
      <trkpt lat="46.947181988507509" lon="16.219705995172262">
        <ele>239.509999999999991</ele>
        <time>2015-04-09T13:28:14Z</time>
      </trkpt>
      <trkpt lat="46.94716296158731" lon="16.219650004059076">
        <ele>239.509999999999991</ele>
        <time>2015-04-09T13:28:15Z</time>
      </trkpt>
      <trkpt lat="46.94713999517262" lon="16.219598958268762">
        <ele>239.509999999999991</ele>
        <time>2015-04-09T13:28:16Z</time>
      </trkpt>
      <trkpt lat="46.94711702875793" lon="16.219546990469098">
        <ele>239.509999999999991</ele>
        <time>2015-04-09T13:28:17Z</time>
      </trkpt>
      <trkpt lat="46.94709800183773" lon="16.219489993527532">
        <ele>239.509999999999991</ele>
        <time>2015-04-09T13:28:18Z</time>
      </trkpt>
      <trkpt lat="46.947082998231053" lon="16.219426961615682">
        <ele>239.990000000000009</ele>
        <time>2015-04-09T13:28:19Z</time>
      </trkpt>
      <trkpt lat="46.947071012109518" lon="16.219362001866102">
        <ele>239.509999999999991</ele>
        <time>2015-04-09T13:28:20Z</time>
      </trkpt>
      <trkpt lat="46.946975961327553" lon="16.218074960634112">
        <ele>240.469999999999999</ele>
        <time>2015-04-09T13:28:37Z</time>
      </trkpt>
      <trkpt lat="46.947018038481474" lon="16.216695969924331">
        <ele>240.949999999999989</ele>
        <time>2015-04-09T13:28:55Z</time>
      </trkpt>
      <trkpt lat="46.947108982130885" lon="16.215058984234929">
        <ele>240.949999999999989</ele>
        <time>2015-04-09T13:29:15Z</time>
      </trkpt>
      <trkpt lat="46.947093978524208" lon="16.214236970990896">
        <ele>241.430000000000007</ele>
        <time>2015-04-09T13:29:27Z</time>
      </trkpt>
      <trkpt lat="46.947102025151253" lon="16.213447982445359">
        <ele>242.389999999999986</ele>
        <time>2015-04-09T13:29:41Z</time>
      </trkpt>
      <trkpt lat="46.947071012109518" lon="16.213150005787611">
        <ele>242.389999999999986</ele>
        <time>2015-04-09T13:29:47Z</time>
      </trkpt>
      <trkpt lat="46.947036981582642" lon="16.213027965277433">
        <ele>242.389999999999986</ele>
        <time>2015-04-09T13:29:49Z</time>
      </trkpt>
      <trkpt lat="46.947014015167952" lon="16.212970968335867">
        <ele>241.909999999999997</ele>
        <time>2015-04-09T13:29:50Z</time>
      </trkpt>
      <trkpt lat="46.94699096493423" lon="16.212906008586287">
        <ele>242.389999999999986</ele>
        <time>2015-04-09T13:29:51Z</time>
      </trkpt>
      <trkpt lat="46.946952994912863" lon="16.212754966691136">
        <ele>242.389999999999986</ele>
        <time>2015-04-09T13:29:53Z</time>
      </trkpt>
      <trkpt lat="46.94694503210485" lon="16.212716996669769">
        <ele>241.430000000000007</ele>
        <time>2015-04-09T13:29:54Z</time>
      </trkpt>
      <trkpt lat="46.946758031845093" lon="16.211677975952625">
        <ele>241.909999999999997</ele>
        <time>2015-04-09T13:30:08Z</time>
      </trkpt>
      <trkpt lat="46.946526020765305" lon="16.210544994100928">
        <ele>242.389999999999986</ele>
        <time>2015-04-09T13:30:23Z</time>
      </trkpt>
      <trkpt lat="46.946285041049123" lon="16.209402037784457">
        <ele>243.830000000000013</ele>
        <time>2015-04-09T13:30:40Z</time>
      </trkpt>
      <trkpt lat="46.946163000538945" lon="16.208526967093349">
        <ele>244.310000000000002</ele>
        <time>2015-04-09T13:30:53Z</time>
      </trkpt>
      <trkpt lat="46.94615202024579" lon="16.208395035937428">
        <ele>244.310000000000002</ele>
        <time>2015-04-09T13:30:55Z</time>
      </trkpt>
      <trkpt lat="46.946155959740281" lon="16.208332004025578">
        <ele>244.310000000000002</ele>
        <time>2015-04-09T13:30:56Z</time>
      </trkpt>
      <trkpt lat="46.946170963346958" lon="16.207940988242626">
        <ele>244.310000000000002</ele>
        <time>2015-04-09T13:31:02Z</time>
      </trkpt>
      <trkpt lat="46.946163000538945" lon="16.207872005179524">
        <ele>244.789999999999992</ele>
        <time>2015-04-09T13:31:03Z</time>
      </trkpt>
      <trkpt lat="46.946147996932268" lon="16.207036999985576">
        <ele>244.789999999999992</ele>
        <time>2015-04-09T13:31:16Z</time>
      </trkpt>
      <trkpt lat="46.946147996932268" lon="16.206887969747186">
        <ele>245.75</ele>
        <time>2015-04-09T13:31:18Z</time>
      </trkpt>
      <trkpt lat="46.946158977225423" lon="16.205687010660768">
        <ele>246.22999999999999</ele>
        <time>2015-04-09T13:31:35Z</time>
      </trkpt>
      <trkpt lat="46.946163000538945" lon="16.204389994964004">
        <ele>245.27000000000001</ele>
        <time>2015-04-09T13:31:52Z</time>
      </trkpt>
      <trkpt lat="46.94617498666048" lon="16.204311037436128">
        <ele>245.27000000000001</ele>
        <time>2015-04-09T13:31:53Z</time>
      </trkpt>
      <trkpt lat="46.946178004145622" lon="16.204239036887884">
        <ele>245.27000000000001</ele>
        <time>2015-04-09T13:31:54Z</time>
      </trkpt>
      <trkpt lat="46.94617498666048" lon="16.204167958348989">
        <ele>244.789999999999992</ele>
        <time>2015-04-09T13:31:55Z</time>
      </trkpt>
      <trkpt lat="46.946170963346958" lon="16.204097969457507">
        <ele>245.27000000000001</ele>
        <time>2015-04-09T13:31:56Z</time>
      </trkpt>
      <trkpt lat="46.946158977225423" lon="16.204024963080883">
        <ele>245.75</ele>
        <time>2015-04-09T13:31:57Z</time>
      </trkpt>
      <trkpt lat="46.945995027199388" lon="16.202913019806147">
        <ele>244.789999999999992</ele>
        <time>2015-04-09T13:32:12Z</time>
      </trkpt>
      <trkpt lat="46.945960996672511" lon="16.202585035935044">
        <ele>244.310000000000002</ele>
        <time>2015-04-09T13:32:17Z</time>
      </trkpt>
      <trkpt lat="46.945789000019431" lon="16.201429003849626">
        <ele>245.75</ele>
        <time>2015-04-09T13:32:33Z</time>
      </trkpt>
      <trkpt lat="46.945663020014763" lon="16.200714027509093">
        <ele>245.75</ele>
        <time>2015-04-09T13:32:42Z</time>
      </trkpt>
      <trkpt lat="46.945643993094563" lon="16.20064202696085">
        <ele>245.75</ele>
        <time>2015-04-09T13:32:43Z</time>
      </trkpt>
      <trkpt lat="46.945182988420129" lon="16.199389016255736">
        <ele>245.27000000000001</ele>
        <time>2015-04-09T13:33:00Z</time>
      </trkpt>
      <trkpt lat="46.944709997624159" lon="16.198316970840096">
        <ele>245.27000000000001</ele>
        <time>2015-04-09T13:33:16Z</time>
      </trkpt>
      <trkpt lat="46.944279000163078" lon="16.197321033105254">
        <ele>245.75</ele>
        <time>2015-04-09T13:33:32Z</time>
      </trkpt>
      <trkpt lat="46.94385102018714" lon="16.195951011031866">
        <ele>245.27000000000001</ele>
        <time>2015-04-09T13:33:51Z</time>
      </trkpt>
      <trkpt lat="46.943686986342072" lon="16.194940991699696">
        <ele>245.75</ele>
        <time>2015-04-09T13:34:05Z</time>
      </trkpt>
      <trkpt lat="46.94368002936244" lon="16.194674028083682">
        <ele>245.75</ele>
        <time>2015-04-09T13:34:09Z</time>
      </trkpt>
      <trkpt lat="46.943686986342072" lon="16.194616025313735">
        <ele>245.27000000000001</ele>
        <time>2015-04-09T13:34:10Z</time>
      </trkpt>
      <trkpt lat="46.943695032969117" lon="16.194559028372169">
        <ele>245.75</ele>
        <time>2015-04-09T13:34:11Z</time>
      </trkpt>
      <trkpt lat="46.94370299577713" lon="16.194445034489036">
        <ele>246.719999999999999</ele>
        <time>2015-04-09T13:34:13Z</time>
      </trkpt>
      <trkpt lat="46.943634012714028" lon="16.194141022861004">
        <ele>246.22999999999999</ele>
        <time>2015-04-09T13:34:19Z</time>
      </trkpt>
      <trkpt lat="46.94353099912405" lon="16.193828964605927">
        <ele>246.719999999999999</ele>
        <time>2015-04-09T13:34:24Z</time>
      </trkpt>
      <trkpt lat="46.943504009395838" lon="16.193631989881396">
        <ele>246.719999999999999</ele>
        <time>2015-04-09T13:34:27Z</time>
      </trkpt>
      <trkpt lat="46.943447012454271" lon="16.193156987428665">
        <ele>247.199999999999989</ele>
        <time>2015-04-09T13:34:34Z</time>
      </trkpt>
      <trkpt lat="46.943236961960793" lon="16.192607972770929">
        <ele>247.199999999999989</ele>
        <time>2015-04-09T13:34:46Z</time>
      </trkpt>
      <trkpt lat="46.94290897808969" lon="16.191437020897865">
        <ele>247.199999999999989</ele>
        <time>2015-04-09T13:35:04Z</time>
      </trkpt>
      <trkpt lat="46.942489966750145" lon="16.190388025715947">
        <ele>248.159999999999997</ele>
        <time>2015-04-09T13:35:20Z</time>
      </trkpt>
      <trkpt lat="46.942374967038631" lon="16.190073033794761">
        <ele>248.159999999999997</ele>
        <time>2015-04-09T13:35:25Z</time>
      </trkpt>
      <trkpt lat="46.941994009539485" lon="16.188923036679626">
        <ele>248.159999999999997</ele>
        <time>2015-04-09T13:35:43Z</time>
      </trkpt>
      <trkpt lat="46.941718999296427" lon="16.188090965151787">
        <ele>248.639999999999986</ele>
        <time>2015-04-09T13:35:56Z</time>
      </trkpt>
      <trkpt lat="46.941642975434661" lon="16.187705984339118">
        <ele>248.159999999999997</ele>
        <time>2015-04-09T13:36:01Z</time>
      </trkpt>
      <trkpt lat="46.94155496545136" lon="16.186232026666403">
        <ele>248.159999999999997</ele>
        <time>2015-04-09T13:36:19Z</time>
      </trkpt>
      <trkpt lat="46.941325971856713" lon="16.185051016509533">
        <ele>248.159999999999997</ele>
        <time>2015-04-09T13:36:35Z</time>
      </trkpt>
      <trkpt lat="46.941078035160899" lon="16.183929014950991">
        <ele>248.159999999999997</ele>
        <time>2015-04-09T13:36:51Z</time>
      </trkpt>
      <trkpt lat="46.941054984927177" lon="16.183874029666185">
        <ele>248.159999999999997</ele>
        <time>2015-04-09T13:36:52Z</time>
      </trkpt>
      <trkpt lat="46.941032018512487" lon="16.183824995532632">
        <ele>248.159999999999997</ele>
        <time>2015-04-09T13:36:53Z</time>
      </trkpt>
      <trkpt lat="46.940960017964244" lon="16.183685017749667">
        <ele>248.159999999999997</ele>
        <time>2015-04-09T13:36:56Z</time>
      </trkpt>
      <trkpt lat="46.940929004922509" lon="16.183652998879552">
        <ele>248.159999999999997</ele>
        <time>2015-04-09T13:36:57Z</time>
      </trkpt>
      <trkpt lat="46.940822973847389" lon="16.183556020259857">
        <ele>247.680000000000007</ele>
        <time>2015-04-09T13:37:00Z</time>
      </trkpt>
      <trkpt lat="46.940804030746222" lon="16.183500029146671">
        <ele>247.680000000000007</ele>
        <time>2015-04-09T13:37:01Z</time>
      </trkpt>
      <trkpt lat="46.940806964412332" lon="16.183436997234821">
        <ele>247.680000000000007</ele>
        <time>2015-04-09T13:37:02Z</time>
      </trkpt>
      <trkpt lat="46.940819034352899" lon="16.183371031656861">
        <ele>247.680000000000007</ele>
        <time>2015-04-09T13:37:03Z</time>
      </trkpt>
      <trkpt lat="46.940834037959576" lon="16.183301964774728">
        <ele>247.680000000000007</ele>
        <time>2015-04-09T13:37:04Z</time>
      </trkpt>
      <trkpt lat="46.94084501825273" lon="16.183228036388755">
        <ele>248.159999999999997</ele>
        <time>2015-04-09T13:37:05Z</time>
      </trkpt>
      <trkpt lat="46.940849041566253" lon="16.183151006698608">
        <ele>247.680000000000007</ele>
        <time>2015-04-09T13:37:06Z</time>
      </trkpt>
      <trkpt lat="46.940849041566253" lon="16.183074982836843">
        <ele>247.680000000000007</ele>
        <time>2015-04-09T13:37:07Z</time>
      </trkpt>
      <trkpt lat="46.940849041566253" lon="16.182997031137347">
        <ele>247.680000000000007</ele>
        <time>2015-04-09T13:37:08Z</time>
      </trkpt>
      <trkpt lat="46.94084501825273" lon="16.182916983962059">
        <ele>247.680000000000007</ele>
        <time>2015-04-09T13:37:09Z</time>
      </trkpt>
      <trkpt lat="46.940746027976274" lon="16.181814009323716">
        <ele>248.159999999999997</ele>
        <time>2015-04-09T13:37:25Z</time>
      </trkpt>
      <trkpt lat="46.940680984407663" lon="16.181255020201206">
        <ele>248.639999999999986</ele>
        <time>2015-04-09T13:37:36Z</time>
      </trkpt>
      <trkpt lat="46.940593980252743" lon="16.180343991145492">
        <ele>249.120000000000005</ele>
        <time>2015-04-09T13:37:52Z</time>
      </trkpt>
      <trkpt lat="46.94054402410984" lon="16.179606970399618">
        <ele>249.599999999999994</ele>
        <time>2015-04-09T13:38:09Z</time>
      </trkpt>
      <trkpt lat="46.940535977482796" lon="16.179366996511817">
        <ele>250.080000000000013</ele>
        <time>2015-04-09T13:38:13Z</time>
      </trkpt>
      <trkpt lat="46.940529020503163" lon="16.179302036762238">
        <ele>249.599999999999994</ele>
        <time>2015-04-09T13:38:14Z</time>
      </trkpt>
      <trkpt lat="46.940520973876119" lon="16.179230036213994">
        <ele>249.599999999999994</ele>
        <time>2015-04-09T13:38:15Z</time>
      </trkpt>
      <trkpt lat="46.940514016896486" lon="16.179155018180609">
        <ele>250.080000000000013</ele>
        <time>2015-04-09T13:38:16Z</time>
      </trkpt>
      <trkpt lat="46.940514016896486" lon="16.179076982662082">
        <ele>250.080000000000013</ele>
        <time>2015-04-09T13:38:17Z</time>
      </trkpt>
      <trkpt lat="46.940520973876119" lon="16.177702015265822">
        <ele>250.080000000000013</ele>
        <time>2015-04-09T13:38:34Z</time>
      </trkpt>
      <trkpt lat="46.940764971077442" lon="16.176247000694275">
        <ele>250.560000000000002</ele>
        <time>2015-04-09T13:38:53Z</time>
      </trkpt>
      <trkpt lat="46.941044004634023" lon="16.174927018582821">
        <ele>251.039999999999992</ele>
        <time>2015-04-09T13:39:12Z</time>
      </trkpt>
      <trkpt lat="46.941169984638691" lon="16.17372496984899">
        <ele>251.52000000000001</ele>
        <time>2015-04-09T13:39:30Z</time>
      </trkpt>
      <trkpt lat="46.94120803847909" lon="16.172547983005643">
        <ele>252</ele>
        <time>2015-04-09T13:39:46Z</time>
      </trkpt>
      <trkpt lat="46.941184988245368" lon="16.172404987737536">
        <ele>251.52000000000001</ele>
        <time>2015-04-09T13:39:48Z</time>
      </trkpt>
      <trkpt lat="46.941138971596956" lon="16.172276996076107">
        <ele>251.52000000000001</ele>
        <time>2015-04-09T13:39:50Z</time>
      </trkpt>
      <trkpt lat="46.941096978262067" lon="16.172163002192974">
        <ele>251.039999999999992</ele>
        <time>2015-04-09T13:39:52Z</time>
      </trkpt>
      <trkpt lat="46.941101001575589" lon="16.172103993594646">
        <ele>251.039999999999992</ele>
        <time>2015-04-09T13:39:53Z</time>
      </trkpt>
      <trkpt lat="46.941123967990279" lon="16.172062000259757">
        <ele>251.039999999999992</ele>
        <time>2015-04-09T13:39:54Z</time>
      </trkpt>
      <trkpt lat="46.941280039027333" lon="16.171758994460106">
        <ele>252</ele>
        <time>2015-04-09T13:40:01Z</time>
      </trkpt>
      <trkpt lat="46.941288001835346" lon="16.171695962548256">
        <ele>251.52000000000001</ele>
        <time>2015-04-09T13:40:02Z</time>
      </trkpt>
      <trkpt lat="46.941288001835346" lon="16.171623039990664">
        <ele>251.52000000000001</ele>
        <time>2015-04-09T13:40:03Z</time>
      </trkpt>
      <trkpt lat="46.941283978521824" lon="16.170311020687222">
        <ele>250.560000000000002</ele>
        <time>2015-04-09T13:40:19Z</time>
      </trkpt>
      <trkpt lat="46.941406019032001" lon="16.168947033584118">
        <ele>250.080000000000013</ele>
        <time>2015-04-09T13:40:37Z</time>
      </trkpt>
      <trkpt lat="46.94151297211647" lon="16.168282013386488">
        <ele>250.080000000000013</ele>
        <time>2015-04-09T13:40:46Z</time>
      </trkpt>
      <trkpt lat="46.941745989024639" lon="16.167195970192552">
        <ele>250.560000000000002</ele>
        <time>2015-04-09T13:41:02Z</time>
      </trkpt>
      <trkpt lat="46.942024016752839" lon="16.166217969730496">
        <ele>251.039999999999992</ele>
        <time>2015-04-09T13:41:17Z</time>
      </trkpt>
      <trkpt lat="46.942398017272353" lon="16.164864962920547">
        <ele>251.039999999999992</ele>
        <time>2015-04-09T13:41:37Z</time>
      </trkpt>
      <trkpt lat="46.942691970616579" lon="16.163791995495558">
        <ele>251.52000000000001</ele>
        <time>2015-04-09T13:41:53Z</time>
      </trkpt>
      <trkpt lat="46.942963041365147" lon="16.162795973941684">
        <ele>251.039999999999992</ele>
        <time>2015-04-09T13:42:08Z</time>
      </trkpt>
      <trkpt lat="46.943011991679668" lon="16.162621965631843">
        <ele>251.52000000000001</ele>
        <time>2015-04-09T13:42:11Z</time>
      </trkpt>
      <trkpt lat="46.943089021369815" lon="16.162265986204147">
        <ele>252</ele>
        <time>2015-04-09T13:42:17Z</time>
      </trkpt>
      <trkpt lat="46.943110981956124" lon="16.162140006199479">
        <ele>251.52000000000001</ele>
        <time>2015-04-09T13:42:19Z</time>
      </trkpt>
      <trkpt lat="46.943137971684337" lon="16.162007991224527">
        <ele>251.52000000000001</ele>
        <time>2015-04-09T13:42:21Z</time>
      </trkpt>
      <trkpt lat="46.943146018311381" lon="16.161935990676284">
        <ele>252</ele>
        <time>2015-04-09T13:42:22Z</time>
      </trkpt>
      <trkpt lat="46.943176025524735" lon="16.161330984905362">
        <ele>251.52000000000001</ele>
        <time>2015-04-09T13:42:31Z</time>
      </trkpt>
      <trkpt lat="46.943172002211213" lon="16.161254961043596">
        <ele>252</ele>
        <time>2015-04-09T13:42:32Z</time>
      </trkpt>
      <trkpt lat="46.942969998344779" lon="16.160099012777209">
        <ele>252.960000000000008</ele>
        <time>2015-04-09T13:42:48Z</time>
      </trkpt>
      <trkpt lat="46.942703034728765" lon="16.159063009545207">
        <ele>252.47999999999999</ele>
        <time>2015-04-09T13:43:03Z</time>
      </trkpt>
      <trkpt lat="46.942467000335455" lon="16.158090960234404">
        <ele>252.960000000000008</ele>
        <time>2015-04-09T13:43:18Z</time>
      </trkpt>
      <trkpt lat="46.942253010347486" lon="16.157269030809402">
        <ele>252.960000000000008</ele>
        <time>2015-04-09T13:43:32Z</time>
      </trkpt>
      <trkpt lat="46.941895019263029" lon="16.156249959021807">
        <ele>253.930000000000007</ele>
        <time>2015-04-09T13:43:49Z</time>
      </trkpt>
      <trkpt lat="46.941428985446692" lon="16.155175985768437">
        <ele>254.409999999999997</ele>
        <time>2015-04-09T13:44:08Z</time>
      </trkpt>
      <trkpt lat="46.941090021282434" lon="16.154217012226582">
        <ele>254.409999999999997</ele>
        <time>2015-04-09T13:44:25Z</time>
      </trkpt>
      <trkpt lat="46.940964041277766" lon="16.153687024489045">
        <ele>255.370000000000005</ele>
        <time>2015-04-09T13:44:36Z</time>
      </trkpt>
      <trkpt lat="46.940891034901142" lon="16.153293997049332">
        <ele>255.370000000000005</ele>
        <time>2015-04-09T13:44:46Z</time>
      </trkpt>
      <trkpt lat="46.940903021022677" lon="16.153214033693075">
        <ele>255.370000000000005</ele>
        <time>2015-04-09T13:44:56Z</time>
      </trkpt>
      <trkpt lat="46.940906960517168" lon="16.15313901565969">
        <ele>255.370000000000005</ele>
        <time>2015-04-09T13:44:58Z</time>
      </trkpt>
      <trkpt lat="46.940898997709155" lon="16.153102973476052">
        <ele>255.849999999999994</ele>
        <time>2015-04-09T13:44:59Z</time>
      </trkpt>
      <trkpt lat="46.940876031294465" lon="16.153065003454685">
        <ele>255.370000000000005</ele>
        <time>2015-04-09T13:45:00Z</time>
      </trkpt>
      <trkpt lat="46.940577970817685" lon="16.152642974629998">
        <ele>255.370000000000005</ele>
        <time>2015-04-09T13:45:10Z</time>
      </trkpt>
      <trkpt lat="46.940445033833385" lon="16.152477012947202">
        <ele>254.889999999999986</ele>
        <time>2015-04-09T13:45:14Z</time>
      </trkpt>
      <trkpt lat="46.940120989456773" lon="16.151905031874776">
        <ele>253.930000000000007</ele>
        <time>2015-04-09T13:45:25Z</time>
      </trkpt>
      <trkpt lat="46.939856959506869" lon="16.151179997250438">
        <ele>253.439999999999998</ele>
        <time>2015-04-09T13:45:36Z</time>
      </trkpt>
      <trkpt lat="46.939715975895524" lon="16.150786969810724">
        <ele>253.930000000000007</ele>
        <time>2015-04-09T13:45:43Z</time>
      </trkpt>
      <trkpt lat="46.939465021714568" lon="16.150039974600077">
        <ele>252.960000000000008</ele>
        <time>2015-04-09T13:45:55Z</time>
      </trkpt>
      <trkpt lat="46.93944901227951" lon="16.149968979880214">
        <ele>252.47999999999999</ele>
        <time>2015-04-09T13:45:56Z</time>
      </trkpt>
      <trkpt lat="46.939143994823098" lon="16.14907999522984">
        <ele>252.47999999999999</ele>
        <time>2015-04-09T13:46:10Z</time>
      </trkpt>
      <trkpt lat="46.939013991504908" lon="16.148739019408822">
        <ele>252.960000000000008</ele>
        <time>2015-04-09T13:46:16Z</time>
      </trkpt>
      <trkpt lat="46.938994964584708" lon="16.148686967790127">
        <ele>252.960000000000008</ele>
        <time>2015-04-09T13:46:17Z</time>
      </trkpt>
      <trkpt lat="46.938976021483541" lon="16.148631982505322">
        <ele>252.960000000000008</ele>
        <time>2015-04-09T13:46:18Z</time>
      </trkpt>
      <trkpt lat="46.938946014270186" lon="16.14852000027895">
        <ele>252</ele>
        <time>2015-04-09T13:46:20Z</time>
      </trkpt>
      <trkpt lat="46.938926987349987" lon="16.14845797419548">
        <ele>252.47999999999999</ele>
        <time>2015-04-09T13:46:21Z</time>
      </trkpt>
      <trkpt lat="46.938904020935297" lon="16.148397037759423">
        <ele>252.960000000000008</ele>
        <time>2015-04-09T13:46:22Z</time>
      </trkpt>
      <trkpt lat="46.938769994303584" lon="16.148011973127723">
        <ele>252.47999999999999</ele>
        <time>2015-04-09T13:46:28Z</time>
      </trkpt>
      <trkpt lat="46.938473023474216" lon="16.147134974598885">
        <ele>252.47999999999999</ele>
        <time>2015-04-09T13:46:43Z</time>
      </trkpt>
      <trkpt lat="46.938174962997437" lon="16.146260993555188">
        <ele>252.47999999999999</ele>
        <time>2015-04-09T13:46:57Z</time>
      </trkpt>
      <trkpt lat="46.938151996582747" lon="16.146210031583905">
        <ele>252.960000000000008</ele>
        <time>2015-04-09T13:46:58Z</time>
      </trkpt>
      <trkpt lat="46.938129030168056" lon="16.146162003278732">
        <ele>252.47999999999999</ele>
        <time>2015-04-09T13:46:59Z</time>
      </trkpt>
      <trkpt lat="46.938114026561379" lon="16.146111041307449">
        <ele>252.960000000000008</ele>
        <time>2015-04-09T13:47:00Z</time>
      </trkpt>
      <trkpt lat="46.93809499964118" lon="16.146053038537502">
        <ele>252.47999999999999</ele>
        <time>2015-04-09T13:47:01Z</time>
      </trkpt>
      <trkpt lat="46.938075972720981" lon="16.145994029939175">
        <ele>252.47999999999999</ele>
        <time>2015-04-09T13:47:02Z</time>
      </trkpt>
      <trkpt lat="46.938057029619813" lon="16.145940972492099">
        <ele>252.47999999999999</ele>
        <time>2015-04-09T13:47:03Z</time>
      </trkpt>
      <trkpt lat="46.938038002699614" lon="16.145884981378913">
        <ele>252.47999999999999</ele>
        <time>2015-04-09T13:47:04Z</time>
      </trkpt>
      <trkpt lat="46.938022999092937" lon="16.145829996094108">
        <ele>252.960000000000008</ele>
        <time>2015-04-09T13:47:05Z</time>
      </trkpt>
      <trkpt lat="46.937798028811812" lon="16.145249968394637">
        <ele>252</ele>
        <time>2015-04-09T13:47:17Z</time>
      </trkpt>
      <trkpt lat="46.937752012163401" lon="16.145150978118181">
        <ele>252</ele>
        <time>2015-04-09T13:47:19Z</time>
      </trkpt>
      <trkpt lat="46.937641035765409" lon="16.14482500590384">
        <ele>252</ele>
        <time>2015-04-09T13:47:24Z</time>
      </trkpt>
      <trkpt lat="46.937613962218165" lon="16.144756022840738">
        <ele>252.47999999999999</ele>
        <time>2015-04-09T13:47:25Z</time>
      </trkpt>
      <trkpt lat="46.937240967527032" lon="16.143657993525267">
        <ele>252.47999999999999</ele>
        <time>2015-04-09T13:47:42Z</time>
      </trkpt>
      <trkpt lat="46.937156980857253" lon="16.143393963575363">
        <ele>252.960000000000008</ele>
        <time>2015-04-09T13:47:46Z</time>
      </trkpt>
      <trkpt lat="46.937056984752417" lon="16.142749981954694">
        <ele>252.47999999999999</ele>
        <time>2015-04-09T13:47:56Z</time>
      </trkpt>
      <trkpt lat="46.937050027772784" lon="16.142136007547379">
        <ele>253.439999999999998</ele>
        <time>2015-04-09T13:48:06Z</time>
      </trkpt>
      <trkpt lat="46.937068970873952" lon="16.142097031697631">
        <ele>252.960000000000008</ele>
        <time>2015-04-09T13:48:07Z</time>
      </trkpt>
      <trkpt lat="46.937087997794151" lon="16.142069036141038">
        <ele>253.439999999999998</ele>
        <time>2015-04-09T13:48:08Z</time>
      </trkpt>
      <trkpt lat="46.937098978087306" lon="16.142035005614161">
        <ele>253.439999999999998</ele>
        <time>2015-04-09T13:48:09Z</time>
      </trkpt>
      <trkpt lat="46.937098978087306" lon="16.141994018107653">
        <ele>253.439999999999998</ele>
        <time>2015-04-09T13:48:10Z</time>
      </trkpt>
      <trkpt lat="46.937103001400828" lon="16.141957975924015">
        <ele>252.960000000000008</ele>
        <time>2015-04-09T13:48:11Z</time>
      </trkpt>
      <trkpt lat="46.937103001400828" lon="16.141922017559409">
        <ele>253.439999999999998</ele>
        <time>2015-04-09T13:48:12Z</time>
      </trkpt>
      <trkpt lat="46.937098978087306" lon="16.141882035881281">
        <ele>252.960000000000008</ele>
        <time>2015-04-09T13:48:13Z</time>
      </trkpt>
      <trkpt lat="46.937095960602164" lon="16.14183803088963">
        <ele>253.439999999999998</ele>
        <time>2015-04-09T13:48:14Z</time>
      </trkpt>
      <trkpt lat="46.937114987522364" lon="16.141555979847908">
        <ele>253.930000000000007</ele>
        <time>2015-04-09T13:48:20Z</time>
      </trkpt>
      <trkpt lat="46.937138037756085" lon="16.14151599816978">
        <ele>253.439999999999998</ele>
        <time>2015-04-09T13:48:21Z</time>
      </trkpt>
      <trkpt lat="46.937167961150408" lon="16.141484985128045">
        <ele>253.930000000000007</ele>
        <time>2015-04-09T13:48:22Z</time>
      </trkpt>
      <trkpt lat="46.937201991677284" lon="16.141469981521368">
        <ele>253.439999999999998</ele>
        <time>2015-04-09T13:48:23Z</time>
      </trkpt>
      <trkpt lat="46.937233004719019" lon="16.141469981521368">
        <ele>253.930000000000007</ele>
        <time>2015-04-09T13:48:24Z</time>
      </trkpt>
      <trkpt lat="46.937267035245895" lon="16.141478028148413">
        <ele>253.930000000000007</ele>
        <time>2015-04-09T13:48:25Z</time>
      </trkpt>
      <trkpt lat="46.937255971133709" lon="16.140800016000867">
        <ele>250.560000000000002</ele>
        <time>2015-04-09T14:06:03Z</time>
      </trkpt>
      <trkpt lat="46.93704198114574" lon="16.140728015452623">
        <ele>250.080000000000013</ele>
        <time>2015-04-09T14:06:13Z</time>
      </trkpt>
      <trkpt lat="46.936993030831218" lon="16.141188014298677">
        <ele>250.080000000000013</ele>
        <time>2015-04-09T14:06:23Z</time>
      </trkpt>
      <trkpt lat="46.93697702139616" lon="16.141854962334037">
        <ele>250.080000000000013</ele>
        <time>2015-04-09T14:06:37Z</time>
      </trkpt>
      <trkpt lat="46.936900997534394" lon="16.142472960054874">
        <ele>250.080000000000013</ele>
        <time>2015-04-09T14:06:49Z</time>
      </trkpt>
      <trkpt lat="46.936927987262607" lon="16.142674963921309">
        <ele>250.080000000000013</ele>
        <time>2015-04-09T14:06:52Z</time>
      </trkpt>
      <trkpt lat="46.936962017789483" lon="16.142747970297933">
        <ele>250.080000000000013</ele>
        <time>2015-04-09T14:06:53Z</time>
      </trkpt>
      <trkpt lat="46.93701901473105" lon="16.143347024917603">
        <ele>250.560000000000002</ele>
        <time>2015-04-09T14:07:05Z</time>
      </trkpt>
      <trkpt lat="46.936679966747761" lon="16.14359999075532">
        <ele>250.080000000000013</ele>
        <time>2015-04-09T14:07:16Z</time>
      </trkpt>
      <trkpt lat="46.936641996726394" lon="16.14362102933228">
        <ele>250.080000000000013</ele>
        <time>2015-04-09T14:07:17Z</time>
      </trkpt>
      <trkpt lat="46.936600003391504" lon="16.143640978261828">
        <ele>250.560000000000002</ele>
        <time>2015-04-09T14:07:18Z</time>
      </trkpt>
      <trkpt lat="46.936558010056615" lon="16.143668973818421">
        <ele>250.080000000000013</ele>
        <time>2015-04-09T14:07:19Z</time>
      </trkpt>
      <trkpt lat="46.936522973701358" lon="16.143703004345298">
        <ele>250.080000000000013</ele>
        <time>2015-04-09T14:07:20Z</time>
      </trkpt>
      <trkpt lat="46.936194989830256" lon="16.143963010981679">
        <ele>249.599999999999994</ele>
        <time>2015-04-09T14:07:30Z</time>
      </trkpt>
      <trkpt lat="46.935916962102056" lon="16.144414963200688">
        <ele>249.120000000000005</ele>
        <time>2015-04-09T14:07:41Z</time>
      </trkpt>
      <trkpt lat="46.935814032331109" lon="16.144629037007689">
        <ele>249.599999999999994</ele>
        <time>2015-04-09T14:07:45Z</time>
      </trkpt>
      <trkpt lat="46.93579500541091" lon="16.144686033949256">
        <ele>249.599999999999994</ele>
        <time>2015-04-09T14:07:46Z</time>
      </trkpt>
      <trkpt lat="46.935726022347808" lon="16.145066991448402">
        <ele>249.599999999999994</ele>
        <time>2015-04-09T14:07:52Z</time>
      </trkpt>
      <trkpt lat="46.935726022347808" lon="16.145137986168265">
        <ele>249.599999999999994</ele>
        <time>2015-04-09T14:07:53Z</time>
      </trkpt>
      <trkpt lat="46.935726022347808" lon="16.145403021946549">
        <ele>249.120000000000005</ele>
        <time>2015-04-09T14:07:57Z</time>
      </trkpt>
      <trkpt lat="46.935738008469343" lon="16.145654981955886">
        <ele>249.120000000000005</ele>
        <time>2015-04-09T14:08:01Z</time>
      </trkpt>
      <trkpt lat="46.935741025954485" lon="16.145718013867736">
        <ele>249.120000000000005</ele>
        <time>2015-04-09T14:08:02Z</time>
      </trkpt>
      <trkpt lat="46.935759969055653" lon="16.145908031612635">
        <ele>249.120000000000005</ele>
        <time>2015-04-09T14:08:05Z</time>
      </trkpt>
      <trkpt lat="46.93577597849071" lon="16.146029988303781">
        <ele>249.120000000000005</ele>
        <time>2015-04-09T14:08:07Z</time>
      </trkpt>
      <trkpt lat="46.935786958783865" lon="16.146336011588573">
        <ele>248.639999999999986</ele>
        <time>2015-04-09T14:08:12Z</time>
      </trkpt>
      <trkpt lat="46.93577597849071" lon="16.146397031843662">
        <ele>248.639999999999986</ele>
        <time>2015-04-09T14:08:13Z</time>
      </trkpt>
      <trkpt lat="46.935763992369175" lon="16.146450005471706">
        <ele>248.639999999999986</ele>
        <time>2015-04-09T14:08:14Z</time>
      </trkpt>
      <trkpt lat="46.935748988762498" lon="16.146496022120118">
        <ele>248.639999999999986</ele>
        <time>2015-04-09T14:08:15Z</time>
      </trkpt>
      <trkpt lat="46.935729961842299" lon="16.14654497243464">
        <ele>249.120000000000005</ele>
        <time>2015-04-09T14:08:16Z</time>
      </trkpt>
      <trkpt lat="46.935531981289387" lon="16.147055011242628">
        <ele>250.560000000000002</ele>
        <time>2015-04-09T14:08:28Z</time>
      </trkpt>
      <trkpt lat="46.935183964669704" lon="16.147162970155478">
        <ele>249.599999999999994</ele>
        <time>2015-04-09T14:08:38Z</time>
      </trkpt>
      <trkpt lat="46.934692030772567" lon="16.14753202535212">
        <ele>250.080000000000013</ele>
        <time>2015-04-09T14:08:51Z</time>
      </trkpt>
      <trkpt lat="46.934242006391287" lon="16.148310033604503">
        <ele>249.120000000000005</ele>
        <time>2015-04-09T14:09:05Z</time>
      </trkpt>
      <trkpt lat="46.934192972257733" lon="16.148545984178782">
        <ele>248.639999999999986</ele>
        <time>2015-04-09T14:09:08Z</time>
      </trkpt>
      <trkpt lat="46.934155002236366" lon="16.149770999327302">
        <ele>249.120000000000005</ele>
        <time>2015-04-09T14:09:23Z</time>
      </trkpt>
      <trkpt lat="46.934147039428353" lon="16.150008961558342">
        <ele>249.120000000000005</ele>
        <time>2015-04-09T14:09:26Z</time>
      </trkpt>
      <trkpt lat="46.933974958956242" lon="16.151056028902531">
        <ele>248.639999999999986</ele>
        <time>2015-04-09T14:09:41Z</time>
      </trkpt>
      <trkpt lat="46.933860965073109" lon="16.152209965512156">
        <ele>248.639999999999986</ele>
        <time>2015-04-09T14:09:59Z</time>
      </trkpt>
      <trkpt lat="46.933853002265096" lon="16.152415992692113">
        <ele>248.159999999999997</ele>
        <time>2015-04-09T14:10:02Z</time>
      </trkpt>
      <trkpt lat="46.933806985616684" lon="16.152770966291428">
        <ele>247.680000000000007</ele>
        <time>2015-04-09T14:10:07Z</time>
      </trkpt>
      <trkpt lat="46.933739008381963" lon="16.153029967099428">
        <ele>247.680000000000007</ele>
        <time>2015-04-09T14:10:11Z</time>
      </trkpt>
      <trkpt lat="46.933715958148241" lon="16.153092999011278">
        <ele>247.680000000000007</ele>
        <time>2015-04-09T14:10:12Z</time>
      </trkpt>
      <trkpt lat="46.933600958436728" lon="16.15337798371911">
        <ele>247.680000000000007</ele>
        <time>2015-04-09T14:10:17Z</time>
      </trkpt>
      <trkpt lat="46.93328496068716" lon="16.153790960088372">
        <ele>247.680000000000007</ele>
        <time>2015-04-09T14:10:27Z</time>
      </trkpt>
      <trkpt lat="46.933246990665793" lon="16.153819961473346">
        <ele>247.680000000000007</ele>
        <time>2015-04-09T14:10:28Z</time>
      </trkpt>
      <trkpt lat="46.932498989626765" lon="16.154139982536435">
        <ele>247.680000000000007</ele>
        <time>2015-04-09T14:10:46Z</time>
      </trkpt>
      <trkpt lat="46.931717041879892" lon="16.154490010812879">
        <ele>247.680000000000007</ele>
        <time>2015-04-09T14:11:05Z</time>
      </trkpt>
      <trkpt lat="46.931293001398444" lon="16.154700983315706">
        <ele>247.199999999999989</ele>
        <time>2015-04-09T14:11:15Z</time>
      </trkpt>
      <trkpt lat="46.931255031377077" lon="16.154724033549428">
        <ele>246.719999999999999</ele>
        <time>2015-04-09T14:11:16Z</time>
      </trkpt>
      <trkpt lat="46.930610965937376" lon="16.154960989952087">
        <ele>246.719999999999999</ele>
        <time>2015-04-09T14:11:33Z</time>
      </trkpt>
      <trkpt lat="46.930149039253592" lon="16.155118988826871">
        <ele>247.199999999999989</ele>
        <time>2015-04-09T14:11:47Z</time>
      </trkpt>
      <trkpt lat="46.930053988471627" lon="16.155153019353747">
        <ele>247.199999999999989</ele>
        <time>2015-04-09T14:12:53Z</time>
      </trkpt>
      <trkpt lat="46.929896995425224" lon="16.155111026018858">
        <ele>247.680000000000007</ele>
        <time>2015-04-09T14:13:02Z</time>
      </trkpt>
      <trkpt lat="46.929459040984511" lon="16.155170034617186">
        <ele>247.199999999999989</ele>
        <time>2015-04-09T14:13:17Z</time>
      </trkpt>
      <trkpt lat="46.929409001022577" lon="16.155175985768437">
        <ele>247.680000000000007</ele>
        <time>2015-04-09T14:13:29Z</time>
      </trkpt>
      <trkpt lat="46.9294130243361" lon="16.155177997425199">
        <ele>247.680000000000007</ele>
        <time>2015-04-09T14:14:11Z</time>
      </trkpt>
      <trkpt lat="46.929206997156143" lon="16.155229965224862">
        <ele>246.719999999999999</ele>
        <time>2015-04-09T14:14:22Z</time>
      </trkpt>
      <trkpt lat="46.928505012765527" lon="16.155443033203483">
        <ele>246.22999999999999</ele>
        <time>2015-04-09T14:14:37Z</time>
      </trkpt>
      <trkpt lat="46.928337039425969" lon="16.155580999329686">
        <ele>247.199999999999989</ele>
        <time>2015-04-09T14:14:41Z</time>
      </trkpt>
      <trkpt lat="46.928120031952858" lon="16.155857015401125">
        <ele>247.680000000000007</ele>
        <time>2015-04-09T14:14:47Z</time>
      </trkpt>
      <trkpt lat="46.928096981719136" lon="16.155908983200788">
        <ele>247.680000000000007</ele>
        <time>2015-04-09T14:14:48Z</time>
      </trkpt>
      <trkpt lat="46.928069991990924" lon="16.155958017334342">
        <ele>247.199999999999989</ele>
        <time>2015-04-09T14:14:49Z</time>
      </trkpt>
      <trkpt lat="46.927963038906455" lon="16.156157003715634">
        <ele>247.199999999999989</ele>
        <time>2015-04-09T14:14:53Z</time>
      </trkpt>
      <trkpt lat="46.927661960944533" lon="16.156517006456852">
        <ele>246.22999999999999</ele>
        <time>2015-04-09T14:15:01Z</time>
      </trkpt>
      <trkpt lat="46.927581997588277" lon="16.156566962599754">
        <ele>246.22999999999999</ele>
        <time>2015-04-09T14:15:03Z</time>
      </trkpt>
      <trkpt lat="46.92735300399363" lon="16.156603004783392">
        <ele>247.199999999999989</ele>
        <time>2015-04-09T14:15:13Z</time>
      </trkpt>
      <trkpt lat="46.92735300399363" lon="16.156603004783392">
        <ele>247.199999999999989</ele>
        <time>2015-04-09T14:15:20Z</time>
      </trkpt>
      <trkpt lat="46.927338000386953" lon="16.156611973419785">
        <ele>247.199999999999989</ele>
        <time>2015-04-09T14:15:21Z</time>
      </trkpt>
      <trkpt lat="46.927321990951896" lon="16.15662002004683">
        <ele>248.159999999999997</ele>
        <time>2015-04-09T14:15:22Z</time>
      </trkpt>
      <trkpt lat="46.927296007052064" lon="16.156625971198082">
        <ele>248.159999999999997</ele>
        <time>2015-04-09T14:15:23Z</time>
      </trkpt>
      <trkpt lat="46.927269017323852" lon="16.156631000339985">
        <ele>247.680000000000007</ele>
        <time>2015-04-09T14:15:24Z</time>
      </trkpt>
      <trkpt lat="46.92724596709013" lon="16.156638963147998">
        <ele>247.199999999999989</ele>
        <time>2015-04-09T14:15:25Z</time>
      </trkpt>
      <trkpt lat="46.927020996809006" lon="16.156693026423454">
        <ele>247.199999999999989</ele>
        <time>2015-04-09T14:15:32Z</time>
      </trkpt>
      <trkpt lat="46.926983026787639" lon="16.156699983403087">
        <ele>247.680000000000007</ele>
        <time>2015-04-09T14:15:33Z</time>
      </trkpt>
      <trkpt lat="46.926941033452749" lon="16.156710041686893">
        <ele>248.159999999999997</ele>
        <time>2015-04-09T14:15:34Z</time>
      </trkpt>
      <trkpt lat="46.926735006272793" lon="16.156775001436472">
        <ele>249.120000000000005</ele>
        <time>2015-04-09T14:15:39Z</time>
      </trkpt>
      <trkpt lat="46.926697036251426" lon="16.156783970072865">
        <ele>249.120000000000005</ele>
        <time>2015-04-09T14:15:40Z</time>
      </trkpt>
      <trkpt lat="46.9262770190835" lon="16.157066021114588">
        <ele>251.52000000000001</ele>
        <time>2015-04-09T14:15:52Z</time>
      </trkpt>
      <trkpt lat="46.926196971908212" lon="16.157176997512579">
        <ele>251.039999999999992</ele>
        <time>2015-04-09T14:15:55Z</time>
      </trkpt>
      <trkpt lat="46.926066968590021" lon="16.15752199664712">
        <ele>251.52000000000001</ele>
        <time>2015-04-09T14:16:04Z</time>
      </trkpt>
      <trkpt lat="46.92612798884511" lon="16.157999010756612">
        <ele>252.960000000000008</ele>
        <time>2015-04-09T14:16:15Z</time>
      </trkpt>
      <trkpt lat="46.925987005233765" lon="16.158566968515515">
        <ele>253.930000000000007</ele>
        <time>2015-04-09T14:16:27Z</time>
      </trkpt>
      <trkpt lat="46.925769997760653" lon="16.158557999879122">
        <ele>254.409999999999997</ele>
        <time>2015-04-09T14:16:37Z</time>
      </trkpt>
      <trkpt lat="46.925484007224441" lon="16.158173019066453">
        <ele>254.409999999999997</ele>
        <time>2015-04-09T14:16:47Z</time>
      </trkpt>
      <trkpt lat="46.924914959818125" lon="16.157504981383681">
        <ele>254.409999999999997</ele>
        <time>2015-04-09T14:17:02Z</time>
      </trkpt>
      <trkpt lat="46.92488101311028" lon="16.157449996098876">
        <ele>254.409999999999997</ele>
        <time>2015-04-09T14:17:03Z</time>
      </trkpt>
      <trkpt lat="46.924850000068545" lon="16.157388975843787">
        <ele>254.409999999999997</ele>
        <time>2015-04-09T14:17:04Z</time>
      </trkpt>
      <trkpt lat="46.924477005377412" lon="16.156549025326967">
        <ele>255.370000000000005</ele>
        <time>2015-04-09T14:17:18Z</time>
      </trkpt>
      <trkpt lat="46.924396958202124" lon="16.156406030058861">
        <ele>255.849999999999994</ele>
        <time>2015-04-09T14:17:21Z</time>
      </trkpt>
      <trkpt lat="46.924014994874597" lon="16.155773028731346">
        <ele>257.29000000000002</ele>
        <time>2015-04-09T14:17:36Z</time>
      </trkpt>
      <trkpt lat="46.923992028459907" lon="16.155717959627509">
        <ele>256.810000000000002</ele>
        <time>2015-04-09T14:17:37Z</time>
      </trkpt>
      <trkpt lat="46.923682987689972" lon="16.154810031875968">
        <ele>258.730000000000018</ele>
        <time>2015-04-09T14:17:53Z</time>
      </trkpt>
      <trkpt lat="46.923423986881971" lon="16.153833037242293">
        <ele>258.25</ele>
        <time>2015-04-09T14:18:08Z</time>
      </trkpt>
      <trkpt lat="46.923298006877303" lon="16.15292401984334">
        <ele>258.25</ele>
        <time>2015-04-09T14:18:24Z</time>
      </trkpt>
      <trkpt lat="46.923179989680648" lon="16.152022965252399">
        <ele>258.25</ele>
        <time>2015-04-09T14:18:36Z</time>
      </trkpt>
      <trkpt lat="46.923027019947767" lon="16.150643974542618">
        <ele>258.25</ele>
        <time>2015-04-09T14:18:54Z</time>
      </trkpt>
      <trkpt lat="46.923064989969134" lon="16.149333966895938">
        <ele>256.810000000000002</ele>
        <time>2015-04-09T14:19:10Z</time>
      </trkpt>
      <trkpt lat="46.922893999144435" lon="16.148104006424546">
        <ele>255.849999999999994</ele>
        <time>2015-04-09T14:19:25Z</time>
      </trkpt>
      <trkpt lat="46.922867009416223" lon="16.147942990064621">
        <ele>255.849999999999994</ele>
        <time>2015-04-09T14:19:27Z</time>
      </trkpt>
      <trkpt lat="46.922607002779841" lon="16.146784024313092">
        <ele>255.849999999999994</ele>
        <time>2015-04-09T14:19:42Z</time>
      </trkpt>
      <trkpt lat="46.922424025833607" lon="16.14574802108109">
        <ele>256.329999999999984</ele>
        <time>2015-04-09T14:19:56Z</time>
      </trkpt>
      <trkpt lat="46.92211196757853" lon="16.144677987322211">
        <ele>257.769999999999982</ele>
        <time>2015-04-09T14:20:13Z</time>
      </trkpt>
      <trkpt lat="46.921993028372526" lon="16.144433990120888">
        <ele>258.25</ele>
        <time>2015-04-09T14:20:18Z</time>
      </trkpt>
      <trkpt lat="46.921875011175871" lon="16.14418001845479">
        <ele>258.730000000000018</ele>
        <time>2015-04-09T14:20:23Z</time>
      </trkpt>
      <trkpt lat="46.921653980389237" lon="16.143421037122607">
        <ele>258.25</ele>
        <time>2015-04-09T14:20:37Z</time>
      </trkpt>
      <trkpt lat="46.921543003991246" lon="16.142608998343349">
        <ele>259.20999999999998</ele>
        <time>2015-04-09T14:20:52Z</time>
      </trkpt>
      <trkpt lat="46.921505033969879" lon="16.142228962853551">
        <ele>259.20999999999998</ele>
        <time>2015-04-09T14:21:02Z</time>
      </trkpt>
      <trkpt lat="46.921505033969879" lon="16.142228962853551">
        <ele>258.730000000000018</ele>
        <time>2015-04-09T14:21:18Z</time>
      </trkpt>
      <trkpt lat="46.921496987342834" lon="16.142208008095622">
        <ele>259.20999999999998</ele>
        <time>2015-04-09T14:21:19Z</time>
      </trkpt>
      <trkpt lat="46.921496987342834" lon="16.142185041680932">
        <ele>259.20999999999998</ele>
        <time>2015-04-09T14:21:20Z</time>
      </trkpt>
      <trkpt lat="46.921493969857693" lon="16.142155034467578">
        <ele>259.20999999999998</ele>
        <time>2015-04-09T14:21:21Z</time>
      </trkpt>
      <trkpt lat="46.921490030363202" lon="16.142116980627179">
        <ele>258.730000000000018</ele>
        <time>2015-04-09T14:21:22Z</time>
      </trkpt>
      <trkpt lat="46.921371007338166" lon="16.141513986513019">
        <ele>258.730000000000018</ele>
        <time>2015-04-09T14:21:34Z</time>
      </trkpt>
      <trkpt lat="46.921309987083077" lon="16.140864975750446">
        <ele>259.20999999999998</ele>
        <time>2015-04-09T14:21:47Z</time>
      </trkpt>
      <trkpt lat="46.921351980417967" lon="16.140161985531449">
        <ele>260.170000000000016</ele>
        <time>2015-04-09T14:21:59Z</time>
      </trkpt>
      <trkpt lat="46.921261036768556" lon="16.139659993350506">
        <ele>260.649999999999977</ele>
        <time>2015-04-09T14:22:11Z</time>
      </trkpt>
      <trkpt lat="46.920982003211975" lon="16.139499982818961">
        <ele>261.139999999999986</ele>
        <time>2015-04-09T14:22:21Z</time>
      </trkpt>
      <trkpt lat="46.92054002545774" lon="16.139364028349519">
        <ele>262.100000000000023</ele>
        <time>2015-04-09T14:22:33Z</time>
      </trkpt>
      <trkpt lat="46.920280018821359" lon="16.139015005901456">
        <ele>264.980000000000018</ele>
        <time>2015-04-09T14:22:43Z</time>
      </trkpt>
      <trkpt lat="46.920094024389982" lon="16.138633964583278">
        <ele>268.350000000000023</ele>
        <time>2015-04-09T14:22:56Z</time>
      </trkpt>
      <trkpt lat="46.919964021071792" lon="16.138311009854078">
        <ele>270.269999999999982</ele>
        <time>2015-04-09T14:23:07Z</time>
      </trkpt>
      <trkpt lat="46.919861007481813" lon="16.138000041246414">
        <ele>272.189999999999998</ele>
        <time>2015-04-09T14:23:18Z</time>
      </trkpt>
      <trkpt lat="46.919753970578313" lon="16.137568959966302">
        <ele>274.110000000000014</ele>
        <time>2015-04-09T14:23:31Z</time>
      </trkpt>
      <trkpt lat="46.919696973636746" lon="16.13730400800705">
        <ele>276.04000000000002</ele>
        <time>2015-04-09T14:23:40Z</time>
      </trkpt>
      <trkpt lat="46.919566970318556" lon="16.136877033859491">
        <ele>277.480000000000018</ele>
        <time>2015-04-09T14:23:53Z</time>
      </trkpt>
      <trkpt lat="46.919491030275822" lon="16.136722974479198">
        <ele>278.439999999999998</ele>
        <time>2015-04-09T14:23:59Z</time>
      </trkpt>
      <trkpt lat="46.919482983648777" lon="16.13670201972127">
        <ele>278.439999999999998</ele>
        <time>2015-04-09T14:24:00Z</time>
      </trkpt>
      <trkpt lat="46.919476026669145" lon="16.136677041649818">
        <ele>278.439999999999998</ele>
        <time>2015-04-09T14:24:01Z</time>
      </trkpt>
      <trkpt lat="46.9194679800421" lon="16.136646028608084">
        <ele>278.920000000000016</ele>
        <time>2015-04-09T14:24:02Z</time>
      </trkpt>
      <trkpt lat="46.919452976435423" lon="16.13661602139473">
        <ele>278.920000000000016</ele>
        <time>2015-04-09T14:24:03Z</time>
      </trkpt>
      <trkpt lat="46.919436967000365" lon="16.136582996696234">
        <ele>278.920000000000016</ele>
        <time>2015-04-09T14:24:04Z</time>
      </trkpt>
      <trkpt lat="46.919425986707211" lon="16.13655298948288">
        <ele>278.920000000000016</ele>
        <time>2015-04-09T14:24:05Z</time>
      </trkpt>
      <trkpt lat="46.919247033074498" lon="16.13620899617672">
        <ele>281.319999999999993</ele>
        <time>2015-04-09T14:24:17Z</time>
      </trkpt>
      <trkpt lat="46.919124992564321" lon="16.13588897511363">
        <ele>282.769999999999982</ele>
        <time>2015-04-09T14:24:28Z</time>
      </trkpt>
      <trkpt lat="46.919032959267497" lon="16.135710021480918">
        <ele>283.25</ele>
        <time>2015-04-09T14:24:39Z</time>
      </trkpt>
      <trkpt lat="46.919024996459484" lon="16.135686971247196">
        <ele>283.730000000000018</ele>
        <time>2015-04-09T14:24:40Z</time>
      </trkpt>
      <trkpt lat="46.919014016166329" lon="16.135661993175745">
        <ele>283.25</ele>
        <time>2015-04-09T14:24:41Z</time>
      </trkpt>
      <trkpt lat="46.91899498924613" lon="16.135626034811139">
        <ele>283.730000000000018</ele>
        <time>2015-04-09T14:24:43Z</time>
      </trkpt>
      <trkpt lat="46.918990965932608" lon="16.135617988184094">
        <ele>282.769999999999982</ele>
        <time>2015-04-09T14:24:57Z</time>
      </trkpt>
      <trkpt lat="46.918990965932608" lon="16.135617988184094">
        <ele>283.25</ele>
        <time>2015-04-09T14:25:18Z</time>
      </trkpt>
      <trkpt lat="46.918979985639453" lon="16.135622011497617">
        <ele>283.730000000000018</ele>
        <time>2015-04-09T14:25:39Z</time>
      </trkpt>
      <trkpt lat="46.918983003124595" lon="16.135612037032843">
        <ele>283.730000000000018</ele>
        <time>2015-04-09T14:25:54Z</time>
      </trkpt>
      <trkpt lat="46.919021978974342" lon="16.135615976527333">
        <ele>282.769999999999982</ele>
        <time>2015-04-09T14:25:58Z</time>
      </trkpt>
      <trkpt lat="46.919041005894542" lon="16.135612037032843">
        <ele>283.25</ele>
        <time>2015-04-09T14:25:59Z</time>
      </trkpt>
      <trkpt lat="46.919060032814741" lon="16.135595021769404">
        <ele>283.25</ele>
        <time>2015-04-09T14:26:00Z</time>
      </trkpt>
      <trkpt lat="46.919078975915909" lon="16.135570965707302">
        <ele>282.769999999999982</ele>
        <time>2015-04-09T14:26:01Z</time>
      </trkpt>
      <trkpt lat="46.919093979522586" lon="16.13554397597909">
        <ele>282.769999999999982</ele>
        <time>2015-04-09T14:26:02Z</time>
      </trkpt>
      <trkpt lat="46.919105965644121" lon="16.135511035099626">
        <ele>283.25</ele>
        <time>2015-04-09T14:26:03Z</time>
      </trkpt>
      <trkpt lat="46.919113006442785" lon="16.135472981259227">
        <ele>283.25</ele>
        <time>2015-04-09T14:26:04Z</time>
      </trkpt>
      <trkpt lat="46.919120969250798" lon="16.135432999581099">
        <ele>282.769999999999982</ele>
        <time>2015-04-09T14:26:05Z</time>
      </trkpt>
      <trkpt lat="46.919124992564321" lon="16.135388994589448">
        <ele>283.25</ele>
        <time>2015-04-09T14:26:06Z</time>
      </trkpt>
      <trkpt lat="46.919132033362985" lon="16.135347001254559">
        <ele>282.769999999999982</ele>
        <time>2015-04-09T14:26:07Z</time>
      </trkpt>
      <trkpt lat="46.919170003384352" lon="16.135085988789797">
        <ele>281.800000000000011</ele>
        <time>2015-04-09T14:26:14Z</time>
      </trkpt>
      <trkpt lat="46.919186012819409" lon="16.135072996839881">
        <ele>281.800000000000011</ele>
        <time>2015-04-09T14:26:15Z</time>
      </trkpt>
      <trkpt lat="46.919196993112564" lon="16.135058999061584">
        <ele>281.319999999999993</ele>
        <time>2015-04-09T14:26:16Z</time>
      </trkpt>
      <trkpt lat="46.919208979234099" lon="16.13504801876843">
        <ele>281.800000000000011</ele>
        <time>2015-04-09T14:26:29Z</time>
      </trkpt>
      <trkpt lat="46.919208979234099" lon="16.13504801876843">
        <ele>281.800000000000011</ele>
        <time>2015-04-09T14:26:52Z</time>
      </trkpt>
      <trkpt lat="46.919208979234099" lon="16.13504801876843">
        <ele>281.800000000000011</ele>
        <time>2015-04-09T14:27:15Z</time>
      </trkpt>
      <trkpt lat="46.919208979234099" lon="16.135050030425191">
        <ele>281.800000000000011</ele>
        <time>2015-04-09T14:27:51Z</time>
      </trkpt>
      <trkpt lat="46.919208979234099" lon="16.135050030425191">
        <ele>281.800000000000011</ele>
        <time>2015-04-09T14:28:28Z</time>
      </trkpt>
    </trkseg>
  </trk>

</gpx>
